<?xml version='1.0' encoding='UTF-8'?><gpx version="1.1" creator="JPX - https://github.com/jenetics/jpx" xmlns="http://www.topografix.com/GPX/1/1"><trk><trkseg><trkpt lat="44.6363867" lon="11.0644358"><ele>28.0</ele><time>2026-04-12T09:04:19.979Z</time></trkpt><trkpt lat="44.6364988" lon="11.0645034"><ele>27.999999999999996</ele><time>2026-04-12T09:06:04.979Z</time></trkpt><trkpt lat="44.6365969" lon="11.0645775"><ele>27.999999999999996</ele><time>2026-04-12T09:06:06.98Z</time></trkpt><trkpt lat="44.6366742" lon="11.0646327"><ele>28.0</ele><time>2026-04-12T09:06:08.979Z</time></trkpt><trkpt lat="44.636768" lon="11.0645963"><ele>28.0</ele><time>2026-04-12T09:06:11.978Z</time></trkpt><trkpt lat="44.6368194" lon="11.064453"><ele>28.0</ele><time>2026-04-12T09:06:13.98Z</time></trkpt><trkpt lat="44.6368605" lon="11.0643453"><ele>28.0</ele><time>2026-04-12T09:06:15.979Z</time></trkpt><trkpt lat="44.6369488" lon="11.0643232"><ele>28.0</ele><time>2026-04-12T09:06:18.981Z</time></trkpt><trkpt lat="44.6370045" lon="11.0643645"><ele>28.0</ele><time>2026-04-12T09:06:19.979Z</time></trkpt><trkpt lat="44.6370703" lon="11.0644057"><ele>28.0</ele><time>2026-04-12T09:06:20.979Z</time></trkpt><trkpt lat="44.6371339" lon="11.0644512"><ele>28.0</ele><time>2026-04-12T09:06:21.98Z</time></trkpt><trkpt lat="44.637194" lon="11.0644908"><ele>28.0</ele><time>2026-04-12T09:06:22.978Z</time></trkpt><trkpt lat="44.6372545" lon="11.0645291"><ele>28.500000000000004</ele><time>2026-04-12T09:06:23.978Z</time></trkpt><trkpt lat="44.6373206" lon="11.0645706"><ele>29.0</ele><time>2026-04-12T09:06:24.979Z</time></trkpt><trkpt lat="44.6373905" lon="11.0646127"><ele>29.5</ele><time>2026-04-12T09:06:25.98Z</time></trkpt><trkpt lat="44.6374573" lon="11.0646532"><ele>30.0</ele><time>2026-04-12T09:06:26.98Z</time></trkpt><trkpt lat="44.6375516" lon="11.0647142"><ele>30.500000000000004</ele><time>2026-04-12T09:06:28.98Z</time></trkpt><trkpt lat="44.6375873" lon="11.0647873"><ele>31.0</ele><time>2026-04-12T09:06:30.981Z</time></trkpt><trkpt lat="44.6375585" lon="11.0649127"><ele>30.666666666666668</ele><time>2026-04-12T09:06:32.979Z</time></trkpt><trkpt lat="44.6375271" lon="11.0650046"><ele>30.333333333333336</ele><time>2026-04-12T09:06:33.979Z</time></trkpt><trkpt lat="44.6374954" lon="11.0651048"><ele>30.0</ele><time>2026-04-12T09:06:34.979Z</time></trkpt><trkpt lat="44.6374609" lon="11.0652145"><ele>29.666666666666664</ele><time>2026-04-12T09:06:35.978Z</time></trkpt><trkpt lat="44.6374248" lon="11.0653335"><ele>29.333333333333332</ele><time>2026-04-12T09:06:36.978Z</time></trkpt><trkpt lat="44.6373869" lon="11.0654594"><ele>29.0</ele><time>2026-04-12T09:06:37.979Z</time></trkpt><trkpt lat="44.6373485" lon="11.0655876"><ele>29.0</ele><time>2026-04-12T09:06:38.979Z</time></trkpt><trkpt lat="44.6373092" lon="11.0657172"><ele>29.0</ele><time>2026-04-12T09:06:39.981Z</time></trkpt><trkpt lat="44.6372668" lon="11.0658544"><ele>29.0</ele><time>2026-04-12T09:06:40.98Z</time></trkpt><trkpt lat="44.6372238" lon="11.0659975"><ele>29.0</ele><time>2026-04-12T09:06:41.98Z</time></trkpt><trkpt lat="44.6371781" lon="11.0661493"><ele>29.0</ele><time>2026-04-12T09:06:42.979Z</time></trkpt><trkpt lat="44.6371301" lon="11.0663026"><ele>29.0</ele><time>2026-04-12T09:06:43.979Z</time></trkpt><trkpt lat="44.6370817" lon="11.0664531"><ele>29.0</ele><time>2026-04-12T09:06:44.979Z</time></trkpt><trkpt lat="44.6370343" lon="11.066602"><ele>29.0</ele><time>2026-04-12T09:06:45.979Z</time></trkpt><trkpt lat="44.6369862" lon="11.0667526"><ele>29.0</ele><time>2026-04-12T09:06:46.979Z</time></trkpt><trkpt lat="44.636937" lon="11.0669054"><ele>28.75</ele><time>2026-04-12T09:06:47.98Z</time></trkpt><trkpt lat="44.6368901" lon="11.0670563"><ele>28.5</ele><time>2026-04-12T09:06:48.979Z</time></trkpt><trkpt lat="44.6368441" lon="11.0672041"><ele>28.25</ele><time>2026-04-12T09:06:49.98Z</time></trkpt><trkpt lat="44.6368014" lon="11.06735"><ele>28.0</ele><time>2026-04-12T09:06:50.981Z</time></trkpt><trkpt lat="44.636757" lon="11.067496"><ele>27.5</ele><time>2026-04-12T09:06:51.979Z</time></trkpt><trkpt lat="44.6367097" lon="11.0676411"><ele>27.0</ele><time>2026-04-12T09:06:52.979Z</time></trkpt><trkpt lat="44.6366593" lon="11.0677822"><ele>26.5</ele><time>2026-04-12T09:06:53.981Z</time></trkpt><trkpt lat="44.6366058" lon="11.0679238"><ele>26.0</ele><time>2026-04-12T09:06:54.981Z</time></trkpt><trkpt lat="44.636551" lon="11.0680634"><ele>26.0</ele><time>2026-04-12T09:06:55.98Z</time></trkpt><trkpt lat="44.6364951" lon="11.0682041"><ele>26.0</ele><time>2026-04-12T09:06:56.979Z</time></trkpt><trkpt lat="44.6364392" lon="11.0683477"><ele>26.0</ele><time>2026-04-12T09:06:57.979Z</time></trkpt><trkpt lat="44.636385" lon="11.0684905"><ele>26.0</ele><time>2026-04-12T09:06:58.98Z</time></trkpt><trkpt lat="44.6363309" lon="11.0686311"><ele>26.25</ele><time>2026-04-12T09:06:59.981Z</time></trkpt><trkpt lat="44.636275" lon="11.0687656"><ele>26.5</ele><time>2026-04-12T09:07:00.98Z</time></trkpt><trkpt lat="44.6362175" lon="11.0689009"><ele>26.75</ele><time>2026-04-12T09:07:01.98Z</time></trkpt><trkpt lat="44.6361601" lon="11.0690393"><ele>27.0</ele><time>2026-04-12T09:07:02.98Z</time></trkpt><trkpt lat="44.6361027" lon="11.0691852"><ele>27.5</ele><time>2026-04-12T09:07:03.98Z</time></trkpt><trkpt lat="44.636046" lon="11.0693335"><ele>28.0</ele><time>2026-04-12T09:07:04.982Z</time></trkpt><trkpt lat="44.6359862" lon="11.0694835"><ele>28.5</ele><time>2026-04-12T09:07:05.981Z</time></trkpt><trkpt lat="44.6359244" lon="11.0696344"><ele>29.0</ele><time>2026-04-12T09:07:06.982Z</time></trkpt><trkpt lat="44.6358636" lon="11.0697768"><ele>29.0</ele><time>2026-04-12T09:07:07.981Z</time></trkpt><trkpt lat="44.6358023" lon="11.0699186"><ele>29.0</ele><time>2026-04-12T09:07:08.981Z</time></trkpt><trkpt lat="44.6357419" lon="11.070057"><ele>29.0</ele><time>2026-04-12T09:07:09.981Z</time></trkpt><trkpt lat="44.6356809" lon="11.0701942"><ele>29.0</ele><time>2026-04-12T09:07:10.982Z</time></trkpt><trkpt lat="44.6356189" lon="11.0703277"><ele>28.999999999999996</ele><time>2026-04-12T09:07:11.981Z</time></trkpt><trkpt lat="44.6355586" lon="11.0704584"><ele>29.0</ele><time>2026-04-12T09:07:12.982Z</time></trkpt><trkpt lat="44.6355058" lon="11.0705773"><ele>29.0</ele><time>2026-04-12T09:07:13.98Z</time></trkpt><trkpt lat="44.6354661" lon="11.0706787"><ele>29.0</ele><time>2026-04-12T09:07:14.98Z</time></trkpt><trkpt lat="44.635435" lon="11.0707609"><ele>28.999999999999996</ele><time>2026-04-12T09:07:15.981Z</time></trkpt><trkpt lat="44.6353741" lon="11.0708364"><ele>29.0</ele><time>2026-04-12T09:07:17.981Z</time></trkpt><trkpt lat="44.6352777" lon="11.0707962"><ele>28.833333333333332</ele><time>2026-04-12T09:07:19.981Z</time></trkpt><trkpt lat="44.6352126" lon="11.0707466"><ele>28.666666666666664</ele><time>2026-04-12T09:07:20.981Z</time></trkpt><trkpt lat="44.635146" lon="11.0706915"><ele>28.5</ele><time>2026-04-12T09:07:21.981Z</time></trkpt><trkpt lat="44.6350661" lon="11.0706348"><ele>28.333333333333336</ele><time>2026-04-12T09:07:22.98Z</time></trkpt><trkpt lat="44.6349785" lon="11.070578"><ele>28.166666666666668</ele><time>2026-04-12T09:07:23.98Z</time></trkpt><trkpt lat="44.634883" lon="11.0705208"><ele>28.0</ele><time>2026-04-12T09:07:24.981Z</time></trkpt><trkpt lat="44.6347863" lon="11.0704644"><ele>28.0</ele><time>2026-04-12T09:07:25.98Z</time></trkpt><trkpt lat="44.6346903" lon="11.0704062"><ele>27.999999999999996</ele><time>2026-04-12T09:07:26.981Z</time></trkpt><trkpt lat="44.6345911" lon="11.0703461"><ele>27.999999999999996</ele><time>2026-04-12T09:07:27.982Z</time></trkpt><trkpt lat="44.6344858" lon="11.0702813"><ele>28.0</ele><time>2026-04-12T09:07:28.98Z</time></trkpt><trkpt lat="44.6343746" lon="11.0702125"><ele>28.0</ele><time>2026-04-12T09:07:29.981Z</time></trkpt><trkpt lat="44.6342573" lon="11.0701436"><ele>27.75</ele><time>2026-04-12T09:07:30.98Z</time></trkpt><trkpt lat="44.6341384" lon="11.0700715"><ele>27.5</ele><time>2026-04-12T09:07:31.981Z</time></trkpt><trkpt lat="44.6340176" lon="11.070001"><ele>27.25</ele><time>2026-04-12T09:07:32.981Z</time></trkpt><trkpt lat="44.6338948" lon="11.0699293"><ele>27.0</ele><time>2026-04-12T09:07:33.98Z</time></trkpt><trkpt lat="44.6337722" lon="11.0698566"><ele>27.0</ele><time>2026-04-12T09:07:34.98Z</time></trkpt><trkpt lat="44.6336491" lon="11.0697822"><ele>27.0</ele><time>2026-04-12T09:07:35.981Z</time></trkpt><trkpt lat="44.6335237" lon="11.0697071"><ele>27.0</ele><time>2026-04-12T09:07:36.981Z</time></trkpt><trkpt lat="44.6333996" lon="11.0696322"><ele>27.0</ele><time>2026-04-12T09:07:37.98Z</time></trkpt><trkpt lat="44.6332769" lon="11.0695592"><ele>27.25</ele><time>2026-04-12T09:07:38.98Z</time></trkpt><trkpt lat="44.6331569" lon="11.0694881"><ele>27.5</ele><time>2026-04-12T09:07:39.979Z</time></trkpt><trkpt lat="44.6330372" lon="11.0694161"><ele>27.75</ele><time>2026-04-12T09:07:40.979Z</time></trkpt><trkpt lat="44.6329171" lon="11.0693425"><ele>28.0</ele><time>2026-04-12T09:07:41.979Z</time></trkpt><trkpt lat="44.6327939" lon="11.0692708"><ele>28.0</ele><time>2026-04-12T09:07:42.981Z</time></trkpt><trkpt lat="44.6326699" lon="11.0691963"><ele>28.0</ele><time>2026-04-12T09:07:43.981Z</time></trkpt><trkpt lat="44.632545" lon="11.0691198"><ele>28.0</ele><time>2026-04-12T09:07:44.98Z</time></trkpt><trkpt lat="44.6324183" lon="11.0690429"><ele>28.0</ele><time>2026-04-12T09:07:45.982Z</time></trkpt><trkpt lat="44.6322925" lon="11.0689649"><ele>28.0</ele><time>2026-04-12T09:07:46.981Z</time></trkpt><trkpt lat="44.6321658" lon="11.0688856"><ele>28.0</ele><time>2026-04-12T09:07:47.982Z</time></trkpt><trkpt lat="44.6320414" lon="11.0688057"><ele>28.0</ele><time>2026-04-12T09:07:48.981Z</time></trkpt><trkpt lat="44.631919" lon="11.0687269"><ele>28.0</ele><time>2026-04-12T09:07:49.98Z</time></trkpt><trkpt lat="44.6317939" lon="11.0686462"><ele>28.25</ele><time>2026-04-12T09:07:50.981Z</time></trkpt><trkpt lat="44.6316631" lon="11.0685647"><ele>28.5</ele><time>2026-04-12T09:07:51.981Z</time></trkpt><trkpt lat="44.6315268" lon="11.0684845"><ele>28.75</ele><time>2026-04-12T09:07:52.981Z</time></trkpt><trkpt lat="44.6313902" lon="11.0684019"><ele>29.0</ele><time>2026-04-12T09:07:53.981Z</time></trkpt><trkpt lat="44.6312519" lon="11.0683175"><ele>28.666666666666664</ele><time>2026-04-12T09:07:54.981Z</time></trkpt><trkpt lat="44.6311126" lon="11.068235"><ele>28.333333333333336</ele><time>2026-04-12T09:07:55.983Z</time></trkpt><trkpt lat="44.6309721" lon="11.0681497"><ele>28.0</ele><time>2026-04-12T09:07:56.982Z</time></trkpt><trkpt lat="44.6308302" lon="11.0680628"><ele>28.0</ele><time>2026-04-12T09:07:57.983Z</time></trkpt><trkpt lat="44.6306873" lon="11.0679734"><ele>28.0</ele><time>2026-04-12T09:07:58.98Z</time></trkpt><trkpt lat="44.6305435" lon="11.0678857"><ele>28.0</ele><time>2026-04-12T09:07:59.981Z</time></trkpt><trkpt lat="44.6303978" lon="11.0678009"><ele>29.0</ele><time>2026-04-12T09:08:00.979Z</time></trkpt><trkpt lat="44.63025" lon="11.0677182"><ele>30.0</ele><time>2026-04-12T09:08:01.98Z</time></trkpt><trkpt lat="44.6301031" lon="11.0676349"><ele>31.0</ele><time>2026-04-12T09:08:02.98Z</time></trkpt><trkpt lat="44.6299578" lon="11.0675464"><ele>31.0</ele><time>2026-04-12T09:08:03.981Z</time></trkpt><trkpt lat="44.6298158" lon="11.0674523"><ele>31.0</ele><time>2026-04-12T09:08:04.979Z</time></trkpt><trkpt lat="44.6296759" lon="11.0673657"><ele>31.0</ele><time>2026-04-12T09:08:05.979Z</time></trkpt><trkpt lat="44.629534" lon="11.0672728"><ele>31.0</ele><time>2026-04-12T09:08:06.981Z</time></trkpt><trkpt lat="44.6293925" lon="11.0671786"><ele>31.0</ele><time>2026-04-12T09:08:07.979Z</time></trkpt><trkpt lat="44.6292501" lon="11.0670854"><ele>31.0</ele><time>2026-04-12T09:08:08.979Z</time></trkpt><trkpt lat="44.6291056" lon="11.066996"><ele>31.0</ele><time>2026-04-12T09:08:09.979Z</time></trkpt><trkpt lat="44.6289609" lon="11.0669025"><ele>31.0</ele><time>2026-04-12T09:08:10.98Z</time></trkpt><trkpt lat="44.6288156" lon="11.066814"><ele>31.0</ele><time>2026-04-12T09:08:11.979Z</time></trkpt><trkpt lat="44.6286715" lon="11.0667267"><ele>30.666666666666668</ele><time>2026-04-12T09:08:12.98Z</time></trkpt><trkpt lat="44.628527" lon="11.0666363"><ele>30.333333333333336</ele><time>2026-04-12T09:08:13.981Z</time></trkpt><trkpt lat="44.628382" lon="11.0665417"><ele>30.0</ele><time>2026-04-12T09:08:14.981Z</time></trkpt><trkpt lat="44.6282375" lon="11.0664475"><ele>30.0</ele><time>2026-04-12T09:08:15.98Z</time></trkpt><trkpt lat="44.628091" lon="11.0663527"><ele>30.0</ele><time>2026-04-12T09:08:16.979Z</time></trkpt><trkpt lat="44.6279472" lon="11.0662577"><ele>30.0</ele><time>2026-04-12T09:08:17.979Z</time></trkpt><trkpt lat="44.6278027" lon="11.0661635"><ele>30.0</ele><time>2026-04-12T09:08:18.98Z</time></trkpt><trkpt lat="44.6276586" lon="11.0660687"><ele>30.0</ele><time>2026-04-12T09:08:19.98Z</time></trkpt><trkpt lat="44.6275135" lon="11.0659754"><ele>30.0</ele><time>2026-04-12T09:08:20.98Z</time></trkpt><trkpt lat="44.627368" lon="11.0658855"><ele>30.0</ele><time>2026-04-12T09:08:21.979Z</time></trkpt><trkpt lat="44.6272217" lon="11.0657982"><ele>30.0</ele><time>2026-04-12T09:08:22.98Z</time></trkpt><trkpt lat="44.627075" lon="11.06571"><ele>30.0</ele><time>2026-04-12T09:08:23.981Z</time></trkpt><trkpt lat="44.6269254" lon="11.0656227"><ele>30.333333333333336</ele><time>2026-04-12T09:08:24.98Z</time></trkpt><trkpt lat="44.6267734" lon="11.0655355"><ele>30.666666666666668</ele><time>2026-04-12T09:08:25.982Z</time></trkpt><trkpt lat="44.6266205" lon="11.0654462"><ele>31.0</ele><time>2026-04-12T09:08:26.98Z</time></trkpt><trkpt lat="44.6264662" lon="11.0653536"><ele>31.0</ele><time>2026-04-12T09:08:27.979Z</time></trkpt><trkpt lat="44.6263111" lon="11.0652601"><ele>31.0</ele><time>2026-04-12T09:08:28.98Z</time></trkpt><trkpt lat="44.6261575" lon="11.0651683"><ele>31.0</ele><time>2026-04-12T09:08:29.98Z</time></trkpt><trkpt lat="44.6260032" lon="11.0650783"><ele>31.0</ele><time>2026-04-12T09:08:30.981Z</time></trkpt><trkpt lat="44.6258501" lon="11.0649862"><ele>31.0</ele><time>2026-04-12T09:08:31.981Z</time></trkpt><trkpt lat="44.6256971" lon="11.0648953"><ele>31.0</ele><time>2026-04-12T09:08:32.983Z</time></trkpt><trkpt lat="44.6255426" lon="11.0648019"><ele>31.0</ele><time>2026-04-12T09:08:33.98Z</time></trkpt><trkpt lat="44.6253887" lon="11.0647082"><ele>31.0</ele><time>2026-04-12T09:08:34.979Z</time></trkpt><trkpt lat="44.625235" lon="11.0646178"><ele>31.0</ele><time>2026-04-12T09:08:35.981Z</time></trkpt><trkpt lat="44.6250798" lon="11.0645272"><ele>30.666666666666668</ele><time>2026-04-12T09:08:36.982Z</time></trkpt><trkpt lat="44.6249246" lon="11.0644353"><ele>30.333333333333336</ele><time>2026-04-12T09:08:37.981Z</time></trkpt><trkpt lat="44.6247695" lon="11.064341"><ele>30.0</ele><time>2026-04-12T09:08:38.984Z</time></trkpt><trkpt lat="44.6246148" lon="11.0642468"><ele>30.333333333333336</ele><time>2026-04-12T09:08:39.981Z</time></trkpt><trkpt lat="44.6244621" lon="11.0641554"><ele>30.666666666666668</ele><time>2026-04-12T09:08:40.98Z</time></trkpt><trkpt lat="44.6243119" lon="11.0640664"><ele>31.0</ele><time>2026-04-12T09:08:41.981Z</time></trkpt><trkpt lat="44.6241626" lon="11.063977"><ele>31.333333333333336</ele><time>2026-04-12T09:08:42.98Z</time></trkpt><trkpt lat="44.6240139" lon="11.0638856"><ele>31.666666666666664</ele><time>2026-04-12T09:08:43.983Z</time></trkpt><trkpt lat="44.6238649" lon="11.0637946"><ele>32.0</ele><time>2026-04-12T09:08:44.981Z</time></trkpt><trkpt lat="44.6237156" lon="11.0637006"><ele>32.33333333333333</ele><time>2026-04-12T09:08:45.982Z</time></trkpt><trkpt lat="44.6235645" lon="11.0636066"><ele>32.666666666666664</ele><time>2026-04-12T09:08:46.981Z</time></trkpt><trkpt lat="44.6234137" lon="11.0635105"><ele>33.0</ele><time>2026-04-12T09:08:47.982Z</time></trkpt><trkpt lat="44.6232649" lon="11.0634149"><ele>33.0</ele><time>2026-04-12T09:08:48.981Z</time></trkpt><trkpt lat="44.6231179" lon="11.0633194"><ele>33.0</ele><time>2026-04-12T09:08:49.98Z</time></trkpt><trkpt lat="44.6229716" lon="11.0632251"><ele>33.0</ele><time>2026-04-12T09:08:50.981Z</time></trkpt><trkpt lat="44.6228246" lon="11.0631292"><ele>32.666666666666664</ele><time>2026-04-12T09:08:51.981Z</time></trkpt><trkpt lat="44.6226771" lon="11.0630357"><ele>32.33333333333333</ele><time>2026-04-12T09:08:52.982Z</time></trkpt><trkpt lat="44.6225299" lon="11.0629395"><ele>32.0</ele><time>2026-04-12T09:08:53.981Z</time></trkpt><trkpt lat="44.6223833" lon="11.0628411"><ele>32.0</ele><time>2026-04-12T09:08:54.981Z</time></trkpt><trkpt lat="44.6222335" lon="11.0627446"><ele>32.0</ele><time>2026-04-12T09:08:55.981Z</time></trkpt><trkpt lat="44.6220836" lon="11.062648"><ele>32.0</ele><time>2026-04-12T09:08:56.979Z</time></trkpt><trkpt lat="44.621934" lon="11.0625496"><ele>31.666666666666664</ele><time>2026-04-12T09:08:57.979Z</time></trkpt><trkpt lat="44.6217816" lon="11.0624471"><ele>31.333333333333336</ele><time>2026-04-12T09:08:58.98Z</time></trkpt><trkpt lat="44.6216253" lon="11.0623562"><ele>31.0</ele><time>2026-04-12T09:08:59.979Z</time></trkpt><trkpt lat="44.6214734" lon="11.0622638"><ele>31.0</ele><time>2026-04-12T09:09:00.98Z</time></trkpt><trkpt lat="44.6213239" lon="11.0621716"><ele>31.0</ele><time>2026-04-12T09:09:01.979Z</time></trkpt><trkpt lat="44.6211751" lon="11.0620802"><ele>31.0</ele><time>2026-04-12T09:09:02.979Z</time></trkpt><trkpt lat="44.6210295" lon="11.0619888"><ele>31.666666666666668</ele><time>2026-04-12T09:09:03.979Z</time></trkpt><trkpt lat="44.6208856" lon="11.0618975"><ele>32.333333333333336</ele><time>2026-04-12T09:09:04.979Z</time></trkpt><trkpt lat="44.6207417" lon="11.0618079"><ele>33.0</ele><time>2026-04-12T09:09:05.979Z</time></trkpt><trkpt lat="44.620597" lon="11.0617181"><ele>33.0</ele><time>2026-04-12T09:09:06.979Z</time></trkpt><trkpt lat="44.6204529" lon="11.0616287"><ele>33.0</ele><time>2026-04-12T09:09:07.979Z</time></trkpt><trkpt lat="44.6203069" lon="11.0615359"><ele>33.0</ele><time>2026-04-12T09:09:08.979Z</time></trkpt><trkpt lat="44.6201591" lon="11.0614425"><ele>33.0</ele><time>2026-04-12T09:09:09.982Z</time></trkpt><trkpt lat="44.6200118" lon="11.0613512"><ele>33.0</ele><time>2026-04-12T09:09:10.98Z</time></trkpt><trkpt lat="44.6198665" lon="11.0612617"><ele>33.0</ele><time>2026-04-12T09:09:11.98Z</time></trkpt><trkpt lat="44.6197217" lon="11.0611745"><ele>33.0</ele><time>2026-04-12T09:09:12.98Z</time></trkpt><trkpt lat="44.6195777" lon="11.061089"><ele>33.0</ele><time>2026-04-12T09:09:13.98Z</time></trkpt><trkpt lat="44.6194352" lon="11.0610023"><ele>33.0</ele><time>2026-04-12T09:09:14.979Z</time></trkpt><trkpt lat="44.6192928" lon="11.0609138"><ele>33.0</ele><time>2026-04-12T09:09:15.981Z</time></trkpt><trkpt lat="44.6191512" lon="11.0608249"><ele>33.0</ele><time>2026-04-12T09:09:16.98Z</time></trkpt><trkpt lat="44.6190096" lon="11.0607393"><ele>33.0</ele><time>2026-04-12T09:09:17.98Z</time></trkpt><trkpt lat="44.6188691" lon="11.060647"><ele>32.5</ele><time>2026-04-12T09:09:18.982Z</time></trkpt><trkpt lat="44.6187328" lon="11.0605578"><ele>32.0</ele><time>2026-04-12T09:09:19.979Z</time></trkpt><trkpt lat="44.6186028" lon="11.060474"><ele>31.5</ele><time>2026-04-12T09:09:20.981Z</time></trkpt><trkpt lat="44.618478" lon="11.0603965"><ele>31.0</ele><time>2026-04-12T09:09:21.98Z</time></trkpt><trkpt lat="44.6183584" lon="11.0603236"><ele>31.666666666666668</ele><time>2026-04-12T09:09:22.98Z</time></trkpt><trkpt lat="44.6182469" lon="11.0602579"><ele>32.333333333333336</ele><time>2026-04-12T09:09:23.979Z</time></trkpt><trkpt lat="44.6181495" lon="11.0602014"><ele>33.0</ele><time>2026-04-12T09:09:24.979Z</time></trkpt><trkpt lat="44.6180672" lon="11.0601541"><ele>33.666666666666664</ele><time>2026-04-12T09:09:25.98Z</time></trkpt><trkpt lat="44.6180049" lon="11.0601193"><ele>34.33333333333333</ele><time>2026-04-12T09:09:26.98Z</time></trkpt><trkpt lat="44.6179398" lon="11.0600969"><ele>35.0</ele><time>2026-04-12T09:09:28.979Z</time></trkpt><trkpt lat="44.6178598" lon="11.0601817"><ele>35.0</ele><time>2026-04-12T09:09:35.979Z</time></trkpt><trkpt lat="44.6177926" lon="11.0603604"><ele>35.0</ele><time>2026-04-12T09:09:37.979Z</time></trkpt><trkpt lat="44.6177598" lon="11.0604642"><ele>35.0</ele><time>2026-04-12T09:09:38.979Z</time></trkpt><trkpt lat="44.6177257" lon="11.0605723"><ele>35.0</ele><time>2026-04-12T09:09:39.98Z</time></trkpt><trkpt lat="44.6176897" lon="11.0606923"><ele>35.0</ele><time>2026-04-12T09:09:40.979Z</time></trkpt><trkpt lat="44.6176514" lon="11.0608176"><ele>35.0</ele><time>2026-04-12T09:09:41.979Z</time></trkpt><trkpt lat="44.6176105" lon="11.0609548"><ele>35.0</ele><time>2026-04-12T09:09:42.98Z</time></trkpt><trkpt lat="44.6175694" lon="11.061093"><ele>35.0</ele><time>2026-04-12T09:09:43.98Z</time></trkpt><trkpt lat="44.6175259" lon="11.0612338"><ele>35.0</ele><time>2026-04-12T09:09:44.981Z</time></trkpt><trkpt lat="44.6174832" lon="11.0613764"><ele>35.0</ele><time>2026-04-12T09:09:45.98Z</time></trkpt><trkpt lat="44.6174392" lon="11.0615195"><ele>34.75</ele><time>2026-04-12T09:09:46.981Z</time></trkpt><trkpt lat="44.6173909" lon="11.0616733"><ele>34.5</ele><time>2026-04-12T09:09:47.981Z</time></trkpt><trkpt lat="44.6173419" lon="11.0618344"><ele>34.25</ele><time>2026-04-12T09:09:48.98Z</time></trkpt><trkpt lat="44.6172892" lon="11.062002"><ele>34.0</ele><time>2026-04-12T09:09:49.98Z</time></trkpt><trkpt lat="44.6172336" lon="11.0621719"><ele>34.0</ele><time>2026-04-12T09:09:50.981Z</time></trkpt><trkpt lat="44.6171801" lon="11.0623498"><ele>34.0</ele><time>2026-04-12T09:09:51.98Z</time></trkpt><trkpt lat="44.6171272" lon="11.0625308"><ele>34.0</ele><time>2026-04-12T09:09:52.98Z</time></trkpt><trkpt lat="44.6170688" lon="11.0627152"><ele>34.0</ele><time>2026-04-12T09:09:53.98Z</time></trkpt><trkpt lat="44.6170109" lon="11.0629034"><ele>33.75</ele><time>2026-04-12T09:09:54.981Z</time></trkpt><trkpt lat="44.6169527" lon="11.0630947"><ele>33.5</ele><time>2026-04-12T09:09:55.98Z</time></trkpt><trkpt lat="44.6168928" lon="11.0632864"><ele>33.25</ele><time>2026-04-12T09:09:56.979Z</time></trkpt><trkpt lat="44.6168369" lon="11.0634834"><ele>33.0</ele><time>2026-04-12T09:09:57.978Z</time></trkpt><trkpt lat="44.6167726" lon="11.0636776"><ele>33.0</ele><time>2026-04-12T09:09:58.98Z</time></trkpt><trkpt lat="44.6167128" lon="11.0638692"><ele>33.0</ele><time>2026-04-12T09:09:59.979Z</time></trkpt><trkpt lat="44.6166528" lon="11.0640508"><ele>33.0</ele><time>2026-04-12T09:10:00.98Z</time></trkpt><trkpt lat="44.6165978" lon="11.0642302"><ele>33.0</ele><time>2026-04-12T09:10:01.98Z</time></trkpt><trkpt lat="44.6165423" lon="11.0644115"><ele>33.25</ele><time>2026-04-12T09:10:02.98Z</time></trkpt><trkpt lat="44.6164845" lon="11.064597"><ele>33.5</ele><time>2026-04-12T09:10:03.979Z</time></trkpt><trkpt lat="44.6164207" lon="11.064787"><ele>33.75</ele><time>2026-04-12T09:10:04.98Z</time></trkpt><trkpt lat="44.6163563" lon="11.0649819"><ele>34.0</ele><time>2026-04-12T09:10:05.979Z</time></trkpt><trkpt lat="44.6162943" lon="11.065179"><ele>33.333333333333336</ele><time>2026-04-12T09:10:06.984Z</time></trkpt><trkpt lat="44.616235" lon="11.0653799"><ele>32.666666666666664</ele><time>2026-04-12T09:10:07.979Z</time></trkpt><trkpt lat="44.6161718" lon="11.0655804"><ele>32.0</ele><time>2026-04-12T09:10:08.98Z</time></trkpt><trkpt lat="44.616108" lon="11.065779"><ele>32.0</ele><time>2026-04-12T09:10:09.98Z</time></trkpt><trkpt lat="44.6160463" lon="11.065978"><ele>32.0</ele><time>2026-04-12T09:10:10.98Z</time></trkpt><trkpt lat="44.615984" lon="11.0661756"><ele>32.0</ele><time>2026-04-12T09:10:11.979Z</time></trkpt><trkpt lat="44.6159222" lon="11.0663724"><ele>32.0</ele><time>2026-04-12T09:10:12.98Z</time></trkpt><trkpt lat="44.6158598" lon="11.0665686"><ele>32.0</ele><time>2026-04-12T09:10:13.98Z</time></trkpt><trkpt lat="44.6157977" lon="11.0667648"><ele>32.0</ele><time>2026-04-12T09:10:14.979Z</time></trkpt><trkpt lat="44.6157333" lon="11.0669624"><ele>32.0</ele><time>2026-04-12T09:10:15.982Z</time></trkpt><trkpt lat="44.6156691" lon="11.0671606"><ele>32.0</ele><time>2026-04-12T09:10:16.98Z</time></trkpt><trkpt lat="44.6156033" lon="11.0673619"><ele>32.0</ele><time>2026-04-12T09:10:17.98Z</time></trkpt><trkpt lat="44.6155378" lon="11.0675666"><ele>32.33333333333333</ele><time>2026-04-12T09:10:18.979Z</time></trkpt><trkpt lat="44.615472" lon="11.067774"><ele>32.666666666666664</ele><time>2026-04-12T09:10:19.979Z</time></trkpt><trkpt lat="44.6154039" lon="11.0679832"><ele>33.0</ele><time>2026-04-12T09:10:20.98Z</time></trkpt><trkpt lat="44.6153355" lon="11.0682005"><ele>33.666666666666664</ele><time>2026-04-12T09:10:21.98Z</time></trkpt><trkpt lat="44.6152655" lon="11.0684245"><ele>34.33333333333333</ele><time>2026-04-12T09:10:22.98Z</time></trkpt><trkpt lat="44.615196" lon="11.0686531"><ele>35.0</ele><time>2026-04-12T09:10:23.979Z</time></trkpt><trkpt lat="44.6151249" lon="11.0688865"><ele>34.666666666666664</ele><time>2026-04-12T09:10:24.98Z</time></trkpt><trkpt lat="44.6150495" lon="11.0691239"><ele>34.333333333333336</ele><time>2026-04-12T09:10:25.981Z</time></trkpt><trkpt lat="44.6149743" lon="11.0693649"><ele>34.0</ele><time>2026-04-12T09:10:26.98Z</time></trkpt><trkpt lat="44.6148981" lon="11.0696038"><ele>34.0</ele><time>2026-04-12T09:10:27.98Z</time></trkpt><trkpt lat="44.6148226" lon="11.0698436"><ele>34.0</ele><time>2026-04-12T09:10:28.98Z</time></trkpt><trkpt lat="44.614748" lon="11.0700857"><ele>34.0</ele><time>2026-04-12T09:10:29.979Z</time></trkpt><trkpt lat="44.6146706" lon="11.0703281"><ele>33.333333333333336</ele><time>2026-04-12T09:10:30.981Z</time></trkpt><trkpt lat="44.6145932" lon="11.0705725"><ele>32.666666666666664</ele><time>2026-04-12T09:10:31.978Z</time></trkpt><trkpt lat="44.6145157" lon="11.0708138"><ele>32.0</ele><time>2026-04-12T09:10:32.979Z</time></trkpt><trkpt lat="44.614442" lon="11.0710589"><ele>32.0</ele><time>2026-04-12T09:10:33.98Z</time></trkpt><trkpt lat="44.6143673" lon="11.0713013"><ele>32.0</ele><time>2026-04-12T09:10:34.979Z</time></trkpt><trkpt lat="44.61429" lon="11.0715413"><ele>32.0</ele><time>2026-04-12T09:10:35.98Z</time></trkpt><trkpt lat="44.6142151" lon="11.0717832"><ele>32.33333333333333</ele><time>2026-04-12T09:10:36.98Z</time></trkpt><trkpt lat="44.6141392" lon="11.072027"><ele>32.666666666666664</ele><time>2026-04-12T09:10:37.979Z</time></trkpt><trkpt lat="44.6140623" lon="11.0722716"><ele>33.0</ele><time>2026-04-12T09:10:38.98Z</time></trkpt><trkpt lat="44.6139844" lon="11.0725174"><ele>33.0</ele><time>2026-04-12T09:10:39.98Z</time></trkpt><trkpt lat="44.6139072" lon="11.0727625"><ele>33.0</ele><time>2026-04-12T09:10:40.979Z</time></trkpt><trkpt lat="44.6138294" lon="11.073007"><ele>33.0</ele><time>2026-04-12T09:10:41.981Z</time></trkpt><trkpt lat="44.6137512" lon="11.0732511"><ele>33.0</ele><time>2026-04-12T09:10:42.981Z</time></trkpt><trkpt lat="44.6136763" lon="11.0734959"><ele>33.0</ele><time>2026-04-12T09:10:43.982Z</time></trkpt><trkpt lat="44.613599" lon="11.0737422"><ele>33.0</ele><time>2026-04-12T09:10:44.98Z</time></trkpt><trkpt lat="44.6135176" lon="11.0739917"><ele>33.0</ele><time>2026-04-12T09:10:45.981Z</time></trkpt><trkpt lat="44.6134376" lon="11.0742399"><ele>33.0</ele><time>2026-04-12T09:10:46.979Z</time></trkpt><trkpt lat="44.6133585" lon="11.0744911"><ele>33.0</ele><time>2026-04-12T09:10:47.981Z</time></trkpt><trkpt lat="44.6132797" lon="11.0747434"><ele>32.333333333333336</ele><time>2026-04-12T09:10:48.98Z</time></trkpt><trkpt lat="44.6132014" lon="11.0749937"><ele>31.666666666666668</ele><time>2026-04-12T09:10:49.98Z</time></trkpt><trkpt lat="44.6131208" lon="11.0752392"><ele>31.0</ele><time>2026-04-12T09:10:50.98Z</time></trkpt><trkpt lat="44.6130428" lon="11.0754825"><ele>31.0</ele><time>2026-04-12T09:10:51.979Z</time></trkpt><trkpt lat="44.6129668" lon="11.0757264"><ele>31.0</ele><time>2026-04-12T09:10:52.979Z</time></trkpt><trkpt lat="44.6128934" lon="11.0759697"><ele>31.0</ele><time>2026-04-12T09:10:53.98Z</time></trkpt><trkpt lat="44.6128194" lon="11.0762125"><ele>31.333333333333336</ele><time>2026-04-12T09:10:54.98Z</time></trkpt><trkpt lat="44.6127436" lon="11.0764522"><ele>31.666666666666664</ele><time>2026-04-12T09:10:55.98Z</time></trkpt><trkpt lat="44.6126705" lon="11.0766967"><ele>32.0</ele><time>2026-04-12T09:10:56.98Z</time></trkpt><trkpt lat="44.6125935" lon="11.0769398"><ele>32.0</ele><time>2026-04-12T09:10:57.98Z</time></trkpt><trkpt lat="44.6125166" lon="11.077181"><ele>32.0</ele><time>2026-04-12T09:10:58.98Z</time></trkpt><trkpt lat="44.6124383" lon="11.0774246"><ele>32.0</ele><time>2026-04-12T09:10:59.979Z</time></trkpt><trkpt lat="44.6123596" lon="11.0776679"><ele>32.33333333333333</ele><time>2026-04-12T09:11:00.98Z</time></trkpt><trkpt lat="44.6122815" lon="11.0779121"><ele>32.666666666666664</ele><time>2026-04-12T09:11:01.98Z</time></trkpt><trkpt lat="44.6122022" lon="11.0781563"><ele>33.0</ele><time>2026-04-12T09:11:02.981Z</time></trkpt><trkpt lat="44.612125" lon="11.0784002"><ele>33.0</ele><time>2026-04-12T09:11:03.98Z</time></trkpt><trkpt lat="44.6120467" lon="11.0786429"><ele>33.0</ele><time>2026-04-12T09:11:04.98Z</time></trkpt><trkpt lat="44.6119695" lon="11.0788894"><ele>33.0</ele><time>2026-04-12T09:11:05.979Z</time></trkpt><trkpt lat="44.6118924" lon="11.0791341"><ele>32.333333333333336</ele><time>2026-04-12T09:11:06.98Z</time></trkpt><trkpt lat="44.6118143" lon="11.0793798"><ele>31.666666666666668</ele><time>2026-04-12T09:11:07.979Z</time></trkpt><trkpt lat="44.6117369" lon="11.0796249"><ele>31.0</ele><time>2026-04-12T09:11:08.98Z</time></trkpt><trkpt lat="44.6116582" lon="11.0798695"><ele>31.333333333333336</ele><time>2026-04-12T09:11:09.98Z</time></trkpt><trkpt lat="44.6115795" lon="11.0801161"><ele>31.666666666666664</ele><time>2026-04-12T09:11:10.98Z</time></trkpt><trkpt lat="44.6115" lon="11.080358"><ele>32.0</ele><time>2026-04-12T09:11:11.979Z</time></trkpt><trkpt lat="44.6114221" lon="11.0806015"><ele>32.666666666666664</ele><time>2026-04-12T09:11:12.979Z</time></trkpt><trkpt lat="44.6113445" lon="11.080847"><ele>33.333333333333336</ele><time>2026-04-12T09:11:13.979Z</time></trkpt><trkpt lat="44.6112668" lon="11.0810907"><ele>34.0</ele><time>2026-04-12T09:11:14.98Z</time></trkpt><trkpt lat="44.6111888" lon="11.0813318"><ele>33.66666666666667</ele><time>2026-04-12T09:11:15.98Z</time></trkpt><trkpt lat="44.6111116" lon="11.081572"><ele>33.333333333333336</ele><time>2026-04-12T09:11:16.979Z</time></trkpt><trkpt lat="44.6110362" lon="11.0818113"><ele>33.0</ele><time>2026-04-12T09:11:17.98Z</time></trkpt><trkpt lat="44.6109642" lon="11.0820507"><ele>33.0</ele><time>2026-04-12T09:11:18.981Z</time></trkpt><trkpt lat="44.6108916" lon="11.0822843"><ele>33.0</ele><time>2026-04-12T09:11:19.98Z</time></trkpt><trkpt lat="44.6108203" lon="11.0825092"><ele>33.0</ele><time>2026-04-12T09:11:20.981Z</time></trkpt><trkpt lat="44.6107517" lon="11.0827246"><ele>33.0</ele><time>2026-04-12T09:11:21.98Z</time></trkpt><trkpt lat="44.6106888" lon="11.0829265"><ele>33.0</ele><time>2026-04-12T09:11:22.98Z</time></trkpt><trkpt lat="44.6106304" lon="11.083111"><ele>33.0</ele><time>2026-04-12T09:11:23.98Z</time></trkpt><trkpt lat="44.6105776" lon="11.0832804"><ele>33.0</ele><time>2026-04-12T09:11:24.98Z</time></trkpt><trkpt lat="44.6105297" lon="11.0834344"><ele>33.0</ele><time>2026-04-12T09:11:25.979Z</time></trkpt><trkpt lat="44.6104877" lon="11.0835764"><ele>33.0</ele><time>2026-04-12T09:11:26.979Z</time></trkpt><trkpt lat="44.6104466" lon="11.0837059"><ele>33.0</ele><time>2026-04-12T09:11:27.981Z</time></trkpt><trkpt lat="44.6104057" lon="11.08382"><ele>33.0</ele><time>2026-04-12T09:11:28.979Z</time></trkpt><trkpt lat="44.6103726" lon="11.0839203"><ele>33.0</ele><time>2026-04-12T09:11:29.981Z</time></trkpt><trkpt lat="44.6103446" lon="11.0840097"><ele>33.0</ele><time>2026-04-12T09:11:30.981Z</time></trkpt><trkpt lat="44.6103172" lon="11.0840912"><ele>33.0</ele><time>2026-04-12T09:11:31.98Z</time></trkpt><trkpt lat="44.610266" lon="11.0842366"><ele>33.0</ele><time>2026-04-12T09:11:33.981Z</time></trkpt><trkpt lat="44.6102312" lon="11.0843293"><ele>33.0</ele><time>2026-04-12T09:11:35.981Z</time></trkpt><trkpt lat="44.6101927" lon="11.0844279"><ele>33.0</ele><time>2026-04-12T09:11:50.98Z</time></trkpt><trkpt lat="44.6101111" lon="11.0845307"><ele>33.0</ele><time>2026-04-12T09:11:52.98Z</time></trkpt><trkpt lat="44.6100445" lon="11.0845619"><ele>33.333333333333336</ele><time>2026-04-12T09:11:53.98Z</time></trkpt><trkpt lat="44.6099716" lon="11.0845798"><ele>33.666666666666664</ele><time>2026-04-12T09:11:54.979Z</time></trkpt><trkpt lat="44.6098986" lon="11.0845949"><ele>34.0</ele><time>2026-04-12T09:11:55.979Z</time></trkpt><trkpt lat="44.6098193" lon="11.0846129"><ele>34.33333333333333</ele><time>2026-04-12T09:11:56.979Z</time></trkpt><trkpt lat="44.6097344" lon="11.0846366"><ele>34.666666666666664</ele><time>2026-04-12T09:11:57.979Z</time></trkpt><trkpt lat="44.6096402" lon="11.0846614"><ele>35.0</ele><time>2026-04-12T09:11:58.978Z</time></trkpt><trkpt lat="44.6095418" lon="11.0846923"><ele>34.8</ele><time>2026-04-12T09:11:59.978Z</time></trkpt><trkpt lat="44.6094371" lon="11.0847228"><ele>34.6</ele><time>2026-04-12T09:12:00.98Z</time></trkpt><trkpt lat="44.6093299" lon="11.0847569"><ele>34.4</ele><time>2026-04-12T09:12:01.978Z</time></trkpt><trkpt lat="44.6092213" lon="11.0847889"><ele>34.2</ele><time>2026-04-12T09:12:02.978Z</time></trkpt><trkpt lat="44.6091088" lon="11.0848222"><ele>34.0</ele><time>2026-04-12T09:12:03.979Z</time></trkpt><trkpt lat="44.6089892" lon="11.0848596"><ele>34.0</ele><time>2026-04-12T09:12:04.978Z</time></trkpt><trkpt lat="44.6088646" lon="11.0848962"><ele>34.0</ele><time>2026-04-12T09:12:05.978Z</time></trkpt><trkpt lat="44.6087345" lon="11.0849337"><ele>34.0</ele><time>2026-04-12T09:12:06.98Z</time></trkpt><trkpt lat="44.6086008" lon="11.0849693"><ele>34.0</ele><time>2026-04-12T09:12:07.978Z</time></trkpt><trkpt lat="44.6084635" lon="11.0850034"><ele>34.0</ele><time>2026-04-12T09:12:08.979Z</time></trkpt><trkpt lat="44.6083213" lon="11.0850395"><ele>34.0</ele><time>2026-04-12T09:12:09.979Z</time></trkpt><trkpt lat="44.608176" lon="11.0850824"><ele>34.0</ele><time>2026-04-12T09:12:10.978Z</time></trkpt><trkpt lat="44.6080294" lon="11.0851254"><ele>34.0</ele><time>2026-04-12T09:12:11.979Z</time></trkpt><trkpt lat="44.6078817" lon="11.0851649"><ele>33.25</ele><time>2026-04-12T09:12:12.978Z</time></trkpt><trkpt lat="44.6077358" lon="11.0851984"><ele>32.5</ele><time>2026-04-12T09:12:13.979Z</time></trkpt><trkpt lat="44.6075927" lon="11.0852304"><ele>31.75</ele><time>2026-04-12T09:12:14.979Z</time></trkpt><trkpt lat="44.607448" lon="11.0852614"><ele>31.0</ele><time>2026-04-12T09:12:15.979Z</time></trkpt><trkpt lat="44.6072983" lon="11.0852921"><ele>31.0</ele><time>2026-04-12T09:12:16.979Z</time></trkpt><trkpt lat="44.6071465" lon="11.0853252"><ele>31.0</ele><time>2026-04-12T09:12:17.978Z</time></trkpt><trkpt lat="44.6069895" lon="11.085357"><ele>31.0</ele><time>2026-04-12T09:12:18.98Z</time></trkpt><trkpt lat="44.606832" lon="11.0853833"><ele>31.0</ele><time>2026-04-12T09:12:19.978Z</time></trkpt><trkpt lat="44.606671" lon="11.0854019"><ele>31.0</ele><time>2026-04-12T09:12:20.978Z</time></trkpt><trkpt lat="44.6065085" lon="11.0854214"><ele>31.0</ele><time>2026-04-12T09:12:21.98Z</time></trkpt><trkpt lat="44.6063446" lon="11.0854425"><ele>31.0</ele><time>2026-04-12T09:12:22.979Z</time></trkpt><trkpt lat="44.6061804" lon="11.0854623"><ele>31.0</ele><time>2026-04-12T09:12:23.979Z</time></trkpt><trkpt lat="44.6060161" lon="11.0854776"><ele>31.0</ele><time>2026-04-12T09:12:24.978Z</time></trkpt><trkpt lat="44.6058511" lon="11.0854831"><ele>31.666666666666668</ele><time>2026-04-12T09:12:25.979Z</time></trkpt><trkpt lat="44.6056854" lon="11.0854701"><ele>32.333333333333336</ele><time>2026-04-12T09:12:26.978Z</time></trkpt><trkpt lat="44.605518" lon="11.0854412"><ele>33.0</ele><time>2026-04-12T09:12:27.98Z</time></trkpt><trkpt lat="44.6053512" lon="11.0854056"><ele>32.333333333333336</ele><time>2026-04-12T09:12:28.979Z</time></trkpt><trkpt lat="44.6051844" lon="11.0853704"><ele>31.666666666666668</ele><time>2026-04-12T09:12:29.978Z</time></trkpt><trkpt lat="44.6050168" lon="11.0853331"><ele>31.0</ele><time>2026-04-12T09:12:30.98Z</time></trkpt><trkpt lat="44.6048551" lon="11.0852943"><ele>31.0</ele><time>2026-04-12T09:12:31.978Z</time></trkpt><trkpt lat="44.6046984" lon="11.0852588"><ele>31.0</ele><time>2026-04-12T09:12:32.979Z</time></trkpt><trkpt lat="44.6045518" lon="11.0852282"><ele>31.0</ele><time>2026-04-12T09:12:33.978Z</time></trkpt><trkpt lat="44.6044178" lon="11.0851979"><ele>31.0</ele><time>2026-04-12T09:12:34.978Z</time></trkpt><trkpt lat="44.6042845" lon="11.0851678"><ele>30.75</ele><time>2026-04-12T09:12:35.978Z</time></trkpt><trkpt lat="44.6041528" lon="11.0851354"><ele>30.5</ele><time>2026-04-12T09:12:36.979Z</time></trkpt><trkpt lat="44.6040184" lon="11.0851021"><ele>30.25</ele><time>2026-04-12T09:12:37.98Z</time></trkpt><trkpt lat="44.6038804" lon="11.0850721"><ele>30.0</ele><time>2026-04-12T09:12:38.98Z</time></trkpt><trkpt lat="44.6037402" lon="11.0850429"><ele>30.25</ele><time>2026-04-12T09:12:39.978Z</time></trkpt><trkpt lat="44.6035982" lon="11.0850155"><ele>30.5</ele><time>2026-04-12T09:12:40.979Z</time></trkpt><trkpt lat="44.6034538" lon="11.0849867"><ele>30.75</ele><time>2026-04-12T09:12:41.979Z</time></trkpt><trkpt lat="44.6033087" lon="11.0849549"><ele>31.0</ele><time>2026-04-12T09:12:42.98Z</time></trkpt><trkpt lat="44.6031627" lon="11.0849054"><ele>31.0</ele><time>2026-04-12T09:12:43.979Z</time></trkpt><trkpt lat="44.6030194" lon="11.0848315"><ele>31.0</ele><time>2026-04-12T09:12:44.979Z</time></trkpt><trkpt lat="44.6028754" lon="11.0847472"><ele>31.0</ele><time>2026-04-12T09:12:45.979Z</time></trkpt><trkpt lat="44.6027269" lon="11.0846561"><ele>31.0</ele><time>2026-04-12T09:12:46.979Z</time></trkpt><trkpt lat="44.6025775" lon="11.0845636"><ele>31.0</ele><time>2026-04-12T09:12:47.979Z</time></trkpt><trkpt lat="44.6024241" lon="11.0844694"><ele>31.0</ele><time>2026-04-12T09:12:48.979Z</time></trkpt><trkpt lat="44.6022692" lon="11.0843774"><ele>31.0</ele><time>2026-04-12T09:12:49.981Z</time></trkpt><trkpt lat="44.6021191" lon="11.0842883"><ele>31.0</ele><time>2026-04-12T09:12:50.98Z</time></trkpt><trkpt lat="44.6019717" lon="11.0841998"><ele>31.0</ele><time>2026-04-12T09:12:51.98Z</time></trkpt><trkpt lat="44.6018316" lon="11.0841158"><ele>31.5</ele><time>2026-04-12T09:12:52.98Z</time></trkpt><trkpt lat="44.6017034" lon="11.0840387"><ele>32.0</ele><time>2026-04-12T09:12:53.98Z</time></trkpt><trkpt lat="44.6015847" lon="11.0839663"><ele>32.5</ele><time>2026-04-12T09:12:54.98Z</time></trkpt><trkpt lat="44.6014719" lon="11.0838948"><ele>33.0</ele><time>2026-04-12T09:12:55.98Z</time></trkpt><trkpt lat="44.6013719" lon="11.0838247"><ele>33.0</ele><time>2026-04-12T09:12:56.98Z</time></trkpt><trkpt lat="44.6012914" lon="11.0837584"><ele>33.0</ele><time>2026-04-12T09:12:57.979Z</time></trkpt><trkpt lat="44.6012347" lon="11.083694"><ele>33.0</ele><time>2026-04-12T09:12:58.98Z</time></trkpt><trkpt lat="44.6011699" lon="11.0835526"><ele>33.0</ele><time>2026-04-12T09:13:00.979Z</time></trkpt><trkpt lat="44.6011394" lon="11.0834716"><ele>33.0</ele><time>2026-04-12T09:13:01.979Z</time></trkpt><trkpt lat="44.6010973" lon="11.0833898"><ele>33.0</ele><time>2026-04-12T09:13:02.98Z</time></trkpt><trkpt lat="44.601044" lon="11.0833352"><ele>32.833333333333336</ele><time>2026-04-12T09:13:03.979Z</time></trkpt><trkpt lat="44.6009784" lon="11.0833142"><ele>32.666666666666664</ele><time>2026-04-12T09:13:04.98Z</time></trkpt><trkpt lat="44.6009049" lon="11.0833209"><ele>32.5</ele><time>2026-04-12T09:13:05.979Z</time></trkpt><trkpt lat="44.6008282" lon="11.0833536"><ele>32.33333333333333</ele><time>2026-04-12T09:13:06.98Z</time></trkpt><trkpt lat="44.6007499" lon="11.083385"><ele>32.166666666666664</ele><time>2026-04-12T09:13:07.978Z</time></trkpt><trkpt lat="44.6006652" lon="11.0833991"><ele>32.0</ele><time>2026-04-12T09:13:08.981Z</time></trkpt><trkpt lat="44.6005756" lon="11.0833921"><ele>32.0</ele><time>2026-04-12T09:13:09.979Z</time></trkpt><trkpt lat="44.6004807" lon="11.0833655"><ele>32.0</ele><time>2026-04-12T09:13:10.978Z</time></trkpt><trkpt lat="44.6003827" lon="11.0833298"><ele>32.0</ele><time>2026-04-12T09:13:11.979Z</time></trkpt><trkpt lat="44.6002789" lon="11.0832918"><ele>32.0</ele><time>2026-04-12T09:13:12.98Z</time></trkpt><trkpt lat="44.6001715" lon="11.0832574"><ele>32.0</ele><time>2026-04-12T09:13:13.98Z</time></trkpt><trkpt lat="44.6000599" lon="11.0832275"><ele>32.75</ele><time>2026-04-12T09:13:14.979Z</time></trkpt><trkpt lat="44.5999491" lon="11.083195"><ele>33.5</ele><time>2026-04-12T09:13:15.981Z</time></trkpt><trkpt lat="44.5998324" lon="11.083164"><ele>34.25</ele><time>2026-04-12T09:13:16.979Z</time></trkpt><trkpt lat="44.599713" lon="11.0831318"><ele>35.0</ele><time>2026-04-12T09:13:17.98Z</time></trkpt><trkpt lat="44.5995903" lon="11.083098"><ele>35.25</ele><time>2026-04-12T09:13:18.98Z</time></trkpt><trkpt lat="44.5994611" lon="11.0830609"><ele>35.5</ele><time>2026-04-12T09:13:19.979Z</time></trkpt><trkpt lat="44.5993274" lon="11.0830253"><ele>35.75</ele><time>2026-04-12T09:13:20.981Z</time></trkpt><trkpt lat="44.5991909" lon="11.0829898"><ele>36.0</ele><time>2026-04-12T09:13:21.979Z</time></trkpt><trkpt lat="44.5990509" lon="11.0829515"><ele>36.0</ele><time>2026-04-12T09:13:22.98Z</time></trkpt><trkpt lat="44.5989155" lon="11.0829095"><ele>36.0</ele><time>2026-04-12T09:13:23.979Z</time></trkpt><trkpt lat="44.5987805" lon="11.082866"><ele>36.0</ele><time>2026-04-12T09:13:24.979Z</time></trkpt><trkpt lat="44.5986432" lon="11.0828209"><ele>36.0</ele><time>2026-04-12T09:13:25.981Z</time></trkpt><trkpt lat="44.5985005" lon="11.0827704"><ele>35.25</ele><time>2026-04-12T09:13:26.981Z</time></trkpt><trkpt lat="44.5983571" lon="11.0827134"><ele>34.5</ele><time>2026-04-12T09:13:27.981Z</time></trkpt><trkpt lat="44.5982133" lon="11.082656"><ele>33.75</ele><time>2026-04-12T09:13:28.979Z</time></trkpt><trkpt lat="44.5980709" lon="11.0825972"><ele>33.0</ele><time>2026-04-12T09:13:29.98Z</time></trkpt><trkpt lat="44.5979289" lon="11.0825352"><ele>33.0</ele><time>2026-04-12T09:13:30.981Z</time></trkpt><trkpt lat="44.5977854" lon="11.0824697"><ele>33.0</ele><time>2026-04-12T09:13:31.98Z</time></trkpt><trkpt lat="44.5976415" lon="11.0823998"><ele>33.0</ele><time>2026-04-12T09:13:32.98Z</time></trkpt><trkpt lat="44.5974944" lon="11.0823258"><ele>33.333333333333336</ele><time>2026-04-12T09:13:33.98Z</time></trkpt><trkpt lat="44.5973465" lon="11.0822461"><ele>33.66666666666667</ele><time>2026-04-12T09:13:34.98Z</time></trkpt><trkpt lat="44.5971996" lon="11.0821589"><ele>34.0</ele><time>2026-04-12T09:13:35.979Z</time></trkpt><trkpt lat="44.5970502" lon="11.0820673"><ele>34.333333333333336</ele><time>2026-04-12T09:13:36.981Z</time></trkpt><trkpt lat="44.5969003" lon="11.081969"><ele>34.666666666666664</ele><time>2026-04-12T09:13:37.98Z</time></trkpt><trkpt lat="44.5967498" lon="11.0818653"><ele>35.0</ele><time>2026-04-12T09:13:38.979Z</time></trkpt><trkpt lat="44.5966002" lon="11.0817563"><ele>35.0</ele><time>2026-04-12T09:13:39.979Z</time></trkpt><trkpt lat="44.5964538" lon="11.0816451"><ele>35.0</ele><time>2026-04-12T09:13:40.979Z</time></trkpt><trkpt lat="44.5963071" lon="11.0815292"><ele>35.0</ele><time>2026-04-12T09:13:41.979Z</time></trkpt><trkpt lat="44.5961619" lon="11.0814094"><ele>35.33333333333333</ele><time>2026-04-12T09:13:42.978Z</time></trkpt><trkpt lat="44.5960166" lon="11.0812871"><ele>35.666666666666664</ele><time>2026-04-12T09:13:43.981Z</time></trkpt><trkpt lat="44.5958672" lon="11.081159"><ele>36.0</ele><time>2026-04-12T09:13:44.979Z</time></trkpt><trkpt lat="44.5957151" lon="11.0810265"><ele>36.0</ele><time>2026-04-12T09:13:45.982Z</time></trkpt><trkpt lat="44.5955637" lon="11.0808932"><ele>36.0</ele><time>2026-04-12T09:13:46.981Z</time></trkpt><trkpt lat="44.5954139" lon="11.0807591"><ele>36.0</ele><time>2026-04-12T09:13:47.98Z</time></trkpt><trkpt lat="44.595263" lon="11.0806245"><ele>35.0</ele><time>2026-04-12T09:13:48.982Z</time></trkpt><trkpt lat="44.5951084" lon="11.0804914"><ele>34.0</ele><time>2026-04-12T09:13:49.98Z</time></trkpt><trkpt lat="44.5949483" lon="11.0803628"><ele>33.0</ele><time>2026-04-12T09:13:50.982Z</time></trkpt><trkpt lat="44.5947874" lon="11.0802438"><ele>33.0</ele><time>2026-04-12T09:13:51.981Z</time></trkpt><trkpt lat="44.594626" lon="11.0801312"><ele>33.0</ele><time>2026-04-12T09:13:52.979Z</time></trkpt><trkpt lat="44.5944613" lon="11.080019"><ele>33.0</ele><time>2026-04-12T09:13:53.98Z</time></trkpt><trkpt lat="44.5942859" lon="11.0799116"><ele>34.0</ele><time>2026-04-12T09:13:54.981Z</time></trkpt><trkpt lat="44.5940977" lon="11.0798098"><ele>35.0</ele><time>2026-04-12T09:13:55.98Z</time></trkpt><trkpt lat="44.5939058" lon="11.0797009"><ele>36.0</ele><time>2026-04-12T09:13:56.979Z</time></trkpt><trkpt lat="44.593709" lon="11.0795797"><ele>36.333333333333336</ele><time>2026-04-12T09:13:57.978Z</time></trkpt><trkpt lat="44.5935073" lon="11.0794467"><ele>36.66666666666667</ele><time>2026-04-12T09:13:58.978Z</time></trkpt><trkpt lat="44.5933051" lon="11.0793095"><ele>37.0</ele><time>2026-04-12T09:13:59.979Z</time></trkpt><trkpt lat="44.5931063" lon="11.0791711"><ele>37.333333333333336</ele><time>2026-04-12T09:14:00.979Z</time></trkpt><trkpt lat="44.5929096" lon="11.0790335"><ele>37.666666666666664</ele><time>2026-04-12T09:14:01.98Z</time></trkpt><trkpt lat="44.5927101" lon="11.078887"><ele>38.0</ele><time>2026-04-12T09:14:02.979Z</time></trkpt><trkpt lat="44.5925152" lon="11.0787253"><ele>38.0</ele><time>2026-04-12T09:14:03.978Z</time></trkpt><trkpt lat="44.5923318" lon="11.0785483"><ele>38.0</ele><time>2026-04-12T09:14:04.978Z</time></trkpt><trkpt lat="44.5921625" lon="11.0783542"><ele>38.0</ele><time>2026-04-12T09:14:05.978Z</time></trkpt><trkpt lat="44.5920004" lon="11.0781453"><ele>38.0</ele><time>2026-04-12T09:14:06.98Z</time></trkpt><trkpt lat="44.5918471" lon="11.0779341"><ele>38.0</ele><time>2026-04-12T09:14:07.979Z</time></trkpt><trkpt lat="44.5917017" lon="11.0777206"><ele>38.0</ele><time>2026-04-12T09:14:08.978Z</time></trkpt><trkpt lat="44.5915584" lon="11.0775065"><ele>37.33333333333333</ele><time>2026-04-12T09:14:09.979Z</time></trkpt><trkpt lat="44.5914153" lon="11.0772931"><ele>36.666666666666664</ele><time>2026-04-12T09:14:10.979Z</time></trkpt><trkpt lat="44.5912719" lon="11.0770817"><ele>36.0</ele><time>2026-04-12T09:14:11.978Z</time></trkpt><trkpt lat="44.5911279" lon="11.0768686"><ele>37.666666666666664</ele><time>2026-04-12T09:14:12.98Z</time></trkpt><trkpt lat="44.5909851" lon="11.0766574"><ele>39.33333333333333</ele><time>2026-04-12T09:14:13.979Z</time></trkpt><trkpt lat="44.5908431" lon="11.0764491"><ele>41.0</ele><time>2026-04-12T09:14:14.979Z</time></trkpt><trkpt lat="44.5907005" lon="11.0762405"><ele>41.0</ele><time>2026-04-12T09:14:15.98Z</time></trkpt><trkpt lat="44.590555" lon="11.0760328"><ele>41.0</ele><time>2026-04-12T09:14:16.98Z</time></trkpt><trkpt lat="44.5904086" lon="11.0758262"><ele>41.0</ele><time>2026-04-12T09:14:17.979Z</time></trkpt><trkpt lat="44.5902599" lon="11.0756257"><ele>40.0</ele><time>2026-04-12T09:14:18.979Z</time></trkpt><trkpt lat="44.5901051" lon="11.0754346"><ele>39.0</ele><time>2026-04-12T09:14:19.978Z</time></trkpt><trkpt lat="44.5899455" lon="11.0752515"><ele>38.0</ele><time>2026-04-12T09:14:20.979Z</time></trkpt><trkpt lat="44.5897835" lon="11.0750762"><ele>37.666666666666664</ele><time>2026-04-12T09:14:21.979Z</time></trkpt><trkpt lat="44.5896228" lon="11.0749055"><ele>37.333333333333336</ele><time>2026-04-12T09:14:22.979Z</time></trkpt><trkpt lat="44.5894668" lon="11.0747385"><ele>37.0</ele><time>2026-04-12T09:14:23.98Z</time></trkpt><trkpt lat="44.5893147" lon="11.0745728"><ele>36.66666666666667</ele><time>2026-04-12T09:14:24.98Z</time></trkpt><trkpt lat="44.5891663" lon="11.0744123"><ele>36.333333333333336</ele><time>2026-04-12T09:14:25.981Z</time></trkpt><trkpt lat="44.5890205" lon="11.0742536"><ele>36.0</ele><time>2026-04-12T09:14:26.981Z</time></trkpt><trkpt lat="44.5888818" lon="11.0740962"><ele>36.666666666666664</ele><time>2026-04-12T09:14:27.979Z</time></trkpt><trkpt lat="44.5887522" lon="11.0739429"><ele>37.33333333333333</ele><time>2026-04-12T09:14:28.979Z</time></trkpt><trkpt lat="44.588637" lon="11.0737997"><ele>38.0</ele><time>2026-04-12T09:14:29.98Z</time></trkpt><trkpt lat="44.5885355" lon="11.0736685"><ele>38.0</ele><time>2026-04-12T09:14:30.981Z</time></trkpt><trkpt lat="44.5884459" lon="11.0735588"><ele>38.0</ele><time>2026-04-12T09:14:31.98Z</time></trkpt><trkpt lat="44.5883739" lon="11.0734721"><ele>38.0</ele><time>2026-04-12T09:14:32.981Z</time></trkpt><trkpt lat="44.5883152" lon="11.0734029"><ele>38.0</ele><time>2026-04-12T09:14:33.979Z</time></trkpt><trkpt lat="44.5882531" lon="11.073319"><ele>38.0</ele><time>2026-04-12T09:14:35.981Z</time></trkpt><trkpt lat="44.5882023" lon="11.0732098"><ele>38.199999999999996</ele><time>2026-04-12T09:14:39.978Z</time></trkpt><trkpt lat="44.5881564" lon="11.0730858"><ele>38.4</ele><time>2026-04-12T09:14:41.979Z</time></trkpt><trkpt lat="44.5880492" lon="11.0730168"><ele>38.599999999999994</ele><time>2026-04-12T09:14:43.979Z</time></trkpt><trkpt lat="44.5879839" lon="11.0730622"><ele>38.8</ele><time>2026-04-12T09:14:44.979Z</time></trkpt><trkpt lat="44.5879222" lon="11.0731359"><ele>39.0</ele><time>2026-04-12T09:14:45.98Z</time></trkpt><trkpt lat="44.5878681" lon="11.0732412"><ele>39.2</ele><time>2026-04-12T09:14:46.978Z</time></trkpt><trkpt lat="44.5878191" lon="11.0733702"><ele>39.4</ele><time>2026-04-12T09:14:47.979Z</time></trkpt><trkpt lat="44.5877664" lon="11.0735015"><ele>39.6</ele><time>2026-04-12T09:14:48.98Z</time></trkpt><trkpt lat="44.587714" lon="11.0736391"><ele>39.8</ele><time>2026-04-12T09:14:49.98Z</time></trkpt><trkpt lat="44.5876586" lon="11.0737831"><ele>40.0</ele><time>2026-04-12T09:14:50.979Z</time></trkpt><trkpt lat="44.5876022" lon="11.0739376"><ele>40.0</ele><time>2026-04-12T09:14:51.98Z</time></trkpt><trkpt lat="44.587542" lon="11.0741007"><ele>40.0</ele><time>2026-04-12T09:14:52.979Z</time></trkpt><trkpt lat="44.5874793" lon="11.0742755"><ele>40.0</ele><time>2026-04-12T09:14:53.98Z</time></trkpt><trkpt lat="44.5874135" lon="11.074455"><ele>40.0</ele><time>2026-04-12T09:14:54.98Z</time></trkpt><trkpt lat="44.5873473" lon="11.0746384"><ele>40.0</ele><time>2026-04-12T09:14:55.98Z</time></trkpt><trkpt lat="44.5872796" lon="11.0748276"><ele>40.0</ele><time>2026-04-12T09:14:56.979Z</time></trkpt><trkpt lat="44.587208" lon="11.0750199"><ele>40.0</ele><time>2026-04-12T09:14:57.978Z</time></trkpt><trkpt lat="44.587131" lon="11.0752101"><ele>40.0</ele><time>2026-04-12T09:14:58.978Z</time></trkpt><trkpt lat="44.5870566" lon="11.0754099"><ele>40.0</ele><time>2026-04-12T09:14:59.977Z</time></trkpt><trkpt lat="44.5869834" lon="11.0756207"><ele>40.0</ele><time>2026-04-12T09:15:00.978Z</time></trkpt><trkpt lat="44.5869077" lon="11.0758361"><ele>40.0</ele><time>2026-04-12T09:15:01.978Z</time></trkpt><trkpt lat="44.5868291" lon="11.0760425"><ele>40.0</ele><time>2026-04-12T09:15:02.979Z</time></trkpt><trkpt lat="44.5867514" lon="11.0762598"><ele>40.0</ele><time>2026-04-12T09:15:03.979Z</time></trkpt><trkpt lat="44.5866768" lon="11.0764766"><ele>39.66666666666667</ele><time>2026-04-12T09:15:04.978Z</time></trkpt><trkpt lat="44.5866004" lon="11.0766923"><ele>39.333333333333336</ele><time>2026-04-12T09:15:05.979Z</time></trkpt><trkpt lat="44.5865229" lon="11.0769047"><ele>39.0</ele><time>2026-04-12T09:15:06.978Z</time></trkpt><trkpt lat="44.5864472" lon="11.0771088"><ele>39.0</ele><time>2026-04-12T09:15:07.98Z</time></trkpt><trkpt lat="44.5863778" lon="11.0773089"><ele>39.0</ele><time>2026-04-12T09:15:08.98Z</time></trkpt><trkpt lat="44.5863141" lon="11.0775048"><ele>39.0</ele><time>2026-04-12T09:15:09.978Z</time></trkpt><trkpt lat="44.586247" lon="11.0776919"><ele>39.0</ele><time>2026-04-12T09:15:10.979Z</time></trkpt><trkpt lat="44.58618" lon="11.0778687"><ele>39.0</ele><time>2026-04-12T09:15:11.978Z</time></trkpt><trkpt lat="44.5861127" lon="11.0780333"><ele>39.0</ele><time>2026-04-12T09:15:12.979Z</time></trkpt><trkpt lat="44.5860302" lon="11.0781697"><ele>39.0</ele><time>2026-04-12T09:15:13.98Z</time></trkpt><trkpt lat="44.5859248" lon="11.0782675"><ele>39.25</ele><time>2026-04-12T09:15:14.979Z</time></trkpt><trkpt lat="44.5858078" lon="11.0783471"><ele>39.5</ele><time>2026-04-12T09:15:15.979Z</time></trkpt><trkpt lat="44.5856917" lon="11.0784483"><ele>39.75</ele><time>2026-04-12T09:15:16.978Z</time></trkpt><trkpt lat="44.5855811" lon="11.0785795"><ele>40.0</ele><time>2026-04-12T09:15:17.979Z</time></trkpt><trkpt lat="44.5854622" lon="11.0787164"><ele>38.66666666666667</ele><time>2026-04-12T09:15:18.979Z</time></trkpt><trkpt lat="44.5853314" lon="11.0788326"><ele>37.333333333333336</ele><time>2026-04-12T09:15:19.979Z</time></trkpt><trkpt lat="44.5851864" lon="11.0789262"><ele>36.0</ele><time>2026-04-12T09:15:20.979Z</time></trkpt><trkpt lat="44.5850354" lon="11.0790134"><ele>36.0</ele><time>2026-04-12T09:15:21.978Z</time></trkpt><trkpt lat="44.5848936" lon="11.0791"><ele>36.0</ele><time>2026-04-12T09:15:22.979Z</time></trkpt><trkpt lat="44.5847543" lon="11.0791894"><ele>36.0</ele><time>2026-04-12T09:15:23.979Z</time></trkpt><trkpt lat="44.5846149" lon="11.0792819"><ele>36.666666666666664</ele><time>2026-04-12T09:15:24.979Z</time></trkpt><trkpt lat="44.5844759" lon="11.079378"><ele>37.33333333333333</ele><time>2026-04-12T09:15:25.98Z</time></trkpt><trkpt lat="44.5843388" lon="11.0794762"><ele>38.0</ele><time>2026-04-12T09:15:26.979Z</time></trkpt><trkpt lat="44.5841997" lon="11.0795708"><ele>38.0</ele><time>2026-04-12T09:15:27.979Z</time></trkpt><trkpt lat="44.5840651" lon="11.0796612"><ele>38.0</ele><time>2026-04-12T09:15:28.978Z</time></trkpt><trkpt lat="44.5839321" lon="11.0797436"><ele>38.0</ele><time>2026-04-12T09:15:29.98Z</time></trkpt><trkpt lat="44.5838008" lon="11.0798056"><ele>38.0</ele><time>2026-04-12T09:15:30.978Z</time></trkpt><trkpt lat="44.5836677" lon="11.0798114"><ele>38.0</ele><time>2026-04-12T09:15:31.981Z</time></trkpt><trkpt lat="44.5835456" lon="11.079754"><ele>38.0</ele><time>2026-04-12T09:15:32.978Z</time></trkpt><trkpt lat="44.5834428" lon="11.0796442"><ele>38.0</ele><time>2026-04-12T09:15:33.979Z</time></trkpt><trkpt lat="44.5833585" lon="11.0794991"><ele>38.0</ele><time>2026-04-12T09:15:34.978Z</time></trkpt><trkpt lat="44.5833191" lon="11.079321"><ele>38.0</ele><time>2026-04-12T09:15:35.978Z</time></trkpt><trkpt lat="44.5833345" lon="11.0791274"><ele>38.0</ele><time>2026-04-12T09:15:36.979Z</time></trkpt><trkpt lat="44.5833943" lon="11.0789444"><ele>38.0</ele><time>2026-04-12T09:15:37.979Z</time></trkpt><trkpt lat="44.583482" lon="11.0788039"><ele>38.0</ele><time>2026-04-12T09:15:38.978Z</time></trkpt><trkpt lat="44.5835919" lon="11.0787067"><ele>38.25</ele><time>2026-04-12T09:15:39.978Z</time></trkpt><trkpt lat="44.5837144" lon="11.0786722"><ele>38.5</ele><time>2026-04-12T09:15:40.979Z</time></trkpt><trkpt lat="44.5838416" lon="11.0787016"><ele>38.75</ele><time>2026-04-12T09:15:41.978Z</time></trkpt><trkpt lat="44.5839591" lon="11.0787872"><ele>39.0</ele><time>2026-04-12T09:15:42.979Z</time></trkpt><trkpt lat="44.5840595" lon="11.0789206"><ele>39.0</ele><time>2026-04-12T09:15:43.98Z</time></trkpt><trkpt lat="44.5841416" lon="11.0790882"><ele>39.0</ele><time>2026-04-12T09:15:44.979Z</time></trkpt><trkpt lat="44.5842071" lon="11.0792728"><ele>39.0</ele><time>2026-04-12T09:15:45.978Z</time></trkpt><trkpt lat="44.5842673" lon="11.079466"><ele>39.0</ele><time>2026-04-12T09:15:46.979Z</time></trkpt><trkpt lat="44.5843169" lon="11.0796681"><ele>39.0</ele><time>2026-04-12T09:15:47.979Z</time></trkpt><trkpt lat="44.5843522" lon="11.0798756"><ele>39.0</ele><time>2026-04-12T09:15:48.979Z</time></trkpt><trkpt lat="44.5843842" lon="11.0800775"><ele>39.0</ele><time>2026-04-12T09:15:49.979Z</time></trkpt><trkpt lat="44.5844155" lon="11.0802731"><ele>39.0</ele><time>2026-04-12T09:15:50.98Z</time></trkpt><trkpt lat="44.5844592" lon="11.0804653"><ele>39.0</ele><time>2026-04-12T09:15:51.979Z</time></trkpt><trkpt lat="44.5845233" lon="11.0806434"><ele>39.0</ele><time>2026-04-12T09:15:52.98Z</time></trkpt><trkpt lat="44.5846074" lon="11.0808085"><ele>39.0</ele><time>2026-04-12T09:15:53.981Z</time></trkpt><trkpt lat="44.5847015" lon="11.0809653"><ele>39.0</ele><time>2026-04-12T09:15:54.982Z</time></trkpt><trkpt lat="44.5847896" lon="11.0811153"><ele>39.0</ele><time>2026-04-12T09:15:55.981Z</time></trkpt><trkpt lat="44.5848474" lon="11.0812778"><ele>39.0</ele><time>2026-04-12T09:15:56.983Z</time></trkpt><trkpt lat="44.5848639" lon="11.0814527"><ele>39.0</ele><time>2026-04-12T09:15:57.98Z</time></trkpt><trkpt lat="44.5848438" lon="11.0816341"><ele>39.0</ele><time>2026-04-12T09:15:58.979Z</time></trkpt><trkpt lat="44.5847965" lon="11.0818134"><ele>39.0</ele><time>2026-04-12T09:15:59.981Z</time></trkpt><trkpt lat="44.5847347" lon="11.0819943"><ele>39.0</ele><time>2026-04-12T09:16:00.979Z</time></trkpt><trkpt lat="44.5846717" lon="11.0821784"><ele>39.0</ele><time>2026-04-12T09:16:01.98Z</time></trkpt><trkpt lat="44.584607" lon="11.0823647"><ele>39.0</ele><time>2026-04-12T09:16:02.98Z</time></trkpt><trkpt lat="44.5845398" lon="11.0825536"><ele>39.0</ele><time>2026-04-12T09:16:03.978Z</time></trkpt><trkpt lat="44.5844715" lon="11.0827432"><ele>39.0</ele><time>2026-04-12T09:16:04.979Z</time></trkpt><trkpt lat="44.5844034" lon="11.0829357"><ele>39.0</ele><time>2026-04-12T09:16:05.979Z</time></trkpt><trkpt lat="44.5843354" lon="11.0831286"><ele>39.0</ele><time>2026-04-12T09:16:06.979Z</time></trkpt><trkpt lat="44.5842665" lon="11.0833223"><ele>39.0</ele><time>2026-04-12T09:16:07.979Z</time></trkpt><trkpt lat="44.5841992" lon="11.0835154"><ele>39.0</ele><time>2026-04-12T09:16:08.98Z</time></trkpt><trkpt lat="44.5841308" lon="11.0837081"><ele>39.0</ele><time>2026-04-12T09:16:09.978Z</time></trkpt><trkpt lat="44.5840621" lon="11.0838978"><ele>39.0</ele><time>2026-04-12T09:16:10.98Z</time></trkpt><trkpt lat="44.5839929" lon="11.0840843"><ele>39.0</ele><time>2026-04-12T09:16:11.978Z</time></trkpt><trkpt lat="44.583924" lon="11.084273"><ele>38.666666666666664</ele><time>2026-04-12T09:16:12.979Z</time></trkpt><trkpt lat="44.5838578" lon="11.0844649"><ele>38.33333333333333</ele><time>2026-04-12T09:16:13.978Z</time></trkpt><trkpt lat="44.5837924" lon="11.0846569"><ele>38.0</ele><time>2026-04-12T09:16:14.979Z</time></trkpt><trkpt lat="44.5837276" lon="11.0848474"><ele>38.0</ele><time>2026-04-12T09:16:15.979Z</time></trkpt><trkpt lat="44.5836622" lon="11.0850353"><ele>38.0</ele><time>2026-04-12T09:16:16.979Z</time></trkpt><trkpt lat="44.5835948" lon="11.0852254"><ele>38.0</ele><time>2026-04-12T09:16:17.979Z</time></trkpt><trkpt lat="44.583528" lon="11.0854187"><ele>38.0</ele><time>2026-04-12T09:16:18.978Z</time></trkpt><trkpt lat="44.5834609" lon="11.0856107"><ele>38.0</ele><time>2026-04-12T09:16:19.98Z</time></trkpt><trkpt lat="44.5833933" lon="11.0858012"><ele>38.0</ele><time>2026-04-12T09:16:20.981Z</time></trkpt><trkpt lat="44.5833263" lon="11.0859898"><ele>38.25</ele><time>2026-04-12T09:16:21.979Z</time></trkpt><trkpt lat="44.5832623" lon="11.0861699"><ele>38.5</ele><time>2026-04-12T09:16:22.979Z</time></trkpt><trkpt lat="44.5832031" lon="11.0863371"><ele>38.75</ele><time>2026-04-12T09:16:23.98Z</time></trkpt><trkpt lat="44.5831481" lon="11.086492"><ele>39.0</ele><time>2026-04-12T09:16:24.979Z</time></trkpt><trkpt lat="44.583091" lon="11.0866443"><ele>39.25</ele><time>2026-04-12T09:16:25.978Z</time></trkpt><trkpt lat="44.5830341" lon="11.0868057"><ele>39.5</ele><time>2026-04-12T09:16:26.979Z</time></trkpt><trkpt lat="44.5829751" lon="11.0869764"><ele>39.75</ele><time>2026-04-12T09:16:27.979Z</time></trkpt><trkpt lat="44.5829116" lon="11.0871556"><ele>40.0</ele><time>2026-04-12T09:16:28.979Z</time></trkpt><trkpt lat="44.5828447" lon="11.087343"><ele>39.333333333333336</ele><time>2026-04-12T09:16:29.98Z</time></trkpt><trkpt lat="44.5827775" lon="11.0875387"><ele>38.666666666666664</ele><time>2026-04-12T09:16:30.981Z</time></trkpt><trkpt lat="44.5827074" lon="11.0877397"><ele>38.0</ele><time>2026-04-12T09:16:31.981Z</time></trkpt><trkpt lat="44.5826339" lon="11.0879447"><ele>38.0</ele><time>2026-04-12T09:16:32.98Z</time></trkpt><trkpt lat="44.582559" lon="11.0881491"><ele>38.0</ele><time>2026-04-12T09:16:33.98Z</time></trkpt><trkpt lat="44.5824853" lon="11.0883495"><ele>38.0</ele><time>2026-04-12T09:16:34.98Z</time></trkpt><trkpt lat="44.5824175" lon="11.0885382"><ele>37.75</ele><time>2026-04-12T09:16:35.98Z</time></trkpt><trkpt lat="44.5823542" lon="11.0887195"><ele>37.5</ele><time>2026-04-12T09:16:36.979Z</time></trkpt><trkpt lat="44.5822904" lon="11.0889034"><ele>37.25</ele><time>2026-04-12T09:16:37.979Z</time></trkpt><trkpt lat="44.582226" lon="11.0890873"><ele>37.0</ele><time>2026-04-12T09:16:38.979Z</time></trkpt><trkpt lat="44.58216" lon="11.0892723"><ele>37.0</ele><time>2026-04-12T09:16:39.978Z</time></trkpt><trkpt lat="44.5820939" lon="11.0894549"><ele>37.0</ele><time>2026-04-12T09:16:40.979Z</time></trkpt><trkpt lat="44.5820346" lon="11.0896296"><ele>37.0</ele><time>2026-04-12T09:16:41.978Z</time></trkpt><trkpt lat="44.5819786" lon="11.0897915"><ele>37.0</ele><time>2026-04-12T09:16:42.98Z</time></trkpt><trkpt lat="44.581924" lon="11.0899454"><ele>37.25</ele><time>2026-04-12T09:16:43.979Z</time></trkpt><trkpt lat="44.5818684" lon="11.0901024"><ele>37.5</ele><time>2026-04-12T09:16:44.979Z</time></trkpt><trkpt lat="44.581811" lon="11.090271"><ele>37.75</ele><time>2026-04-12T09:16:45.979Z</time></trkpt><trkpt lat="44.5817511" lon="11.0904476"><ele>38.0</ele><time>2026-04-12T09:16:46.979Z</time></trkpt><trkpt lat="44.5816891" lon="11.0906269"><ele>38.25</ele><time>2026-04-12T09:16:47.978Z</time></trkpt><trkpt lat="44.5816288" lon="11.0908082"><ele>38.5</ele><time>2026-04-12T09:16:48.98Z</time></trkpt><trkpt lat="44.5815667" lon="11.0909932"><ele>38.75</ele><time>2026-04-12T09:16:49.978Z</time></trkpt><trkpt lat="44.5815035" lon="11.0911903"><ele>39.0</ele><time>2026-04-12T09:16:50.982Z</time></trkpt><trkpt lat="44.5814393" lon="11.0913972"><ele>40.666666666666664</ele><time>2026-04-12T09:16:51.98Z</time></trkpt><trkpt lat="44.5813718" lon="11.0916144"><ele>42.33333333333333</ele><time>2026-04-12T09:16:52.98Z</time></trkpt><trkpt lat="44.5812977" lon="11.0918432"><ele>44.0</ele><time>2026-04-12T09:16:53.981Z</time></trkpt><trkpt lat="44.5812175" lon="11.0920866"><ele>42.666666666666664</ele><time>2026-04-12T09:16:54.981Z</time></trkpt><trkpt lat="44.5811296" lon="11.0923424"><ele>41.333333333333336</ele><time>2026-04-12T09:16:55.98Z</time></trkpt><trkpt lat="44.5810366" lon="11.0926054"><ele>40.0</ele><time>2026-04-12T09:16:56.98Z</time></trkpt><trkpt lat="44.5809392" lon="11.0928735"><ele>40.0</ele><time>2026-04-12T09:16:57.98Z</time></trkpt><trkpt lat="44.580841" lon="11.0931453"><ele>40.0</ele><time>2026-04-12T09:16:58.981Z</time></trkpt><trkpt lat="44.5807462" lon="11.0934184"><ele>40.0</ele><time>2026-04-12T09:16:59.98Z</time></trkpt><trkpt lat="44.5806506" lon="11.0936814"><ele>40.0</ele><time>2026-04-12T09:17:00.978Z</time></trkpt><trkpt lat="44.5805597" lon="11.0939362"><ele>40.0</ele><time>2026-04-12T09:17:01.979Z</time></trkpt><trkpt lat="44.58047" lon="11.0941915"><ele>40.0</ele><time>2026-04-12T09:17:02.979Z</time></trkpt><trkpt lat="44.5803805" lon="11.0944478"><ele>40.0</ele><time>2026-04-12T09:17:03.98Z</time></trkpt><trkpt lat="44.5802898" lon="11.0947018"><ele>40.0</ele><time>2026-04-12T09:17:04.979Z</time></trkpt><trkpt lat="44.5801999" lon="11.0949554"><ele>40.0</ele><time>2026-04-12T09:17:05.978Z</time></trkpt><trkpt lat="44.5801095" lon="11.0952062"><ele>40.0</ele><time>2026-04-12T09:17:06.978Z</time></trkpt><trkpt lat="44.5800207" lon="11.0954585"><ele>40.0</ele><time>2026-04-12T09:17:07.978Z</time></trkpt><trkpt lat="44.5799312" lon="11.0957065"><ele>40.0</ele><time>2026-04-12T09:17:08.979Z</time></trkpt><trkpt lat="44.5798436" lon="11.0959559"><ele>40.0</ele><time>2026-04-12T09:17:09.979Z</time></trkpt><trkpt lat="44.5797557" lon="11.0962025"><ele>40.0</ele><time>2026-04-12T09:17:10.979Z</time></trkpt><trkpt lat="44.5796726" lon="11.0964448"><ele>40.0</ele><time>2026-04-12T09:17:11.98Z</time></trkpt><trkpt lat="44.5795916" lon="11.0966836"><ele>40.66666666666667</ele><time>2026-04-12T09:17:12.979Z</time></trkpt><trkpt lat="44.5795126" lon="11.0969203"><ele>41.333333333333336</ele><time>2026-04-12T09:17:13.979Z</time></trkpt><trkpt lat="44.5794331" lon="11.0971588"><ele>42.0</ele><time>2026-04-12T09:17:14.979Z</time></trkpt><trkpt lat="44.5793513" lon="11.0973945"><ele>41.666666666666664</ele><time>2026-04-12T09:17:15.979Z</time></trkpt><trkpt lat="44.57927" lon="11.0976279"><ele>41.33333333333333</ele><time>2026-04-12T09:17:16.979Z</time></trkpt><trkpt lat="44.5791902" lon="11.0978573"><ele>41.0</ele><time>2026-04-12T09:17:17.978Z</time></trkpt><trkpt lat="44.5791107" lon="11.0980862"><ele>40.33333333333333</ele><time>2026-04-12T09:17:18.98Z</time></trkpt><trkpt lat="44.5790314" lon="11.0983126"><ele>39.666666666666664</ele><time>2026-04-12T09:17:19.978Z</time></trkpt><trkpt lat="44.5789527" lon="11.0985366"><ele>39.0</ele><time>2026-04-12T09:17:20.98Z</time></trkpt><trkpt lat="44.5788729" lon="11.0987584"><ele>39.0</ele><time>2026-04-12T09:17:21.98Z</time></trkpt><trkpt lat="44.5787921" lon="11.0989834"><ele>39.0</ele><time>2026-04-12T09:17:22.979Z</time></trkpt><trkpt lat="44.5787141" lon="11.0992076"><ele>39.0</ele><time>2026-04-12T09:17:23.98Z</time></trkpt><trkpt lat="44.5786368" lon="11.0994314"><ele>40.0</ele><time>2026-04-12T09:17:24.979Z</time></trkpt><trkpt lat="44.5785606" lon="11.09965"><ele>41.0</ele><time>2026-04-12T09:17:25.979Z</time></trkpt><trkpt lat="44.5784838" lon="11.0998702"><ele>42.0</ele><time>2026-04-12T09:17:26.978Z</time></trkpt><trkpt lat="44.5784065" lon="11.100092"><ele>42.0</ele><time>2026-04-12T09:17:27.979Z</time></trkpt><trkpt lat="44.5783299" lon="11.1003133"><ele>42.0</ele><time>2026-04-12T09:17:28.979Z</time></trkpt><trkpt lat="44.5782515" lon="11.1005336"><ele>42.0</ele><time>2026-04-12T09:17:29.978Z</time></trkpt><trkpt lat="44.578174" lon="11.1007624"><ele>41.333333333333336</ele><time>2026-04-12T09:17:30.979Z</time></trkpt><trkpt lat="44.5780952" lon="11.1009883"><ele>40.66666666666667</ele><time>2026-04-12T09:17:31.978Z</time></trkpt><trkpt lat="44.5780159" lon="11.1012134"><ele>40.0</ele><time>2026-04-12T09:17:32.979Z</time></trkpt><trkpt lat="44.5779414" lon="11.1014401"><ele>40.0</ele><time>2026-04-12T09:17:33.979Z</time></trkpt><trkpt lat="44.5778676" lon="11.1016652"><ele>40.0</ele><time>2026-04-12T09:17:34.98Z</time></trkpt><trkpt lat="44.5777897" lon="11.1018865"><ele>40.0</ele><time>2026-04-12T09:17:35.978Z</time></trkpt><trkpt lat="44.5777147" lon="11.1021075"><ele>40.0</ele><time>2026-04-12T09:17:36.979Z</time></trkpt><trkpt lat="44.57764" lon="11.1023235"><ele>40.0</ele><time>2026-04-12T09:17:37.978Z</time></trkpt><trkpt lat="44.5775645" lon="11.1025451"><ele>40.0</ele><time>2026-04-12T09:17:38.98Z</time></trkpt><trkpt lat="44.5774877" lon="11.1027662"><ele>40.333333333333336</ele><time>2026-04-12T09:17:39.979Z</time></trkpt><trkpt lat="44.5774152" lon="11.1029798"><ele>40.666666666666664</ele><time>2026-04-12T09:17:40.983Z</time></trkpt><trkpt lat="44.5773444" lon="11.1031904"><ele>41.0</ele><time>2026-04-12T09:17:41.98Z</time></trkpt><trkpt lat="44.5772753" lon="11.1033935"><ele>41.33333333333333</ele><time>2026-04-12T09:17:42.98Z</time></trkpt><trkpt lat="44.5772066" lon="11.1035942"><ele>41.666666666666664</ele><time>2026-04-12T09:17:43.979Z</time></trkpt><trkpt lat="44.5771399" lon="11.1037924"><ele>42.0</ele><time>2026-04-12T09:17:44.98Z</time></trkpt><trkpt lat="44.5770723" lon="11.1039893"><ele>41.333333333333336</ele><time>2026-04-12T09:17:45.978Z</time></trkpt><trkpt lat="44.5770054" lon="11.1041929"><ele>40.66666666666667</ele><time>2026-04-12T09:17:46.978Z</time></trkpt><trkpt lat="44.5769349" lon="11.1044035"><ele>40.0</ele><time>2026-04-12T09:17:47.979Z</time></trkpt><trkpt lat="44.5768606" lon="11.1046216"><ele>40.0</ele><time>2026-04-12T09:17:48.979Z</time></trkpt><trkpt lat="44.5767843" lon="11.104855"><ele>40.0</ele><time>2026-04-12T09:17:49.98Z</time></trkpt><trkpt lat="44.5767027" lon="11.1050963"><ele>40.0</ele><time>2026-04-12T09:17:50.981Z</time></trkpt><trkpt lat="44.5766185" lon="11.1053447"><ele>40.0</ele><time>2026-04-12T09:17:51.979Z</time></trkpt><trkpt lat="44.5765345" lon="11.105598"><ele>40.0</ele><time>2026-04-12T09:17:52.979Z</time></trkpt><trkpt lat="44.5764543" lon="11.1058449"><ele>40.0</ele><time>2026-04-12T09:17:53.98Z</time></trkpt><trkpt lat="44.5763754" lon="11.1060767"><ele>39.66666666666667</ele><time>2026-04-12T09:17:54.978Z</time></trkpt><trkpt lat="44.5762972" lon="11.1062984"><ele>39.333333333333336</ele><time>2026-04-12T09:17:55.979Z</time></trkpt><trkpt lat="44.5762205" lon="11.1065212"><ele>39.0</ele><time>2026-04-12T09:17:56.978Z</time></trkpt><trkpt lat="44.5761465" lon="11.1067396"><ele>40.0</ele><time>2026-04-12T09:17:57.98Z</time></trkpt><trkpt lat="44.5760771" lon="11.1069437"><ele>41.0</ele><time>2026-04-12T09:17:58.978Z</time></trkpt><trkpt lat="44.5760083" lon="11.1071394"><ele>42.0</ele><time>2026-04-12T09:17:59.981Z</time></trkpt><trkpt lat="44.5759364" lon="11.107339"><ele>41.666666666666664</ele><time>2026-04-12T09:18:00.979Z</time></trkpt><trkpt lat="44.5758596" lon="11.107556"><ele>41.33333333333333</ele><time>2026-04-12T09:18:01.978Z</time></trkpt><trkpt lat="44.575774" lon="11.1077874"><ele>41.0</ele><time>2026-04-12T09:18:02.979Z</time></trkpt><trkpt lat="44.575685" lon="11.1080363"><ele>40.666666666666664</ele><time>2026-04-12T09:18:03.979Z</time></trkpt><trkpt lat="44.5755902" lon="11.1082957"><ele>40.333333333333336</ele><time>2026-04-12T09:18:04.978Z</time></trkpt><trkpt lat="44.5754917" lon="11.1085451"><ele>40.0</ele><time>2026-04-12T09:18:05.979Z</time></trkpt><trkpt lat="44.5754017" lon="11.1087873"><ele>40.0</ele><time>2026-04-12T09:18:06.979Z</time></trkpt><trkpt lat="44.5753175" lon="11.1090177"><ele>40.0</ele><time>2026-04-12T09:18:07.98Z</time></trkpt><trkpt lat="44.5752373" lon="11.109248"><ele>40.0</ele><time>2026-04-12T09:18:08.979Z</time></trkpt><trkpt lat="44.5751627" lon="11.1094768"><ele>40.0</ele><time>2026-04-12T09:18:09.978Z</time></trkpt><trkpt lat="44.5750929" lon="11.1097012"><ele>40.0</ele><time>2026-04-12T09:18:10.978Z</time></trkpt><trkpt lat="44.5750224" lon="11.1099196"><ele>40.0</ele><time>2026-04-12T09:18:11.979Z</time></trkpt><trkpt lat="44.5749566" lon="11.1101311"><ele>40.0</ele><time>2026-04-12T09:18:12.979Z</time></trkpt><trkpt lat="44.5748948" lon="11.1103392"><ele>40.0</ele><time>2026-04-12T09:18:13.979Z</time></trkpt><trkpt lat="44.5748351" lon="11.1105409"><ele>40.0</ele><time>2026-04-12T09:18:14.98Z</time></trkpt><trkpt lat="44.5747771" lon="11.1107338"><ele>39.75</ele><time>2026-04-12T09:18:15.979Z</time></trkpt><trkpt lat="44.5747217" lon="11.1109205"><ele>39.5</ele><time>2026-04-12T09:18:16.978Z</time></trkpt><trkpt lat="44.5746689" lon="11.1110979"><ele>39.25</ele><time>2026-04-12T09:18:17.978Z</time></trkpt><trkpt lat="44.5746218" lon="11.1112605"><ele>39.0</ele><time>2026-04-12T09:18:18.98Z</time></trkpt><trkpt lat="44.5745834" lon="11.1114018"><ele>39.0</ele><time>2026-04-12T09:18:19.978Z</time></trkpt><trkpt lat="44.5745496" lon="11.1115103"><ele>39.0</ele><time>2026-04-12T09:18:20.98Z</time></trkpt><trkpt lat="44.5745261" lon="11.1115942"><ele>39.0</ele><time>2026-04-12T09:18:21.978Z</time></trkpt><trkpt lat="44.5744993" lon="11.1116808"><ele>39.0</ele><time>2026-04-12T09:18:23.98Z</time></trkpt><trkpt lat="44.5744446" lon="11.1117762"><ele>39.0</ele><time>2026-04-12T09:18:27.98Z</time></trkpt><trkpt lat="44.5743917" lon="11.111895"><ele>39.0</ele><time>2026-04-12T09:18:29.98Z</time></trkpt><trkpt lat="44.574362" lon="11.1119885"><ele>39.75</ele><time>2026-04-12T09:18:30.98Z</time></trkpt><trkpt lat="44.5743286" lon="11.1121055"><ele>40.5</ele><time>2026-04-12T09:18:31.979Z</time></trkpt><trkpt lat="44.574291" lon="11.112228"><ele>41.25</ele><time>2026-04-12T09:18:32.98Z</time></trkpt><trkpt lat="44.5742483" lon="11.1123833"><ele>42.0</ele><time>2026-04-12T09:18:33.979Z</time></trkpt><trkpt lat="44.5741903" lon="11.1125881"><ele>42.0</ele><time>2026-04-12T09:18:34.978Z</time></trkpt><trkpt lat="44.5741224" lon="11.1128184"><ele>42.0</ele><time>2026-04-12T09:18:35.98Z</time></trkpt><trkpt lat="44.5740544" lon="11.1130492"><ele>42.0</ele><time>2026-04-12T09:18:36.979Z</time></trkpt><trkpt lat="44.5739777" lon="11.1132806"><ele>42.0</ele><time>2026-04-12T09:18:37.978Z</time></trkpt><trkpt lat="44.573892" lon="11.1135154"><ele>42.0</ele><time>2026-04-12T09:18:38.98Z</time></trkpt><trkpt lat="44.5738066" lon="11.1137536"><ele>42.0</ele><time>2026-04-12T09:18:39.979Z</time></trkpt><trkpt lat="44.5737238" lon="11.1139887"><ele>42.333333333333336</ele><time>2026-04-12T09:18:40.979Z</time></trkpt><trkpt lat="44.5736413" lon="11.1142208"><ele>42.66666666666667</ele><time>2026-04-12T09:18:41.98Z</time></trkpt><trkpt lat="44.5735559" lon="11.1144559"><ele>43.0</ele><time>2026-04-12T09:18:42.979Z</time></trkpt><trkpt lat="44.5734692" lon="11.1146985"><ele>43.333333333333336</ele><time>2026-04-12T09:18:43.978Z</time></trkpt><trkpt lat="44.5733804" lon="11.1149434"><ele>43.666666666666664</ele><time>2026-04-12T09:18:44.98Z</time></trkpt><trkpt lat="44.5732891" lon="11.1151898"><ele>44.0</ele><time>2026-04-12T09:18:45.978Z</time></trkpt><trkpt lat="44.5731961" lon="11.1154408"><ele>44.0</ele><time>2026-04-12T09:18:46.978Z</time></trkpt><trkpt lat="44.5731021" lon="11.1156962"><ele>44.0</ele><time>2026-04-12T09:18:47.98Z</time></trkpt><trkpt lat="44.5730077" lon="11.1159558"><ele>44.0</ele><time>2026-04-12T09:18:48.98Z</time></trkpt><trkpt lat="44.5729123" lon="11.1162192"><ele>43.33333333333333</ele><time>2026-04-12T09:18:49.979Z</time></trkpt><trkpt lat="44.5728167" lon="11.1164829"><ele>42.666666666666664</ele><time>2026-04-12T09:18:50.981Z</time></trkpt><trkpt lat="44.5727242" lon="11.1167466"><ele>42.0</ele><time>2026-04-12T09:18:51.978Z</time></trkpt><trkpt lat="44.5726324" lon="11.117006"><ele>42.0</ele><time>2026-04-12T09:18:52.979Z</time></trkpt><trkpt lat="44.5725414" lon="11.1172635"><ele>42.0</ele><time>2026-04-12T09:18:53.979Z</time></trkpt><trkpt lat="44.5724532" lon="11.1175171"><ele>42.0</ele><time>2026-04-12T09:18:54.978Z</time></trkpt><trkpt lat="44.572368" lon="11.1177691"><ele>42.0</ele><time>2026-04-12T09:18:55.979Z</time></trkpt><trkpt lat="44.572285" lon="11.1180225"><ele>42.0</ele><time>2026-04-12T09:18:56.979Z</time></trkpt><trkpt lat="44.5722009" lon="11.1182754"><ele>42.0</ele><time>2026-04-12T09:18:57.98Z</time></trkpt><trkpt lat="44.5721161" lon="11.1185269"><ele>42.333333333333336</ele><time>2026-04-12T09:18:58.979Z</time></trkpt><trkpt lat="44.5720299" lon="11.1187773"><ele>42.66666666666667</ele><time>2026-04-12T09:18:59.978Z</time></trkpt><trkpt lat="44.5719442" lon="11.1190258"><ele>43.0</ele><time>2026-04-12T09:19:00.979Z</time></trkpt><trkpt lat="44.5718601" lon="11.1192732"><ele>43.333333333333336</ele><time>2026-04-12T09:19:01.978Z</time></trkpt><trkpt lat="44.5717765" lon="11.1195207"><ele>43.666666666666664</ele><time>2026-04-12T09:19:02.98Z</time></trkpt><trkpt lat="44.5716924" lon="11.1197668"><ele>44.0</ele><time>2026-04-12T09:19:03.98Z</time></trkpt><trkpt lat="44.5716069" lon="11.1200089"><ele>44.0</ele><time>2026-04-12T09:19:04.98Z</time></trkpt><trkpt lat="44.5715215" lon="11.1202498"><ele>44.0</ele><time>2026-04-12T09:19:05.979Z</time></trkpt><trkpt lat="44.5714358" lon="11.120488"><ele>44.0</ele><time>2026-04-12T09:19:06.978Z</time></trkpt><trkpt lat="44.5713457" lon="11.1207274"><ele>44.0</ele><time>2026-04-12T09:19:07.978Z</time></trkpt><trkpt lat="44.5712576" lon="11.1209606"><ele>44.0</ele><time>2026-04-12T09:19:08.98Z</time></trkpt><trkpt lat="44.5711736" lon="11.1211766"><ele>44.0</ele><time>2026-04-12T09:19:09.979Z</time></trkpt><trkpt lat="44.5710922" lon="11.121377"><ele>43.75</ele><time>2026-04-12T09:19:10.978Z</time></trkpt><trkpt lat="44.5710128" lon="11.1215639"><ele>43.5</ele><time>2026-04-12T09:19:11.978Z</time></trkpt><trkpt lat="44.5709304" lon="11.1217296"><ele>43.25</ele><time>2026-04-12T09:19:12.98Z</time></trkpt><trkpt lat="44.5708442" lon="11.1218659"><ele>43.0</ele><time>2026-04-12T09:19:13.979Z</time></trkpt><trkpt lat="44.5707523" lon="11.1219616"><ele>42.8</ele><time>2026-04-12T09:19:14.98Z</time></trkpt><trkpt lat="44.5706647" lon="11.1220425"><ele>42.599999999999994</ele><time>2026-04-12T09:19:15.979Z</time></trkpt><trkpt lat="44.570596" lon="11.1221484"><ele>42.400000000000006</ele><time>2026-04-12T09:19:16.979Z</time></trkpt><trkpt lat="44.570555" lon="11.1222824"><ele>42.2</ele><time>2026-04-12T09:19:17.979Z</time></trkpt><trkpt lat="44.5705487" lon="11.1224359"><ele>42.0</ele><time>2026-04-12T09:19:18.979Z</time></trkpt><trkpt lat="44.5705506" lon="11.1226064"><ele>42.0</ele><time>2026-04-12T09:19:19.978Z</time></trkpt><trkpt lat="44.5705286" lon="11.122784"><ele>42.0</ele><time>2026-04-12T09:19:20.979Z</time></trkpt><trkpt lat="44.5704824" lon="11.1229674"><ele>42.0</ele><time>2026-04-12T09:19:21.979Z</time></trkpt><trkpt lat="44.5704218" lon="11.1231515"><ele>42.0</ele><time>2026-04-12T09:19:22.98Z</time></trkpt><trkpt lat="44.5703517" lon="11.1233421"><ele>42.0</ele><time>2026-04-12T09:19:23.981Z</time></trkpt><trkpt lat="44.5702767" lon="11.1235386"><ele>42.0</ele><time>2026-04-12T09:19:24.979Z</time></trkpt><trkpt lat="44.5701981" lon="11.1237446"><ele>42.0</ele><time>2026-04-12T09:19:25.979Z</time></trkpt><trkpt lat="44.5701187" lon="11.1239558"><ele>42.333333333333336</ele><time>2026-04-12T09:19:26.979Z</time></trkpt><trkpt lat="44.5700376" lon="11.1241729"><ele>42.66666666666667</ele><time>2026-04-12T09:19:27.981Z</time></trkpt><trkpt lat="44.5699545" lon="11.1243978"><ele>43.0</ele><time>2026-04-12T09:19:28.979Z</time></trkpt><trkpt lat="44.5698713" lon="11.1246265"><ele>43.0</ele><time>2026-04-12T09:19:29.98Z</time></trkpt><trkpt lat="44.569789" lon="11.1248605"><ele>43.0</ele><time>2026-04-12T09:19:30.978Z</time></trkpt><trkpt lat="44.5697094" lon="11.1250924"><ele>43.0</ele><time>2026-04-12T09:19:31.979Z</time></trkpt><trkpt lat="44.5696317" lon="11.1253207"><ele>43.0</ele><time>2026-04-12T09:19:32.979Z</time></trkpt><trkpt lat="44.5695533" lon="11.1255503"><ele>43.0</ele><time>2026-04-12T09:19:33.98Z</time></trkpt><trkpt lat="44.5694743" lon="11.1257812"><ele>43.0</ele><time>2026-04-12T09:19:34.979Z</time></trkpt><trkpt lat="44.5693931" lon="11.1260118"><ele>43.0</ele><time>2026-04-12T09:19:35.978Z</time></trkpt><trkpt lat="44.5693129" lon="11.1262448"><ele>43.0</ele><time>2026-04-12T09:19:36.978Z</time></trkpt><trkpt lat="44.5692338" lon="11.1264799"><ele>43.0</ele><time>2026-04-12T09:19:37.978Z</time></trkpt><trkpt lat="44.5691553" lon="11.1267151"><ele>43.0</ele><time>2026-04-12T09:19:38.98Z</time></trkpt><trkpt lat="44.5690776" lon="11.1269518"><ele>43.0</ele><time>2026-04-12T09:19:39.978Z</time></trkpt><trkpt lat="44.5690001" lon="11.1271875"><ele>43.0</ele><time>2026-04-12T09:19:40.979Z</time></trkpt><trkpt lat="44.568923" lon="11.1274217"><ele>44.0</ele><time>2026-04-12T09:19:41.979Z</time></trkpt><trkpt lat="44.5688474" lon="11.1276489"><ele>45.0</ele><time>2026-04-12T09:19:42.98Z</time></trkpt><trkpt lat="44.5687711" lon="11.1278713"><ele>46.0</ele><time>2026-04-12T09:19:43.979Z</time></trkpt><trkpt lat="44.5686932" lon="11.1280896"><ele>46.0</ele><time>2026-04-12T09:19:44.981Z</time></trkpt><trkpt lat="44.5686129" lon="11.1283075"><ele>46.0</ele><time>2026-04-12T09:19:45.979Z</time></trkpt><trkpt lat="44.5685317" lon="11.1285247"><ele>46.0</ele><time>2026-04-12T09:19:46.98Z</time></trkpt><trkpt lat="44.5684507" lon="11.1287428"><ele>46.0</ele><time>2026-04-12T09:19:47.979Z</time></trkpt><trkpt lat="44.5683716" lon="11.1289614"><ele>46.0</ele><time>2026-04-12T09:19:48.981Z</time></trkpt><trkpt lat="44.568294" lon="11.1291744"><ele>46.0</ele><time>2026-04-12T09:19:49.978Z</time></trkpt><trkpt lat="44.5682183" lon="11.1293825"><ele>45.0</ele><time>2026-04-12T09:19:50.979Z</time></trkpt><trkpt lat="44.5681396" lon="11.1295899"><ele>44.0</ele><time>2026-04-12T09:19:51.979Z</time></trkpt><trkpt lat="44.5680583" lon="11.1297987"><ele>43.0</ele><time>2026-04-12T09:19:52.979Z</time></trkpt><trkpt lat="44.5679756" lon="11.1300118"><ele>43.0</ele><time>2026-04-12T09:19:53.98Z</time></trkpt><trkpt lat="44.5678932" lon="11.1302317"><ele>43.0</ele><time>2026-04-12T09:19:54.978Z</time></trkpt><trkpt lat="44.5678106" lon="11.1304561"><ele>43.0</ele><time>2026-04-12T09:19:55.978Z</time></trkpt><trkpt lat="44.5677292" lon="11.1306837"><ele>43.333333333333336</ele><time>2026-04-12T09:19:56.978Z</time></trkpt><trkpt lat="44.5676483" lon="11.1309162"><ele>43.666666666666664</ele><time>2026-04-12T09:19:57.979Z</time></trkpt><trkpt lat="44.5675632" lon="11.131152"><ele>44.0</ele><time>2026-04-12T09:19:58.978Z</time></trkpt><trkpt lat="44.5674791" lon="11.1313863"><ele>44.666666666666664</ele><time>2026-04-12T09:19:59.981Z</time></trkpt><trkpt lat="44.5673956" lon="11.1316229"><ele>45.333333333333336</ele><time>2026-04-12T09:20:00.98Z</time></trkpt><trkpt lat="44.5673088" lon="11.131862"><ele>46.0</ele><time>2026-04-12T09:20:01.978Z</time></trkpt><trkpt lat="44.5672241" lon="11.1321004"><ele>46.0</ele><time>2026-04-12T09:20:02.981Z</time></trkpt><trkpt lat="44.5671369" lon="11.1323375"><ele>46.0</ele><time>2026-04-12T09:20:03.979Z</time></trkpt><trkpt lat="44.5670538" lon="11.1325729"><ele>46.0</ele><time>2026-04-12T09:20:04.979Z</time></trkpt><trkpt lat="44.5669706" lon="11.1328125"><ele>45.0</ele><time>2026-04-12T09:20:05.978Z</time></trkpt><trkpt lat="44.5668876" lon="11.1330522"><ele>44.0</ele><time>2026-04-12T09:20:06.979Z</time></trkpt><trkpt lat="44.5668027" lon="11.1332939"><ele>43.0</ele><time>2026-04-12T09:20:07.979Z</time></trkpt><trkpt lat="44.5667205" lon="11.1335306"><ele>43.0</ele><time>2026-04-12T09:20:08.979Z</time></trkpt><trkpt lat="44.566648" lon="11.1337425"><ele>43.0</ele><time>2026-04-12T09:20:09.979Z</time></trkpt><trkpt lat="44.5665886" lon="11.1339159"><ele>43.0</ele><time>2026-04-12T09:20:10.979Z</time></trkpt><trkpt lat="44.566548" lon="11.1340547"><ele>43.0</ele><time>2026-04-12T09:20:11.978Z</time></trkpt><trkpt lat="44.5665169" lon="11.134169"><ele>43.16666666666667</ele><time>2026-04-12T09:20:12.98Z</time></trkpt><trkpt lat="44.5664826" lon="11.134273"><ele>43.333333333333336</ele><time>2026-04-12T09:20:13.979Z</time></trkpt><trkpt lat="44.5664501" lon="11.134371"><ele>43.5</ele><time>2026-04-12T09:20:14.98Z</time></trkpt><trkpt lat="44.5664149" lon="11.1344691"><ele>43.666666666666664</ele><time>2026-04-12T09:20:15.978Z</time></trkpt><trkpt lat="44.56637" lon="11.134576"><ele>43.83333333333333</ele><time>2026-04-12T09:20:16.979Z</time></trkpt><trkpt lat="44.5663162" lon="11.134698"><ele>44.0</ele><time>2026-04-12T09:20:17.978Z</time></trkpt><trkpt lat="44.5662662" lon="11.1348332"><ele>43.75</ele><time>2026-04-12T09:20:18.978Z</time></trkpt><trkpt lat="44.5662196" lon="11.1349698"><ele>43.5</ele><time>2026-04-12T09:20:19.979Z</time></trkpt><trkpt lat="44.5661693" lon="11.1351129"><ele>43.25</ele><time>2026-04-12T09:20:20.979Z</time></trkpt><trkpt lat="44.5661186" lon="11.1352615"><ele>43.0</ele><time>2026-04-12T09:20:21.98Z</time></trkpt><trkpt lat="44.5660636" lon="11.1354198"><ele>43.0</ele><time>2026-04-12T09:20:22.979Z</time></trkpt><trkpt lat="44.5660066" lon="11.1355817"><ele>43.0</ele><time>2026-04-12T09:20:23.979Z</time></trkpt><trkpt lat="44.5659486" lon="11.1357465"><ele>43.0</ele><time>2026-04-12T09:20:24.979Z</time></trkpt><trkpt lat="44.5658898" lon="11.1359167"><ele>43.0</ele><time>2026-04-12T09:20:25.978Z</time></trkpt><trkpt lat="44.5658275" lon="11.1360921"><ele>43.25</ele><time>2026-04-12T09:20:26.978Z</time></trkpt><trkpt lat="44.5657627" lon="11.1362696"><ele>43.5</ele><time>2026-04-12T09:20:27.978Z</time></trkpt><trkpt lat="44.5656959" lon="11.1364531"><ele>43.75</ele><time>2026-04-12T09:20:28.978Z</time></trkpt><trkpt lat="44.5656298" lon="11.1366423"><ele>44.0</ele><time>2026-04-12T09:20:29.98Z</time></trkpt><trkpt lat="44.5655625" lon="11.136838"><ele>44.33333333333333</ele><time>2026-04-12T09:20:30.979Z</time></trkpt><trkpt lat="44.5654955" lon="11.1370315"><ele>44.666666666666664</ele><time>2026-04-12T09:20:31.979Z</time></trkpt><trkpt lat="44.565431" lon="11.1372223"><ele>45.0</ele><time>2026-04-12T09:20:32.978Z</time></trkpt><trkpt lat="44.5653665" lon="11.1374069"><ele>44.25</ele><time>2026-04-12T09:20:33.979Z</time></trkpt><trkpt lat="44.5653028" lon="11.1375904"><ele>43.5</ele><time>2026-04-12T09:20:34.979Z</time></trkpt><trkpt lat="44.5652388" lon="11.1377801"><ele>42.75</ele><time>2026-04-12T09:20:35.979Z</time></trkpt><trkpt lat="44.565174" lon="11.1379769"><ele>42.0</ele><time>2026-04-12T09:20:36.979Z</time></trkpt><trkpt lat="44.5651067" lon="11.1381754"><ele>42.666666666666664</ele><time>2026-04-12T09:20:37.979Z</time></trkpt><trkpt lat="44.5650373" lon="11.1383747"><ele>43.33333333333333</ele><time>2026-04-12T09:20:38.979Z</time></trkpt><trkpt lat="44.5649658" lon="11.138581"><ele>44.0</ele><time>2026-04-12T09:20:39.978Z</time></trkpt><trkpt lat="44.5648934" lon="11.138792"><ele>44.0</ele><time>2026-04-12T09:20:40.979Z</time></trkpt><trkpt lat="44.564822" lon="11.1390022"><ele>44.0</ele><time>2026-04-12T09:20:41.979Z</time></trkpt><trkpt lat="44.5647493" lon="11.1392163"><ele>44.0</ele><time>2026-04-12T09:20:42.978Z</time></trkpt><trkpt lat="44.5646718" lon="11.1394324"><ele>43.0</ele><time>2026-04-12T09:20:43.977Z</time></trkpt><trkpt lat="44.5645931" lon="11.139648"><ele>42.0</ele><time>2026-04-12T09:20:44.98Z</time></trkpt><trkpt lat="44.5645165" lon="11.1398624"><ele>41.0</ele><time>2026-04-12T09:20:45.978Z</time></trkpt><trkpt lat="44.5644395" lon="11.1400815"><ele>41.0</ele><time>2026-04-12T09:20:46.979Z</time></trkpt><trkpt lat="44.5643633" lon="11.1402994"><ele>41.0</ele><time>2026-04-12T09:20:47.979Z</time></trkpt><trkpt lat="44.5642867" lon="11.1405164"><ele>41.0</ele><time>2026-04-12T09:20:48.981Z</time></trkpt><trkpt lat="44.5642095" lon="11.1407311"><ele>41.33333333333333</ele><time>2026-04-12T09:20:49.979Z</time></trkpt><trkpt lat="44.564133" lon="11.1409475"><ele>41.666666666666664</ele><time>2026-04-12T09:20:50.98Z</time></trkpt><trkpt lat="44.5640559" lon="11.1411639"><ele>42.0</ele><time>2026-04-12T09:20:51.979Z</time></trkpt><trkpt lat="44.5639785" lon="11.141381"><ele>42.333333333333336</ele><time>2026-04-12T09:20:52.98Z</time></trkpt><trkpt lat="44.5639013" lon="11.1415977"><ele>42.66666666666667</ele><time>2026-04-12T09:20:53.979Z</time></trkpt><trkpt lat="44.5638206" lon="11.1418161"><ele>43.0</ele><time>2026-04-12T09:20:54.98Z</time></trkpt><trkpt lat="44.5637395" lon="11.1420336"><ele>42.66666666666667</ele><time>2026-04-12T09:20:55.979Z</time></trkpt><trkpt lat="44.5636616" lon="11.1422536"><ele>42.333333333333336</ele><time>2026-04-12T09:20:56.98Z</time></trkpt><trkpt lat="44.5635847" lon="11.1424744"><ele>42.0</ele><time>2026-04-12T09:20:57.979Z</time></trkpt><trkpt lat="44.5635081" lon="11.1426958"><ele>43.666666666666664</ele><time>2026-04-12T09:20:58.979Z</time></trkpt><trkpt lat="44.563431" lon="11.1429156"><ele>45.33333333333333</ele><time>2026-04-12T09:20:59.978Z</time></trkpt><trkpt lat="44.5633556" lon="11.1431366"><ele>47.0</ele><time>2026-04-12T09:21:00.978Z</time></trkpt><trkpt lat="44.56328" lon="11.1433592"><ele>47.33333333333333</ele><time>2026-04-12T09:21:01.979Z</time></trkpt><trkpt lat="44.563206" lon="11.1435813"><ele>47.666666666666664</ele><time>2026-04-12T09:21:02.979Z</time></trkpt><trkpt lat="44.5631324" lon="11.1438015"><ele>48.0</ele><time>2026-04-12T09:21:03.978Z</time></trkpt><trkpt lat="44.5630578" lon="11.1440211"><ele>47.333333333333336</ele><time>2026-04-12T09:21:04.98Z</time></trkpt><trkpt lat="44.562983" lon="11.1442451"><ele>46.66666666666667</ele><time>2026-04-12T09:21:05.979Z</time></trkpt><trkpt lat="44.5629067" lon="11.1444667"><ele>46.0</ele><time>2026-04-12T09:21:06.979Z</time></trkpt><trkpt lat="44.5628309" lon="11.1446895"><ele>45.333333333333336</ele><time>2026-04-12T09:21:07.979Z</time></trkpt><trkpt lat="44.5627562" lon="11.1449141"><ele>44.666666666666664</ele><time>2026-04-12T09:21:08.98Z</time></trkpt><trkpt lat="44.5626806" lon="11.1451433"><ele>44.0</ele><time>2026-04-12T09:21:09.978Z</time></trkpt><trkpt lat="44.562602" lon="11.1453763"><ele>44.0</ele><time>2026-04-12T09:21:10.98Z</time></trkpt><trkpt lat="44.5625219" lon="11.1456097"><ele>44.0</ele><time>2026-04-12T09:21:11.979Z</time></trkpt><trkpt lat="44.5624432" lon="11.1458402"><ele>44.0</ele><time>2026-04-12T09:21:12.979Z</time></trkpt><trkpt lat="44.562366" lon="11.1460707"><ele>44.0</ele><time>2026-04-12T09:21:13.979Z</time></trkpt><trkpt lat="44.5622891" lon="11.1463007"><ele>44.0</ele><time>2026-04-12T09:21:14.978Z</time></trkpt><trkpt lat="44.5622163" lon="11.1465298"><ele>44.0</ele><time>2026-04-12T09:21:15.978Z</time></trkpt><trkpt lat="44.5621431" lon="11.1467591"><ele>44.0</ele><time>2026-04-12T09:21:16.98Z</time></trkpt><trkpt lat="44.5620673" lon="11.1469879"><ele>44.0</ele><time>2026-04-12T09:21:17.98Z</time></trkpt><trkpt lat="44.5619887" lon="11.147218"><ele>44.0</ele><time>2026-04-12T09:21:18.979Z</time></trkpt><trkpt lat="44.5619112" lon="11.1474501"><ele>42.666666666666664</ele><time>2026-04-12T09:21:19.98Z</time></trkpt><trkpt lat="44.5618331" lon="11.1476796"><ele>41.333333333333336</ele><time>2026-04-12T09:21:20.98Z</time></trkpt><trkpt lat="44.5617574" lon="11.1479084"><ele>40.0</ele><time>2026-04-12T09:21:21.981Z</time></trkpt><trkpt lat="44.561686" lon="11.1481361"><ele>40.333333333333336</ele><time>2026-04-12T09:21:22.979Z</time></trkpt><trkpt lat="44.5616119" lon="11.1483626"><ele>40.666666666666664</ele><time>2026-04-12T09:21:23.982Z</time></trkpt><trkpt lat="44.5615344" lon="11.1485924"><ele>41.0</ele><time>2026-04-12T09:21:24.98Z</time></trkpt><trkpt lat="44.5614568" lon="11.1488222"><ele>40.666666666666664</ele><time>2026-04-12T09:21:25.98Z</time></trkpt><trkpt lat="44.5613805" lon="11.1490487"><ele>40.333333333333336</ele><time>2026-04-12T09:21:26.98Z</time></trkpt><trkpt lat="44.56131" lon="11.1492679"><ele>40.0</ele><time>2026-04-12T09:21:27.98Z</time></trkpt><trkpt lat="44.5612424" lon="11.1494754"><ele>40.0</ele><time>2026-04-12T09:21:28.981Z</time></trkpt><trkpt lat="44.5611753" lon="11.1496729"><ele>40.0</ele><time>2026-04-12T09:21:29.98Z</time></trkpt><trkpt lat="44.5611146" lon="11.1498535"><ele>40.0</ele><time>2026-04-12T09:21:30.979Z</time></trkpt><trkpt lat="44.5610607" lon="11.1500049"><ele>40.0</ele><time>2026-04-12T09:21:31.979Z</time></trkpt><trkpt lat="44.5610102" lon="11.1501182"><ele>40.0</ele><time>2026-04-12T09:21:32.979Z</time></trkpt><trkpt lat="44.5609673" lon="11.1502113"><ele>40.0</ele><time>2026-04-12T09:21:33.98Z</time></trkpt><trkpt lat="44.5608794" lon="11.1503176"><ele>40.0</ele><time>2026-04-12T09:21:35.98Z</time></trkpt><trkpt lat="44.5607706" lon="11.1503579"><ele>40.0</ele><time>2026-04-12T09:21:37.98Z</time></trkpt><trkpt lat="44.5606379" lon="11.1503686"><ele>40.0</ele><time>2026-04-12T09:21:39.979Z</time></trkpt><trkpt lat="44.5605597" lon="11.1503802"><ele>40.0</ele><time>2026-04-12T09:21:40.979Z</time></trkpt><trkpt lat="44.5604789" lon="11.1504212"><ele>40.0</ele><time>2026-04-12T09:21:41.982Z</time></trkpt><trkpt lat="44.5604031" lon="11.1504885"><ele>40.0</ele><time>2026-04-12T09:21:42.98Z</time></trkpt><trkpt lat="44.5603354" lon="11.1505824"><ele>40.0</ele><time>2026-04-12T09:21:43.979Z</time></trkpt><trkpt lat="44.5603062" lon="11.1507185"><ele>40.0</ele><time>2026-04-12T09:21:44.98Z</time></trkpt><trkpt lat="44.5603051" lon="11.1508717"><ele>39.5</ele><time>2026-04-12T09:21:45.979Z</time></trkpt><trkpt lat="44.5603278" lon="11.1510286"><ele>39.0</ele><time>2026-04-12T09:21:46.979Z</time></trkpt><trkpt lat="44.5603574" lon="11.1511837"><ele>38.5</ele><time>2026-04-12T09:21:47.978Z</time></trkpt><trkpt lat="44.560385" lon="11.1513434"><ele>38.0</ele><time>2026-04-12T09:21:48.979Z</time></trkpt><trkpt lat="44.5604024" lon="11.1515039"><ele>37.75</ele><time>2026-04-12T09:21:49.979Z</time></trkpt><trkpt lat="44.5604032" lon="11.1516693"><ele>37.5</ele><time>2026-04-12T09:21:50.979Z</time></trkpt><trkpt lat="44.5603905" lon="11.1518472"><ele>37.25</ele><time>2026-04-12T09:21:51.979Z</time></trkpt><trkpt lat="44.560363" lon="11.152033"><ele>37.0</ele><time>2026-04-12T09:21:52.98Z</time></trkpt><trkpt lat="44.5603173" lon="11.1522308"><ele>37.0</ele><time>2026-04-12T09:21:53.978Z</time></trkpt><trkpt lat="44.5602637" lon="11.1524264"><ele>37.0</ele><time>2026-04-12T09:21:54.978Z</time></trkpt><trkpt lat="44.5602037" lon="11.1526264"><ele>37.0</ele><time>2026-04-12T09:21:55.98Z</time></trkpt><trkpt lat="44.560141" lon="11.1528329"><ele>37.0</ele><time>2026-04-12T09:21:56.981Z</time></trkpt><trkpt lat="44.5600804" lon="11.1530397"><ele>37.0</ele><time>2026-04-12T09:21:57.98Z</time></trkpt><trkpt lat="44.560021" lon="11.1532422"><ele>37.0</ele><time>2026-04-12T09:21:58.979Z</time></trkpt><trkpt lat="44.559961" lon="11.1534439"><ele>37.66666666666667</ele><time>2026-04-12T09:21:59.979Z</time></trkpt><trkpt lat="44.5598962" lon="11.1536482"><ele>38.333333333333336</ele><time>2026-04-12T09:22:00.978Z</time></trkpt><trkpt lat="44.5598265" lon="11.1538534"><ele>39.0</ele><time>2026-04-12T09:22:01.979Z</time></trkpt><trkpt lat="44.5597514" lon="11.1540605"><ele>38.666666666666664</ele><time>2026-04-12T09:22:02.979Z</time></trkpt><trkpt lat="44.5596768" lon="11.1542588"><ele>38.33333333333333</ele><time>2026-04-12T09:22:03.978Z</time></trkpt><trkpt lat="44.5595977" lon="11.1544718"><ele>38.0</ele><time>2026-04-12T09:22:04.979Z</time></trkpt><trkpt lat="44.5595172" lon="11.1546832"><ele>38.0</ele><time>2026-04-12T09:22:05.979Z</time></trkpt><trkpt lat="44.5594386" lon="11.154889"><ele>38.0</ele><time>2026-04-12T09:22:06.978Z</time></trkpt><trkpt lat="44.5593622" lon="11.1550888"><ele>38.0</ele><time>2026-04-12T09:22:07.979Z</time></trkpt><trkpt lat="44.5592867" lon="11.1552886"><ele>38.0</ele><time>2026-04-12T09:22:08.98Z</time></trkpt><trkpt lat="44.5592095" lon="11.1554901"><ele>38.0</ele><time>2026-04-12T09:22:09.978Z</time></trkpt><trkpt lat="44.559129" lon="11.1556889"><ele>38.0</ele><time>2026-04-12T09:22:10.979Z</time></trkpt><trkpt lat="44.5590503" lon="11.1558863"><ele>38.0</ele><time>2026-04-12T09:22:11.979Z</time></trkpt><trkpt lat="44.5589732" lon="11.1560878"><ele>38.0</ele><time>2026-04-12T09:22:12.979Z</time></trkpt><trkpt lat="44.5588987" lon="11.1562899"><ele>38.0</ele><time>2026-04-12T09:22:13.98Z</time></trkpt><trkpt lat="44.558825" lon="11.156492"><ele>37.666666666666664</ele><time>2026-04-12T09:22:14.98Z</time></trkpt><trkpt lat="44.5587541" lon="11.1566935"><ele>37.333333333333336</ele><time>2026-04-12T09:22:15.978Z</time></trkpt><trkpt lat="44.5586826" lon="11.1568935"><ele>37.0</ele><time>2026-04-12T09:22:16.979Z</time></trkpt><trkpt lat="44.5586136" lon="11.1570975"><ele>37.66666666666667</ele><time>2026-04-12T09:22:17.978Z</time></trkpt><trkpt lat="44.5585452" lon="11.1573031"><ele>38.333333333333336</ele><time>2026-04-12T09:22:18.979Z</time></trkpt><trkpt lat="44.5584766" lon="11.157506"><ele>39.0</ele><time>2026-04-12T09:22:19.981Z</time></trkpt><trkpt lat="44.5584096" lon="11.1577103"><ele>39.0</ele><time>2026-04-12T09:22:20.981Z</time></trkpt><trkpt lat="44.5583433" lon="11.1579155"><ele>39.0</ele><time>2026-04-12T09:22:21.981Z</time></trkpt><trkpt lat="44.5582708" lon="11.1581221"><ele>39.0</ele><time>2026-04-12T09:22:22.98Z</time></trkpt><trkpt lat="44.5581971" lon="11.1583297"><ele>39.333333333333336</ele><time>2026-04-12T09:22:23.98Z</time></trkpt><trkpt lat="44.5581229" lon="11.1585386"><ele>39.66666666666667</ele><time>2026-04-12T09:22:24.978Z</time></trkpt><trkpt lat="44.5580511" lon="11.158752"><ele>40.0</ele><time>2026-04-12T09:22:25.979Z</time></trkpt><trkpt lat="44.5579782" lon="11.1589693"><ele>41.0</ele><time>2026-04-12T09:22:26.978Z</time></trkpt><trkpt lat="44.5579031" lon="11.1591895"><ele>42.0</ele><time>2026-04-12T09:22:27.978Z</time></trkpt><trkpt lat="44.5578244" lon="11.1594129"><ele>43.0</ele><time>2026-04-12T09:22:28.98Z</time></trkpt><trkpt lat="44.5577457" lon="11.1596362"><ele>43.0</ele><time>2026-04-12T09:22:29.979Z</time></trkpt><trkpt lat="44.5576677" lon="11.1598562"><ele>43.0</ele><time>2026-04-12T09:22:30.98Z</time></trkpt><trkpt lat="44.5575922" lon="11.1600767"><ele>43.0</ele><time>2026-04-12T09:22:31.981Z</time></trkpt><trkpt lat="44.5575172" lon="11.1602963"><ele>42.0</ele><time>2026-04-12T09:22:32.979Z</time></trkpt><trkpt lat="44.5574414" lon="11.1605153"><ele>41.0</ele><time>2026-04-12T09:22:33.981Z</time></trkpt><trkpt lat="44.5573675" lon="11.1607322"><ele>40.0</ele><time>2026-04-12T09:22:34.978Z</time></trkpt><trkpt lat="44.5572917" lon="11.1609477"><ele>39.333333333333336</ele><time>2026-04-12T09:22:35.979Z</time></trkpt><trkpt lat="44.5572161" lon="11.1611661"><ele>38.666666666666664</ele><time>2026-04-12T09:22:36.979Z</time></trkpt><trkpt lat="44.5571358" lon="11.1613874"><ele>38.0</ele><time>2026-04-12T09:22:37.981Z</time></trkpt><trkpt lat="44.5570614" lon="11.161612"><ele>38.0</ele><time>2026-04-12T09:22:38.98Z</time></trkpt><trkpt lat="44.5569829" lon="11.1618318"><ele>38.0</ele><time>2026-04-12T09:22:39.978Z</time></trkpt><trkpt lat="44.5569051" lon="11.1620412"><ele>38.0</ele><time>2026-04-12T09:22:40.979Z</time></trkpt><trkpt lat="44.5568261" lon="11.1622502"><ele>38.33333333333333</ele><time>2026-04-12T09:22:41.978Z</time></trkpt><trkpt lat="44.5567482" lon="11.1624631"><ele>38.666666666666664</ele><time>2026-04-12T09:22:42.98Z</time></trkpt><trkpt lat="44.5566745" lon="11.1626735"><ele>39.0</ele><time>2026-04-12T09:22:43.979Z</time></trkpt><trkpt lat="44.5566021" lon="11.1628797"><ele>39.0</ele><time>2026-04-12T09:22:44.979Z</time></trkpt><trkpt lat="44.5565285" lon="11.1630871"><ele>39.0</ele><time>2026-04-12T09:22:45.979Z</time></trkpt><trkpt lat="44.5564576" lon="11.1632947"><ele>39.0</ele><time>2026-04-12T09:22:46.979Z</time></trkpt><trkpt lat="44.5563887" lon="11.1635092"><ele>39.0</ele><time>2026-04-12T09:22:47.979Z</time></trkpt><trkpt lat="44.5563188" lon="11.1637217"><ele>39.0</ele><time>2026-04-12T09:22:48.979Z</time></trkpt><trkpt lat="44.5562454" lon="11.1639326"><ele>39.0</ele><time>2026-04-12T09:22:49.978Z</time></trkpt><trkpt lat="44.5561714" lon="11.164143"><ele>38.666666666666664</ele><time>2026-04-12T09:22:50.979Z</time></trkpt><trkpt lat="44.5560984" lon="11.1643511"><ele>38.33333333333333</ele><time>2026-04-12T09:22:51.978Z</time></trkpt><trkpt lat="44.5560258" lon="11.1645555"><ele>38.0</ele><time>2026-04-12T09:22:52.979Z</time></trkpt><trkpt lat="44.5559532" lon="11.1647591"><ele>38.0</ele><time>2026-04-12T09:22:53.982Z</time></trkpt><trkpt lat="44.5558809" lon="11.1649621"><ele>38.0</ele><time>2026-04-12T09:22:54.98Z</time></trkpt><trkpt lat="44.5558044" lon="11.1651689"><ele>38.0</ele><time>2026-04-12T09:22:55.979Z</time></trkpt><trkpt lat="44.5557305" lon="11.1653789"><ele>38.0</ele><time>2026-04-12T09:22:56.979Z</time></trkpt><trkpt lat="44.5556567" lon="11.1655882"><ele>38.0</ele><time>2026-04-12T09:22:57.978Z</time></trkpt><trkpt lat="44.5555842" lon="11.1658017"><ele>38.0</ele><time>2026-04-12T09:22:58.979Z</time></trkpt><trkpt lat="44.5555123" lon="11.1660131"><ele>38.0</ele><time>2026-04-12T09:22:59.98Z</time></trkpt><trkpt lat="44.5554407" lon="11.1662195"><ele>38.0</ele><time>2026-04-12T09:23:00.978Z</time></trkpt><trkpt lat="44.5553691" lon="11.1664285"><ele>38.0</ele><time>2026-04-12T09:23:01.98Z</time></trkpt><trkpt lat="44.5552942" lon="11.1666421"><ele>38.33333333333333</ele><time>2026-04-12T09:23:02.979Z</time></trkpt><trkpt lat="44.5552221" lon="11.1668542"><ele>38.666666666666664</ele><time>2026-04-12T09:23:03.979Z</time></trkpt><trkpt lat="44.5551479" lon="11.1670627"><ele>39.0</ele><time>2026-04-12T09:23:04.979Z</time></trkpt><trkpt lat="44.5550751" lon="11.1672699"><ele>39.333333333333336</ele><time>2026-04-12T09:23:05.978Z</time></trkpt><trkpt lat="44.5550027" lon="11.1674812"><ele>39.66666666666667</ele><time>2026-04-12T09:23:06.979Z</time></trkpt><trkpt lat="44.5549319" lon="11.1676943"><ele>40.0</ele><time>2026-04-12T09:23:07.98Z</time></trkpt><trkpt lat="44.5548623" lon="11.1679023"><ele>40.0</ele><time>2026-04-12T09:23:08.979Z</time></trkpt><trkpt lat="44.5547903" lon="11.1681065"><ele>40.0</ele><time>2026-04-12T09:23:09.979Z</time></trkpt><trkpt lat="44.554716" lon="11.1683123"><ele>40.0</ele><time>2026-04-12T09:23:10.979Z</time></trkpt><trkpt lat="44.5546414" lon="11.1685237"><ele>40.0</ele><time>2026-04-12T09:23:11.98Z</time></trkpt><trkpt lat="44.5545671" lon="11.1687356"><ele>40.0</ele><time>2026-04-12T09:23:12.981Z</time></trkpt><trkpt lat="44.554493" lon="11.1689476"><ele>40.0</ele><time>2026-04-12T09:23:13.98Z</time></trkpt><trkpt lat="44.5544191" lon="11.169153"><ele>40.333333333333336</ele><time>2026-04-12T09:23:14.978Z</time></trkpt><trkpt lat="44.5543478" lon="11.1693523"><ele>40.666666666666664</ele><time>2026-04-12T09:23:15.98Z</time></trkpt><trkpt lat="44.5542804" lon="11.1695491"><ele>41.0</ele><time>2026-04-12T09:23:16.98Z</time></trkpt><trkpt lat="44.5542153" lon="11.16974"><ele>40.666666666666664</ele><time>2026-04-12T09:23:17.978Z</time></trkpt><trkpt lat="44.5541491" lon="11.1699337"><ele>40.333333333333336</ele><time>2026-04-12T09:23:18.98Z</time></trkpt><trkpt lat="44.5540819" lon="11.1701292"><ele>40.0</ele><time>2026-04-12T09:23:19.979Z</time></trkpt><trkpt lat="44.554017" lon="11.1703176"><ele>40.0</ele><time>2026-04-12T09:23:20.979Z</time></trkpt><trkpt lat="44.553954" lon="11.1705046"><ele>40.0</ele><time>2026-04-12T09:23:21.979Z</time></trkpt><trkpt lat="44.5538909" lon="11.170682"><ele>40.0</ele><time>2026-04-12T09:23:22.978Z</time></trkpt><trkpt lat="44.5538239" lon="11.1708585"><ele>40.0</ele><time>2026-04-12T09:23:23.978Z</time></trkpt><trkpt lat="44.5537588" lon="11.1710396"><ele>39.66666666666667</ele><time>2026-04-12T09:23:24.979Z</time></trkpt><trkpt lat="44.5536922" lon="11.1712322"><ele>39.333333333333336</ele><time>2026-04-12T09:23:25.978Z</time></trkpt><trkpt lat="44.5536199" lon="11.1714447"><ele>39.0</ele><time>2026-04-12T09:23:26.979Z</time></trkpt><trkpt lat="44.553539" lon="11.1716788"><ele>38.666666666666664</ele><time>2026-04-12T09:23:27.978Z</time></trkpt><trkpt lat="44.5534543" lon="11.1719115"><ele>38.33333333333333</ele><time>2026-04-12T09:23:28.98Z</time></trkpt><trkpt lat="44.5533718" lon="11.1721319"><ele>38.0</ele><time>2026-04-12T09:23:29.978Z</time></trkpt><trkpt lat="44.5532947" lon="11.1723451"><ele>38.0</ele><time>2026-04-12T09:23:30.979Z</time></trkpt><trkpt lat="44.5532236" lon="11.1725489"><ele>38.0</ele><time>2026-04-12T09:23:31.979Z</time></trkpt><trkpt lat="44.553155" lon="11.1727503"><ele>38.0</ele><time>2026-04-12T09:23:32.978Z</time></trkpt><trkpt lat="44.5530809" lon="11.1729498"><ele>38.0</ele><time>2026-04-12T09:23:33.979Z</time></trkpt><trkpt lat="44.553013" lon="11.1731423"><ele>38.0</ele><time>2026-04-12T09:23:34.978Z</time></trkpt><trkpt lat="44.552945" lon="11.1733291"><ele>38.0</ele><time>2026-04-12T09:23:35.979Z</time></trkpt><trkpt lat="44.5528776" lon="11.1735092"><ele>38.0</ele><time>2026-04-12T09:23:36.979Z</time></trkpt><trkpt lat="44.5528154" lon="11.1736863"><ele>38.0</ele><time>2026-04-12T09:23:37.979Z</time></trkpt><trkpt lat="44.5527547" lon="11.1738652"><ele>38.0</ele><time>2026-04-12T09:23:38.979Z</time></trkpt><trkpt lat="44.5526916" lon="11.1740492"><ele>38.0</ele><time>2026-04-12T09:23:39.978Z</time></trkpt><trkpt lat="44.5526275" lon="11.1742319"><ele>38.0</ele><time>2026-04-12T09:23:40.978Z</time></trkpt><trkpt lat="44.5525694" lon="11.1744036"><ele>38.0</ele><time>2026-04-12T09:23:41.981Z</time></trkpt><trkpt lat="44.5525146" lon="11.1745746"><ele>38.0</ele><time>2026-04-12T09:23:42.979Z</time></trkpt><trkpt lat="44.5524585" lon="11.174742"><ele>38.0</ele><time>2026-04-12T09:23:43.978Z</time></trkpt><trkpt lat="44.5524025" lon="11.1749107"><ele>38.0</ele><time>2026-04-12T09:23:44.978Z</time></trkpt><trkpt lat="44.5523455" lon="11.1750788"><ele>37.75</ele><time>2026-04-12T09:23:45.979Z</time></trkpt><trkpt lat="44.5522888" lon="11.1752508"><ele>37.5</ele><time>2026-04-12T09:23:46.981Z</time></trkpt><trkpt lat="44.5522291" lon="11.1754177"><ele>37.25</ele><time>2026-04-12T09:23:47.979Z</time></trkpt><trkpt lat="44.5521698" lon="11.1755872"><ele>37.0</ele><time>2026-04-12T09:23:48.978Z</time></trkpt><trkpt lat="44.5521094" lon="11.1757638"><ele>37.0</ele><time>2026-04-12T09:23:49.978Z</time></trkpt><trkpt lat="44.5520462" lon="11.1759403"><ele>37.0</ele><time>2026-04-12T09:23:50.979Z</time></trkpt><trkpt lat="44.5519858" lon="11.1761406"><ele>37.0</ele><time>2026-04-12T09:23:51.98Z</time></trkpt><trkpt lat="44.5519142" lon="11.1763566"><ele>37.333333333333336</ele><time>2026-04-12T09:23:52.98Z</time></trkpt><trkpt lat="44.5518328" lon="11.1765805"><ele>37.666666666666664</ele><time>2026-04-12T09:23:53.979Z</time></trkpt><trkpt lat="44.5517476" lon="11.1768133"><ele>38.0</ele><time>2026-04-12T09:23:54.978Z</time></trkpt><trkpt lat="44.5516638" lon="11.1770526"><ele>38.0</ele><time>2026-04-12T09:23:55.978Z</time></trkpt><trkpt lat="44.5515802" lon="11.1772869"><ele>38.0</ele><time>2026-04-12T09:23:56.979Z</time></trkpt><trkpt lat="44.5515042" lon="11.1775019"><ele>38.0</ele><time>2026-04-12T09:23:57.977Z</time></trkpt><trkpt lat="44.5514406" lon="11.1776813"><ele>37.8</ele><time>2026-04-12T09:23:58.978Z</time></trkpt><trkpt lat="44.5514002" lon="11.1778415"><ele>37.599999999999994</ele><time>2026-04-12T09:23:59.979Z</time></trkpt><trkpt lat="44.5514006" lon="11.1779839"><ele>37.400000000000006</ele><time>2026-04-12T09:24:00.979Z</time></trkpt><trkpt lat="44.5514239" lon="11.1781101"><ele>37.2</ele><time>2026-04-12T09:24:01.979Z</time></trkpt><trkpt lat="44.5514923" lon="11.1782223"><ele>37.0</ele><time>2026-04-12T09:24:02.98Z</time></trkpt><trkpt lat="44.5515981" lon="11.178316"><ele>36.75</ele><time>2026-04-12T09:24:03.979Z</time></trkpt><trkpt lat="44.5517138" lon="11.1784201"><ele>36.5</ele><time>2026-04-12T09:24:04.98Z</time></trkpt><trkpt lat="44.551822" lon="11.1785499"><ele>36.25</ele><time>2026-04-12T09:24:05.979Z</time></trkpt><trkpt lat="44.5519069" lon="11.1787063"><ele>36.0</ele><time>2026-04-12T09:24:06.978Z</time></trkpt><trkpt lat="44.5519725" lon="11.1788913"><ele>35.666666666666664</ele><time>2026-04-12T09:24:07.98Z</time></trkpt><trkpt lat="44.5520242" lon="11.1790985"><ele>35.33333333333333</ele><time>2026-04-12T09:24:08.981Z</time></trkpt><trkpt lat="44.5520665" lon="11.1793225"><ele>35.0</ele><time>2026-04-12T09:24:09.98Z</time></trkpt><trkpt lat="44.5521056" lon="11.1795596"><ele>35.0</ele><time>2026-04-12T09:24:10.979Z</time></trkpt><trkpt lat="44.5521411" lon="11.1798253"><ele>35.0</ele><time>2026-04-12T09:24:11.979Z</time></trkpt><trkpt lat="44.552172" lon="11.180099"><ele>35.0</ele><time>2026-04-12T09:24:12.981Z</time></trkpt><trkpt lat="44.5522011" lon="11.1803695"><ele>35.0</ele><time>2026-04-12T09:24:13.979Z</time></trkpt><trkpt lat="44.5522339" lon="11.1806414"><ele>35.0</ele><time>2026-04-12T09:24:14.979Z</time></trkpt><trkpt lat="44.5522714" lon="11.18092"><ele>35.0</ele><time>2026-04-12T09:24:15.978Z</time></trkpt><trkpt lat="44.5523094" lon="11.1812031"><ele>35.0</ele><time>2026-04-12T09:24:16.978Z</time></trkpt><trkpt lat="44.5523467" lon="11.1814927"><ele>35.0</ele><time>2026-04-12T09:24:17.978Z</time></trkpt><trkpt lat="44.5523847" lon="11.1817901"><ele>35.0</ele><time>2026-04-12T09:24:18.979Z</time></trkpt><trkpt lat="44.5524221" lon="11.1820856"><ele>35.33333333333333</ele><time>2026-04-12T09:24:19.979Z</time></trkpt><trkpt lat="44.5524597" lon="11.1823692"><ele>35.666666666666664</ele><time>2026-04-12T09:24:20.979Z</time></trkpt><trkpt lat="44.552499" lon="11.1826477"><ele>36.0</ele><time>2026-04-12T09:24:21.978Z</time></trkpt><trkpt lat="44.5525389" lon="11.1829293"><ele>36.0</ele><time>2026-04-12T09:24:22.979Z</time></trkpt><trkpt lat="44.5525745" lon="11.1832159"><ele>36.0</ele><time>2026-04-12T09:24:23.979Z</time></trkpt><trkpt lat="44.552608" lon="11.1835038"><ele>36.0</ele><time>2026-04-12T09:24:24.979Z</time></trkpt><trkpt lat="44.5526425" lon="11.1837934"><ele>35.666666666666664</ele><time>2026-04-12T09:24:25.979Z</time></trkpt><trkpt lat="44.5526709" lon="11.1840801"><ele>35.33333333333333</ele><time>2026-04-12T09:24:26.981Z</time></trkpt><trkpt lat="44.552693" lon="11.1843701"><ele>35.0</ele><time>2026-04-12T09:24:27.979Z</time></trkpt><trkpt lat="44.5527103" lon="11.1846602"><ele>35.0</ele><time>2026-04-12T09:24:28.979Z</time></trkpt><trkpt lat="44.5527207" lon="11.1849523"><ele>35.0</ele><time>2026-04-12T09:24:29.979Z</time></trkpt><trkpt lat="44.5527275" lon="11.1852498"><ele>35.0</ele><time>2026-04-12T09:24:30.979Z</time></trkpt><trkpt lat="44.5527309" lon="11.185543"><ele>35.0</ele><time>2026-04-12T09:24:31.979Z</time></trkpt><trkpt lat="44.5527269" lon="11.1858375"><ele>35.0</ele><time>2026-04-12T09:24:32.981Z</time></trkpt><trkpt lat="44.5527132" lon="11.1861292"><ele>35.0</ele><time>2026-04-12T09:24:33.98Z</time></trkpt><trkpt lat="44.5526935" lon="11.1864198"><ele>34.666666666666664</ele><time>2026-04-12T09:24:34.98Z</time></trkpt><trkpt lat="44.5526691" lon="11.186708"><ele>34.333333333333336</ele><time>2026-04-12T09:24:35.979Z</time></trkpt><trkpt lat="44.552638" lon="11.186994"><ele>34.0</ele><time>2026-04-12T09:24:36.98Z</time></trkpt><trkpt lat="44.552599" lon="11.187278"><ele>34.0</ele><time>2026-04-12T09:24:37.979Z</time></trkpt><trkpt lat="44.5525549" lon="11.1875593"><ele>34.0</ele><time>2026-04-12T09:24:38.981Z</time></trkpt><trkpt lat="44.552506" lon="11.1878396"><ele>34.0</ele><time>2026-04-12T09:24:39.978Z</time></trkpt><trkpt lat="44.5524481" lon="11.1881145"><ele>34.0</ele><time>2026-04-12T09:24:40.98Z</time></trkpt><trkpt lat="44.5523873" lon="11.188392"><ele>34.0</ele><time>2026-04-12T09:24:41.979Z</time></trkpt><trkpt lat="44.5523258" lon="11.1886724"><ele>34.0</ele><time>2026-04-12T09:24:42.98Z</time></trkpt><trkpt lat="44.5522656" lon="11.188956"><ele>34.0</ele><time>2026-04-12T09:24:43.979Z</time></trkpt><trkpt lat="44.5522047" lon="11.1892419"><ele>34.0</ele><time>2026-04-12T09:24:44.978Z</time></trkpt><trkpt lat="44.552144" lon="11.1895295"><ele>34.0</ele><time>2026-04-12T09:24:45.977Z</time></trkpt><trkpt lat="44.5520838" lon="11.1898188"><ele>34.333333333333336</ele><time>2026-04-12T09:24:46.977Z</time></trkpt><trkpt lat="44.5520194" lon="11.190105"><ele>34.666666666666664</ele><time>2026-04-12T09:24:47.979Z</time></trkpt><trkpt lat="44.5519574" lon="11.1903993"><ele>35.0</ele><time>2026-04-12T09:24:48.978Z</time></trkpt><trkpt lat="44.5518932" lon="11.1906894"><ele>35.0</ele><time>2026-04-12T09:24:49.98Z</time></trkpt><trkpt lat="44.551831" lon="11.1909808"><ele>35.0</ele><time>2026-04-12T09:24:50.979Z</time></trkpt><trkpt lat="44.5517705" lon="11.1912795"><ele>35.0</ele><time>2026-04-12T09:24:51.979Z</time></trkpt><trkpt lat="44.5517077" lon="11.1915803"><ele>35.5</ele><time>2026-04-12T09:24:52.98Z</time></trkpt><trkpt lat="44.5516429" lon="11.1918913"><ele>36.0</ele><time>2026-04-12T09:24:53.981Z</time></trkpt><trkpt lat="44.5515752" lon="11.1922164"><ele>37.5</ele><time>2026-04-12T09:24:54.979Z</time></trkpt><trkpt lat="44.5515022" lon="11.192549"><ele>39.0</ele><time>2026-04-12T09:24:55.979Z</time></trkpt><trkpt lat="44.5514257" lon="11.1928814"><ele>39.0</ele><time>2026-04-12T09:24:56.979Z</time></trkpt><trkpt lat="44.5513513" lon="11.1932063"><ele>39.0</ele><time>2026-04-12T09:24:57.979Z</time></trkpt><trkpt lat="44.5512819" lon="11.193522"><ele>39.0</ele><time>2026-04-12T09:24:58.978Z</time></trkpt><trkpt lat="44.5512165" lon="11.1938274"><ele>39.0</ele><time>2026-04-12T09:24:59.978Z</time></trkpt><trkpt lat="44.5511519" lon="11.1941284"><ele>38.666666666666664</ele><time>2026-04-12T09:25:00.98Z</time></trkpt><trkpt lat="44.5510867" lon="11.1944261"><ele>38.33333333333333</ele><time>2026-04-12T09:25:01.979Z</time></trkpt><trkpt lat="44.5510207" lon="11.1947231"><ele>38.0</ele><time>2026-04-12T09:25:02.978Z</time></trkpt><trkpt lat="44.5509544" lon="11.1950196"><ele>37.666666666666664</ele><time>2026-04-12T09:25:03.981Z</time></trkpt><trkpt lat="44.5508897" lon="11.1953177"><ele>37.333333333333336</ele><time>2026-04-12T09:25:04.979Z</time></trkpt><trkpt lat="44.5508245" lon="11.1956152"><ele>37.0</ele><time>2026-04-12T09:25:05.98Z</time></trkpt><trkpt lat="44.5507604" lon="11.1959116"><ele>37.0</ele><time>2026-04-12T09:25:06.981Z</time></trkpt><trkpt lat="44.5506961" lon="11.196208"><ele>37.0</ele><time>2026-04-12T09:25:07.979Z</time></trkpt><trkpt lat="44.5506301" lon="11.1964955"><ele>37.0</ele><time>2026-04-12T09:25:08.978Z</time></trkpt><trkpt lat="44.550564" lon="11.1967778"><ele>37.0</ele><time>2026-04-12T09:25:09.979Z</time></trkpt><trkpt lat="44.5504962" lon="11.1970652"><ele>37.0</ele><time>2026-04-12T09:25:10.979Z</time></trkpt><trkpt lat="44.5504246" lon="11.1973523"><ele>37.0</ele><time>2026-04-12T09:25:11.978Z</time></trkpt><trkpt lat="44.5503451" lon="11.1976304"><ele>37.0</ele><time>2026-04-12T09:25:12.98Z</time></trkpt><trkpt lat="44.5502607" lon="11.1979087"><ele>37.0</ele><time>2026-04-12T09:25:13.98Z</time></trkpt><trkpt lat="44.5501744" lon="11.1981867"><ele>37.0</ele><time>2026-04-12T09:25:14.98Z</time></trkpt><trkpt lat="44.550086" lon="11.1984636"><ele>37.0</ele><time>2026-04-12T09:25:15.98Z</time></trkpt><trkpt lat="44.5499982" lon="11.1987396"><ele>37.0</ele><time>2026-04-12T09:25:16.978Z</time></trkpt><trkpt lat="44.5499096" lon="11.199014"><ele>37.0</ele><time>2026-04-12T09:25:17.979Z</time></trkpt><trkpt lat="44.5498175" lon="11.1992832"><ele>37.0</ele><time>2026-04-12T09:25:18.978Z</time></trkpt><trkpt lat="44.5497241" lon="11.199548"><ele>37.0</ele><time>2026-04-12T09:25:19.98Z</time></trkpt><trkpt lat="44.5496305" lon="11.1998104"><ele>37.0</ele><time>2026-04-12T09:25:20.98Z</time></trkpt><trkpt lat="44.5495395" lon="11.2000757"><ele>37.0</ele><time>2026-04-12T09:25:21.978Z</time></trkpt><trkpt lat="44.5494484" lon="11.2003429"><ele>37.0</ele><time>2026-04-12T09:25:22.981Z</time></trkpt><trkpt lat="44.5493603" lon="11.2006049"><ele>37.0</ele><time>2026-04-12T09:25:23.981Z</time></trkpt><trkpt lat="44.5492743" lon="11.2008658"><ele>37.333333333333336</ele><time>2026-04-12T09:25:24.98Z</time></trkpt><trkpt lat="44.5491872" lon="11.2011261"><ele>37.666666666666664</ele><time>2026-04-12T09:25:25.98Z</time></trkpt><trkpt lat="44.5491022" lon="11.2013825"><ele>38.0</ele><time>2026-04-12T09:25:26.979Z</time></trkpt><trkpt lat="44.5490179" lon="11.2016376"><ele>38.0</ele><time>2026-04-12T09:25:27.979Z</time></trkpt><trkpt lat="44.5489302" lon="11.2018825"><ele>38.0</ele><time>2026-04-12T09:25:28.978Z</time></trkpt><trkpt lat="44.5488453" lon="11.2021242"><ele>38.0</ele><time>2026-04-12T09:25:29.979Z</time></trkpt><trkpt lat="44.5487663" lon="11.2023578"><ele>38.33333333333333</ele><time>2026-04-12T09:25:30.979Z</time></trkpt><trkpt lat="44.5486887" lon="11.2025865"><ele>38.666666666666664</ele><time>2026-04-12T09:25:31.981Z</time></trkpt><trkpt lat="44.5486107" lon="11.2028149"><ele>39.0</ele><time>2026-04-12T09:25:32.979Z</time></trkpt><trkpt lat="44.5485318" lon="11.203044"><ele>39.0</ele><time>2026-04-12T09:25:33.981Z</time></trkpt><trkpt lat="44.5484542" lon="11.2032678"><ele>39.0</ele><time>2026-04-12T09:25:34.98Z</time></trkpt><trkpt lat="44.548377" lon="11.2034943"><ele>39.0</ele><time>2026-04-12T09:25:35.98Z</time></trkpt><trkpt lat="44.5483014" lon="11.2037204"><ele>39.0</ele><time>2026-04-12T09:25:36.981Z</time></trkpt><trkpt lat="44.5482236" lon="11.2039516"><ele>39.0</ele><time>2026-04-12T09:25:37.98Z</time></trkpt><trkpt lat="44.5481449" lon="11.2041848"><ele>39.0</ele><time>2026-04-12T09:25:38.98Z</time></trkpt><trkpt lat="44.5480617" lon="11.2044175"><ele>38.666666666666664</ele><time>2026-04-12T09:25:39.98Z</time></trkpt><trkpt lat="44.5479781" lon="11.2046509"><ele>38.33333333333333</ele><time>2026-04-12T09:25:40.98Z</time></trkpt><trkpt lat="44.5478999" lon="11.2048802"><ele>38.0</ele><time>2026-04-12T09:25:41.98Z</time></trkpt><trkpt lat="44.547824" lon="11.205099"><ele>38.0</ele><time>2026-04-12T09:25:42.981Z</time></trkpt><trkpt lat="44.5477467" lon="11.2053147"><ele>38.0</ele><time>2026-04-12T09:25:43.98Z</time></trkpt><trkpt lat="44.5476686" lon="11.2055309"><ele>38.0</ele><time>2026-04-12T09:25:44.981Z</time></trkpt><trkpt lat="44.547592" lon="11.2057512"><ele>38.666666666666664</ele><time>2026-04-12T09:25:45.98Z</time></trkpt><trkpt lat="44.5475147" lon="11.2059749"><ele>39.333333333333336</ele><time>2026-04-12T09:25:46.98Z</time></trkpt><trkpt lat="44.5474381" lon="11.2062019"><ele>40.0</ele><time>2026-04-12T09:25:47.979Z</time></trkpt><trkpt lat="44.5473575" lon="11.2064332"><ele>39.66666666666667</ele><time>2026-04-12T09:25:48.98Z</time></trkpt><trkpt lat="44.5472732" lon="11.2066777"><ele>39.333333333333336</ele><time>2026-04-12T09:25:49.98Z</time></trkpt><trkpt lat="44.5471886" lon="11.2069323"><ele>39.0</ele><time>2026-04-12T09:25:50.979Z</time></trkpt><trkpt lat="44.5471007" lon="11.2071972"><ele>39.0</ele><time>2026-04-12T09:25:51.98Z</time></trkpt><trkpt lat="44.5470061" lon="11.2074682"><ele>39.0</ele><time>2026-04-12T09:25:52.979Z</time></trkpt><trkpt lat="44.5469035" lon="11.2077401"><ele>39.0</ele><time>2026-04-12T09:25:53.98Z</time></trkpt><trkpt lat="44.546797" lon="11.2080175"><ele>38.0</ele><time>2026-04-12T09:25:54.979Z</time></trkpt><trkpt lat="44.5466845" lon="11.2082937"><ele>37.0</ele><time>2026-04-12T09:25:55.978Z</time></trkpt><trkpt lat="44.5465674" lon="11.2085703"><ele>37.0</ele><time>2026-04-12T09:25:56.981Z</time></trkpt><trkpt lat="44.5464427" lon="11.2088356"><ele>37.0</ele><time>2026-04-12T09:25:57.978Z</time></trkpt><trkpt lat="44.5463185" lon="11.2091041"><ele>37.0</ele><time>2026-04-12T09:25:58.978Z</time></trkpt><trkpt lat="44.5461928" lon="11.2093676"><ele>37.0</ele><time>2026-04-12T09:25:59.979Z</time></trkpt><trkpt lat="44.5460658" lon="11.209624"><ele>37.0</ele><time>2026-04-12T09:26:00.98Z</time></trkpt><trkpt lat="44.5459387" lon="11.2098813"><ele>36.333333333333336</ele><time>2026-04-12T09:26:01.979Z</time></trkpt><trkpt lat="44.5458121" lon="11.2101352"><ele>35.666666666666664</ele><time>2026-04-12T09:26:02.979Z</time></trkpt><trkpt lat="44.5456861" lon="11.2103888"><ele>35.0</ele><time>2026-04-12T09:26:03.979Z</time></trkpt><trkpt lat="44.5455599" lon="11.2106424"><ele>35.33333333333333</ele><time>2026-04-12T09:26:04.979Z</time></trkpt><trkpt lat="44.5454365" lon="11.2108939"><ele>35.666666666666664</ele><time>2026-04-12T09:26:05.982Z</time></trkpt><trkpt lat="44.5453144" lon="11.2111475"><ele>36.0</ele><time>2026-04-12T09:26:06.979Z</time></trkpt><trkpt lat="44.545194" lon="11.2113999"><ele>36.0</ele><time>2026-04-12T09:26:07.98Z</time></trkpt><trkpt lat="44.5450757" lon="11.211654"><ele>36.0</ele><time>2026-04-12T09:26:08.98Z</time></trkpt><trkpt lat="44.5449535" lon="11.2119011"><ele>36.0</ele><time>2026-04-12T09:26:09.979Z</time></trkpt><trkpt lat="44.5448308" lon="11.212147"><ele>36.0</ele><time>2026-04-12T09:26:10.98Z</time></trkpt><trkpt lat="44.5447076" lon="11.2123983"><ele>36.0</ele><time>2026-04-12T09:26:11.978Z</time></trkpt><trkpt lat="44.544585" lon="11.2126478"><ele>36.0</ele><time>2026-04-12T09:26:12.979Z</time></trkpt><trkpt lat="44.5444622" lon="11.2128956"><ele>36.333333333333336</ele><time>2026-04-12T09:26:13.978Z</time></trkpt><trkpt lat="44.5443345" lon="11.2131363"><ele>36.66666666666667</ele><time>2026-04-12T09:26:14.98Z</time></trkpt><trkpt lat="44.5442113" lon="11.2133811"><ele>37.0</ele><time>2026-04-12T09:26:15.979Z</time></trkpt><trkpt lat="44.5440892" lon="11.2136262"><ele>37.0</ele><time>2026-04-12T09:26:16.978Z</time></trkpt><trkpt lat="44.5439683" lon="11.2138703"><ele>37.0</ele><time>2026-04-12T09:26:17.978Z</time></trkpt><trkpt lat="44.5438499" lon="11.2141167"><ele>37.0</ele><time>2026-04-12T09:26:18.979Z</time></trkpt><trkpt lat="44.5437301" lon="11.2143653"><ele>37.0</ele><time>2026-04-12T09:26:19.978Z</time></trkpt><trkpt lat="44.543609" lon="11.2146083"><ele>37.0</ele><time>2026-04-12T09:26:20.979Z</time></trkpt><trkpt lat="44.543484" lon="11.2148524"><ele>37.0</ele><time>2026-04-12T09:26:21.978Z</time></trkpt><trkpt lat="44.5433602" lon="11.2150962"><ele>37.0</ele><time>2026-04-12T09:26:22.979Z</time></trkpt><trkpt lat="44.5432362" lon="11.2153354"><ele>37.0</ele><time>2026-04-12T09:26:23.978Z</time></trkpt><trkpt lat="44.5431124" lon="11.2155722"><ele>37.0</ele><time>2026-04-12T09:26:24.978Z</time></trkpt><trkpt lat="44.5429917" lon="11.215805"><ele>36.66666666666667</ele><time>2026-04-12T09:26:25.978Z</time></trkpt><trkpt lat="44.5428665" lon="11.2160372"><ele>36.333333333333336</ele><time>2026-04-12T09:26:26.979Z</time></trkpt><trkpt lat="44.5427387" lon="11.2162606"><ele>36.0</ele><time>2026-04-12T09:26:27.979Z</time></trkpt><trkpt lat="44.5426055" lon="11.2164775"><ele>35.666666666666664</ele><time>2026-04-12T09:26:28.979Z</time></trkpt><trkpt lat="44.5424666" lon="11.2166891"><ele>35.33333333333333</ele><time>2026-04-12T09:26:29.98Z</time></trkpt><trkpt lat="44.542327" lon="11.2168971"><ele>35.0</ele><time>2026-04-12T09:26:30.98Z</time></trkpt><trkpt lat="44.5421841" lon="11.2170948"><ele>35.666666666666664</ele><time>2026-04-12T09:26:31.979Z</time></trkpt><trkpt lat="44.5420363" lon="11.2172856"><ele>36.333333333333336</ele><time>2026-04-12T09:26:32.981Z</time></trkpt><trkpt lat="44.5418841" lon="11.217471"><ele>37.0</ele><time>2026-04-12T09:26:33.981Z</time></trkpt><trkpt lat="44.5417285" lon="11.2176491"><ele>37.0</ele><time>2026-04-12T09:26:34.979Z</time></trkpt><trkpt lat="44.5415697" lon="11.2178236"><ele>37.0</ele><time>2026-04-12T09:26:35.98Z</time></trkpt><trkpt lat="44.5414086" lon="11.2179965"><ele>37.0</ele><time>2026-04-12T09:26:36.981Z</time></trkpt><trkpt lat="44.5412462" lon="11.2181715"><ele>37.66666666666667</ele><time>2026-04-12T09:26:37.98Z</time></trkpt><trkpt lat="44.5410837" lon="11.2183477"><ele>38.333333333333336</ele><time>2026-04-12T09:26:38.981Z</time></trkpt><trkpt lat="44.5409192" lon="11.218525"><ele>39.0</ele><time>2026-04-12T09:26:39.979Z</time></trkpt><trkpt lat="44.5407565" lon="11.2187004"><ele>39.0</ele><time>2026-04-12T09:26:40.978Z</time></trkpt><trkpt lat="44.5405964" lon="11.2188763"><ele>39.0</ele><time>2026-04-12T09:26:41.98Z</time></trkpt><trkpt lat="44.5404399" lon="11.2190548"><ele>39.0</ele><time>2026-04-12T09:26:42.978Z</time></trkpt><trkpt lat="44.5402898" lon="11.2192349"><ele>39.0</ele><time>2026-04-12T09:26:43.981Z</time></trkpt><trkpt lat="44.5401457" lon="11.2194178"><ele>39.0</ele><time>2026-04-12T09:26:44.981Z</time></trkpt><trkpt lat="44.5400033" lon="11.2196074"><ele>39.0</ele><time>2026-04-12T09:26:45.978Z</time></trkpt><trkpt lat="44.539859" lon="11.219812"><ele>39.0</ele><time>2026-04-12T09:26:46.979Z</time></trkpt><trkpt lat="44.5397144" lon="11.220031"><ele>39.0</ele><time>2026-04-12T09:26:47.978Z</time></trkpt><trkpt lat="44.5395706" lon="11.2202663"><ele>39.0</ele><time>2026-04-12T09:26:48.978Z</time></trkpt><trkpt lat="44.5394257" lon="11.2205116"><ele>40.5</ele><time>2026-04-12T09:26:49.979Z</time></trkpt><trkpt lat="44.5392773" lon="11.2207636"><ele>42.0</ele><time>2026-04-12T09:26:50.98Z</time></trkpt><trkpt lat="44.5391254" lon="11.2210216"><ele>42.0</ele><time>2026-04-12T09:26:51.978Z</time></trkpt><trkpt lat="44.5389698" lon="11.2212869"><ele>42.0</ele><time>2026-04-12T09:26:52.98Z</time></trkpt><trkpt lat="44.5388138" lon="11.2215553"><ele>40.5</ele><time>2026-04-12T09:26:53.979Z</time></trkpt><trkpt lat="44.5386615" lon="11.2218217"><ele>39.0</ele><time>2026-04-12T09:26:54.979Z</time></trkpt><trkpt lat="44.5385149" lon="11.2220924"><ele>39.0</ele><time>2026-04-12T09:26:55.979Z</time></trkpt><trkpt lat="44.5383746" lon="11.2223737"><ele>39.0</ele><time>2026-04-12T09:26:56.979Z</time></trkpt><trkpt lat="44.5382462" lon="11.222666"><ele>39.0</ele><time>2026-04-12T09:26:57.98Z</time></trkpt><trkpt lat="44.5381289" lon="11.222964"><ele>39.0</ele><time>2026-04-12T09:26:58.98Z</time></trkpt><trkpt lat="44.538017" lon="11.2232742"><ele>39.0</ele><time>2026-04-12T09:26:59.979Z</time></trkpt><trkpt lat="44.5379144" lon="11.2235857"><ele>39.0</ele><time>2026-04-12T09:27:00.981Z</time></trkpt><trkpt lat="44.5378165" lon="11.2238993"><ele>40.5</ele><time>2026-04-12T09:27:01.978Z</time></trkpt><trkpt lat="44.5377234" lon="11.2242106"><ele>42.0</ele><time>2026-04-12T09:27:02.979Z</time></trkpt><trkpt lat="44.5376301" lon="11.2245196"><ele>42.0</ele><time>2026-04-12T09:27:03.979Z</time></trkpt><trkpt lat="44.537538" lon="11.2248281"><ele>42.0</ele><time>2026-04-12T09:27:04.978Z</time></trkpt><trkpt lat="44.5374455" lon="11.2251331"><ele>42.0</ele><time>2026-04-12T09:27:05.979Z</time></trkpt><trkpt lat="44.5373548" lon="11.2254361"><ele>42.0</ele><time>2026-04-12T09:27:06.979Z</time></trkpt><trkpt lat="44.537263" lon="11.2257369"><ele>41.0</ele><time>2026-04-12T09:27:07.98Z</time></trkpt><trkpt lat="44.5371712" lon="11.2260367"><ele>40.0</ele><time>2026-04-12T09:27:08.98Z</time></trkpt><trkpt lat="44.5370811" lon="11.2263332"><ele>40.0</ele><time>2026-04-12T09:27:09.981Z</time></trkpt><trkpt lat="44.5369911" lon="11.2266261"><ele>40.0</ele><time>2026-04-12T09:27:10.979Z</time></trkpt><trkpt lat="44.5369033" lon="11.2269208"><ele>40.0</ele><time>2026-04-12T09:27:11.98Z</time></trkpt><trkpt lat="44.5368163" lon="11.2272165"><ele>40.0</ele><time>2026-04-12T09:27:12.98Z</time></trkpt><trkpt lat="44.5367293" lon="11.2275146"><ele>41.0</ele><time>2026-04-12T09:27:13.981Z</time></trkpt><trkpt lat="44.5366392" lon="11.2278124"><ele>42.0</ele><time>2026-04-12T09:27:14.98Z</time></trkpt><trkpt lat="44.5365492" lon="11.2281086"><ele>42.0</ele><time>2026-04-12T09:27:15.98Z</time></trkpt><trkpt lat="44.53646" lon="11.2284064"><ele>42.0</ele><time>2026-04-12T09:27:16.979Z</time></trkpt><trkpt lat="44.5363695" lon="11.2287017"><ele>41.5</ele><time>2026-04-12T09:27:17.979Z</time></trkpt><trkpt lat="44.5362784" lon="11.228993"><ele>41.0</ele><time>2026-04-12T09:27:18.98Z</time></trkpt><trkpt lat="44.5361891" lon="11.2292827"><ele>40.33333333333333</ele><time>2026-04-12T09:27:19.979Z</time></trkpt><trkpt lat="44.5361008" lon="11.2295704"><ele>39.666666666666664</ele><time>2026-04-12T09:27:20.98Z</time></trkpt><trkpt lat="44.5360152" lon="11.2298613"><ele>39.0</ele><time>2026-04-12T09:27:21.981Z</time></trkpt><trkpt lat="44.5359292" lon="11.230146"><ele>39.0</ele><time>2026-04-12T09:27:22.98Z</time></trkpt><trkpt lat="44.5358439" lon="11.2304347"><ele>39.0</ele><time>2026-04-12T09:27:23.98Z</time></trkpt><trkpt lat="44.5357575" lon="11.2307193"><ele>39.0</ele><time>2026-04-12T09:27:24.981Z</time></trkpt><trkpt lat="44.5356705" lon="11.2310008"><ele>39.0</ele><time>2026-04-12T09:27:25.981Z</time></trkpt><trkpt lat="44.5355843" lon="11.2312823"><ele>39.0</ele><time>2026-04-12T09:27:26.981Z</time></trkpt><trkpt lat="44.5354985" lon="11.2315634"><ele>39.0</ele><time>2026-04-12T09:27:27.979Z</time></trkpt><trkpt lat="44.5354112" lon="11.2318449"><ele>40.0</ele><time>2026-04-12T09:27:28.979Z</time></trkpt><trkpt lat="44.5353236" lon="11.2321258"><ele>41.0</ele><time>2026-04-12T09:27:29.981Z</time></trkpt><trkpt lat="44.5352383" lon="11.2324075"><ele>42.0</ele><time>2026-04-12T09:27:30.98Z</time></trkpt><trkpt lat="44.5351545" lon="11.2326911"><ele>42.333333333333336</ele><time>2026-04-12T09:27:31.981Z</time></trkpt><trkpt lat="44.5350706" lon="11.2329728"><ele>42.66666666666667</ele><time>2026-04-12T09:27:32.98Z</time></trkpt><trkpt lat="44.534987" lon="11.2332525"><ele>43.0</ele><time>2026-04-12T09:27:33.979Z</time></trkpt><trkpt lat="44.5349028" lon="11.2335319"><ele>43.0</ele><time>2026-04-12T09:27:34.978Z</time></trkpt><trkpt lat="44.5348161" lon="11.2338104"><ele>43.0</ele><time>2026-04-12T09:27:35.98Z</time></trkpt><trkpt lat="44.5347275" lon="11.2340833"><ele>43.0</ele><time>2026-04-12T09:27:36.979Z</time></trkpt><trkpt lat="44.5346333" lon="11.2343522"><ele>42.0</ele><time>2026-04-12T09:27:37.979Z</time></trkpt><trkpt lat="44.5345339" lon="11.2346225"><ele>41.0</ele><time>2026-04-12T09:27:38.979Z</time></trkpt><trkpt lat="44.5344313" lon="11.2348884"><ele>40.0</ele><time>2026-04-12T09:27:39.978Z</time></trkpt><trkpt lat="44.5343244" lon="11.2351517"><ele>40.0</ele><time>2026-04-12T09:27:40.979Z</time></trkpt><trkpt lat="44.534213" lon="11.2354141"><ele>40.0</ele><time>2026-04-12T09:27:41.979Z</time></trkpt><trkpt lat="44.5340965" lon="11.2356726"><ele>40.0</ele><time>2026-04-12T09:27:42.978Z</time></trkpt><trkpt lat="44.5339719" lon="11.2359223"><ele>39.66666666666667</ele><time>2026-04-12T09:27:43.979Z</time></trkpt><trkpt lat="44.5338363" lon="11.2361626"><ele>39.333333333333336</ele><time>2026-04-12T09:27:44.98Z</time></trkpt><trkpt lat="44.5337004" lon="11.236403"><ele>39.0</ele><time>2026-04-12T09:27:45.981Z</time></trkpt><trkpt lat="44.5335583" lon="11.2366322"><ele>39.666666666666664</ele><time>2026-04-12T09:27:46.979Z</time></trkpt><trkpt lat="44.5334092" lon="11.2368514"><ele>40.33333333333333</ele><time>2026-04-12T09:27:47.98Z</time></trkpt><trkpt lat="44.5332572" lon="11.2370698"><ele>41.0</ele><time>2026-04-12T09:27:48.981Z</time></trkpt><trkpt lat="44.5331031" lon="11.2372792"><ele>41.33333333333333</ele><time>2026-04-12T09:27:49.979Z</time></trkpt><trkpt lat="44.5329413" lon="11.2374843"><ele>41.666666666666664</ele><time>2026-04-12T09:27:50.98Z</time></trkpt><trkpt lat="44.5327761" lon="11.2376787"><ele>42.0</ele><time>2026-04-12T09:27:51.983Z</time></trkpt><trkpt lat="44.5326069" lon="11.2378648"><ele>42.0</ele><time>2026-04-12T09:27:52.98Z</time></trkpt><trkpt lat="44.5324348" lon="11.2380441"><ele>42.0</ele><time>2026-04-12T09:27:53.979Z</time></trkpt><trkpt lat="44.5322559" lon="11.2382166"><ele>42.0</ele><time>2026-04-12T09:27:54.98Z</time></trkpt><trkpt lat="44.5320763" lon="11.2383837"><ele>42.0</ele><time>2026-04-12T09:27:55.979Z</time></trkpt><trkpt lat="44.5318952" lon="11.2385427"><ele>42.0</ele><time>2026-04-12T09:27:56.979Z</time></trkpt><trkpt lat="44.5317122" lon="11.2386937"><ele>42.0</ele><time>2026-04-12T09:27:57.98Z</time></trkpt><trkpt lat="44.5315278" lon="11.2388405"><ele>41.666666666666664</ele><time>2026-04-12T09:27:58.979Z</time></trkpt><trkpt lat="44.5313419" lon="11.2389796"><ele>41.33333333333333</ele><time>2026-04-12T09:27:59.981Z</time></trkpt><trkpt lat="44.5311555" lon="11.2391155"><ele>41.0</ele><time>2026-04-12T09:28:00.982Z</time></trkpt><trkpt lat="44.5309689" lon="11.23925"><ele>42.0</ele><time>2026-04-12T09:28:01.98Z</time></trkpt><trkpt lat="44.5307811" lon="11.2393809"><ele>43.0</ele><time>2026-04-12T09:28:02.981Z</time></trkpt><trkpt lat="44.5305958" lon="11.2395109"><ele>44.0</ele><time>2026-04-12T09:28:03.978Z</time></trkpt><trkpt lat="44.5304169" lon="11.2396479"><ele>44.0</ele><time>2026-04-12T09:28:04.979Z</time></trkpt><trkpt lat="44.5302472" lon="11.2397969"><ele>44.0</ele><time>2026-04-12T09:28:05.98Z</time></trkpt><trkpt lat="44.5300878" lon="11.2399644"><ele>44.0</ele><time>2026-04-12T09:28:06.979Z</time></trkpt><trkpt lat="44.5299369" lon="11.2401431"><ele>44.0</ele><time>2026-04-12T09:28:07.98Z</time></trkpt><trkpt lat="44.5297915" lon="11.2403317"><ele>44.0</ele><time>2026-04-12T09:28:08.98Z</time></trkpt><trkpt lat="44.52965" lon="11.2405263"><ele>44.0</ele><time>2026-04-12T09:28:09.981Z</time></trkpt><trkpt lat="44.5295155" lon="11.2407267"><ele>44.0</ele><time>2026-04-12T09:28:10.981Z</time></trkpt><trkpt lat="44.5293866" lon="11.2409346"><ele>44.0</ele><time>2026-04-12T09:28:11.98Z</time></trkpt><trkpt lat="44.5292648" lon="11.2411499"><ele>44.0</ele><time>2026-04-12T09:28:12.98Z</time></trkpt><trkpt lat="44.52915" lon="11.2413689"><ele>44.0</ele><time>2026-04-12T09:28:13.98Z</time></trkpt><trkpt lat="44.5290456" lon="11.2415925"><ele>44.0</ele><time>2026-04-12T09:28:14.979Z</time></trkpt><trkpt lat="44.5289478" lon="11.2418173"><ele>44.0</ele><time>2026-04-12T09:28:15.978Z</time></trkpt><trkpt lat="44.5288556" lon="11.2420411"><ele>44.0</ele><time>2026-04-12T09:28:16.98Z</time></trkpt><trkpt lat="44.5287757" lon="11.2422512"><ele>44.0</ele><time>2026-04-12T09:28:17.979Z</time></trkpt><trkpt lat="44.528702" lon="11.2424515"><ele>44.0</ele><time>2026-04-12T09:28:18.98Z</time></trkpt><trkpt lat="44.5286278" lon="11.2426416"><ele>44.0</ele><time>2026-04-12T09:28:19.98Z</time></trkpt><trkpt lat="44.5285573" lon="11.242819"><ele>44.0</ele><time>2026-04-12T09:28:20.98Z</time></trkpt><trkpt lat="44.5284901" lon="11.2429912"><ele>44.0</ele><time>2026-04-12T09:28:21.979Z</time></trkpt><trkpt lat="44.5284221" lon="11.2431615"><ele>44.0</ele><time>2026-04-12T09:28:22.981Z</time></trkpt><trkpt lat="44.5283543" lon="11.2433233"><ele>44.0</ele><time>2026-04-12T09:28:23.979Z</time></trkpt><trkpt lat="44.5282874" lon="11.2434747"><ele>44.0</ele><time>2026-04-12T09:28:24.98Z</time></trkpt><trkpt lat="44.5282234" lon="11.2436102"><ele>44.0</ele><time>2026-04-12T09:28:25.981Z</time></trkpt><trkpt lat="44.528166" lon="11.2437126"><ele>44.0</ele><time>2026-04-12T09:28:26.981Z</time></trkpt><trkpt lat="44.5281239" lon="11.2437805"><ele>44.0</ele><time>2026-04-12T09:28:27.981Z</time></trkpt><trkpt lat="44.5280482" lon="11.2438573"><ele>44.0</ele><time>2026-04-12T09:28:29.979Z</time></trkpt><trkpt lat="44.527952" lon="11.2439038"><ele>44.0</ele><time>2026-04-12T09:28:31.977Z</time></trkpt><trkpt lat="44.5278889" lon="11.243935"><ele>44.0</ele><time>2026-04-12T09:28:32.979Z</time></trkpt><trkpt lat="44.5278261" lon="11.2439959"><ele>44.0</ele><time>2026-04-12T09:28:33.978Z</time></trkpt><trkpt lat="44.5277759" lon="11.2440907"><ele>44.0</ele><time>2026-04-12T09:28:34.977Z</time></trkpt><trkpt lat="44.5277509" lon="11.2442095"><ele>44.0</ele><time>2026-04-12T09:28:35.979Z</time></trkpt><trkpt lat="44.5277494" lon="11.2443407"><ele>44.25</ele><time>2026-04-12T09:28:36.978Z</time></trkpt><trkpt lat="44.5277585" lon="11.2444927"><ele>44.5</ele><time>2026-04-12T09:28:37.978Z</time></trkpt><trkpt lat="44.5277556" lon="11.2446537"><ele>44.75</ele><time>2026-04-12T09:28:38.978Z</time></trkpt><trkpt lat="44.5277255" lon="11.244812"><ele>45.0</ele><time>2026-04-12T09:28:39.978Z</time></trkpt><trkpt lat="44.5276815" lon="11.2449665"><ele>45.0</ele><time>2026-04-12T09:28:40.98Z</time></trkpt><trkpt lat="44.527632" lon="11.2451207"><ele>45.0</ele><time>2026-04-12T09:28:41.98Z</time></trkpt><trkpt lat="44.5275784" lon="11.2452812"><ele>45.0</ele><time>2026-04-12T09:28:42.978Z</time></trkpt><trkpt lat="44.5275203" lon="11.2454529"><ele>45.0</ele><time>2026-04-12T09:28:43.978Z</time></trkpt><trkpt lat="44.5274579" lon="11.2456352"><ele>45.0</ele><time>2026-04-12T09:28:44.98Z</time></trkpt><trkpt lat="44.5273909" lon="11.2458266"><ele>45.0</ele><time>2026-04-12T09:28:45.979Z</time></trkpt><trkpt lat="44.527319" lon="11.2460178"><ele>45.0</ele><time>2026-04-12T09:28:46.978Z</time></trkpt><trkpt lat="44.5272472" lon="11.2461983"><ele>45.0</ele><time>2026-04-12T09:28:47.979Z</time></trkpt><trkpt lat="44.5271798" lon="11.2463669"><ele>45.0</ele><time>2026-04-12T09:28:48.979Z</time></trkpt><trkpt lat="44.5271136" lon="11.2465378"><ele>45.0</ele><time>2026-04-12T09:28:49.98Z</time></trkpt><trkpt lat="44.5270488" lon="11.2467228"><ele>45.0</ele><time>2026-04-12T09:28:50.98Z</time></trkpt><trkpt lat="44.5269888" lon="11.2469158"><ele>45.25</ele><time>2026-04-12T09:28:51.98Z</time></trkpt><trkpt lat="44.5269282" lon="11.2470976"><ele>45.5</ele><time>2026-04-12T09:28:52.979Z</time></trkpt><trkpt lat="44.5268703" lon="11.2472844"><ele>45.75</ele><time>2026-04-12T09:28:53.979Z</time></trkpt><trkpt lat="44.5268091" lon="11.2474753"><ele>46.0</ele><time>2026-04-12T09:28:54.98Z</time></trkpt><trkpt lat="44.5267485" lon="11.2476672"><ele>46.0</ele><time>2026-04-12T09:28:55.979Z</time></trkpt><trkpt lat="44.5266858" lon="11.2478613"><ele>46.0</ele><time>2026-04-12T09:28:56.98Z</time></trkpt><trkpt lat="44.5266204" lon="11.248057"><ele>46.0</ele><time>2026-04-12T09:28:57.98Z</time></trkpt><trkpt lat="44.5265522" lon="11.2482555"><ele>46.0</ele><time>2026-04-12T09:28:58.978Z</time></trkpt><trkpt lat="44.5264841" lon="11.2484582"><ele>46.0</ele><time>2026-04-12T09:28:59.98Z</time></trkpt><trkpt lat="44.5264161" lon="11.248666"><ele>46.0</ele><time>2026-04-12T09:29:00.979Z</time></trkpt><trkpt lat="44.526348" lon="11.2488732"><ele>46.333333333333336</ele><time>2026-04-12T09:29:01.98Z</time></trkpt><trkpt lat="44.5262808" lon="11.2490778"><ele>46.666666666666664</ele><time>2026-04-12T09:29:02.98Z</time></trkpt><trkpt lat="44.5262114" lon="11.2492787"><ele>47.0</ele><time>2026-04-12T09:29:03.981Z</time></trkpt><trkpt lat="44.5261427" lon="11.249469"><ele>47.0</ele><time>2026-04-12T09:29:04.978Z</time></trkpt><trkpt lat="44.5260781" lon="11.2496469"><ele>47.0</ele><time>2026-04-12T09:29:05.978Z</time></trkpt><trkpt lat="44.5260162" lon="11.2498179"><ele>47.0</ele><time>2026-04-12T09:29:06.979Z</time></trkpt><trkpt lat="44.5259585" lon="11.2499858"><ele>47.0</ele><time>2026-04-12T09:29:07.98Z</time></trkpt><trkpt lat="44.5259043" lon="11.2501452"><ele>46.8</ele><time>2026-04-12T09:29:08.979Z</time></trkpt><trkpt lat="44.5258567" lon="11.2502966"><ele>46.6</ele><time>2026-04-12T09:29:09.978Z</time></trkpt><trkpt lat="44.5257994" lon="11.2504275"><ele>46.4</ele><time>2026-04-12T09:29:10.979Z</time></trkpt><trkpt lat="44.5257209" lon="11.2505243"><ele>46.199999999999996</ele><time>2026-04-12T09:29:11.98Z</time></trkpt><trkpt lat="44.5256283" lon="11.2505817"><ele>46.0</ele><time>2026-04-12T09:29:12.979Z</time></trkpt><trkpt lat="44.525528" lon="11.2505938"><ele>46.0</ele><time>2026-04-12T09:29:13.977Z</time></trkpt><trkpt lat="44.5254183" lon="11.250548"><ele>46.0</ele><time>2026-04-12T09:29:14.978Z</time></trkpt><trkpt lat="44.5253002" lon="11.2504667"><ele>46.0</ele><time>2026-04-12T09:29:15.978Z</time></trkpt><trkpt lat="44.5251797" lon="11.2503769"><ele>46.0</ele><time>2026-04-12T09:29:16.978Z</time></trkpt><trkpt lat="44.5250526" lon="11.2502848"><ele>45.5</ele><time>2026-04-12T09:29:17.977Z</time></trkpt><trkpt lat="44.5249234" lon="11.2501898"><ele>45.0</ele><time>2026-04-12T09:29:18.977Z</time></trkpt><trkpt lat="44.5248065" lon="11.2500804"><ele>44.5</ele><time>2026-04-12T09:29:19.979Z</time></trkpt><trkpt lat="44.5247105" lon="11.2499476"><ele>44.0</ele><time>2026-04-12T09:29:20.979Z</time></trkpt><trkpt lat="44.5246398" lon="11.249789"><ele>44.0</ele><time>2026-04-12T09:29:21.977Z</time></trkpt><trkpt lat="44.5245963" lon="11.2496101"><ele>44.0</ele><time>2026-04-12T09:29:22.979Z</time></trkpt><trkpt lat="44.5245811" lon="11.2494173"><ele>44.0</ele><time>2026-04-12T09:29:23.977Z</time></trkpt><trkpt lat="44.5245983" lon="11.2492268"><ele>44.0</ele><time>2026-04-12T09:29:24.978Z</time></trkpt><trkpt lat="44.5246447" lon="11.2490417"><ele>44.0</ele><time>2026-04-12T09:29:25.979Z</time></trkpt><trkpt lat="44.5247164" lon="11.248873"><ele>44.0</ele><time>2026-04-12T09:29:26.979Z</time></trkpt><trkpt lat="44.5248201" lon="11.2487385"><ele>44.0</ele><time>2026-04-12T09:29:27.978Z</time></trkpt><trkpt lat="44.5249489" lon="11.248643"><ele>44.0</ele><time>2026-04-12T09:29:28.979Z</time></trkpt><trkpt lat="44.5251014" lon="11.2485923"><ele>44.0</ele><time>2026-04-12T09:29:29.98Z</time></trkpt><trkpt lat="44.5252537" lon="11.2485958"><ele>44.0</ele><time>2026-04-12T09:29:30.979Z</time></trkpt><trkpt lat="44.5254037" lon="11.2486496"><ele>44.0</ele><time>2026-04-12T09:29:31.98Z</time></trkpt><trkpt lat="44.5255438" lon="11.2487513"><ele>45.0</ele><time>2026-04-12T09:29:32.981Z</time></trkpt><trkpt lat="44.5256704" lon="11.2488992"><ele>46.0</ele><time>2026-04-12T09:29:33.979Z</time></trkpt><trkpt lat="44.5257789" lon="11.2490808"><ele>47.0</ele><time>2026-04-12T09:29:34.977Z</time></trkpt><trkpt lat="44.5258689" lon="11.2492883"><ele>47.0</ele><time>2026-04-12T09:29:35.977Z</time></trkpt><trkpt lat="44.5259492" lon="11.2495108"><ele>47.0</ele><time>2026-04-12T09:29:36.979Z</time></trkpt><trkpt lat="44.5260302" lon="11.2497305"><ele>47.0</ele><time>2026-04-12T09:29:37.978Z</time></trkpt><trkpt lat="44.5261145" lon="11.2499618"><ele>46.666666666666664</ele><time>2026-04-12T09:29:38.979Z</time></trkpt><trkpt lat="44.5261944" lon="11.2502044"><ele>46.333333333333336</ele><time>2026-04-12T09:29:39.979Z</time></trkpt><trkpt lat="44.5262739" lon="11.2504388"><ele>46.0</ele><time>2026-04-12T09:29:40.978Z</time></trkpt><trkpt lat="44.5263445" lon="11.2506763"><ele>46.0</ele><time>2026-04-12T09:29:41.978Z</time></trkpt><trkpt lat="44.5264295" lon="11.2509156"><ele>46.0</ele><time>2026-04-12T09:29:42.978Z</time></trkpt><trkpt lat="44.5265196" lon="11.2511592"><ele>46.0</ele><time>2026-04-12T09:29:43.979Z</time></trkpt><trkpt lat="44.5266096" lon="11.2514123"><ele>45.0</ele><time>2026-04-12T09:29:44.978Z</time></trkpt><trkpt lat="44.5267031" lon="11.2516724"><ele>44.0</ele><time>2026-04-12T09:29:45.978Z</time></trkpt><trkpt lat="44.5267959" lon="11.2519366"><ele>43.0</ele><time>2026-04-12T09:29:46.977Z</time></trkpt><trkpt lat="44.5268894" lon="11.2522036"><ele>43.0</ele><time>2026-04-12T09:29:47.977Z</time></trkpt><trkpt lat="44.5269856" lon="11.2524757"><ele>43.0</ele><time>2026-04-12T09:29:48.977Z</time></trkpt><trkpt lat="44.5270829" lon="11.2527549"><ele>43.0</ele><time>2026-04-12T09:29:49.978Z</time></trkpt><trkpt lat="44.5271827" lon="11.2530338"><ele>43.66666666666667</ele><time>2026-04-12T09:29:50.978Z</time></trkpt><trkpt lat="44.5272846" lon="11.253311"><ele>44.333333333333336</ele><time>2026-04-12T09:29:51.978Z</time></trkpt><trkpt lat="44.5273872" lon="11.2535935"><ele>45.0</ele><time>2026-04-12T09:29:52.978Z</time></trkpt><trkpt lat="44.527489" lon="11.253879"><ele>45.0</ele><time>2026-04-12T09:29:53.978Z</time></trkpt><trkpt lat="44.5275889" lon="11.2541666"><ele>45.0</ele><time>2026-04-12T09:29:54.977Z</time></trkpt><trkpt lat="44.5276843" lon="11.2544497"><ele>45.0</ele><time>2026-04-12T09:29:55.978Z</time></trkpt><trkpt lat="44.527772" lon="11.2547318"><ele>45.0</ele><time>2026-04-12T09:29:56.978Z</time></trkpt><trkpt lat="44.5278481" lon="11.2550193"><ele>45.0</ele><time>2026-04-12T09:29:57.979Z</time></trkpt><trkpt lat="44.5279138" lon="11.2553117"><ele>45.0</ele><time>2026-04-12T09:29:58.978Z</time></trkpt><trkpt lat="44.5279686" lon="11.2556116"><ele>45.0</ele><time>2026-04-12T09:29:59.979Z</time></trkpt><trkpt lat="44.5280141" lon="11.2559193"><ele>45.0</ele><time>2026-04-12T09:30:00.979Z</time></trkpt><trkpt lat="44.5280506" lon="11.2562313"><ele>43.5</ele><time>2026-04-12T09:30:01.98Z</time></trkpt><trkpt lat="44.5280773" lon="11.2565475"><ele>42.0</ele><time>2026-04-12T09:30:02.979Z</time></trkpt><trkpt lat="44.528092" lon="11.2568642"><ele>42.0</ele><time>2026-04-12T09:30:03.98Z</time></trkpt><trkpt lat="44.5280955" lon="11.257183"><ele>42.0</ele><time>2026-04-12T09:30:04.979Z</time></trkpt><trkpt lat="44.5280898" lon="11.2575011"><ele>42.0</ele><time>2026-04-12T09:30:05.98Z</time></trkpt><trkpt lat="44.5280764" lon="11.2578179"><ele>42.0</ele><time>2026-04-12T09:30:06.98Z</time></trkpt><trkpt lat="44.5280546" lon="11.2581315"><ele>42.0</ele><time>2026-04-12T09:30:07.979Z</time></trkpt><trkpt lat="44.5280213" lon="11.2584431"><ele>42.0</ele><time>2026-04-12T09:30:08.979Z</time></trkpt><trkpt lat="44.5279815" lon="11.2587555"><ele>40.5</ele><time>2026-04-12T09:30:09.98Z</time></trkpt><trkpt lat="44.5279329" lon="11.2590641"><ele>39.0</ele><time>2026-04-12T09:30:10.979Z</time></trkpt><trkpt lat="44.5278764" lon="11.2593702"><ele>39.0</ele><time>2026-04-12T09:30:11.979Z</time></trkpt><trkpt lat="44.5278098" lon="11.2596725"><ele>39.0</ele><time>2026-04-12T09:30:12.978Z</time></trkpt><trkpt lat="44.5277316" lon="11.2599767"><ele>39.0</ele><time>2026-04-12T09:30:13.977Z</time></trkpt><trkpt lat="44.527644" lon="11.2602783"><ele>39.0</ele><time>2026-04-12T09:30:14.977Z</time></trkpt><trkpt lat="44.5275455" lon="11.26058"><ele>40.0</ele><time>2026-04-12T09:30:15.977Z</time></trkpt><trkpt lat="44.5274393" lon="11.2608815"><ele>41.0</ele><time>2026-04-12T09:30:16.977Z</time></trkpt><trkpt lat="44.52733" lon="11.2611784"><ele>42.5</ele><time>2026-04-12T09:30:17.977Z</time></trkpt><trkpt lat="44.5272207" lon="11.2614771"><ele>44.0</ele><time>2026-04-12T09:30:18.977Z</time></trkpt><trkpt lat="44.527112" lon="11.2617818"><ele>43.5</ele><time>2026-04-12T09:30:19.979Z</time></trkpt><trkpt lat="44.5269997" lon="11.2620873"><ele>43.0</ele><time>2026-04-12T09:30:20.978Z</time></trkpt><trkpt lat="44.5268867" lon="11.2623963"><ele>43.0</ele><time>2026-04-12T09:30:21.977Z</time></trkpt><trkpt lat="44.5267738" lon="11.262711"><ele>43.0</ele><time>2026-04-12T09:30:22.977Z</time></trkpt><trkpt lat="44.5266601" lon="11.2630263"><ele>43.0</ele><time>2026-04-12T09:30:23.977Z</time></trkpt><trkpt lat="44.5265431" lon="11.2633387"><ele>43.0</ele><time>2026-04-12T09:30:24.978Z</time></trkpt><trkpt lat="44.5264239" lon="11.2636518"><ele>42.5</ele><time>2026-04-12T09:30:25.978Z</time></trkpt><trkpt lat="44.5263039" lon="11.2639633"><ele>42.0</ele><time>2026-04-12T09:30:26.978Z</time></trkpt><trkpt lat="44.5261898" lon="11.2642696"><ele>42.0</ele><time>2026-04-12T09:30:27.977Z</time></trkpt><trkpt lat="44.5260811" lon="11.2645798"><ele>42.0</ele><time>2026-04-12T09:30:28.978Z</time></trkpt><trkpt lat="44.5259747" lon="11.2648911"><ele>42.5</ele><time>2026-04-12T09:30:29.978Z</time></trkpt><trkpt lat="44.525867" lon="11.2651945"><ele>43.0</ele><time>2026-04-12T09:30:30.978Z</time></trkpt><trkpt lat="44.52576" lon="11.2654989"><ele>42.5</ele><time>2026-04-12T09:30:31.978Z</time></trkpt><trkpt lat="44.5256556" lon="11.2658003"><ele>42.0</ele><time>2026-04-12T09:30:32.98Z</time></trkpt><trkpt lat="44.5255511" lon="11.2661012"><ele>42.0</ele><time>2026-04-12T09:30:33.978Z</time></trkpt><trkpt lat="44.5254466" lon="11.2664008"><ele>42.0</ele><time>2026-04-12T09:30:34.979Z</time></trkpt><trkpt lat="44.5253413" lon="11.2666962"><ele>41.0</ele><time>2026-04-12T09:30:35.977Z</time></trkpt><trkpt lat="44.5252353" lon="11.2669929"><ele>40.0</ele><time>2026-04-12T09:30:36.979Z</time></trkpt><trkpt lat="44.5251344" lon="11.2672799"><ele>40.0</ele><time>2026-04-12T09:30:37.978Z</time></trkpt><trkpt lat="44.5250393" lon="11.267549"><ele>40.0</ele><time>2026-04-12T09:30:38.979Z</time></trkpt><trkpt lat="44.5249492" lon="11.2678033"><ele>40.0</ele><time>2026-04-12T09:30:39.978Z</time></trkpt><trkpt lat="44.5248603" lon="11.2680509"><ele>41.0</ele><time>2026-04-12T09:30:40.978Z</time></trkpt><trkpt lat="44.524773" lon="11.268299"><ele>42.0</ele><time>2026-04-12T09:30:41.978Z</time></trkpt><trkpt lat="44.5246846" lon="11.2685523"><ele>43.0</ele><time>2026-04-12T09:30:42.979Z</time></trkpt><trkpt lat="44.5245917" lon="11.2688133"><ele>43.0</ele><time>2026-04-12T09:30:43.979Z</time></trkpt><trkpt lat="44.5244952" lon="11.2690856"><ele>43.0</ele><time>2026-04-12T09:30:44.978Z</time></trkpt><trkpt lat="44.5243961" lon="11.2693653"><ele>43.0</ele><time>2026-04-12T09:30:45.978Z</time></trkpt><trkpt lat="44.5242927" lon="11.2696494"><ele>43.0</ele><time>2026-04-12T09:30:46.978Z</time></trkpt><trkpt lat="44.5241889" lon="11.2699385"><ele>43.0</ele><time>2026-04-12T09:30:47.98Z</time></trkpt><trkpt lat="44.5240828" lon="11.2702312"><ele>43.0</ele><time>2026-04-12T09:30:48.979Z</time></trkpt><trkpt lat="44.5239758" lon="11.2705259"><ele>43.0</ele><time>2026-04-12T09:30:49.98Z</time></trkpt><trkpt lat="44.5238676" lon="11.27082"><ele>42.5</ele><time>2026-04-12T09:30:50.977Z</time></trkpt><trkpt lat="44.5237613" lon="11.2711217"><ele>42.0</ele><time>2026-04-12T09:30:51.978Z</time></trkpt><trkpt lat="44.5236516" lon="11.271425"><ele>41.5</ele><time>2026-04-12T09:30:52.978Z</time></trkpt><trkpt lat="44.5235406" lon="11.2717288"><ele>41.0</ele><time>2026-04-12T09:30:53.979Z</time></trkpt><trkpt lat="44.523429" lon="11.2720337"><ele>40.5</ele><time>2026-04-12T09:30:54.978Z</time></trkpt><trkpt lat="44.5233201" lon="11.2723398"><ele>40.0</ele><time>2026-04-12T09:30:55.977Z</time></trkpt><trkpt lat="44.5232103" lon="11.2726485"><ele>40.0</ele><time>2026-04-12T09:30:56.978Z</time></trkpt><trkpt lat="44.5231008" lon="11.272956"><ele>40.0</ele><time>2026-04-12T09:30:57.977Z</time></trkpt><trkpt lat="44.5229911" lon="11.273264"><ele>41.0</ele><time>2026-04-12T09:30:58.977Z</time></trkpt><trkpt lat="44.5228816" lon="11.2735697"><ele>42.0</ele><time>2026-04-12T09:30:59.978Z</time></trkpt><trkpt lat="44.522774" lon="11.2738745"><ele>42.0</ele><time>2026-04-12T09:31:00.978Z</time></trkpt><trkpt lat="44.5226673" lon="11.274177"><ele>42.0</ele><time>2026-04-12T09:31:01.977Z</time></trkpt><trkpt lat="44.5225602" lon="11.2744795"><ele>41.5</ele><time>2026-04-12T09:31:02.978Z</time></trkpt><trkpt lat="44.5224532" lon="11.2747806"><ele>41.0</ele><time>2026-04-12T09:31:03.978Z</time></trkpt><trkpt lat="44.5223481" lon="11.2750808"><ele>41.0</ele><time>2026-04-12T09:31:04.979Z</time></trkpt><trkpt lat="44.5222445" lon="11.2753786"><ele>41.0</ele><time>2026-04-12T09:31:05.978Z</time></trkpt><trkpt lat="44.5221396" lon="11.2756766"><ele>42.0</ele><time>2026-04-12T09:31:06.979Z</time></trkpt><trkpt lat="44.5220341" lon="11.2759755"><ele>43.0</ele><time>2026-04-12T09:31:07.978Z</time></trkpt><trkpt lat="44.5219289" lon="11.2762728"><ele>43.0</ele><time>2026-04-12T09:31:08.978Z</time></trkpt><trkpt lat="44.5218234" lon="11.276569"><ele>43.0</ele><time>2026-04-12T09:31:09.977Z</time></trkpt><trkpt lat="44.5217173" lon="11.2768655"><ele>43.0</ele><time>2026-04-12T09:31:10.98Z</time></trkpt><trkpt lat="44.5216127" lon="11.277162"><ele>43.0</ele><time>2026-04-12T09:31:11.978Z</time></trkpt><trkpt lat="44.5215092" lon="11.2774602"><ele>42.5</ele><time>2026-04-12T09:31:12.98Z</time></trkpt><trkpt lat="44.5214087" lon="11.2777577"><ele>42.0</ele><time>2026-04-12T09:31:13.978Z</time></trkpt><trkpt lat="44.5213082" lon="11.2780525"><ele>43.0</ele><time>2026-04-12T09:31:14.979Z</time></trkpt><trkpt lat="44.5212031" lon="11.2783424"><ele>44.0</ele><time>2026-04-12T09:31:15.978Z</time></trkpt><trkpt lat="44.52109" lon="11.27863"><ele>44.0</ele><time>2026-04-12T09:31:16.978Z</time></trkpt><trkpt lat="44.5209659" lon="11.2789094"><ele>44.0</ele><time>2026-04-12T09:31:17.979Z</time></trkpt><trkpt lat="44.5208305" lon="11.2791793"><ele>43.5</ele><time>2026-04-12T09:31:18.978Z</time></trkpt><trkpt lat="44.5206833" lon="11.279439"><ele>43.0</ele><time>2026-04-12T09:31:19.977Z</time></trkpt><trkpt lat="44.520529" lon="11.2796827"><ele>42.5</ele><time>2026-04-12T09:31:20.979Z</time></trkpt><trkpt lat="44.5203643" lon="11.2799123"><ele>42.0</ele><time>2026-04-12T09:31:21.978Z</time></trkpt><trkpt lat="44.5201911" lon="11.2801322"><ele>42.0</ele><time>2026-04-12T09:31:22.977Z</time></trkpt><trkpt lat="44.520014" lon="11.280338"><ele>42.0</ele><time>2026-04-12T09:31:23.978Z</time></trkpt><trkpt lat="44.5198301" lon="11.2805301"><ele>42.5</ele><time>2026-04-12T09:31:24.977Z</time></trkpt><trkpt lat="44.5196395" lon="11.2807094"><ele>43.0</ele><time>2026-04-12T09:31:25.978Z</time></trkpt><trkpt lat="44.5194468" lon="11.2808835"><ele>43.0</ele><time>2026-04-12T09:31:26.978Z</time></trkpt><trkpt lat="44.5192526" lon="11.2810541"><ele>43.0</ele><time>2026-04-12T09:31:27.978Z</time></trkpt><trkpt lat="44.5190594" lon="11.2812215"><ele>43.0</ele><time>2026-04-12T09:31:28.979Z</time></trkpt><trkpt lat="44.518869" lon="11.2813862"><ele>43.0</ele><time>2026-04-12T09:31:29.978Z</time></trkpt><trkpt lat="44.5186876" lon="11.2815535"><ele>43.0</ele><time>2026-04-12T09:31:30.978Z</time></trkpt><trkpt lat="44.5185219" lon="11.2817294"><ele>44.0</ele><time>2026-04-12T09:31:31.977Z</time></trkpt><trkpt lat="44.5183722" lon="11.2819085"><ele>45.0</ele><time>2026-04-12T09:31:32.979Z</time></trkpt><trkpt lat="44.5182424" lon="11.2820931"><ele>46.0</ele><time>2026-04-12T09:31:33.977Z</time></trkpt><trkpt lat="44.5181281" lon="11.2822877"><ele>46.333333333333336</ele><time>2026-04-12T09:31:34.979Z</time></trkpt><trkpt lat="44.5180307" lon="11.2824688"><ele>46.666666666666664</ele><time>2026-04-12T09:31:35.979Z</time></trkpt><trkpt lat="44.5179371" lon="11.2826437"><ele>47.0</ele><time>2026-04-12T09:31:36.98Z</time></trkpt><trkpt lat="44.5178631" lon="11.282824"><ele>46.25</ele><time>2026-04-12T09:31:37.978Z</time></trkpt><trkpt lat="44.5178172" lon="11.282985"><ele>45.5</ele><time>2026-04-12T09:31:38.98Z</time></trkpt><trkpt lat="44.517779" lon="11.283136"><ele>44.75</ele><time>2026-04-12T09:31:39.978Z</time></trkpt><trkpt lat="44.517758" lon="11.2832904"><ele>44.0</ele><time>2026-04-12T09:31:40.98Z</time></trkpt><trkpt lat="44.5177553" lon="11.2834447"><ele>44.2</ele><time>2026-04-12T09:31:41.979Z</time></trkpt><trkpt lat="44.5177756" lon="11.2836041"><ele>44.400000000000006</ele><time>2026-04-12T09:31:42.979Z</time></trkpt><trkpt lat="44.5178049" lon="11.2837498"><ele>44.6</ele><time>2026-04-12T09:31:43.979Z</time></trkpt><trkpt lat="44.5178512" lon="11.2838881"><ele>44.8</ele><time>2026-04-12T09:31:44.979Z</time></trkpt><trkpt lat="44.5179043" lon="11.284013"><ele>45.0</ele><time>2026-04-12T09:31:45.978Z</time></trkpt><trkpt lat="44.517973" lon="11.2841281"><ele>45.0</ele><time>2026-04-12T09:31:46.977Z</time></trkpt><trkpt lat="44.5180574" lon="11.2842297"><ele>45.0</ele><time>2026-04-12T09:31:47.977Z</time></trkpt><trkpt lat="44.518152" lon="11.2843137"><ele>45.0</ele><time>2026-04-12T09:31:48.978Z</time></trkpt><trkpt lat="44.5182549" lon="11.2843793"><ele>45.0</ele><time>2026-04-12T09:31:49.977Z</time></trkpt><trkpt lat="44.5183583" lon="11.2844216"><ele>45.0</ele><time>2026-04-12T09:31:50.977Z</time></trkpt><trkpt lat="44.5184721" lon="11.2844375"><ele>45.0</ele><time>2026-04-12T09:31:51.978Z</time></trkpt><trkpt lat="44.5185948" lon="11.2844301"><ele>45.0</ele><time>2026-04-12T09:31:52.977Z</time></trkpt><trkpt lat="44.5187227" lon="11.2844013"><ele>45.0</ele><time>2026-04-12T09:31:53.978Z</time></trkpt><trkpt lat="44.5188566" lon="11.2843566"><ele>45.0</ele><time>2026-04-12T09:31:54.98Z</time></trkpt><trkpt lat="44.5189942" lon="11.284309"><ele>45.0</ele><time>2026-04-12T09:31:55.978Z</time></trkpt><trkpt lat="44.519132" lon="11.2842654"><ele>45.0</ele><time>2026-04-12T09:31:56.98Z</time></trkpt><trkpt lat="44.5192722" lon="11.2842335"><ele>45.0</ele><time>2026-04-12T09:31:57.979Z</time></trkpt><trkpt lat="44.5194156" lon="11.2842218"><ele>45.0</ele><time>2026-04-12T09:31:58.979Z</time></trkpt><trkpt lat="44.5195522" lon="11.284245"><ele>45.0</ele><time>2026-04-12T09:31:59.979Z</time></trkpt><trkpt lat="44.5196761" lon="11.284297"><ele>45.0</ele><time>2026-04-12T09:32:00.98Z</time></trkpt><trkpt lat="44.5197918" lon="11.2843747"><ele>45.0</ele><time>2026-04-12T09:32:01.98Z</time></trkpt><trkpt lat="44.5199082" lon="11.2844646"><ele>45.0</ele><time>2026-04-12T09:32:02.979Z</time></trkpt><trkpt lat="44.5200292" lon="11.2845661"><ele>45.0</ele><time>2026-04-12T09:32:03.979Z</time></trkpt><trkpt lat="44.5201536" lon="11.2846738"><ele>45.0</ele><time>2026-04-12T09:32:04.98Z</time></trkpt><trkpt lat="44.5202843" lon="11.2847855"><ele>45.0</ele><time>2026-04-12T09:32:05.98Z</time></trkpt><trkpt lat="44.5204217" lon="11.2849045"><ele>43.666666666666664</ele><time>2026-04-12T09:32:06.98Z</time></trkpt><trkpt lat="44.5205702" lon="11.2850323"><ele>42.33333333333333</ele><time>2026-04-12T09:32:07.979Z</time></trkpt><trkpt lat="44.5207292" lon="11.2851697"><ele>41.0</ele><time>2026-04-12T09:32:08.98Z</time></trkpt><trkpt lat="44.5208936" lon="11.2853178"><ele>41.0</ele><time>2026-04-12T09:32:09.98Z</time></trkpt><trkpt lat="44.5210585" lon="11.2854745"><ele>41.0</ele><time>2026-04-12T09:32:10.979Z</time></trkpt><trkpt lat="44.5212174" lon="11.2856354"><ele>41.0</ele><time>2026-04-12T09:32:11.98Z</time></trkpt><trkpt lat="44.5213745" lon="11.285801"><ele>41.33333333333333</ele><time>2026-04-12T09:32:12.98Z</time></trkpt><trkpt lat="44.5215298" lon="11.2859749"><ele>41.666666666666664</ele><time>2026-04-12T09:32:13.979Z</time></trkpt><trkpt lat="44.5216846" lon="11.2861561"><ele>42.0</ele><time>2026-04-12T09:32:14.979Z</time></trkpt><trkpt lat="44.5218366" lon="11.2863476"><ele>42.333333333333336</ele><time>2026-04-12T09:32:15.977Z</time></trkpt><trkpt lat="44.5219855" lon="11.2865507"><ele>42.66666666666667</ele><time>2026-04-12T09:32:16.979Z</time></trkpt><trkpt lat="44.5221313" lon="11.2867634"><ele>43.0</ele><time>2026-04-12T09:32:17.978Z</time></trkpt><trkpt lat="44.5222727" lon="11.286981"><ele>43.0</ele><time>2026-04-12T09:32:18.978Z</time></trkpt><trkpt lat="44.5224072" lon="11.2872054"><ele>43.0</ele><time>2026-04-12T09:32:19.977Z</time></trkpt><trkpt lat="44.5225367" lon="11.2874342"><ele>43.0</ele><time>2026-04-12T09:32:20.978Z</time></trkpt><trkpt lat="44.5226604" lon="11.2876681"><ele>42.66666666666667</ele><time>2026-04-12T09:32:21.979Z</time></trkpt><trkpt lat="44.5227794" lon="11.287909"><ele>42.333333333333336</ele><time>2026-04-12T09:32:22.978Z</time></trkpt><trkpt lat="44.5228926" lon="11.2881553"><ele>42.0</ele><time>2026-04-12T09:32:23.977Z</time></trkpt><trkpt lat="44.5230015" lon="11.2884106"><ele>42.0</ele><time>2026-04-12T09:32:24.977Z</time></trkpt><trkpt lat="44.5231069" lon="11.2886745"><ele>42.0</ele><time>2026-04-12T09:32:25.979Z</time></trkpt><trkpt lat="44.5232096" lon="11.2889456"><ele>42.0</ele><time>2026-04-12T09:32:26.98Z</time></trkpt><trkpt lat="44.5233079" lon="11.2892241"><ele>42.0</ele><time>2026-04-12T09:32:27.98Z</time></trkpt><trkpt lat="44.5234015" lon="11.2895098"><ele>42.0</ele><time>2026-04-12T09:32:28.979Z</time></trkpt><trkpt lat="44.5234884" lon="11.2898005"><ele>42.0</ele><time>2026-04-12T09:32:29.979Z</time></trkpt><trkpt lat="44.5235658" lon="11.2900939"><ele>41.0</ele><time>2026-04-12T09:32:30.98Z</time></trkpt><trkpt lat="44.5236347" lon="11.2903865"><ele>40.0</ele><time>2026-04-12T09:32:31.979Z</time></trkpt><trkpt lat="44.5236965" lon="11.2906851"><ele>39.0</ele><time>2026-04-12T09:32:32.98Z</time></trkpt><trkpt lat="44.5237527" lon="11.2909888"><ele>39.0</ele><time>2026-04-12T09:32:33.98Z</time></trkpt><trkpt lat="44.5238019" lon="11.2912985"><ele>39.0</ele><time>2026-04-12T09:32:34.98Z</time></trkpt><trkpt lat="44.5238453" lon="11.2916136"><ele>38.0</ele><time>2026-04-12T09:32:35.979Z</time></trkpt><trkpt lat="44.5238816" lon="11.2919343"><ele>37.0</ele><time>2026-04-12T09:32:36.979Z</time></trkpt><trkpt lat="44.5239139" lon="11.2922584"><ele>37.0</ele><time>2026-04-12T09:32:37.98Z</time></trkpt><trkpt lat="44.5239399" lon="11.2925844"><ele>37.0</ele><time>2026-04-12T09:32:38.979Z</time></trkpt><trkpt lat="44.5239601" lon="11.2929107"><ele>38.0</ele><time>2026-04-12T09:32:39.979Z</time></trkpt><trkpt lat="44.5239746" lon="11.2932329"><ele>39.0</ele><time>2026-04-12T09:32:40.978Z</time></trkpt><trkpt lat="44.5239893" lon="11.2935502"><ele>39.0</ele><time>2026-04-12T09:32:41.979Z</time></trkpt><trkpt lat="44.5240039" lon="11.2938597"><ele>39.0</ele><time>2026-04-12T09:32:42.979Z</time></trkpt><trkpt lat="44.5240177" lon="11.2941682"><ele>39.0</ele><time>2026-04-12T09:32:43.981Z</time></trkpt><trkpt lat="44.5240343" lon="11.294474"><ele>39.333333333333336</ele><time>2026-04-12T09:32:44.98Z</time></trkpt><trkpt lat="44.5240531" lon="11.2947773"><ele>39.66666666666667</ele><time>2026-04-12T09:32:45.979Z</time></trkpt><trkpt lat="44.5240715" lon="11.2950758"><ele>40.0</ele><time>2026-04-12T09:32:46.979Z</time></trkpt><trkpt lat="44.5240891" lon="11.2953698"><ele>39.66666666666667</ele><time>2026-04-12T09:32:47.979Z</time></trkpt><trkpt lat="44.5241067" lon="11.2956626"><ele>39.333333333333336</ele><time>2026-04-12T09:32:48.978Z</time></trkpt><trkpt lat="44.5241235" lon="11.2959565"><ele>39.0</ele><time>2026-04-12T09:32:49.978Z</time></trkpt><trkpt lat="44.5241409" lon="11.2962513"><ele>39.333333333333336</ele><time>2026-04-12T09:32:50.98Z</time></trkpt><trkpt lat="44.5241562" lon="11.2965461"><ele>39.66666666666667</ele><time>2026-04-12T09:32:51.978Z</time></trkpt><trkpt lat="44.5241711" lon="11.296842"><ele>40.0</ele><time>2026-04-12T09:32:52.978Z</time></trkpt><trkpt lat="44.5241851" lon="11.2971403"><ele>40.0</ele><time>2026-04-12T09:32:53.979Z</time></trkpt><trkpt lat="44.5241989" lon="11.297445"><ele>40.0</ele><time>2026-04-12T09:32:54.978Z</time></trkpt><trkpt lat="44.5242136" lon="11.2977535"><ele>40.0</ele><time>2026-04-12T09:32:55.978Z</time></trkpt><trkpt lat="44.5242283" lon="11.2980649"><ele>39.0</ele><time>2026-04-12T09:32:56.978Z</time></trkpt><trkpt lat="44.5242444" lon="11.2983833"><ele>38.0</ele><time>2026-04-12T09:32:57.979Z</time></trkpt><trkpt lat="44.5242617" lon="11.2987055"><ele>36.5</ele><time>2026-04-12T09:32:58.978Z</time></trkpt><trkpt lat="44.5242798" lon="11.2990358"><ele>35.0</ele><time>2026-04-12T09:32:59.977Z</time></trkpt><trkpt lat="44.5242963" lon="11.2993688"><ele>35.0</ele><time>2026-04-12T09:33:00.977Z</time></trkpt><trkpt lat="44.5243104" lon="11.2997035"><ele>35.0</ele><time>2026-04-12T09:33:01.978Z</time></trkpt><trkpt lat="44.5243232" lon="11.3000375"><ele>35.5</ele><time>2026-04-12T09:33:02.978Z</time></trkpt><trkpt lat="44.5243355" lon="11.3003742"><ele>36.0</ele><time>2026-04-12T09:33:03.978Z</time></trkpt><trkpt lat="44.524348" lon="11.3007074"><ele>36.5</ele><time>2026-04-12T09:33:04.978Z</time></trkpt><trkpt lat="44.5243592" lon="11.3010381"><ele>37.0</ele><time>2026-04-12T09:33:05.978Z</time></trkpt><trkpt lat="44.5243722" lon="11.3013671"><ele>37.5</ele><time>2026-04-12T09:33:06.977Z</time></trkpt><trkpt lat="44.5243868" lon="11.3016955"><ele>38.0</ele><time>2026-04-12T09:33:07.978Z</time></trkpt><trkpt lat="44.5244021" lon="11.3020209"><ele>38.0</ele><time>2026-04-12T09:33:08.98Z</time></trkpt><trkpt lat="44.524418" lon="11.3023476"><ele>38.0</ele><time>2026-04-12T09:33:09.979Z</time></trkpt><trkpt lat="44.5244334" lon="11.302673"><ele>38.0</ele><time>2026-04-12T09:33:10.982Z</time></trkpt><trkpt lat="44.5244485" lon="11.3029967"><ele>38.0</ele><time>2026-04-12T09:33:11.977Z</time></trkpt><trkpt lat="44.5244624" lon="11.3033166"><ele>34.5</ele><time>2026-04-12T09:33:12.978Z</time></trkpt><trkpt lat="44.524476" lon="11.30364"><ele>31.0</ele><time>2026-04-12T09:33:13.977Z</time></trkpt><trkpt lat="44.5244903" lon="11.3039627"><ele>30.5</ele><time>2026-04-12T09:33:14.978Z</time></trkpt><trkpt lat="44.5245053" lon="11.304287"><ele>30.0</ele><time>2026-04-12T09:33:15.977Z</time></trkpt><trkpt lat="44.5245227" lon="11.3046117"><ele>30.5</ele><time>2026-04-12T09:33:16.977Z</time></trkpt><trkpt lat="44.5245437" lon="11.3049368"><ele>31.0</ele><time>2026-04-12T09:33:17.977Z</time></trkpt><trkpt lat="44.5245692" lon="11.3052621"><ele>32.5</ele><time>2026-04-12T09:33:18.978Z</time></trkpt><trkpt lat="44.5245998" lon="11.305586"><ele>34.0</ele><time>2026-04-12T09:33:19.977Z</time></trkpt><trkpt lat="44.5246331" lon="11.3059096"><ele>34.0</ele><time>2026-04-12T09:33:20.979Z</time></trkpt><trkpt lat="44.5246679" lon="11.3062315"><ele>34.0</ele><time>2026-04-12T09:33:21.977Z</time></trkpt><trkpt lat="44.5247059" lon="11.3065499"><ele>34.5</ele><time>2026-04-12T09:33:22.977Z</time></trkpt><trkpt lat="44.5247469" lon="11.3068666"><ele>35.0</ele><time>2026-04-12T09:33:23.977Z</time></trkpt><trkpt lat="44.5247975" lon="11.307183"><ele>36.0</ele><time>2026-04-12T09:33:24.977Z</time></trkpt><trkpt lat="44.5248571" lon="11.3074941"><ele>37.0</ele><time>2026-04-12T09:33:25.979Z</time></trkpt><trkpt lat="44.5249211" lon="11.3078"><ele>36.66666666666667</ele><time>2026-04-12T09:33:26.979Z</time></trkpt><trkpt lat="44.5249909" lon="11.3081005"><ele>36.333333333333336</ele><time>2026-04-12T09:33:27.98Z</time></trkpt><trkpt lat="44.5250641" lon="11.3083972"><ele>36.0</ele><time>2026-04-12T09:33:28.979Z</time></trkpt><trkpt lat="44.5251465" lon="11.3086971"><ele>35.0</ele><time>2026-04-12T09:33:29.979Z</time></trkpt><trkpt lat="44.5252325" lon="11.3089944"><ele>34.0</ele><time>2026-04-12T09:33:30.979Z</time></trkpt><trkpt lat="44.5253235" lon="11.3092855"><ele>34.5</ele><time>2026-04-12T09:33:31.979Z</time></trkpt><trkpt lat="44.5254205" lon="11.3095739"><ele>35.0</ele><time>2026-04-12T09:33:32.979Z</time></trkpt><trkpt lat="44.5255232" lon="11.3098594"><ele>34.0</ele><time>2026-04-12T09:33:33.979Z</time></trkpt><trkpt lat="44.5256324" lon="11.3101451"><ele>33.0</ele><time>2026-04-12T09:33:34.977Z</time></trkpt><trkpt lat="44.5257464" lon="11.3104233"><ele>33.5</ele><time>2026-04-12T09:33:35.979Z</time></trkpt><trkpt lat="44.5258666" lon="11.3107012"><ele>34.0</ele><time>2026-04-12T09:33:36.979Z</time></trkpt><trkpt lat="44.5259909" lon="11.3109748"><ele>34.0</ele><time>2026-04-12T09:33:37.981Z</time></trkpt><trkpt lat="44.526118" lon="11.3112466"><ele>34.0</ele><time>2026-04-12T09:33:38.98Z</time></trkpt><trkpt lat="44.5262485" lon="11.3115179"><ele>35.0</ele><time>2026-04-12T09:33:39.98Z</time></trkpt><trkpt lat="44.5263794" lon="11.3117912"><ele>36.0</ele><time>2026-04-12T09:33:40.979Z</time></trkpt><trkpt lat="44.5265099" lon="11.3120646"><ele>36.0</ele><time>2026-04-12T09:33:41.979Z</time></trkpt><trkpt lat="44.5266411" lon="11.3123366"><ele>36.0</ele><time>2026-04-12T09:33:42.979Z</time></trkpt><trkpt lat="44.5267713" lon="11.3126086"><ele>36.0</ele><time>2026-04-12T09:33:43.979Z</time></trkpt><trkpt lat="44.5269014" lon="11.3128796"><ele>36.0</ele><time>2026-04-12T09:33:44.979Z</time></trkpt><trkpt lat="44.5270305" lon="11.3131486"><ele>38.0</ele><time>2026-04-12T09:33:45.979Z</time></trkpt><trkpt lat="44.5271589" lon="11.313419"><ele>40.0</ele><time>2026-04-12T09:33:46.977Z</time></trkpt><trkpt lat="44.5272874" lon="11.313691"><ele>39.5</ele><time>2026-04-12T09:33:47.978Z</time></trkpt><trkpt lat="44.5274151" lon="11.3139609"><ele>39.0</ele><time>2026-04-12T09:33:48.978Z</time></trkpt><trkpt lat="44.5275423" lon="11.31423"><ele>39.0</ele><time>2026-04-12T09:33:49.979Z</time></trkpt><trkpt lat="44.5276706" lon="11.3144975"><ele>39.0</ele><time>2026-04-12T09:33:50.979Z</time></trkpt><trkpt lat="44.527799" lon="11.3147667"><ele>40.0</ele><time>2026-04-12T09:33:51.978Z</time></trkpt><trkpt lat="44.5279276" lon="11.315035"><ele>41.0</ele><time>2026-04-12T09:33:52.977Z</time></trkpt><trkpt lat="44.528058" lon="11.3153032"><ele>39.5</ele><time>2026-04-12T09:33:53.977Z</time></trkpt><trkpt lat="44.5281865" lon="11.3155736"><ele>38.0</ele><time>2026-04-12T09:33:54.977Z</time></trkpt><trkpt lat="44.5283165" lon="11.3158472"><ele>38.0</ele><time>2026-04-12T09:33:55.979Z</time></trkpt><trkpt lat="44.5284454" lon="11.3161228"><ele>38.0</ele><time>2026-04-12T09:33:56.979Z</time></trkpt><trkpt lat="44.528577" lon="11.3163952"><ele>38.5</ele><time>2026-04-12T09:33:57.979Z</time></trkpt><trkpt lat="44.528709" lon="11.3166676"><ele>39.0</ele><time>2026-04-12T09:33:58.979Z</time></trkpt><trkpt lat="44.5288361" lon="11.3169393"><ele>39.0</ele><time>2026-04-12T09:33:59.979Z</time></trkpt><trkpt lat="44.5289693" lon="11.3172075"><ele>39.0</ele><time>2026-04-12T09:34:00.978Z</time></trkpt><trkpt lat="44.5290978" lon="11.3174751"><ele>37.5</ele><time>2026-04-12T09:34:01.979Z</time></trkpt><trkpt lat="44.5292295" lon="11.317747"><ele>36.0</ele><time>2026-04-12T09:34:02.979Z</time></trkpt><trkpt lat="44.529358" lon="11.3180207"><ele>35.0</ele><time>2026-04-12T09:34:03.98Z</time></trkpt><trkpt lat="44.5294871" lon="11.3182924"><ele>34.0</ele><time>2026-04-12T09:34:04.98Z</time></trkpt><trkpt lat="44.5296156" lon="11.3185634"><ele>34.0</ele><time>2026-04-12T09:34:05.979Z</time></trkpt><trkpt lat="44.5297448" lon="11.3188341"><ele>34.0</ele><time>2026-04-12T09:34:06.98Z</time></trkpt><trkpt lat="44.529873" lon="11.3191049"><ele>35.0</ele><time>2026-04-12T09:34:07.979Z</time></trkpt><trkpt lat="44.5300005" lon="11.3193767"><ele>36.0</ele><time>2026-04-12T09:34:08.98Z</time></trkpt><trkpt lat="44.5301264" lon="11.3196502"><ele>35.0</ele><time>2026-04-12T09:34:09.98Z</time></trkpt><trkpt lat="44.5302496" lon="11.3199269"><ele>34.0</ele><time>2026-04-12T09:34:10.978Z</time></trkpt><trkpt lat="44.5303694" lon="11.3202099"><ele>33.5</ele><time>2026-04-12T09:34:11.98Z</time></trkpt><trkpt lat="44.530486" lon="11.3204955"><ele>33.0</ele><time>2026-04-12T09:34:12.981Z</time></trkpt><trkpt lat="44.5305975" lon="11.3207861"><ele>33.0</ele><time>2026-04-12T09:34:13.98Z</time></trkpt><trkpt lat="44.5307054" lon="11.3210779"><ele>33.0</ele><time>2026-04-12T09:34:14.979Z</time></trkpt><trkpt lat="44.5308127" lon="11.3213742"><ele>32.0</ele><time>2026-04-12T09:34:15.978Z</time></trkpt><trkpt lat="44.5309166" lon="11.3216715"><ele>31.0</ele><time>2026-04-12T09:34:16.979Z</time></trkpt><trkpt lat="44.5310168" lon="11.3219716"><ele>31.5</ele><time>2026-04-12T09:34:17.981Z</time></trkpt><trkpt lat="44.5311105" lon="11.3222779"><ele>32.0</ele><time>2026-04-12T09:34:18.977Z</time></trkpt><trkpt lat="44.5311985" lon="11.3225872"><ele>32.0</ele><time>2026-04-12T09:34:19.979Z</time></trkpt><trkpt lat="44.5312845" lon="11.3228974"><ele>32.0</ele><time>2026-04-12T09:34:20.98Z</time></trkpt><trkpt lat="44.5313614" lon="11.3232081"><ele>32.0</ele><time>2026-04-12T09:34:21.977Z</time></trkpt><trkpt lat="44.5314364" lon="11.3235208"><ele>32.0</ele><time>2026-04-12T09:34:22.977Z</time></trkpt><trkpt lat="44.5315136" lon="11.3238329"><ele>33.0</ele><time>2026-04-12T09:34:23.978Z</time></trkpt><trkpt lat="44.5315847" lon="11.3241468"><ele>34.0</ele><time>2026-04-12T09:34:24.978Z</time></trkpt><trkpt lat="44.53165" lon="11.3244609"><ele>33.5</ele><time>2026-04-12T09:34:25.978Z</time></trkpt><trkpt lat="44.5317159" lon="11.3247774"><ele>33.0</ele><time>2026-04-12T09:34:26.978Z</time></trkpt><trkpt lat="44.5317734" lon="11.3250938"><ele>33.0</ele><time>2026-04-12T09:34:27.978Z</time></trkpt><trkpt lat="44.5318323" lon="11.3254103"><ele>33.0</ele><time>2026-04-12T09:34:28.978Z</time></trkpt><trkpt lat="44.5318835" lon="11.3257232"><ele>32.5</ele><time>2026-04-12T09:34:29.978Z</time></trkpt><trkpt lat="44.5319282" lon="11.3260376"><ele>32.0</ele><time>2026-04-12T09:34:30.978Z</time></trkpt><trkpt lat="44.5319681" lon="11.3263513"><ele>32.5</ele><time>2026-04-12T09:34:31.977Z</time></trkpt><trkpt lat="44.5320049" lon="11.3266651"><ele>33.0</ele><time>2026-04-12T09:34:32.978Z</time></trkpt><trkpt lat="44.5320354" lon="11.3269795"><ele>34.0</ele><time>2026-04-12T09:34:33.978Z</time></trkpt><trkpt lat="44.5320643" lon="11.3272922"><ele>35.0</ele><time>2026-04-12T09:34:34.979Z</time></trkpt><trkpt lat="44.5320902" lon="11.3276045"><ele>36.0</ele><time>2026-04-12T09:34:35.978Z</time></trkpt><trkpt lat="44.5321094" lon="11.3279196"><ele>35.0</ele><time>2026-04-12T09:34:36.977Z</time></trkpt><trkpt lat="44.5321288" lon="11.3282354"><ele>34.0</ele><time>2026-04-12T09:34:37.977Z</time></trkpt><trkpt lat="44.5321506" lon="11.3285517"><ele>34.0</ele><time>2026-04-12T09:34:38.979Z</time></trkpt><trkpt lat="44.532166" lon="11.3288724"><ele>34.0</ele><time>2026-04-12T09:34:39.978Z</time></trkpt><trkpt lat="44.5321766" lon="11.3291944"><ele>33.0</ele><time>2026-04-12T09:34:40.978Z</time></trkpt><trkpt lat="44.5321839" lon="11.3295168"><ele>32.0</ele><time>2026-04-12T09:34:41.977Z</time></trkpt><trkpt lat="44.5321835" lon="11.32984"><ele>31.5</ele><time>2026-04-12T09:34:42.977Z</time></trkpt><trkpt lat="44.5321746" lon="11.3301604"><ele>31.0</ele><time>2026-04-12T09:34:43.979Z</time></trkpt><trkpt lat="44.5321626" lon="11.3304793"><ele>31.0</ele><time>2026-04-12T09:34:44.978Z</time></trkpt><trkpt lat="44.532147" lon="11.3307941"><ele>31.0</ele><time>2026-04-12T09:34:45.978Z</time></trkpt><trkpt lat="44.5321283" lon="11.3311024"><ele>31.0</ele><time>2026-04-12T09:34:46.977Z</time></trkpt><trkpt lat="44.5321088" lon="11.3314061"><ele>31.0</ele><time>2026-04-12T09:34:47.978Z</time></trkpt><trkpt lat="44.5320882" lon="11.3317071"><ele>31.0</ele><time>2026-04-12T09:34:48.977Z</time></trkpt><trkpt lat="44.532067" lon="11.3320101"><ele>31.0</ele><time>2026-04-12T09:34:49.978Z</time></trkpt><trkpt lat="44.5320394" lon="11.3323172"><ele>31.0</ele><time>2026-04-12T09:34:50.978Z</time></trkpt><trkpt lat="44.5320099" lon="11.3326231"><ele>31.0</ele><time>2026-04-12T09:34:51.977Z</time></trkpt><trkpt lat="44.5319746" lon="11.3329326"><ele>31.0</ele><time>2026-04-12T09:34:52.979Z</time></trkpt><trkpt lat="44.531934" lon="11.3332428"><ele>30.5</ele><time>2026-04-12T09:34:53.977Z</time></trkpt><trkpt lat="44.5318887" lon="11.3335537"><ele>30.0</ele><time>2026-04-12T09:34:54.977Z</time></trkpt><trkpt lat="44.5318403" lon="11.3338647"><ele>31.0</ele><time>2026-04-12T09:34:55.978Z</time></trkpt><trkpt lat="44.5317878" lon="11.3341765"><ele>32.0</ele><time>2026-04-12T09:34:56.979Z</time></trkpt><trkpt lat="44.5317325" lon="11.3344913"><ele>32.0</ele><time>2026-04-12T09:34:57.977Z</time></trkpt><trkpt lat="44.5316736" lon="11.3348037"><ele>32.0</ele><time>2026-04-12T09:34:58.977Z</time></trkpt><trkpt lat="44.5316149" lon="11.3351145"><ele>32.0</ele><time>2026-04-12T09:34:59.978Z</time></trkpt><trkpt lat="44.531555" lon="11.3354299"><ele>32.0</ele><time>2026-04-12T09:35:00.979Z</time></trkpt><trkpt lat="44.5314977" lon="11.335743"><ele>32.0</ele><time>2026-04-12T09:35:01.979Z</time></trkpt><trkpt lat="44.5314434" lon="11.3360535"><ele>32.0</ele><time>2026-04-12T09:35:02.978Z</time></trkpt><trkpt lat="44.5313887" lon="11.3363619"><ele>31.5</ele><time>2026-04-12T09:35:03.977Z</time></trkpt><trkpt lat="44.5313307" lon="11.3366652"><ele>31.0</ele><time>2026-04-12T09:35:04.978Z</time></trkpt><trkpt lat="44.5312737" lon="11.3369744"><ele>30.333333333333336</ele><time>2026-04-12T09:35:05.977Z</time></trkpt><trkpt lat="44.5312167" lon="11.3372776"><ele>29.666666666666664</ele><time>2026-04-12T09:35:06.977Z</time></trkpt><trkpt lat="44.5311584" lon="11.3375804"><ele>29.0</ele><time>2026-04-12T09:35:07.977Z</time></trkpt><trkpt lat="44.5311042" lon="11.3378837"><ele>29.333333333333332</ele><time>2026-04-12T09:35:08.979Z</time></trkpt><trkpt lat="44.5310503" lon="11.3381833"><ele>29.666666666666664</ele><time>2026-04-12T09:35:09.978Z</time></trkpt><trkpt lat="44.5309944" lon="11.3384803"><ele>30.0</ele><time>2026-04-12T09:35:10.978Z</time></trkpt><trkpt lat="44.5309378" lon="11.3387753"><ele>29.666666666666664</ele><time>2026-04-12T09:35:11.977Z</time></trkpt><trkpt lat="44.5308812" lon="11.3390689"><ele>29.333333333333332</ele><time>2026-04-12T09:35:12.977Z</time></trkpt><trkpt lat="44.530828" lon="11.3393628"><ele>29.0</ele><time>2026-04-12T09:35:13.979Z</time></trkpt><trkpt lat="44.5307756" lon="11.3396534"><ele>28.333333333333332</ele><time>2026-04-12T09:35:14.979Z</time></trkpt><trkpt lat="44.5307228" lon="11.3399354"><ele>27.666666666666664</ele><time>2026-04-12T09:35:15.977Z</time></trkpt><trkpt lat="44.5306718" lon="11.3402122"><ele>27.0</ele><time>2026-04-12T09:35:16.979Z</time></trkpt><trkpt lat="44.5306205" lon="11.340487"><ele>26.0</ele><time>2026-04-12T09:35:17.979Z</time></trkpt><trkpt lat="44.5305702" lon="11.340757"><ele>25.0</ele><time>2026-04-12T09:35:18.977Z</time></trkpt><trkpt lat="44.5305186" lon="11.3410291"><ele>24.0</ele><time>2026-04-12T09:35:19.979Z</time></trkpt><trkpt lat="44.530467" lon="11.3413023"><ele>24.666666666666664</ele><time>2026-04-12T09:35:20.977Z</time></trkpt><trkpt lat="44.5304147" lon="11.3415788"><ele>25.333333333333332</ele><time>2026-04-12T09:35:21.977Z</time></trkpt><trkpt lat="44.5303617" lon="11.3418566"><ele>26.0</ele><time>2026-04-12T09:35:22.978Z</time></trkpt><trkpt lat="44.5303111" lon="11.3421354"><ele>26.333333333333332</ele><time>2026-04-12T09:35:23.978Z</time></trkpt><trkpt lat="44.5302614" lon="11.3424103"><ele>26.666666666666664</ele><time>2026-04-12T09:35:24.978Z</time></trkpt><trkpt lat="44.530212" lon="11.3426815"><ele>27.0</ele><time>2026-04-12T09:35:25.979Z</time></trkpt><trkpt lat="44.530164" lon="11.3429503"><ele>27.333333333333336</ele><time>2026-04-12T09:35:26.978Z</time></trkpt><trkpt lat="44.5301138" lon="11.343222"><ele>27.666666666666668</ele><time>2026-04-12T09:35:27.977Z</time></trkpt><trkpt lat="44.5300612" lon="11.3434952"><ele>28.0</ele><time>2026-04-12T09:35:28.978Z</time></trkpt><trkpt lat="44.5300095" lon="11.3437725"><ele>29.333333333333336</ele><time>2026-04-12T09:35:29.978Z</time></trkpt><trkpt lat="44.5299584" lon="11.344049"><ele>30.666666666666664</ele><time>2026-04-12T09:35:30.978Z</time></trkpt><trkpt lat="44.5299035" lon="11.3443273"><ele>32.0</ele><time>2026-04-12T09:35:31.977Z</time></trkpt><trkpt lat="44.5298459" lon="11.3446113"><ele>33.0</ele><time>2026-04-12T09:35:32.978Z</time></trkpt><trkpt lat="44.5297871" lon="11.3448993"><ele>34.0</ele><time>2026-04-12T09:35:33.977Z</time></trkpt><trkpt lat="44.5297252" lon="11.3451895"><ele>35.0</ele><time>2026-04-12T09:35:34.977Z</time></trkpt><trkpt lat="44.5296629" lon="11.3454762"><ele>35.0</ele><time>2026-04-12T09:35:35.979Z</time></trkpt><trkpt lat="44.5295982" lon="11.345762"><ele>35.0</ele><time>2026-04-12T09:35:36.977Z</time></trkpt><trkpt lat="44.5295339" lon="11.3460437"><ele>35.0</ele><time>2026-04-12T09:35:37.979Z</time></trkpt><trkpt lat="44.5294703" lon="11.3463232"><ele>34.666666666666664</ele><time>2026-04-12T09:35:38.979Z</time></trkpt><trkpt lat="44.5294044" lon="11.3466058"><ele>34.333333333333336</ele><time>2026-04-12T09:35:39.977Z</time></trkpt><trkpt lat="44.5293372" lon="11.3468929"><ele>34.0</ele><time>2026-04-12T09:35:40.977Z</time></trkpt><trkpt lat="44.5292707" lon="11.3471861"><ele>35.0</ele><time>2026-04-12T09:35:41.978Z</time></trkpt><trkpt lat="44.5292024" lon="11.347481"><ele>36.0</ele><time>2026-04-12T09:35:42.978Z</time></trkpt><trkpt lat="44.529126" lon="11.3477709"><ele>37.0</ele><time>2026-04-12T09:35:43.977Z</time></trkpt><trkpt lat="44.5290427" lon="11.3480622"><ele>37.5</ele><time>2026-04-12T09:35:44.979Z</time></trkpt><trkpt lat="44.5289538" lon="11.3483559"><ele>38.0</ele><time>2026-04-12T09:35:45.978Z</time></trkpt><trkpt lat="44.5288622" lon="11.3486535"><ele>38.5</ele><time>2026-04-12T09:35:46.977Z</time></trkpt><trkpt lat="44.5287678" lon="11.3489529"><ele>39.0</ele><time>2026-04-12T09:35:47.978Z</time></trkpt><trkpt lat="44.5286699" lon="11.3492527"><ele>37.5</ele><time>2026-04-12T09:35:48.977Z</time></trkpt><trkpt lat="44.5285692" lon="11.3495525"><ele>36.0</ele><time>2026-04-12T09:35:49.978Z</time></trkpt><trkpt lat="44.5284668" lon="11.3498498"><ele>36.0</ele><time>2026-04-12T09:35:50.979Z</time></trkpt><trkpt lat="44.5283652" lon="11.3501478"><ele>36.0</ele><time>2026-04-12T09:35:51.979Z</time></trkpt><trkpt lat="44.5282669" lon="11.3504453"><ele>35.5</ele><time>2026-04-12T09:35:52.978Z</time></trkpt><trkpt lat="44.52817" lon="11.3507445"><ele>35.0</ele><time>2026-04-12T09:35:53.979Z</time></trkpt><trkpt lat="44.5280747" lon="11.3510464"><ele>35.0</ele><time>2026-04-12T09:35:54.978Z</time></trkpt><trkpt lat="44.5279812" lon="11.3513455"><ele>35.0</ele><time>2026-04-12T09:35:55.979Z</time></trkpt><trkpt lat="44.5278848" lon="11.3516492"><ele>35.0</ele><time>2026-04-12T09:35:56.977Z</time></trkpt><trkpt lat="44.5277893" lon="11.3519481"><ele>35.0</ele><time>2026-04-12T09:35:57.978Z</time></trkpt><trkpt lat="44.5276915" lon="11.3522416"><ele>34.0</ele><time>2026-04-12T09:35:58.977Z</time></trkpt><trkpt lat="44.5275918" lon="11.3525329"><ele>33.0</ele><time>2026-04-12T09:35:59.977Z</time></trkpt><trkpt lat="44.527491" lon="11.3528195"><ele>33.333333333333336</ele><time>2026-04-12T09:36:00.977Z</time></trkpt><trkpt lat="44.52739" lon="11.353102"><ele>33.66666666666667</ele><time>2026-04-12T09:36:01.977Z</time></trkpt><trkpt lat="44.5272939" lon="11.3533842"><ele>34.0</ele><time>2026-04-12T09:36:02.978Z</time></trkpt><trkpt lat="44.527199" lon="11.3536639"><ele>34.0</ele><time>2026-04-12T09:36:03.979Z</time></trkpt><trkpt lat="44.5270984" lon="11.3539413"><ele>34.0</ele><time>2026-04-12T09:36:04.978Z</time></trkpt><trkpt lat="44.5269872" lon="11.354214"><ele>34.0</ele><time>2026-04-12T09:36:05.978Z</time></trkpt><trkpt lat="44.5268682" lon="11.3544704"><ele>34.66666666666667</ele><time>2026-04-12T09:36:06.979Z</time></trkpt><trkpt lat="44.5267356" lon="11.3547053"><ele>35.333333333333336</ele><time>2026-04-12T09:36:07.978Z</time></trkpt><trkpt lat="44.5265854" lon="11.3549203"><ele>36.0</ele><time>2026-04-12T09:36:08.979Z</time></trkpt><trkpt lat="44.5264221" lon="11.3551232"><ele>36.0</ele><time>2026-04-12T09:36:09.978Z</time></trkpt><trkpt lat="44.5262498" lon="11.3553171"><ele>36.0</ele><time>2026-04-12T09:36:10.977Z</time></trkpt><trkpt lat="44.5260772" lon="11.3555019"><ele>36.0</ele><time>2026-04-12T09:36:11.978Z</time></trkpt><trkpt lat="44.5259079" lon="11.355683"><ele>36.333333333333336</ele><time>2026-04-12T09:36:12.978Z</time></trkpt><trkpt lat="44.5257519" lon="11.3558651"><ele>36.66666666666667</ele><time>2026-04-12T09:36:13.978Z</time></trkpt><trkpt lat="44.525605" lon="11.356058"><ele>37.0</ele><time>2026-04-12T09:36:14.978Z</time></trkpt><trkpt lat="44.5254657" lon="11.3562597"><ele>36.66666666666667</ele><time>2026-04-12T09:36:15.977Z</time></trkpt><trkpt lat="44.5253375" lon="11.3564767"><ele>36.333333333333336</ele><time>2026-04-12T09:36:16.978Z</time></trkpt><trkpt lat="44.5252249" lon="11.3567163"><ele>36.0</ele><time>2026-04-12T09:36:17.979Z</time></trkpt><trkpt lat="44.5251307" lon="11.3569713"><ele>35.0</ele><time>2026-04-12T09:36:18.978Z</time></trkpt><trkpt lat="44.5250556" lon="11.3572446"><ele>34.0</ele><time>2026-04-12T09:36:19.977Z</time></trkpt><trkpt lat="44.5249954" lon="11.3575272"><ele>33.0</ele><time>2026-04-12T09:36:20.978Z</time></trkpt><trkpt lat="44.5249442" lon="11.3578274"><ele>34.0</ele><time>2026-04-12T09:36:21.977Z</time></trkpt><trkpt lat="44.5248978" lon="11.3581359"><ele>35.0</ele><time>2026-04-12T09:36:22.977Z</time></trkpt><trkpt lat="44.5248522" lon="11.3584454"><ele>35.0</ele><time>2026-04-12T09:36:23.977Z</time></trkpt><trkpt lat="44.5248025" lon="11.3587588"><ele>35.0</ele><time>2026-04-12T09:36:24.977Z</time></trkpt><trkpt lat="44.5247445" lon="11.3590722"><ele>37.0</ele><time>2026-04-12T09:36:25.977Z</time></trkpt><trkpt lat="44.5246729" lon="11.3593806"><ele>39.0</ele><time>2026-04-12T09:36:26.978Z</time></trkpt><trkpt lat="44.5245852" lon="11.3596844"><ele>38.5</ele><time>2026-04-12T09:36:27.979Z</time></trkpt><trkpt lat="44.5244809" lon="11.3599838"><ele>38.0</ele><time>2026-04-12T09:36:28.978Z</time></trkpt><trkpt lat="44.5243647" lon="11.360273"><ele>37.5</ele><time>2026-04-12T09:36:29.978Z</time></trkpt><trkpt lat="44.524238" lon="11.3605557"><ele>37.0</ele><time>2026-04-12T09:36:30.978Z</time></trkpt><trkpt lat="44.5241068" lon="11.3608314"><ele>37.0</ele><time>2026-04-12T09:36:31.978Z</time></trkpt><trkpt lat="44.5239737" lon="11.3611016"><ele>37.0</ele><time>2026-04-12T09:36:32.977Z</time></trkpt><trkpt lat="44.5238436" lon="11.3613713"><ele>38.0</ele><time>2026-04-12T09:36:33.978Z</time></trkpt><trkpt lat="44.5237141" lon="11.3616443"><ele>39.0</ele><time>2026-04-12T09:36:34.976Z</time></trkpt><trkpt lat="44.5235818" lon="11.3619176"><ele>39.0</ele><time>2026-04-12T09:36:35.978Z</time></trkpt><trkpt lat="44.5234485" lon="11.3621916"><ele>39.0</ele><time>2026-04-12T09:36:36.977Z</time></trkpt><trkpt lat="44.5233154" lon="11.362466"><ele>38.5</ele><time>2026-04-12T09:36:37.978Z</time></trkpt><trkpt lat="44.5231819" lon="11.3627394"><ele>38.0</ele><time>2026-04-12T09:36:38.977Z</time></trkpt><trkpt lat="44.5230504" lon="11.3630139"><ele>37.0</ele><time>2026-04-12T09:36:39.978Z</time></trkpt><trkpt lat="44.5229197" lon="11.363291"><ele>36.0</ele><time>2026-04-12T09:36:40.978Z</time></trkpt><trkpt lat="44.5227882" lon="11.3635688"><ele>36.0</ele><time>2026-04-12T09:36:41.978Z</time></trkpt><trkpt lat="44.5226555" lon="11.363847"><ele>36.0</ele><time>2026-04-12T09:36:42.977Z</time></trkpt><trkpt lat="44.5225235" lon="11.3641195"><ele>37.5</ele><time>2026-04-12T09:36:43.979Z</time></trkpt><trkpt lat="44.522392" lon="11.3643929"><ele>39.0</ele><time>2026-04-12T09:36:44.98Z</time></trkpt><trkpt lat="44.5222604" lon="11.3646653"><ele>39.0</ele><time>2026-04-12T09:36:45.979Z</time></trkpt><trkpt lat="44.52213" lon="11.3649399"><ele>39.0</ele><time>2026-04-12T09:36:46.979Z</time></trkpt><trkpt lat="44.5220026" lon="11.3652148"><ele>38.5</ele><time>2026-04-12T09:36:47.98Z</time></trkpt><trkpt lat="44.5218735" lon="11.3654853"><ele>38.0</ele><time>2026-04-12T09:36:48.978Z</time></trkpt><trkpt lat="44.5217453" lon="11.3657533"><ele>38.0</ele><time>2026-04-12T09:36:49.978Z</time></trkpt><trkpt lat="44.5216176" lon="11.3660207"><ele>38.0</ele><time>2026-04-12T09:36:50.979Z</time></trkpt><trkpt lat="44.5214924" lon="11.3662863"><ele>37.666666666666664</ele><time>2026-04-12T09:36:51.978Z</time></trkpt><trkpt lat="44.5213674" lon="11.3665458"><ele>37.333333333333336</ele><time>2026-04-12T09:36:52.977Z</time></trkpt><trkpt lat="44.5212416" lon="11.3668034"><ele>37.0</ele><time>2026-04-12T09:36:53.978Z</time></trkpt><trkpt lat="44.5211139" lon="11.3670608"><ele>37.0</ele><time>2026-04-12T09:36:54.978Z</time></trkpt><trkpt lat="44.5209791" lon="11.3673135"><ele>37.0</ele><time>2026-04-12T09:36:55.978Z</time></trkpt><trkpt lat="44.5208373" lon="11.3675597"><ele>37.0</ele><time>2026-04-12T09:36:56.979Z</time></trkpt><trkpt lat="44.5206855" lon="11.3677908"><ele>37.0</ele><time>2026-04-12T09:36:57.977Z</time></trkpt><trkpt lat="44.5205199" lon="11.3680002"><ele>37.0</ele><time>2026-04-12T09:36:58.977Z</time></trkpt><trkpt lat="44.5203517" lon="11.3681959"><ele>36.66666666666667</ele><time>2026-04-12T09:36:59.977Z</time></trkpt><trkpt lat="44.5201839" lon="11.3683849"><ele>36.333333333333336</ele><time>2026-04-12T09:37:00.978Z</time></trkpt><trkpt lat="44.5200199" lon="11.3685746"><ele>36.0</ele><time>2026-04-12T09:37:01.977Z</time></trkpt><trkpt lat="44.5198644" lon="11.3687757"><ele>36.0</ele><time>2026-04-12T09:37:02.977Z</time></trkpt><trkpt lat="44.5197204" lon="11.3689919"><ele>36.0</ele><time>2026-04-12T09:37:03.978Z</time></trkpt><trkpt lat="44.5195877" lon="11.3692261"><ele>36.0</ele><time>2026-04-12T09:37:04.978Z</time></trkpt><trkpt lat="44.5194766" lon="11.3694811"><ele>35.666666666666664</ele><time>2026-04-12T09:37:05.979Z</time></trkpt><trkpt lat="44.5193801" lon="11.36975"><ele>35.33333333333333</ele><time>2026-04-12T09:37:06.977Z</time></trkpt><trkpt lat="44.519286" lon="11.3700209"><ele>35.0</ele><time>2026-04-12T09:37:07.978Z</time></trkpt><trkpt lat="44.519191" lon="11.3702925"><ele>35.33333333333333</ele><time>2026-04-12T09:37:08.979Z</time></trkpt><trkpt lat="44.5190945" lon="11.3705655"><ele>35.666666666666664</ele><time>2026-04-12T09:37:09.978Z</time></trkpt><trkpt lat="44.5189926" lon="11.3708405"><ele>36.0</ele><time>2026-04-12T09:37:10.977Z</time></trkpt><trkpt lat="44.5188851" lon="11.3711127"><ele>36.5</ele><time>2026-04-12T09:37:11.978Z</time></trkpt><trkpt lat="44.5187647" lon="11.3713784"><ele>37.0</ele><time>2026-04-12T09:37:12.979Z</time></trkpt><trkpt lat="44.5186381" lon="11.3716397"><ele>37.0</ele><time>2026-04-12T09:37:13.979Z</time></trkpt><trkpt lat="44.5185063" lon="11.3718968"><ele>37.0</ele><time>2026-04-12T09:37:14.978Z</time></trkpt><trkpt lat="44.5183671" lon="11.3721448"><ele>36.66666666666667</ele><time>2026-04-12T09:37:15.978Z</time></trkpt><trkpt lat="44.5182272" lon="11.372388"><ele>36.333333333333336</ele><time>2026-04-12T09:37:16.977Z</time></trkpt><trkpt lat="44.5180869" lon="11.372631"><ele>36.0</ele><time>2026-04-12T09:37:17.978Z</time></trkpt><trkpt lat="44.5179496" lon="11.3728603"><ele>36.666666666666664</ele><time>2026-04-12T09:37:18.977Z</time></trkpt><trkpt lat="44.517818" lon="11.3730797"><ele>37.33333333333333</ele><time>2026-04-12T09:37:19.977Z</time></trkpt><trkpt lat="44.5176924" lon="11.3732896"><ele>38.0</ele><time>2026-04-12T09:37:20.979Z</time></trkpt><trkpt lat="44.5175694" lon="11.3734979"><ele>38.0</ele><time>2026-04-12T09:37:21.978Z</time></trkpt><trkpt lat="44.5174512" lon="11.3737045"><ele>38.0</ele><time>2026-04-12T09:37:22.977Z</time></trkpt><trkpt lat="44.5173357" lon="11.3739053"><ele>38.0</ele><time>2026-04-12T09:37:23.978Z</time></trkpt><trkpt lat="44.5172228" lon="11.3741015"><ele>38.0</ele><time>2026-04-12T09:37:24.978Z</time></trkpt><trkpt lat="44.5171101" lon="11.3742923"><ele>38.0</ele><time>2026-04-12T09:37:25.978Z</time></trkpt><trkpt lat="44.5169955" lon="11.3744831"><ele>38.0</ele><time>2026-04-12T09:37:26.978Z</time></trkpt><trkpt lat="44.5168712" lon="11.3746755"><ele>37.33333333333333</ele><time>2026-04-12T09:37:27.979Z</time></trkpt><trkpt lat="44.5167379" lon="11.3748685"><ele>36.666666666666664</ele><time>2026-04-12T09:37:28.979Z</time></trkpt><trkpt lat="44.5166005" lon="11.3750626"><ele>36.0</ele><time>2026-04-12T09:37:29.976Z</time></trkpt><trkpt lat="44.516459" lon="11.3752569"><ele>36.0</ele><time>2026-04-12T09:37:30.978Z</time></trkpt><trkpt lat="44.5163063" lon="11.3754522"><ele>36.0</ele><time>2026-04-12T09:37:31.977Z</time></trkpt><trkpt lat="44.5161459" lon="11.3756476"><ele>36.0</ele><time>2026-04-12T09:37:32.977Z</time></trkpt><trkpt lat="44.5159761" lon="11.3758387"><ele>36.666666666666664</ele><time>2026-04-12T09:37:33.979Z</time></trkpt><trkpt lat="44.5157989" lon="11.3760244"><ele>37.33333333333333</ele><time>2026-04-12T09:37:34.978Z</time></trkpt><trkpt lat="44.5156158" lon="11.3762074"><ele>38.0</ele><time>2026-04-12T09:37:35.978Z</time></trkpt><trkpt lat="44.5154272" lon="11.3763872"><ele>41.0</ele><time>2026-04-12T09:37:36.978Z</time></trkpt><trkpt lat="44.5152363" lon="11.3765602"><ele>44.0</ele><time>2026-04-12T09:37:37.978Z</time></trkpt><trkpt lat="44.5150456" lon="11.3767271"><ele>44.0</ele><time>2026-04-12T09:37:38.978Z</time></trkpt><trkpt lat="44.5148547" lon="11.3768908"><ele>44.0</ele><time>2026-04-12T09:37:39.978Z</time></trkpt><trkpt lat="44.5146597" lon="11.37705"><ele>44.0</ele><time>2026-04-12T09:37:40.979Z</time></trkpt><trkpt lat="44.5144635" lon="11.3772055"><ele>42.5</ele><time>2026-04-12T09:37:41.978Z</time></trkpt><trkpt lat="44.5142671" lon="11.3773628"><ele>41.0</ele><time>2026-04-12T09:37:42.979Z</time></trkpt><trkpt lat="44.514069" lon="11.3775189"><ele>41.0</ele><time>2026-04-12T09:37:43.979Z</time></trkpt><trkpt lat="44.513873" lon="11.3776741"><ele>41.0</ele><time>2026-04-12T09:37:44.978Z</time></trkpt><trkpt lat="44.513676" lon="11.3778301"><ele>41.0</ele><time>2026-04-12T09:37:45.978Z</time></trkpt><trkpt lat="44.5134804" lon="11.3779852"><ele>41.0</ele><time>2026-04-12T09:37:46.977Z</time></trkpt><trkpt lat="44.5132831" lon="11.3781403"><ele>41.0</ele><time>2026-04-12T09:37:47.978Z</time></trkpt><trkpt lat="44.5130823" lon="11.3782973"><ele>41.0</ele><time>2026-04-12T09:37:48.977Z</time></trkpt><trkpt lat="44.5128824" lon="11.3784552"><ele>40.5</ele><time>2026-04-12T09:37:49.979Z</time></trkpt><trkpt lat="44.5126807" lon="11.3786141"><ele>40.0</ele><time>2026-04-12T09:37:50.978Z</time></trkpt><trkpt lat="44.5124775" lon="11.378774"><ele>40.0</ele><time>2026-04-12T09:37:51.976Z</time></trkpt><trkpt lat="44.5122742" lon="11.3789354"><ele>40.0</ele><time>2026-04-12T09:37:52.978Z</time></trkpt><trkpt lat="44.5120715" lon="11.3790929"><ele>40.0</ele><time>2026-04-12T09:37:53.977Z</time></trkpt><trkpt lat="44.511871" lon="11.3792496"><ele>40.0</ele><time>2026-04-12T09:37:54.978Z</time></trkpt><trkpt lat="44.5116713" lon="11.3794099"><ele>40.0</ele><time>2026-04-12T09:37:55.978Z</time></trkpt><trkpt lat="44.5114695" lon="11.3795698"><ele>40.0</ele><time>2026-04-12T09:37:56.978Z</time></trkpt><trkpt lat="44.5112706" lon="11.3797265"><ele>41.0</ele><time>2026-04-12T09:37:57.977Z</time></trkpt><trkpt lat="44.5110684" lon="11.3798821"><ele>42.0</ele><time>2026-04-12T09:37:58.978Z</time></trkpt><trkpt lat="44.5108622" lon="11.380039"><ele>42.0</ele><time>2026-04-12T09:37:59.979Z</time></trkpt><trkpt lat="44.5106504" lon="11.3801933"><ele>42.0</ele><time>2026-04-12T09:38:00.978Z</time></trkpt><trkpt lat="44.5104309" lon="11.3803422"><ele>42.5</ele><time>2026-04-12T09:38:01.978Z</time></trkpt><trkpt lat="44.5102035" lon="11.3804846"><ele>43.0</ele><time>2026-04-12T09:38:02.979Z</time></trkpt><trkpt lat="44.509974" lon="11.3806135"><ele>43.0</ele><time>2026-04-12T09:38:03.977Z</time></trkpt><trkpt lat="44.5097398" lon="11.3807299"><ele>43.0</ele><time>2026-04-12T09:38:04.978Z</time></trkpt><trkpt lat="44.5095029" lon="11.3808344"><ele>45.0</ele><time>2026-04-12T09:38:05.978Z</time></trkpt><trkpt lat="44.5092703" lon="11.3809218"><ele>47.0</ele><time>2026-04-12T09:38:06.978Z</time></trkpt><trkpt lat="44.509042" lon="11.3809945"><ele>47.0</ele><time>2026-04-12T09:38:07.978Z</time></trkpt><trkpt lat="44.5088112" lon="11.3810647"><ele>47.0</ele><time>2026-04-12T09:38:08.977Z</time></trkpt><trkpt lat="44.5085818" lon="11.3811195"><ele>46.5</ele><time>2026-04-12T09:38:09.978Z</time></trkpt><trkpt lat="44.5083528" lon="11.3811601"><ele>46.0</ele><time>2026-04-12T09:38:10.977Z</time></trkpt><trkpt lat="44.5081237" lon="11.3811894"><ele>46.0</ele><time>2026-04-12T09:38:11.977Z</time></trkpt><trkpt lat="44.50789" lon="11.3812098"><ele>46.0</ele><time>2026-04-12T09:38:12.978Z</time></trkpt><trkpt lat="44.5076572" lon="11.3812259"><ele>46.0</ele><time>2026-04-12T09:38:13.977Z</time></trkpt><trkpt lat="44.5074245" lon="11.3812359"><ele>46.0</ele><time>2026-04-12T09:38:14.979Z</time></trkpt><trkpt lat="44.5071931" lon="11.3812367"><ele>46.5</ele><time>2026-04-12T09:38:15.978Z</time></trkpt><trkpt lat="44.506971" lon="11.3812323"><ele>47.0</ele><time>2026-04-12T09:38:16.977Z</time></trkpt><trkpt lat="44.5067402" lon="11.3812384"><ele>47.0</ele><time>2026-04-12T09:38:17.977Z</time></trkpt><trkpt lat="44.5065065" lon="11.3812453"><ele>47.0</ele><time>2026-04-12T09:38:18.979Z</time></trkpt><trkpt lat="44.5062635" lon="11.3812546"><ele>47.5</ele><time>2026-04-12T09:38:19.978Z</time></trkpt><trkpt lat="44.5060299" lon="11.3812759"><ele>48.0</ele><time>2026-04-12T09:38:20.978Z</time></trkpt><trkpt lat="44.5058036" lon="11.3813057"><ele>48.0</ele><time>2026-04-12T09:38:21.978Z</time></trkpt><trkpt lat="44.5055705" lon="11.3813408"><ele>48.0</ele><time>2026-04-12T09:38:22.978Z</time></trkpt><trkpt lat="44.5053341" lon="11.3813858"><ele>47.0</ele><time>2026-04-12T09:38:23.977Z</time></trkpt><trkpt lat="44.5050838" lon="11.3814471"><ele>46.0</ele><time>2026-04-12T09:38:24.978Z</time></trkpt><trkpt lat="44.5048248" lon="11.3815241"><ele>45.0</ele><time>2026-04-12T09:38:25.977Z</time></trkpt><trkpt lat="44.5045751" lon="11.3816057"><ele>44.0</ele><time>2026-04-12T09:38:26.978Z</time></trkpt><trkpt lat="44.5043429" lon="11.3817004"><ele>44.0</ele><time>2026-04-12T09:38:27.978Z</time></trkpt><trkpt lat="44.5041139" lon="11.3818056"><ele>44.0</ele><time>2026-04-12T09:38:28.977Z</time></trkpt><trkpt lat="44.503893" lon="11.3819212"><ele>44.0</ele><time>2026-04-12T09:38:29.977Z</time></trkpt><trkpt lat="44.5036776" lon="11.382049"><ele>44.0</ele><time>2026-04-12T09:38:30.977Z</time></trkpt><trkpt lat="44.5034635" lon="11.3821887"><ele>44.0</ele><time>2026-04-12T09:38:31.977Z</time></trkpt><trkpt lat="44.503255" lon="11.3823392"><ele>44.0</ele><time>2026-04-12T09:38:32.978Z</time></trkpt><trkpt lat="44.503047" lon="11.3825003"><ele>46.0</ele><time>2026-04-12T09:38:33.977Z</time></trkpt><trkpt lat="44.5028374" lon="11.3826719"><ele>48.0</ele><time>2026-04-12T09:38:34.977Z</time></trkpt><trkpt lat="44.5026289" lon="11.3828448"><ele>48.0</ele><time>2026-04-12T09:38:35.978Z</time></trkpt><trkpt lat="44.5024226" lon="11.3830257"><ele>48.0</ele><time>2026-04-12T09:38:36.978Z</time></trkpt><trkpt lat="44.5022155" lon="11.38321"><ele>48.0</ele><time>2026-04-12T09:38:37.977Z</time></trkpt><trkpt lat="44.5020094" lon="11.3833922"><ele>48.0</ele><time>2026-04-12T09:38:38.979Z</time></trkpt><trkpt lat="44.5018001" lon="11.3835703"><ele>48.0</ele><time>2026-04-12T09:38:39.977Z</time></trkpt><trkpt lat="44.501589" lon="11.383745"><ele>48.0</ele><time>2026-04-12T09:38:40.977Z</time></trkpt><trkpt lat="44.5013803" lon="11.3839164"><ele>49.5</ele><time>2026-04-12T09:38:41.979Z</time></trkpt><trkpt lat="44.5011759" lon="11.3840872"><ele>51.0</ele><time>2026-04-12T09:38:42.977Z</time></trkpt><trkpt lat="44.5009785" lon="11.3842585"><ele>51.0</ele><time>2026-04-12T09:38:43.977Z</time></trkpt><trkpt lat="44.5007849" lon="11.3844294"><ele>51.0</ele><time>2026-04-12T09:38:44.978Z</time></trkpt><trkpt lat="44.5005915" lon="11.3845993"><ele>49.0</ele><time>2026-04-12T09:38:45.977Z</time></trkpt><trkpt lat="44.5003983" lon="11.3847674"><ele>47.0</ele><time>2026-04-12T09:38:46.979Z</time></trkpt><trkpt lat="44.5002033" lon="11.3849356"><ele>47.0</ele><time>2026-04-12T09:38:47.977Z</time></trkpt><trkpt lat="44.5000089" lon="11.3851055"><ele>47.0</ele><time>2026-04-12T09:38:48.979Z</time></trkpt><trkpt lat="44.4998161" lon="11.3852736"><ele>47.0</ele><time>2026-04-12T09:38:49.977Z</time></trkpt><trkpt lat="44.4996201" lon="11.3854447"><ele>47.0</ele><time>2026-04-12T09:38:50.98Z</time></trkpt><trkpt lat="44.4994215" lon="11.3856204"><ele>49.0</ele><time>2026-04-12T09:38:51.978Z</time></trkpt><trkpt lat="44.4992203" lon="11.3857968"><ele>51.0</ele><time>2026-04-12T09:38:52.977Z</time></trkpt><trkpt lat="44.4990175" lon="11.3859732"><ele>51.0</ele><time>2026-04-12T09:38:53.978Z</time></trkpt><trkpt lat="44.4988158" lon="11.3861474"><ele>51.0</ele><time>2026-04-12T09:38:54.979Z</time></trkpt><trkpt lat="44.4986158" lon="11.3863197"><ele>52.0</ele><time>2026-04-12T09:38:55.978Z</time></trkpt><trkpt lat="44.4984151" lon="11.3864972"><ele>53.0</ele><time>2026-04-12T09:38:56.979Z</time></trkpt><trkpt lat="44.4982131" lon="11.3866748"><ele>53.0</ele><time>2026-04-12T09:38:57.977Z</time></trkpt><trkpt lat="44.4980144" lon="11.3868528"><ele>53.0</ele><time>2026-04-12T09:38:58.978Z</time></trkpt><trkpt lat="44.4978168" lon="11.3870263"><ele>51.5</ele><time>2026-04-12T09:38:59.978Z</time></trkpt><trkpt lat="44.4976183" lon="11.3872013"><ele>50.0</ele><time>2026-04-12T09:39:00.979Z</time></trkpt><trkpt lat="44.4974195" lon="11.3873765"><ele>50.0</ele><time>2026-04-12T09:39:01.979Z</time></trkpt><trkpt lat="44.4972215" lon="11.3875508"><ele>50.0</ele><time>2026-04-12T09:39:02.978Z</time></trkpt><trkpt lat="44.4970266" lon="11.3877242"><ele>49.0</ele><time>2026-04-12T09:39:03.979Z</time></trkpt><trkpt lat="44.4968273" lon="11.3878992"><ele>48.0</ele><time>2026-04-12T09:39:04.977Z</time></trkpt><trkpt lat="44.4966288" lon="11.388071"><ele>48.0</ele><time>2026-04-12T09:39:05.979Z</time></trkpt><trkpt lat="44.4964313" lon="11.388244"><ele>48.0</ele><time>2026-04-12T09:39:06.978Z</time></trkpt><trkpt lat="44.4962347" lon="11.3884169"><ele>49.0</ele><time>2026-04-12T09:39:07.979Z</time></trkpt><trkpt lat="44.4960373" lon="11.3885914"><ele>50.0</ele><time>2026-04-12T09:39:08.977Z</time></trkpt><trkpt lat="44.4958403" lon="11.3887655"><ele>50.0</ele><time>2026-04-12T09:39:09.976Z</time></trkpt><trkpt lat="44.495642" lon="11.3889384"><ele>50.0</ele><time>2026-04-12T09:39:10.977Z</time></trkpt><trkpt lat="44.4954453" lon="11.3891098"><ele>49.0</ele><time>2026-04-12T09:39:11.978Z</time></trkpt><trkpt lat="44.495247" lon="11.3892837"><ele>48.0</ele><time>2026-04-12T09:39:12.978Z</time></trkpt><trkpt lat="44.4950521" lon="11.3894566"><ele>48.0</ele><time>2026-04-12T09:39:13.978Z</time></trkpt><trkpt lat="44.494856" lon="11.389631"><ele>48.0</ele><time>2026-04-12T09:39:14.979Z</time></trkpt><trkpt lat="44.4946611" lon="11.3898047"><ele>49.5</ele><time>2026-04-12T09:39:15.981Z</time></trkpt><trkpt lat="44.4944697" lon="11.3899768"><ele>51.0</ele><time>2026-04-12T09:39:16.978Z</time></trkpt><trkpt lat="44.4942766" lon="11.3901488"><ele>51.0</ele><time>2026-04-12T09:39:17.979Z</time></trkpt><trkpt lat="44.4940859" lon="11.3903215"><ele>51.0</ele><time>2026-04-12T09:39:18.978Z</time></trkpt><trkpt lat="44.4938941" lon="11.3904948"><ele>51.0</ele><time>2026-04-12T09:39:19.981Z</time></trkpt><trkpt lat="44.4937009" lon="11.3906677"><ele>51.0</ele><time>2026-04-12T09:39:20.979Z</time></trkpt><trkpt lat="44.4935063" lon="11.3908431"><ele>51.0</ele><time>2026-04-12T09:39:21.979Z</time></trkpt><trkpt lat="44.4933157" lon="11.3910141"><ele>51.0</ele><time>2026-04-12T09:39:22.978Z</time></trkpt><trkpt lat="44.4931253" lon="11.3911884"><ele>51.0</ele><time>2026-04-12T09:39:23.979Z</time></trkpt><trkpt lat="44.492935" lon="11.3913625"><ele>51.0</ele><time>2026-04-12T09:39:24.978Z</time></trkpt><trkpt lat="44.4927456" lon="11.3915318"><ele>52.0</ele><time>2026-04-12T09:39:25.979Z</time></trkpt><trkpt lat="44.4925561" lon="11.3916966"><ele>53.0</ele><time>2026-04-12T09:39:26.978Z</time></trkpt><trkpt lat="44.4923632" lon="11.3918656"><ele>53.0</ele><time>2026-04-12T09:39:27.979Z</time></trkpt><trkpt lat="44.4921707" lon="11.39204"><ele>53.0</ele><time>2026-04-12T09:39:28.978Z</time></trkpt><trkpt lat="44.4919783" lon="11.3922105"><ele>52.5</ele><time>2026-04-12T09:39:29.978Z</time></trkpt><trkpt lat="44.4917896" lon="11.3923826"><ele>52.0</ele><time>2026-04-12T09:39:30.977Z</time></trkpt><trkpt lat="44.4916026" lon="11.3925666"><ele>52.0</ele><time>2026-04-12T09:39:31.978Z</time></trkpt><trkpt lat="44.4914209" lon="11.392757"><ele>52.0</ele><time>2026-04-12T09:39:32.978Z</time></trkpt><trkpt lat="44.4912435" lon="11.3929474"><ele>52.666666666666664</ele><time>2026-04-12T09:39:33.977Z</time></trkpt><trkpt lat="44.4910691" lon="11.3931428"><ele>53.33333333333333</ele><time>2026-04-12T09:39:34.979Z</time></trkpt><trkpt lat="44.4908973" lon="11.393343"><ele>54.0</ele><time>2026-04-12T09:39:35.978Z</time></trkpt><trkpt lat="44.4907266" lon="11.3935513"><ele>54.0</ele><time>2026-04-12T09:39:36.978Z</time></trkpt><trkpt lat="44.4905607" lon="11.3937669"><ele>54.0</ele><time>2026-04-12T09:39:37.977Z</time></trkpt><trkpt lat="44.4903988" lon="11.3939879"><ele>54.0</ele><time>2026-04-12T09:39:38.979Z</time></trkpt><trkpt lat="44.4902425" lon="11.3942175"><ele>54.0</ele><time>2026-04-12T09:39:39.978Z</time></trkpt><trkpt lat="44.4900889" lon="11.39445"><ele>53.5</ele><time>2026-04-12T09:39:40.977Z</time></trkpt><trkpt lat="44.4899375" lon="11.3946907"><ele>53.0</ele><time>2026-04-12T09:39:41.98Z</time></trkpt><trkpt lat="44.4897931" lon="11.3949367"><ele>53.0</ele><time>2026-04-12T09:39:42.979Z</time></trkpt><trkpt lat="44.4896556" lon="11.3951872"><ele>53.0</ele><time>2026-04-12T09:39:43.977Z</time></trkpt><trkpt lat="44.4895255" lon="11.395446"><ele>52.5</ele><time>2026-04-12T09:39:44.978Z</time></trkpt><trkpt lat="44.4893928" lon="11.3957131"><ele>52.0</ele><time>2026-04-12T09:39:45.978Z</time></trkpt><trkpt lat="44.4892655" lon="11.3959798"><ele>52.0</ele><time>2026-04-12T09:39:46.979Z</time></trkpt><trkpt lat="44.4891393" lon="11.3962536"><ele>52.0</ele><time>2026-04-12T09:39:47.977Z</time></trkpt><trkpt lat="44.4890184" lon="11.3965311"><ele>52.0</ele><time>2026-04-12T09:39:48.978Z</time></trkpt><trkpt lat="44.4888991" lon="11.396809"><ele>52.0</ele><time>2026-04-12T09:39:49.978Z</time></trkpt><trkpt lat="44.4887858" lon="11.3970883"><ele>53.0</ele><time>2026-04-12T09:39:50.982Z</time></trkpt><trkpt lat="44.488676" lon="11.3973712"><ele>54.0</ele><time>2026-04-12T09:39:51.979Z</time></trkpt><trkpt lat="44.4885718" lon="11.3976565"><ele>54.0</ele><time>2026-04-12T09:39:52.978Z</time></trkpt><trkpt lat="44.4884733" lon="11.3979477"><ele>54.0</ele><time>2026-04-12T09:39:53.977Z</time></trkpt><trkpt lat="44.4883774" lon="11.3982391"><ele>53.0</ele><time>2026-04-12T09:39:54.978Z</time></trkpt><trkpt lat="44.4882821" lon="11.3985309"><ele>52.0</ele><time>2026-04-12T09:39:55.979Z</time></trkpt><trkpt lat="44.488187" lon="11.3988212"><ele>52.0</ele><time>2026-04-12T09:39:56.979Z</time></trkpt><trkpt lat="44.4880932" lon="11.3991063"><ele>52.0</ele><time>2026-04-12T09:39:57.978Z</time></trkpt><trkpt lat="44.4879987" lon="11.399396"><ele>51.5</ele><time>2026-04-12T09:39:58.977Z</time></trkpt><trkpt lat="44.487902" lon="11.3996863"><ele>51.0</ele><time>2026-04-12T09:39:59.978Z</time></trkpt><trkpt lat="44.4878066" lon="11.3999783"><ele>51.0</ele><time>2026-04-12T09:40:00.978Z</time></trkpt><trkpt lat="44.487711" lon="11.400264"><ele>51.0</ele><time>2026-04-12T09:40:01.978Z</time></trkpt><trkpt lat="44.487615" lon="11.4005493"><ele>51.5</ele><time>2026-04-12T09:40:02.979Z</time></trkpt><trkpt lat="44.4875199" lon="11.4008368"><ele>52.0</ele><time>2026-04-12T09:40:03.978Z</time></trkpt><trkpt lat="44.487427" lon="11.4011326"><ele>52.5</ele><time>2026-04-12T09:40:04.978Z</time></trkpt><trkpt lat="44.4873324" lon="11.4014328"><ele>53.0</ele><time>2026-04-12T09:40:05.978Z</time></trkpt><trkpt lat="44.4872354" lon="11.4017388"><ele>53.0</ele><time>2026-04-12T09:40:06.978Z</time></trkpt><trkpt lat="44.487132" lon="11.4020475"><ele>53.0</ele><time>2026-04-12T09:40:07.977Z</time></trkpt><trkpt lat="44.4870259" lon="11.4023549"><ele>53.0</ele><time>2026-04-12T09:40:08.978Z</time></trkpt><trkpt lat="44.4869157" lon="11.4026629"><ele>53.0</ele><time>2026-04-12T09:40:09.977Z</time></trkpt><trkpt lat="44.4868081" lon="11.4029682"><ele>53.5</ele><time>2026-04-12T09:40:10.979Z</time></trkpt><trkpt lat="44.4867026" lon="11.4032715"><ele>54.0</ele><time>2026-04-12T09:40:11.978Z</time></trkpt><trkpt lat="44.4865995" lon="11.4035717"><ele>53.5</ele><time>2026-04-12T09:40:12.977Z</time></trkpt><trkpt lat="44.4864994" lon="11.403875"><ele>53.0</ele><time>2026-04-12T09:40:13.978Z</time></trkpt><trkpt lat="44.4863975" lon="11.4041814"><ele>53.0</ele><time>2026-04-12T09:40:14.979Z</time></trkpt><trkpt lat="44.4862962" lon="11.4044775"><ele>53.0</ele><time>2026-04-12T09:40:15.977Z</time></trkpt><trkpt lat="44.4861956" lon="11.4047743"><ele>52.0</ele><time>2026-04-12T09:40:16.978Z</time></trkpt><trkpt lat="44.4860976" lon="11.4050708"><ele>51.0</ele><time>2026-04-12T09:40:17.979Z</time></trkpt><trkpt lat="44.4859998" lon="11.4053656"><ele>51.5</ele><time>2026-04-12T09:40:18.978Z</time></trkpt><trkpt lat="44.4859038" lon="11.4056604"><ele>52.0</ele><time>2026-04-12T09:40:19.978Z</time></trkpt><trkpt lat="44.4858076" lon="11.4059549"><ele>52.0</ele><time>2026-04-12T09:40:20.979Z</time></trkpt><trkpt lat="44.4857109" lon="11.4062482"><ele>52.0</ele><time>2026-04-12T09:40:21.978Z</time></trkpt><trkpt lat="44.4856159" lon="11.4065386"><ele>52.5</ele><time>2026-04-12T09:40:22.979Z</time></trkpt><trkpt lat="44.4855208" lon="11.4068285"><ele>53.0</ele><time>2026-04-12T09:40:23.98Z</time></trkpt><trkpt lat="44.4854254" lon="11.407119"><ele>52.0</ele><time>2026-04-12T09:40:24.978Z</time></trkpt><trkpt lat="44.4853296" lon="11.4074088"><ele>51.0</ele><time>2026-04-12T09:40:25.98Z</time></trkpt><trkpt lat="44.4852332" lon="11.4076985"><ele>51.0</ele><time>2026-04-12T09:40:26.98Z</time></trkpt><trkpt lat="44.4851364" lon="11.4079875"><ele>51.0</ele><time>2026-04-12T09:40:27.979Z</time></trkpt><trkpt lat="44.4850417" lon="11.4082767"><ele>52.5</ele><time>2026-04-12T09:40:28.978Z</time></trkpt><trkpt lat="44.4849456" lon="11.4085639"><ele>54.0</ele><time>2026-04-12T09:40:29.979Z</time></trkpt><trkpt lat="44.4848494" lon="11.4088531"><ele>54.5</ele><time>2026-04-12T09:40:30.977Z</time></trkpt><trkpt lat="44.4847535" lon="11.4091422"><ele>55.0</ele><time>2026-04-12T09:40:31.978Z</time></trkpt><trkpt lat="44.4846555" lon="11.4094352"><ele>54.5</ele><time>2026-04-12T09:40:32.98Z</time></trkpt><trkpt lat="44.484557" lon="11.409726"><ele>54.0</ele><time>2026-04-12T09:40:33.977Z</time></trkpt><trkpt lat="44.484458" lon="11.4100161"><ele>54.0</ele><time>2026-04-12T09:40:34.977Z</time></trkpt><trkpt lat="44.4843617" lon="11.4103056"><ele>54.0</ele><time>2026-04-12T09:40:35.978Z</time></trkpt><trkpt lat="44.4842651" lon="11.4105972"><ele>55.5</ele><time>2026-04-12T09:40:36.977Z</time></trkpt><trkpt lat="44.4841672" lon="11.4108925"><ele>57.0</ele><time>2026-04-12T09:40:37.978Z</time></trkpt><trkpt lat="44.4840702" lon="11.4111868"><ele>56.0</ele><time>2026-04-12T09:40:38.978Z</time></trkpt><trkpt lat="44.4839737" lon="11.411482"><ele>55.0</ele><time>2026-04-12T09:40:39.978Z</time></trkpt><trkpt lat="44.4838765" lon="11.4117759"><ele>55.0</ele><time>2026-04-12T09:40:40.978Z</time></trkpt><trkpt lat="44.4837813" lon="11.4120726"><ele>55.0</ele><time>2026-04-12T09:40:41.977Z</time></trkpt><trkpt lat="44.4836854" lon="11.4123704"><ele>56.5</ele><time>2026-04-12T09:40:42.979Z</time></trkpt><trkpt lat="44.4835878" lon="11.4126701"><ele>58.0</ele><time>2026-04-12T09:40:43.979Z</time></trkpt><trkpt lat="44.4834867" lon="11.4129714"><ele>55.5</ele><time>2026-04-12T09:40:44.978Z</time></trkpt><trkpt lat="44.483383" lon="11.4132719"><ele>53.0</ele><time>2026-04-12T09:40:45.978Z</time></trkpt><trkpt lat="44.483279" lon="11.4135737"><ele>53.0</ele><time>2026-04-12T09:40:46.979Z</time></trkpt><trkpt lat="44.4831765" lon="11.4138791"><ele>53.0</ele><time>2026-04-12T09:40:47.979Z</time></trkpt><trkpt lat="44.4830763" lon="11.4141867"><ele>53.0</ele><time>2026-04-12T09:40:48.977Z</time></trkpt><trkpt lat="44.4829749" lon="11.4144979"><ele>53.0</ele><time>2026-04-12T09:40:49.979Z</time></trkpt><trkpt lat="44.4828718" lon="11.4148081"><ele>51.0</ele><time>2026-04-12T09:40:50.979Z</time></trkpt><trkpt lat="44.4827661" lon="11.4151138"><ele>49.0</ele><time>2026-04-12T09:40:51.978Z</time></trkpt><trkpt lat="44.482663" lon="11.4154183"><ele>51.0</ele><time>2026-04-12T09:40:52.979Z</time></trkpt><trkpt lat="44.4825607" lon="11.4157223"><ele>53.0</ele><time>2026-04-12T09:40:53.978Z</time></trkpt><trkpt lat="44.4824582" lon="11.4160243"><ele>53.0</ele><time>2026-04-12T09:40:54.979Z</time></trkpt><trkpt lat="44.482357" lon="11.4163254"><ele>53.0</ele><time>2026-04-12T09:40:55.978Z</time></trkpt><trkpt lat="44.4822574" lon="11.4166228"><ele>53.0</ele><time>2026-04-12T09:40:56.979Z</time></trkpt><trkpt lat="44.482158" lon="11.4169197"><ele>53.0</ele><time>2026-04-12T09:40:57.977Z</time></trkpt><trkpt lat="44.4820588" lon="11.4172136"><ele>53.0</ele><time>2026-04-12T09:40:58.978Z</time></trkpt><trkpt lat="44.4819609" lon="11.4175081"><ele>53.0</ele><time>2026-04-12T09:40:59.977Z</time></trkpt><trkpt lat="44.4818642" lon="11.4178038"><ele>52.5</ele><time>2026-04-12T09:41:00.978Z</time></trkpt><trkpt lat="44.4817683" lon="11.4180972"><ele>52.0</ele><time>2026-04-12T09:41:01.978Z</time></trkpt><trkpt lat="44.4816706" lon="11.4183902"><ele>52.0</ele><time>2026-04-12T09:41:02.978Z</time></trkpt><trkpt lat="44.4815737" lon="11.4186835"><ele>52.0</ele><time>2026-04-12T09:41:03.978Z</time></trkpt><trkpt lat="44.4814767" lon="11.4189757"><ele>52.5</ele><time>2026-04-12T09:41:04.977Z</time></trkpt><trkpt lat="44.4813822" lon="11.4192658"><ele>53.0</ele><time>2026-04-12T09:41:05.978Z</time></trkpt><trkpt lat="44.481289" lon="11.4195569"><ele>52.0</ele><time>2026-04-12T09:41:06.978Z</time></trkpt><trkpt lat="44.4811986" lon="11.4198536"><ele>51.0</ele><time>2026-04-12T09:41:07.978Z</time></trkpt><trkpt lat="44.4811088" lon="11.4201494"><ele>51.0</ele><time>2026-04-12T09:41:08.979Z</time></trkpt><trkpt lat="44.481027" lon="11.4204461"><ele>51.0</ele><time>2026-04-12T09:41:09.977Z</time></trkpt><trkpt lat="44.4809458" lon="11.4207453"><ele>51.5</ele><time>2026-04-12T09:41:10.979Z</time></trkpt><trkpt lat="44.4808627" lon="11.4210439"><ele>52.0</ele><time>2026-04-12T09:41:11.978Z</time></trkpt><trkpt lat="44.4807828" lon="11.4213447"><ele>52.0</ele><time>2026-04-12T09:41:12.979Z</time></trkpt><trkpt lat="44.4807062" lon="11.4216495"><ele>52.0</ele><time>2026-04-12T09:41:13.979Z</time></trkpt><trkpt lat="44.4806352" lon="11.4219507"><ele>51.5</ele><time>2026-04-12T09:41:14.978Z</time></trkpt><trkpt lat="44.480573" lon="11.4222572"><ele>51.0</ele><time>2026-04-12T09:41:15.979Z</time></trkpt><trkpt lat="44.4805201" lon="11.4225647"><ele>51.0</ele><time>2026-04-12T09:41:16.977Z</time></trkpt><trkpt lat="44.4804712" lon="11.422874"><ele>51.0</ele><time>2026-04-12T09:41:17.978Z</time></trkpt><trkpt lat="44.4804228" lon="11.4231782"><ele>51.0</ele><time>2026-04-12T09:41:18.977Z</time></trkpt><trkpt lat="44.4803725" lon="11.4234787"><ele>50.33333333333333</ele><time>2026-04-12T09:41:19.977Z</time></trkpt><trkpt lat="44.4803239" lon="11.4237753"><ele>49.666666666666664</ele><time>2026-04-12T09:41:20.978Z</time></trkpt><trkpt lat="44.4802769" lon="11.4240728"><ele>49.0</ele><time>2026-04-12T09:41:21.979Z</time></trkpt><trkpt lat="44.4802326" lon="11.4243693"><ele>48.666666666666664</ele><time>2026-04-12T09:41:22.979Z</time></trkpt><trkpt lat="44.4801904" lon="11.4246643"><ele>48.33333333333333</ele><time>2026-04-12T09:41:23.977Z</time></trkpt><trkpt lat="44.4801468" lon="11.4249588"><ele>48.0</ele><time>2026-04-12T09:41:24.978Z</time></trkpt><trkpt lat="44.4801018" lon="11.4252552"><ele>48.66666666666667</ele><time>2026-04-12T09:41:25.977Z</time></trkpt><trkpt lat="44.4800596" lon="11.425549"><ele>49.333333333333336</ele><time>2026-04-12T09:41:26.978Z</time></trkpt><trkpt lat="44.48002" lon="11.4258442"><ele>50.0</ele><time>2026-04-12T09:41:27.977Z</time></trkpt><trkpt lat="44.4799897" lon="11.4261449"><ele>50.0</ele><time>2026-04-12T09:41:28.978Z</time></trkpt><trkpt lat="44.4799682" lon="11.4264449"><ele>50.0</ele><time>2026-04-12T09:41:29.977Z</time></trkpt><trkpt lat="44.4799503" lon="11.4267502"><ele>50.0</ele><time>2026-04-12T09:41:30.978Z</time></trkpt><trkpt lat="44.4799367" lon="11.42706"><ele>50.0</ele><time>2026-04-12T09:41:31.979Z</time></trkpt><trkpt lat="44.4799194" lon="11.4273727"><ele>50.0</ele><time>2026-04-12T09:41:32.98Z</time></trkpt><trkpt lat="44.4798924" lon="11.4276852"><ele>50.0</ele><time>2026-04-12T09:41:33.977Z</time></trkpt><trkpt lat="44.4798508" lon="11.4279974"><ele>49.5</ele><time>2026-04-12T09:41:34.978Z</time></trkpt><trkpt lat="44.4798055" lon="11.4283095"><ele>49.0</ele><time>2026-04-12T09:41:35.978Z</time></trkpt><trkpt lat="44.4797647" lon="11.4286237"><ele>51.5</ele><time>2026-04-12T09:41:36.978Z</time></trkpt><trkpt lat="44.4797282" lon="11.4289434"><ele>54.0</ele><time>2026-04-12T09:41:37.979Z</time></trkpt><trkpt lat="44.4797048" lon="11.4292669"><ele>54.0</ele><time>2026-04-12T09:41:38.978Z</time></trkpt><trkpt lat="44.4796965" lon="11.4295939"><ele>54.0</ele><time>2026-04-12T09:41:39.977Z</time></trkpt><trkpt lat="44.4797017" lon="11.4299345"><ele>52.5</ele><time>2026-04-12T09:41:40.977Z</time></trkpt><trkpt lat="44.4797205" lon="11.4302934"><ele>51.0</ele><time>2026-04-12T09:41:41.978Z</time></trkpt><trkpt lat="44.4797532" lon="11.4306744"><ele>50.0</ele><time>2026-04-12T09:41:42.977Z</time></trkpt><trkpt lat="44.4797936" lon="11.4310741"><ele>49.0</ele><time>2026-04-12T09:41:43.978Z</time></trkpt><trkpt lat="44.4798381" lon="11.4314889"><ele>49.0</ele><time>2026-04-12T09:41:44.978Z</time></trkpt><trkpt lat="44.4798886" lon="11.4319011"><ele>49.0</ele><time>2026-04-12T09:41:45.978Z</time></trkpt><trkpt lat="44.479937" lon="11.4323106"><ele>49.0</ele><time>2026-04-12T09:41:46.977Z</time></trkpt><trkpt lat="44.4799836" lon="11.4327135"><ele>49.0</ele><time>2026-04-12T09:41:47.977Z</time></trkpt><trkpt lat="44.4800287" lon="11.4331108"><ele>49.0</ele><time>2026-04-12T09:41:48.977Z</time></trkpt><trkpt lat="44.4800702" lon="11.4335077"><ele>49.0</ele><time>2026-04-12T09:41:49.978Z</time></trkpt><trkpt lat="44.4801151" lon="11.4339078"><ele>49.0</ele><time>2026-04-12T09:41:50.978Z</time></trkpt><trkpt lat="44.4801597" lon="11.4343127"><ele>49.0</ele><time>2026-04-12T09:41:51.979Z</time></trkpt><trkpt lat="44.480202" lon="11.4347164"><ele>49.0</ele><time>2026-04-12T09:41:52.98Z</time></trkpt><trkpt lat="44.4802437" lon="11.4351245"><ele>49.0</ele><time>2026-04-12T09:41:53.978Z</time></trkpt><trkpt lat="44.480279" lon="11.4355307"><ele>48.5</ele><time>2026-04-12T09:41:54.978Z</time></trkpt><trkpt lat="44.4803068" lon="11.4359367"><ele>48.0</ele><time>2026-04-12T09:41:55.977Z</time></trkpt><trkpt lat="44.4803272" lon="11.4363393"><ele>46.5</ele><time>2026-04-12T09:41:56.978Z</time></trkpt><trkpt lat="44.4803419" lon="11.4367343"><ele>45.0</ele><time>2026-04-12T09:41:57.978Z</time></trkpt><trkpt lat="44.4803522" lon="11.4371203"><ele>45.0</ele><time>2026-04-12T09:41:58.977Z</time></trkpt><trkpt lat="44.4803588" lon="11.437499"><ele>45.0</ele><time>2026-04-12T09:41:59.978Z</time></trkpt><trkpt lat="44.4803617" lon="11.4378734"><ele>45.0</ele><time>2026-04-12T09:42:00.98Z</time></trkpt><trkpt lat="44.4803616" lon="11.4382446"><ele>45.0</ele><time>2026-04-12T09:42:01.978Z</time></trkpt><trkpt lat="44.4803605" lon="11.4386154"><ele>44.0</ele><time>2026-04-12T09:42:02.978Z</time></trkpt><trkpt lat="44.4803589" lon="11.4389839"><ele>43.0</ele><time>2026-04-12T09:42:03.977Z</time></trkpt><trkpt lat="44.4803606" lon="11.4393528"><ele>42.5</ele><time>2026-04-12T09:42:04.977Z</time></trkpt><trkpt lat="44.4803627" lon="11.439718"><ele>42.0</ele><time>2026-04-12T09:42:05.978Z</time></trkpt><trkpt lat="44.480364" lon="11.440081"><ele>42.0</ele><time>2026-04-12T09:42:06.978Z</time></trkpt><trkpt lat="44.4803645" lon="11.4404388"><ele>42.0</ele><time>2026-04-12T09:42:07.978Z</time></trkpt><trkpt lat="44.4803618" lon="11.4407973"><ele>43.0</ele><time>2026-04-12T09:42:08.978Z</time></trkpt><trkpt lat="44.4803582" lon="11.4411554"><ele>44.0</ele><time>2026-04-12T09:42:09.979Z</time></trkpt><trkpt lat="44.4803516" lon="11.4415115"><ele>44.0</ele><time>2026-04-12T09:42:10.978Z</time></trkpt><trkpt lat="44.4803411" lon="11.4418641"><ele>44.0</ele><time>2026-04-12T09:42:11.977Z</time></trkpt><trkpt lat="44.4803256" lon="11.4422143"><ele>44.5</ele><time>2026-04-12T09:42:12.977Z</time></trkpt><trkpt lat="44.4803055" lon="11.4425654"><ele>45.0</ele><time>2026-04-12T09:42:13.981Z</time></trkpt><trkpt lat="44.4802816" lon="11.4429175"><ele>46.0</ele><time>2026-04-12T09:42:14.978Z</time></trkpt><trkpt lat="44.4802503" lon="11.4432712"><ele>47.0</ele><time>2026-04-12T09:42:15.978Z</time></trkpt><trkpt lat="44.4802142" lon="11.4436244"><ele>49.0</ele><time>2026-04-12T09:42:16.978Z</time></trkpt><trkpt lat="44.4801706" lon="11.4439724"><ele>51.0</ele><time>2026-04-12T09:42:17.977Z</time></trkpt><trkpt lat="44.4801214" lon="11.4443204"><ele>50.5</ele><time>2026-04-12T09:42:18.979Z</time></trkpt><trkpt lat="44.4800674" lon="11.4446659"><ele>50.0</ele><time>2026-04-12T09:42:19.979Z</time></trkpt><trkpt lat="44.480007" lon="11.4450058"><ele>50.0</ele><time>2026-04-12T09:42:20.978Z</time></trkpt><trkpt lat="44.4799406" lon="11.4453467"><ele>50.0</ele><time>2026-04-12T09:42:21.979Z</time></trkpt><trkpt lat="44.4798717" lon="11.4456873"><ele>50.0</ele><time>2026-04-12T09:42:22.978Z</time></trkpt><trkpt lat="44.4797973" lon="11.4460198"><ele>50.0</ele><time>2026-04-12T09:42:23.979Z</time></trkpt><trkpt lat="44.4797159" lon="11.4463477"><ele>48.5</ele><time>2026-04-12T09:42:24.978Z</time></trkpt><trkpt lat="44.479631" lon="11.4466761"><ele>47.0</ele><time>2026-04-12T09:42:25.978Z</time></trkpt><trkpt lat="44.4795408" lon="11.4470055"><ele>46.5</ele><time>2026-04-12T09:42:26.979Z</time></trkpt><trkpt lat="44.4794485" lon="11.447331"><ele>46.0</ele><time>2026-04-12T09:42:27.978Z</time></trkpt><trkpt lat="44.479353" lon="11.4476521"><ele>47.0</ele><time>2026-04-12T09:42:28.978Z</time></trkpt><trkpt lat="44.4792584" lon="11.4479705"><ele>48.0</ele><time>2026-04-12T09:42:29.977Z</time></trkpt><trkpt lat="44.4791624" lon="11.4482824"><ele>48.0</ele><time>2026-04-12T09:42:30.977Z</time></trkpt><trkpt lat="44.479067" lon="11.4485962"><ele>48.0</ele><time>2026-04-12T09:42:31.978Z</time></trkpt><trkpt lat="44.4789733" lon="11.4489041"><ele>50.0</ele><time>2026-04-12T09:42:32.977Z</time></trkpt><trkpt lat="44.4788799" lon="11.4492108"><ele>52.0</ele><time>2026-04-12T09:42:33.977Z</time></trkpt><trkpt lat="44.4787873" lon="11.4495196"><ele>53.0</ele><time>2026-04-12T09:42:34.977Z</time></trkpt><trkpt lat="44.4786955" lon="11.4498267"><ele>54.0</ele><time>2026-04-12T09:42:35.977Z</time></trkpt><trkpt lat="44.4786032" lon="11.4501339"><ele>54.0</ele><time>2026-04-12T09:42:36.977Z</time></trkpt><trkpt lat="44.4785066" lon="11.4504462"><ele>54.0</ele><time>2026-04-12T09:42:37.978Z</time></trkpt><trkpt lat="44.4784059" lon="11.450766"><ele>53.0</ele><time>2026-04-12T09:42:38.978Z</time></trkpt><trkpt lat="44.4783051" lon="11.4510959"><ele>52.0</ele><time>2026-04-12T09:42:39.977Z</time></trkpt><trkpt lat="44.4782027" lon="11.4514376"><ele>52.0</ele><time>2026-04-12T09:42:40.98Z</time></trkpt><trkpt lat="44.4780969" lon="11.4517886"><ele>52.0</ele><time>2026-04-12T09:42:41.977Z</time></trkpt><trkpt lat="44.4779872" lon="11.4521501"><ele>53.0</ele><time>2026-04-12T09:42:42.978Z</time></trkpt><trkpt lat="44.4778753" lon="11.4525253"><ele>54.0</ele><time>2026-04-12T09:42:43.977Z</time></trkpt><trkpt lat="44.4777625" lon="11.4529077"><ele>53.0</ele><time>2026-04-12T09:42:44.979Z</time></trkpt><trkpt lat="44.4776459" lon="11.4533028"><ele>52.0</ele><time>2026-04-12T09:42:45.979Z</time></trkpt><trkpt lat="44.4775222" lon="11.4537146"><ele>52.0</ele><time>2026-04-12T09:42:46.977Z</time></trkpt><trkpt lat="44.4773928" lon="11.4541339"><ele>52.0</ele><time>2026-04-12T09:42:47.976Z</time></trkpt><trkpt lat="44.4772663" lon="11.4545368"><ele>52.0</ele><time>2026-04-12T09:42:48.977Z</time></trkpt><trkpt lat="44.4771455" lon="11.4549125"><ele>52.0</ele><time>2026-04-12T09:42:49.977Z</time></trkpt><trkpt lat="44.4770299" lon="11.4552681"><ele>52.0</ele><time>2026-04-12T09:42:50.977Z</time></trkpt><trkpt lat="44.4769204" lon="11.4556125"><ele>52.0</ele><time>2026-04-12T09:42:51.977Z</time></trkpt><trkpt lat="44.4768168" lon="11.4559458"><ele>52.0</ele><time>2026-04-12T09:42:52.977Z</time></trkpt><trkpt lat="44.4767162" lon="11.4562663"><ele>52.0</ele><time>2026-04-12T09:42:53.977Z</time></trkpt><trkpt lat="44.4766211" lon="11.4565738"><ele>52.0</ele><time>2026-04-12T09:42:54.977Z</time></trkpt><trkpt lat="44.4765318" lon="11.4568599"><ele>52.0</ele><time>2026-04-12T09:42:55.978Z</time></trkpt><trkpt lat="44.4764471" lon="11.45713"><ele>52.0</ele><time>2026-04-12T09:42:56.979Z</time></trkpt><trkpt lat="44.4763655" lon="11.4573854"><ele>52.0</ele><time>2026-04-12T09:42:57.98Z</time></trkpt><trkpt lat="44.4762873" lon="11.4576344"><ele>52.0</ele><time>2026-04-12T09:42:58.977Z</time></trkpt><trkpt lat="44.4762169" lon="11.457868"><ele>52.0</ele><time>2026-04-12T09:42:59.977Z</time></trkpt><trkpt lat="44.4761511" lon="11.4580758"><ele>51.75</ele><time>2026-04-12T09:43:00.977Z</time></trkpt><trkpt lat="44.4760909" lon="11.4582608"><ele>51.5</ele><time>2026-04-12T09:43:01.979Z</time></trkpt><trkpt lat="44.4760263" lon="11.458424"><ele>51.25</ele><time>2026-04-12T09:43:02.978Z</time></trkpt><trkpt lat="44.4759469" lon="11.4585688"><ele>51.0</ele><time>2026-04-12T09:43:03.977Z</time></trkpt><trkpt lat="44.4758509" lon="11.4586805"><ele>51.0</ele><time>2026-04-12T09:43:04.979Z</time></trkpt><trkpt lat="44.4757408" lon="11.4587589"><ele>51.0</ele><time>2026-04-12T09:43:05.978Z</time></trkpt><trkpt lat="44.4756207" lon="11.4588014"><ele>51.0</ele><time>2026-04-12T09:43:06.977Z</time></trkpt><trkpt lat="44.4754929" lon="11.4588059"><ele>51.0</ele><time>2026-04-12T09:43:07.977Z</time></trkpt><trkpt lat="44.4753581" lon="11.45877"><ele>51.0</ele><time>2026-04-12T09:43:08.978Z</time></trkpt><trkpt lat="44.475234" lon="11.4586901"><ele>51.0</ele><time>2026-04-12T09:43:09.978Z</time></trkpt><trkpt lat="44.4751206" lon="11.4585733"><ele>51.0</ele><time>2026-04-12T09:43:10.979Z</time></trkpt><trkpt lat="44.4750208" lon="11.4584289"><ele>51.0</ele><time>2026-04-12T09:43:11.976Z</time></trkpt><trkpt lat="44.4749282" lon="11.4582716"><ele>51.0</ele><time>2026-04-12T09:43:12.978Z</time></trkpt><trkpt lat="44.4748381" lon="11.4581142"><ele>51.0</ele><time>2026-04-12T09:43:13.977Z</time></trkpt><trkpt lat="44.4747509" lon="11.4579603"><ele>51.0</ele><time>2026-04-12T09:43:14.978Z</time></trkpt><trkpt lat="44.4746682" lon="11.4578167"><ele>51.0</ele><time>2026-04-12T09:43:15.978Z</time></trkpt><trkpt lat="44.4745866" lon="11.457678"><ele>51.0</ele><time>2026-04-12T09:43:16.979Z</time></trkpt><trkpt lat="44.4745072" lon="11.4575428"><ele>51.0</ele><time>2026-04-12T09:43:17.977Z</time></trkpt><trkpt lat="44.474431" lon="11.4574162"><ele>51.0</ele><time>2026-04-12T09:43:18.978Z</time></trkpt><trkpt lat="44.4743642" lon="11.4572876"><ele>51.0</ele><time>2026-04-12T09:43:19.977Z</time></trkpt><trkpt lat="44.4743213" lon="11.4571534"><ele>51.0</ele><time>2026-04-12T09:43:20.978Z</time></trkpt><trkpt lat="44.4743101" lon="11.4570171"><ele>51.0</ele><time>2026-04-12T09:43:21.979Z</time></trkpt><trkpt lat="44.4743295" lon="11.4568867"><ele>51.0</ele><time>2026-04-12T09:43:22.977Z</time></trkpt><trkpt lat="44.4743692" lon="11.4567627"><ele>51.0</ele><time>2026-04-12T09:43:23.977Z</time></trkpt><trkpt lat="44.4744207" lon="11.456642"><ele>51.0</ele><time>2026-04-12T09:43:24.977Z</time></trkpt><trkpt lat="44.4744765" lon="11.4565136"><ele>51.0</ele><time>2026-04-12T09:43:25.977Z</time></trkpt><trkpt lat="44.4745194" lon="11.4563689"><ele>51.0</ele><time>2026-04-12T09:43:26.979Z</time></trkpt><trkpt lat="44.4745317" lon="11.4562194"><ele>51.0</ele><time>2026-04-12T09:43:27.977Z</time></trkpt><trkpt lat="44.4745142" lon="11.4560824"><ele>51.0</ele><time>2026-04-12T09:43:28.979Z</time></trkpt><trkpt lat="44.4744658" lon="11.4559627"><ele>51.0</ele><time>2026-04-12T09:43:29.977Z</time></trkpt><trkpt lat="44.4743958" lon="11.4558561"><ele>51.5</ele><time>2026-04-12T09:43:30.98Z</time></trkpt><trkpt lat="44.4743045" lon="11.4557704"><ele>52.0</ele><time>2026-04-12T09:43:31.977Z</time></trkpt><trkpt lat="44.4741942" lon="11.4557156"><ele>52.5</ele><time>2026-04-12T09:43:32.979Z</time></trkpt><trkpt lat="44.4740767" lon="11.4556786"><ele>53.0</ele><time>2026-04-12T09:43:33.978Z</time></trkpt><trkpt lat="44.4739536" lon="11.4556404"><ele>53.0</ele><time>2026-04-12T09:43:34.979Z</time></trkpt><trkpt lat="44.473827" lon="11.4555895"><ele>53.0</ele><time>2026-04-12T09:43:35.977Z</time></trkpt><trkpt lat="44.4736947" lon="11.4555287"><ele>53.0</ele><time>2026-04-12T09:43:36.977Z</time></trkpt><trkpt lat="44.4735573" lon="11.4554576"><ele>53.0</ele><time>2026-04-12T09:43:37.978Z</time></trkpt><trkpt lat="44.4734138" lon="11.4553804"><ele>53.0</ele><time>2026-04-12T09:43:38.978Z</time></trkpt><trkpt lat="44.4732705" lon="11.4553006"><ele>53.0</ele><time>2026-04-12T09:43:39.977Z</time></trkpt><trkpt lat="44.4731258" lon="11.4552165"><ele>53.0</ele><time>2026-04-12T09:43:40.978Z</time></trkpt><trkpt lat="44.4729777" lon="11.4551233"><ele>53.66666666666667</ele><time>2026-04-12T09:43:41.979Z</time></trkpt><trkpt lat="44.4728284" lon="11.4550155"><ele>54.33333333333333</ele><time>2026-04-12T09:43:42.978Z</time></trkpt><trkpt lat="44.4726728" lon="11.4549039"><ele>55.0</ele><time>2026-04-12T09:43:43.977Z</time></trkpt><trkpt lat="44.4725126" lon="11.4547911"><ele>55.0</ele><time>2026-04-12T09:43:44.978Z</time></trkpt><trkpt lat="44.4723485" lon="11.4546745"><ele>55.0</ele><time>2026-04-12T09:43:45.978Z</time></trkpt><trkpt lat="44.4721838" lon="11.4545576"><ele>55.0</ele><time>2026-04-12T09:43:46.977Z</time></trkpt><trkpt lat="44.4720213" lon="11.4544393"><ele>54.666666666666664</ele><time>2026-04-12T09:43:47.979Z</time></trkpt><trkpt lat="44.4718617" lon="11.4543245"><ele>54.33333333333333</ele><time>2026-04-12T09:43:48.976Z</time></trkpt><trkpt lat="44.471704" lon="11.454215"><ele>54.0</ele><time>2026-04-12T09:43:49.977Z</time></trkpt><trkpt lat="44.4715457" lon="11.4541112"><ele>54.0</ele><time>2026-04-12T09:43:50.979Z</time></trkpt><trkpt lat="44.471385" lon="11.4540122"><ele>54.0</ele><time>2026-04-12T09:43:51.977Z</time></trkpt><trkpt lat="44.4712222" lon="11.4539232"><ele>54.0</ele><time>2026-04-12T09:43:52.979Z</time></trkpt><trkpt lat="44.4710605" lon="11.4538355"><ele>54.0</ele><time>2026-04-12T09:43:53.979Z</time></trkpt><trkpt lat="44.4709" lon="11.4537401"><ele>54.0</ele><time>2026-04-12T09:43:54.977Z</time></trkpt><trkpt lat="44.4707415" lon="11.4536286"><ele>54.0</ele><time>2026-04-12T09:43:55.977Z</time></trkpt><trkpt lat="44.4705876" lon="11.4535077"><ele>54.33333333333333</ele><time>2026-04-12T09:43:56.978Z</time></trkpt><trkpt lat="44.4704337" lon="11.4533824"><ele>54.666666666666664</ele><time>2026-04-12T09:43:57.979Z</time></trkpt><trkpt lat="44.470279" lon="11.4532544"><ele>55.0</ele><time>2026-04-12T09:43:58.977Z</time></trkpt><trkpt lat="44.4701234" lon="11.453124"><ele>55.0</ele><time>2026-04-12T09:43:59.978Z</time></trkpt><trkpt lat="44.4699681" lon="11.4529912"><ele>55.0</ele><time>2026-04-12T09:44:00.977Z</time></trkpt><trkpt lat="44.4698105" lon="11.4528563"><ele>55.0</ele><time>2026-04-12T09:44:01.979Z</time></trkpt><trkpt lat="44.4696501" lon="11.4527205"><ele>54.666666666666664</ele><time>2026-04-12T09:44:02.978Z</time></trkpt><trkpt lat="44.4694898" lon="11.4525832"><ele>54.33333333333333</ele><time>2026-04-12T09:44:03.978Z</time></trkpt><trkpt lat="44.4693287" lon="11.452446"><ele>54.0</ele><time>2026-04-12T09:44:04.978Z</time></trkpt><trkpt lat="44.4691674" lon="11.4523105"><ele>54.0</ele><time>2026-04-12T09:44:05.979Z</time></trkpt><trkpt lat="44.4690083" lon="11.452184"><ele>54.0</ele><time>2026-04-12T09:44:06.977Z</time></trkpt><trkpt lat="44.4688525" lon="11.4520702"><ele>54.0</ele><time>2026-04-12T09:44:07.977Z</time></trkpt><trkpt lat="44.4686962" lon="11.4519742"><ele>54.0</ele><time>2026-04-12T09:44:08.977Z</time></trkpt><trkpt lat="44.4685346" lon="11.4519043"><ele>54.0</ele><time>2026-04-12T09:44:09.978Z</time></trkpt><trkpt lat="44.4683666" lon="11.4518585"><ele>54.0</ele><time>2026-04-12T09:44:10.978Z</time></trkpt><trkpt lat="44.4681936" lon="11.4518323"><ele>54.0</ele><time>2026-04-12T09:44:11.978Z</time></trkpt><trkpt lat="44.4680162" lon="11.4518159"><ele>54.0</ele><time>2026-04-12T09:44:12.977Z</time></trkpt><trkpt lat="44.4678342" lon="11.4518003"><ele>54.0</ele><time>2026-04-12T09:44:13.977Z</time></trkpt><trkpt lat="44.4676504" lon="11.4517862"><ele>54.33333333333333</ele><time>2026-04-12T09:44:14.979Z</time></trkpt><trkpt lat="44.4674644" lon="11.4517717"><ele>54.666666666666664</ele><time>2026-04-12T09:44:15.978Z</time></trkpt><trkpt lat="44.467276" lon="11.4517553"><ele>55.0</ele><time>2026-04-12T09:44:16.978Z</time></trkpt><trkpt lat="44.4670854" lon="11.4517393"><ele>55.33333333333333</ele><time>2026-04-12T09:44:17.978Z</time></trkpt><trkpt lat="44.4668944" lon="11.4517302"><ele>55.66666666666667</ele><time>2026-04-12T09:44:18.979Z</time></trkpt><trkpt lat="44.4667068" lon="11.4517241"><ele>56.0</ele><time>2026-04-12T09:44:19.977Z</time></trkpt><trkpt lat="44.4665245" lon="11.4517171"><ele>56.0</ele><time>2026-04-12T09:44:20.979Z</time></trkpt><trkpt lat="44.4663463" lon="11.4517047"><ele>56.0</ele><time>2026-04-12T09:44:21.977Z</time></trkpt><trkpt lat="44.4661725" lon="11.4516795"><ele>56.0</ele><time>2026-04-12T09:44:22.978Z</time></trkpt><trkpt lat="44.4660023" lon="11.4516338"><ele>55.333333333333336</ele><time>2026-04-12T09:44:23.978Z</time></trkpt><trkpt lat="44.4658392" lon="11.4515618"><ele>54.66666666666667</ele><time>2026-04-12T09:44:24.978Z</time></trkpt><trkpt lat="44.4656832" lon="11.4514698"><ele>54.0</ele><time>2026-04-12T09:44:25.977Z</time></trkpt><trkpt lat="44.4655262" lon="11.4513633"><ele>54.66666666666667</ele><time>2026-04-12T09:44:26.98Z</time></trkpt><trkpt lat="44.4653711" lon="11.4512509"><ele>55.333333333333336</ele><time>2026-04-12T09:44:27.978Z</time></trkpt><trkpt lat="44.4652147" lon="11.4511319"><ele>56.0</ele><time>2026-04-12T09:44:28.978Z</time></trkpt><trkpt lat="44.4650581" lon="11.4510115"><ele>56.0</ele><time>2026-04-12T09:44:29.977Z</time></trkpt><trkpt lat="44.4649019" lon="11.4508954"><ele>56.0</ele><time>2026-04-12T09:44:30.978Z</time></trkpt><trkpt lat="44.4647455" lon="11.4507799"><ele>56.0</ele><time>2026-04-12T09:44:31.978Z</time></trkpt><trkpt lat="44.4645857" lon="11.4506731"><ele>56.0</ele><time>2026-04-12T09:44:32.979Z</time></trkpt><trkpt lat="44.4644284" lon="11.4505854"><ele>56.0</ele><time>2026-04-12T09:44:33.977Z</time></trkpt><trkpt lat="44.4642718" lon="11.4505222"><ele>56.0</ele><time>2026-04-12T09:44:34.98Z</time></trkpt><trkpt lat="44.4641104" lon="11.4504818"><ele>56.0</ele><time>2026-04-12T09:44:35.977Z</time></trkpt><trkpt lat="44.4639427" lon="11.4504638"><ele>56.0</ele><time>2026-04-12T09:44:36.977Z</time></trkpt><trkpt lat="44.4637698" lon="11.4504614"><ele>56.0</ele><time>2026-04-12T09:44:37.978Z</time></trkpt><trkpt lat="44.4635948" lon="11.450468"><ele>56.333333333333336</ele><time>2026-04-12T09:44:38.978Z</time></trkpt><trkpt lat="44.4634197" lon="11.450479"><ele>56.66666666666667</ele><time>2026-04-12T09:44:39.978Z</time></trkpt><trkpt lat="44.4632417" lon="11.4504913"><ele>57.0</ele><time>2026-04-12T09:44:40.977Z</time></trkpt><trkpt lat="44.4630633" lon="11.450504"><ele>56.66666666666667</ele><time>2026-04-12T09:44:41.977Z</time></trkpt><trkpt lat="44.4628851" lon="11.4505156"><ele>56.333333333333336</ele><time>2026-04-12T09:44:42.978Z</time></trkpt><trkpt lat="44.4627031" lon="11.4505298"><ele>56.0</ele><time>2026-04-12T09:44:43.978Z</time></trkpt><trkpt lat="44.4625191" lon="11.4505432"><ele>56.0</ele><time>2026-04-12T09:44:44.977Z</time></trkpt><trkpt lat="44.4623351" lon="11.450552"><ele>56.0</ele><time>2026-04-12T09:44:45.978Z</time></trkpt><trkpt lat="44.4621505" lon="11.4505619"><ele>56.0</ele><time>2026-04-12T09:44:46.977Z</time></trkpt><trkpt lat="44.461964" lon="11.4505729"><ele>56.66666666666667</ele><time>2026-04-12T09:44:47.978Z</time></trkpt><trkpt lat="44.46178" lon="11.4505838"><ele>57.33333333333333</ele><time>2026-04-12T09:44:48.977Z</time></trkpt><trkpt lat="44.4615957" lon="11.4505986"><ele>58.0</ele><time>2026-04-12T09:44:49.979Z</time></trkpt><trkpt lat="44.4614107" lon="11.4506204"><ele>57.33333333333333</ele><time>2026-04-12T09:44:50.977Z</time></trkpt><trkpt lat="44.4612262" lon="11.4506521"><ele>56.66666666666667</ele><time>2026-04-12T09:44:51.978Z</time></trkpt><trkpt lat="44.4610432" lon="11.4506966"><ele>56.0</ele><time>2026-04-12T09:44:52.978Z</time></trkpt><trkpt lat="44.4608602" lon="11.4507467"><ele>56.0</ele><time>2026-04-12T09:44:53.979Z</time></trkpt><trkpt lat="44.4606807" lon="11.4507942"><ele>56.0</ele><time>2026-04-12T09:44:54.978Z</time></trkpt><trkpt lat="44.4604995" lon="11.4508332"><ele>56.0</ele><time>2026-04-12T09:44:55.978Z</time></trkpt><trkpt lat="44.4603154" lon="11.4508599"><ele>56.333333333333336</ele><time>2026-04-12T09:44:56.979Z</time></trkpt><trkpt lat="44.4601316" lon="11.4508805"><ele>56.66666666666667</ele><time>2026-04-12T09:44:57.976Z</time></trkpt><trkpt lat="44.45995" lon="11.4508987"><ele>57.0</ele><time>2026-04-12T09:44:58.977Z</time></trkpt><trkpt lat="44.4597703" lon="11.4509191"><ele>57.66666666666667</ele><time>2026-04-12T09:44:59.977Z</time></trkpt><trkpt lat="44.4595944" lon="11.4509397"><ele>58.333333333333336</ele><time>2026-04-12T09:45:00.979Z</time></trkpt><trkpt lat="44.4594177" lon="11.4509575"><ele>59.0</ele><time>2026-04-12T09:45:01.979Z</time></trkpt><trkpt lat="44.4592414" lon="11.4509735"><ele>59.0</ele><time>2026-04-12T09:45:02.979Z</time></trkpt><trkpt lat="44.4590653" lon="11.4509852"><ele>59.0</ele><time>2026-04-12T09:45:03.979Z</time></trkpt><trkpt lat="44.4588881" lon="11.4509919"><ele>59.0</ele><time>2026-04-12T09:45:04.978Z</time></trkpt><trkpt lat="44.4587103" lon="11.4509877"><ele>59.0</ele><time>2026-04-12T09:45:05.977Z</time></trkpt><trkpt lat="44.4585338" lon="11.450964"><ele>59.0</ele><time>2026-04-12T09:45:06.978Z</time></trkpt><trkpt lat="44.4583595" lon="11.4509142"><ele>59.0</ele><time>2026-04-12T09:45:07.978Z</time></trkpt><trkpt lat="44.4581892" lon="11.4508406"><ele>59.0</ele><time>2026-04-12T09:45:08.978Z</time></trkpt><trkpt lat="44.4580251" lon="11.4507497"><ele>59.0</ele><time>2026-04-12T09:45:09.978Z</time></trkpt><trkpt lat="44.4578673" lon="11.4506474"><ele>59.0</ele><time>2026-04-12T09:45:10.977Z</time></trkpt><trkpt lat="44.4577113" lon="11.4505457"><ele>59.66666666666667</ele><time>2026-04-12T09:45:11.977Z</time></trkpt><trkpt lat="44.4575606" lon="11.4504468"><ele>60.33333333333333</ele><time>2026-04-12T09:45:12.977Z</time></trkpt><trkpt lat="44.4574152" lon="11.4503525"><ele>61.0</ele><time>2026-04-12T09:45:13.978Z</time></trkpt><trkpt lat="44.4572735" lon="11.4502649"><ele>61.0</ele><time>2026-04-12T09:45:14.979Z</time></trkpt><trkpt lat="44.4571337" lon="11.4501794"><ele>61.0</ele><time>2026-04-12T09:45:15.978Z</time></trkpt><trkpt lat="44.4570022" lon="11.4500944"><ele>61.0</ele><time>2026-04-12T09:45:16.978Z</time></trkpt><trkpt lat="44.4568742" lon="11.4500091"><ele>61.0</ele><time>2026-04-12T09:45:17.977Z</time></trkpt><trkpt lat="44.4567463" lon="11.4499267"><ele>61.0</ele><time>2026-04-12T09:45:18.979Z</time></trkpt><trkpt lat="44.4566209" lon="11.4498442"><ele>61.0</ele><time>2026-04-12T09:45:19.978Z</time></trkpt><trkpt lat="44.4564963" lon="11.4497615"><ele>61.0</ele><time>2026-04-12T09:45:20.979Z</time></trkpt><trkpt lat="44.4563702" lon="11.4496792"><ele>61.0</ele><time>2026-04-12T09:45:21.979Z</time></trkpt><trkpt lat="44.4562474" lon="11.4495971"><ele>61.0</ele><time>2026-04-12T09:45:22.978Z</time></trkpt><trkpt lat="44.4561337" lon="11.4495194"><ele>60.99999999999999</ele><time>2026-04-12T09:45:23.978Z</time></trkpt><trkpt lat="44.4560324" lon="11.4494503"><ele>60.99999999999999</ele><time>2026-04-12T09:45:24.977Z</time></trkpt><trkpt lat="44.4559427" lon="11.4493837"><ele>61.0</ele><time>2026-04-12T09:45:25.978Z</time></trkpt><trkpt lat="44.4558606" lon="11.4493158"><ele>61.0</ele><time>2026-04-12T09:45:26.978Z</time></trkpt><trkpt lat="44.4557885" lon="11.4492333"><ele>61.0</ele><time>2026-04-12T09:45:27.979Z</time></trkpt><trkpt lat="44.455729" lon="11.4491222"><ele>61.0</ele><time>2026-04-12T09:45:28.977Z</time></trkpt><trkpt lat="44.4556762" lon="11.4489868"><ele>61.0</ele><time>2026-04-12T09:45:29.978Z</time></trkpt><trkpt lat="44.4556256" lon="11.4488355"><ele>61.0</ele><time>2026-04-12T09:45:30.978Z</time></trkpt><trkpt lat="44.4555703" lon="11.4486843"><ele>61.25</ele><time>2026-04-12T09:45:31.978Z</time></trkpt><trkpt lat="44.4555202" lon="11.4485238"><ele>61.5</ele><time>2026-04-12T09:45:32.979Z</time></trkpt><trkpt lat="44.4554969" lon="11.4483445"><ele>61.75</ele><time>2026-04-12T09:45:33.976Z</time></trkpt><trkpt lat="44.4555047" lon="11.4481597"><ele>62.0</ele><time>2026-04-12T09:45:34.977Z</time></trkpt><trkpt lat="44.4555409" lon="11.4479809"><ele>62.75</ele><time>2026-04-12T09:45:35.976Z</time></trkpt><trkpt lat="44.4555905" lon="11.4478117"><ele>63.5</ele><time>2026-04-12T09:45:36.976Z</time></trkpt><trkpt lat="44.4556408" lon="11.4476475"><ele>64.25</ele><time>2026-04-12T09:45:37.976Z</time></trkpt><trkpt lat="44.4556916" lon="11.4474908"><ele>65.0</ele><time>2026-04-12T09:45:38.977Z</time></trkpt><trkpt lat="44.4557449" lon="11.4473382"><ele>65.0</ele><time>2026-04-12T09:45:39.976Z</time></trkpt><trkpt lat="44.455796" lon="11.4471818"><ele>65.0</ele><time>2026-04-12T09:45:40.979Z</time></trkpt><trkpt lat="44.4558468" lon="11.4470221"><ele>65.0</ele><time>2026-04-12T09:45:41.977Z</time></trkpt><trkpt lat="44.4559018" lon="11.4468603"><ele>65.0</ele><time>2026-04-12T09:45:42.977Z</time></trkpt><trkpt lat="44.455957" lon="11.4466957"><ele>65.0</ele><time>2026-04-12T09:45:43.976Z</time></trkpt><trkpt lat="44.4560137" lon="11.4465297"><ele>65.0</ele><time>2026-04-12T09:45:44.978Z</time></trkpt><trkpt lat="44.4560734" lon="11.4463617"><ele>65.0</ele><time>2026-04-12T09:45:45.977Z</time></trkpt><trkpt lat="44.4561289" lon="11.446192"><ele>65.0</ele><time>2026-04-12T09:45:46.979Z</time></trkpt><trkpt lat="44.4561835" lon="11.4460225"><ele>64.5</ele><time>2026-04-12T09:45:47.976Z</time></trkpt><trkpt lat="44.4562404" lon="11.445851"><ele>64.0</ele><time>2026-04-12T09:45:48.976Z</time></trkpt><trkpt lat="44.4562972" lon="11.4456772"><ele>63.5</ele><time>2026-04-12T09:45:49.976Z</time></trkpt><trkpt lat="44.4563522" lon="11.4455054"><ele>63.0</ele><time>2026-04-12T09:45:50.978Z</time></trkpt><trkpt lat="44.4564101" lon="11.4453341"><ele>62.25</ele><time>2026-04-12T09:45:51.978Z</time></trkpt><trkpt lat="44.4564679" lon="11.4451595"><ele>61.5</ele><time>2026-04-12T09:45:52.976Z</time></trkpt><trkpt lat="44.4565255" lon="11.4449842"><ele>60.75</ele><time>2026-04-12T09:45:53.977Z</time></trkpt><trkpt lat="44.4565848" lon="11.4448127"><ele>60.0</ele><time>2026-04-12T09:45:54.977Z</time></trkpt><trkpt lat="44.4566415" lon="11.4446545"><ele>60.4</ele><time>2026-04-12T09:45:55.976Z</time></trkpt><trkpt lat="44.4566959" lon="11.4445072"><ele>60.8</ele><time>2026-04-12T09:45:56.978Z</time></trkpt><trkpt lat="44.4567408" lon="11.4443695"><ele>61.2</ele><time>2026-04-12T09:45:57.977Z</time></trkpt><trkpt lat="44.4567846" lon="11.4442313"><ele>61.6</ele><time>2026-04-12T09:45:58.976Z</time></trkpt><trkpt lat="44.4568246" lon="11.4440955"><ele>62.0</ele><time>2026-04-12T09:45:59.979Z</time></trkpt><trkpt lat="44.4568489" lon="11.4439627"><ele>62.00000000000001</ele><time>2026-04-12T09:46:00.978Z</time></trkpt><trkpt lat="44.4568553" lon="11.4438405"><ele>62.0</ele><time>2026-04-12T09:46:01.977Z</time></trkpt><trkpt lat="44.4568644" lon="11.4437385"><ele>62.0</ele><time>2026-04-12T09:46:02.977Z</time></trkpt><trkpt lat="44.4568721" lon="11.443648"><ele>62.0</ele><time>2026-04-12T09:46:03.976Z</time></trkpt><trkpt lat="44.4569025" lon="11.4435249"><ele>62.00000000000001</ele><time>2026-04-12T09:46:05.977Z</time></trkpt><trkpt lat="44.4569941" lon="11.443416"><ele>62.0</ele><time>2026-04-12T09:49:36.977Z</time></trkpt><trkpt lat="44.4569321" lon="11.4433963"><ele>62.00000000000001</ele><time>2026-04-12T10:05:07.975Z</time></trkpt><trkpt lat="44.4568986" lon="11.4434714"><ele>62.0</ele><time>2026-04-12T10:05:10.975Z</time></trkpt><trkpt lat="44.4568459" lon="11.4436174"><ele>62.0</ele><time>2026-04-12T10:05:12.976Z</time></trkpt><trkpt lat="44.4567899" lon="11.4437656"><ele>62.0</ele><time>2026-04-12T10:05:14.976Z</time></trkpt><trkpt lat="44.4567452" lon="11.4438392"><ele>62.00000000000001</ele><time>2026-04-12T10:05:15.976Z</time></trkpt><trkpt lat="44.4567025" lon="11.4439149"><ele>62.0</ele><time>2026-04-12T10:05:16.976Z</time></trkpt><trkpt lat="44.4566496" lon="11.4440382"><ele>62.00000000000001</ele><time>2026-04-12T10:05:18.977Z</time></trkpt><trkpt lat="44.4566478" lon="11.4441525"><ele>62.0</ele><time>2026-04-12T10:05:20.976Z</time></trkpt><trkpt lat="44.4566579" lon="11.4442784"><ele>62.0</ele><time>2026-04-12T10:05:22.976Z</time></trkpt><trkpt lat="44.4566503" lon="11.4444283"><ele>62.0</ele><time>2026-04-12T10:05:24.976Z</time></trkpt><trkpt lat="44.4566282" lon="11.4445233"><ele>62.00000000000001</ele><time>2026-04-12T10:05:25.976Z</time></trkpt><trkpt lat="44.4565954" lon="11.4446263"><ele>62.0</ele><time>2026-04-12T10:05:26.976Z</time></trkpt><trkpt lat="44.4565606" lon="11.4447339"><ele>61.5</ele><time>2026-04-12T10:05:27.976Z</time></trkpt><trkpt lat="44.4565192" lon="11.4448496"><ele>61.0</ele><time>2026-04-12T10:05:28.977Z</time></trkpt><trkpt lat="44.4564761" lon="11.4449946"><ele>60.5</ele><time>2026-04-12T10:05:29.976Z</time></trkpt><trkpt lat="44.4564273" lon="11.4451498"><ele>60.0</ele><time>2026-04-12T10:05:30.976Z</time></trkpt><trkpt lat="44.4563786" lon="11.4453109"><ele>60.0</ele><time>2026-04-12T10:05:31.977Z</time></trkpt><trkpt lat="44.4563322" lon="11.4454547"><ele>60.0</ele><time>2026-04-12T10:05:32.977Z</time></trkpt><trkpt lat="44.4562848" lon="11.4455909"><ele>60.0</ele><time>2026-04-12T10:05:33.977Z</time></trkpt><trkpt lat="44.4562383" lon="11.4457355"><ele>60.0</ele><time>2026-04-12T10:05:34.977Z</time></trkpt><trkpt lat="44.4561894" lon="11.4458836"><ele>60.75</ele><time>2026-04-12T10:05:35.977Z</time></trkpt><trkpt lat="44.4561402" lon="11.4460285"><ele>61.5</ele><time>2026-04-12T10:05:36.975Z</time></trkpt><trkpt lat="44.4560891" lon="11.4461757"><ele>62.25</ele><time>2026-04-12T10:05:37.977Z</time></trkpt><trkpt lat="44.456036" lon="11.4463303"><ele>63.0</ele><time>2026-04-12T10:05:38.977Z</time></trkpt><trkpt lat="44.4559811" lon="11.4464946"><ele>63.5</ele><time>2026-04-12T10:05:39.975Z</time></trkpt><trkpt lat="44.4559258" lon="11.4466647"><ele>64.0</ele><time>2026-04-12T10:05:40.976Z</time></trkpt><trkpt lat="44.4558701" lon="11.4468261"><ele>64.5</ele><time>2026-04-12T10:05:41.976Z</time></trkpt><trkpt lat="44.455822" lon="11.4469691"><ele>65.0</ele><time>2026-04-12T10:05:42.975Z</time></trkpt><trkpt lat="44.4557773" lon="11.4470948"><ele>65.0</ele><time>2026-04-12T10:05:43.977Z</time></trkpt><trkpt lat="44.455732" lon="11.4472109"><ele>65.0</ele><time>2026-04-12T10:05:44.977Z</time></trkpt><trkpt lat="44.4556914" lon="11.447327"><ele>65.0</ele><time>2026-04-12T10:05:45.978Z</time></trkpt><trkpt lat="44.4556495" lon="11.4474479"><ele>65.0</ele><time>2026-04-12T10:05:46.975Z</time></trkpt><trkpt lat="44.4556072" lon="11.4475705"><ele>65.0</ele><time>2026-04-12T10:05:47.977Z</time></trkpt><trkpt lat="44.4555638" lon="11.4476861"><ele>65.0</ele><time>2026-04-12T10:05:48.975Z</time></trkpt><trkpt lat="44.455523" lon="11.4478015"><ele>65.0</ele><time>2026-04-12T10:05:49.977Z</time></trkpt><trkpt lat="44.455481" lon="11.4479184"><ele>65.0</ele><time>2026-04-12T10:05:50.978Z</time></trkpt><trkpt lat="44.45544" lon="11.4480432"><ele>65.0</ele><time>2026-04-12T10:05:51.977Z</time></trkpt><trkpt lat="44.4553976" lon="11.4481699"><ele>65.0</ele><time>2026-04-12T10:05:52.976Z</time></trkpt><trkpt lat="44.4553547" lon="11.4482968"><ele>64.8</ele><time>2026-04-12T10:05:53.977Z</time></trkpt><trkpt lat="44.4553045" lon="11.4484122"><ele>64.6</ele><time>2026-04-12T10:05:54.975Z</time></trkpt><trkpt lat="44.4552439" lon="11.448509"><ele>64.4</ele><time>2026-04-12T10:05:55.975Z</time></trkpt><trkpt lat="44.4551646" lon="11.4485813"><ele>64.2</ele><time>2026-04-12T10:05:56.978Z</time></trkpt><trkpt lat="44.4550678" lon="11.4486167"><ele>64.0</ele><time>2026-04-12T10:05:57.976Z</time></trkpt><trkpt lat="44.4549689" lon="11.4486087"><ele>64.0</ele><time>2026-04-12T10:05:58.978Z</time></trkpt><trkpt lat="44.454869" lon="11.4485748"><ele>64.0</ele><time>2026-04-12T10:05:59.976Z</time></trkpt><trkpt lat="44.4547698" lon="11.4485235"><ele>64.0</ele><time>2026-04-12T10:06:00.977Z</time></trkpt><trkpt lat="44.4546695" lon="11.4484598"><ele>64.0</ele><time>2026-04-12T10:06:01.976Z</time></trkpt><trkpt lat="44.4545599" lon="11.4483882"><ele>64.0</ele><time>2026-04-12T10:06:02.976Z</time></trkpt><trkpt lat="44.4544349" lon="11.4483039"><ele>64.66666666666666</ele><time>2026-04-12T10:06:03.976Z</time></trkpt><trkpt lat="44.4542919" lon="11.4481975"><ele>65.33333333333333</ele><time>2026-04-12T10:06:04.975Z</time></trkpt><trkpt lat="44.4541433" lon="11.4480821"><ele>66.0</ele><time>2026-04-12T10:06:05.975Z</time></trkpt><trkpt lat="44.4539899" lon="11.447967"><ele>66.0</ele><time>2026-04-12T10:06:06.976Z</time></trkpt><trkpt lat="44.4538308" lon="11.4478519"><ele>66.0</ele><time>2026-04-12T10:06:07.976Z</time></trkpt><trkpt lat="44.4536737" lon="11.447742"><ele>66.0</ele><time>2026-04-12T10:06:08.977Z</time></trkpt><trkpt lat="44.4535175" lon="11.4476353"><ele>66.66666666666667</ele><time>2026-04-12T10:06:09.976Z</time></trkpt><trkpt lat="44.4533588" lon="11.4475289"><ele>67.33333333333334</ele><time>2026-04-12T10:06:10.976Z</time></trkpt><trkpt lat="44.4531986" lon="11.4474188"><ele>68.0</ele><time>2026-04-12T10:06:11.976Z</time></trkpt><trkpt lat="44.4530405" lon="11.4473079"><ele>68.0</ele><time>2026-04-12T10:06:12.975Z</time></trkpt><trkpt lat="44.4528818" lon="11.4471978"><ele>68.0</ele><time>2026-04-12T10:06:13.974Z</time></trkpt><trkpt lat="44.4527202" lon="11.4470934"><ele>68.0</ele><time>2026-04-12T10:06:14.976Z</time></trkpt><trkpt lat="44.4525526" lon="11.4470025"><ele>68.0</ele><time>2026-04-12T10:06:15.975Z</time></trkpt><trkpt lat="44.4523814" lon="11.4469318"><ele>68.0</ele><time>2026-04-12T10:06:16.975Z</time></trkpt><trkpt lat="44.452207" lon="11.4468846"><ele>68.0</ele><time>2026-04-12T10:06:17.976Z</time></trkpt><trkpt lat="44.4520273" lon="11.4468575"><ele>68.0</ele><time>2026-04-12T10:06:18.976Z</time></trkpt><trkpt lat="44.4518475" lon="11.4468459"><ele>68.0</ele><time>2026-04-12T10:06:19.976Z</time></trkpt><trkpt lat="44.4516653" lon="11.4468499"><ele>68.0</ele><time>2026-04-12T10:06:20.976Z</time></trkpt><trkpt lat="44.451484" lon="11.4468629"><ele>68.0</ele><time>2026-04-12T10:06:21.977Z</time></trkpt><trkpt lat="44.4513036" lon="11.446876"><ele>68.0</ele><time>2026-04-12T10:06:22.975Z</time></trkpt><trkpt lat="44.4511211" lon="11.4468872"><ele>68.0</ele><time>2026-04-12T10:06:23.976Z</time></trkpt><trkpt lat="44.450942" lon="11.4468965"><ele>67.33333333333334</ele><time>2026-04-12T10:06:24.978Z</time></trkpt><trkpt lat="44.4507627" lon="11.4469057"><ele>66.66666666666667</ele><time>2026-04-12T10:06:25.976Z</time></trkpt><trkpt lat="44.4505805" lon="11.4469207"><ele>66.0</ele><time>2026-04-12T10:06:26.978Z</time></trkpt><trkpt lat="44.4503998" lon="11.4469339"><ele>66.0</ele><time>2026-04-12T10:06:27.976Z</time></trkpt><trkpt lat="44.4502201" lon="11.4469445"><ele>66.0</ele><time>2026-04-12T10:06:28.977Z</time></trkpt><trkpt lat="44.45004" lon="11.4469574"><ele>66.0</ele><time>2026-04-12T10:06:29.976Z</time></trkpt><trkpt lat="44.4498575" lon="11.4469696"><ele>66.0</ele><time>2026-04-12T10:06:30.976Z</time></trkpt><trkpt lat="44.4496736" lon="11.4469805"><ele>66.0</ele><time>2026-04-12T10:06:31.976Z</time></trkpt><trkpt lat="44.44949" lon="11.4469897"><ele>66.0</ele><time>2026-04-12T10:06:32.975Z</time></trkpt><trkpt lat="44.4493036" lon="11.4470042"><ele>67.33333333333333</ele><time>2026-04-12T10:06:33.975Z</time></trkpt><trkpt lat="44.4491173" lon="11.4470224"><ele>68.66666666666666</ele><time>2026-04-12T10:06:34.975Z</time></trkpt><trkpt lat="44.4489317" lon="11.4470427"><ele>70.0</ele><time>2026-04-12T10:06:35.974Z</time></trkpt><trkpt lat="44.4487481" lon="11.447061"><ele>70.0</ele><time>2026-04-12T10:06:36.975Z</time></trkpt><trkpt lat="44.448564" lon="11.4470788"><ele>70.0</ele><time>2026-04-12T10:06:37.976Z</time></trkpt><trkpt lat="44.4483786" lon="11.4470971"><ele>70.0</ele><time>2026-04-12T10:06:38.976Z</time></trkpt><trkpt lat="44.448194" lon="11.4471165"><ele>70.33333333333333</ele><time>2026-04-12T10:06:39.977Z</time></trkpt><trkpt lat="44.4480106" lon="11.4471365"><ele>70.66666666666667</ele><time>2026-04-12T10:06:40.976Z</time></trkpt><trkpt lat="44.44783" lon="11.4471539"><ele>71.0</ele><time>2026-04-12T10:06:41.975Z</time></trkpt><trkpt lat="44.4476495" lon="11.4471715"><ele>71.33333333333334</ele><time>2026-04-12T10:06:42.976Z</time></trkpt><trkpt lat="44.4474659" lon="11.4471873"><ele>71.66666666666667</ele><time>2026-04-12T10:06:43.976Z</time></trkpt><trkpt lat="44.4472854" lon="11.4472034"><ele>72.0</ele><time>2026-04-12T10:06:44.976Z</time></trkpt><trkpt lat="44.4471061" lon="11.4472218"><ele>72.33333333333333</ele><time>2026-04-12T10:06:45.976Z</time></trkpt><trkpt lat="44.4469271" lon="11.4472406"><ele>72.66666666666666</ele><time>2026-04-12T10:06:46.976Z</time></trkpt><trkpt lat="44.4467493" lon="11.447262"><ele>73.0</ele><time>2026-04-12T10:06:47.976Z</time></trkpt><trkpt lat="44.4465722" lon="11.4472845"><ele>73.0</ele><time>2026-04-12T10:06:48.976Z</time></trkpt><trkpt lat="44.4463958" lon="11.4473077"><ele>73.0</ele><time>2026-04-12T10:06:49.976Z</time></trkpt><trkpt lat="44.446217" lon="11.4473329"><ele>73.0</ele><time>2026-04-12T10:06:50.976Z</time></trkpt><trkpt lat="44.4460475" lon="11.447355"><ele>73.33333333333333</ele><time>2026-04-12T10:06:51.975Z</time></trkpt><trkpt lat="44.4458799" lon="11.44736"><ele>73.66666666666667</ele><time>2026-04-12T10:06:52.976Z</time></trkpt><trkpt lat="44.4457155" lon="11.4473282"><ele>74.0</ele><time>2026-04-12T10:06:53.976Z</time></trkpt><trkpt lat="44.4455563" lon="11.4472677"><ele>74.66666666666667</ele><time>2026-04-12T10:06:54.975Z</time></trkpt><trkpt lat="44.4454019" lon="11.4471975"><ele>75.33333333333333</ele><time>2026-04-12T10:06:55.976Z</time></trkpt><trkpt lat="44.4452575" lon="11.4471266"><ele>76.0</ele><time>2026-04-12T10:06:56.976Z</time></trkpt><trkpt lat="44.4451254" lon="11.4470603"><ele>75.2</ele><time>2026-04-12T10:06:57.977Z</time></trkpt><trkpt lat="44.445006" lon="11.4470056"><ele>74.39999999999999</ele><time>2026-04-12T10:06:58.975Z</time></trkpt><trkpt lat="44.4449039" lon="11.4469625"><ele>73.6</ele><time>2026-04-12T10:06:59.976Z</time></trkpt><trkpt lat="44.4448233" lon="11.4469273"><ele>72.8</ele><time>2026-04-12T10:07:00.976Z</time></trkpt><trkpt lat="44.4447592" lon="11.4468958"><ele>72.0</ele><time>2026-04-12T10:07:01.976Z</time></trkpt><trkpt lat="44.4446567" lon="11.4468112"><ele>72.33333333333333</ele><time>2026-04-12T10:07:03.975Z</time></trkpt><trkpt lat="44.4446095" lon="11.4467436"><ele>72.66666666666667</ele><time>2026-04-12T10:07:04.975Z</time></trkpt><trkpt lat="44.4445613" lon="11.4466677"><ele>73.0</ele><time>2026-04-12T10:07:05.975Z</time></trkpt><trkpt lat="44.4445049" lon="11.4465828"><ele>73.33333333333334</ele><time>2026-04-12T10:07:06.975Z</time></trkpt><trkpt lat="44.4444355" lon="11.4465128"><ele>73.66666666666667</ele><time>2026-04-12T10:07:07.976Z</time></trkpt><trkpt lat="44.4443551" lon="11.4464707"><ele>74.0</ele><time>2026-04-12T10:07:08.977Z</time></trkpt><trkpt lat="44.4442712" lon="11.4464511"><ele>74.0</ele><time>2026-04-12T10:07:09.976Z</time></trkpt><trkpt lat="44.4441868" lon="11.4464684"><ele>74.0</ele><time>2026-04-12T10:07:10.976Z</time></trkpt><trkpt lat="44.4441126" lon="11.4465304"><ele>74.0</ele><time>2026-04-12T10:07:11.975Z</time></trkpt><trkpt lat="44.4440483" lon="11.4466258"><ele>74.0</ele><time>2026-04-12T10:07:12.975Z</time></trkpt><trkpt lat="44.4439801" lon="11.4467351"><ele>74.0</ele><time>2026-04-12T10:07:13.977Z</time></trkpt><trkpt lat="44.4439013" lon="11.4468272"><ele>74.0</ele><time>2026-04-12T10:07:14.977Z</time></trkpt><trkpt lat="44.4438096" lon="11.4468844"><ele>74.0</ele><time>2026-04-12T10:07:15.976Z</time></trkpt><trkpt lat="44.4437074" lon="11.4469172"><ele>74.0</ele><time>2026-04-12T10:07:16.975Z</time></trkpt><trkpt lat="44.4435982" lon="11.4469396"><ele>74.0</ele><time>2026-04-12T10:07:17.976Z</time></trkpt><trkpt lat="44.4434833" lon="11.44696"><ele>74.0</ele><time>2026-04-12T10:07:18.976Z</time></trkpt><trkpt lat="44.4433689" lon="11.4469796"><ele>74.25</ele><time>2026-04-12T10:07:19.976Z</time></trkpt><trkpt lat="44.4432523" lon="11.4469992"><ele>74.5</ele><time>2026-04-12T10:07:20.977Z</time></trkpt><trkpt lat="44.4431343" lon="11.447019"><ele>74.75</ele><time>2026-04-12T10:07:21.977Z</time></trkpt><trkpt lat="44.4430157" lon="11.4470398"><ele>75.0</ele><time>2026-04-12T10:07:22.976Z</time></trkpt><trkpt lat="44.4428957" lon="11.4470595"><ele>75.5</ele><time>2026-04-12T10:07:23.976Z</time></trkpt><trkpt lat="44.4427776" lon="11.4470745"><ele>76.0</ele><time>2026-04-12T10:07:24.976Z</time></trkpt><trkpt lat="44.4426642" lon="11.4470796"><ele>76.5</ele><time>2026-04-12T10:07:25.975Z</time></trkpt><trkpt lat="44.4425535" lon="11.4470752"><ele>77.0</ele><time>2026-04-12T10:07:26.975Z</time></trkpt><trkpt lat="44.4424424" lon="11.4470645"><ele>77.0</ele><time>2026-04-12T10:07:27.976Z</time></trkpt><trkpt lat="44.4423245" lon="11.4470434"><ele>77.0</ele><time>2026-04-12T10:07:28.976Z</time></trkpt><trkpt lat="44.4422068" lon="11.4470145"><ele>77.0</ele><time>2026-04-12T10:07:29.977Z</time></trkpt><trkpt lat="44.4420863" lon="11.4469782"><ele>77.0</ele><time>2026-04-12T10:07:30.976Z</time></trkpt><trkpt lat="44.4419616" lon="11.4469377"><ele>78.25</ele><time>2026-04-12T10:07:31.977Z</time></trkpt><trkpt lat="44.4418357" lon="11.4468911"><ele>79.5</ele><time>2026-04-12T10:07:32.978Z</time></trkpt><trkpt lat="44.441715" lon="11.4468441"><ele>80.75</ele><time>2026-04-12T10:07:33.976Z</time></trkpt><trkpt lat="44.441596" lon="11.4468019"><ele>82.0</ele><time>2026-04-12T10:07:34.975Z</time></trkpt><trkpt lat="44.441478" lon="11.4467575"><ele>82.0</ele><time>2026-04-12T10:07:35.977Z</time></trkpt><trkpt lat="44.4413587" lon="11.4467112"><ele>82.0</ele><time>2026-04-12T10:07:36.976Z</time></trkpt><trkpt lat="44.4412367" lon="11.446667"><ele>82.0</ele><time>2026-04-12T10:07:37.975Z</time></trkpt><trkpt lat="44.4411137" lon="11.4466178"><ele>82.0</ele><time>2026-04-12T10:07:38.977Z</time></trkpt><trkpt lat="44.4409861" lon="11.4465698"><ele>81.25</ele><time>2026-04-12T10:07:39.976Z</time></trkpt><trkpt lat="44.4408553" lon="11.4465237"><ele>80.5</ele><time>2026-04-12T10:07:40.976Z</time></trkpt><trkpt lat="44.4407244" lon="11.4464696"><ele>79.75</ele><time>2026-04-12T10:07:41.976Z</time></trkpt><trkpt lat="44.440594" lon="11.4464174"><ele>79.0</ele><time>2026-04-12T10:07:42.977Z</time></trkpt><trkpt lat="44.4404588" lon="11.4463711"><ele>79.0</ele><time>2026-04-12T10:07:43.976Z</time></trkpt><trkpt lat="44.4403254" lon="11.446319"><ele>79.0</ele><time>2026-04-12T10:07:44.976Z</time></trkpt><trkpt lat="44.4401952" lon="11.4462644"><ele>79.0</ele><time>2026-04-12T10:07:45.976Z</time></trkpt><trkpt lat="44.4400658" lon="11.4462079"><ele>79.0</ele><time>2026-04-12T10:07:46.977Z</time></trkpt><trkpt lat="44.4399355" lon="11.4461533"><ele>78.5</ele><time>2026-04-12T10:07:47.978Z</time></trkpt><trkpt lat="44.439804" lon="11.4460992"><ele>78.0</ele><time>2026-04-12T10:07:48.977Z</time></trkpt><trkpt lat="44.4396756" lon="11.4460469"><ele>77.5</ele><time>2026-04-12T10:07:49.978Z</time></trkpt><trkpt lat="44.4395554" lon="11.4459977"><ele>77.0</ele><time>2026-04-12T10:07:50.978Z</time></trkpt><trkpt lat="44.4394381" lon="11.445951"><ele>77.0</ele><time>2026-04-12T10:07:51.977Z</time></trkpt><trkpt lat="44.4393135" lon="11.4459045"><ele>77.0</ele><time>2026-04-12T10:07:52.976Z</time></trkpt><trkpt lat="44.4391793" lon="11.445855"><ele>77.0</ele><time>2026-04-12T10:07:53.978Z</time></trkpt><trkpt lat="44.4390343" lon="11.4458001"><ele>77.0</ele><time>2026-04-12T10:07:54.976Z</time></trkpt><trkpt lat="44.438885" lon="11.4457367"><ele>77.33333333333334</ele><time>2026-04-12T10:07:55.978Z</time></trkpt><trkpt lat="44.438728" lon="11.4456723"><ele>77.66666666666667</ele><time>2026-04-12T10:07:56.977Z</time></trkpt><trkpt lat="44.4385692" lon="11.4456096"><ele>78.0</ele><time>2026-04-12T10:07:57.975Z</time></trkpt><trkpt lat="44.4384073" lon="11.4455482"><ele>78.0</ele><time>2026-04-12T10:07:58.975Z</time></trkpt><trkpt lat="44.4382448" lon="11.4454851"><ele>78.0</ele><time>2026-04-12T10:07:59.977Z</time></trkpt><trkpt lat="44.4380866" lon="11.4454208"><ele>78.0</ele><time>2026-04-12T10:08:00.975Z</time></trkpt><trkpt lat="44.4379342" lon="11.4453502"><ele>77.33333333333333</ele><time>2026-04-12T10:08:01.974Z</time></trkpt><trkpt lat="44.4377846" lon="11.4452748"><ele>76.66666666666666</ele><time>2026-04-12T10:08:02.975Z</time></trkpt><trkpt lat="44.4376386" lon="11.4452032"><ele>76.0</ele><time>2026-04-12T10:08:03.975Z</time></trkpt><trkpt lat="44.4374951" lon="11.4451323"><ele>76.0</ele><time>2026-04-12T10:08:04.976Z</time></trkpt><trkpt lat="44.437346" lon="11.4450646"><ele>76.0</ele><time>2026-04-12T10:08:05.976Z</time></trkpt><trkpt lat="44.4371964" lon="11.4450008"><ele>76.0</ele><time>2026-04-12T10:08:06.976Z</time></trkpt><trkpt lat="44.4370411" lon="11.4449357"><ele>77.66666666666666</ele><time>2026-04-12T10:08:07.977Z</time></trkpt><trkpt lat="44.4368895" lon="11.4448699"><ele>79.33333333333333</ele><time>2026-04-12T10:08:08.976Z</time></trkpt><trkpt lat="44.4367324" lon="11.444805"><ele>81.0</ele><time>2026-04-12T10:08:09.976Z</time></trkpt><trkpt lat="44.4365757" lon="11.4447359"><ele>81.0</ele><time>2026-04-12T10:08:10.975Z</time></trkpt><trkpt lat="44.4364159" lon="11.4446666"><ele>81.0</ele><time>2026-04-12T10:08:11.977Z</time></trkpt><trkpt lat="44.4362558" lon="11.444597"><ele>81.0</ele><time>2026-04-12T10:08:12.976Z</time></trkpt><trkpt lat="44.4360954" lon="11.444527"><ele>81.33333333333333</ele><time>2026-04-12T10:08:13.976Z</time></trkpt><trkpt lat="44.4359334" lon="11.4444541"><ele>81.66666666666666</ele><time>2026-04-12T10:08:14.976Z</time></trkpt><trkpt lat="44.4357683" lon="11.4443813"><ele>82.0</ele><time>2026-04-12T10:08:15.975Z</time></trkpt><trkpt lat="44.4356017" lon="11.4443091"><ele>83.66666666666666</ele><time>2026-04-12T10:08:16.977Z</time></trkpt><trkpt lat="44.4354276" lon="11.4442497"><ele>85.33333333333333</ele><time>2026-04-12T10:08:17.975Z</time></trkpt><trkpt lat="44.4352492" lon="11.4442142"><ele>87.0</ele><time>2026-04-12T10:08:18.975Z</time></trkpt><trkpt lat="44.4350753" lon="11.4441966"><ele>87.0</ele><time>2026-04-12T10:08:19.976Z</time></trkpt><trkpt lat="44.4349025" lon="11.4441877"><ele>87.0</ele><time>2026-04-12T10:08:20.975Z</time></trkpt><trkpt lat="44.4347271" lon="11.4441774"><ele>87.0</ele><time>2026-04-12T10:08:21.975Z</time></trkpt><trkpt lat="44.4345489" lon="11.4441614"><ele>86.66666666666667</ele><time>2026-04-12T10:08:22.975Z</time></trkpt><trkpt lat="44.4343677" lon="11.4441338"><ele>86.33333333333334</ele><time>2026-04-12T10:08:23.975Z</time></trkpt><trkpt lat="44.4341825" lon="11.4440929"><ele>86.0</ele><time>2026-04-12T10:08:24.975Z</time></trkpt><trkpt lat="44.433995" lon="11.4440357"><ele>86.0</ele><time>2026-04-12T10:08:25.976Z</time></trkpt><trkpt lat="44.4338088" lon="11.443957"><ele>86.0</ele><time>2026-04-12T10:08:26.975Z</time></trkpt><trkpt lat="44.4336289" lon="11.4438603"><ele>86.0</ele><time>2026-04-12T10:08:27.974Z</time></trkpt><trkpt lat="44.4334543" lon="11.4437392"><ele>87.0</ele><time>2026-04-12T10:08:28.976Z</time></trkpt><trkpt lat="44.4332841" lon="11.4435935"><ele>88.0</ele><time>2026-04-12T10:08:29.975Z</time></trkpt><trkpt lat="44.4331231" lon="11.4434304"><ele>89.0</ele><time>2026-04-12T10:08:30.974Z</time></trkpt><trkpt lat="44.4329727" lon="11.4432473"><ele>88.33333333333334</ele><time>2026-04-12T10:08:31.976Z</time></trkpt><trkpt lat="44.4328251" lon="11.4430568"><ele>87.66666666666667</ele><time>2026-04-12T10:08:32.976Z</time></trkpt><trkpt lat="44.432678" lon="11.4428683"><ele>87.0</ele><time>2026-04-12T10:08:33.975Z</time></trkpt><trkpt lat="44.4325271" lon="11.442684"><ele>87.0</ele><time>2026-04-12T10:08:34.976Z</time></trkpt><trkpt lat="44.4323743" lon="11.4425"><ele>87.0</ele><time>2026-04-12T10:08:35.975Z</time></trkpt><trkpt lat="44.4322204" lon="11.442318"><ele>87.0</ele><time>2026-04-12T10:08:36.976Z</time></trkpt><trkpt lat="44.4320654" lon="11.442131"><ele>87.66666666666667</ele><time>2026-04-12T10:08:37.975Z</time></trkpt><trkpt lat="44.4319131" lon="11.4419444"><ele>88.33333333333334</ele><time>2026-04-12T10:08:38.975Z</time></trkpt><trkpt lat="44.4317587" lon="11.4417571"><ele>89.0</ele><time>2026-04-12T10:08:39.976Z</time></trkpt><trkpt lat="44.431608" lon="11.4415692"><ele>89.0</ele><time>2026-04-12T10:08:40.975Z</time></trkpt><trkpt lat="44.4314632" lon="11.4413727"><ele>89.0</ele><time>2026-04-12T10:08:41.977Z</time></trkpt><trkpt lat="44.4313276" lon="11.4411602"><ele>89.0</ele><time>2026-04-12T10:08:42.975Z</time></trkpt><trkpt lat="44.4312032" lon="11.4409397"><ele>89.33333333333334</ele><time>2026-04-12T10:08:43.977Z</time></trkpt><trkpt lat="44.4310845" lon="11.440713"><ele>89.66666666666667</ele><time>2026-04-12T10:08:44.976Z</time></trkpt><trkpt lat="44.4309686" lon="11.4404834"><ele>90.0</ele><time>2026-04-12T10:08:45.975Z</time></trkpt><trkpt lat="44.4308499" lon="11.4402647"><ele>90.33333333333333</ele><time>2026-04-12T10:08:46.976Z</time></trkpt><trkpt lat="44.4307208" lon="11.4400552"><ele>90.66666666666666</ele><time>2026-04-12T10:08:47.976Z</time></trkpt><trkpt lat="44.4305809" lon="11.4398614"><ele>91.0</ele><time>2026-04-12T10:08:48.977Z</time></trkpt><trkpt lat="44.4304343" lon="11.4396825"><ele>91.66666666666666</ele><time>2026-04-12T10:08:49.975Z</time></trkpt><trkpt lat="44.4302821" lon="11.4395107"><ele>92.33333333333333</ele><time>2026-04-12T10:08:50.976Z</time></trkpt><trkpt lat="44.4301291" lon="11.4393411"><ele>93.0</ele><time>2026-04-12T10:08:51.976Z</time></trkpt><trkpt lat="44.4299757" lon="11.4391685"><ele>93.0</ele><time>2026-04-12T10:08:52.975Z</time></trkpt><trkpt lat="44.4298211" lon="11.4389954"><ele>93.0</ele><time>2026-04-12T10:08:53.975Z</time></trkpt><trkpt lat="44.4296677" lon="11.4388227"><ele>93.0</ele><time>2026-04-12T10:08:54.975Z</time></trkpt><trkpt lat="44.4295154" lon="11.438646"><ele>93.33333333333333</ele><time>2026-04-12T10:08:55.975Z</time></trkpt><trkpt lat="44.4293646" lon="11.4384698"><ele>93.66666666666666</ele><time>2026-04-12T10:08:56.976Z</time></trkpt><trkpt lat="44.4292148" lon="11.4382958"><ele>94.0</ele><time>2026-04-12T10:08:57.976Z</time></trkpt><trkpt lat="44.4290651" lon="11.4381169"><ele>93.66666666666666</ele><time>2026-04-12T10:08:58.975Z</time></trkpt><trkpt lat="44.4289204" lon="11.4379343"><ele>93.33333333333333</ele><time>2026-04-12T10:08:59.977Z</time></trkpt><trkpt lat="44.4287852" lon="11.4377394"><ele>93.0</ele><time>2026-04-12T10:09:00.976Z</time></trkpt><trkpt lat="44.4286645" lon="11.4375277"><ele>94.66666666666666</ele><time>2026-04-12T10:09:01.977Z</time></trkpt><trkpt lat="44.428561" lon="11.4373004"><ele>96.33333333333333</ele><time>2026-04-12T10:09:02.976Z</time></trkpt><trkpt lat="44.4284742" lon="11.4370617"><ele>98.0</ele><time>2026-04-12T10:09:03.975Z</time></trkpt><trkpt lat="44.4284008" lon="11.4368163"><ele>98.0</ele><time>2026-04-12T10:09:04.976Z</time></trkpt><trkpt lat="44.428337" lon="11.4365651"><ele>98.0</ele><time>2026-04-12T10:09:05.975Z</time></trkpt><trkpt lat="44.4282758" lon="11.4363132"><ele>98.0</ele><time>2026-04-12T10:09:06.975Z</time></trkpt><trkpt lat="44.4282158" lon="11.4360578"><ele>96.66666666666666</ele><time>2026-04-12T10:09:07.974Z</time></trkpt><trkpt lat="44.4281545" lon="11.4358029"><ele>95.33333333333333</ele><time>2026-04-12T10:09:08.975Z</time></trkpt><trkpt lat="44.4280911" lon="11.4355501"><ele>94.0</ele><time>2026-04-12T10:09:09.975Z</time></trkpt><trkpt lat="44.4280279" lon="11.4352948"><ele>95.66666666666666</ele><time>2026-04-12T10:09:10.975Z</time></trkpt><trkpt lat="44.4279662" lon="11.4350407"><ele>97.33333333333333</ele><time>2026-04-12T10:09:11.975Z</time></trkpt><trkpt lat="44.4279066" lon="11.4347977"><ele>99.0</ele><time>2026-04-12T10:09:12.976Z</time></trkpt><trkpt lat="44.427847" lon="11.4345704"><ele>99.0</ele><time>2026-04-12T10:09:13.976Z</time></trkpt><trkpt lat="44.4277829" lon="11.4343593"><ele>99.0</ele><time>2026-04-12T10:09:14.978Z</time></trkpt><trkpt lat="44.4277119" lon="11.4341755"><ele>99.0</ele><time>2026-04-12T10:09:15.977Z</time></trkpt><trkpt lat="44.4276468" lon="11.4340312"><ele>99.0</ele><time>2026-04-12T10:09:16.976Z</time></trkpt><trkpt lat="44.4275822" lon="11.4339125"><ele>99.0</ele><time>2026-04-12T10:09:17.975Z</time></trkpt><trkpt lat="44.427514" lon="11.4338098"><ele>99.0</ele><time>2026-04-12T10:09:18.974Z</time></trkpt><trkpt lat="44.4274403" lon="11.4337096"><ele>99.0</ele><time>2026-04-12T10:09:19.976Z</time></trkpt><trkpt lat="44.4273508" lon="11.4336084"><ele>99.0</ele><time>2026-04-12T10:09:20.976Z</time></trkpt><trkpt lat="44.4272573" lon="11.4335009"><ele>99.0</ele><time>2026-04-12T10:09:21.975Z</time></trkpt><trkpt lat="44.4271667" lon="11.4333894"><ele>98.80000000000001</ele><time>2026-04-12T10:09:22.976Z</time></trkpt><trkpt lat="44.4270866" lon="11.4332861"><ele>98.60000000000001</ele><time>2026-04-12T10:09:23.975Z</time></trkpt><trkpt lat="44.4270064" lon="11.433187"><ele>98.4</ele><time>2026-04-12T10:09:24.975Z</time></trkpt><trkpt lat="44.4269272" lon="11.4330913"><ele>98.2</ele><time>2026-04-12T10:09:25.975Z</time></trkpt><trkpt lat="44.4268533" lon="11.4330072"><ele>98.0</ele><time>2026-04-12T10:09:26.975Z</time></trkpt><trkpt lat="44.4267787" lon="11.4329268"><ele>98.0</ele><time>2026-04-12T10:09:27.974Z</time></trkpt><trkpt lat="44.4266993" lon="11.4328407"><ele>98.0</ele><time>2026-04-12T10:09:28.974Z</time></trkpt><trkpt lat="44.4266119" lon="11.4327518"><ele>98.0</ele><time>2026-04-12T10:09:29.974Z</time></trkpt><trkpt lat="44.4265158" lon="11.4326739"><ele>98.0</ele><time>2026-04-12T10:09:30.974Z</time></trkpt><trkpt lat="44.4264138" lon="11.432612"><ele>98.0</ele><time>2026-04-12T10:09:31.975Z</time></trkpt><trkpt lat="44.426307" lon="11.4325642"><ele>98.0</ele><time>2026-04-12T10:09:32.975Z</time></trkpt><trkpt lat="44.4261964" lon="11.4325183"><ele>98.0</ele><time>2026-04-12T10:09:33.974Z</time></trkpt><trkpt lat="44.4260773" lon="11.4324711"><ele>98.0</ele><time>2026-04-12T10:09:34.977Z</time></trkpt><trkpt lat="44.4259496" lon="11.4324174"><ele>98.0</ele><time>2026-04-12T10:09:35.974Z</time></trkpt><trkpt lat="44.4258149" lon="11.432362"><ele>98.0</ele><time>2026-04-12T10:09:36.975Z</time></trkpt><trkpt lat="44.4256786" lon="11.4323065"><ele>98.0</ele><time>2026-04-12T10:09:37.975Z</time></trkpt><trkpt lat="44.4255412" lon="11.4322415"><ele>98.0</ele><time>2026-04-12T10:09:38.976Z</time></trkpt><trkpt lat="44.425404" lon="11.432155"><ele>98.0</ele><time>2026-04-12T10:09:39.975Z</time></trkpt><trkpt lat="44.4252722" lon="11.4320381"><ele>94.33333333333333</ele><time>2026-04-12T10:09:40.975Z</time></trkpt><trkpt lat="44.4251444" lon="11.4318968"><ele>90.66666666666666</ele><time>2026-04-12T10:09:41.975Z</time></trkpt><trkpt lat="44.4250195" lon="11.4317433"><ele>87.0</ele><time>2026-04-12T10:09:42.974Z</time></trkpt><trkpt lat="44.424897" lon="11.4315867"><ele>87.0</ele><time>2026-04-12T10:09:43.977Z</time></trkpt><trkpt lat="44.4247741" lon="11.4314276"><ele>87.0</ele><time>2026-04-12T10:09:44.975Z</time></trkpt><trkpt lat="44.4246494" lon="11.4312644"><ele>87.0</ele><time>2026-04-12T10:09:45.975Z</time></trkpt><trkpt lat="44.4245258" lon="11.4311025"><ele>86.33333333333333</ele><time>2026-04-12T10:09:46.975Z</time></trkpt><trkpt lat="44.4244007" lon="11.4309466"><ele>85.66666666666666</ele><time>2026-04-12T10:09:47.974Z</time></trkpt><trkpt lat="44.4242733" lon="11.4307965"><ele>85.0</ele><time>2026-04-12T10:09:48.975Z</time></trkpt><trkpt lat="44.4241471" lon="11.4306486"><ele>85.0</ele><time>2026-04-12T10:09:49.974Z</time></trkpt><trkpt lat="44.4240248" lon="11.4305012"><ele>85.0</ele><time>2026-04-12T10:09:50.974Z</time></trkpt><trkpt lat="44.423899" lon="11.4303614"><ele>85.0</ele><time>2026-04-12T10:09:51.976Z</time></trkpt><trkpt lat="44.4237711" lon="11.4302231"><ele>84.66666666666666</ele><time>2026-04-12T10:09:52.975Z</time></trkpt><trkpt lat="44.4236463" lon="11.4300784"><ele>84.33333333333333</ele><time>2026-04-12T10:09:53.976Z</time></trkpt><trkpt lat="44.4235205" lon="11.4299315"><ele>84.0</ele><time>2026-04-12T10:09:54.975Z</time></trkpt><trkpt lat="44.4233953" lon="11.4297691"><ele>83.0</ele><time>2026-04-12T10:09:55.975Z</time></trkpt><trkpt lat="44.4232751" lon="11.4295946"><ele>82.0</ele><time>2026-04-12T10:09:56.975Z</time></trkpt><trkpt lat="44.4231678" lon="11.4294056"><ele>81.0</ele><time>2026-04-12T10:09:57.974Z</time></trkpt><trkpt lat="44.4230734" lon="11.4291984"><ele>81.0</ele><time>2026-04-12T10:09:58.973Z</time></trkpt><trkpt lat="44.4229911" lon="11.4289799"><ele>81.0</ele><time>2026-04-12T10:09:59.973Z</time></trkpt><trkpt lat="44.4229179" lon="11.4287604"><ele>81.0</ele><time>2026-04-12T10:10:00.975Z</time></trkpt><trkpt lat="44.4228531" lon="11.4285394"><ele>82.0</ele><time>2026-04-12T10:10:01.974Z</time></trkpt><trkpt lat="44.4227915" lon="11.428317"><ele>83.0</ele><time>2026-04-12T10:10:02.975Z</time></trkpt><trkpt lat="44.4227233" lon="11.4281021"><ele>84.0</ele><time>2026-04-12T10:10:03.974Z</time></trkpt><trkpt lat="44.4226381" lon="11.4278923"><ele>84.0</ele><time>2026-04-12T10:10:04.973Z</time></trkpt><trkpt lat="44.422531" lon="11.4277014"><ele>84.0</ele><time>2026-04-12T10:10:05.974Z</time></trkpt><trkpt lat="44.4224077" lon="11.4275232"><ele>84.0</ele><time>2026-04-12T10:10:06.975Z</time></trkpt><trkpt lat="44.4222814" lon="11.4273525"><ele>84.0</ele><time>2026-04-12T10:10:07.977Z</time></trkpt><trkpt lat="44.4221546" lon="11.427186"><ele>84.0</ele><time>2026-04-12T10:10:08.975Z</time></trkpt><trkpt lat="44.4220319" lon="11.4270217"><ele>84.0</ele><time>2026-04-12T10:10:09.975Z</time></trkpt><trkpt lat="44.4219142" lon="11.4268614"><ele>84.66666666666667</ele><time>2026-04-12T10:10:10.974Z</time></trkpt><trkpt lat="44.4217977" lon="11.426707"><ele>85.33333333333334</ele><time>2026-04-12T10:10:11.976Z</time></trkpt><trkpt lat="44.4216798" lon="11.4265602"><ele>86.0</ele><time>2026-04-12T10:10:12.975Z</time></trkpt><trkpt lat="44.4215579" lon="11.4264301"><ele>86.0</ele><time>2026-04-12T10:10:13.975Z</time></trkpt><trkpt lat="44.4214282" lon="11.4263245"><ele>86.0</ele><time>2026-04-12T10:10:14.976Z</time></trkpt><trkpt lat="44.4212869" lon="11.4262479"><ele>86.0</ele><time>2026-04-12T10:10:15.974Z</time></trkpt><trkpt lat="44.4211355" lon="11.4262056"><ele>86.0</ele><time>2026-04-12T10:10:16.975Z</time></trkpt><trkpt lat="44.420978" lon="11.4261978"><ele>86.0</ele><time>2026-04-12T10:10:17.974Z</time></trkpt><trkpt lat="44.4208188" lon="11.4262174"><ele>86.0</ele><time>2026-04-12T10:10:18.973Z</time></trkpt><trkpt lat="44.4206579" lon="11.4262489"><ele>86.0</ele><time>2026-04-12T10:10:19.973Z</time></trkpt><trkpt lat="44.4204944" lon="11.4262828"><ele>86.0</ele><time>2026-04-12T10:10:20.975Z</time></trkpt><trkpt lat="44.420329" lon="11.4263188"><ele>86.0</ele><time>2026-04-12T10:10:21.976Z</time></trkpt><trkpt lat="44.4201611" lon="11.4263576"><ele>87.0</ele><time>2026-04-12T10:10:22.974Z</time></trkpt><trkpt lat="44.4199917" lon="11.4263957"><ele>88.0</ele><time>2026-04-12T10:10:23.975Z</time></trkpt><trkpt lat="44.419818" lon="11.42643"><ele>89.0</ele><time>2026-04-12T10:10:24.975Z</time></trkpt><trkpt lat="44.4196407" lon="11.426461"><ele>89.0</ele><time>2026-04-12T10:10:25.975Z</time></trkpt><trkpt lat="44.4194626" lon="11.4264883"><ele>89.0</ele><time>2026-04-12T10:10:26.974Z</time></trkpt><trkpt lat="44.419281" lon="11.4265121"><ele>89.0</ele><time>2026-04-12T10:10:27.974Z</time></trkpt><trkpt lat="44.4190974" lon="11.4265332"><ele>89.0</ele><time>2026-04-12T10:10:28.974Z</time></trkpt><trkpt lat="44.4189116" lon="11.4265528"><ele>89.0</ele><time>2026-04-12T10:10:29.974Z</time></trkpt><trkpt lat="44.4187245" lon="11.426572"><ele>89.0</ele><time>2026-04-12T10:10:30.974Z</time></trkpt><trkpt lat="44.4185364" lon="11.4265926"><ele>89.0</ele><time>2026-04-12T10:10:31.974Z</time></trkpt><trkpt lat="44.4183545" lon="11.4266145"><ele>89.0</ele><time>2026-04-12T10:10:32.976Z</time></trkpt><trkpt lat="44.4181765" lon="11.426634"><ele>89.0</ele><time>2026-04-12T10:10:33.974Z</time></trkpt><trkpt lat="44.4180011" lon="11.4266548"><ele>89.33333333333334</ele><time>2026-04-12T10:10:34.973Z</time></trkpt><trkpt lat="44.4178224" lon="11.4266738"><ele>89.66666666666667</ele><time>2026-04-12T10:10:35.974Z</time></trkpt><trkpt lat="44.4176441" lon="11.4266938"><ele>90.0</ele><time>2026-04-12T10:10:36.974Z</time></trkpt><trkpt lat="44.4174663" lon="11.426712"><ele>90.0</ele><time>2026-04-12T10:10:37.973Z</time></trkpt><trkpt lat="44.4172918" lon="11.4267331"><ele>90.0</ele><time>2026-04-12T10:10:38.974Z</time></trkpt><trkpt lat="44.417117" lon="11.4267536"><ele>90.0</ele><time>2026-04-12T10:10:39.975Z</time></trkpt><trkpt lat="44.4169414" lon="11.4267704"><ele>90.33333333333333</ele><time>2026-04-12T10:10:40.973Z</time></trkpt><trkpt lat="44.4167647" lon="11.4267872"><ele>90.66666666666666</ele><time>2026-04-12T10:10:41.974Z</time></trkpt><trkpt lat="44.4165871" lon="11.4268034"><ele>91.0</ele><time>2026-04-12T10:10:42.974Z</time></trkpt><trkpt lat="44.4164053" lon="11.4268219"><ele>94.0</ele><time>2026-04-12T10:10:43.974Z</time></trkpt><trkpt lat="44.4162212" lon="11.4268422"><ele>97.0</ele><time>2026-04-12T10:10:44.974Z</time></trkpt><trkpt lat="44.41604" lon="11.4268598"><ele>100.0</ele><time>2026-04-12T10:10:45.973Z</time></trkpt><trkpt lat="44.4158567" lon="11.4268766"><ele>100.0</ele><time>2026-04-12T10:10:46.975Z</time></trkpt><trkpt lat="44.4156788" lon="11.4268953"><ele>100.0</ele><time>2026-04-12T10:10:47.975Z</time></trkpt><trkpt lat="44.4155005" lon="11.4269128"><ele>100.0</ele><time>2026-04-12T10:10:48.976Z</time></trkpt><trkpt lat="44.4153223" lon="11.4269311"><ele>98.0</ele><time>2026-04-12T10:10:49.975Z</time></trkpt><trkpt lat="44.4151461" lon="11.4269494"><ele>96.0</ele><time>2026-04-12T10:10:50.975Z</time></trkpt><trkpt lat="44.414971" lon="11.4269713"><ele>94.0</ele><time>2026-04-12T10:10:51.975Z</time></trkpt><trkpt lat="44.4147943" lon="11.4269919"><ele>92.33333333333333</ele><time>2026-04-12T10:10:52.975Z</time></trkpt><trkpt lat="44.4146175" lon="11.427009"><ele>90.66666666666667</ele><time>2026-04-12T10:10:53.975Z</time></trkpt><trkpt lat="44.4144421" lon="11.4270301"><ele>89.0</ele><time>2026-04-12T10:10:54.974Z</time></trkpt><trkpt lat="44.4142676" lon="11.4270572"><ele>89.0</ele><time>2026-04-12T10:10:55.975Z</time></trkpt><trkpt lat="44.4140917" lon="11.4270797"><ele>89.0</ele><time>2026-04-12T10:10:56.976Z</time></trkpt><trkpt lat="44.4139173" lon="11.4271033"><ele>89.0</ele><time>2026-04-12T10:10:57.973Z</time></trkpt><trkpt lat="44.413742" lon="11.4271256"><ele>90.66666666666667</ele><time>2026-04-12T10:10:58.975Z</time></trkpt><trkpt lat="44.4135661" lon="11.4271477"><ele>92.33333333333333</ele><time>2026-04-12T10:10:59.975Z</time></trkpt><trkpt lat="44.4133882" lon="11.4271704"><ele>94.0</ele><time>2026-04-12T10:11:00.974Z</time></trkpt><trkpt lat="44.4132079" lon="11.4271892"><ele>94.0</ele><time>2026-04-12T10:11:01.975Z</time></trkpt><trkpt lat="44.4130276" lon="11.4272094"><ele>94.0</ele><time>2026-04-12T10:11:02.976Z</time></trkpt><trkpt lat="44.4128463" lon="11.4272334"><ele>94.0</ele><time>2026-04-12T10:11:03.975Z</time></trkpt><trkpt lat="44.4126663" lon="11.4272576"><ele>93.66666666666666</ele><time>2026-04-12T10:11:04.975Z</time></trkpt><trkpt lat="44.4124822" lon="11.4272786"><ele>93.33333333333333</ele><time>2026-04-12T10:11:05.974Z</time></trkpt><trkpt lat="44.412296" lon="11.4272972"><ele>93.0</ele><time>2026-04-12T10:11:06.974Z</time></trkpt><trkpt lat="44.4121071" lon="11.4273146"><ele>94.0</ele><time>2026-04-12T10:11:07.975Z</time></trkpt><trkpt lat="44.4119179" lon="11.4273385"><ele>95.0</ele><time>2026-04-12T10:11:08.975Z</time></trkpt><trkpt lat="44.4117293" lon="11.4273656"><ele>96.0</ele><time>2026-04-12T10:11:09.974Z</time></trkpt><trkpt lat="44.4115415" lon="11.4273845"><ele>96.0</ele><time>2026-04-12T10:11:10.974Z</time></trkpt><trkpt lat="44.4113498" lon="11.4273892"><ele>96.0</ele><time>2026-04-12T10:11:11.976Z</time></trkpt><trkpt lat="44.4111614" lon="11.4273732"><ele>96.0</ele><time>2026-04-12T10:11:12.974Z</time></trkpt><trkpt lat="44.4109742" lon="11.4273447"><ele>97.66666666666666</ele><time>2026-04-12T10:11:13.974Z</time></trkpt><trkpt lat="44.4107869" lon="11.4273163"><ele>99.33333333333333</ele><time>2026-04-12T10:11:14.975Z</time></trkpt><trkpt lat="44.4105987" lon="11.427296"><ele>101.0</ele><time>2026-04-12T10:11:15.976Z</time></trkpt><trkpt lat="44.4104104" lon="11.4272887"><ele>101.33333333333333</ele><time>2026-04-12T10:11:16.976Z</time></trkpt><trkpt lat="44.41022" lon="11.4272926"><ele>101.66666666666666</ele><time>2026-04-12T10:11:17.974Z</time></trkpt><trkpt lat="44.4100299" lon="11.4273043"><ele>102.0</ele><time>2026-04-12T10:11:18.975Z</time></trkpt><trkpt lat="44.4098398" lon="11.4273221"><ele>101.33333333333334</ele><time>2026-04-12T10:11:19.974Z</time></trkpt><trkpt lat="44.4096508" lon="11.4273475"><ele>100.66666666666667</ele><time>2026-04-12T10:11:20.974Z</time></trkpt><trkpt lat="44.4094696" lon="11.4273802"><ele>100.0</ele><time>2026-04-12T10:11:21.974Z</time></trkpt><trkpt lat="44.4092956" lon="11.4274196"><ele>100.0</ele><time>2026-04-12T10:11:22.975Z</time></trkpt><trkpt lat="44.4091281" lon="11.4274692"><ele>100.0</ele><time>2026-04-12T10:11:23.974Z</time></trkpt><trkpt lat="44.4089666" lon="11.4275258"><ele>100.0</ele><time>2026-04-12T10:11:24.974Z</time></trkpt><trkpt lat="44.4088063" lon="11.4275836"><ele>99.0</ele><time>2026-04-12T10:11:25.974Z</time></trkpt><trkpt lat="44.4086478" lon="11.427642"><ele>98.0</ele><time>2026-04-12T10:11:26.976Z</time></trkpt><trkpt lat="44.4084913" lon="11.4277026"><ele>97.0</ele><time>2026-04-12T10:11:27.974Z</time></trkpt><trkpt lat="44.4083369" lon="11.4277613"><ele>97.0</ele><time>2026-04-12T10:11:28.974Z</time></trkpt><trkpt lat="44.4081816" lon="11.4278068"><ele>97.0</ele><time>2026-04-12T10:11:29.974Z</time></trkpt><trkpt lat="44.4080282" lon="11.427827"><ele>97.0</ele><time>2026-04-12T10:11:30.975Z</time></trkpt><trkpt lat="44.4078761" lon="11.427807"><ele>98.0</ele><time>2026-04-12T10:11:31.974Z</time></trkpt><trkpt lat="44.4077294" lon="11.4277489"><ele>99.0</ele><time>2026-04-12T10:11:32.975Z</time></trkpt><trkpt lat="44.4075863" lon="11.4276546"><ele>100.0</ele><time>2026-04-12T10:11:33.974Z</time></trkpt><trkpt lat="44.4074529" lon="11.427532"><ele>100.0</ele><time>2026-04-12T10:11:34.974Z</time></trkpt><trkpt lat="44.4073268" lon="11.4273914"><ele>100.0</ele><time>2026-04-12T10:11:35.973Z</time></trkpt><trkpt lat="44.4072049" lon="11.4272375"><ele>100.0</ele><time>2026-04-12T10:11:36.975Z</time></trkpt><trkpt lat="44.4070828" lon="11.4270801"><ele>100.33333333333334</ele><time>2026-04-12T10:11:37.974Z</time></trkpt><trkpt lat="44.4069598" lon="11.4269197"><ele>100.66666666666666</ele><time>2026-04-12T10:11:38.976Z</time></trkpt><trkpt lat="44.4068372" lon="11.4267599"><ele>101.0</ele><time>2026-04-12T10:11:39.975Z</time></trkpt><trkpt lat="44.4067122" lon="11.4265998"><ele>101.0</ele><time>2026-04-12T10:11:40.974Z</time></trkpt><trkpt lat="44.4065846" lon="11.4264498"><ele>101.0</ele><time>2026-04-12T10:11:41.974Z</time></trkpt><trkpt lat="44.4064559" lon="11.4263094"><ele>101.0</ele><time>2026-04-12T10:11:42.975Z</time></trkpt><trkpt lat="44.4063165" lon="11.4261972"><ele>102.33333333333333</ele><time>2026-04-12T10:11:43.974Z</time></trkpt><trkpt lat="44.4061667" lon="11.426124"><ele>103.66666666666666</ele><time>2026-04-12T10:11:44.975Z</time></trkpt><trkpt lat="44.406014" lon="11.4260992"><ele>105.0</ele><time>2026-04-12T10:11:45.974Z</time></trkpt><trkpt lat="44.4058662" lon="11.4261263"><ele>105.0</ele><time>2026-04-12T10:11:46.976Z</time></trkpt><trkpt lat="44.4057262" lon="11.4262049"><ele>105.0</ele><time>2026-04-12T10:11:47.975Z</time></trkpt><trkpt lat="44.4055983" lon="11.4263219"><ele>105.0</ele><time>2026-04-12T10:11:48.974Z</time></trkpt><trkpt lat="44.4054864" lon="11.4264695"><ele>107.25</ele><time>2026-04-12T10:11:49.974Z</time></trkpt><trkpt lat="44.4053919" lon="11.4266287"><ele>109.5</ele><time>2026-04-12T10:11:50.974Z</time></trkpt><trkpt lat="44.4052998" lon="11.4267896"><ele>111.75</ele><time>2026-04-12T10:11:51.974Z</time></trkpt><trkpt lat="44.4052028" lon="11.4269439"><ele>114.0</ele><time>2026-04-12T10:11:52.974Z</time></trkpt><trkpt lat="44.4050942" lon="11.4270867"><ele>113.33333333333334</ele><time>2026-04-12T10:11:53.975Z</time></trkpt><trkpt lat="44.4049701" lon="11.4272093"><ele>112.66666666666667</ele><time>2026-04-12T10:11:54.975Z</time></trkpt><trkpt lat="44.4048335" lon="11.4273069"><ele>112.0</ele><time>2026-04-12T10:11:55.974Z</time></trkpt><trkpt lat="44.404688" lon="11.4273866"><ele>111.33333333333334</ele><time>2026-04-12T10:11:56.976Z</time></trkpt><trkpt lat="44.4045358" lon="11.4274577"><ele>110.66666666666666</ele><time>2026-04-12T10:11:57.975Z</time></trkpt><trkpt lat="44.4043764" lon="11.427524"><ele>110.0</ele><time>2026-04-12T10:11:58.974Z</time></trkpt><trkpt lat="44.4042144" lon="11.4275893"><ele>110.0</ele><time>2026-04-12T10:11:59.974Z</time></trkpt><trkpt lat="44.40405" lon="11.4276546"><ele>110.0</ele><time>2026-04-12T10:12:00.974Z</time></trkpt><trkpt lat="44.4038846" lon="11.4277195"><ele>110.0</ele><time>2026-04-12T10:12:01.976Z</time></trkpt><trkpt lat="44.4037223" lon="11.4277911"><ele>109.33333333333333</ele><time>2026-04-12T10:12:02.977Z</time></trkpt><trkpt lat="44.4035611" lon="11.427865"><ele>108.66666666666666</ele><time>2026-04-12T10:12:03.975Z</time></trkpt><trkpt lat="44.4034017" lon="11.4279371"><ele>108.0</ele><time>2026-04-12T10:12:04.974Z</time></trkpt><trkpt lat="44.4032463" lon="11.4280076"><ele>109.0</ele><time>2026-04-12T10:12:05.974Z</time></trkpt><trkpt lat="44.4030967" lon="11.4280753"><ele>110.0</ele><time>2026-04-12T10:12:06.976Z</time></trkpt><trkpt lat="44.4029499" lon="11.4281416"><ele>111.0</ele><time>2026-04-12T10:12:07.974Z</time></trkpt><trkpt lat="44.4028041" lon="11.4282124"><ele>111.0</ele><time>2026-04-12T10:12:08.975Z</time></trkpt><trkpt lat="44.4026555" lon="11.4282943"><ele>111.0</ele><time>2026-04-12T10:12:09.975Z</time></trkpt><trkpt lat="44.4025076" lon="11.4283863"><ele>111.0</ele><time>2026-04-12T10:12:10.974Z</time></trkpt><trkpt lat="44.4023567" lon="11.4284787"><ele>111.0</ele><time>2026-04-12T10:12:11.973Z</time></trkpt><trkpt lat="44.4022047" lon="11.4285745"><ele>111.0</ele><time>2026-04-12T10:12:12.975Z</time></trkpt><trkpt lat="44.4020512" lon="11.4286717"><ele>111.0</ele><time>2026-04-12T10:12:13.974Z</time></trkpt><trkpt lat="44.401897" lon="11.4287725"><ele>111.33333333333334</ele><time>2026-04-12T10:12:14.976Z</time></trkpt><trkpt lat="44.401745" lon="11.4288691"><ele>111.66666666666667</ele><time>2026-04-12T10:12:15.975Z</time></trkpt><trkpt lat="44.4015846" lon="11.4289727"><ele>112.0</ele><time>2026-04-12T10:12:16.975Z</time></trkpt><trkpt lat="44.4014247" lon="11.4290779"><ele>111.33333333333334</ele><time>2026-04-12T10:12:17.976Z</time></trkpt><trkpt lat="44.4012675" lon="11.4291875"><ele>110.66666666666666</ele><time>2026-04-12T10:12:18.974Z</time></trkpt><trkpt lat="44.4011131" lon="11.4293037"><ele>110.0</ele><time>2026-04-12T10:12:19.975Z</time></trkpt><trkpt lat="44.4009572" lon="11.4294288"><ele>110.0</ele><time>2026-04-12T10:12:20.975Z</time></trkpt><trkpt lat="44.4008053" lon="11.4295631"><ele>110.0</ele><time>2026-04-12T10:12:21.974Z</time></trkpt><trkpt lat="44.4006578" lon="11.4297091"><ele>110.0</ele><time>2026-04-12T10:12:22.979Z</time></trkpt><trkpt lat="44.4005128" lon="11.42986"><ele>109.0</ele><time>2026-04-12T10:12:23.974Z</time></trkpt><trkpt lat="44.4003654" lon="11.4300131"><ele>108.0</ele><time>2026-04-12T10:12:24.975Z</time></trkpt><trkpt lat="44.4002164" lon="11.430162"><ele>107.0</ele><time>2026-04-12T10:12:25.975Z</time></trkpt><trkpt lat="44.4000614" lon="11.4303016"><ele>107.0</ele><time>2026-04-12T10:12:26.975Z</time></trkpt><trkpt lat="44.3998966" lon="11.4304223"><ele>107.0</ele><time>2026-04-12T10:12:27.975Z</time></trkpt><trkpt lat="44.3997214" lon="11.4305264"><ele>107.0</ele><time>2026-04-12T10:12:28.974Z</time></trkpt><trkpt lat="44.3995414" lon="11.4306166"><ele>109.0</ele><time>2026-04-12T10:12:29.973Z</time></trkpt><trkpt lat="44.3993555" lon="11.4306859"><ele>111.0</ele><time>2026-04-12T10:12:30.976Z</time></trkpt><trkpt lat="44.3991631" lon="11.4307191"><ele>113.0</ele><time>2026-04-12T10:12:31.975Z</time></trkpt><trkpt lat="44.3989699" lon="11.4307117"><ele>112.66666666666666</ele><time>2026-04-12T10:12:32.975Z</time></trkpt><trkpt lat="44.3987776" lon="11.430674"><ele>112.33333333333334</ele><time>2026-04-12T10:12:33.974Z</time></trkpt><trkpt lat="44.3985871" lon="11.4306216"><ele>112.0</ele><time>2026-04-12T10:12:34.975Z</time></trkpt><trkpt lat="44.3983948" lon="11.4305743"><ele>112.0</ele><time>2026-04-12T10:12:35.974Z</time></trkpt><trkpt lat="44.398202" lon="11.4305413"><ele>112.0</ele><time>2026-04-12T10:12:36.974Z</time></trkpt><trkpt lat="44.3980166" lon="11.4305209"><ele>112.0</ele><time>2026-04-12T10:12:37.975Z</time></trkpt><trkpt lat="44.3978352" lon="11.4305093"><ele>112.0</ele><time>2026-04-12T10:12:38.975Z</time></trkpt><trkpt lat="44.3976591" lon="11.4304938"><ele>112.0</ele><time>2026-04-12T10:12:39.975Z</time></trkpt><trkpt lat="44.3974851" lon="11.4304765"><ele>112.0</ele><time>2026-04-12T10:12:40.975Z</time></trkpt><trkpt lat="44.3973105" lon="11.4304595"><ele>110.0</ele><time>2026-04-12T10:12:41.974Z</time></trkpt><trkpt lat="44.3971371" lon="11.4304411"><ele>108.0</ele><time>2026-04-12T10:12:42.975Z</time></trkpt><trkpt lat="44.3969629" lon="11.4304176"><ele>106.0</ele><time>2026-04-12T10:12:43.975Z</time></trkpt><trkpt lat="44.3967875" lon="11.430395"><ele>106.0</ele><time>2026-04-12T10:12:44.976Z</time></trkpt><trkpt lat="44.3966104" lon="11.4303714"><ele>106.0</ele><time>2026-04-12T10:12:45.975Z</time></trkpt><trkpt lat="44.3964381" lon="11.4303452"><ele>106.0</ele><time>2026-04-12T10:12:46.976Z</time></trkpt><trkpt lat="44.3962642" lon="11.430324"><ele>107.33333333333334</ele><time>2026-04-12T10:12:47.975Z</time></trkpt><trkpt lat="44.3960895" lon="11.4303066"><ele>108.66666666666666</ele><time>2026-04-12T10:12:48.976Z</time></trkpt><trkpt lat="44.3959215" lon="11.4302882"><ele>110.0</ele><time>2026-04-12T10:12:49.974Z</time></trkpt><trkpt lat="44.3957616" lon="11.4302679"><ele>110.0</ele><time>2026-04-12T10:12:50.976Z</time></trkpt><trkpt lat="44.3956081" lon="11.4302444"><ele>110.0</ele><time>2026-04-12T10:12:51.974Z</time></trkpt><trkpt lat="44.3954585" lon="11.4302099"><ele>110.0</ele><time>2026-04-12T10:12:52.975Z</time></trkpt><trkpt lat="44.3953194" lon="11.4301559"><ele>110.6</ele><time>2026-04-12T10:12:53.975Z</time></trkpt><trkpt lat="44.3952014" lon="11.4300918"><ele>111.2</ele><time>2026-04-12T10:12:54.975Z</time></trkpt><trkpt lat="44.3951046" lon="11.4300285"><ele>111.80000000000001</ele><time>2026-04-12T10:12:55.974Z</time></trkpt><trkpt lat="44.395022" lon="11.4299685"><ele>112.4</ele><time>2026-04-12T10:12:56.975Z</time></trkpt><trkpt lat="44.3949469" lon="11.4299102"><ele>113.0</ele><time>2026-04-12T10:12:57.975Z</time></trkpt><trkpt lat="44.3948734" lon="11.4298504"><ele>113.0</ele><time>2026-04-12T10:12:58.975Z</time></trkpt><trkpt lat="44.3947968" lon="11.429788"><ele>113.00000000000001</ele><time>2026-04-12T10:12:59.974Z</time></trkpt><trkpt lat="44.3947122" lon="11.4297223"><ele>113.00000000000001</ele><time>2026-04-12T10:13:00.975Z</time></trkpt><trkpt lat="44.3946256" lon="11.4296517"><ele>113.0</ele><time>2026-04-12T10:13:01.975Z</time></trkpt><trkpt lat="44.3945387" lon="11.4295825"><ele>113.0</ele><time>2026-04-12T10:13:02.974Z</time></trkpt><trkpt lat="44.3944548" lon="11.4295141"><ele>113.0</ele><time>2026-04-12T10:13:03.975Z</time></trkpt><trkpt lat="44.3943743" lon="11.4294507"><ele>113.00000000000001</ele><time>2026-04-12T10:13:04.976Z</time></trkpt><trkpt lat="44.3942984" lon="11.4293842"><ele>113.00000000000001</ele><time>2026-04-12T10:13:05.975Z</time></trkpt><trkpt lat="44.3942166" lon="11.4293142"><ele>113.0</ele><time>2026-04-12T10:13:06.975Z</time></trkpt><trkpt lat="44.3941242" lon="11.4292474"><ele>113.0</ele><time>2026-04-12T10:13:07.974Z</time></trkpt><trkpt lat="44.3940319" lon="11.4291771"><ele>113.0</ele><time>2026-04-12T10:13:08.975Z</time></trkpt><trkpt lat="44.3939346" lon="11.4291017"><ele>113.0</ele><time>2026-04-12T10:13:09.975Z</time></trkpt><trkpt lat="44.3938348" lon="11.4290162"><ele>113.0</ele><time>2026-04-12T10:13:10.976Z</time></trkpt><trkpt lat="44.3937305" lon="11.4289293"><ele>113.0</ele><time>2026-04-12T10:13:11.975Z</time></trkpt><trkpt lat="44.3936194" lon="11.4288387"><ele>112.5</ele><time>2026-04-12T10:13:12.976Z</time></trkpt><trkpt lat="44.393504" lon="11.4287464"><ele>112.0</ele><time>2026-04-12T10:13:13.974Z</time></trkpt><trkpt lat="44.3933855" lon="11.4286539"><ele>111.5</ele><time>2026-04-12T10:13:14.975Z</time></trkpt><trkpt lat="44.3932616" lon="11.4285605"><ele>111.0</ele><time>2026-04-12T10:13:15.975Z</time></trkpt><trkpt lat="44.3931382" lon="11.4284732"><ele>111.0</ele><time>2026-04-12T10:13:16.976Z</time></trkpt><trkpt lat="44.3930162" lon="11.4284058"><ele>111.0</ele><time>2026-04-12T10:13:17.974Z</time></trkpt><trkpt lat="44.392893" lon="11.4283638"><ele>111.0</ele><time>2026-04-12T10:13:18.974Z</time></trkpt><trkpt lat="44.3927595" lon="11.4283552"><ele>111.0</ele><time>2026-04-12T10:13:19.975Z</time></trkpt><trkpt lat="44.3926235" lon="11.4283758"><ele>111.25</ele><time>2026-04-12T10:13:20.976Z</time></trkpt><trkpt lat="44.3924898" lon="11.4284111"><ele>111.5</ele><time>2026-04-12T10:13:21.976Z</time></trkpt><trkpt lat="44.3923596" lon="11.4284662"><ele>111.75</ele><time>2026-04-12T10:13:22.975Z</time></trkpt><trkpt lat="44.3922379" lon="11.4285389"><ele>112.0</ele><time>2026-04-12T10:13:23.974Z</time></trkpt><trkpt lat="44.39212" lon="11.4286274"><ele>112.0</ele><time>2026-04-12T10:13:24.975Z</time></trkpt><trkpt lat="44.3920004" lon="11.4287246"><ele>112.0</ele><time>2026-04-12T10:13:25.975Z</time></trkpt><trkpt lat="44.3918829" lon="11.4288144"><ele>112.0</ele><time>2026-04-12T10:13:26.974Z</time></trkpt><trkpt lat="44.3917637" lon="11.4289008"><ele>112.0</ele><time>2026-04-12T10:13:27.975Z</time></trkpt><trkpt lat="44.3916442" lon="11.4289884"><ele>112.5</ele><time>2026-04-12T10:13:28.976Z</time></trkpt><trkpt lat="44.3915255" lon="11.4290815"><ele>113.0</ele><time>2026-04-12T10:13:29.974Z</time></trkpt><trkpt lat="44.3914085" lon="11.4291763"><ele>113.5</ele><time>2026-04-12T10:13:30.975Z</time></trkpt><trkpt lat="44.3912928" lon="11.4292758"><ele>114.0</ele><time>2026-04-12T10:13:31.975Z</time></trkpt><trkpt lat="44.3911854" lon="11.4293765"><ele>114.0</ele><time>2026-04-12T10:13:32.974Z</time></trkpt><trkpt lat="44.3910802" lon="11.4294797"><ele>114.0</ele><time>2026-04-12T10:13:33.975Z</time></trkpt><trkpt lat="44.3909784" lon="11.4295902"><ele>114.0</ele><time>2026-04-12T10:13:34.974Z</time></trkpt><trkpt lat="44.3908832" lon="11.4297179"><ele>114.0</ele><time>2026-04-12T10:13:35.974Z</time></trkpt><trkpt lat="44.3907958" lon="11.429853"><ele>114.5</ele><time>2026-04-12T10:13:36.975Z</time></trkpt><trkpt lat="44.3907181" lon="11.4299982"><ele>115.0</ele><time>2026-04-12T10:13:37.976Z</time></trkpt><trkpt lat="44.3906481" lon="11.4301496"><ele>115.5</ele><time>2026-04-12T10:13:38.975Z</time></trkpt><trkpt lat="44.3905787" lon="11.4303025"><ele>116.0</ele><time>2026-04-12T10:13:39.974Z</time></trkpt><trkpt lat="44.3905081" lon="11.4304653"><ele>116.75</ele><time>2026-04-12T10:13:40.975Z</time></trkpt><trkpt lat="44.3904409" lon="11.4306288"><ele>117.5</ele><time>2026-04-12T10:13:41.975Z</time></trkpt><trkpt lat="44.3903755" lon="11.430795"><ele>118.25</ele><time>2026-04-12T10:13:42.975Z</time></trkpt><trkpt lat="44.3903071" lon="11.4309621"><ele>119.0</ele><time>2026-04-12T10:13:43.974Z</time></trkpt><trkpt lat="44.3902307" lon="11.4311263"><ele>119.0</ele><time>2026-04-12T10:13:44.975Z</time></trkpt><trkpt lat="44.3901504" lon="11.4312895"><ele>119.0</ele><time>2026-04-12T10:13:45.977Z</time></trkpt><trkpt lat="44.3900623" lon="11.4314522"><ele>119.0</ele><time>2026-04-12T10:13:46.974Z</time></trkpt><trkpt lat="44.3899688" lon="11.4316118"><ele>119.0</ele><time>2026-04-12T10:13:47.975Z</time></trkpt><trkpt lat="44.3898775" lon="11.4317673"><ele>120.75</ele><time>2026-04-12T10:13:48.974Z</time></trkpt><trkpt lat="44.3897799" lon="11.4319183"><ele>122.5</ele><time>2026-04-12T10:13:49.975Z</time></trkpt><trkpt lat="44.3896834" lon="11.432053"><ele>124.25</ele><time>2026-04-12T10:13:50.974Z</time></trkpt><trkpt lat="44.3895925" lon="11.4321693"><ele>126.0</ele><time>2026-04-12T10:13:51.975Z</time></trkpt><trkpt lat="44.3895072" lon="11.432272"><ele>126.5</ele><time>2026-04-12T10:13:52.976Z</time></trkpt><trkpt lat="44.389423" lon="11.4323638"><ele>127.0</ele><time>2026-04-12T10:13:53.975Z</time></trkpt><trkpt lat="44.3893374" lon="11.4324329"><ele>127.5</ele><time>2026-04-12T10:13:54.975Z</time></trkpt><trkpt lat="44.3892571" lon="11.4324838"><ele>128.0</ele><time>2026-04-12T10:13:55.974Z</time></trkpt><trkpt lat="44.3891826" lon="11.4325264"><ele>128.5</ele><time>2026-04-12T10:13:56.974Z</time></trkpt><trkpt lat="44.3891136" lon="11.4325483"><ele>129.0</ele><time>2026-04-12T10:13:57.974Z</time></trkpt><trkpt lat="44.3890449" lon="11.4325426"><ele>129.0</ele><time>2026-04-12T10:13:58.974Z</time></trkpt><trkpt lat="44.38898" lon="11.4325218"><ele>129.0</ele><time>2026-04-12T10:13:59.974Z</time></trkpt><trkpt lat="44.3888755" lon="11.4324913"><ele>129.0</ele><time>2026-04-12T10:14:01.974Z</time></trkpt><trkpt lat="44.388794" lon="11.4324833"><ele>129.0</ele><time>2026-04-12T10:14:03.974Z</time></trkpt><trkpt lat="44.3887209" lon="11.4324691"><ele>129.0</ele><time>2026-04-12T10:14:05.974Z</time></trkpt><trkpt lat="44.3886473" lon="11.4324065"><ele>129.0</ele><time>2026-04-12T10:14:08.975Z</time></trkpt><trkpt lat="44.3885825" lon="11.4324372"><ele>128.16666666666666</ele><time>2026-04-12T10:14:12.975Z</time></trkpt><trkpt lat="44.3885527" lon="11.4325246"><ele>127.33333333333334</ele><time>2026-04-12T10:14:15.975Z</time></trkpt><trkpt lat="44.3885101" lon="11.4326259"><ele>126.5</ele><time>2026-04-12T10:16:30.975Z</time></trkpt><trkpt lat="44.388417" lon="11.4326637"><ele>125.66666666666667</ele><time>2026-04-12T10:16:32.977Z</time></trkpt><trkpt lat="44.3883421" lon="11.4326734"><ele>124.83333333333334</ele><time>2026-04-12T10:16:33.974Z</time></trkpt><trkpt lat="44.3882601" lon="11.4326746"><ele>124.0</ele><time>2026-04-12T10:16:34.975Z</time></trkpt><trkpt lat="44.3881732" lon="11.4326641"><ele>124.0</ele><time>2026-04-12T10:16:35.974Z</time></trkpt><trkpt lat="44.3880697" lon="11.4326364"><ele>124.0</ele><time>2026-04-12T10:16:36.974Z</time></trkpt><trkpt lat="44.3879484" lon="11.4325784"><ele>124.0</ele><time>2026-04-12T10:16:37.973Z</time></trkpt><trkpt lat="44.3878266" lon="11.4325084"><ele>124.0</ele><time>2026-04-12T10:16:38.974Z</time></trkpt><trkpt lat="44.3877045" lon="11.4324283"><ele>124.33333333333334</ele><time>2026-04-12T10:16:39.974Z</time></trkpt><trkpt lat="44.3875698" lon="11.4323463"><ele>124.66666666666666</ele><time>2026-04-12T10:16:40.974Z</time></trkpt><trkpt lat="44.3874199" lon="11.4322722"><ele>125.0</ele><time>2026-04-12T10:16:41.974Z</time></trkpt><trkpt lat="44.3872585" lon="11.4322242"><ele>124.66666666666666</ele><time>2026-04-12T10:16:42.975Z</time></trkpt><trkpt lat="44.3870873" lon="11.4322135"><ele>124.33333333333334</ele><time>2026-04-12T10:16:43.974Z</time></trkpt><trkpt lat="44.3869045" lon="11.4322362"><ele>124.0</ele><time>2026-04-12T10:16:44.975Z</time></trkpt><trkpt lat="44.3867101" lon="11.4322814"><ele>124.0</ele><time>2026-04-12T10:16:45.974Z</time></trkpt><trkpt lat="44.3865032" lon="11.4323372"><ele>124.0</ele><time>2026-04-12T10:16:46.975Z</time></trkpt><trkpt lat="44.386288" lon="11.4323868"><ele>124.0</ele><time>2026-04-12T10:16:47.974Z</time></trkpt><trkpt lat="44.3860757" lon="11.4324233"><ele>123.66666666666667</ele><time>2026-04-12T10:16:48.976Z</time></trkpt><trkpt lat="44.3858696" lon="11.4324498"><ele>123.33333333333334</ele><time>2026-04-12T10:16:49.975Z</time></trkpt><trkpt lat="44.3856716" lon="11.4324711"><ele>123.0</ele><time>2026-04-12T10:16:50.976Z</time></trkpt><trkpt lat="44.3854804" lon="11.4324923"><ele>122.33333333333334</ele><time>2026-04-12T10:16:51.975Z</time></trkpt><trkpt lat="44.3852885" lon="11.432512"><ele>121.66666666666667</ele><time>2026-04-12T10:16:52.974Z</time></trkpt><trkpt lat="44.3850889" lon="11.4325329"><ele>121.0</ele><time>2026-04-12T10:16:53.975Z</time></trkpt><trkpt lat="44.3848891" lon="11.4325501"><ele>121.0</ele><time>2026-04-12T10:16:54.975Z</time></trkpt><trkpt lat="44.3846862" lon="11.4325522"><ele>121.0</ele><time>2026-04-12T10:16:55.976Z</time></trkpt><trkpt lat="44.3844796" lon="11.4325277"><ele>121.0</ele><time>2026-04-12T10:16:56.976Z</time></trkpt><trkpt lat="44.3842773" lon="11.4324696"><ele>121.0</ele><time>2026-04-12T10:16:57.974Z</time></trkpt><trkpt lat="44.3840809" lon="11.4323806"><ele>121.0</ele><time>2026-04-12T10:16:58.974Z</time></trkpt><trkpt lat="44.3838965" lon="11.4322661"><ele>121.0</ele><time>2026-04-12T10:16:59.976Z</time></trkpt><trkpt lat="44.3837249" lon="11.4321397"><ele>123.66666666666667</ele><time>2026-04-12T10:17:00.974Z</time></trkpt><trkpt lat="44.3835576" lon="11.4320035"><ele>126.33333333333334</ele><time>2026-04-12T10:17:01.974Z</time></trkpt><trkpt lat="44.383393" lon="11.4318635"><ele>129.0</ele><time>2026-04-12T10:17:02.975Z</time></trkpt><trkpt lat="44.3832287" lon="11.4317196"><ele>129.0</ele><time>2026-04-12T10:17:03.975Z</time></trkpt><trkpt lat="44.3830635" lon="11.4315803"><ele>129.0</ele><time>2026-04-12T10:17:04.975Z</time></trkpt><trkpt lat="44.3828993" lon="11.4314387"><ele>129.0</ele><time>2026-04-12T10:17:05.975Z</time></trkpt><trkpt lat="44.3827342" lon="11.4313003"><ele>129.33333333333334</ele><time>2026-04-12T10:17:06.975Z</time></trkpt><trkpt lat="44.3825687" lon="11.4311638"><ele>129.66666666666669</ele><time>2026-04-12T10:17:07.974Z</time></trkpt><trkpt lat="44.3824026" lon="11.4310217"><ele>130.0</ele><time>2026-04-12T10:17:08.975Z</time></trkpt><trkpt lat="44.3822363" lon="11.4308806"><ele>129.66666666666669</ele><time>2026-04-12T10:17:09.974Z</time></trkpt><trkpt lat="44.3820685" lon="11.4307225"><ele>129.33333333333334</ele><time>2026-04-12T10:17:10.974Z</time></trkpt><trkpt lat="44.3819033" lon="11.430553"><ele>129.0</ele><time>2026-04-12T10:17:11.975Z</time></trkpt><trkpt lat="44.3817424" lon="11.4303744"><ele>129.0</ele><time>2026-04-12T10:17:12.975Z</time></trkpt><trkpt lat="44.3815835" lon="11.4301952"><ele>129.0</ele><time>2026-04-12T10:17:13.974Z</time></trkpt><trkpt lat="44.3814246" lon="11.4300087"><ele>129.0</ele><time>2026-04-12T10:17:14.975Z</time></trkpt><trkpt lat="44.3812699" lon="11.4298123"><ele>129.33333333333334</ele><time>2026-04-12T10:17:15.974Z</time></trkpt><trkpt lat="44.3811181" lon="11.4296043"><ele>129.66666666666669</ele><time>2026-04-12T10:17:16.975Z</time></trkpt><trkpt lat="44.3809754" lon="11.4293875"><ele>130.0</ele><time>2026-04-12T10:17:17.974Z</time></trkpt><trkpt lat="44.3808363" lon="11.4291636"><ele>130.0</ele><time>2026-04-12T10:17:18.975Z</time></trkpt><trkpt lat="44.3806993" lon="11.4289301"><ele>130.0</ele><time>2026-04-12T10:17:19.974Z</time></trkpt><trkpt lat="44.3805746" lon="11.4286872"><ele>130.0</ele><time>2026-04-12T10:17:20.977Z</time></trkpt><trkpt lat="44.3804694" lon="11.4284365"><ele>130.33333333333334</ele><time>2026-04-12T10:17:21.975Z</time></trkpt><trkpt lat="44.3803808" lon="11.4281841"><ele>130.66666666666666</ele><time>2026-04-12T10:17:22.974Z</time></trkpt><trkpt lat="44.3802918" lon="11.427946"><ele>131.0</ele><time>2026-04-12T10:17:23.975Z</time></trkpt><trkpt lat="44.3801833" lon="11.4277417"><ele>131.0</ele><time>2026-04-12T10:17:24.974Z</time></trkpt><trkpt lat="44.380049" lon="11.4275736"><ele>131.0</ele><time>2026-04-12T10:17:25.974Z</time></trkpt><trkpt lat="44.3798908" lon="11.4274356"><ele>131.0</ele><time>2026-04-12T10:17:26.974Z</time></trkpt><trkpt lat="44.3797187" lon="11.4273185"><ele>132.0</ele><time>2026-04-12T10:17:27.975Z</time></trkpt><trkpt lat="44.3795421" lon="11.427207"><ele>133.0</ele><time>2026-04-12T10:17:28.974Z</time></trkpt><trkpt lat="44.3793602" lon="11.4270977"><ele>134.0</ele><time>2026-04-12T10:17:29.976Z</time></trkpt><trkpt lat="44.3791772" lon="11.4269932"><ele>132.66666666666666</ele><time>2026-04-12T10:17:30.974Z</time></trkpt><trkpt lat="44.3789895" lon="11.4269045"><ele>131.33333333333334</ele><time>2026-04-12T10:17:31.974Z</time></trkpt><trkpt lat="44.3788013" lon="11.4268248"><ele>130.0</ele><time>2026-04-12T10:17:32.976Z</time></trkpt><trkpt lat="44.3786105" lon="11.4267516"><ele>130.0</ele><time>2026-04-12T10:17:33.976Z</time></trkpt><trkpt lat="44.3784198" lon="11.4266814"><ele>130.0</ele><time>2026-04-12T10:17:34.974Z</time></trkpt><trkpt lat="44.3782305" lon="11.4266155"><ele>130.0</ele><time>2026-04-12T10:17:35.975Z</time></trkpt><trkpt lat="44.3780379" lon="11.42655"><ele>130.66666666666669</ele><time>2026-04-12T10:17:36.975Z</time></trkpt><trkpt lat="44.3778425" lon="11.4264873"><ele>131.33333333333334</ele><time>2026-04-12T10:17:37.975Z</time></trkpt><trkpt lat="44.3776509" lon="11.4264226"><ele>132.0</ele><time>2026-04-12T10:17:38.975Z</time></trkpt><trkpt lat="44.3774613" lon="11.4263613"><ele>132.0</ele><time>2026-04-12T10:17:39.974Z</time></trkpt><trkpt lat="44.3772694" lon="11.4263133"><ele>132.0</ele><time>2026-04-12T10:17:40.975Z</time></trkpt><trkpt lat="44.3770737" lon="11.4262927"><ele>132.0</ele><time>2026-04-12T10:17:41.974Z</time></trkpt><trkpt lat="44.3768798" lon="11.4263072"><ele>132.66666666666666</ele><time>2026-04-12T10:17:42.974Z</time></trkpt><trkpt lat="44.3766859" lon="11.4263379"><ele>133.33333333333331</ele><time>2026-04-12T10:17:43.974Z</time></trkpt><trkpt lat="44.3764931" lon="11.4263766"><ele>134.0</ele><time>2026-04-12T10:17:44.974Z</time></trkpt><trkpt lat="44.3762964" lon="11.4264116"><ele>134.0</ele><time>2026-04-12T10:17:45.975Z</time></trkpt><trkpt lat="44.3761021" lon="11.4264451"><ele>134.0</ele><time>2026-04-12T10:17:46.975Z</time></trkpt><trkpt lat="44.3758985" lon="11.426479"><ele>134.0</ele><time>2026-04-12T10:17:47.974Z</time></trkpt><trkpt lat="44.3757042" lon="11.4265181"><ele>134.66666666666666</ele><time>2026-04-12T10:17:48.976Z</time></trkpt><trkpt lat="44.3755048" lon="11.4265631"><ele>135.33333333333334</ele><time>2026-04-12T10:17:49.974Z</time></trkpt><trkpt lat="44.3753083" lon="11.4266193"><ele>136.0</ele><time>2026-04-12T10:17:50.976Z</time></trkpt><trkpt lat="44.3751113" lon="11.4266779"><ele>136.0</ele><time>2026-04-12T10:17:51.975Z</time></trkpt><trkpt lat="44.3749131" lon="11.426736"><ele>136.0</ele><time>2026-04-12T10:17:52.975Z</time></trkpt><trkpt lat="44.374713" lon="11.4267907"><ele>136.0</ele><time>2026-04-12T10:17:53.976Z</time></trkpt><trkpt lat="44.3745107" lon="11.4268531"><ele>135.33333333333334</ele><time>2026-04-12T10:17:54.976Z</time></trkpt><trkpt lat="44.3743083" lon="11.4269308"><ele>134.66666666666666</ele><time>2026-04-12T10:17:55.974Z</time></trkpt><trkpt lat="44.3741085" lon="11.4270214"><ele>134.0</ele><time>2026-04-12T10:17:56.974Z</time></trkpt><trkpt lat="44.3739103" lon="11.4271244"><ele>135.66666666666666</ele><time>2026-04-12T10:17:57.975Z</time></trkpt><trkpt lat="44.3737123" lon="11.427233"><ele>137.33333333333334</ele><time>2026-04-12T10:17:58.974Z</time></trkpt><trkpt lat="44.3735136" lon="11.4273398"><ele>139.0</ele><time>2026-04-12T10:17:59.975Z</time></trkpt><trkpt lat="44.3733164" lon="11.4274411"><ele>139.0</ele><time>2026-04-12T10:18:00.974Z</time></trkpt><trkpt lat="44.3731154" lon="11.4275185"><ele>139.0</ele><time>2026-04-12T10:18:01.974Z</time></trkpt><trkpt lat="44.3729098" lon="11.4275543"><ele>139.0</ele><time>2026-04-12T10:18:02.975Z</time></trkpt><trkpt lat="44.3727039" lon="11.4275417"><ele>140.0</ele><time>2026-04-12T10:18:03.975Z</time></trkpt><trkpt lat="44.3724988" lon="11.4274938"><ele>141.0</ele><time>2026-04-12T10:18:04.975Z</time></trkpt><trkpt lat="44.3722955" lon="11.4274217"><ele>142.0</ele><time>2026-04-12T10:18:05.975Z</time></trkpt><trkpt lat="44.3720904" lon="11.4273389"><ele>142.0</ele><time>2026-04-12T10:18:06.974Z</time></trkpt><trkpt lat="44.3718859" lon="11.427251"><ele>142.0</ele><time>2026-04-12T10:18:07.974Z</time></trkpt><trkpt lat="44.37168" lon="11.4271587"><ele>142.0</ele><time>2026-04-12T10:18:08.974Z</time></trkpt><trkpt lat="44.3714793" lon="11.4270701"><ele>145.33333333333334</ele><time>2026-04-12T10:18:09.974Z</time></trkpt><trkpt lat="44.371279" lon="11.4269824"><ele>148.66666666666666</ele><time>2026-04-12T10:18:10.974Z</time></trkpt><trkpt lat="44.3710864" lon="11.4268873"><ele>152.0</ele><time>2026-04-12T10:18:11.975Z</time></trkpt><trkpt lat="44.3709009" lon="11.4267744"><ele>152.0</ele><time>2026-04-12T10:18:12.974Z</time></trkpt><trkpt lat="44.3707223" lon="11.4266411"><ele>152.0</ele><time>2026-04-12T10:18:13.974Z</time></trkpt><trkpt lat="44.3705545" lon="11.4264856"><ele>152.0</ele><time>2026-04-12T10:18:14.976Z</time></trkpt><trkpt lat="44.370394" lon="11.4263089"><ele>151.0</ele><time>2026-04-12T10:18:15.974Z</time></trkpt><trkpt lat="44.3702387" lon="11.4261149"><ele>150.0</ele><time>2026-04-12T10:18:16.974Z</time></trkpt><trkpt lat="44.3700891" lon="11.4259129"><ele>149.0</ele><time>2026-04-12T10:18:17.975Z</time></trkpt><trkpt lat="44.3699423" lon="11.4257048"><ele>149.0</ele><time>2026-04-12T10:18:18.973Z</time></trkpt><trkpt lat="44.3697977" lon="11.4255018"><ele>149.0</ele><time>2026-04-12T10:18:19.974Z</time></trkpt><trkpt lat="44.3696497" lon="11.425299"><ele>149.0</ele><time>2026-04-12T10:18:20.974Z</time></trkpt><trkpt lat="44.3695018" lon="11.4250909"><ele>150.66666666666666</ele><time>2026-04-12T10:18:21.973Z</time></trkpt><trkpt lat="44.3693525" lon="11.424886"><ele>152.33333333333334</ele><time>2026-04-12T10:18:22.974Z</time></trkpt><trkpt lat="44.3692011" lon="11.4246764"><ele>154.0</ele><time>2026-04-12T10:18:23.975Z</time></trkpt><trkpt lat="44.3690502" lon="11.4244609"><ele>150.0</ele><time>2026-04-12T10:18:24.974Z</time></trkpt><trkpt lat="44.3688976" lon="11.4242523"><ele>146.0</ele><time>2026-04-12T10:18:25.975Z</time></trkpt><trkpt lat="44.3687443" lon="11.4240431"><ele>142.0</ele><time>2026-04-12T10:18:26.974Z</time></trkpt><trkpt lat="44.3685906" lon="11.4238304"><ele>144.33333333333334</ele><time>2026-04-12T10:18:27.975Z</time></trkpt><trkpt lat="44.3684358" lon="11.4236162"><ele>146.66666666666666</ele><time>2026-04-12T10:18:28.976Z</time></trkpt><trkpt lat="44.3682918" lon="11.4234072"><ele>149.0</ele><time>2026-04-12T10:18:29.974Z</time></trkpt><trkpt lat="44.3681742" lon="11.4232053"><ele>149.0</ele><time>2026-04-12T10:18:30.974Z</time></trkpt><trkpt lat="44.3680968" lon="11.4229893"><ele>149.0</ele><time>2026-04-12T10:18:31.974Z</time></trkpt><trkpt lat="44.3680557" lon="11.4227498"><ele>149.0</ele><time>2026-04-12T10:18:32.976Z</time></trkpt><trkpt lat="44.3680287" lon="11.4224942"><ele>149.0</ele><time>2026-04-12T10:18:33.974Z</time></trkpt><trkpt lat="44.3680133" lon="11.4222227"><ele>149.0</ele><time>2026-04-12T10:18:34.975Z</time></trkpt><trkpt lat="44.367993" lon="11.4219473"><ele>149.0</ele><time>2026-04-12T10:18:35.975Z</time></trkpt><trkpt lat="44.3679577" lon="11.4216734"><ele>149.66666666666666</ele><time>2026-04-12T10:18:36.975Z</time></trkpt><trkpt lat="44.3679035" lon="11.4214052"><ele>150.33333333333334</ele><time>2026-04-12T10:18:37.974Z</time></trkpt><trkpt lat="44.3678238" lon="11.4211529"><ele>151.0</ele><time>2026-04-12T10:18:38.975Z</time></trkpt><trkpt lat="44.3677231" lon="11.4209177"><ele>150.66666666666669</ele><time>2026-04-12T10:18:39.975Z</time></trkpt><trkpt lat="44.3676069" lon="11.4206939"><ele>150.33333333333334</ele><time>2026-04-12T10:18:40.974Z</time></trkpt><trkpt lat="44.3674888" lon="11.4204723"><ele>150.0</ele><time>2026-04-12T10:18:41.974Z</time></trkpt><trkpt lat="44.3673841" lon="11.4202497"><ele>150.0</ele><time>2026-04-12T10:18:42.975Z</time></trkpt><trkpt lat="44.3672891" lon="11.4200209"><ele>150.0</ele><time>2026-04-12T10:18:43.974Z</time></trkpt><trkpt lat="44.3671956" lon="11.4197872"><ele>150.0</ele><time>2026-04-12T10:18:44.975Z</time></trkpt><trkpt lat="44.3670981" lon="11.4195454"><ele>151.33333333333334</ele><time>2026-04-12T10:18:45.974Z</time></trkpt><trkpt lat="44.3669918" lon="11.4192825"><ele>152.66666666666669</ele><time>2026-04-12T10:18:46.974Z</time></trkpt><trkpt lat="44.3668918" lon="11.4190098"><ele>154.0</ele><time>2026-04-12T10:18:47.974Z</time></trkpt><trkpt lat="44.3668102" lon="11.4187387"><ele>154.0</ele><time>2026-04-12T10:18:48.975Z</time></trkpt><trkpt lat="44.3667257" lon="11.4184857"><ele>154.0</ele><time>2026-04-12T10:18:49.975Z</time></trkpt><trkpt lat="44.3666252" lon="11.4182614"><ele>154.0</ele><time>2026-04-12T10:18:50.974Z</time></trkpt><trkpt lat="44.3664941" lon="11.4180737"><ele>154.0</ele><time>2026-04-12T10:18:51.974Z</time></trkpt><trkpt lat="44.3663441" lon="11.4179222"><ele>154.0</ele><time>2026-04-12T10:18:52.974Z</time></trkpt><trkpt lat="44.3661783" lon="11.4178166"><ele>154.0</ele><time>2026-04-12T10:18:53.973Z</time></trkpt><trkpt lat="44.3660088" lon="11.4177567"><ele>154.0</ele><time>2026-04-12T10:18:54.974Z</time></trkpt><trkpt lat="44.3658355" lon="11.4177345"><ele>154.0</ele><time>2026-04-12T10:18:55.974Z</time></trkpt><trkpt lat="44.3656629" lon="11.4177333"><ele>154.0</ele><time>2026-04-12T10:18:56.976Z</time></trkpt><trkpt lat="44.3654912" lon="11.4177421"><ele>154.66666666666669</ele><time>2026-04-12T10:18:57.974Z</time></trkpt><trkpt lat="44.3653156" lon="11.4177575"><ele>155.33333333333334</ele><time>2026-04-12T10:18:58.974Z</time></trkpt><trkpt lat="44.3651332" lon="11.4177818"><ele>156.0</ele><time>2026-04-12T10:18:59.975Z</time></trkpt><trkpt lat="44.3649416" lon="11.4178145"><ele>156.0</ele><time>2026-04-12T10:19:00.975Z</time></trkpt><trkpt lat="44.364742" lon="11.4178462"><ele>156.0</ele><time>2026-04-12T10:19:01.976Z</time></trkpt><trkpt lat="44.3645325" lon="11.4178782"><ele>156.0</ele><time>2026-04-12T10:19:02.975Z</time></trkpt><trkpt lat="44.3643168" lon="11.4179222"><ele>155.5</ele><time>2026-04-12T10:19:03.975Z</time></trkpt><trkpt lat="44.36409" lon="11.4179692"><ele>155.0</ele><time>2026-04-12T10:19:04.975Z</time></trkpt><trkpt lat="44.3638597" lon="11.418015"><ele>154.5</ele><time>2026-04-12T10:19:05.975Z</time></trkpt><trkpt lat="44.3636288" lon="11.4180609"><ele>154.0</ele><time>2026-04-12T10:19:06.974Z</time></trkpt><trkpt lat="44.3634028" lon="11.418108"><ele>154.0</ele><time>2026-04-12T10:19:07.974Z</time></trkpt><trkpt lat="44.3631741" lon="11.4181599"><ele>154.0</ele><time>2026-04-12T10:19:08.976Z</time></trkpt><trkpt lat="44.3629507" lon="11.4182104"><ele>154.0</ele><time>2026-04-12T10:19:09.974Z</time></trkpt><trkpt lat="44.3627323" lon="11.4182575"><ele>154.0</ele><time>2026-04-12T10:19:10.974Z</time></trkpt><trkpt lat="44.3625281" lon="11.4183063"><ele>154.0</ele><time>2026-04-12T10:19:11.977Z</time></trkpt><trkpt lat="44.3623317" lon="11.4183482"><ele>155.0</ele><time>2026-04-12T10:19:12.976Z</time></trkpt><trkpt lat="44.3621408" lon="11.4183729"><ele>156.0</ele><time>2026-04-12T10:19:13.974Z</time></trkpt><trkpt lat="44.3619507" lon="11.4183601"><ele>157.0</ele><time>2026-04-12T10:19:14.974Z</time></trkpt><trkpt lat="44.3617609" lon="11.4182996"><ele>157.0</ele><time>2026-04-12T10:19:15.975Z</time></trkpt><trkpt lat="44.3615698" lon="11.4181957"><ele>157.0</ele><time>2026-04-12T10:19:16.974Z</time></trkpt><trkpt lat="44.3613689" lon="11.4180636"><ele>157.0</ele><time>2026-04-12T10:19:17.975Z</time></trkpt><trkpt lat="44.3611548" lon="11.4179217"><ele>158.0</ele><time>2026-04-12T10:19:18.975Z</time></trkpt><trkpt lat="44.3609283" lon="11.4177793"><ele>159.0</ele><time>2026-04-12T10:19:19.974Z</time></trkpt><trkpt lat="44.3606925" lon="11.4176275"><ele>167.0</ele><time>2026-04-12T10:19:20.975Z</time></trkpt><trkpt lat="44.360454" lon="11.4174612"><ele>175.0</ele><time>2026-04-12T10:19:21.974Z</time></trkpt><trkpt lat="44.3602318" lon="11.4172826"><ele>166.5</ele><time>2026-04-12T10:19:22.974Z</time></trkpt><trkpt lat="44.3600301" lon="11.4170926"><ele>158.0</ele><time>2026-04-12T10:19:23.975Z</time></trkpt><trkpt lat="44.3598503" lon="11.4168957"><ele>160.0</ele><time>2026-04-12T10:19:24.974Z</time></trkpt><trkpt lat="44.3596965" lon="11.4166872"><ele>162.0</ele><time>2026-04-12T10:19:25.974Z</time></trkpt><trkpt lat="44.3595783" lon="11.416456"><ele>164.0</ele><time>2026-04-12T10:19:26.975Z</time></trkpt><trkpt lat="44.3594837" lon="11.4162062"><ele>164.0</ele><time>2026-04-12T10:19:27.974Z</time></trkpt><trkpt lat="44.3593899" lon="11.415958"><ele>164.0</ele><time>2026-04-12T10:19:28.976Z</time></trkpt><trkpt lat="44.3592782" lon="11.4157292"><ele>164.0</ele><time>2026-04-12T10:19:29.976Z</time></trkpt><trkpt lat="44.3591414" lon="11.4155351"><ele>162.66666666666666</ele><time>2026-04-12T10:19:30.974Z</time></trkpt><trkpt lat="44.3589757" lon="11.4153759"><ele>161.33333333333334</ele><time>2026-04-12T10:19:31.974Z</time></trkpt><trkpt lat="44.3587984" lon="11.4152302"><ele>160.0</ele><time>2026-04-12T10:19:32.977Z</time></trkpt><trkpt lat="44.3586174" lon="11.415086"><ele>159.66666666666669</ele><time>2026-04-12T10:19:33.975Z</time></trkpt><trkpt lat="44.358436" lon="11.4149353"><ele>159.33333333333334</ele><time>2026-04-12T10:19:34.974Z</time></trkpt><trkpt lat="44.3582525" lon="11.4147847"><ele>159.0</ele><time>2026-04-12T10:19:35.974Z</time></trkpt><trkpt lat="44.3580695" lon="11.414634"><ele>163.33333333333334</ele><time>2026-04-12T10:19:36.975Z</time></trkpt><trkpt lat="44.3578874" lon="11.414482"><ele>167.66666666666669</ele><time>2026-04-12T10:19:37.975Z</time></trkpt><trkpt lat="44.3577062" lon="11.4143235"><ele>172.0</ele><time>2026-04-12T10:19:38.975Z</time></trkpt><trkpt lat="44.3575223" lon="11.4141642"><ele>172.0</ele><time>2026-04-12T10:19:39.974Z</time></trkpt><trkpt lat="44.3573385" lon="11.414012"><ele>172.0</ele><time>2026-04-12T10:19:40.975Z</time></trkpt><trkpt lat="44.3571528" lon="11.4138838"><ele>172.0</ele><time>2026-04-12T10:19:41.974Z</time></trkpt><trkpt lat="44.3569625" lon="11.4137971"><ele>169.33333333333334</ele><time>2026-04-12T10:19:42.974Z</time></trkpt><trkpt lat="44.356777" lon="11.4137803"><ele>166.66666666666666</ele><time>2026-04-12T10:19:43.976Z</time></trkpt><trkpt lat="44.3565905" lon="11.4138158"><ele>164.0</ele><time>2026-04-12T10:19:44.975Z</time></trkpt><trkpt lat="44.3564108" lon="11.413897"><ele>167.33333333333331</ele><time>2026-04-12T10:19:45.974Z</time></trkpt><trkpt lat="44.3562327" lon="11.4140057"><ele>170.66666666666666</ele><time>2026-04-12T10:19:46.975Z</time></trkpt><trkpt lat="44.35605" lon="11.4141078"><ele>174.0</ele><time>2026-04-12T10:19:47.975Z</time></trkpt><trkpt lat="44.3558642" lon="11.4141957"><ele>174.0</ele><time>2026-04-12T10:19:48.974Z</time></trkpt><trkpt lat="44.3556779" lon="11.4142749"><ele>174.0</ele><time>2026-04-12T10:19:49.975Z</time></trkpt><trkpt lat="44.3554949" lon="11.4143449"><ele>174.0</ele><time>2026-04-12T10:19:50.976Z</time></trkpt><trkpt lat="44.3553124" lon="11.4144012"><ele>172.66666666666666</ele><time>2026-04-12T10:19:51.974Z</time></trkpt><trkpt lat="44.3551308" lon="11.4144577"><ele>171.33333333333331</ele><time>2026-04-12T10:19:52.974Z</time></trkpt><trkpt lat="44.3549454" lon="11.4144973"><ele>170.0</ele><time>2026-04-12T10:19:53.975Z</time></trkpt><trkpt lat="44.3547567" lon="11.4145249"><ele>170.0</ele><time>2026-04-12T10:19:54.975Z</time></trkpt><trkpt lat="44.3545703" lon="11.4145454"><ele>170.0</ele><time>2026-04-12T10:19:55.976Z</time></trkpt><trkpt lat="44.3543828" lon="11.4145602"><ele>170.0</ele><time>2026-04-12T10:19:56.974Z</time></trkpt><trkpt lat="44.3541945" lon="11.4145714"><ele>170.0</ele><time>2026-04-12T10:19:57.975Z</time></trkpt><trkpt lat="44.3539987" lon="11.4145623"><ele>170.0</ele><time>2026-04-12T10:19:58.975Z</time></trkpt><trkpt lat="44.3538033" lon="11.414522"><ele>170.0</ele><time>2026-04-12T10:19:59.976Z</time></trkpt><trkpt lat="44.3536185" lon="11.4144325"><ele>172.0</ele><time>2026-04-12T10:20:00.975Z</time></trkpt><trkpt lat="44.3534412" lon="11.4143063"><ele>174.0</ele><time>2026-04-12T10:20:01.974Z</time></trkpt><trkpt lat="44.3532712" lon="11.414153"><ele>176.0</ele><time>2026-04-12T10:20:02.975Z</time></trkpt><trkpt lat="44.3531086" lon="11.4139861"><ele>175.66666666666666</ele><time>2026-04-12T10:20:03.975Z</time></trkpt><trkpt lat="44.3529492" lon="11.4138082"><ele>175.33333333333334</ele><time>2026-04-12T10:20:04.975Z</time></trkpt><trkpt lat="44.3527891" lon="11.4136244"><ele>175.0</ele><time>2026-04-12T10:20:05.974Z</time></trkpt><trkpt lat="44.352637" lon="11.4134297"><ele>175.0</ele><time>2026-04-12T10:20:06.976Z</time></trkpt><trkpt lat="44.3524982" lon="11.4132266"><ele>175.0</ele><time>2026-04-12T10:20:07.974Z</time></trkpt><trkpt lat="44.3523682" lon="11.4130137"><ele>175.0</ele><time>2026-04-12T10:20:08.975Z</time></trkpt><trkpt lat="44.3522456" lon="11.4127955"><ele>175.66666666666669</ele><time>2026-04-12T10:20:09.975Z</time></trkpt><trkpt lat="44.3521243" lon="11.412583"><ele>176.33333333333334</ele><time>2026-04-12T10:20:10.974Z</time></trkpt><trkpt lat="44.3520033" lon="11.4123739"><ele>177.0</ele><time>2026-04-12T10:20:11.974Z</time></trkpt><trkpt lat="44.3518802" lon="11.4121666"><ele>174.33333333333334</ele><time>2026-04-12T10:20:12.975Z</time></trkpt><trkpt lat="44.3517595" lon="11.411964"><ele>171.66666666666669</ele><time>2026-04-12T10:20:13.973Z</time></trkpt><trkpt lat="44.3516467" lon="11.4117678"><ele>169.0</ele><time>2026-04-12T10:20:14.975Z</time></trkpt><trkpt lat="44.3515382" lon="11.4115809"><ele>169.0</ele><time>2026-04-12T10:20:15.975Z</time></trkpt><trkpt lat="44.351433" lon="11.411401"><ele>169.0</ele><time>2026-04-12T10:20:16.975Z</time></trkpt><trkpt lat="44.3513313" lon="11.4112278"><ele>169.0</ele><time>2026-04-12T10:20:17.974Z</time></trkpt><trkpt lat="44.3512342" lon="11.4110624"><ele>170.25</ele><time>2026-04-12T10:20:18.974Z</time></trkpt><trkpt lat="44.3511406" lon="11.4109027"><ele>171.5</ele><time>2026-04-12T10:20:19.974Z</time></trkpt><trkpt lat="44.351048" lon="11.4107397"><ele>172.75</ele><time>2026-04-12T10:20:20.975Z</time></trkpt><trkpt lat="44.3509566" lon="11.4105802"><ele>174.0</ele><time>2026-04-12T10:20:21.974Z</time></trkpt><trkpt lat="44.3508646" lon="11.4104265"><ele>175.75</ele><time>2026-04-12T10:20:22.975Z</time></trkpt><trkpt lat="44.3507747" lon="11.4102797"><ele>177.5</ele><time>2026-04-12T10:20:23.975Z</time></trkpt><trkpt lat="44.3506806" lon="11.4101361"><ele>179.25</ele><time>2026-04-12T10:20:24.975Z</time></trkpt><trkpt lat="44.3505882" lon="11.4099966"><ele>181.0</ele><time>2026-04-12T10:20:25.976Z</time></trkpt><trkpt lat="44.3505017" lon="11.4098552"><ele>181.0</ele><time>2026-04-12T10:20:26.975Z</time></trkpt><trkpt lat="44.3504196" lon="11.4097168"><ele>181.0</ele><time>2026-04-12T10:20:27.975Z</time></trkpt><trkpt lat="44.3503422" lon="11.4095764"><ele>181.0</ele><time>2026-04-12T10:20:28.973Z</time></trkpt><trkpt lat="44.3502743" lon="11.4094255"><ele>181.0</ele><time>2026-04-12T10:20:29.975Z</time></trkpt><trkpt lat="44.350216" lon="11.4092584"><ele>180.75</ele><time>2026-04-12T10:20:30.975Z</time></trkpt><trkpt lat="44.3501631" lon="11.409084"><ele>180.5</ele><time>2026-04-12T10:20:31.975Z</time></trkpt><trkpt lat="44.3501132" lon="11.4089015"><ele>180.25</ele><time>2026-04-12T10:20:32.975Z</time></trkpt><trkpt lat="44.3500652" lon="11.4087135"><ele>180.0</ele><time>2026-04-12T10:20:33.974Z</time></trkpt><trkpt lat="44.3500125" lon="11.4085255"><ele>182.0</ele><time>2026-04-12T10:20:34.974Z</time></trkpt><trkpt lat="44.3499486" lon="11.4083392"><ele>184.0</ele><time>2026-04-12T10:20:35.974Z</time></trkpt><trkpt lat="44.3498685" lon="11.4081639"><ele>186.0</ele><time>2026-04-12T10:20:36.975Z</time></trkpt><trkpt lat="44.3497755" lon="11.4079934"><ele>185.66666666666666</ele><time>2026-04-12T10:20:37.975Z</time></trkpt><trkpt lat="44.3496706" lon="11.4078234"><ele>185.33333333333331</ele><time>2026-04-12T10:20:38.975Z</time></trkpt><trkpt lat="44.3495435" lon="11.4076676"><ele>185.0</ele><time>2026-04-12T10:20:39.973Z</time></trkpt><trkpt lat="44.3493944" lon="11.4075475"><ele>185.0</ele><time>2026-04-12T10:20:40.973Z</time></trkpt><trkpt lat="44.3492361" lon="11.4074593"><ele>185.0</ele><time>2026-04-12T10:20:41.973Z</time></trkpt><trkpt lat="44.3490789" lon="11.4073856"><ele>185.0</ele><time>2026-04-12T10:20:42.974Z</time></trkpt><trkpt lat="44.3489233" lon="11.4073234"><ele>183.75</ele><time>2026-04-12T10:20:43.975Z</time></trkpt><trkpt lat="44.3487776" lon="11.4072597"><ele>182.5</ele><time>2026-04-12T10:20:44.975Z</time></trkpt><trkpt lat="44.3486344" lon="11.4071981"><ele>181.25</ele><time>2026-04-12T10:20:45.975Z</time></trkpt><trkpt lat="44.3484995" lon="11.4071349"><ele>180.0</ele><time>2026-04-12T10:20:46.976Z</time></trkpt><trkpt lat="44.3483673" lon="11.4070799"><ele>181.5</ele><time>2026-04-12T10:20:47.976Z</time></trkpt><trkpt lat="44.3482345" lon="11.4070217"><ele>183.0</ele><time>2026-04-12T10:20:48.975Z</time></trkpt><trkpt lat="44.3481014" lon="11.4069657"><ele>184.5</ele><time>2026-04-12T10:20:49.975Z</time></trkpt><trkpt lat="44.3479779" lon="11.406909"><ele>186.0</ele><time>2026-04-12T10:20:50.976Z</time></trkpt><trkpt lat="44.3478647" lon="11.4068498"><ele>186.0</ele><time>2026-04-12T10:20:51.975Z</time></trkpt><trkpt lat="44.347755" lon="11.4067951"><ele>186.0</ele><time>2026-04-12T10:20:52.973Z</time></trkpt><trkpt lat="44.3476442" lon="11.4067473"><ele>186.0</ele><time>2026-04-12T10:20:53.973Z</time></trkpt><trkpt lat="44.3475331" lon="11.4067014"><ele>186.0</ele><time>2026-04-12T10:20:54.976Z</time></trkpt><trkpt lat="44.3474223" lon="11.4066622"><ele>186.0</ele><time>2026-04-12T10:20:55.974Z</time></trkpt><trkpt lat="44.3473167" lon="11.4066303"><ele>186.0</ele><time>2026-04-12T10:20:56.974Z</time></trkpt><trkpt lat="44.347211" lon="11.4066044"><ele>186.0</ele><time>2026-04-12T10:20:57.975Z</time></trkpt><trkpt lat="44.3471" lon="11.4065765"><ele>186.0</ele><time>2026-04-12T10:20:58.974Z</time></trkpt><trkpt lat="44.3469828" lon="11.4065514"><ele>186.0</ele><time>2026-04-12T10:20:59.974Z</time></trkpt><trkpt lat="44.3468583" lon="11.4065317"><ele>186.0</ele><time>2026-04-12T10:21:00.974Z</time></trkpt><trkpt lat="44.3467223" lon="11.4065154"><ele>186.0</ele><time>2026-04-12T10:21:01.975Z</time></trkpt><trkpt lat="44.3465811" lon="11.406491"><ele>186.0</ele><time>2026-04-12T10:21:02.974Z</time></trkpt><trkpt lat="44.3464352" lon="11.4064516"><ele>186.0</ele><time>2026-04-12T10:21:03.975Z</time></trkpt><trkpt lat="44.3462835" lon="11.4064041"><ele>186.0</ele><time>2026-04-12T10:21:04.975Z</time></trkpt><trkpt lat="44.3461243" lon="11.4063546"><ele>186.0</ele><time>2026-04-12T10:21:05.975Z</time></trkpt><trkpt lat="44.3459622" lon="11.4063057"><ele>186.0</ele><time>2026-04-12T10:21:06.975Z</time></trkpt><trkpt lat="44.3457961" lon="11.4062603"><ele>186.66666666666666</ele><time>2026-04-12T10:21:07.974Z</time></trkpt><trkpt lat="44.3456199" lon="11.4062182"><ele>187.33333333333331</ele><time>2026-04-12T10:21:08.975Z</time></trkpt><trkpt lat="44.3454364" lon="11.4061817"><ele>188.0</ele><time>2026-04-12T10:21:09.974Z</time></trkpt><trkpt lat="44.3452527" lon="11.4061495"><ele>186.0</ele><time>2026-04-12T10:21:10.974Z</time></trkpt><trkpt lat="44.3450672" lon="11.4061211"><ele>184.0</ele><time>2026-04-12T10:21:11.975Z</time></trkpt><trkpt lat="44.3448793" lon="11.4061156"><ele>182.0</ele><time>2026-04-12T10:21:12.973Z</time></trkpt><trkpt lat="44.3446946" lon="11.4061552"><ele>182.0</ele><time>2026-04-12T10:21:13.975Z</time></trkpt><trkpt lat="44.3445118" lon="11.406235"><ele>182.0</ele><time>2026-04-12T10:21:14.974Z</time></trkpt><trkpt lat="44.3443307" lon="11.4063336"><ele>182.0</ele><time>2026-04-12T10:21:15.975Z</time></trkpt><trkpt lat="44.3441474" lon="11.4064374"><ele>184.0</ele><time>2026-04-12T10:21:16.975Z</time></trkpt><trkpt lat="44.3439601" lon="11.4065454"><ele>186.0</ele><time>2026-04-12T10:21:17.974Z</time></trkpt><trkpt lat="44.3437754" lon="11.4066496"><ele>188.0</ele><time>2026-04-12T10:21:18.974Z</time></trkpt><trkpt lat="44.3435954" lon="11.4067462"><ele>188.0</ele><time>2026-04-12T10:21:19.975Z</time></trkpt><trkpt lat="44.3434172" lon="11.4068385"><ele>188.0</ele><time>2026-04-12T10:21:20.976Z</time></trkpt><trkpt lat="44.343237" lon="11.4069238"><ele>188.0</ele><time>2026-04-12T10:21:21.974Z</time></trkpt><trkpt lat="44.3430578" lon="11.4069953"><ele>190.33333333333331</ele><time>2026-04-12T10:21:22.974Z</time></trkpt><trkpt lat="44.3428741" lon="11.4070416"><ele>192.66666666666666</ele><time>2026-04-12T10:21:23.975Z</time></trkpt><trkpt lat="44.3426974" lon="11.4070449"><ele>195.0</ele><time>2026-04-12T10:21:24.974Z</time></trkpt><trkpt lat="44.342527" lon="11.4070032"><ele>195.0</ele><time>2026-04-12T10:21:25.976Z</time></trkpt><trkpt lat="44.342364" lon="11.406921"><ele>195.0</ele><time>2026-04-12T10:21:26.974Z</time></trkpt><trkpt lat="44.3422194" lon="11.4068075"><ele>195.0</ele><time>2026-04-12T10:21:27.974Z</time></trkpt><trkpt lat="44.3420904" lon="11.4066843"><ele>193.5</ele><time>2026-04-12T10:21:28.974Z</time></trkpt><trkpt lat="44.3419683" lon="11.4065659"><ele>192.0</ele><time>2026-04-12T10:21:29.974Z</time></trkpt><trkpt lat="44.3418519" lon="11.4064543"><ele>190.5</ele><time>2026-04-12T10:21:30.974Z</time></trkpt><trkpt lat="44.3417376" lon="11.4063452"><ele>189.0</ele><time>2026-04-12T10:21:31.974Z</time></trkpt><trkpt lat="44.341621" lon="11.4062453"><ele>189.0</ele><time>2026-04-12T10:21:32.974Z</time></trkpt><trkpt lat="44.3415134" lon="11.4061417"><ele>189.0</ele><time>2026-04-12T10:21:33.975Z</time></trkpt><trkpt lat="44.3414046" lon="11.4060491"><ele>189.0</ele><time>2026-04-12T10:21:34.974Z</time></trkpt><trkpt lat="44.3412863" lon="11.4059695"><ele>189.0</ele><time>2026-04-12T10:21:35.974Z</time></trkpt><trkpt lat="44.3411585" lon="11.4059123"><ele>190.0</ele><time>2026-04-12T10:21:36.975Z</time></trkpt><trkpt lat="44.3410218" lon="11.4058809"><ele>191.0</ele><time>2026-04-12T10:21:37.976Z</time></trkpt><trkpt lat="44.3408857" lon="11.4058725"><ele>192.0</ele><time>2026-04-12T10:21:38.974Z</time></trkpt><trkpt lat="44.3407456" lon="11.405893"><ele>193.0</ele><time>2026-04-12T10:21:39.974Z</time></trkpt><trkpt lat="44.3406071" lon="11.4059393"><ele>192.33333333333331</ele><time>2026-04-12T10:21:40.975Z</time></trkpt><trkpt lat="44.3404674" lon="11.4060226"><ele>191.66666666666666</ele><time>2026-04-12T10:21:41.975Z</time></trkpt><trkpt lat="44.3403222" lon="11.4061232"><ele>191.0</ele><time>2026-04-12T10:21:42.974Z</time></trkpt><trkpt lat="44.3401787" lon="11.4062287"><ele>193.0</ele><time>2026-04-12T10:21:43.976Z</time></trkpt><trkpt lat="44.3400412" lon="11.4063411"><ele>195.0</ele><time>2026-04-12T10:21:44.975Z</time></trkpt><trkpt lat="44.3399074" lon="11.4064498"><ele>197.0</ele><time>2026-04-12T10:21:45.974Z</time></trkpt><trkpt lat="44.3397822" lon="11.4065455"><ele>195.75</ele><time>2026-04-12T10:21:46.974Z</time></trkpt><trkpt lat="44.3396627" lon="11.4066335"><ele>194.5</ele><time>2026-04-12T10:21:47.975Z</time></trkpt><trkpt lat="44.3395494" lon="11.4067163"><ele>193.25</ele><time>2026-04-12T10:21:48.974Z</time></trkpt><trkpt lat="44.3394452" lon="11.4067949"><ele>192.0</ele><time>2026-04-12T10:21:49.975Z</time></trkpt><trkpt lat="44.3393445" lon="11.4068663"><ele>192.0</ele><time>2026-04-12T10:21:50.975Z</time></trkpt><trkpt lat="44.3392395" lon="11.4069226"><ele>192.0</ele><time>2026-04-12T10:21:51.975Z</time></trkpt><trkpt lat="44.3391273" lon="11.4069503"><ele>192.0</ele><time>2026-04-12T10:21:52.976Z</time></trkpt><trkpt lat="44.3390169" lon="11.4069356"><ele>192.0</ele><time>2026-04-12T10:21:53.973Z</time></trkpt><trkpt lat="44.338919" lon="11.4068821"><ele>192.0</ele><time>2026-04-12T10:21:54.975Z</time></trkpt><trkpt lat="44.3388309" lon="11.4067913"><ele>192.75</ele><time>2026-04-12T10:21:55.975Z</time></trkpt><trkpt lat="44.3387499" lon="11.4066758"><ele>193.5</ele><time>2026-04-12T10:21:56.974Z</time></trkpt><trkpt lat="44.3386722" lon="11.4065519"><ele>194.25</ele><time>2026-04-12T10:21:57.974Z</time></trkpt><trkpt lat="44.3386027" lon="11.4064334"><ele>195.0</ele><time>2026-04-12T10:21:58.974Z</time></trkpt><trkpt lat="44.3385359" lon="11.4063152"><ele>195.0</ele><time>2026-04-12T10:21:59.976Z</time></trkpt><trkpt lat="44.3384704" lon="11.4061953"><ele>195.0</ele><time>2026-04-12T10:22:00.974Z</time></trkpt><trkpt lat="44.3384008" lon="11.4060711"><ele>195.0</ele><time>2026-04-12T10:22:01.974Z</time></trkpt><trkpt lat="44.3383282" lon="11.4059381"><ele>195.0</ele><time>2026-04-12T10:22:02.974Z</time></trkpt><trkpt lat="44.3382574" lon="11.405805"><ele>195.0</ele><time>2026-04-12T10:22:03.974Z</time></trkpt><trkpt lat="44.3381892" lon="11.4056741"><ele>195.0</ele><time>2026-04-12T10:22:04.973Z</time></trkpt><trkpt lat="44.3381233" lon="11.4055507"><ele>195.0</ele><time>2026-04-12T10:22:05.974Z</time></trkpt><trkpt lat="44.3380587" lon="11.4054296"><ele>195.0</ele><time>2026-04-12T10:22:06.974Z</time></trkpt><trkpt lat="44.3379995" lon="11.4053087"><ele>195.0</ele><time>2026-04-12T10:22:07.975Z</time></trkpt><trkpt lat="44.3379394" lon="11.4051908"><ele>195.0</ele><time>2026-04-12T10:22:08.974Z</time></trkpt><trkpt lat="44.3378798" lon="11.4050802"><ele>195.0</ele><time>2026-04-12T10:22:09.975Z</time></trkpt><trkpt lat="44.3378161" lon="11.4049666"><ele>195.0</ele><time>2026-04-12T10:22:10.975Z</time></trkpt><trkpt lat="44.3377502" lon="11.4048561"><ele>195.0</ele><time>2026-04-12T10:22:11.974Z</time></trkpt><trkpt lat="44.3376797" lon="11.4047383"><ele>195.0</ele><time>2026-04-12T10:22:12.974Z</time></trkpt><trkpt lat="44.3376005" lon="11.4046079"><ele>195.33333333333331</ele><time>2026-04-12T10:22:13.975Z</time></trkpt><trkpt lat="44.3375086" lon="11.40446"><ele>195.66666666666666</ele><time>2026-04-12T10:22:14.975Z</time></trkpt><trkpt lat="44.3374003" lon="11.4043068"><ele>196.0</ele><time>2026-04-12T10:22:15.974Z</time></trkpt><trkpt lat="44.3372779" lon="11.4041516"><ele>196.0</ele><time>2026-04-12T10:22:16.974Z</time></trkpt><trkpt lat="44.3371379" lon="11.4040085"><ele>196.0</ele><time>2026-04-12T10:22:17.975Z</time></trkpt><trkpt lat="44.3369857" lon="11.4038857"><ele>196.0</ele><time>2026-04-12T10:22:18.974Z</time></trkpt><trkpt lat="44.3368293" lon="11.4037819"><ele>199.66666666666666</ele><time>2026-04-12T10:22:19.974Z</time></trkpt><trkpt lat="44.3366729" lon="11.4036985"><ele>203.33333333333331</ele><time>2026-04-12T10:22:20.975Z</time></trkpt><trkpt lat="44.336521" lon="11.4036407"><ele>207.0</ele><time>2026-04-12T10:22:21.973Z</time></trkpt><trkpt lat="44.3363662" lon="11.4036301"><ele>207.0</ele><time>2026-04-12T10:22:22.974Z</time></trkpt><trkpt lat="44.3362142" lon="11.4036742"><ele>207.0</ele><time>2026-04-12T10:22:23.975Z</time></trkpt><trkpt lat="44.3360743" lon="11.4037773"><ele>207.0</ele><time>2026-04-12T10:22:24.973Z</time></trkpt><trkpt lat="44.3359418" lon="11.4039105"><ele>203.66666666666669</ele><time>2026-04-12T10:22:25.975Z</time></trkpt><trkpt lat="44.3358112" lon="11.4040604"><ele>200.33333333333334</ele><time>2026-04-12T10:22:26.975Z</time></trkpt><trkpt lat="44.3356769" lon="11.4042243"><ele>197.0</ele><time>2026-04-12T10:22:27.974Z</time></trkpt><trkpt lat="44.3355407" lon="11.4043953"><ele>197.0</ele><time>2026-04-12T10:22:28.975Z</time></trkpt><trkpt lat="44.3354037" lon="11.404569"><ele>197.0</ele><time>2026-04-12T10:22:29.975Z</time></trkpt><trkpt lat="44.3352653" lon="11.4047499"><ele>197.0</ele><time>2026-04-12T10:22:30.974Z</time></trkpt><trkpt lat="44.3351315" lon="11.4049426"><ele>197.0</ele><time>2026-04-12T10:22:31.974Z</time></trkpt><trkpt lat="44.3349965" lon="11.4051609"><ele>197.0</ele><time>2026-04-12T10:22:32.974Z</time></trkpt><trkpt lat="44.3348529" lon="11.4053972"><ele>197.0</ele><time>2026-04-12T10:22:33.973Z</time></trkpt><trkpt lat="44.3347031" lon="11.40563"><ele>197.66666666666669</ele><time>2026-04-12T10:22:34.973Z</time></trkpt><trkpt lat="44.3345425" lon="11.405833"><ele>198.33333333333331</ele><time>2026-04-12T10:22:35.974Z</time></trkpt><trkpt lat="44.3343633" lon="11.4059951"><ele>199.0</ele><time>2026-04-12T10:22:36.974Z</time></trkpt><trkpt lat="44.3341679" lon="11.4061126"><ele>199.0</ele><time>2026-04-12T10:22:37.975Z</time></trkpt><trkpt lat="44.3339789" lon="11.4062153"><ele>199.0</ele><time>2026-04-12T10:22:38.975Z</time></trkpt><trkpt lat="44.3338121" lon="11.4063375"><ele>199.0</ele><time>2026-04-12T10:22:39.974Z</time></trkpt><trkpt lat="44.3336646" lon="11.4064512"><ele>200.25</ele><time>2026-04-12T10:22:40.974Z</time></trkpt><trkpt lat="44.3335246" lon="11.4065219"><ele>201.5</ele><time>2026-04-12T10:22:41.974Z</time></trkpt><trkpt lat="44.3333829" lon="11.4065224"><ele>202.75</ele><time>2026-04-12T10:22:42.973Z</time></trkpt><trkpt lat="44.3332509" lon="11.4064623"><ele>204.0</ele><time>2026-04-12T10:22:43.974Z</time></trkpt><trkpt lat="44.3331251" lon="11.4063441"><ele>202.0</ele><time>2026-04-12T10:22:44.975Z</time></trkpt><trkpt lat="44.3330057" lon="11.4062022"><ele>200.0</ele><time>2026-04-12T10:22:45.974Z</time></trkpt><trkpt lat="44.3328734" lon="11.4060522"><ele>198.0</ele><time>2026-04-12T10:22:46.975Z</time></trkpt><trkpt lat="44.3327238" lon="11.405919"><ele>198.0</ele><time>2026-04-12T10:22:47.975Z</time></trkpt><trkpt lat="44.3325605" lon="11.4058167"><ele>198.0</ele><time>2026-04-12T10:22:48.976Z</time></trkpt><trkpt lat="44.3323923" lon="11.4057467"><ele>198.0</ele><time>2026-04-12T10:22:49.975Z</time></trkpt><trkpt lat="44.3322279" lon="11.4056939"><ele>198.0</ele><time>2026-04-12T10:22:50.976Z</time></trkpt><trkpt lat="44.3320729" lon="11.4056565"><ele>198.0</ele><time>2026-04-12T10:22:51.974Z</time></trkpt><trkpt lat="44.3319269" lon="11.4056349"><ele>198.0</ele><time>2026-04-12T10:22:52.973Z</time></trkpt><trkpt lat="44.3317861" lon="11.4056489"><ele>198.0</ele><time>2026-04-12T10:22:53.975Z</time></trkpt><trkpt lat="44.3316534" lon="11.4057136"><ele>198.0</ele><time>2026-04-12T10:22:54.974Z</time></trkpt><trkpt lat="44.3315377" lon="11.4058201"><ele>198.0</ele><time>2026-04-12T10:22:55.973Z</time></trkpt><trkpt lat="44.3314513" lon="11.4059725"><ele>198.0</ele><time>2026-04-12T10:22:56.975Z</time></trkpt><trkpt lat="44.3313923" lon="11.4061445"><ele>198.0</ele><time>2026-04-12T10:22:57.973Z</time></trkpt><trkpt lat="44.3313357" lon="11.4063093"><ele>198.5</ele><time>2026-04-12T10:22:58.974Z</time></trkpt><trkpt lat="44.3312709" lon="11.4064671"><ele>199.0</ele><time>2026-04-12T10:22:59.974Z</time></trkpt><trkpt lat="44.3311903" lon="11.4066164"><ele>199.5</ele><time>2026-04-12T10:23:00.977Z</time></trkpt><trkpt lat="44.3310951" lon="11.4067516"><ele>200.0</ele><time>2026-04-12T10:23:01.974Z</time></trkpt><trkpt lat="44.3309807" lon="11.406874"><ele>200.0</ele><time>2026-04-12T10:23:02.974Z</time></trkpt><trkpt lat="44.3308512" lon="11.4069876"><ele>200.0</ele><time>2026-04-12T10:23:03.974Z</time></trkpt><trkpt lat="44.3307128" lon="11.4070991"><ele>200.0</ele><time>2026-04-12T10:23:04.974Z</time></trkpt><trkpt lat="44.330572" lon="11.4072185"><ele>200.33333333333334</ele><time>2026-04-12T10:23:05.974Z</time></trkpt><trkpt lat="44.3304372" lon="11.4073337"><ele>200.66666666666669</ele><time>2026-04-12T10:23:06.974Z</time></trkpt><trkpt lat="44.3303091" lon="11.4074404"><ele>201.0</ele><time>2026-04-12T10:23:07.974Z</time></trkpt><trkpt lat="44.3301846" lon="11.4075423"><ele>201.0</ele><time>2026-04-12T10:23:08.975Z</time></trkpt><trkpt lat="44.3300555" lon="11.4076387"><ele>201.0</ele><time>2026-04-12T10:23:09.976Z</time></trkpt><trkpt lat="44.3299189" lon="11.4077182"><ele>201.0</ele><time>2026-04-12T10:23:10.973Z</time></trkpt><trkpt lat="44.3297707" lon="11.4077716"><ele>201.0</ele><time>2026-04-12T10:23:11.974Z</time></trkpt><trkpt lat="44.3296152" lon="11.4077927"><ele>201.33333333333331</ele><time>2026-04-12T10:23:12.973Z</time></trkpt><trkpt lat="44.3294617" lon="11.4077793"><ele>201.66666666666666</ele><time>2026-04-12T10:23:13.973Z</time></trkpt><trkpt lat="44.3293136" lon="11.407733"><ele>202.0</ele><time>2026-04-12T10:23:14.975Z</time></trkpt><trkpt lat="44.3291722" lon="11.4076549"><ele>202.0</ele><time>2026-04-12T10:23:15.975Z</time></trkpt><trkpt lat="44.3290419" lon="11.4075508"><ele>202.0</ele><time>2026-04-12T10:23:16.974Z</time></trkpt><trkpt lat="44.3289208" lon="11.4074264"><ele>202.0</ele><time>2026-04-12T10:23:17.974Z</time></trkpt><trkpt lat="44.328812" lon="11.4072813"><ele>203.33333333333331</ele><time>2026-04-12T10:23:18.975Z</time></trkpt><trkpt lat="44.3287175" lon="11.4071187"><ele>204.66666666666669</ele><time>2026-04-12T10:23:19.975Z</time></trkpt><trkpt lat="44.3286389" lon="11.4069286"><ele>206.0</ele><time>2026-04-12T10:23:20.974Z</time></trkpt><trkpt lat="44.3285752" lon="11.4067269"><ele>206.0</ele><time>2026-04-12T10:23:21.973Z</time></trkpt><trkpt lat="44.3285238" lon="11.4065174"><ele>206.0</ele><time>2026-04-12T10:23:22.974Z</time></trkpt><trkpt lat="44.3284784" lon="11.4063099"><ele>206.0</ele><time>2026-04-12T10:23:23.974Z</time></trkpt><trkpt lat="44.328435" lon="11.4061075"><ele>205.75</ele><time>2026-04-12T10:23:24.975Z</time></trkpt><trkpt lat="44.3283855" lon="11.405914"><ele>205.5</ele><time>2026-04-12T10:23:25.974Z</time></trkpt><trkpt lat="44.3283298" lon="11.4057327"><ele>205.25</ele><time>2026-04-12T10:23:26.976Z</time></trkpt><trkpt lat="44.3282607" lon="11.4055658"><ele>205.0</ele><time>2026-04-12T10:23:27.975Z</time></trkpt><trkpt lat="44.328178" lon="11.4054027"><ele>205.0</ele><time>2026-04-12T10:23:28.975Z</time></trkpt><trkpt lat="44.328086" lon="11.4052517"><ele>205.0</ele><time>2026-04-12T10:23:29.976Z</time></trkpt><trkpt lat="44.3279902" lon="11.4051157"><ele>205.0</ele><time>2026-04-12T10:23:30.974Z</time></trkpt><trkpt lat="44.3278803" lon="11.4049909"><ele>205.0</ele><time>2026-04-12T10:23:31.973Z</time></trkpt><trkpt lat="44.3277596" lon="11.4048892"><ele>205.0</ele><time>2026-04-12T10:23:32.975Z</time></trkpt><trkpt lat="44.3276268" lon="11.4048197"><ele>205.0</ele><time>2026-04-12T10:23:33.976Z</time></trkpt><trkpt lat="44.3274914" lon="11.4047801"><ele>205.0</ele><time>2026-04-12T10:23:34.973Z</time></trkpt><trkpt lat="44.3273552" lon="11.4047583"><ele>205.0</ele><time>2026-04-12T10:23:35.975Z</time></trkpt><trkpt lat="44.3272141" lon="11.4047422"><ele>206.25</ele><time>2026-04-12T10:23:36.975Z</time></trkpt><trkpt lat="44.3270708" lon="11.4047239"><ele>207.5</ele><time>2026-04-12T10:23:37.974Z</time></trkpt><trkpt lat="44.326922" lon="11.4047123"><ele>208.75</ele><time>2026-04-12T10:23:38.976Z</time></trkpt><trkpt lat="44.3267685" lon="11.4047143"><ele>210.0</ele><time>2026-04-12T10:23:39.974Z</time></trkpt><trkpt lat="44.3266" lon="11.4047218"><ele>210.0</ele><time>2026-04-12T10:23:40.974Z</time></trkpt><trkpt lat="44.3264201" lon="11.4047294"><ele>210.0</ele><time>2026-04-12T10:23:41.975Z</time></trkpt><trkpt lat="44.3262304" lon="11.4047284"><ele>210.0</ele><time>2026-04-12T10:23:42.975Z</time></trkpt><trkpt lat="44.3260409" lon="11.404727"><ele>210.0</ele><time>2026-04-12T10:23:43.976Z</time></trkpt><trkpt lat="44.325865" lon="11.4047107"><ele>210.0</ele><time>2026-04-12T10:23:44.976Z</time></trkpt><trkpt lat="44.3256977" lon="11.4046869"><ele>210.0</ele><time>2026-04-12T10:23:45.974Z</time></trkpt><trkpt lat="44.3255361" lon="11.4046535"><ele>209.33333333333331</ele><time>2026-04-12T10:23:46.975Z</time></trkpt><trkpt lat="44.3253837" lon="11.4046138"><ele>208.66666666666666</ele><time>2026-04-12T10:23:47.974Z</time></trkpt><trkpt lat="44.3252352" lon="11.4045701"><ele>208.0</ele><time>2026-04-12T10:23:48.974Z</time></trkpt><trkpt lat="44.3250869" lon="11.4045253"><ele>208.0</ele><time>2026-04-12T10:23:49.974Z</time></trkpt><trkpt lat="44.3249414" lon="11.4044767"><ele>208.0</ele><time>2026-04-12T10:23:50.974Z</time></trkpt><trkpt lat="44.324794" lon="11.4044392"><ele>208.0</ele><time>2026-04-12T10:23:51.974Z</time></trkpt><trkpt lat="44.3246411" lon="11.404429"><ele>208.0</ele><time>2026-04-12T10:23:52.975Z</time></trkpt><trkpt lat="44.3244863" lon="11.4044403"><ele>208.0</ele><time>2026-04-12T10:23:53.976Z</time></trkpt><trkpt lat="44.3243269" lon="11.4044796"><ele>208.0</ele><time>2026-04-12T10:23:54.975Z</time></trkpt><trkpt lat="44.3241698" lon="11.4045334"><ele>208.0</ele><time>2026-04-12T10:23:55.976Z</time></trkpt><trkpt lat="44.324017" lon="11.4045999"><ele>208.0</ele><time>2026-04-12T10:23:56.974Z</time></trkpt><trkpt lat="44.3238692" lon="11.4046833"><ele>208.0</ele><time>2026-04-12T10:23:57.973Z</time></trkpt><trkpt lat="44.3237277" lon="11.4047842"><ele>211.0</ele><time>2026-04-12T10:23:58.973Z</time></trkpt><trkpt lat="44.3235873" lon="11.4048993"><ele>214.0</ele><time>2026-04-12T10:23:59.974Z</time></trkpt><trkpt lat="44.3234485" lon="11.4050289"><ele>217.0</ele><time>2026-04-12T10:24:00.976Z</time></trkpt><trkpt lat="44.3233096" lon="11.4051655"><ele>217.0</ele><time>2026-04-12T10:24:01.974Z</time></trkpt><trkpt lat="44.3231578" lon="11.4052884"><ele>217.0</ele><time>2026-04-12T10:24:02.977Z</time></trkpt><trkpt lat="44.3229922" lon="11.4053794"><ele>217.0</ele><time>2026-04-12T10:24:03.975Z</time></trkpt><trkpt lat="44.3228149" lon="11.405433"><ele>215.33333333333331</ele><time>2026-04-12T10:24:04.974Z</time></trkpt><trkpt lat="44.3226269" lon="11.405456"><ele>213.66666666666669</ele><time>2026-04-12T10:24:05.974Z</time></trkpt><trkpt lat="44.3224367" lon="11.4054677"><ele>212.0</ele><time>2026-04-12T10:24:06.974Z</time></trkpt><trkpt lat="44.3222479" lon="11.4054807"><ele>215.66666666666669</ele><time>2026-04-12T10:24:07.973Z</time></trkpt><trkpt lat="44.3220667" lon="11.4055166"><ele>219.33333333333331</ele><time>2026-04-12T10:24:08.976Z</time></trkpt><trkpt lat="44.3218967" lon="11.4055842"><ele>223.0</ele><time>2026-04-12T10:24:09.975Z</time></trkpt><trkpt lat="44.3217333" lon="11.4056659"><ele>223.0</ele><time>2026-04-12T10:24:10.975Z</time></trkpt><trkpt lat="44.3215765" lon="11.4057407"><ele>223.0</ele><time>2026-04-12T10:24:11.975Z</time></trkpt><trkpt lat="44.3214119" lon="11.4057755"><ele>223.0</ele><time>2026-04-12T10:24:12.975Z</time></trkpt><trkpt lat="44.3212435" lon="11.405773"><ele>226.0</ele><time>2026-04-12T10:24:13.974Z</time></trkpt><trkpt lat="44.3210845" lon="11.4057411"><ele>229.0</ele><time>2026-04-12T10:24:14.975Z</time></trkpt><trkpt lat="44.320935" lon="11.4056804"><ele>232.0</ele><time>2026-04-12T10:24:15.974Z</time></trkpt><trkpt lat="44.3207955" lon="11.4055849"><ele>233.66666666666666</ele><time>2026-04-12T10:24:16.973Z</time></trkpt><trkpt lat="44.320673" lon="11.4054511"><ele>235.33333333333331</ele><time>2026-04-12T10:24:17.974Z</time></trkpt><trkpt lat="44.3205614" lon="11.4052913"><ele>237.0</ele><time>2026-04-12T10:24:18.974Z</time></trkpt><trkpt lat="44.3204545" lon="11.4051111"><ele>237.0</ele><time>2026-04-12T10:24:19.974Z</time></trkpt><trkpt lat="44.32035" lon="11.404918"><ele>237.0</ele><time>2026-04-12T10:24:20.975Z</time></trkpt><trkpt lat="44.320244" lon="11.4047186"><ele>237.0</ele><time>2026-04-12T10:24:21.975Z</time></trkpt><trkpt lat="44.3201396" lon="11.4045108"><ele>230.0</ele><time>2026-04-12T10:24:22.975Z</time></trkpt><trkpt lat="44.3200362" lon="11.4043001"><ele>223.0</ele><time>2026-04-12T10:24:23.975Z</time></trkpt><trkpt lat="44.3199307" lon="11.4040878"><ele>216.0</ele><time>2026-04-12T10:24:24.974Z</time></trkpt><trkpt lat="44.3198261" lon="11.403876"><ele>219.66666666666669</ele><time>2026-04-12T10:24:25.975Z</time></trkpt><trkpt lat="44.3197209" lon="11.4036679"><ele>223.33333333333334</ele><time>2026-04-12T10:24:26.974Z</time></trkpt><trkpt lat="44.3196133" lon="11.4034756"><ele>227.0</ele><time>2026-04-12T10:24:27.974Z</time></trkpt><trkpt lat="44.3194898" lon="11.4033139"><ele>227.0</ele><time>2026-04-12T10:24:28.975Z</time></trkpt><trkpt lat="44.3193422" lon="11.4031945"><ele>227.0</ele><time>2026-04-12T10:24:29.975Z</time></trkpt><trkpt lat="44.3191782" lon="11.4031112"><ele>227.0</ele><time>2026-04-12T10:24:30.975Z</time></trkpt><trkpt lat="44.3190061" lon="11.4030549"><ele>228.0</ele><time>2026-04-12T10:24:31.973Z</time></trkpt><trkpt lat="44.3188296" lon="11.4030055"><ele>229.0</ele><time>2026-04-12T10:24:32.976Z</time></trkpt><trkpt lat="44.3186546" lon="11.4029586"><ele>230.0</ele><time>2026-04-12T10:24:33.974Z</time></trkpt><trkpt lat="44.3184808" lon="11.4029285"><ele>230.0</ele><time>2026-04-12T10:24:34.973Z</time></trkpt><trkpt lat="44.3183164" lon="11.4029272"><ele>230.0</ele><time>2026-04-12T10:24:35.974Z</time></trkpt><trkpt lat="44.3181603" lon="11.4030012"><ele>230.0</ele><time>2026-04-12T10:24:36.974Z</time></trkpt><trkpt lat="44.3180032" lon="11.4031074"><ele>229.33333333333334</ele><time>2026-04-12T10:24:37.973Z</time></trkpt><trkpt lat="44.3178337" lon="11.4031939"><ele>228.66666666666669</ele><time>2026-04-12T10:24:38.976Z</time></trkpt><trkpt lat="44.3176573" lon="11.4032311"><ele>228.0</ele><time>2026-04-12T10:24:39.975Z</time></trkpt><trkpt lat="44.3174808" lon="11.4032527"><ele>228.0</ele><time>2026-04-12T10:24:40.975Z</time></trkpt><trkpt lat="44.317307" lon="11.403278"><ele>228.0</ele><time>2026-04-12T10:24:41.975Z</time></trkpt><trkpt lat="44.3171369" lon="11.403327"><ele>228.0</ele><time>2026-04-12T10:24:42.975Z</time></trkpt><trkpt lat="44.3169755" lon="11.4033855"><ele>227.33333333333331</ele><time>2026-04-12T10:24:43.974Z</time></trkpt><trkpt lat="44.3168212" lon="11.4034446"><ele>226.66666666666666</ele><time>2026-04-12T10:24:44.974Z</time></trkpt><trkpt lat="44.3166756" lon="11.4034999"><ele>226.0</ele><time>2026-04-12T10:24:45.974Z</time></trkpt><trkpt lat="44.3165339" lon="11.4035476"><ele>228.75</ele><time>2026-04-12T10:24:46.974Z</time></trkpt><trkpt lat="44.3163952" lon="11.4035633"><ele>231.5</ele><time>2026-04-12T10:24:47.974Z</time></trkpt><trkpt lat="44.3162561" lon="11.4035284"><ele>234.25</ele><time>2026-04-12T10:24:48.975Z</time></trkpt><trkpt lat="44.3161279" lon="11.4034393"><ele>237.0</ele><time>2026-04-12T10:24:49.974Z</time></trkpt><trkpt lat="44.316015" lon="11.4033013"><ele>237.0</ele><time>2026-04-12T10:24:50.975Z</time></trkpt><trkpt lat="44.3159106" lon="11.4031517"><ele>237.0</ele><time>2026-04-12T10:24:51.974Z</time></trkpt><trkpt lat="44.3158159" lon="11.4030088"><ele>237.0</ele><time>2026-04-12T10:24:52.973Z</time></trkpt><trkpt lat="44.3157222" lon="11.4028795"><ele>237.0</ele><time>2026-04-12T10:24:53.974Z</time></trkpt><trkpt lat="44.3156231" lon="11.4027556"><ele>234.25</ele><time>2026-04-12T10:24:54.975Z</time></trkpt><trkpt lat="44.3155224" lon="11.402642"><ele>231.5</ele><time>2026-04-12T10:24:55.975Z</time></trkpt><trkpt lat="44.315422" lon="11.4025364"><ele>228.75</ele><time>2026-04-12T10:24:56.976Z</time></trkpt><trkpt lat="44.3153195" lon="11.4024348"><ele>226.0</ele><time>2026-04-12T10:24:57.975Z</time></trkpt><trkpt lat="44.3152138" lon="11.4023463"><ele>226.0</ele><time>2026-04-12T10:24:58.975Z</time></trkpt><trkpt lat="44.315098" lon="11.4022819"><ele>226.0</ele><time>2026-04-12T10:24:59.975Z</time></trkpt><trkpt lat="44.3149663" lon="11.4022588"><ele>226.0</ele><time>2026-04-12T10:25:00.975Z</time></trkpt><trkpt lat="44.3148235" lon="11.4022726"><ele>226.0</ele><time>2026-04-12T10:25:01.973Z</time></trkpt><trkpt lat="44.3146732" lon="11.4023086"><ele>225.33333333333331</ele><time>2026-04-12T10:25:02.974Z</time></trkpt><trkpt lat="44.3145074" lon="11.4023324"><ele>224.66666666666669</ele><time>2026-04-12T10:25:03.975Z</time></trkpt><trkpt lat="44.3143284" lon="11.4023268"><ele>224.0</ele><time>2026-04-12T10:25:04.975Z</time></trkpt><trkpt lat="44.3141429" lon="11.402283"><ele>224.0</ele><time>2026-04-12T10:25:05.974Z</time></trkpt><trkpt lat="44.3139626" lon="11.4021972"><ele>224.0</ele><time>2026-04-12T10:25:06.975Z</time></trkpt><trkpt lat="44.313787" lon="11.4020756"><ele>224.0</ele><time>2026-04-12T10:25:07.975Z</time></trkpt><trkpt lat="44.313615" lon="11.4019233"><ele>224.33333333333334</ele><time>2026-04-12T10:25:08.975Z</time></trkpt><trkpt lat="44.3134647" lon="11.4017344"><ele>224.66666666666669</ele><time>2026-04-12T10:25:09.974Z</time></trkpt><trkpt lat="44.3133416" lon="11.4015147"><ele>225.0</ele><time>2026-04-12T10:25:10.975Z</time></trkpt><trkpt lat="44.3132326" lon="11.4012971"><ele>225.33333333333331</ele><time>2026-04-12T10:25:11.975Z</time></trkpt><trkpt lat="44.3131077" lon="11.4011116"><ele>225.66666666666666</ele><time>2026-04-12T10:25:12.974Z</time></trkpt><trkpt lat="44.3129519" lon="11.4009761"><ele>226.0</ele><time>2026-04-12T10:25:13.974Z</time></trkpt><trkpt lat="44.3127764" lon="11.4008722"><ele>226.0</ele><time>2026-04-12T10:25:14.975Z</time></trkpt><trkpt lat="44.3125975" lon="11.4007796"><ele>226.0</ele><time>2026-04-12T10:25:15.974Z</time></trkpt><trkpt lat="44.3124145" lon="11.400689"><ele>226.0</ele><time>2026-04-12T10:25:16.974Z</time></trkpt><trkpt lat="44.3122332" lon="11.4005972"><ele>225.66666666666666</ele><time>2026-04-12T10:25:17.974Z</time></trkpt><trkpt lat="44.3120574" lon="11.4005144"><ele>225.33333333333331</ele><time>2026-04-12T10:25:18.974Z</time></trkpt><trkpt lat="44.3118852" lon="11.4004523"><ele>225.0</ele><time>2026-04-12T10:25:19.974Z</time></trkpt><trkpt lat="44.3117114" lon="11.4004307"><ele>225.0</ele><time>2026-04-12T10:25:20.975Z</time></trkpt><trkpt lat="44.3115347" lon="11.4004522"><ele>225.0</ele><time>2026-04-12T10:25:21.974Z</time></trkpt><trkpt lat="44.3113584" lon="11.4004826"><ele>225.0</ele><time>2026-04-12T10:25:22.975Z</time></trkpt><trkpt lat="44.3111764" lon="11.4004965"><ele>225.66666666666669</ele><time>2026-04-12T10:25:23.973Z</time></trkpt><trkpt lat="44.3109926" lon="11.4004856"><ele>226.33333333333334</ele><time>2026-04-12T10:25:24.975Z</time></trkpt><trkpt lat="44.3108046" lon="11.4004577"><ele>227.0</ele><time>2026-04-12T10:25:25.974Z</time></trkpt><trkpt lat="44.3106131" lon="11.4004269"><ele>227.66666666666669</ele><time>2026-04-12T10:25:26.975Z</time></trkpt><trkpt lat="44.3104209" lon="11.400394"><ele>228.33333333333331</ele><time>2026-04-12T10:25:27.975Z</time></trkpt><trkpt lat="44.3102274" lon="11.4003532"><ele>229.0</ele><time>2026-04-12T10:25:28.974Z</time></trkpt><trkpt lat="44.3100357" lon="11.4002898"><ele>229.0</ele><time>2026-04-12T10:25:29.975Z</time></trkpt><trkpt lat="44.3098516" lon="11.4001992"><ele>229.0</ele><time>2026-04-12T10:25:30.974Z</time></trkpt><trkpt lat="44.309677" lon="11.4000952"><ele>229.0</ele><time>2026-04-12T10:25:31.975Z</time></trkpt><trkpt lat="44.3095018" lon="11.3999666"><ele>229.33333333333331</ele><time>2026-04-12T10:25:32.975Z</time></trkpt><trkpt lat="44.3093312" lon="11.3998206"><ele>229.66666666666669</ele><time>2026-04-12T10:25:33.974Z</time></trkpt><trkpt lat="44.3091704" lon="11.3996559"><ele>230.0</ele><time>2026-04-12T10:25:34.974Z</time></trkpt><trkpt lat="44.3090207" lon="11.3994899"><ele>231.0</ele><time>2026-04-12T10:25:35.976Z</time></trkpt><trkpt lat="44.3088721" lon="11.3993362"><ele>232.0</ele><time>2026-04-12T10:25:36.974Z</time></trkpt><trkpt lat="44.3087094" lon="11.3992199"><ele>233.0</ele><time>2026-04-12T10:25:37.974Z</time></trkpt><trkpt lat="44.3085335" lon="11.3991397"><ele>233.0</ele><time>2026-04-12T10:25:38.974Z</time></trkpt><trkpt lat="44.3083528" lon="11.3990756"><ele>233.0</ele><time>2026-04-12T10:25:39.975Z</time></trkpt><trkpt lat="44.308169" lon="11.3990232"><ele>233.0</ele><time>2026-04-12T10:25:40.975Z</time></trkpt><trkpt lat="44.307979" lon="11.3989839"><ele>235.0</ele><time>2026-04-12T10:25:41.975Z</time></trkpt><trkpt lat="44.3077864" lon="11.3989624"><ele>237.0</ele><time>2026-04-12T10:25:42.975Z</time></trkpt><trkpt lat="44.3075929" lon="11.3989491"><ele>239.0</ele><time>2026-04-12T10:25:43.973Z</time></trkpt><trkpt lat="44.3073962" lon="11.3989339"><ele>239.66666666666669</ele><time>2026-04-12T10:25:44.975Z</time></trkpt><trkpt lat="44.3071957" lon="11.398911"><ele>240.33333333333331</ele><time>2026-04-12T10:25:45.973Z</time></trkpt><trkpt lat="44.3069938" lon="11.398891"><ele>241.0</ele><time>2026-04-12T10:25:46.976Z</time></trkpt><trkpt lat="44.3067968" lon="11.3988724"><ele>241.0</ele><time>2026-04-12T10:25:47.973Z</time></trkpt><trkpt lat="44.3066024" lon="11.3988484"><ele>241.0</ele><time>2026-04-12T10:25:48.973Z</time></trkpt><trkpt lat="44.3064101" lon="11.3988247"><ele>241.0</ele><time>2026-04-12T10:25:49.975Z</time></trkpt><trkpt lat="44.3062162" lon="11.3988104"><ele>241.0</ele><time>2026-04-12T10:25:50.975Z</time></trkpt><trkpt lat="44.3060231" lon="11.3988134"><ele>241.0</ele><time>2026-04-12T10:25:51.974Z</time></trkpt><trkpt lat="44.3058237" lon="11.3988359"><ele>241.0</ele><time>2026-04-12T10:25:52.973Z</time></trkpt><trkpt lat="44.3056221" lon="11.3988721"><ele>238.33333333333331</ele><time>2026-04-12T10:25:53.974Z</time></trkpt><trkpt lat="44.3054198" lon="11.3989071"><ele>235.66666666666669</ele><time>2026-04-12T10:25:54.973Z</time></trkpt><trkpt lat="44.30522" lon="11.3989414"><ele>233.0</ele><time>2026-04-12T10:25:55.973Z</time></trkpt><trkpt lat="44.3050119" lon="11.3989622"><ele>233.0</ele><time>2026-04-12T10:25:56.974Z</time></trkpt><trkpt lat="44.3048044" lon="11.3989731"><ele>233.0</ele><time>2026-04-12T10:25:57.974Z</time></trkpt><trkpt lat="44.3045945" lon="11.3989875"><ele>233.0</ele><time>2026-04-12T10:25:58.973Z</time></trkpt><trkpt lat="44.3043846" lon="11.3990027"><ele>233.0</ele><time>2026-04-12T10:25:59.973Z</time></trkpt><trkpt lat="44.304176" lon="11.3990217"><ele>233.0</ele><time>2026-04-12T10:26:00.973Z</time></trkpt><trkpt lat="44.3039655" lon="11.399038"><ele>233.0</ele><time>2026-04-12T10:26:01.973Z</time></trkpt><trkpt lat="44.3037543" lon="11.3990475"><ele>234.33333333333334</ele><time>2026-04-12T10:26:02.974Z</time></trkpt><trkpt lat="44.3035424" lon="11.3990474"><ele>235.66666666666669</ele><time>2026-04-12T10:26:03.975Z</time></trkpt><trkpt lat="44.3033295" lon="11.3990268"><ele>237.0</ele><time>2026-04-12T10:26:04.975Z</time></trkpt><trkpt lat="44.3031201" lon="11.398975"><ele>235.66666666666669</ele><time>2026-04-12T10:26:05.974Z</time></trkpt><trkpt lat="44.3029137" lon="11.3989094"><ele>234.33333333333334</ele><time>2026-04-12T10:26:06.975Z</time></trkpt><trkpt lat="44.3027115" lon="11.3988434"><ele>233.0</ele><time>2026-04-12T10:26:07.974Z</time></trkpt><trkpt lat="44.3025061" lon="11.3987833"><ele>233.0</ele><time>2026-04-12T10:26:08.976Z</time></trkpt><trkpt lat="44.3023016" lon="11.3987178"><ele>233.0</ele><time>2026-04-12T10:26:09.976Z</time></trkpt><trkpt lat="44.3021001" lon="11.3986472"><ele>233.0</ele><time>2026-04-12T10:26:10.976Z</time></trkpt><trkpt lat="44.3019025" lon="11.3985778"><ele>233.66666666666669</ele><time>2026-04-12T10:26:11.974Z</time></trkpt><trkpt lat="44.301718" lon="11.398516"><ele>234.33333333333331</ele><time>2026-04-12T10:26:12.974Z</time></trkpt><trkpt lat="44.3015531" lon="11.3984601"><ele>235.0</ele><time>2026-04-12T10:26:13.976Z</time></trkpt><trkpt lat="44.3014025" lon="11.3984068"><ele>235.66666666666666</ele><time>2026-04-12T10:26:14.976Z</time></trkpt><trkpt lat="44.3012531" lon="11.3983548"><ele>236.33333333333331</ele><time>2026-04-12T10:26:15.974Z</time></trkpt><trkpt lat="44.3011016" lon="11.3983019"><ele>237.0</ele><time>2026-04-12T10:26:16.974Z</time></trkpt><trkpt lat="44.3009455" lon="11.3982504"><ele>237.0</ele><time>2026-04-12T10:26:17.975Z</time></trkpt><trkpt lat="44.3007838" lon="11.398196"><ele>237.0</ele><time>2026-04-12T10:26:18.975Z</time></trkpt><trkpt lat="44.3006173" lon="11.3981422"><ele>237.0</ele><time>2026-04-12T10:26:19.974Z</time></trkpt><trkpt lat="44.3004434" lon="11.3980855"><ele>237.33333333333331</ele><time>2026-04-12T10:26:20.975Z</time></trkpt><trkpt lat="44.3002727" lon="11.39803"><ele>237.66666666666666</ele><time>2026-04-12T10:26:21.975Z</time></trkpt><trkpt lat="44.3000999" lon="11.3979755"><ele>238.0</ele><time>2026-04-12T10:26:22.974Z</time></trkpt><trkpt lat="44.2999259" lon="11.3979159"><ele>238.0</ele><time>2026-04-12T10:26:23.975Z</time></trkpt><trkpt lat="44.2997559" lon="11.3978597"><ele>238.0</ele><time>2026-04-12T10:26:24.974Z</time></trkpt><trkpt lat="44.2995838" lon="11.3978242"><ele>238.0</ele><time>2026-04-12T10:26:25.974Z</time></trkpt><trkpt lat="44.299411" lon="11.3978221"><ele>238.66666666666666</ele><time>2026-04-12T10:26:26.974Z</time></trkpt><trkpt lat="44.2992363" lon="11.3978568"><ele>239.33333333333331</ele><time>2026-04-12T10:26:27.975Z</time></trkpt><trkpt lat="44.2990687" lon="11.3979453"><ele>240.0</ele><time>2026-04-12T10:26:28.973Z</time></trkpt><trkpt lat="44.2989131" lon="11.3980768"><ele>241.0</ele><time>2026-04-12T10:26:29.975Z</time></trkpt><trkpt lat="44.2987608" lon="11.3982209"><ele>242.0</ele><time>2026-04-12T10:26:30.975Z</time></trkpt><trkpt lat="44.2986023" lon="11.3983591"><ele>243.0</ele><time>2026-04-12T10:26:31.974Z</time></trkpt><trkpt lat="44.298431" lon="11.3984756"><ele>243.0</ele><time>2026-04-12T10:26:32.975Z</time></trkpt><trkpt lat="44.298248" lon="11.3985592"><ele>243.0</ele><time>2026-04-12T10:26:33.975Z</time></trkpt><trkpt lat="44.2980572" lon="11.3986058"><ele>243.0</ele><time>2026-04-12T10:26:34.976Z</time></trkpt><trkpt lat="44.2978648" lon="11.3986215"><ele>243.33333333333331</ele><time>2026-04-12T10:26:35.973Z</time></trkpt><trkpt lat="44.2976692" lon="11.3986097"><ele>243.66666666666666</ele><time>2026-04-12T10:26:36.975Z</time></trkpt><trkpt lat="44.2974765" lon="11.3985757"><ele>244.0</ele><time>2026-04-12T10:26:37.973Z</time></trkpt><trkpt lat="44.2972823" lon="11.398533"><ele>245.0</ele><time>2026-04-12T10:26:38.974Z</time></trkpt><trkpt lat="44.2970918" lon="11.3984872"><ele>246.0</ele><time>2026-04-12T10:26:39.974Z</time></trkpt><trkpt lat="44.2969023" lon="11.3984374"><ele>247.0</ele><time>2026-04-12T10:26:40.973Z</time></trkpt><trkpt lat="44.2967163" lon="11.3983903"><ele>247.0</ele><time>2026-04-12T10:26:41.974Z</time></trkpt><trkpt lat="44.2965286" lon="11.3983411"><ele>247.0</ele><time>2026-04-12T10:26:42.974Z</time></trkpt><trkpt lat="44.29634" lon="11.3982965"><ele>247.0</ele><time>2026-04-12T10:26:43.974Z</time></trkpt><trkpt lat="44.296155" lon="11.3982678"><ele>248.0</ele><time>2026-04-12T10:26:44.974Z</time></trkpt><trkpt lat="44.2959688" lon="11.398275"><ele>249.0</ele><time>2026-04-12T10:26:45.974Z</time></trkpt><trkpt lat="44.2957909" lon="11.398304"><ele>250.0</ele><time>2026-04-12T10:26:46.974Z</time></trkpt><trkpt lat="44.2956341" lon="11.3983481"><ele>250.4</ele><time>2026-04-12T10:26:47.975Z</time></trkpt><trkpt lat="44.2955021" lon="11.3983976"><ele>250.8</ele><time>2026-04-12T10:26:48.974Z</time></trkpt><trkpt lat="44.2953942" lon="11.3984329"><ele>251.2</ele><time>2026-04-12T10:26:49.976Z</time></trkpt><trkpt lat="44.2953059" lon="11.3984203"><ele>251.6</ele><time>2026-04-12T10:26:50.975Z</time></trkpt><trkpt lat="44.2952358" lon="11.3983538"><ele>252.0</ele><time>2026-04-12T10:26:51.975Z</time></trkpt><trkpt lat="44.2951973" lon="11.3982299"><ele>252.0</ele><time>2026-04-12T10:26:52.974Z</time></trkpt><trkpt lat="44.2952043" lon="11.3980725"><ele>252.0</ele><time>2026-04-12T10:26:53.975Z</time></trkpt><trkpt lat="44.2952244" lon="11.3978921"><ele>252.0</ele><time>2026-04-12T10:26:54.975Z</time></trkpt><trkpt lat="44.2952418" lon="11.3977162"><ele>252.0</ele><time>2026-04-12T10:26:55.974Z</time></trkpt><trkpt lat="44.2952484" lon="11.3975381"><ele>253.5</ele><time>2026-04-12T10:26:56.974Z</time></trkpt><trkpt lat="44.2952363" lon="11.3973726"><ele>255.0</ele><time>2026-04-12T10:26:57.974Z</time></trkpt><trkpt lat="44.2951987" lon="11.3972143"><ele>256.5</ele><time>2026-04-12T10:26:58.977Z</time></trkpt><trkpt lat="44.2951268" lon="11.3970676"><ele>258.0</ele><time>2026-04-12T10:26:59.975Z</time></trkpt><trkpt lat="44.2950238" lon="11.3969528"><ele>258.0</ele><time>2026-04-12T10:27:00.974Z</time></trkpt><trkpt lat="44.2948958" lon="11.3968826"><ele>258.0</ele><time>2026-04-12T10:27:01.974Z</time></trkpt><trkpt lat="44.2947519" lon="11.3968434"><ele>258.0</ele><time>2026-04-12T10:27:02.974Z</time></trkpt><trkpt lat="44.2946025" lon="11.3968116"><ele>258.0</ele><time>2026-04-12T10:27:03.974Z</time></trkpt><trkpt lat="44.294442" lon="11.396779"><ele>254.0</ele><time>2026-04-12T10:27:04.975Z</time></trkpt><trkpt lat="44.2942765" lon="11.3967444"><ele>250.0</ele><time>2026-04-12T10:27:05.975Z</time></trkpt><trkpt lat="44.2941068" lon="11.3967071"><ele>246.0</ele><time>2026-04-12T10:27:06.975Z</time></trkpt><trkpt lat="44.2939368" lon="11.3966642"><ele>245.0</ele><time>2026-04-12T10:27:07.974Z</time></trkpt><trkpt lat="44.2937658" lon="11.3966091"><ele>244.0</ele><time>2026-04-12T10:27:08.974Z</time></trkpt><trkpt lat="44.2935938" lon="11.3965375"><ele>243.0</ele><time>2026-04-12T10:27:09.974Z</time></trkpt><trkpt lat="44.2934226" lon="11.3964514"><ele>243.0</ele><time>2026-04-12T10:27:10.973Z</time></trkpt><trkpt lat="44.2932523" lon="11.3963616"><ele>243.0</ele><time>2026-04-12T10:27:11.975Z</time></trkpt><trkpt lat="44.2930793" lon="11.3962739"><ele>243.0</ele><time>2026-04-12T10:27:12.973Z</time></trkpt><trkpt lat="44.2929044" lon="11.3961818"><ele>245.66666666666669</ele><time>2026-04-12T10:27:13.974Z</time></trkpt><trkpt lat="44.2927278" lon="11.3960883"><ele>248.33333333333334</ele><time>2026-04-12T10:27:14.975Z</time></trkpt><trkpt lat="44.2925514" lon="11.3959944"><ele>251.0</ele><time>2026-04-12T10:27:15.974Z</time></trkpt><trkpt lat="44.2923761" lon="11.3958989"><ele>250.33333333333334</ele><time>2026-04-12T10:27:16.974Z</time></trkpt><trkpt lat="44.292198" lon="11.3958019"><ele>249.66666666666669</ele><time>2026-04-12T10:27:17.973Z</time></trkpt><trkpt lat="44.2920231" lon="11.3957045"><ele>249.0</ele><time>2026-04-12T10:27:18.974Z</time></trkpt><trkpt lat="44.2918467" lon="11.3956119"><ele>249.0</ele><time>2026-04-12T10:27:19.974Z</time></trkpt><trkpt lat="44.2916728" lon="11.3955247"><ele>249.0</ele><time>2026-04-12T10:27:20.975Z</time></trkpt><trkpt lat="44.2915" lon="11.3954399"><ele>249.0</ele><time>2026-04-12T10:27:21.975Z</time></trkpt><trkpt lat="44.2913274" lon="11.3953621"><ele>252.33333333333331</ele><time>2026-04-12T10:27:22.974Z</time></trkpt><trkpt lat="44.2911498" lon="11.3952948"><ele>255.66666666666666</ele><time>2026-04-12T10:27:23.974Z</time></trkpt><trkpt lat="44.2909689" lon="11.3952305"><ele>259.0</ele><time>2026-04-12T10:27:24.975Z</time></trkpt><trkpt lat="44.2907857" lon="11.3951677"><ele>259.0</ele><time>2026-04-12T10:27:25.975Z</time></trkpt><trkpt lat="44.2906014" lon="11.3951038"><ele>259.0</ele><time>2026-04-12T10:27:26.975Z</time></trkpt><trkpt lat="44.2904142" lon="11.395041"><ele>259.0</ele><time>2026-04-12T10:27:27.975Z</time></trkpt><trkpt lat="44.2902271" lon="11.3949824"><ele>257.66666666666663</ele><time>2026-04-12T10:27:28.975Z</time></trkpt><trkpt lat="44.2900371" lon="11.3949304"><ele>256.3333333333333</ele><time>2026-04-12T10:27:29.976Z</time></trkpt><trkpt lat="44.2898415" lon="11.3948916"><ele>255.0</ele><time>2026-04-12T10:27:30.975Z</time></trkpt><trkpt lat="44.2896406" lon="11.3948645"><ele>255.0</ele><time>2026-04-12T10:27:31.974Z</time></trkpt><trkpt lat="44.289438" lon="11.3948399"><ele>255.0</ele><time>2026-04-12T10:27:32.976Z</time></trkpt><trkpt lat="44.2892376" lon="11.3948088"><ele>255.0</ele><time>2026-04-12T10:27:33.974Z</time></trkpt><trkpt lat="44.2890413" lon="11.394752"><ele>254.33333333333331</ele><time>2026-04-12T10:27:34.974Z</time></trkpt><trkpt lat="44.2888426" lon="11.3946824"><ele>253.66666666666666</ele><time>2026-04-12T10:27:35.975Z</time></trkpt><trkpt lat="44.288644" lon="11.3946012"><ele>253.0</ele><time>2026-04-12T10:27:36.976Z</time></trkpt><trkpt lat="44.2884483" lon="11.3945267"><ele>257.3333333333333</ele><time>2026-04-12T10:27:37.974Z</time></trkpt><trkpt lat="44.2882543" lon="11.3944676"><ele>261.6666666666667</ele><time>2026-04-12T10:27:38.975Z</time></trkpt><trkpt lat="44.2880526" lon="11.3944572"><ele>266.0</ele><time>2026-04-12T10:27:39.974Z</time></trkpt><trkpt lat="44.2878547" lon="11.3944702"><ele>266.0</ele><time>2026-04-12T10:27:40.974Z</time></trkpt><trkpt lat="44.2876587" lon="11.3944884"><ele>266.0</ele><time>2026-04-12T10:27:41.973Z</time></trkpt><trkpt lat="44.2874599" lon="11.3944911"><ele>266.0</ele><time>2026-04-12T10:27:42.975Z</time></trkpt><trkpt lat="44.2872652" lon="11.3944827"><ele>264.33333333333337</ele><time>2026-04-12T10:27:43.973Z</time></trkpt><trkpt lat="44.2870708" lon="11.3944551"><ele>262.6666666666667</ele><time>2026-04-12T10:27:44.975Z</time></trkpt><trkpt lat="44.2868786" lon="11.394407"><ele>261.0</ele><time>2026-04-12T10:27:45.973Z</time></trkpt><trkpt lat="44.2866941" lon="11.3943187"><ele>261.0</ele><time>2026-04-12T10:27:46.974Z</time></trkpt><trkpt lat="44.286512" lon="11.3942047"><ele>261.0</ele><time>2026-04-12T10:27:47.974Z</time></trkpt><trkpt lat="44.2863352" lon="11.3940783"><ele>261.0</ele><time>2026-04-12T10:27:48.973Z</time></trkpt><trkpt lat="44.286163" lon="11.3939438"><ele>262.0</ele><time>2026-04-12T10:27:49.973Z</time></trkpt><trkpt lat="44.2860114" lon="11.3937728"><ele>263.0</ele><time>2026-04-12T10:27:50.973Z</time></trkpt><trkpt lat="44.285883" lon="11.3935671"><ele>264.0</ele><time>2026-04-12T10:27:51.973Z</time></trkpt><trkpt lat="44.2857701" lon="11.3933419"><ele>264.0</ele><time>2026-04-12T10:27:52.973Z</time></trkpt><trkpt lat="44.2856589" lon="11.3931156"><ele>264.0</ele><time>2026-04-12T10:27:53.973Z</time></trkpt><trkpt lat="44.2855326" lon="11.3929029"><ele>264.0</ele><time>2026-04-12T10:27:54.975Z</time></trkpt><trkpt lat="44.2853903" lon="11.3927157"><ele>264.3333333333333</ele><time>2026-04-12T10:27:55.974Z</time></trkpt><trkpt lat="44.2852341" lon="11.3925463"><ele>264.66666666666663</ele><time>2026-04-12T10:27:56.974Z</time></trkpt><trkpt lat="44.2850696" lon="11.3923873"><ele>265.0</ele><time>2026-04-12T10:27:57.975Z</time></trkpt><trkpt lat="44.2848993" lon="11.392242"><ele>271.66666666666663</ele><time>2026-04-12T10:27:58.974Z</time></trkpt><trkpt lat="44.2847158" lon="11.3921262"><ele>278.3333333333333</ele><time>2026-04-12T10:27:59.973Z</time></trkpt><trkpt lat="44.2845231" lon="11.3920457"><ele>285.0</ele><time>2026-04-12T10:28:00.972Z</time></trkpt><trkpt lat="44.2843262" lon="11.3919815"><ele>285.0</ele><time>2026-04-12T10:28:01.974Z</time></trkpt><trkpt lat="44.2841289" lon="11.3919198"><ele>285.0</ele><time>2026-04-12T10:28:02.973Z</time></trkpt><trkpt lat="44.2839316" lon="11.3918587"><ele>285.0</ele><time>2026-04-12T10:28:03.973Z</time></trkpt><trkpt lat="44.2837366" lon="11.3918276"><ele>282.3333333333333</ele><time>2026-04-12T10:28:04.974Z</time></trkpt><trkpt lat="44.2835424" lon="11.3918353"><ele>279.66666666666663</ele><time>2026-04-12T10:28:05.973Z</time></trkpt><trkpt lat="44.2833496" lon="11.3918689"><ele>277.0</ele><time>2026-04-12T10:28:06.974Z</time></trkpt><trkpt lat="44.2831686" lon="11.3919206"><ele>276.0</ele><time>2026-04-12T10:28:07.974Z</time></trkpt><trkpt lat="44.2829957" lon="11.3919527"><ele>275.0</ele><time>2026-04-12T10:28:08.974Z</time></trkpt><trkpt lat="44.2828237" lon="11.3919474"><ele>274.0</ele><time>2026-04-12T10:28:09.973Z</time></trkpt><trkpt lat="44.2826617" lon="11.3918785"><ele>274.0</ele><time>2026-04-12T10:28:10.973Z</time></trkpt><trkpt lat="44.282514" lon="11.3917553"><ele>274.0</ele><time>2026-04-12T10:28:11.973Z</time></trkpt><trkpt lat="44.2823727" lon="11.3916035"><ele>274.0</ele><time>2026-04-12T10:28:12.974Z</time></trkpt><trkpt lat="44.2822305" lon="11.3914512"><ele>273.3333333333333</ele><time>2026-04-12T10:28:13.974Z</time></trkpt><trkpt lat="44.2820856" lon="11.3913073"><ele>272.6666666666667</ele><time>2026-04-12T10:28:14.975Z</time></trkpt><trkpt lat="44.2819381" lon="11.3911712"><ele>272.0</ele><time>2026-04-12T10:28:15.973Z</time></trkpt><trkpt lat="44.2817917" lon="11.3910442"><ele>272.0</ele><time>2026-04-12T10:28:16.973Z</time></trkpt><trkpt lat="44.2816341" lon="11.3909325"><ele>272.0</ele><time>2026-04-12T10:28:17.973Z</time></trkpt><trkpt lat="44.2814757" lon="11.3908303"><ele>272.0</ele><time>2026-04-12T10:28:18.974Z</time></trkpt><trkpt lat="44.2813136" lon="11.3907352"><ele>271.0</ele><time>2026-04-12T10:28:19.975Z</time></trkpt><trkpt lat="44.2811471" lon="11.3906546"><ele>270.0</ele><time>2026-04-12T10:28:20.974Z</time></trkpt><trkpt lat="44.2809801" lon="11.3905925"><ele>269.0</ele><time>2026-04-12T10:28:21.974Z</time></trkpt><trkpt lat="44.2808094" lon="11.3905456"><ele>273.33333333333337</ele><time>2026-04-12T10:28:22.973Z</time></trkpt><trkpt lat="44.2806319" lon="11.3905064"><ele>277.6666666666667</ele><time>2026-04-12T10:28:23.974Z</time></trkpt><trkpt lat="44.2804564" lon="11.3904623"><ele>282.0</ele><time>2026-04-12T10:28:24.974Z</time></trkpt><trkpt lat="44.2802752" lon="11.3904232"><ele>282.0</ele><time>2026-04-12T10:28:25.976Z</time></trkpt><trkpt lat="44.2800921" lon="11.3903856"><ele>282.0</ele><time>2026-04-12T10:28:26.975Z</time></trkpt><trkpt lat="44.2799106" lon="11.3903556"><ele>282.0</ele><time>2026-04-12T10:28:27.974Z</time></trkpt><trkpt lat="44.2797318" lon="11.390349"><ele>284.6666666666667</ele><time>2026-04-12T10:28:28.973Z</time></trkpt><trkpt lat="44.2795496" lon="11.3903631"><ele>287.33333333333337</ele><time>2026-04-12T10:28:29.974Z</time></trkpt><trkpt lat="44.2793649" lon="11.390375"><ele>290.0</ele><time>2026-04-12T10:28:30.973Z</time></trkpt><trkpt lat="44.2791829" lon="11.3903634"><ele>290.0</ele><time>2026-04-12T10:28:31.974Z</time></trkpt><trkpt lat="44.2789999" lon="11.3903295"><ele>290.0</ele><time>2026-04-12T10:28:32.974Z</time></trkpt><trkpt lat="44.2788195" lon="11.390275"><ele>290.0</ele><time>2026-04-12T10:28:33.974Z</time></trkpt><trkpt lat="44.2786416" lon="11.3902076"><ele>287.6666666666667</ele><time>2026-04-12T10:28:34.972Z</time></trkpt><trkpt lat="44.2784639" lon="11.3901369"><ele>285.3333333333333</ele><time>2026-04-12T10:28:35.973Z</time></trkpt><trkpt lat="44.278288" lon="11.3900573"><ele>283.0</ele><time>2026-04-12T10:28:36.974Z</time></trkpt><trkpt lat="44.2781126" lon="11.3899743"><ele>277.3333333333333</ele><time>2026-04-12T10:28:37.975Z</time></trkpt><trkpt lat="44.2779357" lon="11.3898935"><ele>271.6666666666667</ele><time>2026-04-12T10:28:38.974Z</time></trkpt><trkpt lat="44.2777583" lon="11.3898139"><ele>266.0</ele><time>2026-04-12T10:28:39.974Z</time></trkpt><trkpt lat="44.2775821" lon="11.3897319"><ele>270.33333333333337</ele><time>2026-04-12T10:28:40.974Z</time></trkpt><trkpt lat="44.2774124" lon="11.3896412"><ele>274.6666666666667</ele><time>2026-04-12T10:28:41.973Z</time></trkpt><trkpt lat="44.2772453" lon="11.3895436"><ele>279.0</ele><time>2026-04-12T10:28:42.975Z</time></trkpt><trkpt lat="44.2770804" lon="11.3894453"><ele>279.0</ele><time>2026-04-12T10:28:43.973Z</time></trkpt><trkpt lat="44.2769123" lon="11.3893461"><ele>279.0</ele><time>2026-04-12T10:28:44.973Z</time></trkpt><trkpt lat="44.2767422" lon="11.3892375"><ele>279.0</ele><time>2026-04-12T10:28:45.976Z</time></trkpt><trkpt lat="44.276577" lon="11.3891265"><ele>274.6666666666667</ele><time>2026-04-12T10:28:46.977Z</time></trkpt><trkpt lat="44.2764172" lon="11.3890033"><ele>270.33333333333337</ele><time>2026-04-12T10:28:47.975Z</time></trkpt><trkpt lat="44.2762699" lon="11.3888648"><ele>266.0</ele><time>2026-04-12T10:28:48.974Z</time></trkpt><trkpt lat="44.276125" lon="11.3887166"><ele>276.0</ele><time>2026-04-12T10:28:49.973Z</time></trkpt><trkpt lat="44.2759804" lon="11.3885671"><ele>286.0</ele><time>2026-04-12T10:28:50.973Z</time></trkpt><trkpt lat="44.2758308" lon="11.3884487"><ele>296.0</ele><time>2026-04-12T10:28:51.975Z</time></trkpt><trkpt lat="44.2756749" lon="11.3883689"><ele>295.0</ele><time>2026-04-12T10:28:52.973Z</time></trkpt><trkpt lat="44.2755194" lon="11.3883512"><ele>294.0</ele><time>2026-04-12T10:28:53.975Z</time></trkpt><trkpt lat="44.2753708" lon="11.3883939"><ele>293.0</ele><time>2026-04-12T10:28:54.974Z</time></trkpt><trkpt lat="44.2752466" lon="11.3884755"><ele>292.0</ele><time>2026-04-12T10:28:55.974Z</time></trkpt><trkpt lat="44.2751374" lon="11.3885708"><ele>292.0</ele><time>2026-04-12T10:28:56.973Z</time></trkpt><trkpt lat="44.2750461" lon="11.3886598"><ele>292.0</ele><time>2026-04-12T10:28:57.973Z</time></trkpt><trkpt lat="44.274965" lon="11.3887304"><ele>292.0</ele><time>2026-04-12T10:28:58.973Z</time></trkpt><trkpt lat="44.2748907" lon="11.3887842"><ele>292.0</ele><time>2026-04-12T10:28:59.974Z</time></trkpt><trkpt lat="44.2748211" lon="11.3888227"><ele>292.0</ele><time>2026-04-12T10:29:00.974Z</time></trkpt><trkpt lat="44.2747545" lon="11.3888529"><ele>292.0</ele><time>2026-04-12T10:29:01.975Z</time></trkpt><trkpt lat="44.2746843" lon="11.3888673"><ele>289.5</ele><time>2026-04-12T10:29:02.973Z</time></trkpt><trkpt lat="44.274623" lon="11.3888396"><ele>287.0</ele><time>2026-04-12T10:29:03.973Z</time></trkpt><trkpt lat="44.2745392" lon="11.3887169"><ele>284.5</ele><time>2026-04-12T10:29:05.973Z</time></trkpt><trkpt lat="44.2745149" lon="11.3886318"><ele>282.0</ele><time>2026-04-12T10:29:06.974Z</time></trkpt><trkpt lat="44.2744915" lon="11.3885473"><ele>279.5</ele><time>2026-04-12T10:29:07.973Z</time></trkpt><trkpt lat="44.2744371" lon="11.3884026"><ele>277.0</ele><time>2026-04-12T10:29:09.973Z</time></trkpt><trkpt lat="44.2743222" lon="11.3883336"><ele>277.0</ele><time>2026-04-12T10:29:11.974Z</time></trkpt><trkpt lat="44.2742502" lon="11.3883384"><ele>277.0</ele><time>2026-04-12T10:29:12.973Z</time></trkpt><trkpt lat="44.2741842" lon="11.3883472"><ele>277.0</ele><time>2026-04-12T10:29:13.974Z</time></trkpt><trkpt lat="44.2741187" lon="11.3883418"><ele>277.0</ele><time>2026-04-12T10:29:14.974Z</time></trkpt><trkpt lat="44.2740533" lon="11.3883106"><ele>277.0</ele><time>2026-04-12T10:29:15.973Z</time></trkpt><trkpt lat="44.2739818" lon="11.3882452"><ele>277.0</ele><time>2026-04-12T10:29:16.973Z</time></trkpt><trkpt lat="44.273912" lon="11.388156"><ele>277.2</ele><time>2026-04-12T10:29:17.973Z</time></trkpt><trkpt lat="44.2738374" lon="11.3880699"><ele>277.4</ele><time>2026-04-12T10:29:18.974Z</time></trkpt><trkpt lat="44.273754" lon="11.3879923"><ele>277.6</ele><time>2026-04-12T10:29:19.974Z</time></trkpt><trkpt lat="44.2736606" lon="11.3879437"><ele>277.8</ele><time>2026-04-12T10:29:20.973Z</time></trkpt><trkpt lat="44.273563" lon="11.3879322"><ele>278.0</ele><time>2026-04-12T10:29:21.975Z</time></trkpt><trkpt lat="44.273464" lon="11.3879568"><ele>278.0</ele><time>2026-04-12T10:29:22.973Z</time></trkpt><trkpt lat="44.2733662" lon="11.3879995"><ele>278.0</ele><time>2026-04-12T10:29:23.974Z</time></trkpt><trkpt lat="44.2732667" lon="11.3880564"><ele>278.0</ele><time>2026-04-12T10:29:24.973Z</time></trkpt><trkpt lat="44.2731741" lon="11.3881059"><ele>278.0</ele><time>2026-04-12T10:29:25.973Z</time></trkpt><trkpt lat="44.2730861" lon="11.3881521"><ele>278.0</ele><time>2026-04-12T10:29:26.975Z</time></trkpt><trkpt lat="44.2729988" lon="11.3881991"><ele>281.6</ele><time>2026-04-12T10:29:27.973Z</time></trkpt><trkpt lat="44.2729159" lon="11.3882562"><ele>285.20000000000005</ele><time>2026-04-12T10:29:28.974Z</time></trkpt><trkpt lat="44.2728455" lon="11.3883272"><ele>288.8</ele><time>2026-04-12T10:29:29.973Z</time></trkpt><trkpt lat="44.2727863" lon="11.388421"><ele>292.40000000000003</ele><time>2026-04-12T10:29:30.974Z</time></trkpt><trkpt lat="44.2727459" lon="11.388539"><ele>296.0</ele><time>2026-04-12T10:29:31.974Z</time></trkpt><trkpt lat="44.2727152" lon="11.388666"><ele>296.0</ele><time>2026-04-12T10:29:32.974Z</time></trkpt><trkpt lat="44.27268" lon="11.3887877"><ele>296.0</ele><time>2026-04-12T10:29:33.974Z</time></trkpt><trkpt lat="44.2726392" lon="11.3888985"><ele>296.0</ele><time>2026-04-12T10:29:34.974Z</time></trkpt><trkpt lat="44.2725846" lon="11.3889888"><ele>296.0</ele><time>2026-04-12T10:29:35.975Z</time></trkpt><trkpt lat="44.2725246" lon="11.3890721"><ele>296.0</ele><time>2026-04-12T10:29:36.974Z</time></trkpt><trkpt lat="44.2724571" lon="11.389136"><ele>296.0</ele><time>2026-04-12T10:29:37.974Z</time></trkpt><trkpt lat="44.272389" lon="11.3891952"><ele>295.83333333333337</ele><time>2026-04-12T10:29:38.975Z</time></trkpt><trkpt lat="44.2723207" lon="11.3892523"><ele>295.6666666666667</ele><time>2026-04-12T10:29:39.974Z</time></trkpt><trkpt lat="44.2722597" lon="11.389317"><ele>295.5</ele><time>2026-04-12T10:29:40.974Z</time></trkpt><trkpt lat="44.2722118" lon="11.3893974"><ele>295.3333333333333</ele><time>2026-04-12T10:29:41.973Z</time></trkpt><trkpt lat="44.2721743" lon="11.3894905"><ele>295.16666666666663</ele><time>2026-04-12T10:29:42.973Z</time></trkpt><trkpt lat="44.2721428" lon="11.3895848"><ele>295.0</ele><time>2026-04-12T10:29:43.975Z</time></trkpt><trkpt lat="44.2721305" lon="11.3897059"><ele>299.75</ele><time>2026-04-12T10:29:44.975Z</time></trkpt><trkpt lat="44.2721299" lon="11.3898613"><ele>304.5</ele><time>2026-04-12T10:29:45.973Z</time></trkpt><trkpt lat="44.272143" lon="11.3900651"><ele>309.25</ele><time>2026-04-12T10:29:46.973Z</time></trkpt><trkpt lat="44.2721465" lon="11.3903033"><ele>314.0</ele><time>2026-04-12T10:29:47.973Z</time></trkpt><trkpt lat="44.2721533" lon="11.3905449"><ele>314.6666666666667</ele><time>2026-04-12T10:29:48.973Z</time></trkpt><trkpt lat="44.2721658" lon="11.3907677"><ele>315.3333333333333</ele><time>2026-04-12T10:29:49.975Z</time></trkpt><trkpt lat="44.2721752" lon="11.3909809"><ele>316.0</ele><time>2026-04-12T10:29:50.974Z</time></trkpt><trkpt lat="44.2721713" lon="11.391189"><ele>318.3333333333333</ele><time>2026-04-12T10:29:51.975Z</time></trkpt><trkpt lat="44.2721488" lon="11.3913934"><ele>320.6666666666667</ele><time>2026-04-12T10:29:52.973Z</time></trkpt><trkpt lat="44.2721159" lon="11.3916046"><ele>323.0</ele><time>2026-04-12T10:29:53.974Z</time></trkpt><trkpt lat="44.2720768" lon="11.3918115"><ele>323.0</ele><time>2026-04-12T10:29:54.974Z</time></trkpt><trkpt lat="44.2720335" lon="11.3920045"><ele>323.0</ele><time>2026-04-12T10:29:55.973Z</time></trkpt><trkpt lat="44.2719916" lon="11.3921901"><ele>323.0</ele><time>2026-04-12T10:29:56.975Z</time></trkpt><trkpt lat="44.2719502" lon="11.3923601"><ele>323.0</ele><time>2026-04-12T10:29:57.974Z</time></trkpt><trkpt lat="44.2718992" lon="11.3925047"><ele>323.4</ele><time>2026-04-12T10:29:58.973Z</time></trkpt><trkpt lat="44.2718635" lon="11.3926387"><ele>323.79999999999995</ele><time>2026-04-12T10:29:59.973Z</time></trkpt><trkpt lat="44.2718673" lon="11.3927695"><ele>324.2</ele><time>2026-04-12T10:30:00.973Z</time></trkpt><trkpt lat="44.2718907" lon="11.3928906"><ele>324.6</ele><time>2026-04-12T10:30:01.973Z</time></trkpt><trkpt lat="44.2719271" lon="11.3929941"><ele>325.0</ele><time>2026-04-12T10:30:02.974Z</time></trkpt><trkpt lat="44.2720103" lon="11.3930504"><ele>326.66666666666663</ele><time>2026-04-12T10:30:03.974Z</time></trkpt><trkpt lat="44.2720985" lon="11.3930763"><ele>328.3333333333333</ele><time>2026-04-12T10:30:04.973Z</time></trkpt><trkpt lat="44.2721755" lon="11.3930961"><ele>330.0</ele><time>2026-04-12T10:30:05.974Z</time></trkpt><trkpt lat="44.2722461" lon="11.3931236"><ele>331.6666666666667</ele><time>2026-04-12T10:30:06.973Z</time></trkpt><trkpt lat="44.2722436" lon="11.3932464"><ele>333.33333333333337</ele><time>2026-04-12T10:30:08.975Z</time></trkpt><trkpt lat="44.2721813" lon="11.3933008"><ele>335.0</ele><time>2026-04-12T10:30:09.974Z</time></trkpt><trkpt lat="44.2720959" lon="11.3933451"><ele>335.0</ele><time>2026-04-12T10:30:10.974Z</time></trkpt><trkpt lat="44.2719899" lon="11.3933611"><ele>335.0</ele><time>2026-04-12T10:30:11.973Z</time></trkpt><trkpt lat="44.2718788" lon="11.3933405"><ele>335.0</ele><time>2026-04-12T10:30:12.973Z</time></trkpt><trkpt lat="44.2717836" lon="11.3933034"><ele>335.0</ele><time>2026-04-12T10:30:13.974Z</time></trkpt><trkpt lat="44.2717043" lon="11.3932915"><ele>335.0</ele><time>2026-04-12T10:30:14.973Z</time></trkpt><trkpt lat="44.2716389" lon="11.3933131"><ele>335.0</ele><time>2026-04-12T10:30:15.975Z</time></trkpt><trkpt lat="44.2716145" lon="11.3934454"><ele>335.0</ele><time>2026-04-12T10:30:17.973Z</time></trkpt><trkpt lat="44.2716588" lon="11.393517"><ele>335.0</ele><time>2026-04-12T10:30:18.974Z</time></trkpt><trkpt lat="44.2717191" lon="11.39356"><ele>335.0</ele><time>2026-04-12T10:30:19.974Z</time></trkpt><trkpt lat="44.2718033" lon="11.3935981"><ele>335.0</ele><time>2026-04-12T10:30:20.974Z</time></trkpt><trkpt lat="44.2718917" lon="11.3936634"><ele>335.0</ele><time>2026-04-12T10:30:21.973Z</time></trkpt><trkpt lat="44.271987" lon="11.3937227"><ele>335.0</ele><time>2026-04-12T10:30:22.975Z</time></trkpt><trkpt lat="44.2720936" lon="11.393747"><ele>335.0</ele><time>2026-04-12T10:30:23.974Z</time></trkpt><trkpt lat="44.272207" lon="11.393736"><ele>335.0</ele><time>2026-04-12T10:30:24.973Z</time></trkpt><trkpt lat="44.2723224" lon="11.3937154"><ele>335.0</ele><time>2026-04-12T10:30:25.973Z</time></trkpt><trkpt lat="44.2724381" lon="11.3937152"><ele>334.0</ele><time>2026-04-12T10:30:26.974Z</time></trkpt><trkpt lat="44.2725521" lon="11.3937422"><ele>333.0</ele><time>2026-04-12T10:30:27.973Z</time></trkpt><trkpt lat="44.272662" lon="11.3937999"><ele>332.0</ele><time>2026-04-12T10:30:28.973Z</time></trkpt><trkpt lat="44.2727599" lon="11.3938809"><ele>331.0</ele><time>2026-04-12T10:30:29.975Z</time></trkpt><trkpt lat="44.2728486" lon="11.3939836"><ele>334.8</ele><time>2026-04-12T10:30:30.974Z</time></trkpt><trkpt lat="44.2729158" lon="11.3941061"><ele>338.6</ele><time>2026-04-12T10:30:31.974Z</time></trkpt><trkpt lat="44.2729623" lon="11.3942449"><ele>342.4</ele><time>2026-04-12T10:30:32.976Z</time></trkpt><trkpt lat="44.2729912" lon="11.3943939"><ele>346.2</ele><time>2026-04-12T10:30:33.975Z</time></trkpt><trkpt lat="44.2730095" lon="11.3945512"><ele>350.0</ele><time>2026-04-12T10:30:34.976Z</time></trkpt><trkpt lat="44.2730255" lon="11.3947121"><ele>354.25</ele><time>2026-04-12T10:30:35.974Z</time></trkpt><trkpt lat="44.2730413" lon="11.3948733"><ele>358.5</ele><time>2026-04-12T10:30:36.974Z</time></trkpt><trkpt lat="44.2730535" lon="11.3950319"><ele>362.75</ele><time>2026-04-12T10:30:37.974Z</time></trkpt><trkpt lat="44.2730514" lon="11.3951919"><ele>367.0</ele><time>2026-04-12T10:30:38.974Z</time></trkpt><trkpt lat="44.2730344" lon="11.3953443"><ele>367.0</ele><time>2026-04-12T10:30:39.974Z</time></trkpt><trkpt lat="44.2730067" lon="11.3954863"><ele>367.0</ele><time>2026-04-12T10:30:40.973Z</time></trkpt><trkpt lat="44.2729816" lon="11.3956228"><ele>367.0</ele><time>2026-04-12T10:30:41.973Z</time></trkpt><trkpt lat="44.272983" lon="11.3957471"><ele>367.0</ele><time>2026-04-12T10:30:42.974Z</time></trkpt><trkpt lat="44.2730052" lon="11.3958628"><ele>367.0</ele><time>2026-04-12T10:30:43.973Z</time></trkpt><trkpt lat="44.2730741" lon="11.3959322"><ele>365.8</ele><time>2026-04-12T10:30:44.974Z</time></trkpt><trkpt lat="44.2731592" lon="11.3959789"><ele>364.6</ele><time>2026-04-12T10:30:45.973Z</time></trkpt><trkpt lat="44.2732625" lon="11.3959986"><ele>363.40000000000003</ele><time>2026-04-12T10:30:46.973Z</time></trkpt><trkpt lat="44.2733577" lon="11.3960186"><ele>362.20000000000005</ele><time>2026-04-12T10:30:47.973Z</time></trkpt><trkpt lat="44.2734386" lon="11.3960563"><ele>361.0</ele><time>2026-04-12T10:30:48.974Z</time></trkpt><trkpt lat="44.2735066" lon="11.3961167"><ele>361.0</ele><time>2026-04-12T10:30:49.972Z</time></trkpt><trkpt lat="44.2735508" lon="11.3962101"><ele>361.0</ele><time>2026-04-12T10:30:50.976Z</time></trkpt><trkpt lat="44.2735677" lon="11.3963242"><ele>361.0</ele><time>2026-04-12T10:30:51.972Z</time></trkpt><trkpt lat="44.2735158" lon="11.3964697"><ele>361.0</ele><time>2026-04-12T10:30:52.974Z</time></trkpt><trkpt lat="44.2734624" lon="11.3966003"><ele>361.0</ele><time>2026-04-12T10:30:53.975Z</time></trkpt><trkpt lat="44.2734119" lon="11.3967395"><ele>363.75</ele><time>2026-04-12T10:30:54.974Z</time></trkpt><trkpt lat="44.2733749" lon="11.3968924"><ele>366.5</ele><time>2026-04-12T10:30:55.973Z</time></trkpt><trkpt lat="44.2733645" lon="11.3970563"><ele>369.25</ele><time>2026-04-12T10:30:56.974Z</time></trkpt><trkpt lat="44.2733765" lon="11.3972225"><ele>372.0</ele><time>2026-04-12T10:30:57.976Z</time></trkpt><trkpt lat="44.2734089" lon="11.3973901"><ele>373.25</ele><time>2026-04-12T10:30:58.973Z</time></trkpt><trkpt lat="44.2734518" lon="11.3975518"><ele>374.5</ele><time>2026-04-12T10:30:59.975Z</time></trkpt><trkpt lat="44.2734953" lon="11.3977074"><ele>375.75</ele><time>2026-04-12T10:31:00.974Z</time></trkpt><trkpt lat="44.2735123" lon="11.3978564"><ele>377.0</ele><time>2026-04-12T10:31:01.974Z</time></trkpt><trkpt lat="44.2734964" lon="11.3979975"><ele>377.0</ele><time>2026-04-12T10:31:02.973Z</time></trkpt><trkpt lat="44.273453" lon="11.3981269"><ele>377.0</ele><time>2026-04-12T10:31:03.974Z</time></trkpt><trkpt lat="44.273387" lon="11.3982494"><ele>377.0</ele><time>2026-04-12T10:31:04.974Z</time></trkpt><trkpt lat="44.2733017" lon="11.3983646"><ele>377.0</ele><time>2026-04-12T10:31:05.974Z</time></trkpt><trkpt lat="44.2732126" lon="11.3984698"><ele>377.0</ele><time>2026-04-12T10:31:06.975Z</time></trkpt><trkpt lat="44.2731196" lon="11.3985721"><ele>379.25</ele><time>2026-04-12T10:31:07.974Z</time></trkpt><trkpt lat="44.2730204" lon="11.3986775"><ele>381.5</ele><time>2026-04-12T10:31:08.974Z</time></trkpt><trkpt lat="44.2729173" lon="11.3987896"><ele>383.75</ele><time>2026-04-12T10:31:09.973Z</time></trkpt><trkpt lat="44.2728163" lon="11.3989057"><ele>386.0</ele><time>2026-04-12T10:31:10.975Z</time></trkpt><trkpt lat="44.2727116" lon="11.3990227"><ele>386.0</ele><time>2026-04-12T10:31:11.974Z</time></trkpt><trkpt lat="44.2726025" lon="11.3991428"><ele>386.0</ele><time>2026-04-12T10:31:12.973Z</time></trkpt><trkpt lat="44.2724933" lon="11.3992666"><ele>386.0</ele><time>2026-04-12T10:31:13.973Z</time></trkpt><trkpt lat="44.2723936" lon="11.3993911"><ele>386.0</ele><time>2026-04-12T10:31:14.974Z</time></trkpt><trkpt lat="44.2723088" lon="11.3995295"><ele>385.5</ele><time>2026-04-12T10:31:15.973Z</time></trkpt><trkpt lat="44.272253" lon="11.3996881"><ele>385.0</ele><time>2026-04-12T10:31:16.973Z</time></trkpt><trkpt lat="44.2722365" lon="11.3998509"><ele>384.5</ele><time>2026-04-12T10:31:17.974Z</time></trkpt><trkpt lat="44.2722643" lon="11.400017"><ele>384.0</ele><time>2026-04-12T10:31:18.974Z</time></trkpt><trkpt lat="44.2723175" lon="11.4001735"><ele>384.0</ele><time>2026-04-12T10:31:19.974Z</time></trkpt><trkpt lat="44.2723862" lon="11.4003219"><ele>384.0</ele><time>2026-04-12T10:31:20.973Z</time></trkpt><trkpt lat="44.2724504" lon="11.4004753"><ele>384.0</ele><time>2026-04-12T10:31:21.974Z</time></trkpt><trkpt lat="44.2724948" lon="11.4006397"><ele>384.0</ele><time>2026-04-12T10:31:22.973Z</time></trkpt><trkpt lat="44.2725037" lon="11.4008095"><ele>385.0</ele><time>2026-04-12T10:31:23.973Z</time></trkpt><trkpt lat="44.2724834" lon="11.4009713"><ele>386.0</ele><time>2026-04-12T10:31:24.974Z</time></trkpt><trkpt lat="44.2724304" lon="11.4011122"><ele>387.0</ele><time>2026-04-12T10:31:25.973Z</time></trkpt><trkpt lat="44.2723487" lon="11.4012281"><ele>388.0</ele><time>2026-04-12T10:31:26.974Z</time></trkpt><trkpt lat="44.272242" lon="11.4013109"><ele>390.25</ele><time>2026-04-12T10:31:27.974Z</time></trkpt><trkpt lat="44.2721216" lon="11.4013658"><ele>392.5</ele><time>2026-04-12T10:31:28.974Z</time></trkpt><trkpt lat="44.2719897" lon="11.4014118"><ele>394.75</ele><time>2026-04-12T10:31:29.974Z</time></trkpt><trkpt lat="44.2718549" lon="11.401458"><ele>397.0</ele><time>2026-04-12T10:31:30.973Z</time></trkpt><trkpt lat="44.2717152" lon="11.4015169"><ele>397.0</ele><time>2026-04-12T10:31:31.974Z</time></trkpt><trkpt lat="44.2715744" lon="11.4015838"><ele>397.0</ele><time>2026-04-12T10:31:32.974Z</time></trkpt><trkpt lat="44.2714442" lon="11.4016684"><ele>397.0</ele><time>2026-04-12T10:31:33.973Z</time></trkpt><trkpt lat="44.2713375" lon="11.401787"><ele>397.0</ele><time>2026-04-12T10:31:34.975Z</time></trkpt><trkpt lat="44.2712532" lon="11.4019326"><ele>398.75</ele><time>2026-04-12T10:31:35.974Z</time></trkpt><trkpt lat="44.2711735" lon="11.4020856"><ele>400.5</ele><time>2026-04-12T10:31:36.974Z</time></trkpt><trkpt lat="44.2710798" lon="11.4022178"><ele>402.25</ele><time>2026-04-12T10:31:37.975Z</time></trkpt><trkpt lat="44.2709613" lon="11.4023112"><ele>404.0</ele><time>2026-04-12T10:31:38.973Z</time></trkpt><trkpt lat="44.2708327" lon="11.4023636"><ele>404.0</ele><time>2026-04-12T10:31:39.974Z</time></trkpt><trkpt lat="44.270698" lon="11.4023884"><ele>404.0</ele><time>2026-04-12T10:31:40.974Z</time></trkpt><trkpt lat="44.2705772" lon="11.4024105"><ele>404.0</ele><time>2026-04-12T10:31:41.973Z</time></trkpt><trkpt lat="44.270472" lon="11.4024516"><ele>404.0</ele><time>2026-04-12T10:31:42.973Z</time></trkpt><trkpt lat="44.2703812" lon="11.4025187"><ele>407.2</ele><time>2026-04-12T10:31:43.973Z</time></trkpt><trkpt lat="44.2703106" lon="11.402621"><ele>410.4</ele><time>2026-04-12T10:31:44.974Z</time></trkpt><trkpt lat="44.2702709" lon="11.4027522"><ele>413.6</ele><time>2026-04-12T10:31:45.973Z</time></trkpt><trkpt lat="44.2702672" lon="11.4029028"><ele>416.8</ele><time>2026-04-12T10:31:46.974Z</time></trkpt><trkpt lat="44.2702988" lon="11.4030529"><ele>420.0</ele><time>2026-04-12T10:31:47.974Z</time></trkpt><trkpt lat="44.2703555" lon="11.4031986"><ele>421.0</ele><time>2026-04-12T10:31:48.974Z</time></trkpt><trkpt lat="44.2704252" lon="11.4033418"><ele>422.0</ele><time>2026-04-12T10:31:49.973Z</time></trkpt><trkpt lat="44.2705089" lon="11.4034792"><ele>423.0</ele><time>2026-04-12T10:31:50.975Z</time></trkpt><trkpt lat="44.2705949" lon="11.403614"><ele>424.0</ele><time>2026-04-12T10:31:51.975Z</time></trkpt><trkpt lat="44.2706742" lon="11.4037506"><ele>423.4</ele><time>2026-04-12T10:31:52.976Z</time></trkpt><trkpt lat="44.2707526" lon="11.4038729"><ele>422.79999999999995</ele><time>2026-04-12T10:31:53.974Z</time></trkpt><trkpt lat="44.2708348" lon="11.4039654"><ele>422.20000000000005</ele><time>2026-04-12T10:31:54.975Z</time></trkpt><trkpt lat="44.2709292" lon="11.4040175"><ele>421.6</ele><time>2026-04-12T10:31:55.974Z</time></trkpt><trkpt lat="44.2710293" lon="11.4040246"><ele>421.0</ele><time>2026-04-12T10:31:56.974Z</time></trkpt><trkpt lat="44.2711258" lon="11.4040105"><ele>421.00000000000006</ele><time>2026-04-12T10:31:57.974Z</time></trkpt><trkpt lat="44.2712118" lon="11.4040194"><ele>421.0</ele><time>2026-04-12T10:31:58.974Z</time></trkpt><trkpt lat="44.2712938" lon="11.4040482"><ele>421.0</ele><time>2026-04-12T10:31:59.975Z</time></trkpt><trkpt lat="44.2713323" lon="11.4041417"><ele>421.0</ele><time>2026-04-12T10:32:00.974Z</time></trkpt><trkpt lat="44.2713233" lon="11.404251"><ele>421.00000000000006</ele><time>2026-04-12T10:32:01.973Z</time></trkpt><trkpt lat="44.2712998" lon="11.4043457"><ele>421.0</ele><time>2026-04-12T10:32:02.974Z</time></trkpt><trkpt lat="44.2712253" lon="11.4043953"><ele>421.0</ele><time>2026-04-12T10:32:03.974Z</time></trkpt><trkpt lat="44.2711428" lon="11.4044263"><ele>421.0</ele><time>2026-04-12T10:32:04.974Z</time></trkpt><trkpt lat="44.2710442" lon="11.4044291"><ele>421.0</ele><time>2026-04-12T10:32:05.974Z</time></trkpt><trkpt lat="44.2709319" lon="11.4044258"><ele>421.0</ele><time>2026-04-12T10:32:06.974Z</time></trkpt><trkpt lat="44.2708104" lon="11.4044157"><ele>421.0</ele><time>2026-04-12T10:32:07.974Z</time></trkpt><trkpt lat="44.2706945" lon="11.4043908"><ele>425.5</ele><time>2026-04-12T10:32:08.978Z</time></trkpt><trkpt lat="44.2705732" lon="11.4043568"><ele>430.0</ele><time>2026-04-12T10:32:09.974Z</time></trkpt><trkpt lat="44.2704483" lon="11.4043211"><ele>434.5</ele><time>2026-04-12T10:32:10.976Z</time></trkpt><trkpt lat="44.2703177" lon="11.4042766"><ele>439.0</ele><time>2026-04-12T10:32:11.974Z</time></trkpt><trkpt lat="44.2701915" lon="11.4042266"><ele>439.0</ele><time>2026-04-12T10:32:12.977Z</time></trkpt><trkpt lat="44.2700666" lon="11.4041731"><ele>439.0</ele><time>2026-04-12T10:32:13.974Z</time></trkpt><trkpt lat="44.269951" lon="11.4041113"><ele>439.0</ele><time>2026-04-12T10:32:14.974Z</time></trkpt><trkpt lat="44.2698499" lon="11.4040225"><ele>439.0</ele><time>2026-04-12T10:32:15.974Z</time></trkpt><trkpt lat="44.2697713" lon="11.4039091"><ele>440.79999999999995</ele><time>2026-04-12T10:32:16.973Z</time></trkpt><trkpt lat="44.2696985" lon="11.4037985"><ele>442.59999999999997</ele><time>2026-04-12T10:32:17.974Z</time></trkpt><trkpt lat="44.2696189" lon="11.4037176"><ele>444.4</ele><time>2026-04-12T10:32:18.974Z</time></trkpt><trkpt lat="44.2695236" lon="11.403674"><ele>446.2</ele><time>2026-04-12T10:32:19.975Z</time></trkpt><trkpt lat="44.2694182" lon="11.4036489"><ele>448.0</ele><time>2026-04-12T10:32:20.975Z</time></trkpt><trkpt lat="44.269305" lon="11.4036296"><ele>448.0</ele><time>2026-04-12T10:32:21.974Z</time></trkpt><trkpt lat="44.2691942" lon="11.4036026"><ele>448.0</ele><time>2026-04-12T10:32:22.973Z</time></trkpt><trkpt lat="44.2690834" lon="11.403578"><ele>448.0</ele><time>2026-04-12T10:32:23.975Z</time></trkpt><trkpt lat="44.2689662" lon="11.4035673"><ele>448.0</ele><time>2026-04-12T10:32:24.973Z</time></trkpt><trkpt lat="44.2688472" lon="11.4035576"><ele>451.0</ele><time>2026-04-12T10:32:25.973Z</time></trkpt><trkpt lat="44.2687282" lon="11.403549"><ele>453.99999999999994</ele><time>2026-04-12T10:32:26.974Z</time></trkpt><trkpt lat="44.2686237" lon="11.4035294"><ele>456.99999999999994</ele><time>2026-04-12T10:32:27.974Z</time></trkpt><trkpt lat="44.2685243" lon="11.4034809"><ele>460.0</ele><time>2026-04-12T10:32:28.975Z</time></trkpt><trkpt lat="44.268434" lon="11.4033998"><ele>463.0</ele><time>2026-04-12T10:32:29.974Z</time></trkpt><trkpt lat="44.268364" lon="11.403276"><ele>463.0</ele><time>2026-04-12T10:32:30.974Z</time></trkpt><trkpt lat="44.2683077" lon="11.403138"><ele>463.0</ele><time>2026-04-12T10:32:31.974Z</time></trkpt><trkpt lat="44.2682638" lon="11.4029883"><ele>463.0</ele><time>2026-04-12T10:32:32.975Z</time></trkpt><trkpt lat="44.2682233" lon="11.402828"><ele>463.0</ele><time>2026-04-12T10:32:33.975Z</time></trkpt><trkpt lat="44.2681827" lon="11.4026666"><ele>461.2</ele><time>2026-04-12T10:32:34.975Z</time></trkpt><trkpt lat="44.2681364" lon="11.4025254"><ele>459.4</ele><time>2026-04-12T10:32:35.974Z</time></trkpt><trkpt lat="44.268072" lon="11.4024224"><ele>457.59999999999997</ele><time>2026-04-12T10:32:36.973Z</time></trkpt><trkpt lat="44.2679855" lon="11.4023527"><ele>455.79999999999995</ele><time>2026-04-12T10:32:37.974Z</time></trkpt><trkpt lat="44.2678874" lon="11.4023075"><ele>454.0</ele><time>2026-04-12T10:32:38.973Z</time></trkpt><trkpt lat="44.2677831" lon="11.4022764"><ele>456.79999999999995</ele><time>2026-04-12T10:32:39.974Z</time></trkpt><trkpt lat="44.267675" lon="11.4022516"><ele>459.59999999999997</ele><time>2026-04-12T10:32:40.973Z</time></trkpt><trkpt lat="44.2675688" lon="11.4022123"><ele>462.4</ele><time>2026-04-12T10:32:41.974Z</time></trkpt><trkpt lat="44.2674762" lon="11.4021488"><ele>465.2</ele><time>2026-04-12T10:32:42.974Z</time></trkpt><trkpt lat="44.2674002" lon="11.4020614"><ele>468.0</ele><time>2026-04-12T10:32:43.974Z</time></trkpt><trkpt lat="44.2673466" lon="11.4019435"><ele>468.0</ele><time>2026-04-12T10:32:44.973Z</time></trkpt><trkpt lat="44.2673151" lon="11.4018061"><ele>467.99999999999994</ele><time>2026-04-12T10:32:45.976Z</time></trkpt><trkpt lat="44.2672971" lon="11.4016514"><ele>467.99999999999994</ele><time>2026-04-12T10:32:46.974Z</time></trkpt><trkpt lat="44.2672673" lon="11.4014949"><ele>468.0</ele><time>2026-04-12T10:32:47.973Z</time></trkpt><trkpt lat="44.2672189" lon="11.4013486"><ele>468.0</ele><time>2026-04-12T10:32:48.974Z</time></trkpt><trkpt lat="44.2671477" lon="11.4012231"><ele>471.0</ele><time>2026-04-12T10:32:49.974Z</time></trkpt><trkpt lat="44.2670726" lon="11.401109"><ele>473.99999999999994</ele><time>2026-04-12T10:32:50.974Z</time></trkpt><trkpt lat="44.2670125" lon="11.4009884"><ele>476.99999999999994</ele><time>2026-04-12T10:32:51.974Z</time></trkpt><trkpt lat="44.2669783" lon="11.4008609"><ele>480.0</ele><time>2026-04-12T10:32:52.974Z</time></trkpt><trkpt lat="44.2669741" lon="11.4007346"><ele>483.0</ele><time>2026-04-12T10:32:53.974Z</time></trkpt><trkpt lat="44.2669908" lon="11.4006116"><ele>483.2</ele><time>2026-04-12T10:32:54.973Z</time></trkpt><trkpt lat="44.2670353" lon="11.4004977"><ele>483.4</ele><time>2026-04-12T10:32:55.974Z</time></trkpt><trkpt lat="44.2671003" lon="11.400384"><ele>483.59999999999997</ele><time>2026-04-12T10:32:56.974Z</time></trkpt><trkpt lat="44.2671687" lon="11.4002603"><ele>483.79999999999995</ele><time>2026-04-12T10:32:57.974Z</time></trkpt><trkpt lat="44.2672391" lon="11.4001289"><ele>484.0</ele><time>2026-04-12T10:32:58.973Z</time></trkpt><trkpt lat="44.2673162" lon="11.3999993"><ele>484.0</ele><time>2026-04-12T10:32:59.975Z</time></trkpt><trkpt lat="44.2674082" lon="11.3998822"><ele>484.0</ele><time>2026-04-12T10:33:00.974Z</time></trkpt><trkpt lat="44.2675102" lon="11.3997884"><ele>484.0</ele><time>2026-04-12T10:33:01.974Z</time></trkpt><trkpt lat="44.2676028" lon="11.399706"><ele>484.0</ele><time>2026-04-12T10:33:02.974Z</time></trkpt><trkpt lat="44.2676749" lon="11.3996156"><ele>484.6666666666667</ele><time>2026-04-12T10:33:03.975Z</time></trkpt><trkpt lat="44.26772" lon="11.3995028"><ele>485.33333333333337</ele><time>2026-04-12T10:33:04.974Z</time></trkpt><trkpt lat="44.2677336" lon="11.3993737"><ele>486.0</ele><time>2026-04-12T10:33:05.975Z</time></trkpt><trkpt lat="44.2677069" lon="11.3992533"><ele>486.66666666666663</ele><time>2026-04-12T10:33:06.974Z</time></trkpt><trkpt lat="44.2676597" lon="11.3991578"><ele>487.3333333333333</ele><time>2026-04-12T10:33:07.975Z</time></trkpt><trkpt lat="44.2675951" lon="11.3990963"><ele>488.0</ele><time>2026-04-12T10:33:08.974Z</time></trkpt><trkpt lat="44.2675171" lon="11.3990696"><ele>488.0</ele><time>2026-04-12T10:33:09.975Z</time></trkpt><trkpt lat="44.2674223" lon="11.3991256"><ele>487.99999999999994</ele><time>2026-04-12T10:33:10.976Z</time></trkpt><trkpt lat="44.267341" lon="11.3991888"><ele>487.99999999999994</ele><time>2026-04-12T10:33:11.973Z</time></trkpt><trkpt lat="44.2672633" lon="11.3992653"><ele>488.0</ele><time>2026-04-12T10:33:12.976Z</time></trkpt><trkpt lat="44.2671749" lon="11.399387"><ele>488.0</ele><time>2026-04-12T10:33:13.974Z</time></trkpt><trkpt lat="44.2670876" lon="11.3995107"><ele>488.25</ele><time>2026-04-12T10:33:14.974Z</time></trkpt><trkpt lat="44.266989" lon="11.3996447"><ele>488.5</ele><time>2026-04-12T10:33:15.975Z</time></trkpt><trkpt lat="44.2668863" lon="11.3997817"><ele>488.75</ele><time>2026-04-12T10:33:16.973Z</time></trkpt><trkpt lat="44.2667746" lon="11.39991"><ele>489.0</ele><time>2026-04-12T10:33:17.973Z</time></trkpt><trkpt lat="44.2666527" lon="11.4000126"><ele>489.0</ele><time>2026-04-12T10:33:18.973Z</time></trkpt><trkpt lat="44.266524" lon="11.4000813"><ele>489.0</ele><time>2026-04-12T10:33:19.974Z</time></trkpt><trkpt lat="44.2663846" lon="11.4001191"><ele>489.0</ele><time>2026-04-12T10:33:20.973Z</time></trkpt><trkpt lat="44.2662477" lon="11.4001295"><ele>489.0</ele><time>2026-04-12T10:33:21.973Z</time></trkpt><trkpt lat="44.266122" lon="11.4001181"><ele>491.25</ele><time>2026-04-12T10:33:22.975Z</time></trkpt><trkpt lat="44.2660029" lon="11.4000838"><ele>493.5</ele><time>2026-04-12T10:33:23.972Z</time></trkpt><trkpt lat="44.2658953" lon="11.4000198"><ele>495.75</ele><time>2026-04-12T10:33:24.972Z</time></trkpt><trkpt lat="44.2657943" lon="11.3999341"><ele>498.0</ele><time>2026-04-12T10:33:25.973Z</time></trkpt><trkpt lat="44.2656954" lon="11.3998382"><ele>498.0</ele><time>2026-04-12T10:33:26.974Z</time></trkpt><trkpt lat="44.2656009" lon="11.3997374"><ele>498.0</ele><time>2026-04-12T10:33:27.974Z</time></trkpt><trkpt lat="44.2655038" lon="11.3996395"><ele>498.0</ele><time>2026-04-12T10:33:28.972Z</time></trkpt><trkpt lat="44.2654063" lon="11.3995608"><ele>498.0</ele><time>2026-04-12T10:33:29.974Z</time></trkpt><trkpt lat="44.2653112" lon="11.3995161"><ele>498.0</ele><time>2026-04-12T10:33:30.974Z</time></trkpt><trkpt lat="44.2652206" lon="11.3995045"><ele>497.99999999999994</ele><time>2026-04-12T10:33:31.976Z</time></trkpt><trkpt lat="44.2651297" lon="11.3995168"><ele>497.99999999999994</ele><time>2026-04-12T10:33:32.974Z</time></trkpt><trkpt lat="44.2650378" lon="11.3995624"><ele>498.0</ele><time>2026-04-12T10:33:33.973Z</time></trkpt><trkpt lat="44.264936" lon="11.3996353"><ele>498.0</ele><time>2026-04-12T10:33:34.975Z</time></trkpt><trkpt lat="44.26484" lon="11.399703"><ele>501.0</ele><time>2026-04-12T10:33:35.973Z</time></trkpt><trkpt lat="44.2647353" lon="11.3997834"><ele>504.0</ele><time>2026-04-12T10:33:36.974Z</time></trkpt><trkpt lat="44.264627" lon="11.3998614"><ele>507.0</ele><time>2026-04-12T10:33:37.974Z</time></trkpt><trkpt lat="44.2645206" lon="11.3999451"><ele>510.0</ele><time>2026-04-12T10:33:38.973Z</time></trkpt><trkpt lat="44.2644214" lon="11.4000331"><ele>510.0</ele><time>2026-04-12T10:33:39.975Z</time></trkpt><trkpt lat="44.2643359" lon="11.4001291"><ele>510.0</ele><time>2026-04-12T10:33:40.974Z</time></trkpt><trkpt lat="44.2642773" lon="11.4002312"><ele>510.0</ele><time>2026-04-12T10:33:41.973Z</time></trkpt><trkpt lat="44.2642518" lon="11.4003448"><ele>510.0</ele><time>2026-04-12T10:33:42.973Z</time></trkpt><trkpt lat="44.2642502" lon="11.4004731"><ele>510.0</ele><time>2026-04-12T10:33:43.974Z</time></trkpt><trkpt lat="44.2643025" lon="11.4006064"><ele>512.0</ele><time>2026-04-12T10:33:44.973Z</time></trkpt><trkpt lat="44.2643701" lon="11.4007294"><ele>514.0</ele><time>2026-04-12T10:33:45.974Z</time></trkpt><trkpt lat="44.2644276" lon="11.4008553"><ele>516.0</ele><time>2026-04-12T10:33:46.973Z</time></trkpt><trkpt lat="44.2644626" lon="11.4009953"><ele>518.0</ele><time>2026-04-12T10:33:47.974Z</time></trkpt><trkpt lat="44.2644663" lon="11.4011388"><ele>520.0</ele><time>2026-04-12T10:33:48.974Z</time></trkpt><trkpt lat="44.2644449" lon="11.4012712"><ele>523.0</ele><time>2026-04-12T10:33:49.974Z</time></trkpt><trkpt lat="44.2643935" lon="11.4013928"><ele>526.0</ele><time>2026-04-12T10:33:50.976Z</time></trkpt><trkpt lat="44.2643264" lon="11.4015166"><ele>529.0</ele><time>2026-04-12T10:33:51.975Z</time></trkpt><trkpt lat="44.2642572" lon="11.4016562"><ele>532.0</ele><time>2026-04-12T10:33:52.973Z</time></trkpt><trkpt lat="44.2641937" lon="11.4018015"><ele>532.0</ele><time>2026-04-12T10:33:53.973Z</time></trkpt><trkpt lat="44.2641228" lon="11.4019571"><ele>532.0</ele><time>2026-04-12T10:33:54.973Z</time></trkpt><trkpt lat="44.264046" lon="11.4021209"><ele>532.0</ele><time>2026-04-12T10:33:55.975Z</time></trkpt><trkpt lat="44.2639666" lon="11.4022878"><ele>532.0</ele><time>2026-04-12T10:33:56.974Z</time></trkpt><trkpt lat="44.263901" lon="11.402455"><ele>535.0</ele><time>2026-04-12T10:33:57.973Z</time></trkpt><trkpt lat="44.2638562" lon="11.4026273"><ele>538.0</ele><time>2026-04-12T10:33:58.973Z</time></trkpt><trkpt lat="44.2638381" lon="11.4028197"><ele>541.0</ele><time>2026-04-12T10:33:59.974Z</time></trkpt><trkpt lat="44.263846" lon="11.4030171"><ele>544.0</ele><time>2026-04-12T10:34:00.974Z</time></trkpt><trkpt lat="44.2638626" lon="11.4032168"><ele>544.75</ele><time>2026-04-12T10:34:01.974Z</time></trkpt><trkpt lat="44.2638899" lon="11.4034098"><ele>545.5</ele><time>2026-04-12T10:34:02.974Z</time></trkpt><trkpt lat="44.2639221" lon="11.4036048"><ele>546.25</ele><time>2026-04-12T10:34:03.974Z</time></trkpt><trkpt lat="44.2639558" lon="11.4037947"><ele>547.0</ele><time>2026-04-12T10:34:04.974Z</time></trkpt><trkpt lat="44.2639941" lon="11.4039795"><ele>545.75</ele><time>2026-04-12T10:34:05.973Z</time></trkpt><trkpt lat="44.2640307" lon="11.4041623"><ele>544.5</ele><time>2026-04-12T10:34:06.973Z</time></trkpt><trkpt lat="44.2640725" lon="11.4043387"><ele>543.25</ele><time>2026-04-12T10:34:07.974Z</time></trkpt><trkpt lat="44.2641274" lon="11.4045061"><ele>542.0</ele><time>2026-04-12T10:34:08.975Z</time></trkpt><trkpt lat="44.264197" lon="11.4046643"><ele>542.0</ele><time>2026-04-12T10:34:09.974Z</time></trkpt><trkpt lat="44.2642763" lon="11.4048128"><ele>542.0</ele><time>2026-04-12T10:34:10.974Z</time></trkpt><trkpt lat="44.2643555" lon="11.4049583"><ele>542.0</ele><time>2026-04-12T10:34:11.974Z</time></trkpt><trkpt lat="44.2644171" lon="11.4051092"><ele>542.0</ele><time>2026-04-12T10:34:12.973Z</time></trkpt><trkpt lat="44.2644469" lon="11.4052642"><ele>542.0</ele><time>2026-04-12T10:34:13.972Z</time></trkpt><trkpt lat="44.2644443" lon="11.4054214"><ele>542.0</ele><time>2026-04-12T10:34:14.975Z</time></trkpt><trkpt lat="44.2644138" lon="11.4055803"><ele>542.0</ele><time>2026-04-12T10:34:15.974Z</time></trkpt><trkpt lat="44.2643768" lon="11.4057419"><ele>542.0</ele><time>2026-04-12T10:34:16.974Z</time></trkpt><trkpt lat="44.2643486" lon="11.4059109"><ele>543.5</ele><time>2026-04-12T10:34:17.973Z</time></trkpt><trkpt lat="44.2643344" lon="11.4060858"><ele>545.0</ele><time>2026-04-12T10:34:18.973Z</time></trkpt><trkpt lat="44.264326" lon="11.4062626"><ele>546.5</ele><time>2026-04-12T10:34:19.973Z</time></trkpt><trkpt lat="44.2643171" lon="11.406437"><ele>548.0</ele><time>2026-04-12T10:34:20.974Z</time></trkpt><trkpt lat="44.2643132" lon="11.4066145"><ele>549.0</ele><time>2026-04-12T10:34:21.974Z</time></trkpt><trkpt lat="44.2643148" lon="11.4067942"><ele>550.0</ele><time>2026-04-12T10:34:22.974Z</time></trkpt><trkpt lat="44.2643187" lon="11.406977"><ele>551.0</ele><time>2026-04-12T10:34:23.975Z</time></trkpt><trkpt lat="44.2643253" lon="11.4071633"><ele>552.0</ele><time>2026-04-12T10:34:24.973Z</time></trkpt><trkpt lat="44.2643393" lon="11.40735"><ele>553.75</ele><time>2026-04-12T10:34:25.973Z</time></trkpt><trkpt lat="44.2643674" lon="11.407536"><ele>555.5</ele><time>2026-04-12T10:34:26.973Z</time></trkpt><trkpt lat="44.2644095" lon="11.4077204"><ele>557.25</ele><time>2026-04-12T10:34:27.974Z</time></trkpt><trkpt lat="44.2644567" lon="11.4078944"><ele>559.0</ele><time>2026-04-12T10:34:28.975Z</time></trkpt><trkpt lat="44.2645012" lon="11.4080581"><ele>560.5</ele><time>2026-04-12T10:34:29.974Z</time></trkpt><trkpt lat="44.2645409" lon="11.4082188"><ele>562.0</ele><time>2026-04-12T10:34:30.975Z</time></trkpt><trkpt lat="44.2645577" lon="11.4083868"><ele>563.5</ele><time>2026-04-12T10:34:31.973Z</time></trkpt><trkpt lat="44.2645558" lon="11.40856"><ele>565.0</ele><time>2026-04-12T10:34:32.974Z</time></trkpt><trkpt lat="44.2645407" lon="11.4087361"><ele>566.0</ele><time>2026-04-12T10:34:33.975Z</time></trkpt><trkpt lat="44.2645276" lon="11.4089148"><ele>567.0</ele><time>2026-04-12T10:34:34.973Z</time></trkpt><trkpt lat="44.2645226" lon="11.4090977"><ele>568.0</ele><time>2026-04-12T10:34:35.974Z</time></trkpt><trkpt lat="44.2645182" lon="11.4092812"><ele>569.0</ele><time>2026-04-12T10:34:36.974Z</time></trkpt><trkpt lat="44.2645101" lon="11.4094631"><ele>569.0</ele><time>2026-04-12T10:34:37.975Z</time></trkpt><trkpt lat="44.2644995" lon="11.4096349"><ele>569.0</ele><time>2026-04-12T10:34:38.974Z</time></trkpt><trkpt lat="44.2644738" lon="11.4097892"><ele>569.0</ele><time>2026-04-12T10:34:39.973Z</time></trkpt><trkpt lat="44.2644214" lon="11.4099208"><ele>569.0</ele><time>2026-04-12T10:34:40.973Z</time></trkpt><trkpt lat="44.2643421" lon="11.4100246"><ele>568.75</ele><time>2026-04-12T10:34:41.974Z</time></trkpt><trkpt lat="44.2642415" lon="11.4101015"><ele>568.5</ele><time>2026-04-12T10:34:42.973Z</time></trkpt><trkpt lat="44.2641346" lon="11.4101763"><ele>568.25</ele><time>2026-04-12T10:34:43.974Z</time></trkpt><trkpt lat="44.2640384" lon="11.4102642"><ele>568.0</ele><time>2026-04-12T10:34:44.973Z</time></trkpt><trkpt lat="44.2639546" lon="11.4103819"><ele>572.0</ele><time>2026-04-12T10:34:45.973Z</time></trkpt><trkpt lat="44.2638867" lon="11.4105154"><ele>576.0</ele><time>2026-04-12T10:34:46.973Z</time></trkpt><trkpt lat="44.2638318" lon="11.4106684"><ele>580.0</ele><time>2026-04-12T10:34:47.974Z</time></trkpt><trkpt lat="44.2637805" lon="11.4108334"><ele>584.0</ele><time>2026-04-12T10:34:48.974Z</time></trkpt><trkpt lat="44.2637206" lon="11.4109947"><ele>584.0</ele><time>2026-04-12T10:34:49.975Z</time></trkpt><trkpt lat="44.2636532" lon="11.4111519"><ele>584.0</ele><time>2026-04-12T10:34:50.975Z</time></trkpt><trkpt lat="44.2635897" lon="11.4113073"><ele>584.0</ele><time>2026-04-12T10:34:51.974Z</time></trkpt><trkpt lat="44.2635318" lon="11.4114665"><ele>584.0</ele><time>2026-04-12T10:34:52.973Z</time></trkpt><trkpt lat="44.2634781" lon="11.4116258"><ele>583.5</ele><time>2026-04-12T10:34:53.973Z</time></trkpt><trkpt lat="44.2634428" lon="11.4117964"><ele>583.0</ele><time>2026-04-12T10:34:54.975Z</time></trkpt><trkpt lat="44.2634425" lon="11.4119729"><ele>582.5</ele><time>2026-04-12T10:34:55.973Z</time></trkpt><trkpt lat="44.2634737" lon="11.4121494"><ele>582.0</ele><time>2026-04-12T10:34:56.975Z</time></trkpt><trkpt lat="44.2635233" lon="11.4123191"><ele>582.0</ele><time>2026-04-12T10:34:57.973Z</time></trkpt><trkpt lat="44.2635887" lon="11.4124861"><ele>582.0</ele><time>2026-04-12T10:34:58.974Z</time></trkpt><trkpt lat="44.2636584" lon="11.4126557"><ele>582.0</ele><time>2026-04-12T10:34:59.976Z</time></trkpt><trkpt lat="44.2637205" lon="11.4128236"><ele>582.0</ele><time>2026-04-12T10:35:00.973Z</time></trkpt><trkpt lat="44.2637665" lon="11.4129854"><ele>583.25</ele><time>2026-04-12T10:35:01.974Z</time></trkpt><trkpt lat="44.2637867" lon="11.4131525"><ele>584.5</ele><time>2026-04-12T10:35:02.974Z</time></trkpt><trkpt lat="44.2637846" lon="11.4133252"><ele>585.75</ele><time>2026-04-12T10:35:03.974Z</time></trkpt><trkpt lat="44.2637672" lon="11.413502"><ele>587.0</ele><time>2026-04-12T10:35:04.974Z</time></trkpt><trkpt lat="44.2637444" lon="11.4136845"><ele>587.5</ele><time>2026-04-12T10:35:05.975Z</time></trkpt><trkpt lat="44.2637116" lon="11.4138642"><ele>588.0</ele><time>2026-04-12T10:35:06.974Z</time></trkpt><trkpt lat="44.2636868" lon="11.414045"><ele>588.5</ele><time>2026-04-12T10:35:07.974Z</time></trkpt><trkpt lat="44.2636655" lon="11.4142256"><ele>589.0</ele><time>2026-04-12T10:35:08.974Z</time></trkpt><trkpt lat="44.2636477" lon="11.4144093"><ele>589.0</ele><time>2026-04-12T10:35:09.974Z</time></trkpt><trkpt lat="44.2636297" lon="11.4145946"><ele>589.0</ele><time>2026-04-12T10:35:10.973Z</time></trkpt><trkpt lat="44.2636067" lon="11.4147812"><ele>589.0</ele><time>2026-04-12T10:35:11.974Z</time></trkpt><trkpt lat="44.2636001" lon="11.4149718"><ele>589.0</ele><time>2026-04-12T10:35:12.973Z</time></trkpt><trkpt lat="44.2636176" lon="11.415164"><ele>589.75</ele><time>2026-04-12T10:35:13.975Z</time></trkpt><trkpt lat="44.2636538" lon="11.4153544"><ele>590.5</ele><time>2026-04-12T10:35:14.973Z</time></trkpt><trkpt lat="44.263698" lon="11.4155376"><ele>591.25</ele><time>2026-04-12T10:35:15.974Z</time></trkpt><trkpt lat="44.2637397" lon="11.4157218"><ele>592.0</ele><time>2026-04-12T10:35:16.975Z</time></trkpt><trkpt lat="44.2637629" lon="11.4159046"><ele>592.5</ele><time>2026-04-12T10:35:17.973Z</time></trkpt><trkpt lat="44.2637747" lon="11.4160904"><ele>593.0</ele><time>2026-04-12T10:35:18.973Z</time></trkpt><trkpt lat="44.263767" lon="11.4162735"><ele>593.5</ele><time>2026-04-12T10:35:19.974Z</time></trkpt><trkpt lat="44.2637394" lon="11.4164497"><ele>594.0</ele><time>2026-04-12T10:35:20.976Z</time></trkpt><trkpt lat="44.2636939" lon="11.4166157"><ele>594.5</ele><time>2026-04-12T10:35:21.973Z</time></trkpt><trkpt lat="44.2636314" lon="11.4167737"><ele>595.0</ele><time>2026-04-12T10:35:22.974Z</time></trkpt><trkpt lat="44.2635501" lon="11.4169168"><ele>595.5</ele><time>2026-04-12T10:35:23.973Z</time></trkpt><trkpt lat="44.2634618" lon="11.4170495"><ele>596.0</ele><time>2026-04-12T10:35:24.973Z</time></trkpt><trkpt lat="44.2633683" lon="11.4171787"><ele>594.5</ele><time>2026-04-12T10:35:25.974Z</time></trkpt><trkpt lat="44.2632767" lon="11.4173049"><ele>593.0</ele><time>2026-04-12T10:35:26.976Z</time></trkpt><trkpt lat="44.2631825" lon="11.4174349"><ele>591.5</ele><time>2026-04-12T10:35:27.973Z</time></trkpt><trkpt lat="44.2630881" lon="11.4175682"><ele>590.0</ele><time>2026-04-12T10:35:28.974Z</time></trkpt><trkpt lat="44.262995" lon="11.4177012"><ele>594.5</ele><time>2026-04-12T10:35:29.975Z</time></trkpt><trkpt lat="44.2629019" lon="11.417837"><ele>599.0</ele><time>2026-04-12T10:35:30.974Z</time></trkpt><trkpt lat="44.2628122" lon="11.4179763"><ele>603.5</ele><time>2026-04-12T10:35:31.974Z</time></trkpt><trkpt lat="44.2627304" lon="11.4181245"><ele>608.0</ele><time>2026-04-12T10:35:32.976Z</time></trkpt><trkpt lat="44.2626599" lon="11.4182857"><ele>608.0</ele><time>2026-04-12T10:35:33.977Z</time></trkpt><trkpt lat="44.262608" lon="11.4184622"><ele>608.0</ele><time>2026-04-12T10:35:34.975Z</time></trkpt><trkpt lat="44.2625733" lon="11.4186515"><ele>608.0</ele><time>2026-04-12T10:35:35.975Z</time></trkpt><trkpt lat="44.2625473" lon="11.4188381"><ele>608.0</ele><time>2026-04-12T10:35:36.975Z</time></trkpt><trkpt lat="44.2625258" lon="11.4190242"><ele>607.75</ele><time>2026-04-12T10:35:37.974Z</time></trkpt><trkpt lat="44.2625081" lon="11.4192097"><ele>607.5</ele><time>2026-04-12T10:35:38.974Z</time></trkpt><trkpt lat="44.2624904" lon="11.419397"><ele>607.25</ele><time>2026-04-12T10:35:39.973Z</time></trkpt><trkpt lat="44.2624675" lon="11.4195831"><ele>607.0</ele><time>2026-04-12T10:35:40.975Z</time></trkpt><trkpt lat="44.2624404" lon="11.4197704"><ele>607.5</ele><time>2026-04-12T10:35:41.974Z</time></trkpt><trkpt lat="44.2624165" lon="11.41996"><ele>608.0</ele><time>2026-04-12T10:35:42.974Z</time></trkpt><trkpt lat="44.2623923" lon="11.4201466"><ele>608.5</ele><time>2026-04-12T10:35:43.973Z</time></trkpt><trkpt lat="44.2623952" lon="11.4203257"><ele>609.0</ele><time>2026-04-12T10:35:44.975Z</time></trkpt><trkpt lat="44.2624239" lon="11.4204972"><ele>610.0</ele><time>2026-04-12T10:35:45.974Z</time></trkpt><trkpt lat="44.2624691" lon="11.4206685"><ele>611.0</ele><time>2026-04-12T10:35:46.973Z</time></trkpt><trkpt lat="44.2625199" lon="11.4208326"><ele>612.0</ele><time>2026-04-12T10:35:47.974Z</time></trkpt><trkpt lat="44.2625666" lon="11.4209949"><ele>613.0</ele><time>2026-04-12T10:35:48.974Z</time></trkpt><trkpt lat="44.2625942" lon="11.4211509"><ele>613.0</ele><time>2026-04-12T10:35:49.973Z</time></trkpt><trkpt lat="44.2625973" lon="11.4213091"><ele>613.0</ele><time>2026-04-12T10:35:50.974Z</time></trkpt><trkpt lat="44.2625761" lon="11.4214675"><ele>613.0</ele><time>2026-04-12T10:35:51.973Z</time></trkpt><trkpt lat="44.2625494" lon="11.4216281"><ele>613.0</ele><time>2026-04-12T10:35:52.973Z</time></trkpt><trkpt lat="44.2625465" lon="11.4217945"><ele>614.0</ele><time>2026-04-12T10:35:53.974Z</time></trkpt><trkpt lat="44.2625633" lon="11.4219528"><ele>615.0</ele><time>2026-04-12T10:35:54.973Z</time></trkpt><trkpt lat="44.2626048" lon="11.4220953"><ele>616.0</ele><time>2026-04-12T10:35:55.974Z</time></trkpt><trkpt lat="44.2626789" lon="11.4222104"><ele>617.0</ele><time>2026-04-12T10:35:56.974Z</time></trkpt><trkpt lat="44.262778" lon="11.4222988"><ele>616.75</ele><time>2026-04-12T10:35:57.974Z</time></trkpt><trkpt lat="44.2628916" lon="11.4223753"><ele>616.5</ele><time>2026-04-12T10:35:58.974Z</time></trkpt><trkpt lat="44.2630041" lon="11.4224584"><ele>616.25</ele><time>2026-04-12T10:35:59.974Z</time></trkpt><trkpt lat="44.2631122" lon="11.4225564"><ele>616.0</ele><time>2026-04-12T10:36:00.975Z</time></trkpt><trkpt lat="44.2632119" lon="11.4226755"><ele>616.0</ele><time>2026-04-12T10:36:01.974Z</time></trkpt><trkpt lat="44.2632977" lon="11.4228144"><ele>616.0</ele><time>2026-04-12T10:36:02.975Z</time></trkpt><trkpt lat="44.2633737" lon="11.4229589"><ele>616.0</ele><time>2026-04-12T10:36:03.974Z</time></trkpt><trkpt lat="44.2634477" lon="11.4231003"><ele>616.0</ele><time>2026-04-12T10:36:04.973Z</time></trkpt><trkpt lat="44.2635305" lon="11.4232235"><ele>618.0</ele><time>2026-04-12T10:36:05.974Z</time></trkpt><trkpt lat="44.2636277" lon="11.4233214"><ele>620.0</ele><time>2026-04-12T10:36:06.973Z</time></trkpt><trkpt lat="44.2637306" lon="11.4234049"><ele>622.0</ele><time>2026-04-12T10:36:07.973Z</time></trkpt><trkpt lat="44.2638334" lon="11.4234785"><ele>624.0</ele><time>2026-04-12T10:36:08.974Z</time></trkpt><trkpt lat="44.2639355" lon="11.4235418"><ele>623.8333333333334</ele><time>2026-04-12T10:36:09.972Z</time></trkpt><trkpt lat="44.2640287" lon="11.4235961"><ele>623.6666666666666</ele><time>2026-04-12T10:36:10.973Z</time></trkpt><trkpt lat="44.2641045" lon="11.4236434"><ele>623.5</ele><time>2026-04-12T10:36:11.973Z</time></trkpt><trkpt lat="44.2641593" lon="11.423688"><ele>623.3333333333333</ele><time>2026-04-12T10:36:12.973Z</time></trkpt><trkpt lat="44.2642016" lon="11.4237823"><ele>623.1666666666666</ele><time>2026-04-12T10:36:14.973Z</time></trkpt><trkpt lat="44.2641901" lon="11.423872"><ele>623.0</ele><time>2026-04-12T10:36:17.973Z</time></trkpt><trkpt lat="44.2642633" lon="11.4238745"><ele>623.0</ele><time>2026-04-12T10:36:21.974Z</time></trkpt><trkpt lat="44.264327" lon="11.4238113"><ele>623.0</ele><time>2026-04-12T10:36:24.974Z</time></trkpt><trkpt lat="44.2643087" lon="11.4237181"><ele>623.0</ele><time>2026-04-12T10:36:28.974Z</time></trkpt><trkpt lat="44.2642108" lon="11.4238061"><ele>623.0</ele><time>2026-04-12T10:47:57.976Z</time></trkpt><trkpt lat="44.2641553" lon="11.4238531"><ele>623.0</ele><time>2026-04-12T10:47:58.974Z</time></trkpt><trkpt lat="44.2640834" lon="11.4238847"><ele>623.0</ele><time>2026-04-12T10:47:59.975Z</time></trkpt><trkpt lat="44.2639996" lon="11.4238996"><ele>624.0</ele><time>2026-04-12T10:48:00.975Z</time></trkpt><trkpt lat="44.2639197" lon="11.4239077"><ele>625.0</ele><time>2026-04-12T10:48:01.974Z</time></trkpt><trkpt lat="44.2638357" lon="11.423914"><ele>626.0</ele><time>2026-04-12T10:48:02.974Z</time></trkpt><trkpt lat="44.263748" lon="11.4239218"><ele>627.0</ele><time>2026-04-12T10:48:03.973Z</time></trkpt><trkpt lat="44.2636601" lon="11.4239309"><ele>628.0</ele><time>2026-04-12T10:48:04.974Z</time></trkpt><trkpt lat="44.2635734" lon="11.4239522"><ele>629.0</ele><time>2026-04-12T10:48:05.973Z</time></trkpt><trkpt lat="44.2634839" lon="11.423976"><ele>629.0</ele><time>2026-04-12T10:48:06.973Z</time></trkpt><trkpt lat="44.2633879" lon="11.4240009"><ele>629.0</ele><time>2026-04-12T10:48:07.976Z</time></trkpt><trkpt lat="44.2632926" lon="11.4240243"><ele>629.0</ele><time>2026-04-12T10:48:08.974Z</time></trkpt><trkpt lat="44.2632007" lon="11.4240451"><ele>629.0</ele><time>2026-04-12T10:48:09.974Z</time></trkpt><trkpt lat="44.2631098" lon="11.4240698"><ele>629.0</ele><time>2026-04-12T10:48:10.974Z</time></trkpt><trkpt lat="44.2630186" lon="11.4240995"><ele>630.2</ele><time>2026-04-12T10:48:11.975Z</time></trkpt><trkpt lat="44.2629277" lon="11.4241289"><ele>631.4</ele><time>2026-04-12T10:48:12.973Z</time></trkpt><trkpt lat="44.2628362" lon="11.4241588"><ele>632.6</ele><time>2026-04-12T10:48:13.974Z</time></trkpt><trkpt lat="44.2627488" lon="11.4241847"><ele>633.8</ele><time>2026-04-12T10:48:14.975Z</time></trkpt><trkpt lat="44.2626595" lon="11.4242071"><ele>635.0</ele><time>2026-04-12T10:48:15.974Z</time></trkpt><trkpt lat="44.2625698" lon="11.4242242"><ele>635.0</ele><time>2026-04-12T10:48:16.974Z</time></trkpt><trkpt lat="44.2624837" lon="11.4242253"><ele>635.0</ele><time>2026-04-12T10:48:17.977Z</time></trkpt><trkpt lat="44.2624057" lon="11.4242058"><ele>635.0</ele><time>2026-04-12T10:48:18.973Z</time></trkpt><trkpt lat="44.2623334" lon="11.4241751"><ele>635.0</ele><time>2026-04-12T10:48:19.975Z</time></trkpt><trkpt lat="44.2622656" lon="11.4241317"><ele>635.0</ele><time>2026-04-12T10:48:20.975Z</time></trkpt><trkpt lat="44.2622031" lon="11.4240751"><ele>635.0</ele><time>2026-04-12T10:48:21.975Z</time></trkpt><trkpt lat="44.2621429" lon="11.4240136"><ele>635.9999999999999</ele><time>2026-04-12T10:48:22.974Z</time></trkpt><trkpt lat="44.2620853" lon="11.423953"><ele>637.0</ele><time>2026-04-12T10:48:23.974Z</time></trkpt><trkpt lat="44.2620274" lon="11.4238963"><ele>638.0</ele><time>2026-04-12T10:48:24.973Z</time></trkpt><trkpt lat="44.2619671" lon="11.4238421"><ele>639.0</ele><time>2026-04-12T10:48:25.974Z</time></trkpt><trkpt lat="44.2619077" lon="11.4237898"><ele>640.0</ele><time>2026-04-12T10:48:26.975Z</time></trkpt><trkpt lat="44.2618497" lon="11.4237357"><ele>640.9999999999999</ele><time>2026-04-12T10:48:27.974Z</time></trkpt><trkpt lat="44.2617861" lon="11.4236837"><ele>642.0</ele><time>2026-04-12T10:48:28.974Z</time></trkpt><trkpt lat="44.2617236" lon="11.423631"><ele>642.1428571428571</ele><time>2026-04-12T10:48:29.974Z</time></trkpt><trkpt lat="44.2616608" lon="11.423574"><ele>642.2857142857142</ele><time>2026-04-12T10:48:30.974Z</time></trkpt><trkpt lat="44.2616032" lon="11.4235125"><ele>642.4285714285713</ele><time>2026-04-12T10:48:31.975Z</time></trkpt><trkpt lat="44.261544" lon="11.4234546"><ele>642.5714285714286</ele><time>2026-04-12T10:48:32.977Z</time></trkpt><trkpt lat="44.2614795" lon="11.4234015"><ele>642.7142857142858</ele><time>2026-04-12T10:48:33.974Z</time></trkpt><trkpt lat="44.2614158" lon="11.4233502"><ele>642.8571428571428</ele><time>2026-04-12T10:48:34.974Z</time></trkpt><trkpt lat="44.2613519" lon="11.4232993"><ele>643.0</ele><time>2026-04-12T10:48:35.973Z</time></trkpt><trkpt lat="44.2612874" lon="11.4232434"><ele>644.6666666666667</ele><time>2026-04-12T10:48:36.974Z</time></trkpt><trkpt lat="44.2612222" lon="11.423185"><ele>646.3333333333334</ele><time>2026-04-12T10:48:37.974Z</time></trkpt><trkpt lat="44.2611553" lon="11.4231252"><ele>648.0</ele><time>2026-04-12T10:48:38.975Z</time></trkpt><trkpt lat="44.2610881" lon="11.4230649"><ele>649.6666666666666</ele><time>2026-04-12T10:48:39.973Z</time></trkpt><trkpt lat="44.2610313" lon="11.423006"><ele>651.3333333333333</ele><time>2026-04-12T10:48:40.972Z</time></trkpt><trkpt lat="44.2609621" lon="11.4229507"><ele>653.0</ele><time>2026-04-12T10:48:41.974Z</time></trkpt><trkpt lat="44.2608892" lon="11.4228976"><ele>653.0</ele><time>2026-04-12T10:48:42.973Z</time></trkpt><trkpt lat="44.2608201" lon="11.4228488"><ele>653.0</ele><time>2026-04-12T10:48:43.974Z</time></trkpt><trkpt lat="44.2607455" lon="11.4228161"><ele>653.0</ele><time>2026-04-12T10:48:44.975Z</time></trkpt><trkpt lat="44.2606638" lon="11.4228046"><ele>653.0</ele><time>2026-04-12T10:48:45.975Z</time></trkpt><trkpt lat="44.2605795" lon="11.4228057"><ele>653.0</ele><time>2026-04-12T10:48:46.975Z</time></trkpt><trkpt lat="44.2604971" lon="11.422808"><ele>653.0</ele><time>2026-04-12T10:48:47.975Z</time></trkpt><trkpt lat="44.2604165" lon="11.4228096"><ele>654.1666666666666</ele><time>2026-04-12T10:48:48.974Z</time></trkpt><trkpt lat="44.2603399" lon="11.4228081"><ele>655.3333333333333</ele><time>2026-04-12T10:48:49.976Z</time></trkpt><trkpt lat="44.2602649" lon="11.422808"><ele>656.5</ele><time>2026-04-12T10:48:50.974Z</time></trkpt><trkpt lat="44.2601861" lon="11.4228084"><ele>657.6666666666666</ele><time>2026-04-12T10:48:51.974Z</time></trkpt><trkpt lat="44.2601085" lon="11.4228097"><ele>658.8333333333334</ele><time>2026-04-12T10:48:52.975Z</time></trkpt><trkpt lat="44.2600307" lon="11.4228128"><ele>660.0</ele><time>2026-04-12T10:48:53.974Z</time></trkpt><trkpt lat="44.2599542" lon="11.4228157"><ele>660.0</ele><time>2026-04-12T10:48:54.974Z</time></trkpt><trkpt lat="44.259878" lon="11.4228167"><ele>660.0</ele><time>2026-04-12T10:48:55.974Z</time></trkpt><trkpt lat="44.2598041" lon="11.4228167"><ele>660.0</ele><time>2026-04-12T10:48:56.973Z</time></trkpt><trkpt lat="44.2597293" lon="11.4228214"><ele>660.0</ele><time>2026-04-12T10:48:57.975Z</time></trkpt><trkpt lat="44.2596515" lon="11.4228226"><ele>660.0</ele><time>2026-04-12T10:48:58.973Z</time></trkpt><trkpt lat="44.259572" lon="11.4228219"><ele>660.0</ele><time>2026-04-12T10:48:59.976Z</time></trkpt><trkpt lat="44.2594929" lon="11.4228197"><ele>661.3333333333334</ele><time>2026-04-12T10:49:00.976Z</time></trkpt><trkpt lat="44.2594096" lon="11.4228209"><ele>662.6666666666666</ele><time>2026-04-12T10:49:01.973Z</time></trkpt><trkpt lat="44.259329" lon="11.422818"><ele>664.0</ele><time>2026-04-12T10:49:02.973Z</time></trkpt><trkpt lat="44.259243" lon="11.4228236"><ele>665.3333333333333</ele><time>2026-04-12T10:49:03.974Z</time></trkpt><trkpt lat="44.2591563" lon="11.4228274"><ele>666.6666666666666</ele><time>2026-04-12T10:49:04.974Z</time></trkpt><trkpt lat="44.2590653" lon="11.4228245"><ele>668.0</ele><time>2026-04-12T10:49:05.975Z</time></trkpt><trkpt lat="44.2589735" lon="11.4228252"><ele>669.1666666666666</ele><time>2026-04-12T10:49:06.975Z</time></trkpt><trkpt lat="44.2588838" lon="11.4228276"><ele>670.3333333333333</ele><time>2026-04-12T10:49:07.975Z</time></trkpt><trkpt lat="44.2587927" lon="11.422829"><ele>671.5</ele><time>2026-04-12T10:49:08.975Z</time></trkpt><trkpt lat="44.2586973" lon="11.4228309"><ele>672.6666666666666</ele><time>2026-04-12T10:49:09.973Z</time></trkpt><trkpt lat="44.2586079" lon="11.4228354"><ele>673.8333333333334</ele><time>2026-04-12T10:49:10.974Z</time></trkpt><trkpt lat="44.2585246" lon="11.4228399"><ele>675.0</ele><time>2026-04-12T10:49:11.974Z</time></trkpt><trkpt lat="44.2584403" lon="11.4228382"><ele>675.0</ele><time>2026-04-12T10:49:12.974Z</time></trkpt><trkpt lat="44.2583572" lon="11.4228304"><ele>675.0</ele><time>2026-04-12T10:49:13.974Z</time></trkpt><trkpt lat="44.258273" lon="11.4228275"><ele>675.0</ele><time>2026-04-12T10:49:14.974Z</time></trkpt><trkpt lat="44.2581908" lon="11.422831"><ele>675.0</ele><time>2026-04-12T10:49:15.975Z</time></trkpt><trkpt lat="44.2581091" lon="11.4228378"><ele>675.0</ele><time>2026-04-12T10:49:16.973Z</time></trkpt><trkpt lat="44.2580286" lon="11.4228427"><ele>675.0</ele><time>2026-04-12T10:49:17.975Z</time></trkpt><trkpt lat="44.2579522" lon="11.4228411"><ele>676.0</ele><time>2026-04-12T10:49:18.973Z</time></trkpt><trkpt lat="44.2578777" lon="11.4228404"><ele>677.0</ele><time>2026-04-12T10:49:19.975Z</time></trkpt><trkpt lat="44.2578016" lon="11.4228412"><ele>678.0</ele><time>2026-04-12T10:49:20.974Z</time></trkpt><trkpt lat="44.2577206" lon="11.422844"><ele>679.0</ele><time>2026-04-12T10:49:21.974Z</time></trkpt><trkpt lat="44.2576443" lon="11.4228442"><ele>680.0</ele><time>2026-04-12T10:49:22.974Z</time></trkpt><trkpt lat="44.2575679" lon="11.4228396"><ele>681.0</ele><time>2026-04-12T10:49:23.973Z</time></trkpt><trkpt lat="44.2574924" lon="11.4228327"><ele>681.0</ele><time>2026-04-12T10:49:24.973Z</time></trkpt><trkpt lat="44.2574189" lon="11.422819"><ele>681.0</ele><time>2026-04-12T10:49:25.973Z</time></trkpt><trkpt lat="44.257351" lon="11.4227983"><ele>681.0</ele><time>2026-04-12T10:49:26.974Z</time></trkpt><trkpt lat="44.2572762" lon="11.4227747"><ele>681.0</ele><time>2026-04-12T10:49:27.974Z</time></trkpt><trkpt lat="44.2572017" lon="11.422744"><ele>681.0</ele><time>2026-04-12T10:49:28.974Z</time></trkpt><trkpt lat="44.2571221" lon="11.4227154"><ele>681.0</ele><time>2026-04-12T10:49:29.974Z</time></trkpt><trkpt lat="44.2570387" lon="11.4226889"><ele>681.1666666666666</ele><time>2026-04-12T10:49:30.973Z</time></trkpt><trkpt lat="44.2569591" lon="11.4226641"><ele>681.3333333333334</ele><time>2026-04-12T10:49:31.973Z</time></trkpt><trkpt lat="44.2568823" lon="11.4226414"><ele>681.5</ele><time>2026-04-12T10:49:32.974Z</time></trkpt><trkpt lat="44.2568055" lon="11.4226203"><ele>681.6666666666667</ele><time>2026-04-12T10:49:33.973Z</time></trkpt><trkpt lat="44.2567337" lon="11.4226028"><ele>681.8333333333334</ele><time>2026-04-12T10:49:34.974Z</time></trkpt><trkpt lat="44.2566616" lon="11.4225947"><ele>682.0</ele><time>2026-04-12T10:49:35.974Z</time></trkpt><trkpt lat="44.2565798" lon="11.422601"><ele>682.0</ele><time>2026-04-12T10:49:36.974Z</time></trkpt><trkpt lat="44.2564937" lon="11.4226264"><ele>682.0</ele><time>2026-04-12T10:49:37.973Z</time></trkpt><trkpt lat="44.2564181" lon="11.4226715"><ele>682.0</ele><time>2026-04-12T10:49:38.974Z</time></trkpt><trkpt lat="44.2563483" lon="11.4227306"><ele>682.0</ele><time>2026-04-12T10:49:39.973Z</time></trkpt><trkpt lat="44.2562818" lon="11.4228044"><ele>682.0</ele><time>2026-04-12T10:49:40.974Z</time></trkpt><trkpt lat="44.2562236" lon="11.4228842"><ele>682.0</ele><time>2026-04-12T10:49:41.976Z</time></trkpt><trkpt lat="44.2561656" lon="11.4229562"><ele>682.6666666666667</ele><time>2026-04-12T10:49:42.974Z</time></trkpt><trkpt lat="44.256114" lon="11.4230302"><ele>683.3333333333334</ele><time>2026-04-12T10:49:43.974Z</time></trkpt><trkpt lat="44.2560557" lon="11.4231065"><ele>684.0</ele><time>2026-04-12T10:49:44.973Z</time></trkpt><trkpt lat="44.2559926" lon="11.4231783"><ele>684.6666666666666</ele><time>2026-04-12T10:49:45.974Z</time></trkpt><trkpt lat="44.2559263" lon="11.4232469"><ele>685.3333333333333</ele><time>2026-04-12T10:49:46.974Z</time></trkpt><trkpt lat="44.2558583" lon="11.4233074"><ele>686.0</ele><time>2026-04-12T10:49:47.973Z</time></trkpt><trkpt lat="44.2557862" lon="11.4233493"><ele>686.0</ele><time>2026-04-12T10:49:48.974Z</time></trkpt><trkpt lat="44.2557118" lon="11.4233673"><ele>686.0</ele><time>2026-04-12T10:49:49.973Z</time></trkpt><trkpt lat="44.2556412" lon="11.4233771"><ele>686.0</ele><time>2026-04-12T10:49:50.974Z</time></trkpt><trkpt lat="44.2555704" lon="11.4233748"><ele>686.0</ele><time>2026-04-12T10:49:51.974Z</time></trkpt><trkpt lat="44.2554986" lon="11.4233618"><ele>686.0</ele><time>2026-04-12T10:49:52.975Z</time></trkpt><trkpt lat="44.2554262" lon="11.4233476"><ele>686.0</ele><time>2026-04-12T10:49:53.973Z</time></trkpt><trkpt lat="44.2553531" lon="11.423338"><ele>686.0</ele><time>2026-04-12T10:49:54.973Z</time></trkpt><trkpt lat="44.2552876" lon="11.4233322"><ele>686.4285714285714</ele><time>2026-04-12T10:49:55.973Z</time></trkpt><trkpt lat="44.2552201" lon="11.4233379"><ele>686.8571428571429</ele><time>2026-04-12T10:49:56.975Z</time></trkpt><trkpt lat="44.255153" lon="11.4233622"><ele>687.2857142857142</ele><time>2026-04-12T10:49:57.974Z</time></trkpt><trkpt lat="44.2550913" lon="11.4234033"><ele>687.7142857142858</ele><time>2026-04-12T10:49:58.975Z</time></trkpt><trkpt lat="44.2550263" lon="11.4234669"><ele>688.1428571428571</ele><time>2026-04-12T10:49:59.974Z</time></trkpt><trkpt lat="44.2549693" lon="11.4235354"><ele>688.5714285714286</ele><time>2026-04-12T10:50:00.975Z</time></trkpt><trkpt lat="44.2549151" lon="11.4236121"><ele>689.0</ele><time>2026-04-12T10:50:01.973Z</time></trkpt><trkpt lat="44.2548607" lon="11.4236854"><ele>689.0</ele><time>2026-04-12T10:50:02.974Z</time></trkpt><trkpt lat="44.2548056" lon="11.4237528"><ele>689.0</ele><time>2026-04-12T10:50:03.973Z</time></trkpt><trkpt lat="44.2547523" lon="11.4238185"><ele>689.0</ele><time>2026-04-12T10:50:04.973Z</time></trkpt><trkpt lat="44.2547001" lon="11.42388"><ele>689.0</ele><time>2026-04-12T10:50:05.973Z</time></trkpt><trkpt lat="44.2546481" lon="11.4239406"><ele>689.0</ele><time>2026-04-12T10:50:06.973Z</time></trkpt><trkpt lat="44.2545954" lon="11.4240017"><ele>689.0</ele><time>2026-04-12T10:50:07.974Z</time></trkpt><trkpt lat="44.2545415" lon="11.4240677"><ele>689.0</ele><time>2026-04-12T10:50:08.974Z</time></trkpt><trkpt lat="44.2544926" lon="11.4241357"><ele>690.6666666666666</ele><time>2026-04-12T10:50:09.975Z</time></trkpt><trkpt lat="44.2544457" lon="11.4242031"><ele>692.3333333333333</ele><time>2026-04-12T10:50:10.976Z</time></trkpt><trkpt lat="44.2543844" lon="11.424279"><ele>694.0</ele><time>2026-04-12T10:50:11.975Z</time></trkpt><trkpt lat="44.2543211" lon="11.4243576"><ele>695.6666666666666</ele><time>2026-04-12T10:50:12.974Z</time></trkpt><trkpt lat="44.2542535" lon="11.4244385"><ele>697.3333333333334</ele><time>2026-04-12T10:50:13.974Z</time></trkpt><trkpt lat="44.2541872" lon="11.4245177"><ele>699.0</ele><time>2026-04-12T10:50:14.974Z</time></trkpt><trkpt lat="44.2541257" lon="11.4245906"><ele>700.2857142857142</ele><time>2026-04-12T10:50:15.974Z</time></trkpt><trkpt lat="44.2540616" lon="11.4246529"><ele>701.5714285714287</ele><time>2026-04-12T10:50:16.974Z</time></trkpt><trkpt lat="44.2540006" lon="11.4247191"><ele>702.8571428571429</ele><time>2026-04-12T10:50:17.974Z</time></trkpt><trkpt lat="44.2539452" lon="11.4247849"><ele>704.1428571428571</ele><time>2026-04-12T10:50:18.974Z</time></trkpt><trkpt lat="44.2538909" lon="11.4248458"><ele>705.4285714285713</ele><time>2026-04-12T10:50:19.975Z</time></trkpt><trkpt lat="44.2538355" lon="11.4249059"><ele>706.7142857142858</ele><time>2026-04-12T10:50:20.975Z</time></trkpt><trkpt lat="44.2537789" lon="11.4249647"><ele>708.0</ele><time>2026-04-12T10:50:21.974Z</time></trkpt><trkpt lat="44.2537225" lon="11.4250203"><ele>708.0</ele><time>2026-04-12T10:50:22.973Z</time></trkpt><trkpt lat="44.2536667" lon="11.4250762"><ele>708.0</ele><time>2026-04-12T10:50:23.975Z</time></trkpt><trkpt lat="44.2536117" lon="11.4251234"><ele>708.0</ele><time>2026-04-12T10:50:24.974Z</time></trkpt><trkpt lat="44.2535543" lon="11.4251645"><ele>708.0</ele><time>2026-04-12T10:50:25.975Z</time></trkpt><trkpt lat="44.253447" lon="11.4252395"><ele>708.0</ele><time>2026-04-12T10:50:27.974Z</time></trkpt><trkpt lat="44.2533316" lon="11.4252991"><ele>708.0</ele><time>2026-04-12T10:50:29.974Z</time></trkpt><trkpt lat="44.2532639" lon="11.4253222"><ele>708.0</ele><time>2026-04-12T10:50:30.975Z</time></trkpt><trkpt lat="44.2531897" lon="11.4253504"><ele>708.0</ele><time>2026-04-12T10:50:31.974Z</time></trkpt><trkpt lat="44.2531128" lon="11.4253808"><ele>708.0</ele><time>2026-04-12T10:50:32.973Z</time></trkpt><trkpt lat="44.2530314" lon="11.4254136"><ele>708.0</ele><time>2026-04-12T10:50:33.975Z</time></trkpt><trkpt lat="44.2529482" lon="11.4254484"><ele>708.0</ele><time>2026-04-12T10:50:34.975Z</time></trkpt><trkpt lat="44.2528632" lon="11.4254831"><ele>708.0</ele><time>2026-04-12T10:50:35.974Z</time></trkpt><trkpt lat="44.2527797" lon="11.4255206"><ele>710.3333333333334</ele><time>2026-04-12T10:50:36.973Z</time></trkpt><trkpt lat="44.2526993" lon="11.4255582"><ele>712.6666666666666</ele><time>2026-04-12T10:50:37.975Z</time></trkpt><trkpt lat="44.2526192" lon="11.4255927"><ele>715.0</ele><time>2026-04-12T10:50:38.975Z</time></trkpt><trkpt lat="44.2525421" lon="11.4256214"><ele>717.3333333333333</ele><time>2026-04-12T10:50:39.974Z</time></trkpt><trkpt lat="44.2524664" lon="11.4256496"><ele>719.6666666666666</ele><time>2026-04-12T10:50:40.973Z</time></trkpt><trkpt lat="44.2523915" lon="11.4256762"><ele>722.0</ele><time>2026-04-12T10:50:41.974Z</time></trkpt><trkpt lat="44.2523176" lon="11.4257004"><ele>722.0</ele><time>2026-04-12T10:50:42.973Z</time></trkpt><trkpt lat="44.2522425" lon="11.425723"><ele>722.0</ele><time>2026-04-12T10:50:43.974Z</time></trkpt><trkpt lat="44.2521682" lon="11.4257495"><ele>722.0</ele><time>2026-04-12T10:50:44.975Z</time></trkpt><trkpt lat="44.2520915" lon="11.4257888"><ele>722.0</ele><time>2026-04-12T10:50:45.974Z</time></trkpt><trkpt lat="44.2520136" lon="11.4258404"><ele>722.0</ele><time>2026-04-12T10:50:46.974Z</time></trkpt><trkpt lat="44.2519377" lon="11.425899"><ele>722.0</ele><time>2026-04-12T10:50:47.975Z</time></trkpt><trkpt lat="44.2518612" lon="11.4259629"><ele>722.0</ele><time>2026-04-12T10:50:48.975Z</time></trkpt><trkpt lat="44.25179" lon="11.4260246"><ele>722.0</ele><time>2026-04-12T10:50:49.973Z</time></trkpt><trkpt lat="44.2517195" lon="11.4260937"><ele>722.0</ele><time>2026-04-12T10:50:50.976Z</time></trkpt><trkpt lat="44.2516497" lon="11.4261628"><ele>722.0</ele><time>2026-04-12T10:50:51.975Z</time></trkpt><trkpt lat="44.2515784" lon="11.4262344"><ele>722.0</ele><time>2026-04-12T10:50:52.974Z</time></trkpt><trkpt lat="44.251512" lon="11.426306"><ele>722.0</ele><time>2026-04-12T10:50:53.977Z</time></trkpt><trkpt lat="44.2514534" lon="11.4263714"><ele>723.1428571428572</ele><time>2026-04-12T10:50:54.975Z</time></trkpt><trkpt lat="44.2513983" lon="11.4264387"><ele>724.2857142857142</ele><time>2026-04-12T10:50:55.974Z</time></trkpt><trkpt lat="44.2513465" lon="11.4265034"><ele>725.4285714285714</ele><time>2026-04-12T10:50:56.975Z</time></trkpt><trkpt lat="44.2512938" lon="11.4265665"><ele>726.5714285714287</ele><time>2026-04-12T10:50:57.975Z</time></trkpt><trkpt lat="44.2512392" lon="11.4266228"><ele>727.7142857142858</ele><time>2026-04-12T10:50:58.974Z</time></trkpt><trkpt lat="44.2511836" lon="11.4266745"><ele>728.8571428571429</ele><time>2026-04-12T10:50:59.974Z</time></trkpt><trkpt lat="44.2511291" lon="11.4267306"><ele>730.0</ele><time>2026-04-12T10:51:00.973Z</time></trkpt><trkpt lat="44.2510746" lon="11.4267922"><ele>730.0000000000001</ele><time>2026-04-12T10:51:01.973Z</time></trkpt><trkpt lat="44.2510219" lon="11.4268549"><ele>730.0</ele><time>2026-04-12T10:51:02.975Z</time></trkpt><trkpt lat="44.2509676" lon="11.4269202"><ele>730.0</ele><time>2026-04-12T10:51:03.973Z</time></trkpt><trkpt lat="44.2509124" lon="11.4269924"><ele>730.0</ele><time>2026-04-12T10:51:04.974Z</time></trkpt><trkpt lat="44.2508586" lon="11.4270669"><ele>730.0</ele><time>2026-04-12T10:51:05.973Z</time></trkpt><trkpt lat="44.2508083" lon="11.4271465"><ele>730.0000000000001</ele><time>2026-04-12T10:51:06.973Z</time></trkpt><trkpt lat="44.2507617" lon="11.4272355"><ele>730.0</ele><time>2026-04-12T10:51:07.973Z</time></trkpt><trkpt lat="44.250721" lon="11.4273337"><ele>730.1666666666667</ele><time>2026-04-12T10:51:08.974Z</time></trkpt><trkpt lat="44.2506888" lon="11.4274371"><ele>730.3333333333334</ele><time>2026-04-12T10:51:09.974Z</time></trkpt><trkpt lat="44.2506595" lon="11.42754"><ele>730.5</ele><time>2026-04-12T10:51:10.975Z</time></trkpt><trkpt lat="44.2506382" lon="11.4276294"><ele>730.6666666666666</ele><time>2026-04-12T10:51:11.975Z</time></trkpt><trkpt lat="44.2505928" lon="11.4277342"><ele>730.8333333333333</ele><time>2026-04-12T10:51:13.974Z</time></trkpt><trkpt lat="44.2505043" lon="11.4277456"><ele>731.0</ele><time>2026-04-12T10:51:31.974Z</time></trkpt><trkpt lat="44.2504058" lon="11.4277241"><ele>732.5</ele><time>2026-04-12T10:51:33.975Z</time></trkpt><trkpt lat="44.2502703" lon="11.427721"><ele>734.0</ele><time>2026-04-12T10:51:35.973Z</time></trkpt><trkpt lat="44.2501987" lon="11.4277235"><ele>735.5</ele><time>2026-04-12T10:51:36.973Z</time></trkpt><trkpt lat="44.2501328" lon="11.4277268"><ele>737.0</ele><time>2026-04-12T10:51:37.973Z</time></trkpt><trkpt lat="44.2500641" lon="11.4277299"><ele>738.5</ele><time>2026-04-12T10:51:38.974Z</time></trkpt><trkpt lat="44.2499922" lon="11.4277301"><ele>740.0</ele><time>2026-04-12T10:51:39.973Z</time></trkpt><trkpt lat="44.2499187" lon="11.4277287"><ele>740.0</ele><time>2026-04-12T10:51:40.974Z</time></trkpt><trkpt lat="44.2498424" lon="11.4277277"><ele>740.0</ele><time>2026-04-12T10:51:41.974Z</time></trkpt><trkpt lat="44.2497675" lon="11.4277302"><ele>740.0</ele><time>2026-04-12T10:51:42.974Z</time></trkpt><trkpt lat="44.2496968" lon="11.42774"><ele>740.0</ele><time>2026-04-12T10:51:43.974Z</time></trkpt><trkpt lat="44.2496269" lon="11.4277544"><ele>740.0</ele><time>2026-04-12T10:51:44.973Z</time></trkpt><trkpt lat="44.2495537" lon="11.4277744"><ele>740.0</ele><time>2026-04-12T10:51:45.975Z</time></trkpt><trkpt lat="44.2494719" lon="11.4277996"><ele>740.1666666666666</ele><time>2026-04-12T10:51:46.976Z</time></trkpt><trkpt lat="44.2493937" lon="11.4278176"><ele>740.3333333333333</ele><time>2026-04-12T10:51:47.974Z</time></trkpt><trkpt lat="44.2493157" lon="11.427827"><ele>740.5</ele><time>2026-04-12T10:51:48.975Z</time></trkpt><trkpt lat="44.2492319" lon="11.4278335"><ele>740.6666666666666</ele><time>2026-04-12T10:51:49.976Z</time></trkpt><trkpt lat="44.2491475" lon="11.4278346"><ele>740.8333333333334</ele><time>2026-04-12T10:51:50.976Z</time></trkpt><trkpt lat="44.2490615" lon="11.427837"><ele>741.0</ele><time>2026-04-12T10:51:51.975Z</time></trkpt><trkpt lat="44.2489793" lon="11.4278474"><ele>739.8571428571428</ele><time>2026-04-12T10:51:52.974Z</time></trkpt><trkpt lat="44.2489053" lon="11.4278685"><ele>738.7142857142858</ele><time>2026-04-12T10:51:53.975Z</time></trkpt><trkpt lat="44.2488375" lon="11.4278925"><ele>737.5714285714286</ele><time>2026-04-12T10:51:54.975Z</time></trkpt><trkpt lat="44.2487742" lon="11.4279125"><ele>736.4285714285713</ele><time>2026-04-12T10:51:55.975Z</time></trkpt><trkpt lat="44.248711" lon="11.4279263"><ele>735.2857142857142</ele><time>2026-04-12T10:51:56.975Z</time></trkpt><trkpt lat="44.2486436" lon="11.4279349"><ele>734.1428571428571</ele><time>2026-04-12T10:51:57.974Z</time></trkpt><trkpt lat="44.2485756" lon="11.4279376"><ele>733.0</ele><time>2026-04-12T10:51:58.975Z</time></trkpt><trkpt lat="44.2485089" lon="11.4279341"><ele>732.9999999999999</ele><time>2026-04-12T10:51:59.974Z</time></trkpt><trkpt lat="44.2484424" lon="11.4279197"><ele>733.0</ele><time>2026-04-12T10:52:00.976Z</time></trkpt><trkpt lat="44.2483723" lon="11.4278918"><ele>733.0</ele><time>2026-04-12T10:52:01.975Z</time></trkpt><trkpt lat="44.2483064" lon="11.4278473"><ele>733.0</ele><time>2026-04-12T10:52:02.974Z</time></trkpt><trkpt lat="44.2482446" lon="11.427792"><ele>733.0</ele><time>2026-04-12T10:52:03.974Z</time></trkpt><trkpt lat="44.2481896" lon="11.4277214"><ele>732.9999999999999</ele><time>2026-04-12T10:52:04.975Z</time></trkpt><trkpt lat="44.248143" lon="11.4276364"><ele>733.0</ele><time>2026-04-12T10:52:05.976Z</time></trkpt><trkpt lat="44.2481028" lon="11.4275351"><ele>733.3333333333334</ele><time>2026-04-12T10:52:06.974Z</time></trkpt><trkpt lat="44.2480664" lon="11.4274205"><ele>733.6666666666667</ele><time>2026-04-12T10:52:07.975Z</time></trkpt><trkpt lat="44.2480332" lon="11.4273012"><ele>734.0</ele><time>2026-04-12T10:52:08.974Z</time></trkpt><trkpt lat="44.2480027" lon="11.4271875"><ele>734.3333333333334</ele><time>2026-04-12T10:52:09.974Z</time></trkpt><trkpt lat="44.2479744" lon="11.4270799"><ele>734.6666666666666</ele><time>2026-04-12T10:52:10.973Z</time></trkpt><trkpt lat="44.2479436" lon="11.4269763"><ele>735.0</ele><time>2026-04-12T10:52:11.975Z</time></trkpt><trkpt lat="44.2479053" lon="11.4268878"><ele>735.0</ele><time>2026-04-12T10:52:12.976Z</time></trkpt><trkpt lat="44.2478604" lon="11.4268143"><ele>735.0</ele><time>2026-04-12T10:52:13.974Z</time></trkpt><trkpt lat="44.2477641" lon="11.4267149"><ele>735.0</ele><time>2026-04-12T10:52:15.974Z</time></trkpt><trkpt lat="44.2476579" lon="11.4266512"><ele>735.0</ele><time>2026-04-12T10:52:17.975Z</time></trkpt><trkpt lat="44.2475356" lon="11.4266097"><ele>735.0</ele><time>2026-04-12T10:52:19.973Z</time></trkpt><trkpt lat="44.2474696" lon="11.4265942"><ele>735.0</ele><time>2026-04-12T10:52:20.975Z</time></trkpt><trkpt lat="44.2474072" lon="11.4265793"><ele>735.0</ele><time>2026-04-12T10:52:21.974Z</time></trkpt><trkpt lat="44.2472827" lon="11.4265442"><ele>735.0</ele><time>2026-04-12T10:52:23.976Z</time></trkpt><trkpt lat="44.2472189" lon="11.4265192"><ele>735.0</ele><time>2026-04-12T10:52:24.976Z</time></trkpt><trkpt lat="44.2471539" lon="11.4264851"><ele>735.0</ele><time>2026-04-12T10:52:25.974Z</time></trkpt><trkpt lat="44.2470878" lon="11.4264454"><ele>735.0</ele><time>2026-04-12T10:52:26.976Z</time></trkpt><trkpt lat="44.2470197" lon="11.4264017"><ele>735.1666666666666</ele><time>2026-04-12T10:52:27.975Z</time></trkpt><trkpt lat="44.2469488" lon="11.4263552"><ele>735.3333333333334</ele><time>2026-04-12T10:52:28.976Z</time></trkpt><trkpt lat="44.2468752" lon="11.4263108"><ele>735.5</ele><time>2026-04-12T10:52:29.975Z</time></trkpt><trkpt lat="44.2467986" lon="11.4262694"><ele>735.6666666666667</ele><time>2026-04-12T10:52:30.973Z</time></trkpt><trkpt lat="44.2467167" lon="11.4262331"><ele>735.8333333333334</ele><time>2026-04-12T10:52:31.975Z</time></trkpt><trkpt lat="44.246638" lon="11.4261995"><ele>736.0</ele><time>2026-04-12T10:52:32.974Z</time></trkpt><trkpt lat="44.2465605" lon="11.4261723"><ele>736.0</ele><time>2026-04-12T10:52:33.974Z</time></trkpt><trkpt lat="44.246489" lon="11.4261494"><ele>736.0</ele><time>2026-04-12T10:52:34.974Z</time></trkpt><trkpt lat="44.246419" lon="11.4261274"><ele>736.0</ele><time>2026-04-12T10:52:35.975Z</time></trkpt><trkpt lat="44.2463458" lon="11.4261091"><ele>736.0</ele><time>2026-04-12T10:52:36.974Z</time></trkpt><trkpt lat="44.2462732" lon="11.4260964"><ele>736.0</ele><time>2026-04-12T10:52:37.973Z</time></trkpt><trkpt lat="44.2461989" lon="11.4260901"><ele>736.0</ele><time>2026-04-12T10:52:38.974Z</time></trkpt><trkpt lat="44.246126" lon="11.4260843"><ele>736.0</ele><time>2026-04-12T10:52:39.973Z</time></trkpt><trkpt lat="44.2460515" lon="11.4260771"><ele>736.5</ele><time>2026-04-12T10:52:40.975Z</time></trkpt><trkpt lat="44.2459763" lon="11.4260658"><ele>737.0</ele><time>2026-04-12T10:52:41.974Z</time></trkpt><trkpt lat="44.2458982" lon="11.4260569"><ele>737.5</ele><time>2026-04-12T10:52:42.973Z</time></trkpt><trkpt lat="44.2458174" lon="11.4260484"><ele>738.0</ele><time>2026-04-12T10:52:43.975Z</time></trkpt><trkpt lat="44.2457391" lon="11.4260392"><ele>738.5</ele><time>2026-04-12T10:52:44.975Z</time></trkpt><trkpt lat="44.2456599" lon="11.4260369"><ele>739.0</ele><time>2026-04-12T10:52:45.974Z</time></trkpt><trkpt lat="44.2455788" lon="11.4260419"><ele>739.1666666666667</ele><time>2026-04-12T10:52:46.975Z</time></trkpt><trkpt lat="44.2454962" lon="11.4260496"><ele>739.3333333333334</ele><time>2026-04-12T10:52:47.973Z</time></trkpt><trkpt lat="44.2454191" lon="11.4260563"><ele>739.5</ele><time>2026-04-12T10:52:48.975Z</time></trkpt><trkpt lat="44.2453455" lon="11.4260573"><ele>739.6666666666666</ele><time>2026-04-12T10:52:49.974Z</time></trkpt><trkpt lat="44.2452748" lon="11.4260514"><ele>739.8333333333333</ele><time>2026-04-12T10:52:50.975Z</time></trkpt><trkpt lat="44.2451992" lon="11.4260444"><ele>740.0</ele><time>2026-04-12T10:52:51.975Z</time></trkpt><trkpt lat="44.2451188" lon="11.4260389"><ele>740.0</ele><time>2026-04-12T10:52:52.974Z</time></trkpt><trkpt lat="44.2450298" lon="11.426039"><ele>740.0</ele><time>2026-04-12T10:52:53.974Z</time></trkpt><trkpt lat="44.2449357" lon="11.4260398"><ele>740.0</ele><time>2026-04-12T10:52:54.975Z</time></trkpt><trkpt lat="44.2448417" lon="11.426038"><ele>740.0</ele><time>2026-04-12T10:52:55.975Z</time></trkpt><trkpt lat="44.2447508" lon="11.4260323"><ele>740.0</ele><time>2026-04-12T10:52:56.975Z</time></trkpt><trkpt lat="44.2446639" lon="11.4260172"><ele>739.5</ele><time>2026-04-12T10:52:57.974Z</time></trkpt><trkpt lat="44.2445804" lon="11.425996"><ele>739.0</ele><time>2026-04-12T10:52:58.975Z</time></trkpt><trkpt lat="44.2445007" lon="11.425974"><ele>738.5</ele><time>2026-04-12T10:52:59.974Z</time></trkpt><trkpt lat="44.2444231" lon="11.4259527"><ele>738.0</ele><time>2026-04-12T10:53:00.973Z</time></trkpt><trkpt lat="44.2443433" lon="11.4259301"><ele>737.5</ele><time>2026-04-12T10:53:01.973Z</time></trkpt><trkpt lat="44.2442588" lon="11.4259034"><ele>737.0</ele><time>2026-04-12T10:53:02.974Z</time></trkpt><trkpt lat="44.2441741" lon="11.4258685"><ele>737.0</ele><time>2026-04-12T10:53:03.974Z</time></trkpt><trkpt lat="44.2440899" lon="11.4258315"><ele>737.0</ele><time>2026-04-12T10:53:04.974Z</time></trkpt><trkpt lat="44.2440027" lon="11.4257931"><ele>737.0</ele><time>2026-04-12T10:53:05.974Z</time></trkpt><trkpt lat="44.2439121" lon="11.4257547"><ele>737.0</ele><time>2026-04-12T10:53:06.973Z</time></trkpt><trkpt lat="44.2438214" lon="11.4257199"><ele>737.0</ele><time>2026-04-12T10:53:07.974Z</time></trkpt><trkpt lat="44.2437302" lon="11.4256932"><ele>736.5</ele><time>2026-04-12T10:53:08.976Z</time></trkpt><trkpt lat="44.2436429" lon="11.4256713"><ele>736.0</ele><time>2026-04-12T10:53:09.973Z</time></trkpt><trkpt lat="44.2435633" lon="11.4256561"><ele>735.5</ele><time>2026-04-12T10:53:10.973Z</time></trkpt><trkpt lat="44.2434894" lon="11.425641"><ele>735.0</ele><time>2026-04-12T10:53:11.973Z</time></trkpt><trkpt lat="44.2434155" lon="11.4256219"><ele>734.5</ele><time>2026-04-12T10:53:12.973Z</time></trkpt><trkpt lat="44.2433336" lon="11.4255982"><ele>734.0</ele><time>2026-04-12T10:53:13.973Z</time></trkpt><trkpt lat="44.2432489" lon="11.4255698"><ele>734.0</ele><time>2026-04-12T10:53:14.975Z</time></trkpt><trkpt lat="44.2431639" lon="11.425541"><ele>734.0</ele><time>2026-04-12T10:53:15.974Z</time></trkpt><trkpt lat="44.2430809" lon="11.4255147"><ele>734.0</ele><time>2026-04-12T10:53:16.974Z</time></trkpt><trkpt lat="44.243001" lon="11.4254882"><ele>734.0</ele><time>2026-04-12T10:53:17.972Z</time></trkpt><trkpt lat="44.2429213" lon="11.4254589"><ele>734.0</ele><time>2026-04-12T10:53:18.974Z</time></trkpt><trkpt lat="44.2428413" lon="11.4254261"><ele>734.0</ele><time>2026-04-12T10:53:19.974Z</time></trkpt><trkpt lat="44.2427565" lon="11.4253867"><ele>733.8333333333333</ele><time>2026-04-12T10:53:20.975Z</time></trkpt><trkpt lat="44.2426726" lon="11.4253401"><ele>733.6666666666666</ele><time>2026-04-12T10:53:21.973Z</time></trkpt><trkpt lat="44.2425928" lon="11.4252822"><ele>733.5</ele><time>2026-04-12T10:53:22.974Z</time></trkpt><trkpt lat="44.2425207" lon="11.4252099"><ele>733.3333333333334</ele><time>2026-04-12T10:53:23.973Z</time></trkpt><trkpt lat="44.2424578" lon="11.4251284"><ele>733.1666666666667</ele><time>2026-04-12T10:53:24.974Z</time></trkpt><trkpt lat="44.2424033" lon="11.425043"><ele>733.0</ele><time>2026-04-12T10:53:25.973Z</time></trkpt><trkpt lat="44.2423546" lon="11.424957"><ele>733.0</ele><time>2026-04-12T10:53:26.976Z</time></trkpt><trkpt lat="44.2423072" lon="11.4248685"><ele>733.0</ele><time>2026-04-12T10:53:27.973Z</time></trkpt><trkpt lat="44.2422581" lon="11.4247812"><ele>733.0</ele><time>2026-04-12T10:53:28.974Z</time></trkpt><trkpt lat="44.2422063" lon="11.424697"><ele>733.0</ele><time>2026-04-12T10:53:29.973Z</time></trkpt><trkpt lat="44.2421485" lon="11.4246164"><ele>733.0</ele><time>2026-04-12T10:53:30.974Z</time></trkpt><trkpt lat="44.2420785" lon="11.4245464"><ele>733.0</ele><time>2026-04-12T10:53:31.973Z</time></trkpt><trkpt lat="44.2420064" lon="11.4244835"><ele>733.0</ele><time>2026-04-12T10:53:32.975Z</time></trkpt><trkpt lat="44.2419297" lon="11.4244233"><ele>733.0</ele><time>2026-04-12T10:53:33.974Z</time></trkpt><trkpt lat="44.2418574" lon="11.4243616"><ele>733.0</ele><time>2026-04-12T10:53:34.973Z</time></trkpt><trkpt lat="44.2417922" lon="11.424306"><ele>733.0</ele><time>2026-04-12T10:53:35.974Z</time></trkpt><trkpt lat="44.2417293" lon="11.4242554"><ele>733.0</ele><time>2026-04-12T10:53:36.973Z</time></trkpt><trkpt lat="44.2416569" lon="11.4242042"><ele>733.0</ele><time>2026-04-12T10:53:37.974Z</time></trkpt><trkpt lat="44.2415848" lon="11.4241469"><ele>733.0</ele><time>2026-04-12T10:53:38.975Z</time></trkpt><trkpt lat="44.2415133" lon="11.4240917"><ele>733.0</ele><time>2026-04-12T10:53:39.973Z</time></trkpt><trkpt lat="44.241441" lon="11.4240332"><ele>733.0</ele><time>2026-04-12T10:53:40.974Z</time></trkpt><trkpt lat="44.2413692" lon="11.4239712"><ele>733.0</ele><time>2026-04-12T10:53:41.972Z</time></trkpt><trkpt lat="44.2412888" lon="11.4239127"><ele>733.0</ele><time>2026-04-12T10:53:42.975Z</time></trkpt><trkpt lat="44.241208" lon="11.423852"><ele>733.0</ele><time>2026-04-12T10:53:43.974Z</time></trkpt><trkpt lat="44.2411326" lon="11.4237959"><ele>732.6666666666667</ele><time>2026-04-12T10:53:44.974Z</time></trkpt><trkpt lat="44.2410613" lon="11.4237426"><ele>732.3333333333334</ele><time>2026-04-12T10:53:45.973Z</time></trkpt><trkpt lat="44.240991" lon="11.423689"><ele>732.0</ele><time>2026-04-12T10:53:46.974Z</time></trkpt><trkpt lat="44.2409143" lon="11.423633"><ele>731.6666666666666</ele><time>2026-04-12T10:53:47.974Z</time></trkpt><trkpt lat="44.2408321" lon="11.4235709"><ele>731.3333333333333</ele><time>2026-04-12T10:53:48.973Z</time></trkpt><trkpt lat="44.2407451" lon="11.4234989"><ele>731.0</ele><time>2026-04-12T10:53:49.973Z</time></trkpt><trkpt lat="44.2406591" lon="11.423418"><ele>731.4</ele><time>2026-04-12T10:53:50.974Z</time></trkpt><trkpt lat="44.2405779" lon="11.4233311"><ele>731.8</ele><time>2026-04-12T10:53:51.974Z</time></trkpt><trkpt lat="44.2405018" lon="11.4232383"><ele>732.1999999999999</ele><time>2026-04-12T10:53:52.974Z</time></trkpt><trkpt lat="44.2404298" lon="11.4231426"><ele>732.5999999999999</ele><time>2026-04-12T10:53:53.973Z</time></trkpt><trkpt lat="44.2403654" lon="11.4230555"><ele>733.0</ele><time>2026-04-12T10:53:54.973Z</time></trkpt><trkpt lat="44.2403098" lon="11.4229718"><ele>733.0</ele><time>2026-04-12T10:53:55.974Z</time></trkpt><trkpt lat="44.2402587" lon="11.4228761"><ele>733.0</ele><time>2026-04-12T10:53:56.974Z</time></trkpt><trkpt lat="44.2402142" lon="11.4227673"><ele>733.0</ele><time>2026-04-12T10:53:57.973Z</time></trkpt><trkpt lat="44.2401745" lon="11.4226563"><ele>733.0</ele><time>2026-04-12T10:53:58.974Z</time></trkpt><trkpt lat="44.240139" lon="11.4225522"><ele>733.0</ele><time>2026-04-12T10:53:59.974Z</time></trkpt><trkpt lat="44.2400966" lon="11.4224573"><ele>733.0</ele><time>2026-04-12T10:54:00.974Z</time></trkpt><trkpt lat="44.2400456" lon="11.4223663"><ele>733.0</ele><time>2026-04-12T10:54:01.975Z</time></trkpt><trkpt lat="44.2399966" lon="11.422269"><ele>733.0</ele><time>2026-04-12T10:54:02.975Z</time></trkpt><trkpt lat="44.239949" lon="11.4221682"><ele>733.0</ele><time>2026-04-12T10:54:03.973Z</time></trkpt><trkpt lat="44.2399043" lon="11.4220668"><ele>733.0</ele><time>2026-04-12T10:54:04.976Z</time></trkpt><trkpt lat="44.2398602" lon="11.4219656"><ele>733.0</ele><time>2026-04-12T10:54:05.973Z</time></trkpt><trkpt lat="44.2398131" lon="11.4218671"><ele>733.0</ele><time>2026-04-12T10:54:06.975Z</time></trkpt><trkpt lat="44.2397613" lon="11.4217784"><ele>732.5</ele><time>2026-04-12T10:54:07.974Z</time></trkpt><trkpt lat="44.2396994" lon="11.4217051"><ele>732.0</ele><time>2026-04-12T10:54:08.974Z</time></trkpt><trkpt lat="44.2396269" lon="11.4216362"><ele>731.5</ele><time>2026-04-12T10:54:09.973Z</time></trkpt><trkpt lat="44.239545" lon="11.4215684"><ele>731.0</ele><time>2026-04-12T10:54:10.972Z</time></trkpt><trkpt lat="44.2394596" lon="11.4215094"><ele>730.5</ele><time>2026-04-12T10:54:11.975Z</time></trkpt><trkpt lat="44.2393796" lon="11.4214611"><ele>730.0</ele><time>2026-04-12T10:54:12.974Z</time></trkpt><trkpt lat="44.2393022" lon="11.4214257"><ele>730.0</ele><time>2026-04-12T10:54:13.973Z</time></trkpt><trkpt lat="44.2392253" lon="11.4214057"><ele>730.0</ele><time>2026-04-12T10:54:14.975Z</time></trkpt><trkpt lat="44.2391429" lon="11.4213954"><ele>730.0</ele><time>2026-04-12T10:54:15.973Z</time></trkpt><trkpt lat="44.2390567" lon="11.4213882"><ele>730.0</ele><time>2026-04-12T10:54:16.973Z</time></trkpt><trkpt lat="44.2389696" lon="11.4213758"><ele>730.0</ele><time>2026-04-12T10:54:17.974Z</time></trkpt><trkpt lat="44.2388844" lon="11.4213618"><ele>730.0</ele><time>2026-04-12T10:54:18.973Z</time></trkpt><trkpt lat="44.238799" lon="11.4213566"><ele>730.1666666666667</ele><time>2026-04-12T10:54:19.974Z</time></trkpt><trkpt lat="44.2387038" lon="11.4213653"><ele>730.3333333333334</ele><time>2026-04-12T10:54:20.974Z</time></trkpt><trkpt lat="44.238611" lon="11.4213792"><ele>730.5</ele><time>2026-04-12T10:54:21.974Z</time></trkpt><trkpt lat="44.2385232" lon="11.4213937"><ele>730.6666666666666</ele><time>2026-04-12T10:54:22.974Z</time></trkpt><trkpt lat="44.2384389" lon="11.4214013"><ele>730.8333333333333</ele><time>2026-04-12T10:54:23.973Z</time></trkpt><trkpt lat="44.2383555" lon="11.421394"><ele>731.0</ele><time>2026-04-12T10:54:24.973Z</time></trkpt><trkpt lat="44.2382716" lon="11.4213812"><ele>731.0</ele><time>2026-04-12T10:54:25.974Z</time></trkpt><trkpt lat="44.2381911" lon="11.4213756"><ele>731.0</ele><time>2026-04-12T10:54:26.977Z</time></trkpt><trkpt lat="44.2381113" lon="11.4213866"><ele>731.0</ele><time>2026-04-12T10:54:27.974Z</time></trkpt><trkpt lat="44.238034" lon="11.4214073"><ele>731.0</ele><time>2026-04-12T10:54:28.975Z</time></trkpt><trkpt lat="44.237954" lon="11.421426"><ele>731.0</ele><time>2026-04-12T10:54:29.977Z</time></trkpt><trkpt lat="44.2378738" lon="11.4214328"><ele>731.0</ele><time>2026-04-12T10:54:30.974Z</time></trkpt><trkpt lat="44.2377969" lon="11.4214289"><ele>731.1428571428571</ele><time>2026-04-12T10:54:31.974Z</time></trkpt><trkpt lat="44.2377276" lon="11.4214154"><ele>731.2857142857142</ele><time>2026-04-12T10:54:32.975Z</time></trkpt><trkpt lat="44.2376607" lon="11.4213874"><ele>731.4285714285714</ele><time>2026-04-12T10:54:33.974Z</time></trkpt><trkpt lat="44.2375942" lon="11.4213419"><ele>731.5714285714286</ele><time>2026-04-12T10:54:34.973Z</time></trkpt><trkpt lat="44.2375365" lon="11.4212806"><ele>731.7142857142858</ele><time>2026-04-12T10:54:35.974Z</time></trkpt><trkpt lat="44.2374809" lon="11.4212068"><ele>731.8571428571429</ele><time>2026-04-12T10:54:36.974Z</time></trkpt><trkpt lat="44.2374305" lon="11.4211297"><ele>732.0</ele><time>2026-04-12T10:54:37.974Z</time></trkpt><trkpt lat="44.2373772" lon="11.4210566"><ele>732.6666666666666</ele><time>2026-04-12T10:54:38.974Z</time></trkpt><trkpt lat="44.2373148" lon="11.4209876"><ele>733.3333333333334</ele><time>2026-04-12T10:54:39.973Z</time></trkpt><trkpt lat="44.2372482" lon="11.4209363"><ele>734.0</ele><time>2026-04-12T10:54:40.973Z</time></trkpt><trkpt lat="44.2371892" lon="11.420893"><ele>734.6666666666667</ele><time>2026-04-12T10:54:41.974Z</time></trkpt><trkpt lat="44.2370687" lon="11.4208445"><ele>735.3333333333334</ele><time>2026-04-12T10:54:43.973Z</time></trkpt><trkpt lat="44.2370022" lon="11.4208422"><ele>736.0</ele><time>2026-04-12T10:54:44.974Z</time></trkpt><trkpt lat="44.2369349" lon="11.4208535"><ele>737.5</ele><time>2026-04-12T10:54:45.975Z</time></trkpt><trkpt lat="44.2368637" lon="11.4208759"><ele>739.0</ele><time>2026-04-12T10:54:46.973Z</time></trkpt><trkpt lat="44.2367979" lon="11.4209044"><ele>740.5</ele><time>2026-04-12T10:54:47.973Z</time></trkpt><trkpt lat="44.2366841" lon="11.420965"><ele>742.0</ele><time>2026-04-12T10:54:49.975Z</time></trkpt><trkpt lat="44.2366236" lon="11.4209947"><ele>743.5</ele><time>2026-04-12T10:54:50.974Z</time></trkpt><trkpt lat="44.2365604" lon="11.4210317"><ele>745.0</ele><time>2026-04-12T10:54:51.974Z</time></trkpt><trkpt lat="44.2364943" lon="11.421074"><ele>746.3333333333334</ele><time>2026-04-12T10:54:52.975Z</time></trkpt><trkpt lat="44.2364238" lon="11.4211209"><ele>747.6666666666667</ele><time>2026-04-12T10:54:53.973Z</time></trkpt><trkpt lat="44.2363509" lon="11.4211613"><ele>749.0</ele><time>2026-04-12T10:54:54.973Z</time></trkpt><trkpt lat="44.2362794" lon="11.4211893"><ele>750.3333333333334</ele><time>2026-04-12T10:54:55.974Z</time></trkpt><trkpt lat="44.23621" lon="11.4212061"><ele>751.6666666666666</ele><time>2026-04-12T10:54:56.975Z</time></trkpt><trkpt lat="44.2361467" lon="11.4212198"><ele>753.0</ele><time>2026-04-12T10:54:57.974Z</time></trkpt><trkpt lat="44.236049" lon="11.4212339"><ele>753.0</ele><time>2026-04-12T10:54:59.973Z</time></trkpt><trkpt lat="44.2359645" lon="11.4212055"><ele>753.0</ele><time>2026-04-12T10:55:01.973Z</time></trkpt><trkpt lat="44.2358698" lon="11.4211554"><ele>753.0</ele><time>2026-04-12T10:55:03.974Z</time></trkpt><trkpt lat="44.2357593" lon="11.4211352"><ele>753.0</ele><time>2026-04-12T10:55:05.973Z</time></trkpt><trkpt lat="44.2356447" lon="11.4211512"><ele>753.0</ele><time>2026-04-12T10:55:07.974Z</time></trkpt><trkpt lat="44.2355815" lon="11.4211774"><ele>752.4285714285714</ele><time>2026-04-12T10:55:08.974Z</time></trkpt><trkpt lat="44.2355194" lon="11.4212112"><ele>751.8571428571429</ele><time>2026-04-12T10:55:09.974Z</time></trkpt><trkpt lat="44.2354589" lon="11.4212503"><ele>751.2857142857142</ele><time>2026-04-12T10:55:10.974Z</time></trkpt><trkpt lat="44.2353974" lon="11.4212984"><ele>750.7142857142858</ele><time>2026-04-12T10:55:11.974Z</time></trkpt><trkpt lat="44.2353335" lon="11.4213515"><ele>750.1428571428571</ele><time>2026-04-12T10:55:12.974Z</time></trkpt><trkpt lat="44.2352765" lon="11.4214039"><ele>749.5714285714286</ele><time>2026-04-12T10:55:13.974Z</time></trkpt><trkpt lat="44.2352275" lon="11.4214619"><ele>749.0</ele><time>2026-04-12T10:55:14.975Z</time></trkpt><trkpt lat="44.2351822" lon="11.4215297"><ele>749.0</ele><time>2026-04-12T10:55:15.973Z</time></trkpt><trkpt lat="44.2351311" lon="11.4215933"><ele>749.0</ele><time>2026-04-12T10:55:16.973Z</time></trkpt><trkpt lat="44.2350691" lon="11.421638"><ele>749.0</ele><time>2026-04-12T10:55:17.974Z</time></trkpt><trkpt lat="44.2350022" lon="11.4216747"><ele>749.0</ele><time>2026-04-12T10:55:18.974Z</time></trkpt><trkpt lat="44.2349425" lon="11.4217105"><ele>749.0</ele><time>2026-04-12T10:55:19.973Z</time></trkpt><trkpt lat="44.2348372" lon="11.4218044"><ele>749.0</ele><time>2026-04-12T10:55:21.973Z</time></trkpt><trkpt lat="44.2347868" lon="11.4218674"><ele>748.2</ele><time>2026-04-12T10:55:22.974Z</time></trkpt><trkpt lat="44.2347225" lon="11.4219392"><ele>747.4000000000001</ele><time>2026-04-12T10:55:23.973Z</time></trkpt><trkpt lat="44.2346427" lon="11.4220029"><ele>746.6</ele><time>2026-04-12T10:55:24.974Z</time></trkpt><trkpt lat="44.2345571" lon="11.4220589"><ele>745.8</ele><time>2026-04-12T10:55:25.973Z</time></trkpt><trkpt lat="44.2344732" lon="11.4221257"><ele>745.0</ele><time>2026-04-12T10:55:26.974Z</time></trkpt><trkpt lat="44.2343987" lon="11.4221999"><ele>743.8333333333334</ele><time>2026-04-12T10:55:27.974Z</time></trkpt><trkpt lat="44.2343352" lon="11.4222768"><ele>742.6666666666667</ele><time>2026-04-12T10:55:28.973Z</time></trkpt><trkpt lat="44.2342822" lon="11.4223477"><ele>741.5</ele><time>2026-04-12T10:55:29.973Z</time></trkpt><trkpt lat="44.2342376" lon="11.4224155"><ele>740.3333333333334</ele><time>2026-04-12T10:55:30.974Z</time></trkpt><trkpt lat="44.234193" lon="11.4224855"><ele>739.1666666666666</ele><time>2026-04-12T10:55:31.973Z</time></trkpt><trkpt lat="44.2341005" lon="11.4225661"><ele>738.0</ele><time>2026-04-12T10:55:33.974Z</time></trkpt><trkpt lat="44.2340112" lon="11.4225429"><ele>735.4</ele><time>2026-04-12T10:55:35.974Z</time></trkpt><trkpt lat="44.2339573" lon="11.4224272"><ele>732.8</ele><time>2026-04-12T10:55:37.973Z</time></trkpt><trkpt lat="44.2339394" lon="11.4222794"><ele>730.2</ele><time>2026-04-12T10:55:39.973Z</time></trkpt><trkpt lat="44.233954" lon="11.4221058"><ele>727.6</ele><time>2026-04-12T10:55:41.975Z</time></trkpt><trkpt lat="44.2339528" lon="11.4219467"><ele>725.0</ele><time>2026-04-12T10:55:43.973Z</time></trkpt><trkpt lat="44.2339091" lon="11.4217778"><ele>725.0</ele><time>2026-04-12T10:55:45.974Z</time></trkpt><trkpt lat="44.2338808" lon="11.4216824"><ele>725.0</ele><time>2026-04-12T10:55:46.974Z</time></trkpt><trkpt lat="44.2338563" lon="11.4215797"><ele>725.0</ele><time>2026-04-12T10:55:47.974Z</time></trkpt><trkpt lat="44.2338428" lon="11.4214758"><ele>725.0</ele><time>2026-04-12T10:55:48.975Z</time></trkpt><trkpt lat="44.2338323" lon="11.421376"><ele>725.0</ele><time>2026-04-12T10:55:49.975Z</time></trkpt><trkpt lat="44.2338161" lon="11.4212786"><ele>725.0</ele><time>2026-04-12T10:55:50.975Z</time></trkpt><trkpt lat="44.2337864" lon="11.4211874"><ele>725.0</ele><time>2026-04-12T10:55:51.973Z</time></trkpt><trkpt lat="44.2337479" lon="11.4211139"><ele>725.75</ele><time>2026-04-12T10:55:52.973Z</time></trkpt><trkpt lat="44.2336521" lon="11.4210213"><ele>726.5</ele><time>2026-04-12T10:55:54.975Z</time></trkpt><trkpt lat="44.2335573" lon="11.4209246"><ele>727.25</ele><time>2026-04-12T10:55:56.975Z</time></trkpt><trkpt lat="44.2334842" lon="11.4207888"><ele>728.0</ele><time>2026-04-12T10:55:58.973Z</time></trkpt><trkpt lat="44.2334481" lon="11.4206537"><ele>728.0</ele><time>2026-04-12T10:56:00.974Z</time></trkpt><trkpt lat="44.2334274" lon="11.4205093"><ele>728.0</ele><time>2026-04-12T10:56:02.975Z</time></trkpt><trkpt lat="44.2334425" lon="11.420342"><ele>728.0</ele><time>2026-04-12T10:56:04.974Z</time></trkpt><trkpt lat="44.2334997" lon="11.4202018"><ele>728.0</ele><time>2026-04-12T10:56:06.974Z</time></trkpt><trkpt lat="44.2335628" lon="11.4200672"><ele>727.4</ele><time>2026-04-12T10:56:08.975Z</time></trkpt><trkpt lat="44.2336233" lon="11.4199085"><ele>726.8</ele><time>2026-04-12T10:56:10.974Z</time></trkpt><trkpt lat="44.2336464" lon="11.4198166"><ele>726.2</ele><time>2026-04-12T10:56:11.973Z</time></trkpt><trkpt lat="44.2336631" lon="11.4197318"><ele>725.6</ele><time>2026-04-12T10:56:12.974Z</time></trkpt><trkpt lat="44.2336777" lon="11.4195898"><ele>725.0</ele><time>2026-04-12T10:56:14.974Z</time></trkpt><trkpt lat="44.2336721" lon="11.4194488"><ele>725.0</ele><time>2026-04-12T10:56:16.973Z</time></trkpt><trkpt lat="44.233648" lon="11.419301"><ele>725.0</ele><time>2026-04-12T10:56:18.974Z</time></trkpt><trkpt lat="44.2336088" lon="11.4191586"><ele>725.0</ele><time>2026-04-12T10:56:20.976Z</time></trkpt><trkpt lat="44.2335558" lon="11.4190564"><ele>725.0</ele><time>2026-04-12T10:56:22.973Z</time></trkpt><trkpt lat="44.2334905" lon="11.4189644"><ele>725.0</ele><time>2026-04-12T10:56:24.974Z</time></trkpt><trkpt lat="44.2334269" lon="11.4188944"><ele>725.0</ele><time>2026-04-12T10:56:26.975Z</time></trkpt><trkpt lat="44.2333653" lon="11.4188608"><ele>725.0</ele><time>2026-04-12T10:56:28.974Z</time></trkpt><trkpt lat="44.2332852" lon="11.4188132"><ele>725.0</ele><time>2026-04-12T10:56:31.974Z</time></trkpt><trkpt lat="44.2331963" lon="11.4187598"><ele>725.0</ele><time>2026-04-12T10:56:34.974Z</time></trkpt><trkpt lat="44.2331271" lon="11.4187192"><ele>725.0</ele><time>2026-04-12T10:56:36.974Z</time></trkpt><trkpt lat="44.2330526" lon="11.4186894"><ele>725.0</ele><time>2026-04-12T10:56:38.973Z</time></trkpt><trkpt lat="44.2329807" lon="11.4186552"><ele>724.6666666666666</ele><time>2026-04-12T10:56:40.974Z</time></trkpt><trkpt lat="44.232902" lon="11.4186068"><ele>724.3333333333333</ele><time>2026-04-12T10:56:42.973Z</time></trkpt><trkpt lat="44.2328096" lon="11.4185454"><ele>724.0</ele><time>2026-04-12T10:56:44.973Z</time></trkpt><trkpt lat="44.2327453" lon="11.4185086"><ele>723.6666666666666</ele><time>2026-04-12T10:56:45.973Z</time></trkpt><trkpt lat="44.2326738" lon="11.4184748"><ele>723.3333333333334</ele><time>2026-04-12T10:56:46.973Z</time></trkpt><trkpt lat="44.232597" lon="11.418448"><ele>723.0</ele><time>2026-04-12T10:56:47.974Z</time></trkpt><trkpt lat="44.232528" lon="11.4184229"><ele>723.0000000000001</ele><time>2026-04-12T10:56:48.973Z</time></trkpt><trkpt lat="44.2324639" lon="11.4183979"><ele>723.0</ele><time>2026-04-12T10:56:49.973Z</time></trkpt><trkpt lat="44.2324037" lon="11.418372"><ele>723.0</ele><time>2026-04-12T10:56:50.974Z</time></trkpt><trkpt lat="44.2323413" lon="11.4183388"><ele>723.0</ele><time>2026-04-12T10:56:51.973Z</time></trkpt><trkpt lat="44.2322788" lon="11.418295"><ele>723.0</ele><time>2026-04-12T10:56:52.973Z</time></trkpt><trkpt lat="44.2322264" lon="11.4182438"><ele>723.0000000000001</ele><time>2026-04-12T10:56:53.974Z</time></trkpt><trkpt lat="44.2321758" lon="11.4181888"><ele>723.0</ele><time>2026-04-12T10:56:54.974Z</time></trkpt><trkpt lat="44.2321242" lon="11.4181359"><ele>721.4</ele><time>2026-04-12T10:56:55.973Z</time></trkpt><trkpt lat="44.2320129" lon="11.4180508"><ele>719.8</ele><time>2026-04-12T10:56:57.974Z</time></trkpt><trkpt lat="44.2319519" lon="11.4180097"><ele>718.2</ele><time>2026-04-12T10:56:58.974Z</time></trkpt><trkpt lat="44.2318954" lon="11.4179649"><ele>716.6</ele><time>2026-04-12T10:56:59.973Z</time></trkpt><trkpt lat="44.2317964" lon="11.417866"><ele>715.0</ele><time>2026-04-12T10:57:01.974Z</time></trkpt><trkpt lat="44.2317024" lon="11.4177567"><ele>715.0</ele><time>2026-04-12T10:57:03.974Z</time></trkpt><trkpt lat="44.2316165" lon="11.4176455"><ele>715.0</ele><time>2026-04-12T10:57:05.973Z</time></trkpt><trkpt lat="44.2315535" lon="11.4174929"><ele>715.0</ele><time>2026-04-12T10:57:07.973Z</time></trkpt><trkpt lat="44.2315413" lon="11.4174049"><ele>715.0</ele><time>2026-04-12T10:57:08.974Z</time></trkpt><trkpt lat="44.2315291" lon="11.4173186"><ele>715.0</ele><time>2026-04-12T10:57:09.974Z</time></trkpt><trkpt lat="44.2314723" lon="11.4171584"><ele>714.2</ele><time>2026-04-12T10:57:11.973Z</time></trkpt><trkpt lat="44.2313701" lon="11.4170567"><ele>713.4</ele><time>2026-04-12T10:57:13.974Z</time></trkpt><trkpt lat="44.2312881" lon="11.4170375"><ele>712.5999999999999</ele><time>2026-04-12T10:57:14.974Z</time></trkpt><trkpt lat="44.2312016" lon="11.4170356"><ele>711.8</ele><time>2026-04-12T10:57:15.975Z</time></trkpt><trkpt lat="44.231117" lon="11.4170471"><ele>711.0</ele><time>2026-04-12T10:57:16.973Z</time></trkpt><trkpt lat="44.2310383" lon="11.4170628"><ele>711.0</ele><time>2026-04-12T10:57:17.974Z</time></trkpt><trkpt lat="44.2309609" lon="11.417074"><ele>711.0</ele><time>2026-04-12T10:57:18.974Z</time></trkpt><trkpt lat="44.2308874" lon="11.4170692"><ele>711.0</ele><time>2026-04-12T10:57:19.973Z</time></trkpt><trkpt lat="44.2308165" lon="11.4170522"><ele>711.0</ele><time>2026-04-12T10:57:20.974Z</time></trkpt><trkpt lat="44.2307519" lon="11.4170217"><ele>711.0</ele><time>2026-04-12T10:57:21.973Z</time></trkpt><trkpt lat="44.2306845" lon="11.4169845"><ele>711.0</ele><time>2026-04-12T10:57:22.973Z</time></trkpt><trkpt lat="44.2306143" lon="11.4169557"><ele>711.0</ele><time>2026-04-12T10:57:23.974Z</time></trkpt><trkpt lat="44.2305498" lon="11.4169262"><ele>709.4285714285714</ele><time>2026-04-12T10:57:24.973Z</time></trkpt><trkpt lat="44.2304896" lon="11.4168836"><ele>707.8571428571429</ele><time>2026-04-12T10:57:25.973Z</time></trkpt><trkpt lat="44.2304301" lon="11.4168212"><ele>706.2857142857142</ele><time>2026-04-12T10:57:26.975Z</time></trkpt><trkpt lat="44.2303672" lon="11.4167521"><ele>704.7142857142858</ele><time>2026-04-12T10:57:27.973Z</time></trkpt><trkpt lat="44.230305" lon="11.4167005"><ele>703.1428571428571</ele><time>2026-04-12T10:57:28.974Z</time></trkpt><trkpt lat="44.2302392" lon="11.4166698"><ele>701.5714285714286</ele><time>2026-04-12T10:57:29.974Z</time></trkpt><trkpt lat="44.2301669" lon="11.416647"><ele>700.0</ele><time>2026-04-12T10:57:30.973Z</time></trkpt><trkpt lat="44.2300953" lon="11.4166299"><ele>700.0</ele><time>2026-04-12T10:57:31.975Z</time></trkpt><trkpt lat="44.2300251" lon="11.4166151"><ele>700.0</ele><time>2026-04-12T10:57:32.976Z</time></trkpt><trkpt lat="44.2299559" lon="11.4165989"><ele>700.0</ele><time>2026-04-12T10:57:33.974Z</time></trkpt><trkpt lat="44.2298889" lon="11.4165758"><ele>700.0</ele><time>2026-04-12T10:57:34.975Z</time></trkpt><trkpt lat="44.2298212" lon="11.4165507"><ele>700.0</ele><time>2026-04-12T10:57:35.973Z</time></trkpt><trkpt lat="44.2297496" lon="11.4165304"><ele>700.0</ele><time>2026-04-12T10:57:36.974Z</time></trkpt><trkpt lat="44.2296749" lon="11.4165126"><ele>700.0</ele><time>2026-04-12T10:57:37.973Z</time></trkpt><trkpt lat="44.2295994" lon="11.4164962"><ele>698.5714285714286</ele><time>2026-04-12T10:57:38.974Z</time></trkpt><trkpt lat="44.2295348" lon="11.4164726"><ele>697.1428571428571</ele><time>2026-04-12T10:57:39.974Z</time></trkpt><trkpt lat="44.229472" lon="11.416444"><ele>695.7142857142858</ele><time>2026-04-12T10:57:40.973Z</time></trkpt><trkpt lat="44.2294068" lon="11.4164116"><ele>694.2857142857142</ele><time>2026-04-12T10:57:41.973Z</time></trkpt><trkpt lat="44.2293418" lon="11.4163777"><ele>692.8571428571429</ele><time>2026-04-12T10:57:42.974Z</time></trkpt><trkpt lat="44.2292744" lon="11.4163465"><ele>691.4285714285714</ele><time>2026-04-12T10:57:43.975Z</time></trkpt><trkpt lat="44.2292059" lon="11.4163329"><ele>690.0</ele><time>2026-04-12T10:57:44.974Z</time></trkpt><trkpt lat="44.2291089" lon="11.4163482"><ele>690.0</ele><time>2026-04-12T10:57:46.974Z</time></trkpt><trkpt lat="44.2290792" lon="11.416431"><ele>690.0</ele><time>2026-04-12T10:57:48.974Z</time></trkpt><trkpt lat="44.2291324" lon="11.4165381"><ele>690.0</ele><time>2026-04-12T10:57:50.975Z</time></trkpt><trkpt lat="44.229228" lon="11.4166112"><ele>690.0</ele><time>2026-04-12T10:57:52.974Z</time></trkpt><trkpt lat="44.2293293" lon="11.4166777"><ele>690.0</ele><time>2026-04-12T10:57:54.973Z</time></trkpt><trkpt lat="44.2294423" lon="11.4167907"><ele>690.0</ele><time>2026-04-12T10:57:56.975Z</time></trkpt><trkpt lat="44.2295048" lon="11.4168872"><ele>690.0</ele><time>2026-04-12T10:57:57.974Z</time></trkpt><trkpt lat="44.2295707" lon="11.4169982"><ele>690.0</ele><time>2026-04-12T10:57:58.973Z</time></trkpt><trkpt lat="44.2296354" lon="11.4171088"><ele>690.0</ele><time>2026-04-12T10:57:59.975Z</time></trkpt><trkpt lat="44.2297022" lon="11.4172093"><ele>690.0</ele><time>2026-04-12T10:58:00.976Z</time></trkpt><trkpt lat="44.2297673" lon="11.4172887"><ele>689.1428571428571</ele><time>2026-04-12T10:58:01.973Z</time></trkpt><trkpt lat="44.2298285" lon="11.4173488"><ele>688.2857142857142</ele><time>2026-04-12T10:58:02.974Z</time></trkpt><trkpt lat="44.2298811" lon="11.4174026"><ele>687.4285714285713</ele><time>2026-04-12T10:58:03.973Z</time></trkpt><trkpt lat="44.2299273" lon="11.4174623"><ele>686.5714285714286</ele><time>2026-04-12T10:58:04.974Z</time></trkpt><trkpt lat="44.229971" lon="11.4175359"><ele>685.7142857142857</ele><time>2026-04-12T10:58:05.974Z</time></trkpt><trkpt lat="44.2300162" lon="11.4176311"><ele>684.8571428571428</ele><time>2026-04-12T10:58:06.973Z</time></trkpt><trkpt lat="44.2300555" lon="11.4177275"><ele>684.0</ele><time>2026-04-12T10:58:07.975Z</time></trkpt><trkpt lat="44.2300999" lon="11.4178245"><ele>684.0</ele><time>2026-04-12T10:58:08.974Z</time></trkpt><trkpt lat="44.2301529" lon="11.417926"><ele>684.0</ele><time>2026-04-12T10:58:09.973Z</time></trkpt><trkpt lat="44.2302172" lon="11.4180297"><ele>684.0</ele><time>2026-04-12T10:58:10.974Z</time></trkpt><trkpt lat="44.230287" lon="11.4181272"><ele>684.0</ele><time>2026-04-12T10:58:11.976Z</time></trkpt><trkpt lat="44.2303509" lon="11.4182053"><ele>684.0</ele><time>2026-04-12T10:58:12.974Z</time></trkpt><trkpt lat="44.2304142" lon="11.4182655"><ele>684.0</ele><time>2026-04-12T10:58:13.973Z</time></trkpt><trkpt lat="44.2304749" lon="11.4183191"><ele>683.7142857142857</ele><time>2026-04-12T10:58:14.974Z</time></trkpt><trkpt lat="44.2305361" lon="11.4183742"><ele>683.4285714285714</ele><time>2026-04-12T10:58:15.974Z</time></trkpt><trkpt lat="44.2305913" lon="11.4184331"><ele>683.1428571428571</ele><time>2026-04-12T10:58:16.973Z</time></trkpt><trkpt lat="44.2306391" lon="11.4185058"><ele>682.8571428571429</ele><time>2026-04-12T10:58:17.975Z</time></trkpt><trkpt lat="44.2306798" lon="11.4185941"><ele>682.5714285714286</ele><time>2026-04-12T10:58:18.974Z</time></trkpt><trkpt lat="44.2307146" lon="11.4186891"><ele>682.2857142857142</ele><time>2026-04-12T10:58:19.974Z</time></trkpt><trkpt lat="44.2307493" lon="11.4187856"><ele>682.0</ele><time>2026-04-12T10:58:20.974Z</time></trkpt><trkpt lat="44.2307819" lon="11.4188785"><ele>680.5714285714286</ele><time>2026-04-12T10:58:21.973Z</time></trkpt><trkpt lat="44.2308066" lon="11.4189685"><ele>679.1428571428571</ele><time>2026-04-12T10:58:22.974Z</time></trkpt><trkpt lat="44.2308306" lon="11.4190577"><ele>677.7142857142858</ele><time>2026-04-12T10:58:23.973Z</time></trkpt><trkpt lat="44.2308597" lon="11.4191465"><ele>676.2857142857142</ele><time>2026-04-12T10:58:24.974Z</time></trkpt><trkpt lat="44.2308973" lon="11.4192296"><ele>674.8571428571429</ele><time>2026-04-12T10:58:25.974Z</time></trkpt><trkpt lat="44.2309399" lon="11.4193158"><ele>673.4285714285714</ele><time>2026-04-12T10:58:26.974Z</time></trkpt><trkpt lat="44.2309888" lon="11.4194027"><ele>672.0</ele><time>2026-04-12T10:58:27.975Z</time></trkpt><trkpt lat="44.2310404" lon="11.4194843"><ele>672.0</ele><time>2026-04-12T10:58:28.974Z</time></trkpt><trkpt lat="44.2310926" lon="11.4195569"><ele>672.0</ele><time>2026-04-12T10:58:29.975Z</time></trkpt><trkpt lat="44.2311436" lon="11.4196147"><ele>672.0</ele><time>2026-04-12T10:58:30.974Z</time></trkpt><trkpt lat="44.2312449" lon="11.4197138"><ele>672.0</ele><time>2026-04-12T10:58:32.975Z</time></trkpt><trkpt lat="44.2313338" lon="11.4198271"><ele>672.0</ele><time>2026-04-12T10:58:34.974Z</time></trkpt><trkpt lat="44.2314128" lon="11.4199471"><ele>669.4000000000001</ele><time>2026-04-12T10:58:36.973Z</time></trkpt><trkpt lat="44.2314601" lon="11.4200974"><ele>666.8000000000001</ele><time>2026-04-12T10:58:38.973Z</time></trkpt><trkpt lat="44.2314694" lon="11.4202029"><ele>664.2</ele><time>2026-04-12T10:58:39.974Z</time></trkpt><trkpt lat="44.2314689" lon="11.4203241"><ele>661.6</ele><time>2026-04-12T10:58:40.973Z</time></trkpt><trkpt lat="44.2314594" lon="11.4204481"><ele>659.0</ele><time>2026-04-12T10:58:41.975Z</time></trkpt><trkpt lat="44.2314384" lon="11.4205752"><ele>657.2</ele><time>2026-04-12T10:58:42.973Z</time></trkpt><trkpt lat="44.2313929" lon="11.4207032"><ele>655.4000000000001</ele><time>2026-04-12T10:58:43.974Z</time></trkpt><trkpt lat="44.2313317" lon="11.4208391"><ele>653.6</ele><time>2026-04-12T10:58:44.976Z</time></trkpt><trkpt lat="44.2312715" lon="11.4209731"><ele>651.8</ele><time>2026-04-12T10:58:45.973Z</time></trkpt><trkpt lat="44.2312246" lon="11.4210957"><ele>650.0</ele><time>2026-04-12T10:58:46.976Z</time></trkpt><trkpt lat="44.2311871" lon="11.42121"><ele>650.0</ele><time>2026-04-12T10:58:47.973Z</time></trkpt><trkpt lat="44.2311521" lon="11.4213112"><ele>650.0</ele><time>2026-04-12T10:58:48.973Z</time></trkpt><trkpt lat="44.2311123" lon="11.4214041"><ele>650.0</ele><time>2026-04-12T10:58:49.974Z</time></trkpt><trkpt lat="44.2310584" lon="11.4214939"><ele>650.0</ele><time>2026-04-12T10:58:50.974Z</time></trkpt><trkpt lat="44.2309905" lon="11.4215773"><ele>650.0</ele><time>2026-04-12T10:58:51.973Z</time></trkpt><trkpt lat="44.2309177" lon="11.4216526"><ele>650.0</ele><time>2026-04-12T10:58:52.973Z</time></trkpt><trkpt lat="44.2308398" lon="11.4217189"><ele>651.0</ele><time>2026-04-12T10:58:53.975Z</time></trkpt><trkpt lat="44.2307644" lon="11.4217765"><ele>652.0</ele><time>2026-04-12T10:58:54.973Z</time></trkpt><trkpt lat="44.230702" lon="11.4218223"><ele>653.0</ele><time>2026-04-12T10:58:55.977Z</time></trkpt><trkpt lat="44.2306444" lon="11.4218623"><ele>654.0</ele><time>2026-04-12T10:58:56.974Z</time></trkpt><trkpt lat="44.2305922" lon="11.421913"><ele>655.0</ele><time>2026-04-12T10:58:57.974Z</time></trkpt><trkpt lat="44.2305403" lon="11.421981"><ele>656.0</ele><time>2026-04-12T10:58:58.973Z</time></trkpt><trkpt lat="44.2304913" lon="11.4220584"><ele>657.0</ele><time>2026-04-12T10:58:59.974Z</time></trkpt><trkpt lat="44.2304498" lon="11.422148"><ele>654.6666666666666</ele><time>2026-04-12T10:59:00.974Z</time></trkpt><trkpt lat="44.2304224" lon="11.4222487"><ele>652.3333333333334</ele><time>2026-04-12T10:59:01.974Z</time></trkpt><trkpt lat="44.2304073" lon="11.4223537"><ele>650.0</ele><time>2026-04-12T10:59:02.975Z</time></trkpt><trkpt lat="44.2304055" lon="11.4224707"><ele>647.6666666666667</ele><time>2026-04-12T10:59:03.974Z</time></trkpt><trkpt lat="44.2304171" lon="11.4226087"><ele>645.3333333333334</ele><time>2026-04-12T10:59:04.974Z</time></trkpt><trkpt lat="44.230426" lon="11.4227449"><ele>643.0</ele><time>2026-04-12T10:59:05.973Z</time></trkpt><trkpt lat="44.2304364" lon="11.4228644"><ele>643.0</ele><time>2026-04-12T10:59:06.973Z</time></trkpt><trkpt lat="44.2304474" lon="11.4229726"><ele>643.0</ele><time>2026-04-12T10:59:07.974Z</time></trkpt><trkpt lat="44.2304574" lon="11.4230684"><ele>643.0</ele><time>2026-04-12T10:59:08.974Z</time></trkpt><trkpt lat="44.2304629" lon="11.4232326"><ele>643.0</ele><time>2026-04-12T10:59:10.974Z</time></trkpt><trkpt lat="44.2304491" lon="11.4234071"><ele>643.0</ele><time>2026-04-12T10:59:12.974Z</time></trkpt><trkpt lat="44.2304347" lon="11.4234937"><ele>643.0</ele><time>2026-04-12T10:59:13.974Z</time></trkpt><trkpt lat="44.2304103" lon="11.4235775"><ele>643.0</ele><time>2026-04-12T10:59:14.975Z</time></trkpt><trkpt lat="44.2303759" lon="11.4236549"><ele>643.0</ele><time>2026-04-12T10:59:15.973Z</time></trkpt><trkpt lat="44.230333" lon="11.4237307"><ele>643.0</ele><time>2026-04-12T10:59:16.975Z</time></trkpt><trkpt lat="44.2302722" lon="11.4238074"><ele>643.0</ele><time>2026-04-12T10:59:17.973Z</time></trkpt><trkpt lat="44.2301974" lon="11.4238831"><ele>643.0</ele><time>2026-04-12T10:59:18.973Z</time></trkpt><trkpt lat="44.2301108" lon="11.4239653"><ele>644.5</ele><time>2026-04-12T10:59:19.974Z</time></trkpt><trkpt lat="44.230028" lon="11.4240413"><ele>646.0</ele><time>2026-04-12T10:59:20.976Z</time></trkpt><trkpt lat="44.2299541" lon="11.4241086"><ele>647.5</ele><time>2026-04-12T10:59:21.975Z</time></trkpt><trkpt lat="44.2298892" lon="11.4241797"><ele>649.0</ele><time>2026-04-12T10:59:22.973Z</time></trkpt><trkpt lat="44.229833" lon="11.4242529"><ele>650.5</ele><time>2026-04-12T10:59:23.973Z</time></trkpt><trkpt lat="44.2297878" lon="11.4243358"><ele>652.0</ele><time>2026-04-12T10:59:24.973Z</time></trkpt><trkpt lat="44.2297495" lon="11.4244301"><ele>648.2</ele><time>2026-04-12T10:59:25.974Z</time></trkpt><trkpt lat="44.2297124" lon="11.4245371"><ele>644.4000000000001</ele><time>2026-04-12T10:59:26.974Z</time></trkpt><trkpt lat="44.2296803" lon="11.4246631"><ele>640.5999999999999</ele><time>2026-04-12T10:59:27.974Z</time></trkpt><trkpt lat="44.229659" lon="11.4247949"><ele>636.8</ele><time>2026-04-12T10:59:28.974Z</time></trkpt><trkpt lat="44.2296387" lon="11.4249244"><ele>633.0</ele><time>2026-04-12T10:59:29.974Z</time></trkpt><trkpt lat="44.2296078" lon="11.4250459"><ele>633.0</ele><time>2026-04-12T10:59:30.975Z</time></trkpt><trkpt lat="44.2295734" lon="11.4251669"><ele>633.0</ele><time>2026-04-12T10:59:31.974Z</time></trkpt><trkpt lat="44.2295373" lon="11.4252979"><ele>633.0</ele><time>2026-04-12T10:59:32.975Z</time></trkpt><trkpt lat="44.2295008" lon="11.4254418"><ele>633.0</ele><time>2026-04-12T10:59:33.974Z</time></trkpt><trkpt lat="44.2294667" lon="11.4255861"><ele>633.0</ele><time>2026-04-12T10:59:34.974Z</time></trkpt><trkpt lat="44.2294345" lon="11.4257268"><ele>633.0</ele><time>2026-04-12T10:59:35.974Z</time></trkpt><trkpt lat="44.2294058" lon="11.425866"><ele>633.0</ele><time>2026-04-12T10:59:36.974Z</time></trkpt><trkpt lat="44.2293775" lon="11.4260032"><ele>633.0</ele><time>2026-04-12T10:59:37.975Z</time></trkpt><trkpt lat="44.2293477" lon="11.4261437"><ele>633.0</ele><time>2026-04-12T10:59:38.974Z</time></trkpt><trkpt lat="44.2293177" lon="11.4262814"><ele>633.0</ele><time>2026-04-12T10:59:39.975Z</time></trkpt><trkpt lat="44.2292849" lon="11.4264133"><ele>633.1999999999999</ele><time>2026-04-12T10:59:40.974Z</time></trkpt><trkpt lat="44.2292461" lon="11.4265345"><ele>633.4</ele><time>2026-04-12T10:59:41.973Z</time></trkpt><trkpt lat="44.2292029" lon="11.4266503"><ele>633.5999999999999</ele><time>2026-04-12T10:59:42.973Z</time></trkpt><trkpt lat="44.2291547" lon="11.4267734"><ele>633.8</ele><time>2026-04-12T10:59:43.974Z</time></trkpt><trkpt lat="44.2291073" lon="11.4268941"><ele>634.0</ele><time>2026-04-12T10:59:44.974Z</time></trkpt><trkpt lat="44.2290521" lon="11.4270029"><ele>634.0</ele><time>2026-04-12T10:59:45.973Z</time></trkpt><trkpt lat="44.2289844" lon="11.4270877"><ele>634.0</ele><time>2026-04-12T10:59:46.974Z</time></trkpt><trkpt lat="44.228899" lon="11.4271513"><ele>634.0</ele><time>2026-04-12T10:59:47.974Z</time></trkpt><trkpt lat="44.2287994" lon="11.4272037"><ele>634.0</ele><time>2026-04-12T10:59:48.974Z</time></trkpt><trkpt lat="44.2287026" lon="11.4272455"><ele>634.0</ele><time>2026-04-12T10:59:49.973Z</time></trkpt><trkpt lat="44.2286142" lon="11.4272815"><ele>632.8333333333334</ele><time>2026-04-12T10:59:50.974Z</time></trkpt><trkpt lat="44.2285309" lon="11.4273074"><ele>631.6666666666667</ele><time>2026-04-12T10:59:51.974Z</time></trkpt><trkpt lat="44.2284505" lon="11.4273281"><ele>630.5</ele><time>2026-04-12T10:59:52.975Z</time></trkpt><trkpt lat="44.2283706" lon="11.4273522"><ele>629.3333333333334</ele><time>2026-04-12T10:59:53.975Z</time></trkpt><trkpt lat="44.2282946" lon="11.4273854"><ele>628.1666666666666</ele><time>2026-04-12T10:59:54.977Z</time></trkpt><trkpt lat="44.228222" lon="11.4274304"><ele>627.0</ele><time>2026-04-12T10:59:55.973Z</time></trkpt><trkpt lat="44.2281486" lon="11.4274882"><ele>624.2</ele><time>2026-04-12T10:59:56.974Z</time></trkpt><trkpt lat="44.2280743" lon="11.4275534"><ele>621.4000000000001</ele><time>2026-04-12T10:59:57.976Z</time></trkpt><trkpt lat="44.2279988" lon="11.4276279"><ele>618.5999999999999</ele><time>2026-04-12T10:59:58.973Z</time></trkpt><trkpt lat="44.2279255" lon="11.4277093"><ele>615.8</ele><time>2026-04-12T10:59:59.974Z</time></trkpt><trkpt lat="44.2278542" lon="11.4277916"><ele>613.0</ele><time>2026-04-12T11:00:00.975Z</time></trkpt><trkpt lat="44.2277838" lon="11.4278666"><ele>613.0</ele><time>2026-04-12T11:00:01.974Z</time></trkpt><trkpt lat="44.2277163" lon="11.4279343"><ele>613.0</ele><time>2026-04-12T11:00:02.976Z</time></trkpt><trkpt lat="44.2276528" lon="11.4279965"><ele>613.0</ele><time>2026-04-12T11:00:03.978Z</time></trkpt><trkpt lat="44.2275958" lon="11.4280559"><ele>613.0</ele><time>2026-04-12T11:00:04.973Z</time></trkpt><trkpt lat="44.2275422" lon="11.4281221"><ele>613.0</ele><time>2026-04-12T11:00:05.973Z</time></trkpt><trkpt lat="44.2274894" lon="11.4282011"><ele>613.0</ele><time>2026-04-12T11:00:06.974Z</time></trkpt><trkpt lat="44.2274377" lon="11.428289"><ele>613.6666666666667</ele><time>2026-04-12T11:00:07.973Z</time></trkpt><trkpt lat="44.2273883" lon="11.4283795"><ele>614.3333333333334</ele><time>2026-04-12T11:00:08.974Z</time></trkpt><trkpt lat="44.2273447" lon="11.4284692"><ele>615.0</ele><time>2026-04-12T11:00:09.974Z</time></trkpt><trkpt lat="44.2273103" lon="11.4285699"><ele>615.6666666666666</ele><time>2026-04-12T11:00:10.974Z</time></trkpt><trkpt lat="44.2272808" lon="11.4286924"><ele>616.3333333333333</ele><time>2026-04-12T11:00:11.974Z</time></trkpt><trkpt lat="44.227259" lon="11.4288378"><ele>617.0</ele><time>2026-04-12T11:00:12.975Z</time></trkpt><trkpt lat="44.2272425" lon="11.4289844"><ele>613.6</ele><time>2026-04-12T11:00:13.973Z</time></trkpt><trkpt lat="44.2272218" lon="11.4291292"><ele>610.2</ele><time>2026-04-12T11:00:14.975Z</time></trkpt><trkpt lat="44.2271925" lon="11.4292771"><ele>606.8</ele><time>2026-04-12T11:00:15.973Z</time></trkpt><trkpt lat="44.2271567" lon="11.4294209"><ele>603.4</ele><time>2026-04-12T11:00:16.975Z</time></trkpt><trkpt lat="44.2271179" lon="11.4295519"><ele>600.0</ele><time>2026-04-12T11:00:17.973Z</time></trkpt><trkpt lat="44.227079" lon="11.4296728"><ele>600.0</ele><time>2026-04-12T11:00:18.973Z</time></trkpt><trkpt lat="44.2270382" lon="11.4297842"><ele>600.0</ele><time>2026-04-12T11:00:19.973Z</time></trkpt><trkpt lat="44.2269953" lon="11.4298865"><ele>600.0</ele><time>2026-04-12T11:00:20.976Z</time></trkpt><trkpt lat="44.226947" lon="11.4299858"><ele>600.0</ele><time>2026-04-12T11:00:21.975Z</time></trkpt><trkpt lat="44.2268958" lon="11.4300882"><ele>600.0</ele><time>2026-04-12T11:00:22.974Z</time></trkpt><trkpt lat="44.2268449" lon="11.4301828"><ele>600.0</ele><time>2026-04-12T11:00:23.975Z</time></trkpt><trkpt lat="44.226797" lon="11.4302697"><ele>600.0</ele><time>2026-04-12T11:00:24.974Z</time></trkpt><trkpt lat="44.2267486" lon="11.4303568"><ele>600.0</ele><time>2026-04-12T11:00:25.976Z</time></trkpt><trkpt lat="44.2267007" lon="11.4304407"><ele>600.0</ele><time>2026-04-12T11:00:26.974Z</time></trkpt><trkpt lat="44.2266524" lon="11.4305186"><ele>600.0</ele><time>2026-04-12T11:00:27.974Z</time></trkpt><trkpt lat="44.2266011" lon="11.4305925"><ele>600.0</ele><time>2026-04-12T11:00:28.975Z</time></trkpt><trkpt lat="44.2265455" lon="11.4306679"><ele>600.0</ele><time>2026-04-12T11:00:29.975Z</time></trkpt><trkpt lat="44.2264879" lon="11.4307468"><ele>597.4</ele><time>2026-04-12T11:00:30.974Z</time></trkpt><trkpt lat="44.2264309" lon="11.4308313"><ele>594.8</ele><time>2026-04-12T11:00:31.974Z</time></trkpt><trkpt lat="44.2263665" lon="11.4309246"><ele>592.2</ele><time>2026-04-12T11:00:32.975Z</time></trkpt><trkpt lat="44.2262942" lon="11.4310306"><ele>589.6</ele><time>2026-04-12T11:00:33.975Z</time></trkpt><trkpt lat="44.2262247" lon="11.4311375"><ele>587.0</ele><time>2026-04-12T11:00:34.975Z</time></trkpt><trkpt lat="44.2261628" lon="11.431244"><ele>587.4</ele><time>2026-04-12T11:00:35.975Z</time></trkpt><trkpt lat="44.2261043" lon="11.431344"><ele>587.8000000000001</ele><time>2026-04-12T11:00:36.975Z</time></trkpt><trkpt lat="44.2260442" lon="11.4314314"><ele>588.2</ele><time>2026-04-12T11:00:37.975Z</time></trkpt><trkpt lat="44.2259758" lon="11.4315103"><ele>588.6</ele><time>2026-04-12T11:00:38.976Z</time></trkpt><trkpt lat="44.2259039" lon="11.4315869"><ele>589.0</ele><time>2026-04-12T11:00:39.975Z</time></trkpt><trkpt lat="44.2258323" lon="11.4316674"><ele>589.0</ele><time>2026-04-12T11:00:40.974Z</time></trkpt><trkpt lat="44.2257596" lon="11.4317421"><ele>589.0</ele><time>2026-04-12T11:00:41.976Z</time></trkpt><trkpt lat="44.2256852" lon="11.431808"><ele>589.0</ele><time>2026-04-12T11:00:42.974Z</time></trkpt><trkpt lat="44.2256036" lon="11.4318678"><ele>589.0</ele><time>2026-04-12T11:00:43.974Z</time></trkpt><trkpt lat="44.2255113" lon="11.4319155"><ele>589.0</ele><time>2026-04-12T11:00:44.975Z</time></trkpt><trkpt lat="44.2254145" lon="11.4319599"><ele>588.4</ele><time>2026-04-12T11:00:45.974Z</time></trkpt><trkpt lat="44.2253191" lon="11.4320079"><ele>587.8</ele><time>2026-04-12T11:00:46.975Z</time></trkpt><trkpt lat="44.2252246" lon="11.4320706"><ele>587.2</ele><time>2026-04-12T11:00:47.974Z</time></trkpt><trkpt lat="44.2251363" lon="11.4321467"><ele>586.6</ele><time>2026-04-12T11:00:48.974Z</time></trkpt><trkpt lat="44.2250536" lon="11.4322271"><ele>586.0</ele><time>2026-04-12T11:00:49.973Z</time></trkpt><trkpt lat="44.2249785" lon="11.4322956"><ele>586.0</ele><time>2026-04-12T11:00:50.974Z</time></trkpt><trkpt lat="44.22491" lon="11.4323512"><ele>586.0</ele><time>2026-04-12T11:00:51.975Z</time></trkpt><trkpt lat="44.2248446" lon="11.4324049"><ele>586.0</ele><time>2026-04-12T11:00:52.974Z</time></trkpt><trkpt lat="44.224782" lon="11.4324672"><ele>586.0</ele><time>2026-04-12T11:00:53.974Z</time></trkpt><trkpt lat="44.2247238" lon="11.4325403"><ele>586.0</ele><time>2026-04-12T11:00:54.975Z</time></trkpt><trkpt lat="44.2246754" lon="11.4326252"><ele>586.0</ele><time>2026-04-12T11:00:55.974Z</time></trkpt><trkpt lat="44.2246339" lon="11.4327236"><ele>584.8333333333334</ele><time>2026-04-12T11:00:56.974Z</time></trkpt><trkpt lat="44.2245961" lon="11.4328308"><ele>583.6666666666667</ele><time>2026-04-12T11:00:57.974Z</time></trkpt><trkpt lat="44.224566" lon="11.4329453"><ele>582.5</ele><time>2026-04-12T11:00:58.974Z</time></trkpt><trkpt lat="44.2245461" lon="11.4330588"><ele>581.3333333333334</ele><time>2026-04-12T11:00:59.974Z</time></trkpt><trkpt lat="44.2245418" lon="11.4331655"><ele>580.1666666666666</ele><time>2026-04-12T11:01:00.974Z</time></trkpt><trkpt lat="44.2245495" lon="11.4332729"><ele>579.0</ele><time>2026-04-12T11:01:01.974Z</time></trkpt><trkpt lat="44.2245617" lon="11.4333695"><ele>579.0</ele><time>2026-04-12T11:01:02.974Z</time></trkpt><trkpt lat="44.2245654" lon="11.4335256"><ele>579.0</ele><time>2026-04-12T11:01:04.973Z</time></trkpt><trkpt lat="44.224527" lon="11.4336349"><ele>579.0</ele><time>2026-04-12T11:01:06.974Z</time></trkpt><trkpt lat="44.2244351" lon="11.4336725"><ele>579.0</ele><time>2026-04-12T11:01:08.974Z</time></trkpt><trkpt lat="44.2243319" lon="11.4336239"><ele>579.0</ele><time>2026-04-12T11:01:10.974Z</time></trkpt><trkpt lat="44.2242243" lon="11.4336007"><ele>579.0</ele><time>2026-04-12T11:01:12.975Z</time></trkpt><trkpt lat="44.224119" lon="11.4336373"><ele>579.0</ele><time>2026-04-12T11:01:14.976Z</time></trkpt><trkpt lat="44.2240339" lon="11.4336858"><ele>579.0</ele><time>2026-04-12T11:01:16.974Z</time></trkpt><trkpt lat="44.2239556" lon="11.4336619"><ele>579.0</ele><time>2026-04-12T11:01:18.975Z</time></trkpt><trkpt lat="44.2239122" lon="11.4335442"><ele>579.0</ele><time>2026-04-12T11:01:20.974Z</time></trkpt><trkpt lat="44.2239246" lon="11.4333907"><ele>579.0</ele><time>2026-04-12T11:01:22.973Z</time></trkpt><trkpt lat="44.2239697" lon="11.4332358"><ele>579.0</ele><time>2026-04-12T11:01:24.975Z</time></trkpt><trkpt lat="44.2240017" lon="11.4330769"><ele>579.0</ele><time>2026-04-12T11:01:26.974Z</time></trkpt><trkpt lat="44.2240039" lon="11.4328971"><ele>579.0</ele><time>2026-04-12T11:01:28.973Z</time></trkpt><trkpt lat="44.2239965" lon="11.4327983"><ele>579.0</ele><time>2026-04-12T11:01:29.974Z</time></trkpt><trkpt lat="44.223984" lon="11.4326999"><ele>575.2857142857142</ele><time>2026-04-12T11:01:30.975Z</time></trkpt><trkpt lat="44.2239654" lon="11.4326077"><ele>571.5714285714286</ele><time>2026-04-12T11:01:31.977Z</time></trkpt><trkpt lat="44.2239423" lon="11.4325221"><ele>567.8571428571429</ele><time>2026-04-12T11:01:32.976Z</time></trkpt><trkpt lat="44.2239185" lon="11.4324361"><ele>564.1428571428571</ele><time>2026-04-12T11:01:33.976Z</time></trkpt><trkpt lat="44.2238978" lon="11.4323471"><ele>560.4285714285714</ele><time>2026-04-12T11:01:34.976Z</time></trkpt><trkpt lat="44.2238847" lon="11.4322563"><ele>556.7142857142857</ele><time>2026-04-12T11:01:35.975Z</time></trkpt><trkpt lat="44.2238765" lon="11.4321662"><ele>553.0</ele><time>2026-04-12T11:01:36.974Z</time></trkpt><trkpt lat="44.2238742" lon="11.4320738"><ele>552.4285714285714</ele><time>2026-04-12T11:01:37.976Z</time></trkpt><trkpt lat="44.2238706" lon="11.4319776"><ele>551.8571428571429</ele><time>2026-04-12T11:01:38.975Z</time></trkpt><trkpt lat="44.2238658" lon="11.431882"><ele>551.2857142857142</ele><time>2026-04-12T11:01:39.976Z</time></trkpt><trkpt lat="44.223862" lon="11.4317804"><ele>550.7142857142858</ele><time>2026-04-12T11:01:40.976Z</time></trkpt><trkpt lat="44.2238623" lon="11.4316748"><ele>550.1428571428571</ele><time>2026-04-12T11:01:41.974Z</time></trkpt><trkpt lat="44.2238576" lon="11.4315747"><ele>549.5714285714286</ele><time>2026-04-12T11:01:42.973Z</time></trkpt><trkpt lat="44.2238554" lon="11.4314793"><ele>549.0</ele><time>2026-04-12T11:01:43.974Z</time></trkpt><trkpt lat="44.2238555" lon="11.4313874"><ele>547.5</ele><time>2026-04-12T11:01:44.974Z</time></trkpt><trkpt lat="44.2238517" lon="11.431215"><ele>546.0</ele><time>2026-04-12T11:01:46.973Z</time></trkpt><trkpt lat="44.2238408" lon="11.4310546"><ele>544.5</ele><time>2026-04-12T11:01:48.973Z</time></trkpt><trkpt lat="44.2238184" lon="11.4308998"><ele>543.0</ele><time>2026-04-12T11:01:50.975Z</time></trkpt><trkpt lat="44.2237972" lon="11.4307475"><ele>543.0</ele><time>2026-04-12T11:01:52.975Z</time></trkpt><trkpt lat="44.2237849" lon="11.430592"><ele>543.0</ele><time>2026-04-12T11:01:54.974Z</time></trkpt><trkpt lat="44.2237643" lon="11.4304359"><ele>543.0</ele><time>2026-04-12T11:01:56.973Z</time></trkpt><trkpt lat="44.2237495" lon="11.4303437"><ele>543.0</ele><time>2026-04-12T11:01:57.974Z</time></trkpt><trkpt lat="44.2237316" lon="11.4302453"><ele>543.0</ele><time>2026-04-12T11:01:58.975Z</time></trkpt><trkpt lat="44.2237127" lon="11.4301387"><ele>543.0</ele><time>2026-04-12T11:01:59.973Z</time></trkpt><trkpt lat="44.2236938" lon="11.4300329"><ele>542.0</ele><time>2026-04-12T11:02:00.973Z</time></trkpt><trkpt lat="44.2236779" lon="11.429938"><ele>541.0</ele><time>2026-04-12T11:02:01.974Z</time></trkpt><trkpt lat="44.2236684" lon="11.4298502"><ele>540.0</ele><time>2026-04-12T11:02:02.975Z</time></trkpt><trkpt lat="44.2236527" lon="11.4296938"><ele>539.0</ele><time>2026-04-12T11:02:04.973Z</time></trkpt><trkpt lat="44.2236384" lon="11.4295992"><ele>538.0</ele><time>2026-04-12T11:02:05.974Z</time></trkpt><trkpt lat="44.2236154" lon="11.4294956"><ele>537.0</ele><time>2026-04-12T11:02:06.973Z</time></trkpt><trkpt lat="44.2235874" lon="11.4293976"><ele>536.0</ele><time>2026-04-12T11:02:07.973Z</time></trkpt><trkpt lat="44.2235596" lon="11.4293113"><ele>535.0</ele><time>2026-04-12T11:02:08.975Z</time></trkpt><trkpt lat="44.2235394" lon="11.429228"><ele>534.0</ele><time>2026-04-12T11:02:09.974Z</time></trkpt><trkpt lat="44.2235226" lon="11.4290654"><ele>533.0</ele><time>2026-04-12T11:02:11.973Z</time></trkpt><trkpt lat="44.223532" lon="11.4289704"><ele>532.0</ele><time>2026-04-12T11:02:12.974Z</time></trkpt><trkpt lat="44.2235521" lon="11.428863"><ele>531.0</ele><time>2026-04-12T11:02:13.973Z</time></trkpt><trkpt lat="44.2235714" lon="11.428752"><ele>529.6666666666666</ele><time>2026-04-12T11:02:14.975Z</time></trkpt><trkpt lat="44.2235795" lon="11.428651"><ele>528.3333333333334</ele><time>2026-04-12T11:02:15.974Z</time></trkpt><trkpt lat="44.2235869" lon="11.4285565"><ele>527.0</ele><time>2026-04-12T11:02:16.974Z</time></trkpt><trkpt lat="44.2235901" lon="11.4284655"><ele>525.6666666666667</ele><time>2026-04-12T11:02:17.975Z</time></trkpt><trkpt lat="44.2236148" lon="11.4282959"><ele>524.3333333333334</ele><time>2026-04-12T11:02:19.974Z</time></trkpt><trkpt lat="44.2236388" lon="11.4282119"><ele>523.0</ele><time>2026-04-12T11:02:20.974Z</time></trkpt><trkpt lat="44.2236749" lon="11.4281226"><ele>523.0</ele><time>2026-04-12T11:02:21.973Z</time></trkpt><trkpt lat="44.2237151" lon="11.428024"><ele>523.0</ele><time>2026-04-12T11:02:22.975Z</time></trkpt><trkpt lat="44.2237493" lon="11.4279232"><ele>523.0</ele><time>2026-04-12T11:02:23.974Z</time></trkpt><trkpt lat="44.2237797" lon="11.4278281"><ele>523.0</ele><time>2026-04-12T11:02:24.975Z</time></trkpt><trkpt lat="44.2238135" lon="11.4277378"><ele>523.0</ele><time>2026-04-12T11:02:25.975Z</time></trkpt><trkpt lat="44.22385" lon="11.4276571"><ele>523.0</ele><time>2026-04-12T11:02:26.974Z</time></trkpt><trkpt lat="44.2239198" lon="11.4275252"><ele>521.6666666666667</ele><time>2026-04-12T11:02:28.975Z</time></trkpt><trkpt lat="44.2239421" lon="11.4273775"><ele>520.3333333333334</ele><time>2026-04-12T11:02:30.974Z</time></trkpt><trkpt lat="44.223929" lon="11.4272749"><ele>519.0</ele><time>2026-04-12T11:02:31.973Z</time></trkpt><trkpt lat="44.2239063" lon="11.427164"><ele>517.6666666666666</ele><time>2026-04-12T11:02:32.973Z</time></trkpt><trkpt lat="44.2238757" lon="11.4270541"><ele>516.3333333333333</ele><time>2026-04-12T11:02:33.974Z</time></trkpt><trkpt lat="44.2238369" lon="11.4269501"><ele>515.0</ele><time>2026-04-12T11:02:34.973Z</time></trkpt><trkpt lat="44.2238032" lon="11.4268593"><ele>514.3333333333333</ele><time>2026-04-12T11:02:35.974Z</time></trkpt><trkpt lat="44.2237716" lon="11.4267761"><ele>513.6666666666666</ele><time>2026-04-12T11:02:36.975Z</time></trkpt><trkpt lat="44.2237154" lon="11.4266368"><ele>513.0</ele><time>2026-04-12T11:02:38.973Z</time></trkpt><trkpt lat="44.2236788" lon="11.4264841"><ele>512.3333333333334</ele><time>2026-04-12T11:02:40.974Z</time></trkpt><trkpt lat="44.2236743" lon="11.4263954"><ele>511.6666666666667</ele><time>2026-04-12T11:02:41.973Z</time></trkpt><trkpt lat="44.2236855" lon="11.4263019"><ele>511.0</ele><time>2026-04-12T11:02:42.975Z</time></trkpt><trkpt lat="44.2237131" lon="11.4261975"><ele>511.00000000000006</ele><time>2026-04-12T11:02:43.974Z</time></trkpt><trkpt lat="44.223743" lon="11.4260944"><ele>511.0</ele><time>2026-04-12T11:02:44.976Z</time></trkpt><trkpt lat="44.223767" lon="11.4259969"><ele>511.0</ele><time>2026-04-12T11:02:45.976Z</time></trkpt><trkpt lat="44.2237805" lon="11.4259005"><ele>511.0</ele><time>2026-04-12T11:02:46.974Z</time></trkpt><trkpt lat="44.2237858" lon="11.4258112"><ele>511.00000000000006</ele><time>2026-04-12T11:02:47.975Z</time></trkpt><trkpt lat="44.2237734" lon="11.4257246"><ele>511.0</ele><time>2026-04-12T11:02:48.975Z</time></trkpt><trkpt lat="44.2236778" lon="11.4256007"><ele>511.00000000000006</ele><time>2026-04-12T11:02:50.975Z</time></trkpt><trkpt lat="44.2236041" lon="11.4255776"><ele>511.0</ele><time>2026-04-12T11:02:51.974Z</time></trkpt><trkpt lat="44.2235198" lon="11.4255792"><ele>511.0</ele><time>2026-04-12T11:02:52.974Z</time></trkpt><trkpt lat="44.2234319" lon="11.4256053"><ele>511.0</ele><time>2026-04-12T11:02:53.974Z</time></trkpt><trkpt lat="44.2233379" lon="11.4256462"><ele>511.00000000000006</ele><time>2026-04-12T11:02:54.974Z</time></trkpt><trkpt lat="44.2232492" lon="11.4256776"><ele>511.0</ele><time>2026-04-12T11:02:55.975Z</time></trkpt><trkpt lat="44.2231737" lon="11.4256927"><ele>510.33333333333337</ele><time>2026-04-12T11:02:56.975Z</time></trkpt><trkpt lat="44.2231042" lon="11.4256888"><ele>509.6666666666667</ele><time>2026-04-12T11:02:57.973Z</time></trkpt><trkpt lat="44.2230287" lon="11.4256733"><ele>509.0</ele><time>2026-04-12T11:02:58.973Z</time></trkpt><trkpt lat="44.2229476" lon="11.4256512"><ele>508.33333333333337</ele><time>2026-04-12T11:02:59.974Z</time></trkpt><trkpt lat="44.2228624" lon="11.4256179"><ele>507.6666666666667</ele><time>2026-04-12T11:03:00.974Z</time></trkpt><trkpt lat="44.2227708" lon="11.425571"><ele>507.0</ele><time>2026-04-12T11:03:01.974Z</time></trkpt><trkpt lat="44.2226826" lon="11.4255194"><ele>507.8333333333333</ele><time>2026-04-12T11:03:02.976Z</time></trkpt><trkpt lat="44.2226049" lon="11.4254674"><ele>508.66666666666663</ele><time>2026-04-12T11:03:03.974Z</time></trkpt><trkpt lat="44.2225387" lon="11.4254242"><ele>509.5</ele><time>2026-04-12T11:03:04.976Z</time></trkpt><trkpt lat="44.2224785" lon="11.42539"><ele>510.3333333333333</ele><time>2026-04-12T11:03:05.974Z</time></trkpt><trkpt lat="44.2224164" lon="11.4253638"><ele>511.16666666666663</ele><time>2026-04-12T11:03:06.975Z</time></trkpt><trkpt lat="44.2223008" lon="11.4253625"><ele>512.0</ele><time>2026-04-12T11:03:08.974Z</time></trkpt><trkpt lat="44.2221953" lon="11.4254614"><ele>511.0</ele><time>2026-04-12T11:03:10.975Z</time></trkpt><trkpt lat="44.2221454" lon="11.4255463"><ele>510.00000000000006</ele><time>2026-04-12T11:03:11.974Z</time></trkpt><trkpt lat="44.2220981" lon="11.4256513"><ele>509.00000000000006</ele><time>2026-04-12T11:03:12.974Z</time></trkpt><trkpt lat="44.2220517" lon="11.425761"><ele>508.0</ele><time>2026-04-12T11:03:13.974Z</time></trkpt><trkpt lat="44.2220043" lon="11.4258825"><ele>507.0</ele><time>2026-04-12T11:03:14.973Z</time></trkpt><trkpt lat="44.221961" lon="11.4260046"><ele>507.0</ele><time>2026-04-12T11:03:15.973Z</time></trkpt><trkpt lat="44.2219202" lon="11.4261182"><ele>507.0</ele><time>2026-04-12T11:03:16.975Z</time></trkpt><trkpt lat="44.2218803" lon="11.4262208"><ele>507.0</ele><time>2026-04-12T11:03:17.973Z</time></trkpt><trkpt lat="44.221846" lon="11.4263158"><ele>507.0</ele><time>2026-04-12T11:03:18.973Z</time></trkpt><trkpt lat="44.2218183" lon="11.4264114"><ele>507.0</ele><time>2026-04-12T11:03:19.975Z</time></trkpt><trkpt lat="44.2217891" lon="11.4265062"><ele>507.0</ele><time>2026-04-12T11:03:20.976Z</time></trkpt><trkpt lat="44.2217566" lon="11.4265908"><ele>505.20000000000005</ele><time>2026-04-12T11:03:21.975Z</time></trkpt><trkpt lat="44.2216801" lon="11.4267071"><ele>503.40000000000003</ele><time>2026-04-12T11:03:23.976Z</time></trkpt><trkpt lat="44.2215655" lon="11.426769"><ele>501.59999999999997</ele><time>2026-04-12T11:03:25.974Z</time></trkpt><trkpt lat="44.2214907" lon="11.4267739"><ele>499.79999999999995</ele><time>2026-04-12T11:03:26.974Z</time></trkpt><trkpt lat="44.2214065" lon="11.4267645"><ele>498.0</ele><time>2026-04-12T11:03:27.976Z</time></trkpt><trkpt lat="44.2213139" lon="11.4267427"><ele>497.6666666666667</ele><time>2026-04-12T11:03:28.976Z</time></trkpt><trkpt lat="44.2212166" lon="11.4267132"><ele>497.33333333333337</ele><time>2026-04-12T11:03:29.974Z</time></trkpt><trkpt lat="44.2211219" lon="11.4266806"><ele>497.0</ele><time>2026-04-12T11:03:30.977Z</time></trkpt><trkpt lat="44.2210352" lon="11.4266522"><ele>496.6666666666667</ele><time>2026-04-12T11:03:31.974Z</time></trkpt><trkpt lat="44.2209525" lon="11.4266393"><ele>496.33333333333337</ele><time>2026-04-12T11:03:32.974Z</time></trkpt><trkpt lat="44.2208738" lon="11.4266513"><ele>496.0</ele><time>2026-04-12T11:03:33.975Z</time></trkpt><trkpt lat="44.2208077" lon="11.4266857"><ele>496.00000000000006</ele><time>2026-04-12T11:03:34.975Z</time></trkpt><trkpt lat="44.2207531" lon="11.4267562"><ele>496.0</ele><time>2026-04-12T11:03:35.975Z</time></trkpt><trkpt lat="44.2207204" lon="11.4268435"><ele>496.0</ele><time>2026-04-12T11:03:36.975Z</time></trkpt><trkpt lat="44.2207064" lon="11.4269364"><ele>496.0</ele><time>2026-04-12T11:03:37.974Z</time></trkpt><trkpt lat="44.2207033" lon="11.4270402"><ele>496.00000000000006</ele><time>2026-04-12T11:03:38.974Z</time></trkpt><trkpt lat="44.2207113" lon="11.4271345"><ele>496.0</ele><time>2026-04-12T11:03:39.974Z</time></trkpt><trkpt lat="44.2207566" lon="11.4272903"><ele>494.4</ele><time>2026-04-12T11:03:41.975Z</time></trkpt><trkpt lat="44.2207947" lon="11.4273734"><ele>492.8</ele><time>2026-04-12T11:03:42.974Z</time></trkpt><trkpt lat="44.220842" lon="11.4274664"><ele>491.19999999999993</ele><time>2026-04-12T11:03:43.973Z</time></trkpt><trkpt lat="44.2209001" lon="11.4275747"><ele>489.59999999999997</ele><time>2026-04-12T11:03:44.974Z</time></trkpt><trkpt lat="44.2209597" lon="11.4277003"><ele>488.0</ele><time>2026-04-12T11:03:45.974Z</time></trkpt><trkpt lat="44.2210105" lon="11.427809"><ele>487.99999999999994</ele><time>2026-04-12T11:03:46.975Z</time></trkpt><trkpt lat="44.2210557" lon="11.4278967"><ele>488.0</ele><time>2026-04-12T11:03:47.973Z</time></trkpt><trkpt lat="44.221091" lon="11.4279787"><ele>488.0</ele><time>2026-04-12T11:03:48.973Z</time></trkpt><trkpt lat="44.2211138" lon="11.4280616"><ele>488.0</ele><time>2026-04-12T11:03:49.974Z</time></trkpt><trkpt lat="44.2210957" lon="11.4282307"><ele>487.99999999999994</ele><time>2026-04-12T11:03:51.973Z</time></trkpt><trkpt lat="44.2210501" lon="11.4283113"><ele>488.0</ele><time>2026-04-12T11:03:52.974Z</time></trkpt><trkpt lat="44.2209935" lon="11.428394"><ele>487.3333333333333</ele><time>2026-04-12T11:03:53.975Z</time></trkpt><trkpt lat="44.2209348" lon="11.4284887"><ele>486.66666666666663</ele><time>2026-04-12T11:03:54.974Z</time></trkpt><trkpt lat="44.2208794" lon="11.4285948"><ele>486.0</ele><time>2026-04-12T11:03:55.976Z</time></trkpt><trkpt lat="44.2208209" lon="11.4286895"><ele>485.33333333333337</ele><time>2026-04-12T11:03:56.975Z</time></trkpt><trkpt lat="44.2207578" lon="11.4287651"><ele>484.6666666666667</ele><time>2026-04-12T11:03:57.974Z</time></trkpt><trkpt lat="44.2206918" lon="11.4288285"><ele>484.0</ele><time>2026-04-12T11:03:58.974Z</time></trkpt><trkpt lat="44.2206217" lon="11.4288656"><ele>483.6666666666667</ele><time>2026-04-12T11:03:59.975Z</time></trkpt><trkpt lat="44.2205485" lon="11.4288803"><ele>483.33333333333337</ele><time>2026-04-12T11:04:00.975Z</time></trkpt><trkpt lat="44.2204675" lon="11.4288742"><ele>483.0</ele><time>2026-04-12T11:04:01.974Z</time></trkpt><trkpt lat="44.2203775" lon="11.4288517"><ele>482.66666666666663</ele><time>2026-04-12T11:04:02.975Z</time></trkpt><trkpt lat="44.2202873" lon="11.4288246"><ele>482.3333333333333</ele><time>2026-04-12T11:04:03.975Z</time></trkpt><trkpt lat="44.2201992" lon="11.4288023"><ele>482.0</ele><time>2026-04-12T11:04:04.973Z</time></trkpt><trkpt lat="44.2201135" lon="11.4287807"><ele>482.0</ele><time>2026-04-12T11:04:05.974Z</time></trkpt><trkpt lat="44.2200259" lon="11.4287637"><ele>482.00000000000006</ele><time>2026-04-12T11:04:06.975Z</time></trkpt><trkpt lat="44.2199362" lon="11.4287581"><ele>482.00000000000006</ele><time>2026-04-12T11:04:07.976Z</time></trkpt><trkpt lat="44.219844" lon="11.4287755"><ele>482.0</ele><time>2026-04-12T11:04:08.975Z</time></trkpt><trkpt lat="44.2197504" lon="11.4288248"><ele>482.0</ele><time>2026-04-12T11:04:09.975Z</time></trkpt><trkpt lat="44.2196528" lon="11.4288821"><ele>480.20000000000005</ele><time>2026-04-12T11:04:10.973Z</time></trkpt><trkpt lat="44.2195587" lon="11.4289296"><ele>478.40000000000003</ele><time>2026-04-12T11:04:11.974Z</time></trkpt><trkpt lat="44.2194699" lon="11.4289732"><ele>476.59999999999997</ele><time>2026-04-12T11:04:12.974Z</time></trkpt><trkpt lat="44.2193853" lon="11.4290241"><ele>474.79999999999995</ele><time>2026-04-12T11:04:13.978Z</time></trkpt><trkpt lat="44.2193084" lon="11.42909"><ele>473.0</ele><time>2026-04-12T11:04:14.974Z</time></trkpt><trkpt lat="44.2192441" lon="11.4291617"><ele>473.0</ele><time>2026-04-12T11:04:15.975Z</time></trkpt><trkpt lat="44.219185" lon="11.4292416"><ele>472.99999999999994</ele><time>2026-04-12T11:04:16.974Z</time></trkpt><trkpt lat="44.2191235" lon="11.4293326"><ele>472.99999999999994</ele><time>2026-04-12T11:04:17.974Z</time></trkpt><trkpt lat="44.2190595" lon="11.4294422"><ele>473.0</ele><time>2026-04-12T11:04:18.975Z</time></trkpt><trkpt lat="44.218999" lon="11.4295395"><ele>473.0</ele><time>2026-04-12T11:04:19.974Z</time></trkpt><trkpt lat="44.2189356" lon="11.4296257"><ele>471.8333333333333</ele><time>2026-04-12T11:04:20.974Z</time></trkpt><trkpt lat="44.2188732" lon="11.4296846"><ele>470.66666666666663</ele><time>2026-04-12T11:04:21.974Z</time></trkpt><trkpt lat="44.2188107" lon="11.4297246"><ele>469.5</ele><time>2026-04-12T11:04:22.974Z</time></trkpt><trkpt lat="44.2186939" lon="11.429772"><ele>468.33333333333337</ele><time>2026-04-12T11:04:24.975Z</time></trkpt><trkpt lat="44.2186251" lon="11.4297833"><ele>467.1666666666667</ele><time>2026-04-12T11:04:25.973Z</time></trkpt><trkpt lat="44.2185567" lon="11.4297858"><ele>466.0</ele><time>2026-04-12T11:04:26.976Z</time></trkpt><trkpt lat="44.2184804" lon="11.4297832"><ele>466.0</ele><time>2026-04-12T11:04:27.975Z</time></trkpt><trkpt lat="44.2183979" lon="11.4297767"><ele>466.0</ele><time>2026-04-12T11:04:28.974Z</time></trkpt><trkpt lat="44.2183055" lon="11.4297715"><ele>466.0</ele><time>2026-04-12T11:04:29.974Z</time></trkpt><trkpt lat="44.2182096" lon="11.4297598"><ele>466.0</ele><time>2026-04-12T11:04:30.973Z</time></trkpt><trkpt lat="44.2181089" lon="11.4297433"><ele>466.0</ele><time>2026-04-12T11:04:31.974Z</time></trkpt><trkpt lat="44.2179988" lon="11.4297304"><ele>465.25</ele><time>2026-04-12T11:04:32.973Z</time></trkpt><trkpt lat="44.2178825" lon="11.4297236"><ele>464.5</ele><time>2026-04-12T11:04:33.973Z</time></trkpt><trkpt lat="44.2177662" lon="11.4297388"><ele>463.75</ele><time>2026-04-12T11:04:34.974Z</time></trkpt><trkpt lat="44.217641" lon="11.4297848"><ele>463.0</ele><time>2026-04-12T11:04:35.974Z</time></trkpt><trkpt lat="44.2175232" lon="11.4298525"><ele>463.00000000000006</ele><time>2026-04-12T11:04:36.975Z</time></trkpt><trkpt lat="44.2174247" lon="11.429927"><ele>463.0</ele><time>2026-04-12T11:04:37.973Z</time></trkpt><trkpt lat="44.217339" lon="11.4300037"><ele>463.0</ele><time>2026-04-12T11:04:38.975Z</time></trkpt><trkpt lat="44.2172692" lon="11.4300773"><ele>463.0</ele><time>2026-04-12T11:04:39.973Z</time></trkpt><trkpt lat="44.2172157" lon="11.4301461"><ele>463.00000000000006</ele><time>2026-04-12T11:04:40.974Z</time></trkpt><trkpt lat="44.2171715" lon="11.4302137"><ele>463.0</ele><time>2026-04-12T11:04:41.973Z</time></trkpt><trkpt lat="44.2171093" lon="11.4303506"><ele>464.0</ele><time>2026-04-12T11:04:43.976Z</time></trkpt><trkpt lat="44.217045" lon="11.4304472"><ele>464.99999999999994</ele><time>2026-04-12T11:04:45.974Z</time></trkpt><trkpt lat="44.216965" lon="11.4305024"><ele>465.99999999999994</ele><time>2026-04-12T11:04:47.974Z</time></trkpt><trkpt lat="44.2168924" lon="11.4305927"><ele>467.0</ele><time>2026-04-12T11:04:49.975Z</time></trkpt><trkpt lat="44.216812" lon="11.4307311"><ele>468.0</ele><time>2026-04-12T11:04:51.974Z</time></trkpt><trkpt lat="44.2167697" lon="11.4308161"><ele>468.0</ele><time>2026-04-12T11:04:52.974Z</time></trkpt><trkpt lat="44.216726" lon="11.4309051"><ele>468.0</ele><time>2026-04-12T11:04:53.975Z</time></trkpt><trkpt lat="44.2166825" lon="11.4309956"><ele>468.0</ele><time>2026-04-12T11:04:54.974Z</time></trkpt><trkpt lat="44.216642" lon="11.4310869"><ele>468.0</ele><time>2026-04-12T11:04:55.976Z</time></trkpt><trkpt lat="44.2166028" lon="11.4311797"><ele>468.0</ele><time>2026-04-12T11:04:56.975Z</time></trkpt><trkpt lat="44.2165646" lon="11.4312723"><ele>468.0</ele><time>2026-04-12T11:04:57.975Z</time></trkpt><trkpt lat="44.2165256" lon="11.4313637"><ele>470.5714285714286</ele><time>2026-04-12T11:04:58.974Z</time></trkpt><trkpt lat="44.2164835" lon="11.4314503"><ele>473.1428571428572</ele><time>2026-04-12T11:04:59.974Z</time></trkpt><trkpt lat="44.2164381" lon="11.4315321"><ele>475.7142857142857</ele><time>2026-04-12T11:05:00.975Z</time></trkpt><trkpt lat="44.2163892" lon="11.4316031"><ele>478.28571428571433</ele><time>2026-04-12T11:05:01.973Z</time></trkpt><trkpt lat="44.2163364" lon="11.4316644"><ele>480.8571428571429</ele><time>2026-04-12T11:05:02.975Z</time></trkpt><trkpt lat="44.216281" lon="11.4317163"><ele>483.42857142857144</ele><time>2026-04-12T11:05:03.973Z</time></trkpt><trkpt lat="44.2162228" lon="11.4317632"><ele>486.0</ele><time>2026-04-12T11:05:04.973Z</time></trkpt><trkpt lat="44.2161651" lon="11.4318101"><ele>486.0</ele><time>2026-04-12T11:05:05.975Z</time></trkpt><trkpt lat="44.2161029" lon="11.4318629"><ele>486.0</ele><time>2026-04-12T11:05:06.974Z</time></trkpt><trkpt lat="44.2160392" lon="11.4319256"><ele>486.0</ele><time>2026-04-12T11:05:07.974Z</time></trkpt><trkpt lat="44.2159778" lon="11.4319998"><ele>486.0</ele><time>2026-04-12T11:05:08.974Z</time></trkpt><trkpt lat="44.2159214" lon="11.4320821"><ele>486.0</ele><time>2026-04-12T11:05:09.974Z</time></trkpt><trkpt lat="44.2158642" lon="11.4321699"><ele>486.0</ele><time>2026-04-12T11:05:10.973Z</time></trkpt><trkpt lat="44.2158007" lon="11.4322579"><ele>485.20000000000005</ele><time>2026-04-12T11:05:11.973Z</time></trkpt><trkpt lat="44.2157366" lon="11.4323374"><ele>484.40000000000003</ele><time>2026-04-12T11:05:12.974Z</time></trkpt><trkpt lat="44.2156701" lon="11.432409"><ele>483.6</ele><time>2026-04-12T11:05:13.974Z</time></trkpt><trkpt lat="44.215594" lon="11.4324828"><ele>482.8</ele><time>2026-04-12T11:05:14.975Z</time></trkpt><trkpt lat="44.2155097" lon="11.4325567"><ele>482.0</ele><time>2026-04-12T11:05:15.975Z</time></trkpt><trkpt lat="44.2154195" lon="11.4326266"><ele>485.40000000000003</ele><time>2026-04-12T11:05:16.973Z</time></trkpt><trkpt lat="44.2153198" lon="11.4326765"><ele>488.80000000000007</ele><time>2026-04-12T11:05:17.973Z</time></trkpt><trkpt lat="44.2152103" lon="11.4326891"><ele>492.2</ele><time>2026-04-12T11:05:18.974Z</time></trkpt><trkpt lat="44.2151053" lon="11.4326654"><ele>495.6</ele><time>2026-04-12T11:05:19.973Z</time></trkpt><trkpt lat="44.2150038" lon="11.4326145"><ele>499.0</ele><time>2026-04-12T11:05:20.975Z</time></trkpt><trkpt lat="44.2149022" lon="11.4325411"><ele>501.4</ele><time>2026-04-12T11:05:21.974Z</time></trkpt><trkpt lat="44.214811" lon="11.4324567"><ele>503.79999999999995</ele><time>2026-04-12T11:05:22.973Z</time></trkpt><trkpt lat="44.214721" lon="11.4323846"><ele>506.20000000000005</ele><time>2026-04-12T11:05:23.973Z</time></trkpt><trkpt lat="44.2146346" lon="11.43234"><ele>508.6</ele><time>2026-04-12T11:05:24.973Z</time></trkpt><trkpt lat="44.2145531" lon="11.4323216"><ele>511.0</ele><time>2026-04-12T11:05:25.974Z</time></trkpt><trkpt lat="44.214472" lon="11.4323329"><ele>511.00000000000006</ele><time>2026-04-12T11:05:26.973Z</time></trkpt><trkpt lat="44.2143959" lon="11.4323711"><ele>511.0</ele><time>2026-04-12T11:05:27.973Z</time></trkpt><trkpt lat="44.2143157" lon="11.4324032"><ele>511.0</ele><time>2026-04-12T11:05:28.973Z</time></trkpt><trkpt lat="44.2142264" lon="11.4324186"><ele>511.0</ele><time>2026-04-12T11:05:29.975Z</time></trkpt><trkpt lat="44.2141438" lon="11.4324146"><ele>511.00000000000006</ele><time>2026-04-12T11:05:30.973Z</time></trkpt><trkpt lat="44.21408" lon="11.4324098"><ele>511.0</ele><time>2026-04-12T11:05:31.974Z</time></trkpt><trkpt lat="44.2140096" lon="11.4324135"><ele>515.6666666666667</ele><time>2026-04-12T11:05:34.973Z</time></trkpt><trkpt lat="44.2139484" lon="11.4324592"><ele>520.3333333333334</ele><time>2026-04-12T11:05:36.974Z</time></trkpt><trkpt lat="44.2138657" lon="11.4325426"><ele>525.0</ele><time>2026-04-12T11:05:38.974Z</time></trkpt><trkpt lat="44.2138057" lon="11.4325706"><ele>529.6666666666666</ele><time>2026-04-12T11:05:39.974Z</time></trkpt><trkpt lat="44.2137297" lon="11.4325807"><ele>534.3333333333333</ele><time>2026-04-12T11:05:40.974Z</time></trkpt><trkpt lat="44.2136444" lon="11.4325774"><ele>539.0</ele><time>2026-04-12T11:05:41.973Z</time></trkpt><trkpt lat="44.2135528" lon="11.4325558"><ele>539.0</ele><time>2026-04-12T11:05:42.973Z</time></trkpt><trkpt lat="44.2134614" lon="11.4325492"><ele>539.0</ele><time>2026-04-12T11:05:43.974Z</time></trkpt><trkpt lat="44.2133896" lon="11.4325502"><ele>539.0</ele><time>2026-04-12T11:05:44.974Z</time></trkpt><trkpt lat="44.2133132" lon="11.4326105"><ele>539.0</ele><time>2026-04-12T11:05:46.973Z</time></trkpt><trkpt lat="44.2133208" lon="11.4327035"><ele>539.0</ele><time>2026-04-12T11:05:50.976Z</time></trkpt><trkpt lat="44.2133794" lon="11.4327457"><ele>539.0</ele><time>2026-04-12T11:05:53.974Z</time></trkpt><trkpt lat="44.2134564" lon="11.4327202"><ele>539.0</ele><time>2026-04-12T11:05:55.974Z</time></trkpt><trkpt lat="44.2135506" lon="11.432708"><ele>539.0</ele><time>2026-04-12T11:05:57.974Z</time></trkpt><trkpt lat="44.2136295" lon="11.4327479"><ele>539.0</ele><time>2026-04-12T11:05:59.974Z</time></trkpt><trkpt lat="44.213673" lon="11.4328363"><ele>539.0</ele><time>2026-04-12T11:06:39.975Z</time></trkpt><trkpt lat="44.2137359" lon="11.4328989"><ele>539.0</ele><time>2026-04-12T11:06:43.977Z</time></trkpt><trkpt lat="44.2137951" lon="11.4329656"><ele>539.0</ele><time>2026-04-12T11:06:45.974Z</time></trkpt><trkpt lat="44.2139119" lon="11.4330641"><ele>538.8</ele><time>2026-04-12T11:06:47.974Z</time></trkpt><trkpt lat="44.2139876" lon="11.4331342"><ele>538.5999999999999</ele><time>2026-04-12T11:06:48.974Z</time></trkpt><trkpt lat="44.2140656" lon="11.4332196"><ele>538.4</ele><time>2026-04-12T11:06:49.974Z</time></trkpt><trkpt lat="44.2141325" lon="11.4333184"><ele>538.1999999999999</ele><time>2026-04-12T11:06:50.976Z</time></trkpt><trkpt lat="44.2142075" lon="11.4334165"><ele>538.0</ele><time>2026-04-12T11:06:51.975Z</time></trkpt><trkpt lat="44.2142799" lon="11.4335241"><ele>533.8333333333334</ele><time>2026-04-12T11:06:52.975Z</time></trkpt><trkpt lat="44.2143546" lon="11.4336336"><ele>529.6666666666667</ele><time>2026-04-12T11:06:53.975Z</time></trkpt><trkpt lat="44.2144148" lon="11.433747"><ele>525.5</ele><time>2026-04-12T11:06:54.974Z</time></trkpt><trkpt lat="44.2144657" lon="11.4338449"><ele>521.3333333333334</ele><time>2026-04-12T11:06:55.975Z</time></trkpt><trkpt lat="44.2145023" lon="11.4339354"><ele>517.1666666666666</ele><time>2026-04-12T11:06:56.975Z</time></trkpt><trkpt lat="44.2145205" lon="11.4340355"><ele>513.0</ele><time>2026-04-12T11:06:57.974Z</time></trkpt><trkpt lat="44.214536" lon="11.4341564"><ele>513.0</ele><time>2026-04-12T11:06:58.973Z</time></trkpt><trkpt lat="44.2145421" lon="11.4343039"><ele>513.0</ele><time>2026-04-12T11:06:59.974Z</time></trkpt><trkpt lat="44.2145503" lon="11.4344612"><ele>513.0</ele><time>2026-04-12T11:07:00.973Z</time></trkpt><trkpt lat="44.2145657" lon="11.4345986"><ele>513.0</ele><time>2026-04-12T11:07:01.974Z</time></trkpt><trkpt lat="44.2145662" lon="11.4347181"><ele>513.0</ele><time>2026-04-12T11:07:02.974Z</time></trkpt><trkpt lat="44.2145499" lon="11.4348252"><ele>513.0</ele><time>2026-04-12T11:07:03.975Z</time></trkpt><trkpt lat="44.2145129" lon="11.434917"><ele>513.0</ele><time>2026-04-12T11:07:04.976Z</time></trkpt><trkpt lat="44.2144377" lon="11.4350085"><ele>513.0</ele><time>2026-04-12T11:07:05.972Z</time></trkpt><trkpt lat="44.214375" lon="11.4351145"><ele>513.0</ele><time>2026-04-12T11:07:06.973Z</time></trkpt><trkpt lat="44.214346" lon="11.4352379"><ele>513.0</ele><time>2026-04-12T11:07:07.973Z</time></trkpt><trkpt lat="44.214355" lon="11.4353756"><ele>512.0</ele><time>2026-04-12T11:07:08.975Z</time></trkpt><trkpt lat="44.2143855" lon="11.4355164"><ele>511.0</ele><time>2026-04-12T11:07:09.973Z</time></trkpt><trkpt lat="44.2144218" lon="11.4356661"><ele>510.0</ele><time>2026-04-12T11:07:10.974Z</time></trkpt><trkpt lat="44.2144449" lon="11.4358277"><ele>509.0</ele><time>2026-04-12T11:07:11.973Z</time></trkpt><trkpt lat="44.2144598" lon="11.4359967"><ele>509.0</ele><time>2026-04-12T11:07:12.975Z</time></trkpt><trkpt lat="44.2144616" lon="11.4361751"><ele>509.0</ele><time>2026-04-12T11:07:13.974Z</time></trkpt><trkpt lat="44.2144588" lon="11.4363496"><ele>509.0</ele><time>2026-04-12T11:07:14.974Z</time></trkpt><trkpt lat="44.2144569" lon="11.436525"><ele>509.0</ele><time>2026-04-12T11:07:15.975Z</time></trkpt><trkpt lat="44.2144555" lon="11.4367088"><ele>509.75</ele><time>2026-04-12T11:07:16.974Z</time></trkpt><trkpt lat="44.2144591" lon="11.4369029"><ele>510.5</ele><time>2026-04-12T11:07:17.973Z</time></trkpt><trkpt lat="44.2144804" lon="11.437102"><ele>511.25</ele><time>2026-04-12T11:07:18.974Z</time></trkpt><trkpt lat="44.214532" lon="11.4372971"><ele>512.0</ele><time>2026-04-12T11:07:19.974Z</time></trkpt><trkpt lat="44.2146092" lon="11.4374839"><ele>515.0</ele><time>2026-04-12T11:07:20.974Z</time></trkpt><trkpt lat="44.2146934" lon="11.4376705"><ele>518.0</ele><time>2026-04-12T11:07:21.974Z</time></trkpt><trkpt lat="44.2147478" lon="11.4378703"><ele>521.0</ele><time>2026-04-12T11:07:22.975Z</time></trkpt><trkpt lat="44.2147728" lon="11.4380808"><ele>522.3333333333333</ele><time>2026-04-12T11:07:23.973Z</time></trkpt><trkpt lat="44.2147716" lon="11.4382952"><ele>523.6666666666666</ele><time>2026-04-12T11:07:24.973Z</time></trkpt><trkpt lat="44.2147565" lon="11.4385181"><ele>525.0</ele><time>2026-04-12T11:07:25.975Z</time></trkpt><trkpt lat="44.2147563" lon="11.4387319"><ele>525.75</ele><time>2026-04-12T11:07:26.975Z</time></trkpt><trkpt lat="44.2147979" lon="11.4389215"><ele>526.5</ele><time>2026-04-12T11:07:27.973Z</time></trkpt><trkpt lat="44.2148612" lon="11.4390932"><ele>527.25</ele><time>2026-04-12T11:07:28.974Z</time></trkpt><trkpt lat="44.2149239" lon="11.439261"><ele>528.0</ele><time>2026-04-12T11:07:29.977Z</time></trkpt><trkpt lat="44.2149514" lon="11.4394462"><ele>517.6666666666666</ele><time>2026-04-12T11:07:30.974Z</time></trkpt><trkpt lat="44.2149497" lon="11.4396535"><ele>507.3333333333333</ele><time>2026-04-12T11:07:31.974Z</time></trkpt><trkpt lat="44.2149447" lon="11.4398691"><ele>497.0</ele><time>2026-04-12T11:07:32.974Z</time></trkpt><trkpt lat="44.2149394" lon="11.4400879"><ele>497.0</ele><time>2026-04-12T11:07:33.973Z</time></trkpt><trkpt lat="44.214931" lon="11.4402976"><ele>497.0</ele><time>2026-04-12T11:07:34.973Z</time></trkpt><trkpt lat="44.2149098" lon="11.4404988"><ele>497.0</ele><time>2026-04-12T11:07:35.973Z</time></trkpt><trkpt lat="44.2148639" lon="11.4406848"><ele>497.0</ele><time>2026-04-12T11:07:36.977Z</time></trkpt><trkpt lat="44.2147953" lon="11.4408615"><ele>501.75</ele><time>2026-04-12T11:07:37.974Z</time></trkpt><trkpt lat="44.214729" lon="11.4410394"><ele>506.5</ele><time>2026-04-12T11:07:38.974Z</time></trkpt><trkpt lat="44.2146858" lon="11.4412252"><ele>511.25</ele><time>2026-04-12T11:07:39.974Z</time></trkpt><trkpt lat="44.2146762" lon="11.4414114"><ele>516.0</ele><time>2026-04-12T11:07:40.974Z</time></trkpt><trkpt lat="44.2146947" lon="11.441602"><ele>516.5</ele><time>2026-04-12T11:07:41.975Z</time></trkpt><trkpt lat="44.2147327" lon="11.4417901"><ele>517.0</ele><time>2026-04-12T11:07:42.973Z</time></trkpt><trkpt lat="44.2147784" lon="11.4419783"><ele>517.5</ele><time>2026-04-12T11:07:43.973Z</time></trkpt><trkpt lat="44.2148204" lon="11.4421722"><ele>518.0</ele><time>2026-04-12T11:07:44.973Z</time></trkpt><trkpt lat="44.2148624" lon="11.4423677"><ele>515.5</ele><time>2026-04-12T11:07:45.973Z</time></trkpt><trkpt lat="44.2149057" lon="11.4425664"><ele>513.0</ele><time>2026-04-12T11:07:46.973Z</time></trkpt><trkpt lat="44.2149498" lon="11.4427672"><ele>510.5</ele><time>2026-04-12T11:07:47.976Z</time></trkpt><trkpt lat="44.2149975" lon="11.4429593"><ele>508.0</ele><time>2026-04-12T11:07:48.975Z</time></trkpt><trkpt lat="44.2150613" lon="11.4431317"><ele>508.0</ele><time>2026-04-12T11:07:49.975Z</time></trkpt><trkpt lat="44.2151466" lon="11.443286"><ele>508.0</ele><time>2026-04-12T11:07:50.974Z</time></trkpt><trkpt lat="44.2152408" lon="11.4434331"><ele>508.0</ele><time>2026-04-12T11:07:51.973Z</time></trkpt><trkpt lat="44.2153419" lon="11.4435765"><ele>508.0</ele><time>2026-04-12T11:07:52.973Z</time></trkpt><trkpt lat="44.2154405" lon="11.4437214"><ele>510.5</ele><time>2026-04-12T11:07:53.975Z</time></trkpt><trkpt lat="44.2155335" lon="11.4438693"><ele>513.0</ele><time>2026-04-12T11:07:54.973Z</time></trkpt><trkpt lat="44.2156101" lon="11.444022"><ele>515.5</ele><time>2026-04-12T11:07:55.974Z</time></trkpt><trkpt lat="44.2156633" lon="11.4441793"><ele>518.0</ele><time>2026-04-12T11:07:56.974Z</time></trkpt><trkpt lat="44.2156762" lon="11.4443411"><ele>518.0</ele><time>2026-04-12T11:07:57.972Z</time></trkpt><trkpt lat="44.2156524" lon="11.4444999"><ele>518.0</ele><time>2026-04-12T11:07:58.973Z</time></trkpt><trkpt lat="44.2155892" lon="11.4446454"><ele>518.0</ele><time>2026-04-12T11:07:59.973Z</time></trkpt><trkpt lat="44.2155121" lon="11.4447769"><ele>518.0</ele><time>2026-04-12T11:08:00.973Z</time></trkpt><trkpt lat="44.2154408" lon="11.4449092"><ele>518.25</ele><time>2026-04-12T11:08:01.974Z</time></trkpt><trkpt lat="44.2153993" lon="11.4450526"><ele>518.5</ele><time>2026-04-12T11:08:02.974Z</time></trkpt><trkpt lat="44.2153874" lon="11.4452059"><ele>518.75</ele><time>2026-04-12T11:08:03.973Z</time></trkpt><trkpt lat="44.215403" lon="11.4453682"><ele>519.0</ele><time>2026-04-12T11:08:04.973Z</time></trkpt><trkpt lat="44.215439" lon="11.4455351"><ele>519.25</ele><time>2026-04-12T11:08:05.973Z</time></trkpt><trkpt lat="44.2154808" lon="11.4457055"><ele>519.5</ele><time>2026-04-12T11:08:06.974Z</time></trkpt><trkpt lat="44.2155192" lon="11.4458821"><ele>519.75</ele><time>2026-04-12T11:08:07.974Z</time></trkpt><trkpt lat="44.2155565" lon="11.4460628"><ele>520.0</ele><time>2026-04-12T11:08:08.976Z</time></trkpt><trkpt lat="44.2155944" lon="11.446248"><ele>520.75</ele><time>2026-04-12T11:08:09.975Z</time></trkpt><trkpt lat="44.2156309" lon="11.4464375"><ele>521.5</ele><time>2026-04-12T11:08:10.974Z</time></trkpt><trkpt lat="44.2156791" lon="11.4466189"><ele>522.25</ele><time>2026-04-12T11:08:11.972Z</time></trkpt><trkpt lat="44.2157474" lon="11.4467881"><ele>523.0</ele><time>2026-04-12T11:08:12.973Z</time></trkpt><trkpt lat="44.2158441" lon="11.4469391"><ele>520.6666666666667</ele><time>2026-04-12T11:08:13.973Z</time></trkpt><trkpt lat="44.215952" lon="11.4470824"><ele>518.3333333333334</ele><time>2026-04-12T11:08:14.974Z</time></trkpt><trkpt lat="44.2160675" lon="11.4472229"><ele>516.0</ele><time>2026-04-12T11:08:15.975Z</time></trkpt><trkpt lat="44.2161813" lon="11.4473697"><ele>516.0</ele><time>2026-04-12T11:08:16.973Z</time></trkpt><trkpt lat="44.2162916" lon="11.4475117"><ele>516.0</ele><time>2026-04-12T11:08:17.973Z</time></trkpt><trkpt lat="44.2164013" lon="11.44764"><ele>516.0</ele><time>2026-04-12T11:08:18.972Z</time></trkpt><trkpt lat="44.2164958" lon="11.4477478"><ele>516.0</ele><time>2026-04-12T11:08:19.972Z</time></trkpt><trkpt lat="44.2166001" lon="11.4478228"><ele>512.5</ele><time>2026-04-12T11:08:20.973Z</time></trkpt><trkpt lat="44.2167261" lon="11.4478657"><ele>509.0</ele><time>2026-04-12T11:08:21.972Z</time></trkpt><trkpt lat="44.216865" lon="11.4478933"><ele>505.5</ele><time>2026-04-12T11:08:22.973Z</time></trkpt><trkpt lat="44.2170098" lon="11.4479214"><ele>502.0</ele><time>2026-04-12T11:08:23.972Z</time></trkpt><trkpt lat="44.2171616" lon="11.4479576"><ele>504.0</ele><time>2026-04-12T11:08:24.973Z</time></trkpt><trkpt lat="44.2173138" lon="11.448003"><ele>506.0</ele><time>2026-04-12T11:08:25.972Z</time></trkpt><trkpt lat="44.2174608" lon="11.4480561"><ele>508.0</ele><time>2026-04-12T11:08:26.973Z</time></trkpt><trkpt lat="44.2176067" lon="11.4481141"><ele>508.0</ele><time>2026-04-12T11:08:27.972Z</time></trkpt><trkpt lat="44.2177479" lon="11.448183"><ele>508.0</ele><time>2026-04-12T11:08:28.972Z</time></trkpt><trkpt lat="44.2178876" lon="11.4482577"><ele>508.0</ele><time>2026-04-12T11:08:29.972Z</time></trkpt><trkpt lat="44.2180277" lon="11.4483313"><ele>508.0</ele><time>2026-04-12T11:08:30.973Z</time></trkpt><trkpt lat="44.2181668" lon="11.4484003"><ele>504.0</ele><time>2026-04-12T11:08:31.973Z</time></trkpt><trkpt lat="44.2183107" lon="11.44847"><ele>500.0</ele><time>2026-04-12T11:08:32.973Z</time></trkpt><trkpt lat="44.2184574" lon="11.448537"><ele>496.0</ele><time>2026-04-12T11:08:33.974Z</time></trkpt><trkpt lat="44.2186093" lon="11.4486034"><ele>496.0</ele><time>2026-04-12T11:08:34.973Z</time></trkpt><trkpt lat="44.2187539" lon="11.4486792"><ele>496.0</ele><time>2026-04-12T11:08:35.973Z</time></trkpt><trkpt lat="44.2188909" lon="11.4487716"><ele>496.0</ele><time>2026-04-12T11:08:36.973Z</time></trkpt><trkpt lat="44.2190143" lon="11.4488871"><ele>496.0</ele><time>2026-04-12T11:08:37.973Z</time></trkpt><trkpt lat="44.2191185" lon="11.4490287"><ele>496.0</ele><time>2026-04-12T11:08:38.973Z</time></trkpt><trkpt lat="44.219208" lon="11.4491802"><ele>496.0</ele><time>2026-04-12T11:08:39.974Z</time></trkpt><trkpt lat="44.2192967" lon="11.4493312"><ele>496.0</ele><time>2026-04-12T11:08:40.972Z</time></trkpt><trkpt lat="44.2193819" lon="11.4494813"><ele>498.75</ele><time>2026-04-12T11:08:41.973Z</time></trkpt><trkpt lat="44.2194624" lon="11.4496369"><ele>501.5</ele><time>2026-04-12T11:08:42.973Z</time></trkpt><trkpt lat="44.2195315" lon="11.4498006"><ele>504.25</ele><time>2026-04-12T11:08:43.973Z</time></trkpt><trkpt lat="44.2195829" lon="11.4499744"><ele>507.0</ele><time>2026-04-12T11:08:44.973Z</time></trkpt><trkpt lat="44.2196192" lon="11.4501526"><ele>507.0</ele><time>2026-04-12T11:08:45.972Z</time></trkpt><trkpt lat="44.2196476" lon="11.4503343"><ele>507.0</ele><time>2026-04-12T11:08:46.972Z</time></trkpt><trkpt lat="44.2196791" lon="11.4505128"><ele>507.0</ele><time>2026-04-12T11:08:47.973Z</time></trkpt><trkpt lat="44.2197311" lon="11.4506667"><ele>507.0</ele><time>2026-04-12T11:08:48.973Z</time></trkpt><trkpt lat="44.2198047" lon="11.4507889"><ele>506.20000000000005</ele><time>2026-04-12T11:08:49.972Z</time></trkpt><trkpt lat="44.219894" lon="11.4508763"><ele>505.40000000000003</ele><time>2026-04-12T11:08:50.973Z</time></trkpt><trkpt lat="44.2199671" lon="11.4509459"><ele>504.59999999999997</ele><time>2026-04-12T11:08:51.972Z</time></trkpt><trkpt lat="44.2200418" lon="11.4509876"><ele>503.79999999999995</ele><time>2026-04-12T11:08:52.973Z</time></trkpt><trkpt lat="44.2201288" lon="11.4510056"><ele>503.0</ele><time>2026-04-12T11:08:53.973Z</time></trkpt><trkpt lat="44.2202138" lon="11.4510357"><ele>503.0</ele><time>2026-04-12T11:08:54.975Z</time></trkpt><trkpt lat="44.2203005" lon="11.4510869"><ele>502.99999999999994</ele><time>2026-04-12T11:08:55.972Z</time></trkpt><trkpt lat="44.2203893" lon="11.4511574"><ele>502.99999999999994</ele><time>2026-04-12T11:08:56.974Z</time></trkpt><trkpt lat="44.2204787" lon="11.4512487"><ele>503.0</ele><time>2026-04-12T11:08:57.975Z</time></trkpt><trkpt lat="44.2205617" lon="11.4513552"><ele>503.0</ele><time>2026-04-12T11:08:58.973Z</time></trkpt><trkpt lat="44.2206367" lon="11.4514726"><ele>503.0</ele><time>2026-04-12T11:08:59.974Z</time></trkpt><trkpt lat="44.2207223" lon="11.4515721"><ele>502.99999999999994</ele><time>2026-04-12T11:09:00.973Z</time></trkpt><trkpt lat="44.2208235" lon="11.451636"><ele>502.99999999999994</ele><time>2026-04-12T11:09:01.973Z</time></trkpt><trkpt lat="44.2209219" lon="11.4516823"><ele>503.0</ele><time>2026-04-12T11:09:02.973Z</time></trkpt><trkpt lat="44.2210231" lon="11.4517248"><ele>503.0</ele><time>2026-04-12T11:09:03.974Z</time></trkpt><trkpt lat="44.2211273" lon="11.4517873"><ele>503.0</ele><time>2026-04-12T11:09:04.973Z</time></trkpt><trkpt lat="44.2212403" lon="11.4518694"><ele>503.0</ele><time>2026-04-12T11:09:05.973Z</time></trkpt><trkpt lat="44.2213547" lon="11.4519716"><ele>503.0</ele><time>2026-04-12T11:09:06.973Z</time></trkpt><trkpt lat="44.2214683" lon="11.4520869"><ele>503.0</ele><time>2026-04-12T11:09:07.973Z</time></trkpt><trkpt lat="44.2215786" lon="11.4522126"><ele>502.25</ele><time>2026-04-12T11:09:08.974Z</time></trkpt><trkpt lat="44.2216824" lon="11.4523426"><ele>501.5</ele><time>2026-04-12T11:09:09.972Z</time></trkpt><trkpt lat="44.2217785" lon="11.4524702"><ele>500.75</ele><time>2026-04-12T11:09:10.972Z</time></trkpt><trkpt lat="44.2218626" lon="11.4526036"><ele>500.0</ele><time>2026-04-12T11:09:11.972Z</time></trkpt><trkpt lat="44.2219277" lon="11.452743"><ele>500.0</ele><time>2026-04-12T11:09:12.973Z</time></trkpt><trkpt lat="44.221989" lon="11.4528786"><ele>500.0</ele><time>2026-04-12T11:09:13.975Z</time></trkpt><trkpt lat="44.2220622" lon="11.4530015"><ele>500.0</ele><time>2026-04-12T11:09:14.973Z</time></trkpt><trkpt lat="44.2221374" lon="11.4531098"><ele>500.0</ele><time>2026-04-12T11:09:15.973Z</time></trkpt><trkpt lat="44.2222074" lon="11.4532044"><ele>500.0</ele><time>2026-04-12T11:09:16.972Z</time></trkpt><trkpt lat="44.2222788" lon="11.4532819"><ele>499.0</ele><time>2026-04-12T11:09:17.973Z</time></trkpt><trkpt lat="44.2223556" lon="11.4533583"><ele>498.0</ele><time>2026-04-12T11:09:18.973Z</time></trkpt><trkpt lat="44.222448" lon="11.4534415"><ele>497.0</ele><time>2026-04-12T11:09:19.973Z</time></trkpt><trkpt lat="44.222558" lon="11.4535246"><ele>496.0</ele><time>2026-04-12T11:09:20.974Z</time></trkpt><trkpt lat="44.2226779" lon="11.4536141"><ele>496.0</ele><time>2026-04-12T11:09:21.972Z</time></trkpt><trkpt lat="44.2227995" lon="11.4537077"><ele>496.0</ele><time>2026-04-12T11:09:22.972Z</time></trkpt><trkpt lat="44.222911" lon="11.4538018"><ele>496.0</ele><time>2026-04-12T11:09:23.975Z</time></trkpt><trkpt lat="44.2230054" lon="11.4538997"><ele>496.0</ele><time>2026-04-12T11:09:24.973Z</time></trkpt><trkpt lat="44.2230876" lon="11.4540139"><ele>496.20000000000005</ele><time>2026-04-12T11:09:25.972Z</time></trkpt><trkpt lat="44.2231485" lon="11.4541468"><ele>496.40000000000003</ele><time>2026-04-12T11:09:26.973Z</time></trkpt><trkpt lat="44.2231893" lon="11.4542864"><ele>496.6</ele><time>2026-04-12T11:09:27.973Z</time></trkpt><trkpt lat="44.2232152" lon="11.4544217"><ele>496.8</ele><time>2026-04-12T11:09:28.973Z</time></trkpt><trkpt lat="44.2232405" lon="11.4545567"><ele>497.0</ele><time>2026-04-12T11:09:29.972Z</time></trkpt><trkpt lat="44.2232768" lon="11.4546925"><ele>497.0</ele><time>2026-04-12T11:09:30.972Z</time></trkpt><trkpt lat="44.2233393" lon="11.4548189"><ele>497.0</ele><time>2026-04-12T11:09:31.974Z</time></trkpt><trkpt lat="44.2234162" lon="11.4549441"><ele>497.0</ele><time>2026-04-12T11:09:32.973Z</time></trkpt><trkpt lat="44.223488" lon="11.4550809"><ele>497.0</ele><time>2026-04-12T11:09:33.974Z</time></trkpt><trkpt lat="44.2235469" lon="11.4552205"><ele>496.99999999999994</ele><time>2026-04-12T11:09:34.973Z</time></trkpt><trkpt lat="44.2235904" lon="11.4553498"><ele>497.0</ele><time>2026-04-12T11:09:35.973Z</time></trkpt><trkpt lat="44.2236147" lon="11.4554585"><ele>497.0</ele><time>2026-04-12T11:09:36.973Z</time></trkpt><trkpt lat="44.2236212" lon="11.455557"><ele>497.0</ele><time>2026-04-12T11:09:37.973Z</time></trkpt><trkpt lat="44.223543" lon="11.4556386"><ele>496.99999999999994</ele><time>2026-04-12T11:09:39.972Z</time></trkpt><trkpt lat="44.2234751" lon="11.4556156"><ele>497.0</ele><time>2026-04-12T11:09:40.973Z</time></trkpt><trkpt lat="44.2234058" lon="11.4555656"><ele>497.0</ele><time>2026-04-12T11:09:41.972Z</time></trkpt><trkpt lat="44.2233338" lon="11.4554825"><ele>497.00000000000006</ele><time>2026-04-12T11:09:42.972Z</time></trkpt><trkpt lat="44.2232577" lon="11.4553667"><ele>497.00000000000006</ele><time>2026-04-12T11:09:43.973Z</time></trkpt><trkpt lat="44.2231814" lon="11.4552521"><ele>497.0</ele><time>2026-04-12T11:09:44.973Z</time></trkpt><trkpt lat="44.2231088" lon="11.45515"><ele>497.0</ele><time>2026-04-12T11:09:45.972Z</time></trkpt><trkpt lat="44.2230429" lon="11.4550725"><ele>500.0</ele><time>2026-04-12T11:09:46.972Z</time></trkpt><trkpt lat="44.2229378" lon="11.4550624"><ele>503.00000000000006</ele><time>2026-04-12T11:09:48.972Z</time></trkpt><trkpt lat="44.2229196" lon="11.4552223"><ele>506.00000000000006</ele><time>2026-04-12T11:09:50.972Z</time></trkpt><trkpt lat="44.2229387" lon="11.455334"><ele>509.0</ele><time>2026-04-12T11:09:51.973Z</time></trkpt><trkpt lat="44.2229678" lon="11.4554576"><ele>512.0</ele><time>2026-04-12T11:09:52.975Z</time></trkpt><trkpt lat="44.2230081" lon="11.4556085"><ele>514.8000000000001</ele><time>2026-04-12T11:09:53.973Z</time></trkpt><trkpt lat="44.2230402" lon="11.4557629"><ele>517.6</ele><time>2026-04-12T11:09:54.973Z</time></trkpt><trkpt lat="44.2230666" lon="11.4559159"><ele>520.4000000000001</ele><time>2026-04-12T11:09:55.974Z</time></trkpt><trkpt lat="44.2230911" lon="11.4560598"><ele>523.2</ele><time>2026-04-12T11:09:56.974Z</time></trkpt><trkpt lat="44.2231139" lon="11.4561863"><ele>526.0</ele><time>2026-04-12T11:09:57.973Z</time></trkpt><trkpt lat="44.2231365" lon="11.4562856"><ele>524.6</ele><time>2026-04-12T11:09:58.973Z</time></trkpt><trkpt lat="44.2231788" lon="11.4564276"><ele>523.2</ele><time>2026-04-12T11:10:00.972Z</time></trkpt><trkpt lat="44.2232222" lon="11.4565107"><ele>521.8</ele><time>2026-04-12T11:10:02.973Z</time></trkpt><trkpt lat="44.223323" lon="11.4565105"><ele>520.4</ele><time>2026-04-12T11:11:28.975Z</time></trkpt><trkpt lat="44.223418" lon="11.4564996"><ele>519.0</ele><time>2026-04-12T11:11:29.974Z</time></trkpt><trkpt lat="44.2235241" lon="11.4564772"><ele>519.0</ele><time>2026-04-12T11:11:30.971Z</time></trkpt><trkpt lat="44.2236418" lon="11.4564461"><ele>519.0</ele><time>2026-04-12T11:11:31.973Z</time></trkpt><trkpt lat="44.2237605" lon="11.4564204"><ele>519.0</ele><time>2026-04-12T11:11:32.973Z</time></trkpt><trkpt lat="44.2238729" lon="11.4564132"><ele>519.0</ele><time>2026-04-12T11:11:33.973Z</time></trkpt><trkpt lat="44.2239851" lon="11.4564338"><ele>516.25</ele><time>2026-04-12T11:11:34.973Z</time></trkpt><trkpt lat="44.2240987" lon="11.4564869"><ele>513.5</ele><time>2026-04-12T11:11:35.973Z</time></trkpt><trkpt lat="44.2242185" lon="11.4565627"><ele>510.75</ele><time>2026-04-12T11:11:36.972Z</time></trkpt><trkpt lat="44.2243445" lon="11.4566485"><ele>508.0</ele><time>2026-04-12T11:11:37.973Z</time></trkpt><trkpt lat="44.2244742" lon="11.4567335"><ele>508.0</ele><time>2026-04-12T11:11:38.973Z</time></trkpt><trkpt lat="44.2246101" lon="11.456818"><ele>508.0</ele><time>2026-04-12T11:11:39.973Z</time></trkpt><trkpt lat="44.2247531" lon="11.4569015"><ele>508.0</ele><time>2026-04-12T11:11:40.974Z</time></trkpt><trkpt lat="44.2248903" lon="11.4569826"><ele>506.5</ele><time>2026-04-12T11:11:41.973Z</time></trkpt><trkpt lat="44.2250148" lon="11.4570622"><ele>505.0</ele><time>2026-04-12T11:11:42.972Z</time></trkpt><trkpt lat="44.2251159" lon="11.4571485"><ele>503.5</ele><time>2026-04-12T11:11:43.973Z</time></trkpt><trkpt lat="44.2251913" lon="11.4572513"><ele>502.0</ele><time>2026-04-12T11:11:44.973Z</time></trkpt><trkpt lat="44.225243" lon="11.45736"><ele>502.00000000000006</ele><time>2026-04-12T11:11:45.972Z</time></trkpt><trkpt lat="44.2252879" lon="11.4574563"><ele>502.0</ele><time>2026-04-12T11:11:46.974Z</time></trkpt><trkpt lat="44.2253859" lon="11.4575342"><ele>502.0</ele><time>2026-04-12T11:11:48.972Z</time></trkpt><trkpt lat="44.2254529" lon="11.4575545"><ele>502.0</ele><time>2026-04-12T11:11:49.973Z</time></trkpt><trkpt lat="44.2255247" lon="11.4575846"><ele>502.00000000000006</ele><time>2026-04-12T11:11:50.973Z</time></trkpt><trkpt lat="44.2255875" lon="11.457644"><ele>502.0</ele><time>2026-04-12T11:11:51.974Z</time></trkpt><trkpt lat="44.2256454" lon="11.4577424"><ele>499.5</ele><time>2026-04-12T11:11:52.974Z</time></trkpt><trkpt lat="44.2257056" lon="11.4578777"><ele>497.0</ele><time>2026-04-12T11:11:53.974Z</time></trkpt><trkpt lat="44.225767" lon="11.4580227"><ele>494.5</ele><time>2026-04-12T11:11:54.972Z</time></trkpt><trkpt lat="44.2258053" lon="11.4581704"><ele>492.0</ele><time>2026-04-12T11:11:55.973Z</time></trkpt><trkpt lat="44.225812" lon="11.4583168"><ele>492.0</ele><time>2026-04-12T11:11:56.974Z</time></trkpt><trkpt lat="44.2257774" lon="11.4584475"><ele>492.0</ele><time>2026-04-12T11:11:57.972Z</time></trkpt><trkpt lat="44.225696" lon="11.458559"><ele>492.0</ele><time>2026-04-12T11:11:58.972Z</time></trkpt><trkpt lat="44.2255861" lon="11.4586424"><ele>492.0</ele><time>2026-04-12T11:11:59.973Z</time></trkpt><trkpt lat="44.225471" lon="11.4586942"><ele>491.1666666666667</ele><time>2026-04-12T11:12:00.973Z</time></trkpt><trkpt lat="44.2253804" lon="11.4587156"><ele>490.33333333333337</ele><time>2026-04-12T11:12:01.973Z</time></trkpt><trkpt lat="44.2253094" lon="11.458729"><ele>489.5</ele><time>2026-04-12T11:12:02.973Z</time></trkpt><trkpt lat="44.2252239" lon="11.4587436"><ele>488.6666666666667</ele><time>2026-04-12T11:12:04.973Z</time></trkpt><trkpt lat="44.2251341" lon="11.4587759"><ele>487.83333333333337</ele><time>2026-04-12T11:13:02.972Z</time></trkpt><trkpt lat="44.2250587" lon="11.4587882"><ele>487.0</ele><time>2026-04-12T11:13:03.973Z</time></trkpt><trkpt lat="44.2249656" lon="11.4588055"><ele>487.0</ele><time>2026-04-12T11:13:04.972Z</time></trkpt><trkpt lat="44.2248723" lon="11.4588259"><ele>487.00000000000006</ele><time>2026-04-12T11:13:05.972Z</time></trkpt><trkpt lat="44.2247757" lon="11.4588571"><ele>487.00000000000006</ele><time>2026-04-12T11:13:06.972Z</time></trkpt><trkpt lat="44.2246698" lon="11.4588939"><ele>487.0</ele><time>2026-04-12T11:13:07.973Z</time></trkpt><trkpt lat="44.2245574" lon="11.4589399"><ele>487.0</ele><time>2026-04-12T11:13:08.974Z</time></trkpt><trkpt lat="44.2244409" lon="11.4590035"><ele>492.75</ele><time>2026-04-12T11:13:09.973Z</time></trkpt><trkpt lat="44.2243325" lon="11.4590733"><ele>498.5</ele><time>2026-04-12T11:13:10.972Z</time></trkpt><trkpt lat="44.2242267" lon="11.4591461"><ele>504.25</ele><time>2026-04-12T11:13:11.972Z</time></trkpt><trkpt lat="44.2241162" lon="11.4592178"><ele>510.0</ele><time>2026-04-12T11:13:12.975Z</time></trkpt><trkpt lat="44.224002" lon="11.4592951"><ele>516.5</ele><time>2026-04-12T11:13:13.975Z</time></trkpt><trkpt lat="44.2238825" lon="11.4593698"><ele>523.0</ele><time>2026-04-12T11:13:14.973Z</time></trkpt><trkpt lat="44.22376" lon="11.4594424"><ele>529.5</ele><time>2026-04-12T11:13:15.974Z</time></trkpt><trkpt lat="44.2236319" lon="11.4595105"><ele>536.0</ele><time>2026-04-12T11:13:16.973Z</time></trkpt><trkpt lat="44.2234974" lon="11.4595877"><ele>537.6666666666666</ele><time>2026-04-12T11:13:17.974Z</time></trkpt><trkpt lat="44.2233603" lon="11.4596781"><ele>539.3333333333334</ele><time>2026-04-12T11:13:18.974Z</time></trkpt><trkpt lat="44.2232303" lon="11.4597978"><ele>541.0</ele><time>2026-04-12T11:13:19.973Z</time></trkpt><trkpt lat="44.2231246" lon="11.4599544"><ele>541.0</ele><time>2026-04-12T11:13:20.974Z</time></trkpt><trkpt lat="44.2230464" lon="11.4601401"><ele>541.0</ele><time>2026-04-12T11:13:21.972Z</time></trkpt><trkpt lat="44.2230011" lon="11.4603511"><ele>541.0</ele><time>2026-04-12T11:13:22.975Z</time></trkpt><trkpt lat="44.2229932" lon="11.4605803"><ele>539.6666666666667</ele><time>2026-04-12T11:13:23.974Z</time></trkpt><trkpt lat="44.2230058" lon="11.4608261"><ele>538.3333333333334</ele><time>2026-04-12T11:13:24.973Z</time></trkpt><trkpt lat="44.2230194" lon="11.4610773"><ele>537.0</ele><time>2026-04-12T11:13:25.972Z</time></trkpt><trkpt lat="44.2230252" lon="11.461332"><ele>537.0</ele><time>2026-04-12T11:13:26.973Z</time></trkpt><trkpt lat="44.2230445" lon="11.4615726"><ele>537.0</ele><time>2026-04-12T11:13:27.973Z</time></trkpt><trkpt lat="44.2230532" lon="11.4617909"><ele>537.0</ele><time>2026-04-12T11:13:28.973Z</time></trkpt><trkpt lat="44.2230253" lon="11.462004"><ele>530.6666666666666</ele><time>2026-04-12T11:13:29.972Z</time></trkpt><trkpt lat="44.2229616" lon="11.4621979"><ele>524.3333333333333</ele><time>2026-04-12T11:13:30.972Z</time></trkpt><trkpt lat="44.2228658" lon="11.4623607"><ele>518.0</ele><time>2026-04-12T11:13:31.974Z</time></trkpt><trkpt lat="44.2227413" lon="11.4624928"><ele>518.0</ele><time>2026-04-12T11:13:32.977Z</time></trkpt><trkpt lat="44.2225967" lon="11.4625997"><ele>518.0</ele><time>2026-04-12T11:13:33.973Z</time></trkpt><trkpt lat="44.2224609" lon="11.4626957"><ele>518.0</ele><time>2026-04-12T11:13:34.976Z</time></trkpt><trkpt lat="44.2223337" lon="11.4627716"><ele>520.0</ele><time>2026-04-12T11:13:35.972Z</time></trkpt><trkpt lat="44.2222255" lon="11.4628507"><ele>522.0</ele><time>2026-04-12T11:13:36.972Z</time></trkpt><trkpt lat="44.222138" lon="11.4629479"><ele>524.0</ele><time>2026-04-12T11:13:37.973Z</time></trkpt><trkpt lat="44.2220851" lon="11.4630916"><ele>526.0</ele><time>2026-04-12T11:13:38.974Z</time></trkpt><trkpt lat="44.2220685" lon="11.4632725"><ele>526.0</ele><time>2026-04-12T11:13:39.972Z</time></trkpt><trkpt lat="44.2220902" lon="11.4634889"><ele>526.0</ele><time>2026-04-12T11:13:40.975Z</time></trkpt><trkpt lat="44.2221428" lon="11.4637073"><ele>526.0</ele><time>2026-04-12T11:13:41.972Z</time></trkpt><trkpt lat="44.2222242" lon="11.4639235"><ele>518.6666666666667</ele><time>2026-04-12T11:13:42.973Z</time></trkpt><trkpt lat="44.2223278" lon="11.4641357"><ele>511.33333333333337</ele><time>2026-04-12T11:13:43.973Z</time></trkpt><trkpt lat="44.2224453" lon="11.4643374"><ele>504.0</ele><time>2026-04-12T11:13:44.974Z</time></trkpt><trkpt lat="44.2225783" lon="11.4645303"><ele>506.0</ele><time>2026-04-12T11:13:45.973Z</time></trkpt><trkpt lat="44.2227202" lon="11.4647141"><ele>508.0</ele><time>2026-04-12T11:13:46.972Z</time></trkpt><trkpt lat="44.2228696" lon="11.4648912"><ele>510.0</ele><time>2026-04-12T11:13:47.973Z</time></trkpt><trkpt lat="44.2230229" lon="11.4650557"><ele>508.33333333333337</ele><time>2026-04-12T11:13:48.972Z</time></trkpt><trkpt lat="44.2231832" lon="11.4652068"><ele>506.6666666666667</ele><time>2026-04-12T11:13:49.973Z</time></trkpt><trkpt lat="44.2233575" lon="11.4653492"><ele>505.0</ele><time>2026-04-12T11:13:50.974Z</time></trkpt><trkpt lat="44.223538" lon="11.4654858"><ele>505.0</ele><time>2026-04-12T11:13:51.972Z</time></trkpt><trkpt lat="44.2237125" lon="11.4656357"><ele>505.0</ele><time>2026-04-12T11:13:52.974Z</time></trkpt><trkpt lat="44.2238759" lon="11.46581"><ele>505.0</ele><time>2026-04-12T11:13:53.972Z</time></trkpt><trkpt lat="44.224031" lon="11.4659882"><ele>501.33333333333337</ele><time>2026-04-12T11:13:54.972Z</time></trkpt><trkpt lat="44.2241824" lon="11.4661516"><ele>497.66666666666663</ele><time>2026-04-12T11:13:55.973Z</time></trkpt><trkpt lat="44.2243405" lon="11.4662873"><ele>494.0</ele><time>2026-04-12T11:13:56.975Z</time></trkpt><trkpt lat="44.2245154" lon="11.466387"><ele>491.3333333333333</ele><time>2026-04-12T11:13:57.974Z</time></trkpt><trkpt lat="44.2247028" lon="11.4664527"><ele>488.66666666666663</ele><time>2026-04-12T11:13:58.975Z</time></trkpt><trkpt lat="44.2249026" lon="11.4665005"><ele>486.0</ele><time>2026-04-12T11:13:59.973Z</time></trkpt><trkpt lat="44.2251075" lon="11.4665537"><ele>485.33333333333337</ele><time>2026-04-12T11:14:00.973Z</time></trkpt><trkpt lat="44.2253077" lon="11.4666372"><ele>484.6666666666667</ele><time>2026-04-12T11:14:01.973Z</time></trkpt><trkpt lat="44.2255022" lon="11.4667521"><ele>484.0</ele><time>2026-04-12T11:14:02.973Z</time></trkpt><trkpt lat="44.2256914" lon="11.4668995"><ele>482.33333333333337</ele><time>2026-04-12T11:14:03.972Z</time></trkpt><trkpt lat="44.2258698" lon="11.4670834"><ele>480.66666666666663</ele><time>2026-04-12T11:14:04.973Z</time></trkpt><trkpt lat="44.226033" lon="11.4672977"><ele>479.0</ele><time>2026-04-12T11:14:05.974Z</time></trkpt><trkpt lat="44.2261873" lon="11.4675266"><ele>477.66666666666663</ele><time>2026-04-12T11:14:06.974Z</time></trkpt><trkpt lat="44.2263391" lon="11.4677561"><ele>476.33333333333337</ele><time>2026-04-12T11:14:07.973Z</time></trkpt><trkpt lat="44.2264838" lon="11.4679802"><ele>475.0</ele><time>2026-04-12T11:14:08.974Z</time></trkpt><trkpt lat="44.2266203" lon="11.4681957"><ele>474.6666666666667</ele><time>2026-04-12T11:14:09.973Z</time></trkpt><trkpt lat="44.2267539" lon="11.4684008"><ele>474.33333333333337</ele><time>2026-04-12T11:14:10.973Z</time></trkpt><trkpt lat="44.2268917" lon="11.4685951"><ele>474.0</ele><time>2026-04-12T11:14:11.973Z</time></trkpt><trkpt lat="44.2270351" lon="11.468775"><ele>471.0</ele><time>2026-04-12T11:14:12.973Z</time></trkpt><trkpt lat="44.2271855" lon="11.4689256"><ele>468.0</ele><time>2026-04-12T11:14:13.974Z</time></trkpt><trkpt lat="44.2273396" lon="11.4690476"><ele>465.0</ele><time>2026-04-12T11:14:14.973Z</time></trkpt><trkpt lat="44.2275028" lon="11.4691454"><ele>465.0</ele><time>2026-04-12T11:14:15.973Z</time></trkpt><trkpt lat="44.2276667" lon="11.469227"><ele>465.0</ele><time>2026-04-12T11:14:16.972Z</time></trkpt><trkpt lat="44.2278358" lon="11.4693019"><ele>465.0</ele><time>2026-04-12T11:14:17.972Z</time></trkpt><trkpt lat="44.2280026" lon="11.4693689"><ele>465.0</ele><time>2026-04-12T11:14:18.973Z</time></trkpt><trkpt lat="44.2281657" lon="11.4693981"><ele>465.0</ele><time>2026-04-12T11:14:19.973Z</time></trkpt><trkpt lat="44.2283183" lon="11.4693687"><ele>465.0</ele><time>2026-04-12T11:14:20.972Z</time></trkpt><trkpt lat="44.2284622" lon="11.4692946"><ele>465.0</ele><time>2026-04-12T11:14:21.972Z</time></trkpt><trkpt lat="44.2285961" lon="11.4692189"><ele>465.0</ele><time>2026-04-12T11:14:22.974Z</time></trkpt><trkpt lat="44.2287301" lon="11.4691765"><ele>465.0</ele><time>2026-04-12T11:14:23.973Z</time></trkpt><trkpt lat="44.2288714" lon="11.4691741"><ele>465.0</ele><time>2026-04-12T11:14:24.974Z</time></trkpt><trkpt lat="44.2290199" lon="11.4691997"><ele>462.66666666666663</ele><time>2026-04-12T11:14:25.974Z</time></trkpt><trkpt lat="44.229177" lon="11.4692393"><ele>460.3333333333333</ele><time>2026-04-12T11:14:26.973Z</time></trkpt><trkpt lat="44.2293455" lon="11.4692795"><ele>458.0</ele><time>2026-04-12T11:14:27.974Z</time></trkpt><trkpt lat="44.2295083" lon="11.4693355"><ele>458.0</ele><time>2026-04-12T11:14:28.974Z</time></trkpt><trkpt lat="44.2296532" lon="11.4694107"><ele>458.0</ele><time>2026-04-12T11:14:29.973Z</time></trkpt><trkpt lat="44.2297785" lon="11.4695199"><ele>458.0</ele><time>2026-04-12T11:14:30.974Z</time></trkpt><trkpt lat="44.2298853" lon="11.4696698"><ele>458.0</ele><time>2026-04-12T11:14:31.973Z</time></trkpt><trkpt lat="44.2299765" lon="11.4698347"><ele>458.0</ele><time>2026-04-12T11:14:32.972Z</time></trkpt><trkpt lat="44.2300565" lon="11.4700049"><ele>458.0</ele><time>2026-04-12T11:14:33.973Z</time></trkpt><trkpt lat="44.2301231" lon="11.4701506"><ele>458.0</ele><time>2026-04-12T11:14:34.972Z</time></trkpt><trkpt lat="44.2301799" lon="11.470268"><ele>457.99999999999994</ele><time>2026-04-12T11:14:35.973Z</time></trkpt><trkpt lat="44.2302224" lon="11.4703682"><ele>458.0</ele><time>2026-04-12T11:14:36.973Z</time></trkpt><trkpt lat="44.2302607" lon="11.4704458"><ele>458.0</ele><time>2026-04-12T11:14:37.973Z</time></trkpt><trkpt lat="44.2303258" lon="11.4705434"><ele>458.0</ele><time>2026-04-12T11:14:39.973Z</time></trkpt><trkpt lat="44.2303825" lon="11.470586"><ele>457.99999999999994</ele><time>2026-04-12T11:15:37.976Z</time></trkpt><trkpt lat="44.2305058" lon="11.4706323"><ele>458.0</ele><time>2026-04-12T11:15:39.972Z</time></trkpt><trkpt lat="44.2305939" lon="11.4706547"><ele>458.0</ele><time>2026-04-12T11:15:40.973Z</time></trkpt><trkpt lat="44.2306861" lon="11.4706731"><ele>457.99999999999994</ele><time>2026-04-12T11:15:41.973Z</time></trkpt><trkpt lat="44.2307802" lon="11.4706838"><ele>457.99999999999994</ele><time>2026-04-12T11:15:42.974Z</time></trkpt><trkpt lat="44.2308806" lon="11.4706764"><ele>458.0</ele><time>2026-04-12T11:15:43.973Z</time></trkpt><trkpt lat="44.2309843" lon="11.4706414"><ele>458.0</ele><time>2026-04-12T11:15:44.973Z</time></trkpt><trkpt lat="44.2310918" lon="11.4705925"><ele>458.0</ele><time>2026-04-12T11:15:45.973Z</time></trkpt><trkpt lat="44.2311993" lon="11.4705421"><ele>457.99999999999994</ele><time>2026-04-12T11:15:46.974Z</time></trkpt><trkpt lat="44.2313017" lon="11.4705195"><ele>457.99999999999994</ele><time>2026-04-12T11:15:47.972Z</time></trkpt><trkpt lat="44.2314032" lon="11.4705465"><ele>458.0</ele><time>2026-04-12T11:15:48.973Z</time></trkpt><trkpt lat="44.2315043" lon="11.4706198"><ele>458.0</ele><time>2026-04-12T11:15:49.972Z</time></trkpt><trkpt lat="44.2315929" lon="11.4707525"><ele>458.66666666666663</ele><time>2026-04-12T11:15:50.973Z</time></trkpt><trkpt lat="44.2316734" lon="11.470915"><ele>459.33333333333337</ele><time>2026-04-12T11:15:51.973Z</time></trkpt><trkpt lat="44.2317511" lon="11.4710913"><ele>460.0</ele><time>2026-04-12T11:15:52.974Z</time></trkpt><trkpt lat="44.2318414" lon="11.4712757"><ele>456.6666666666667</ele><time>2026-04-12T11:15:53.974Z</time></trkpt><trkpt lat="44.231947" lon="11.4714802"><ele>453.33333333333337</ele><time>2026-04-12T11:15:54.973Z</time></trkpt><trkpt lat="44.2320667" lon="11.4717029"><ele>450.0</ele><time>2026-04-12T11:15:55.973Z</time></trkpt><trkpt lat="44.2321936" lon="11.4719382"><ele>457.0</ele><time>2026-04-12T11:15:56.975Z</time></trkpt><trkpt lat="44.2323094" lon="11.4721555"><ele>464.0</ele><time>2026-04-12T11:15:57.973Z</time></trkpt><trkpt lat="44.2323962" lon="11.4723693"><ele>471.0</ele><time>2026-04-12T11:15:58.974Z</time></trkpt><trkpt lat="44.2324354" lon="11.4725869"><ele>471.0</ele><time>2026-04-12T11:15:59.974Z</time></trkpt><trkpt lat="44.232423" lon="11.4728001"><ele>471.0</ele><time>2026-04-12T11:16:00.972Z</time></trkpt><trkpt lat="44.2323934" lon="11.4730061"><ele>471.0</ele><time>2026-04-12T11:16:01.974Z</time></trkpt><trkpt lat="44.2323842" lon="11.4731987"><ele>471.0</ele><time>2026-04-12T11:16:02.973Z</time></trkpt><trkpt lat="44.2324219" lon="11.473351"><ele>470.25</ele><time>2026-04-12T11:16:03.972Z</time></trkpt><trkpt lat="44.2325011" lon="11.4734546"><ele>469.5</ele><time>2026-04-12T11:16:04.972Z</time></trkpt><trkpt lat="44.23261" lon="11.4735059"><ele>468.75</ele><time>2026-04-12T11:16:05.973Z</time></trkpt><trkpt lat="44.2327356" lon="11.4735032"><ele>468.0</ele><time>2026-04-12T11:16:06.972Z</time></trkpt><trkpt lat="44.2328678" lon="11.4734687"><ele>468.0</ele><time>2026-04-12T11:16:07.974Z</time></trkpt><trkpt lat="44.2329931" lon="11.4734491"><ele>468.0</ele><time>2026-04-12T11:16:08.973Z</time></trkpt><trkpt lat="44.2331035" lon="11.4734963"><ele>468.0</ele><time>2026-04-12T11:16:09.972Z</time></trkpt><trkpt lat="44.2331917" lon="11.4736072"><ele>468.0</ele><time>2026-04-12T11:16:10.973Z</time></trkpt><trkpt lat="44.2332462" lon="11.4737683"><ele>473.33333333333337</ele><time>2026-04-12T11:16:11.972Z</time></trkpt><trkpt lat="44.2332698" lon="11.473962"><ele>478.6666666666667</ele><time>2026-04-12T11:16:12.972Z</time></trkpt><trkpt lat="44.2332767" lon="11.4741782"><ele>484.0</ele><time>2026-04-12T11:16:13.976Z</time></trkpt><trkpt lat="44.2332842" lon="11.4744038"><ele>482.6666666666667</ele><time>2026-04-12T11:16:14.973Z</time></trkpt><trkpt lat="44.2332936" lon="11.474636"><ele>481.33333333333337</ele><time>2026-04-12T11:16:15.972Z</time></trkpt><trkpt lat="44.2333048" lon="11.4748619"><ele>480.0</ele><time>2026-04-12T11:16:16.972Z</time></trkpt><trkpt lat="44.2333337" lon="11.4750543"><ele>480.0</ele><time>2026-04-12T11:16:17.972Z</time></trkpt><trkpt lat="44.2333936" lon="11.4752014"><ele>480.0</ele><time>2026-04-12T11:16:18.972Z</time></trkpt><trkpt lat="44.2334872" lon="11.4753175"><ele>480.0</ele><time>2026-04-12T11:16:19.973Z</time></trkpt><trkpt lat="44.2336054" lon="11.4754036"><ele>480.0</ele><time>2026-04-12T11:16:20.973Z</time></trkpt><trkpt lat="44.2337427" lon="11.4754718"><ele>481.33333333333337</ele><time>2026-04-12T11:16:21.973Z</time></trkpt><trkpt lat="44.2338888" lon="11.4755497"><ele>482.6666666666667</ele><time>2026-04-12T11:16:22.973Z</time></trkpt><trkpt lat="44.2340355" lon="11.4756578"><ele>484.0</ele><time>2026-04-12T11:16:23.973Z</time></trkpt><trkpt lat="44.2341801" lon="11.4758044"><ele>484.0</ele><time>2026-04-12T11:16:24.972Z</time></trkpt><trkpt lat="44.2343073" lon="11.4759851"><ele>484.0</ele><time>2026-04-12T11:16:25.974Z</time></trkpt><trkpt lat="44.2344485" lon="11.4761604"><ele>484.0</ele><time>2026-04-12T11:16:26.974Z</time></trkpt><trkpt lat="44.234609" lon="11.4763027"><ele>483.6666666666667</ele><time>2026-04-12T11:16:27.975Z</time></trkpt><trkpt lat="44.234787" lon="11.476419"><ele>483.33333333333337</ele><time>2026-04-12T11:16:28.973Z</time></trkpt><trkpt lat="44.2349532" lon="11.4765309"><ele>483.0</ele><time>2026-04-12T11:16:29.973Z</time></trkpt><trkpt lat="44.2351028" lon="11.4766569"><ele>483.0</ele><time>2026-04-12T11:16:30.974Z</time></trkpt><trkpt lat="44.2352271" lon="11.476822"><ele>483.0</ele><time>2026-04-12T11:16:31.973Z</time></trkpt><trkpt lat="44.2353267" lon="11.4770251"><ele>483.0</ele><time>2026-04-12T11:16:32.972Z</time></trkpt><trkpt lat="44.2354248" lon="11.4772442"><ele>481.33333333333337</ele><time>2026-04-12T11:16:33.974Z</time></trkpt><trkpt lat="44.2355239" lon="11.4774628"><ele>479.6666666666667</ele><time>2026-04-12T11:16:34.973Z</time></trkpt><trkpt lat="44.2356313" lon="11.4776514"><ele>478.0</ele><time>2026-04-12T11:16:35.973Z</time></trkpt><trkpt lat="44.2357533" lon="11.4777949"><ele>478.0</ele><time>2026-04-12T11:16:36.973Z</time></trkpt><trkpt lat="44.2359021" lon="11.4778778"><ele>478.0</ele><time>2026-04-12T11:16:37.973Z</time></trkpt><trkpt lat="44.2360565" lon="11.4779191"><ele>478.0</ele><time>2026-04-12T11:16:38.973Z</time></trkpt><trkpt lat="44.2362098" lon="11.4779367"><ele>477.75</ele><time>2026-04-12T11:16:39.972Z</time></trkpt><trkpt lat="44.2363569" lon="11.4779494"><ele>477.5</ele><time>2026-04-12T11:16:40.973Z</time></trkpt><trkpt lat="44.2364902" lon="11.4779629"><ele>477.25</ele><time>2026-04-12T11:16:41.974Z</time></trkpt><trkpt lat="44.2366057" lon="11.4779802"><ele>477.0</ele><time>2026-04-12T11:16:42.972Z</time></trkpt><trkpt lat="44.2367088" lon="11.4780074"><ele>477.0</ele><time>2026-04-12T11:16:43.973Z</time></trkpt><trkpt lat="44.236802" lon="11.4780437"><ele>477.0</ele><time>2026-04-12T11:16:44.973Z</time></trkpt><trkpt lat="44.2368789" lon="11.4780899"><ele>477.0</ele><time>2026-04-12T11:16:45.973Z</time></trkpt><trkpt lat="44.2369422" lon="11.4781379"><ele>477.0</ele><time>2026-04-12T11:16:46.972Z</time></trkpt><trkpt lat="44.2370356" lon="11.4782266"><ele>477.0</ele><time>2026-04-12T11:16:48.973Z</time></trkpt><trkpt lat="44.2371064" lon="11.4782893"><ele>477.0</ele><time>2026-04-12T11:16:50.974Z</time></trkpt><trkpt lat="44.237183" lon="11.4783264"><ele>477.0</ele><time>2026-04-12T11:16:53.972Z</time></trkpt><trkpt lat="44.2372561" lon="11.4783271"><ele>477.00000000000006</ele><time>2026-04-12T11:17:04.972Z</time></trkpt><trkpt lat="44.2373839" lon="11.47827"><ele>477.00000000000006</ele><time>2026-04-12T11:17:06.973Z</time></trkpt><trkpt lat="44.2374637" lon="11.4782177"><ele>477.0</ele><time>2026-04-12T11:17:07.974Z</time></trkpt><trkpt lat="44.2375472" lon="11.4781667"><ele>477.0</ele><time>2026-04-12T11:17:08.973Z</time></trkpt><trkpt lat="44.2376393" lon="11.4781313"><ele>477.5</ele><time>2026-04-12T11:17:09.973Z</time></trkpt><trkpt lat="44.2377482" lon="11.4781222"><ele>478.0</ele><time>2026-04-12T11:17:10.975Z</time></trkpt><trkpt lat="44.2378663" lon="11.4781482"><ele>478.5</ele><time>2026-04-12T11:17:11.974Z</time></trkpt><trkpt lat="44.2379915" lon="11.4782024"><ele>479.0</ele><time>2026-04-12T11:17:12.973Z</time></trkpt><trkpt lat="44.2381215" lon="11.4782853"><ele>479.3333333333333</ele><time>2026-04-12T11:17:13.974Z</time></trkpt><trkpt lat="44.2382576" lon="11.4783911"><ele>479.66666666666663</ele><time>2026-04-12T11:17:14.972Z</time></trkpt><trkpt lat="44.2383934" lon="11.4785122"><ele>480.0</ele><time>2026-04-12T11:17:15.974Z</time></trkpt><trkpt lat="44.2385225" lon="11.4786256"><ele>480.0</ele><time>2026-04-12T11:17:16.973Z</time></trkpt><trkpt lat="44.2386488" lon="11.4787237"><ele>480.0</ele><time>2026-04-12T11:17:17.973Z</time></trkpt><trkpt lat="44.2387875" lon="11.4788121"><ele>480.0</ele><time>2026-04-12T11:17:18.973Z</time></trkpt><trkpt lat="44.2389411" lon="11.4789016"><ele>481.0</ele><time>2026-04-12T11:17:19.973Z</time></trkpt><trkpt lat="44.2390918" lon="11.4789894"><ele>482.0</ele><time>2026-04-12T11:17:20.972Z</time></trkpt><trkpt lat="44.2392483" lon="11.4790763"><ele>483.0</ele><time>2026-04-12T11:17:21.973Z</time></trkpt><trkpt lat="44.2394094" lon="11.479173"><ele>483.0</ele><time>2026-04-12T11:17:22.972Z</time></trkpt><trkpt lat="44.2395697" lon="11.4792939"><ele>483.0</ele><time>2026-04-12T11:17:23.973Z</time></trkpt><trkpt lat="44.2397289" lon="11.4794618"><ele>483.0</ele><time>2026-04-12T11:17:24.973Z</time></trkpt><trkpt lat="44.2398894" lon="11.4796822"><ele>481.5</ele><time>2026-04-12T11:17:25.974Z</time></trkpt><trkpt lat="44.2400598" lon="11.479934"><ele>480.0</ele><time>2026-04-12T11:17:26.974Z</time></trkpt><trkpt lat="44.240223" lon="11.4801724"><ele>480.0</ele><time>2026-04-12T11:17:27.973Z</time></trkpt><trkpt lat="44.240367" lon="11.4803785"><ele>480.0</ele><time>2026-04-12T11:17:28.972Z</time></trkpt><trkpt lat="44.2404963" lon="11.4805645"><ele>480.0</ele><time>2026-04-12T11:17:29.973Z</time></trkpt><trkpt lat="44.2406174" lon="11.4807417"><ele>481.25</ele><time>2026-04-12T11:17:30.973Z</time></trkpt><trkpt lat="44.2407236" lon="11.4809111"><ele>482.5</ele><time>2026-04-12T11:17:31.972Z</time></trkpt><trkpt lat="44.240809" lon="11.4810644"><ele>483.75</ele><time>2026-04-12T11:17:32.972Z</time></trkpt><trkpt lat="44.2408729" lon="11.4811919"><ele>485.0</ele><time>2026-04-12T11:17:33.972Z</time></trkpt><trkpt lat="44.2409172" lon="11.4812949"><ele>484.99999999999994</ele><time>2026-04-12T11:17:34.972Z</time></trkpt><trkpt lat="44.2409509" lon="11.4813738"><ele>485.0</ele><time>2026-04-12T11:17:35.972Z</time></trkpt><trkpt lat="44.2410035" lon="11.4814725"><ele>485.0</ele><time>2026-04-12T11:17:37.972Z</time></trkpt><trkpt lat="44.2410485" lon="11.4815395"><ele>485.0</ele><time>2026-04-12T11:17:41.974Z</time></trkpt><trkpt lat="44.2411014" lon="11.4816778"><ele>484.99999999999994</ele><time>2026-04-12T11:19:04.973Z</time></trkpt><trkpt lat="44.2411425" lon="11.4817747"><ele>485.0</ele><time>2026-04-12T11:19:05.972Z</time></trkpt><trkpt lat="44.2412073" lon="11.481876"><ele>485.0</ele><time>2026-04-12T11:19:06.973Z</time></trkpt><trkpt lat="44.2412878" lon="11.4819643"><ele>485.0</ele><time>2026-04-12T11:19:07.973Z</time></trkpt><trkpt lat="44.2413846" lon="11.4820389"><ele>485.0</ele><time>2026-04-12T11:19:08.974Z</time></trkpt><trkpt lat="44.2415018" lon="11.4821106"><ele>485.0</ele><time>2026-04-12T11:19:09.973Z</time></trkpt><trkpt lat="44.2416259" lon="11.482178"><ele>482.25</ele><time>2026-04-12T11:19:10.972Z</time></trkpt><trkpt lat="44.241738" lon="11.4822454"><ele>479.5</ele><time>2026-04-12T11:19:11.973Z</time></trkpt><trkpt lat="44.241836" lon="11.4823364"><ele>476.75</ele><time>2026-04-12T11:19:12.973Z</time></trkpt><trkpt lat="44.2419162" lon="11.4824698"><ele>474.0</ele><time>2026-04-12T11:19:13.973Z</time></trkpt><trkpt lat="44.2419861" lon="11.4826323"><ele>474.0</ele><time>2026-04-12T11:19:14.973Z</time></trkpt><trkpt lat="44.2420653" lon="11.4828022"><ele>474.0</ele><time>2026-04-12T11:19:15.973Z</time></trkpt><trkpt lat="44.2421549" lon="11.4829773"><ele>474.0</ele><time>2026-04-12T11:19:16.974Z</time></trkpt><trkpt lat="44.2422441" lon="11.4831601"><ele>477.25</ele><time>2026-04-12T11:19:17.972Z</time></trkpt><trkpt lat="44.2423042" lon="11.4833445"><ele>480.5</ele><time>2026-04-12T11:19:18.972Z</time></trkpt><trkpt lat="44.2423291" lon="11.4835375"><ele>483.75</ele><time>2026-04-12T11:19:19.972Z</time></trkpt><trkpt lat="44.2423179" lon="11.4837335"><ele>487.0</ele><time>2026-04-12T11:19:20.973Z</time></trkpt><trkpt lat="44.2422781" lon="11.4839237"><ele>479.8</ele><time>2026-04-12T11:19:21.973Z</time></trkpt><trkpt lat="44.2422242" lon="11.4840987"><ele>472.6</ele><time>2026-04-12T11:19:22.972Z</time></trkpt><trkpt lat="44.2421654" lon="11.4842542"><ele>465.40000000000003</ele><time>2026-04-12T11:19:23.973Z</time></trkpt><trkpt lat="44.2421337" lon="11.4843845"><ele>458.20000000000005</ele><time>2026-04-12T11:19:24.972Z</time></trkpt><trkpt lat="44.2421385" lon="11.4845052"><ele>451.0</ele><time>2026-04-12T11:19:25.973Z</time></trkpt><trkpt lat="44.2421708" lon="11.484634"><ele>451.0</ele><time>2026-04-12T11:19:26.973Z</time></trkpt><trkpt lat="44.2421887" lon="11.4847867"><ele>451.0</ele><time>2026-04-12T11:19:27.972Z</time></trkpt><trkpt lat="44.242179" lon="11.484961"><ele>451.0</ele><time>2026-04-12T11:19:28.973Z</time></trkpt><trkpt lat="44.2421286" lon="11.4851452"><ele>451.0</ele><time>2026-04-12T11:19:29.973Z</time></trkpt><trkpt lat="44.2420628" lon="11.485329"><ele>451.0</ele><time>2026-04-12T11:19:30.974Z</time></trkpt><trkpt lat="44.2420066" lon="11.4855126"><ele>451.0</ele><time>2026-04-12T11:19:31.975Z</time></trkpt><trkpt lat="44.241972" lon="11.4857046"><ele>451.0</ele><time>2026-04-12T11:19:32.974Z</time></trkpt><trkpt lat="44.2419544" lon="11.4859102"><ele>451.0</ele><time>2026-04-12T11:19:33.973Z</time></trkpt><trkpt lat="44.2419358" lon="11.486124"><ele>450.33333333333337</ele><time>2026-04-12T11:19:34.975Z</time></trkpt><trkpt lat="44.2419181" lon="11.4863354"><ele>449.66666666666663</ele><time>2026-04-12T11:19:35.974Z</time></trkpt><trkpt lat="44.2419164" lon="11.486544"><ele>449.0</ele><time>2026-04-12T11:19:36.972Z</time></trkpt><trkpt lat="44.2419382" lon="11.486754"><ele>449.0</ele><time>2026-04-12T11:19:37.973Z</time></trkpt><trkpt lat="44.2419695" lon="11.4869545"><ele>449.0</ele><time>2026-04-12T11:19:38.973Z</time></trkpt><trkpt lat="44.2420019" lon="11.4871485"><ele>449.0</ele><time>2026-04-12T11:19:39.972Z</time></trkpt><trkpt lat="44.2420246" lon="11.4873414"><ele>449.0</ele><time>2026-04-12T11:19:40.972Z</time></trkpt><trkpt lat="44.2420163" lon="11.4875354"><ele>449.0</ele><time>2026-04-12T11:19:41.973Z</time></trkpt><trkpt lat="44.241972" lon="11.4877181"><ele>449.0</ele><time>2026-04-12T11:19:42.973Z</time></trkpt><trkpt lat="44.2419053" lon="11.4878886"><ele>449.0</ele><time>2026-04-12T11:19:43.974Z</time></trkpt><trkpt lat="44.2418209" lon="11.4880402"><ele>449.0</ele><time>2026-04-12T11:19:44.972Z</time></trkpt><trkpt lat="44.2417149" lon="11.4881558"><ele>447.3333333333333</ele><time>2026-04-12T11:19:45.974Z</time></trkpt><trkpt lat="44.2415903" lon="11.4882354"><ele>445.66666666666663</ele><time>2026-04-12T11:19:46.972Z</time></trkpt><trkpt lat="44.2414454" lon="11.4882921"><ele>444.0</ele><time>2026-04-12T11:19:47.973Z</time></trkpt><trkpt lat="44.241285" lon="11.4883341"><ele>444.0</ele><time>2026-04-12T11:19:48.972Z</time></trkpt><trkpt lat="44.2411081" lon="11.488375"><ele>444.0</ele><time>2026-04-12T11:19:49.973Z</time></trkpt><trkpt lat="44.2409202" lon="11.4884087"><ele>444.0</ele><time>2026-04-12T11:19:50.973Z</time></trkpt><trkpt lat="44.2407317" lon="11.4884208"><ele>443.0</ele><time>2026-04-12T11:19:51.972Z</time></trkpt><trkpt lat="44.2405471" lon="11.4884094"><ele>442.0</ele><time>2026-04-12T11:19:52.973Z</time></trkpt><trkpt lat="44.2403679" lon="11.4884033"><ele>441.0</ele><time>2026-04-12T11:19:53.973Z</time></trkpt><trkpt lat="44.2402061" lon="11.4884129"><ele>441.0</ele><time>2026-04-12T11:19:54.973Z</time></trkpt><trkpt lat="44.240062" lon="11.4884382"><ele>441.0</ele><time>2026-04-12T11:19:55.973Z</time></trkpt><trkpt lat="44.2399189" lon="11.4884468"><ele>441.0</ele><time>2026-04-12T11:19:56.974Z</time></trkpt><trkpt lat="44.2397866" lon="11.4884052"><ele>441.0</ele><time>2026-04-12T11:19:57.973Z</time></trkpt><trkpt lat="44.2396658" lon="11.4883384"><ele>438.0</ele><time>2026-04-12T11:19:58.973Z</time></trkpt><trkpt lat="44.2395407" lon="11.4882971"><ele>435.0</ele><time>2026-04-12T11:19:59.974Z</time></trkpt><trkpt lat="44.2394153" lon="11.4883003"><ele>432.0</ele><time>2026-04-12T11:20:00.972Z</time></trkpt><trkpt lat="44.2392881" lon="11.4883395"><ele>429.0</ele><time>2026-04-12T11:20:01.973Z</time></trkpt><trkpt lat="44.2391609" lon="11.4883971"><ele>429.0</ele><time>2026-04-12T11:20:02.975Z</time></trkpt><trkpt lat="44.239047" lon="11.4884594"><ele>429.0</ele><time>2026-04-12T11:20:03.973Z</time></trkpt><trkpt lat="44.2389457" lon="11.4885232"><ele>429.0</ele><time>2026-04-12T11:20:04.972Z</time></trkpt><trkpt lat="44.2388671" lon="11.4886011"><ele>429.0</ele><time>2026-04-12T11:20:05.972Z</time></trkpt><trkpt lat="44.2388264" lon="11.4887032"><ele>429.0</ele><time>2026-04-12T11:20:06.973Z</time></trkpt><trkpt lat="44.2388109" lon="11.4888171"><ele>431.5</ele><time>2026-04-12T11:20:07.974Z</time></trkpt><trkpt lat="44.2388627" lon="11.488944"><ele>434.0</ele><time>2026-04-12T11:20:08.973Z</time></trkpt><trkpt lat="44.2389417" lon="11.4890817"><ele>436.5</ele><time>2026-04-12T11:20:09.972Z</time></trkpt><trkpt lat="44.2390271" lon="11.4892421"><ele>439.0</ele><time>2026-04-12T11:20:10.973Z</time></trkpt><trkpt lat="44.2390866" lon="11.4894274"><ele>436.25</ele><time>2026-04-12T11:20:11.972Z</time></trkpt><trkpt lat="44.2391047" lon="11.4896146"><ele>433.5</ele><time>2026-04-12T11:20:12.974Z</time></trkpt><trkpt lat="44.239085" lon="11.489781"><ele>430.75</ele><time>2026-04-12T11:20:13.972Z</time></trkpt><trkpt lat="44.2390797" lon="11.4899246"><ele>428.0</ele><time>2026-04-12T11:20:14.973Z</time></trkpt><trkpt lat="44.2391096" lon="11.4900456"><ele>428.0</ele><time>2026-04-12T11:20:15.973Z</time></trkpt><trkpt lat="44.2391655" lon="11.4901435"><ele>428.0</ele><time>2026-04-12T11:20:16.973Z</time></trkpt><trkpt lat="44.2392686" lon="11.490212"><ele>428.0</ele><time>2026-04-12T11:20:17.974Z</time></trkpt><trkpt lat="44.2393816" lon="11.4902769"><ele>428.0</ele><time>2026-04-12T11:20:18.973Z</time></trkpt><trkpt lat="44.23949" lon="11.4903882"><ele>423.0</ele><time>2026-04-12T11:20:19.972Z</time></trkpt><trkpt lat="44.2395684" lon="11.4905616"><ele>418.0</ele><time>2026-04-12T11:20:20.973Z</time></trkpt><trkpt lat="44.239614" lon="11.4907748"><ele>413.0</ele><time>2026-04-12T11:20:21.973Z</time></trkpt><trkpt lat="44.2396216" lon="11.4910015"><ele>413.0</ele><time>2026-04-12T11:20:22.972Z</time></trkpt><trkpt lat="44.2395877" lon="11.4912168"><ele>413.0</ele><time>2026-04-12T11:20:23.973Z</time></trkpt><trkpt lat="44.2395101" lon="11.4914104"><ele>413.0</ele><time>2026-04-12T11:20:24.973Z</time></trkpt><trkpt lat="44.2393978" lon="11.4915803"><ele>413.3333333333333</ele><time>2026-04-12T11:20:25.973Z</time></trkpt><trkpt lat="44.2392487" lon="11.4917286"><ele>413.66666666666663</ele><time>2026-04-12T11:20:26.972Z</time></trkpt><trkpt lat="44.2390765" lon="11.4918482"><ele>414.0</ele><time>2026-04-12T11:20:27.973Z</time></trkpt><trkpt lat="44.2388943" lon="11.4919246"><ele>410.66666666666663</ele><time>2026-04-12T11:20:28.972Z</time></trkpt><trkpt lat="44.2387073" lon="11.4919576"><ele>407.3333333333333</ele><time>2026-04-12T11:20:29.972Z</time></trkpt><trkpt lat="44.2385246" lon="11.4919598"><ele>404.0</ele><time>2026-04-12T11:20:30.972Z</time></trkpt><trkpt lat="44.2383469" lon="11.4919431"><ele>404.0</ele><time>2026-04-12T11:20:31.972Z</time></trkpt><trkpt lat="44.2381744" lon="11.4919184"><ele>404.0</ele><time>2026-04-12T11:20:32.974Z</time></trkpt><trkpt lat="44.238015" lon="11.4918925"><ele>404.0</ele><time>2026-04-12T11:20:33.972Z</time></trkpt><trkpt lat="44.2378667" lon="11.4918859"><ele>405.25</ele><time>2026-04-12T11:20:34.972Z</time></trkpt><trkpt lat="44.2377279" lon="11.4919164"><ele>406.5</ele><time>2026-04-12T11:20:35.974Z</time></trkpt><trkpt lat="44.237599" lon="11.491989"><ele>407.75</ele><time>2026-04-12T11:20:36.974Z</time></trkpt><trkpt lat="44.2374905" lon="11.4920906"><ele>409.0</ele><time>2026-04-12T11:20:37.974Z</time></trkpt><trkpt lat="44.2374093" lon="11.4922111"><ele>409.0</ele><time>2026-04-12T11:20:38.973Z</time></trkpt><trkpt lat="44.2373544" lon="11.4923327"><ele>409.0</ele><time>2026-04-12T11:20:39.972Z</time></trkpt><trkpt lat="44.2373066" lon="11.4924217"><ele>409.0</ele><time>2026-04-12T11:20:40.973Z</time></trkpt><trkpt lat="44.2371891" lon="11.4924535"><ele>409.0</ele><time>2026-04-12T11:20:42.973Z</time></trkpt><trkpt lat="44.2371105" lon="11.4923973"><ele>409.0</ele><time>2026-04-12T11:20:43.973Z</time></trkpt><trkpt lat="44.2370169" lon="11.4922995"><ele>411.33333333333337</ele><time>2026-04-12T11:20:44.973Z</time></trkpt><trkpt lat="44.2368967" lon="11.4921474"><ele>413.66666666666663</ele><time>2026-04-12T11:20:45.973Z</time></trkpt><trkpt lat="44.2367648" lon="11.4919553"><ele>416.0</ele><time>2026-04-12T11:20:46.973Z</time></trkpt><trkpt lat="44.2366296" lon="11.4917968"><ele>408.0</ele><time>2026-04-12T11:20:47.974Z</time></trkpt><trkpt lat="44.2364865" lon="11.4916722"><ele>400.0</ele><time>2026-04-12T11:20:48.973Z</time></trkpt><trkpt lat="44.2363318" lon="11.4915955"><ele>392.0</ele><time>2026-04-12T11:20:49.972Z</time></trkpt><trkpt lat="44.2361787" lon="11.4915376"><ele>392.0</ele><time>2026-04-12T11:20:50.973Z</time></trkpt><trkpt lat="44.2360377" lon="11.4914953"><ele>392.0</ele><time>2026-04-12T11:20:51.972Z</time></trkpt><trkpt lat="44.2359028" lon="11.4914828"><ele>392.0</ele><time>2026-04-12T11:20:52.972Z</time></trkpt><trkpt lat="44.2357757" lon="11.4915084"><ele>392.0</ele><time>2026-04-12T11:20:53.972Z</time></trkpt><trkpt lat="44.2356603" lon="11.4915848"><ele>387.75</ele><time>2026-04-12T11:20:54.974Z</time></trkpt><trkpt lat="44.235574" lon="11.4917056"><ele>383.5</ele><time>2026-04-12T11:20:55.972Z</time></trkpt><trkpt lat="44.2355233" lon="11.491862"><ele>379.25</ele><time>2026-04-12T11:20:56.973Z</time></trkpt><trkpt lat="44.2355183" lon="11.4920393"><ele>375.0</ele><time>2026-04-12T11:20:57.972Z</time></trkpt><trkpt lat="44.2355366" lon="11.4922199"><ele>375.0</ele><time>2026-04-12T11:20:58.972Z</time></trkpt><trkpt lat="44.2355567" lon="11.492388"><ele>375.0</ele><time>2026-04-12T11:20:59.973Z</time></trkpt><trkpt lat="44.2355525" lon="11.4925447"><ele>375.0</ele><time>2026-04-12T11:21:00.974Z</time></trkpt><trkpt lat="44.2355089" lon="11.4926861"><ele>375.0</ele><time>2026-04-12T11:21:01.973Z</time></trkpt><trkpt lat="44.2354122" lon="11.4928056"><ele>375.0</ele><time>2026-04-12T11:21:02.973Z</time></trkpt><trkpt lat="44.2352867" lon="11.4929018"><ele>375.0</ele><time>2026-04-12T11:21:03.972Z</time></trkpt><trkpt lat="44.2351703" lon="11.4929882"><ele>375.0</ele><time>2026-04-12T11:21:04.972Z</time></trkpt><trkpt lat="44.2350609" lon="11.4930723"><ele>375.0</ele><time>2026-04-12T11:21:05.972Z</time></trkpt><trkpt lat="44.2349665" lon="11.4931504"><ele>375.6</ele><time>2026-04-12T11:21:06.975Z</time></trkpt><trkpt lat="44.2348648" lon="11.4931985"><ele>376.2</ele><time>2026-04-12T11:21:07.972Z</time></trkpt><trkpt lat="44.2347737" lon="11.4931912"><ele>376.79999999999995</ele><time>2026-04-12T11:21:08.973Z</time></trkpt><trkpt lat="44.2346834" lon="11.4931338"><ele>377.4</ele><time>2026-04-12T11:21:09.974Z</time></trkpt><trkpt lat="44.2346025" lon="11.4930373"><ele>378.0</ele><time>2026-04-12T11:21:10.974Z</time></trkpt><trkpt lat="44.2345496" lon="11.4929081"><ele>378.0</ele><time>2026-04-12T11:21:11.973Z</time></trkpt><trkpt lat="44.2345363" lon="11.4927465"><ele>378.0</ele><time>2026-04-12T11:21:12.972Z</time></trkpt><trkpt lat="44.2345615" lon="11.4925585"><ele>378.0</ele><time>2026-04-12T11:21:13.972Z</time></trkpt><trkpt lat="44.2345912" lon="11.492352"><ele>378.0</ele><time>2026-04-12T11:21:14.972Z</time></trkpt><trkpt lat="44.2346068" lon="11.4921495"><ele>375.0</ele><time>2026-04-12T11:21:15.972Z</time></trkpt><trkpt lat="44.2346108" lon="11.4919546"><ele>372.0</ele><time>2026-04-12T11:21:16.974Z</time></trkpt><trkpt lat="44.2345951" lon="11.4917832"><ele>369.0</ele><time>2026-04-12T11:21:17.973Z</time></trkpt><trkpt lat="44.2345583" lon="11.4916487"><ele>366.0</ele><time>2026-04-12T11:21:18.973Z</time></trkpt><trkpt lat="44.2344919" lon="11.4915647"><ele>366.0</ele><time>2026-04-12T11:21:19.973Z</time></trkpt><trkpt lat="44.2344105" lon="11.4915198"><ele>366.0</ele><time>2026-04-12T11:21:20.974Z</time></trkpt><trkpt lat="44.2342685" lon="11.4915376"><ele>366.0</ele><time>2026-04-12T11:21:21.974Z</time></trkpt><trkpt lat="44.2341033" lon="11.4915737"><ele>366.0</ele><time>2026-04-12T11:21:22.972Z</time></trkpt><trkpt lat="44.2339168" lon="11.4916077"><ele>364.3333333333333</ele><time>2026-04-12T11:21:23.972Z</time></trkpt><trkpt lat="44.23373" lon="11.4916453"><ele>362.66666666666663</ele><time>2026-04-12T11:21:24.973Z</time></trkpt><trkpt lat="44.2335667" lon="11.4916898"><ele>361.0</ele><time>2026-04-12T11:21:25.973Z</time></trkpt><trkpt lat="44.2334143" lon="11.4917339"><ele>361.0</ele><time>2026-04-12T11:21:26.973Z</time></trkpt><trkpt lat="44.2332721" lon="11.4917494"><ele>361.0</ele><time>2026-04-12T11:21:27.973Z</time></trkpt><trkpt lat="44.2331376" lon="11.4917178"><ele>361.0</ele><time>2026-04-12T11:21:28.972Z</time></trkpt><trkpt lat="44.2330178" lon="11.4916259"><ele>361.0</ele><time>2026-04-12T11:21:29.975Z</time></trkpt><trkpt lat="44.2329211" lon="11.4914719"><ele>360.75</ele><time>2026-04-12T11:21:30.972Z</time></trkpt><trkpt lat="44.2328416" lon="11.4912937"><ele>360.5</ele><time>2026-04-12T11:21:31.973Z</time></trkpt><trkpt lat="44.2327634" lon="11.4911345"><ele>360.25</ele><time>2026-04-12T11:21:32.973Z</time></trkpt><trkpt lat="44.2326612" lon="11.4910194"><ele>360.0</ele><time>2026-04-12T11:21:33.972Z</time></trkpt><trkpt lat="44.2325381" lon="11.4909532"><ele>356.0</ele><time>2026-04-12T11:21:34.973Z</time></trkpt><trkpt lat="44.2324132" lon="11.4909384"><ele>352.0</ele><time>2026-04-12T11:21:35.972Z</time></trkpt><trkpt lat="44.2322958" lon="11.4909795"><ele>348.0</ele><time>2026-04-12T11:21:36.973Z</time></trkpt><trkpt lat="44.2321883" lon="11.4910751"><ele>344.0</ele><time>2026-04-12T11:21:37.972Z</time></trkpt><trkpt lat="44.2320966" lon="11.4911803"><ele>341.75</ele><time>2026-04-12T11:21:38.972Z</time></trkpt><trkpt lat="44.2320014" lon="11.4912528"><ele>339.5</ele><time>2026-04-12T11:21:39.972Z</time></trkpt><trkpt lat="44.2318985" lon="11.4912724"><ele>337.25</ele><time>2026-04-12T11:21:40.973Z</time></trkpt><trkpt lat="44.2317827" lon="11.4912216"><ele>335.0</ele><time>2026-04-12T11:21:41.972Z</time></trkpt><trkpt lat="44.2316432" lon="11.4911453"><ele>335.0</ele><time>2026-04-12T11:21:42.973Z</time></trkpt><trkpt lat="44.2314771" lon="11.4910978"><ele>335.0</ele><time>2026-04-12T11:21:43.972Z</time></trkpt><trkpt lat="44.2312844" lon="11.4910859"><ele>335.0</ele><time>2026-04-12T11:21:44.973Z</time></trkpt><trkpt lat="44.2310633" lon="11.4910906"><ele>333.6666666666667</ele><time>2026-04-12T11:21:45.973Z</time></trkpt><trkpt lat="44.2308581" lon="11.4911028"><ele>332.3333333333333</ele><time>2026-04-12T11:21:46.973Z</time></trkpt><trkpt lat="44.2306798" lon="11.4911313"><ele>331.0</ele><time>2026-04-12T11:21:47.973Z</time></trkpt><trkpt lat="44.2305164" lon="11.4911734"><ele>330.25</ele><time>2026-04-12T11:21:48.973Z</time></trkpt><trkpt lat="44.2303695" lon="11.4911895"><ele>329.5</ele><time>2026-04-12T11:21:49.972Z</time></trkpt><trkpt lat="44.2302384" lon="11.4911746"><ele>328.75</ele><time>2026-04-12T11:21:50.972Z</time></trkpt><trkpt lat="44.2301252" lon="11.4911699"><ele>328.0</ele><time>2026-04-12T11:21:51.973Z</time></trkpt><trkpt lat="44.2300241" lon="11.4911776"><ele>328.0</ele><time>2026-04-12T11:21:52.972Z</time></trkpt><trkpt lat="44.2299354" lon="11.4911839"><ele>328.0</ele><time>2026-04-12T11:21:53.974Z</time></trkpt><trkpt lat="44.2298533" lon="11.491167"><ele>328.0</ele><time>2026-04-12T11:21:54.976Z</time></trkpt><trkpt lat="44.2297709" lon="11.4911188"><ele>328.0</ele><time>2026-04-12T11:21:55.973Z</time></trkpt><trkpt lat="44.2297168" lon="11.4910086"><ele>328.0</ele><time>2026-04-12T11:21:56.974Z</time></trkpt><trkpt lat="44.2296504" lon="11.4909114"><ele>329.59999999999997</ele><time>2026-04-12T11:21:57.972Z</time></trkpt><trkpt lat="44.2295721" lon="11.490841"><ele>331.2</ele><time>2026-04-12T11:21:58.973Z</time></trkpt><trkpt lat="44.2294761" lon="11.4907985"><ele>332.8</ele><time>2026-04-12T11:21:59.972Z</time></trkpt><trkpt lat="44.229362" lon="11.4907681"><ele>334.4</ele><time>2026-04-12T11:22:00.973Z</time></trkpt><trkpt lat="44.2292366" lon="11.4907302"><ele>336.0</ele><time>2026-04-12T11:22:01.972Z</time></trkpt><trkpt lat="44.2290977" lon="11.4907013"><ele>335.3333333333333</ele><time>2026-04-12T11:22:02.972Z</time></trkpt><trkpt lat="44.2289474" lon="11.4907013"><ele>334.66666666666663</ele><time>2026-04-12T11:22:03.973Z</time></trkpt><trkpt lat="44.2287976" lon="11.4907159"><ele>334.0</ele><time>2026-04-12T11:22:04.972Z</time></trkpt><trkpt lat="44.2286482" lon="11.4907185"><ele>334.0</ele><time>2026-04-12T11:22:05.973Z</time></trkpt><trkpt lat="44.2285042" lon="11.4906959"><ele>334.0</ele><time>2026-04-12T11:22:06.972Z</time></trkpt><trkpt lat="44.2283582" lon="11.4906262"><ele>334.0</ele><time>2026-04-12T11:22:07.975Z</time></trkpt><trkpt lat="44.2282136" lon="11.4905305"><ele>336.3333333333333</ele><time>2026-04-12T11:22:08.972Z</time></trkpt><trkpt lat="44.2280626" lon="11.490425"><ele>338.6666666666667</ele><time>2026-04-12T11:22:09.973Z</time></trkpt><trkpt lat="44.2279101" lon="11.4903132"><ele>341.0</ele><time>2026-04-12T11:22:10.974Z</time></trkpt><trkpt lat="44.2277627" lon="11.4902016"><ele>331.0</ele><time>2026-04-12T11:22:11.972Z</time></trkpt><trkpt lat="44.2276228" lon="11.4901116"><ele>321.0</ele><time>2026-04-12T11:22:12.972Z</time></trkpt><trkpt lat="44.2274758" lon="11.4900668"><ele>311.0</ele><time>2026-04-12T11:22:13.973Z</time></trkpt><trkpt lat="44.2273129" lon="11.4900457"><ele>308.33333333333337</ele><time>2026-04-12T11:22:14.973Z</time></trkpt><trkpt lat="44.2271446" lon="11.4900364"><ele>305.6666666666667</ele><time>2026-04-12T11:22:15.973Z</time></trkpt><trkpt lat="44.2269685" lon="11.4900395"><ele>303.0</ele><time>2026-04-12T11:22:16.972Z</time></trkpt><trkpt lat="44.2268034" lon="11.4900586"><ele>303.0</ele><time>2026-04-12T11:22:17.971Z</time></trkpt><trkpt lat="44.2266604" lon="11.4900742"><ele>303.0</ele><time>2026-04-12T11:22:18.971Z</time></trkpt><trkpt lat="44.226537" lon="11.4900943"><ele>303.0</ele><time>2026-04-12T11:22:19.972Z</time></trkpt><trkpt lat="44.2264338" lon="11.4901345"><ele>303.0</ele><time>2026-04-12T11:22:20.973Z</time></trkpt><trkpt lat="44.2263531" lon="11.4902213"><ele>304.0</ele><time>2026-04-12T11:22:21.974Z</time></trkpt><trkpt lat="44.226297" lon="11.4903501"><ele>305.0</ele><time>2026-04-12T11:22:22.972Z</time></trkpt><trkpt lat="44.2262695" lon="11.4904845"><ele>306.0</ele><time>2026-04-12T11:22:23.972Z</time></trkpt><trkpt lat="44.2262471" lon="11.4905892"><ele>307.0</ele><time>2026-04-12T11:22:24.973Z</time></trkpt><trkpt lat="44.2262096" lon="11.4906986"><ele>308.0</ele><time>2026-04-12T11:22:26.973Z</time></trkpt><trkpt lat="44.226101" lon="11.4907723"><ele>308.0</ele><time>2026-04-12T11:22:54.972Z</time></trkpt><trkpt lat="44.2260191" lon="11.4908037"><ele>308.0</ele><time>2026-04-12T11:22:55.972Z</time></trkpt><trkpt lat="44.2259143" lon="11.4908268"><ele>308.0</ele><time>2026-04-12T11:22:56.973Z</time></trkpt><trkpt lat="44.2258002" lon="11.4908498"><ele>308.0</ele><time>2026-04-12T11:22:57.973Z</time></trkpt><trkpt lat="44.2256772" lon="11.4908953"><ele>308.0</ele><time>2026-04-12T11:22:58.973Z</time></trkpt><trkpt lat="44.225549" lon="11.4909668"><ele>304.0</ele><time>2026-04-12T11:22:59.972Z</time></trkpt><trkpt lat="44.225425" lon="11.4910649"><ele>300.0</ele><time>2026-04-12T11:23:00.974Z</time></trkpt><trkpt lat="44.2253097" lon="11.4911756"><ele>296.0</ele><time>2026-04-12T11:23:01.974Z</time></trkpt><trkpt lat="44.2252147" lon="11.4912902"><ele>292.0</ele><time>2026-04-12T11:23:02.973Z</time></trkpt><trkpt lat="44.2251622" lon="11.4914119"><ele>292.0</ele><time>2026-04-12T11:23:03.972Z</time></trkpt><trkpt lat="44.225155" lon="11.491551"><ele>292.0</ele><time>2026-04-12T11:23:04.973Z</time></trkpt><trkpt lat="44.2252" lon="11.491683"><ele>292.0</ele><time>2026-04-12T11:23:05.971Z</time></trkpt><trkpt lat="44.2252806" lon="11.4917825"><ele>292.0</ele><time>2026-04-12T11:23:06.972Z</time></trkpt><trkpt lat="44.2253735" lon="11.4918556"><ele>292.0</ele><time>2026-04-12T11:23:07.973Z</time></trkpt><trkpt lat="44.2254663" lon="11.4919199"><ele>292.0</ele><time>2026-04-12T11:23:08.972Z</time></trkpt><trkpt lat="44.2255395" lon="11.4919919"><ele>292.0</ele><time>2026-04-12T11:23:09.973Z</time></trkpt><trkpt lat="44.2255999" lon="11.4920702"><ele>292.0</ele><time>2026-04-12T11:23:10.973Z</time></trkpt><trkpt lat="44.2256042" lon="11.4921764"><ele>292.0</ele><time>2026-04-12T11:23:11.972Z</time></trkpt><trkpt lat="44.2255891" lon="11.4922699"><ele>292.0</ele><time>2026-04-12T11:23:12.974Z</time></trkpt><trkpt lat="44.2255138" lon="11.4923442"><ele>292.0</ele><time>2026-04-12T11:23:13.972Z</time></trkpt><trkpt lat="44.2254189" lon="11.4923917"><ele>297.66666666666663</ele><time>2026-04-12T11:23:14.972Z</time></trkpt><trkpt lat="44.2252823" lon="11.4924069"><ele>303.3333333333333</ele><time>2026-04-12T11:23:15.972Z</time></trkpt><trkpt lat="44.2251296" lon="11.4924081"><ele>309.0</ele><time>2026-04-12T11:23:16.972Z</time></trkpt><trkpt lat="44.2249626" lon="11.4923739"><ele>309.0</ele><time>2026-04-12T11:23:17.972Z</time></trkpt><trkpt lat="44.2248183" lon="11.4923123"><ele>309.0</ele><time>2026-04-12T11:23:18.973Z</time></trkpt><trkpt lat="44.2246925" lon="11.4922279"><ele>309.0</ele><time>2026-04-12T11:23:19.973Z</time></trkpt><trkpt lat="44.2245898" lon="11.4921507"><ele>309.0</ele><time>2026-04-12T11:23:20.972Z</time></trkpt><trkpt lat="44.2244904" lon="11.4921293"><ele>301.0</ele><time>2026-04-12T11:23:21.971Z</time></trkpt><trkpt lat="44.224396" lon="11.4921846"><ele>293.0</ele><time>2026-04-12T11:23:22.972Z</time></trkpt><trkpt lat="44.2243093" lon="11.4923033"><ele>285.0</ele><time>2026-04-12T11:23:23.972Z</time></trkpt><trkpt lat="44.2242257" lon="11.4924703"><ele>277.0</ele><time>2026-04-12T11:23:24.974Z</time></trkpt><trkpt lat="44.2241271" lon="11.4926376"><ele>277.0</ele><time>2026-04-12T11:23:25.972Z</time></trkpt><trkpt lat="44.2240271" lon="11.4928036"><ele>277.0</ele><time>2026-04-12T11:23:26.974Z</time></trkpt><trkpt lat="44.2239484" lon="11.4929839"><ele>277.0</ele><time>2026-04-12T11:23:27.972Z</time></trkpt><trkpt lat="44.2238722" lon="11.4931648"><ele>272.75</ele><time>2026-04-12T11:23:28.972Z</time></trkpt><trkpt lat="44.2237866" lon="11.4933242"><ele>268.5</ele><time>2026-04-12T11:23:29.972Z</time></trkpt><trkpt lat="44.2237022" lon="11.493467"><ele>264.25</ele><time>2026-04-12T11:23:30.971Z</time></trkpt><trkpt lat="44.2236494" lon="11.49362"><ele>260.0</ele><time>2026-04-12T11:23:31.972Z</time></trkpt><trkpt lat="44.2236335" lon="11.4937829"><ele>260.0</ele><time>2026-04-12T11:23:32.974Z</time></trkpt><trkpt lat="44.2236559" lon="11.4939327"><ele>260.0</ele><time>2026-04-12T11:23:33.975Z</time></trkpt><trkpt lat="44.2237288" lon="11.4940572"><ele>260.0</ele><time>2026-04-12T11:23:34.972Z</time></trkpt><trkpt lat="44.2238325" lon="11.4941485"><ele>260.0</ele><time>2026-04-12T11:23:35.973Z</time></trkpt><trkpt lat="44.2239547" lon="11.4942361"><ele>264.33333333333337</ele><time>2026-04-12T11:23:36.973Z</time></trkpt><trkpt lat="44.2240797" lon="11.494346"><ele>268.6666666666667</ele><time>2026-04-12T11:23:37.972Z</time></trkpt><trkpt lat="44.2241935" lon="11.4944947"><ele>273.0</ele><time>2026-04-12T11:23:38.972Z</time></trkpt><trkpt lat="44.2243069" lon="11.4946466"><ele>273.0</ele><time>2026-04-12T11:23:39.971Z</time></trkpt><trkpt lat="44.2244302" lon="11.4947851"><ele>273.0</ele><time>2026-04-12T11:23:40.974Z</time></trkpt><trkpt lat="44.2245698" lon="11.4948898"><ele>273.0</ele><time>2026-04-12T11:23:41.973Z</time></trkpt><trkpt lat="44.224726" lon="11.4949662"><ele>277.3333333333333</ele><time>2026-04-12T11:23:42.972Z</time></trkpt><trkpt lat="44.2248862" lon="11.495009"><ele>281.66666666666663</ele><time>2026-04-12T11:23:43.974Z</time></trkpt><trkpt lat="44.2250379" lon="11.4950017"><ele>286.0</ele><time>2026-04-12T11:23:44.974Z</time></trkpt><trkpt lat="44.2251746" lon="11.4949598"><ele>286.0</ele><time>2026-04-12T11:23:45.972Z</time></trkpt><trkpt lat="44.2252908" lon="11.4949013"><ele>286.0</ele><time>2026-04-12T11:23:46.972Z</time></trkpt><trkpt lat="44.2253824" lon="11.4948585"><ele>286.0</ele><time>2026-04-12T11:23:47.973Z</time></trkpt><trkpt lat="44.225462" lon="11.4948507"><ele>286.0</ele><time>2026-04-12T11:23:48.975Z</time></trkpt><trkpt lat="44.2255342" lon="11.494863"><ele>286.0</ele><time>2026-04-12T11:23:49.972Z</time></trkpt><trkpt lat="44.22557" lon="11.4949465"><ele>286.0</ele><time>2026-04-12T11:23:50.974Z</time></trkpt><trkpt lat="44.2255497" lon="11.4950779"><ele>286.0</ele><time>2026-04-12T11:23:51.972Z</time></trkpt><trkpt lat="44.2254858" lon="11.4951931"><ele>286.0</ele><time>2026-04-12T11:23:52.973Z</time></trkpt><trkpt lat="44.2253902" lon="11.4952922"><ele>286.0</ele><time>2026-04-12T11:23:53.972Z</time></trkpt><trkpt lat="44.225273" lon="11.495384"><ele>286.0</ele><time>2026-04-12T11:23:54.972Z</time></trkpt><trkpt lat="44.2251455" lon="11.4954748"><ele>287.66666666666663</ele><time>2026-04-12T11:23:55.972Z</time></trkpt><trkpt lat="44.2250096" lon="11.4955594"><ele>289.3333333333333</ele><time>2026-04-12T11:23:56.974Z</time></trkpt><trkpt lat="44.2248606" lon="11.4956205"><ele>291.0</ele><time>2026-04-12T11:23:57.972Z</time></trkpt><trkpt lat="44.2247038" lon="11.4956654"><ele>292.6666666666667</ele><time>2026-04-12T11:23:58.973Z</time></trkpt><trkpt lat="44.2245368" lon="11.495678"><ele>294.33333333333337</ele><time>2026-04-12T11:23:59.974Z</time></trkpt><trkpt lat="44.2243602" lon="11.4956637"><ele>296.0</ele><time>2026-04-12T11:24:00.974Z</time></trkpt><trkpt lat="44.2241833" lon="11.4956165"><ele>296.0</ele><time>2026-04-12T11:24:01.974Z</time></trkpt><trkpt lat="44.224018" lon="11.4955544"><ele>296.0</ele><time>2026-04-12T11:24:02.975Z</time></trkpt><trkpt lat="44.2238622" lon="11.4954923"><ele>296.0</ele><time>2026-04-12T11:24:03.973Z</time></trkpt><trkpt lat="44.2237115" lon="11.4954282"><ele>286.75</ele><time>2026-04-12T11:24:04.973Z</time></trkpt><trkpt lat="44.2235705" lon="11.4953512"><ele>277.5</ele><time>2026-04-12T11:24:05.973Z</time></trkpt><trkpt lat="44.2234528" lon="11.4952763"><ele>268.25</ele><time>2026-04-12T11:24:06.974Z</time></trkpt><trkpt lat="44.2233487" lon="11.4952498"><ele>259.0</ele><time>2026-04-12T11:24:07.974Z</time></trkpt><trkpt lat="44.2232399" lon="11.495273"><ele>257.75</ele><time>2026-04-12T11:24:08.974Z</time></trkpt><trkpt lat="44.2231361" lon="11.4953585"><ele>256.5</ele><time>2026-04-12T11:24:09.974Z</time></trkpt><trkpt lat="44.2230383" lon="11.4954961"><ele>255.25</ele><time>2026-04-12T11:24:10.974Z</time></trkpt><trkpt lat="44.2229367" lon="11.4956616"><ele>254.0</ele><time>2026-04-12T11:24:11.975Z</time></trkpt><trkpt lat="44.2228178" lon="11.4958365"><ele>254.0</ele><time>2026-04-12T11:24:12.973Z</time></trkpt><trkpt lat="44.222695" lon="11.4960308"><ele>254.0</ele><time>2026-04-12T11:24:13.974Z</time></trkpt><trkpt lat="44.2225689" lon="11.4962483"><ele>254.0</ele><time>2026-04-12T11:24:14.975Z</time></trkpt><trkpt lat="44.2224513" lon="11.4964868"><ele>259.6666666666667</ele><time>2026-04-12T11:24:15.973Z</time></trkpt><trkpt lat="44.2223567" lon="11.4967091"><ele>265.3333333333333</ele><time>2026-04-12T11:24:16.974Z</time></trkpt><trkpt lat="44.2222854" lon="11.4968931"><ele>271.0</ele><time>2026-04-12T11:24:17.974Z</time></trkpt><trkpt lat="44.2222495" lon="11.4970695"><ele>266.0</ele><time>2026-04-12T11:24:18.973Z</time></trkpt><trkpt lat="44.2222495" lon="11.4972439"><ele>261.0</ele><time>2026-04-12T11:24:19.975Z</time></trkpt><trkpt lat="44.2222556" lon="11.4973975"><ele>256.0</ele><time>2026-04-12T11:24:20.974Z</time></trkpt><trkpt lat="44.2222405" lon="11.4975246"><ele>251.0</ele><time>2026-04-12T11:24:21.973Z</time></trkpt><trkpt lat="44.222192" lon="11.4976192"><ele>246.0</ele><time>2026-04-12T11:24:22.973Z</time></trkpt><trkpt lat="44.2221081" lon="11.4976682"><ele>246.0</ele><time>2026-04-12T11:24:23.975Z</time></trkpt><trkpt lat="44.2220092" lon="11.4976993"><ele>246.0</ele><time>2026-04-12T11:24:24.975Z</time></trkpt><trkpt lat="44.2219031" lon="11.4977432"><ele>246.0</ele><time>2026-04-12T11:24:25.973Z</time></trkpt><trkpt lat="44.2218001" lon="11.497826"><ele>246.0</ele><time>2026-04-12T11:24:26.974Z</time></trkpt><trkpt lat="44.2217129" lon="11.4979597"><ele>250.25</ele><time>2026-04-12T11:24:27.975Z</time></trkpt><trkpt lat="44.2216324" lon="11.4981051"><ele>254.5</ele><time>2026-04-12T11:24:28.978Z</time></trkpt><trkpt lat="44.221567" lon="11.4982512"><ele>258.75</ele><time>2026-04-12T11:24:29.973Z</time></trkpt><trkpt lat="44.2215352" lon="11.4984143"><ele>263.0</ele><time>2026-04-12T11:24:30.973Z</time></trkpt><trkpt lat="44.221541" lon="11.4985823"><ele>263.0</ele><time>2026-04-12T11:24:31.975Z</time></trkpt><trkpt lat="44.2215463" lon="11.4987434"><ele>263.0</ele><time>2026-04-12T11:24:32.974Z</time></trkpt><trkpt lat="44.2215206" lon="11.4989025"><ele>263.0</ele><time>2026-04-12T11:24:33.973Z</time></trkpt><trkpt lat="44.2214543" lon="11.4990513"><ele>263.0</ele><time>2026-04-12T11:24:34.974Z</time></trkpt><trkpt lat="44.2213542" lon="11.4991914"><ele>262.0</ele><time>2026-04-12T11:24:35.973Z</time></trkpt><trkpt lat="44.2212477" lon="11.499331"><ele>261.0</ele><time>2026-04-12T11:24:36.974Z</time></trkpt><trkpt lat="44.2211569" lon="11.4994817"><ele>260.0</ele><time>2026-04-12T11:24:37.975Z</time></trkpt><trkpt lat="44.2210582" lon="11.499615"><ele>259.0</ele><time>2026-04-12T11:24:38.974Z</time></trkpt><trkpt lat="44.2209336" lon="11.4997094"><ele>259.0</ele><time>2026-04-12T11:24:39.974Z</time></trkpt><trkpt lat="44.2207829" lon="11.4997678"><ele>259.0</ele><time>2026-04-12T11:24:40.973Z</time></trkpt><trkpt lat="44.220637" lon="11.4998146"><ele>259.0</ele><time>2026-04-12T11:24:41.976Z</time></trkpt><trkpt lat="44.2204965" lon="11.4998731"><ele>255.0</ele><time>2026-04-12T11:24:42.973Z</time></trkpt><trkpt lat="44.220362" lon="11.4999507"><ele>251.0</ele><time>2026-04-12T11:24:43.973Z</time></trkpt><trkpt lat="44.2202352" lon="11.5000439"><ele>247.0</ele><time>2026-04-12T11:24:44.973Z</time></trkpt><trkpt lat="44.2201067" lon="11.5001206"><ele>243.0</ele><time>2026-04-12T11:24:45.974Z</time></trkpt><trkpt lat="44.2199636" lon="11.5001453"><ele>240.0</ele><time>2026-04-12T11:24:46.974Z</time></trkpt><trkpt lat="44.2198161" lon="11.5001454"><ele>237.0</ele><time>2026-04-12T11:24:47.973Z</time></trkpt><trkpt lat="44.2196746" lon="11.5001662"><ele>234.0</ele><time>2026-04-12T11:24:48.974Z</time></trkpt><trkpt lat="44.2195393" lon="11.5002244"><ele>231.0</ele><time>2026-04-12T11:24:49.972Z</time></trkpt><trkpt lat="44.2193971" lon="11.5002851"><ele>231.0</ele><time>2026-04-12T11:24:50.973Z</time></trkpt><trkpt lat="44.2192597" lon="11.5003036"><ele>231.0</ele><time>2026-04-12T11:24:51.976Z</time></trkpt><trkpt lat="44.2191281" lon="11.5002869"><ele>231.0</ele><time>2026-04-12T11:24:52.975Z</time></trkpt><trkpt lat="44.2189987" lon="11.5002788"><ele>231.0</ele><time>2026-04-12T11:24:53.972Z</time></trkpt><trkpt lat="44.2188621" lon="11.5003126"><ele>229.33333333333331</ele><time>2026-04-12T11:24:54.973Z</time></trkpt><trkpt lat="44.2187222" lon="11.5003987"><ele>227.66666666666666</ele><time>2026-04-12T11:24:55.973Z</time></trkpt><trkpt lat="44.2185904" lon="11.5005316"><ele>226.0</ele><time>2026-04-12T11:24:56.974Z</time></trkpt><trkpt lat="44.2184625" lon="11.5006985"><ele>226.0</ele><time>2026-04-12T11:24:57.975Z</time></trkpt><trkpt lat="44.2183322" lon="11.5009036"><ele>226.0</ele><time>2026-04-12T11:24:58.974Z</time></trkpt><trkpt lat="44.218211" lon="11.5011278"><ele>226.0</ele><time>2026-04-12T11:24:59.974Z</time></trkpt><trkpt lat="44.2181098" lon="11.501352"><ele>219.66666666666666</ele><time>2026-04-12T11:25:00.974Z</time></trkpt><trkpt lat="44.2180234" lon="11.5015732"><ele>213.33333333333331</ele><time>2026-04-12T11:25:01.975Z</time></trkpt><trkpt lat="44.2179491" lon="11.5017866"><ele>207.0</ele><time>2026-04-12T11:25:02.973Z</time></trkpt><trkpt lat="44.2178769" lon="11.5019865"><ele>208.0</ele><time>2026-04-12T11:25:03.976Z</time></trkpt><trkpt lat="44.2178149" lon="11.5021918"><ele>209.0</ele><time>2026-04-12T11:25:04.973Z</time></trkpt><trkpt lat="44.2177712" lon="11.5024122"><ele>210.0</ele><time>2026-04-12T11:25:05.973Z</time></trkpt><trkpt lat="44.2177434" lon="11.502629"><ele>210.0</ele><time>2026-04-12T11:25:06.975Z</time></trkpt><trkpt lat="44.2177257" lon="11.5028246"><ele>210.0</ele><time>2026-04-12T11:25:07.972Z</time></trkpt><trkpt lat="44.2177234" lon="11.5029908"><ele>210.0</ele><time>2026-04-12T11:25:08.973Z</time></trkpt><trkpt lat="44.2177498" lon="11.503125"><ele>210.0</ele><time>2026-04-12T11:25:09.974Z</time></trkpt><trkpt lat="44.2178029" lon="11.5032193"><ele>210.0</ele><time>2026-04-12T11:25:10.973Z</time></trkpt><trkpt lat="44.217852" lon="11.5032934"><ele>208.75</ele><time>2026-04-12T11:25:11.974Z</time></trkpt><trkpt lat="44.2178364" lon="11.5034386"><ele>207.5</ele><time>2026-04-12T11:25:13.974Z</time></trkpt><trkpt lat="44.2177122" lon="11.5034023"><ele>206.25</ele><time>2026-04-12T11:25:15.973Z</time></trkpt><trkpt lat="44.2176356" lon="11.5032923"><ele>205.0</ele><time>2026-04-12T11:25:16.974Z</time></trkpt><trkpt lat="44.2175769" lon="11.503149"><ele>205.0</ele><time>2026-04-12T11:25:17.973Z</time></trkpt><trkpt lat="44.2175586" lon="11.5029537"><ele>205.0</ele><time>2026-04-12T11:25:18.973Z</time></trkpt><trkpt lat="44.2175491" lon="11.5027629"><ele>205.0</ele><time>2026-04-12T11:25:19.973Z</time></trkpt><trkpt lat="44.2175497" lon="11.502602"><ele>205.0</ele><time>2026-04-12T11:25:20.972Z</time></trkpt><trkpt lat="44.2175414" lon="11.5024589"><ele>206.0</ele><time>2026-04-12T11:25:21.973Z</time></trkpt><trkpt lat="44.217508" lon="11.5023509"><ele>207.0</ele><time>2026-04-12T11:25:22.972Z</time></trkpt><trkpt lat="44.2174532" lon="11.5022946"><ele>208.0</ele><time>2026-04-12T11:25:23.973Z</time></trkpt><trkpt lat="44.2173512" lon="11.5023829"><ele>209.0</ele><time>2026-04-12T11:25:25.972Z</time></trkpt><trkpt lat="44.2173349" lon="11.5025085"><ele>210.0</ele><time>2026-04-12T11:25:26.974Z</time></trkpt><trkpt lat="44.2173305" lon="11.5026456"><ele>210.0</ele><time>2026-04-12T11:25:27.972Z</time></trkpt><trkpt lat="44.2173255" lon="11.5027773"><ele>210.0</ele><time>2026-04-12T11:25:28.973Z</time></trkpt><trkpt lat="44.2173215" lon="11.5028841"><ele>210.0</ele><time>2026-04-12T11:25:29.974Z</time></trkpt><trkpt lat="44.2173079" lon="11.5030111"><ele>210.0</ele><time>2026-04-12T11:25:31.974Z</time></trkpt><trkpt lat="44.2172522" lon="11.5031078"><ele>210.0</ele><time>2026-04-12T11:25:38.975Z</time></trkpt><trkpt lat="44.2171617" lon="11.5030944"><ele>210.0</ele><time>2026-04-12T11:25:40.972Z</time></trkpt><trkpt lat="44.2170977" lon="11.5030576"><ele>208.5</ele><time>2026-04-12T11:25:41.972Z</time></trkpt><trkpt lat="44.2170179" lon="11.5030145"><ele>207.0</ele><time>2026-04-12T11:25:42.972Z</time></trkpt><trkpt lat="44.2169309" lon="11.5029873"><ele>205.5</ele><time>2026-04-12T11:25:43.974Z</time></trkpt><trkpt lat="44.2168455" lon="11.5029894"><ele>204.0</ele><time>2026-04-12T11:25:44.973Z</time></trkpt><trkpt lat="44.216777" lon="11.5030551"><ele>202.5</ele><time>2026-04-12T11:25:45.972Z</time></trkpt><trkpt lat="44.2167121" lon="11.5031458"><ele>201.0</ele><time>2026-04-12T11:25:46.975Z</time></trkpt><trkpt lat="44.2166532" lon="11.5032546"><ele>201.0</ele><time>2026-04-12T11:25:47.972Z</time></trkpt><trkpt lat="44.216613" lon="11.5033943"><ele>201.0</ele><time>2026-04-12T11:25:48.973Z</time></trkpt><trkpt lat="44.2165882" lon="11.5035406"><ele>201.0</ele><time>2026-04-12T11:25:49.973Z</time></trkpt><trkpt lat="44.2165805" lon="11.503691"><ele>201.0</ele><time>2026-04-12T11:25:50.974Z</time></trkpt><trkpt lat="44.2165877" lon="11.503843"><ele>201.0</ele><time>2026-04-12T11:25:51.972Z</time></trkpt><trkpt lat="44.2166022" lon="11.5039886"><ele>200.83333333333334</ele><time>2026-04-12T11:25:52.972Z</time></trkpt><trkpt lat="44.2166206" lon="11.5041341"><ele>200.66666666666669</ele><time>2026-04-12T11:25:53.973Z</time></trkpt><trkpt lat="44.2166348" lon="11.5042708"><ele>200.5</ele><time>2026-04-12T11:25:54.972Z</time></trkpt><trkpt lat="44.2166465" lon="11.5043893"><ele>200.33333333333334</ele><time>2026-04-12T11:25:55.972Z</time></trkpt><trkpt lat="44.2166474" lon="11.5044937"><ele>200.16666666666669</ele><time>2026-04-12T11:25:56.973Z</time></trkpt><trkpt lat="44.2166288" lon="11.5045862"><ele>200.0</ele><time>2026-04-12T11:25:57.973Z</time></trkpt><trkpt lat="44.2165961" lon="11.5046671"><ele>200.00000000000003</ele><time>2026-04-12T11:25:58.973Z</time></trkpt><trkpt lat="44.216532" lon="11.504697"><ele>200.0</ele><time>2026-04-12T11:25:59.973Z</time></trkpt><trkpt lat="44.2164641" lon="11.5047064"><ele>200.0</ele><time>2026-04-12T11:26:00.974Z</time></trkpt><trkpt lat="44.2163829" lon="11.504681"><ele>200.0</ele><time>2026-04-12T11:26:01.973Z</time></trkpt><trkpt lat="44.216295" lon="11.5046475"><ele>200.00000000000003</ele><time>2026-04-12T11:26:02.973Z</time></trkpt><trkpt lat="44.2162025" lon="11.5045978"><ele>200.0</ele><time>2026-04-12T11:26:03.972Z</time></trkpt><trkpt lat="44.2161086" lon="11.5045343"><ele>202.00000000000003</ele><time>2026-04-12T11:26:04.973Z</time></trkpt><trkpt lat="44.216022" lon="11.5044808"><ele>204.0</ele><time>2026-04-12T11:26:05.972Z</time></trkpt><trkpt lat="44.2159369" lon="11.5044427"><ele>206.0</ele><time>2026-04-12T11:26:06.973Z</time></trkpt><trkpt lat="44.21586" lon="11.5044068"><ele>208.0</ele><time>2026-04-12T11:26:07.973Z</time></trkpt><trkpt lat="44.2157855" lon="11.5043692"><ele>210.00000000000003</ele><time>2026-04-12T11:26:08.973Z</time></trkpt><trkpt lat="44.2157084" lon="11.5043376"><ele>212.0</ele><time>2026-04-12T11:26:09.973Z</time></trkpt><trkpt lat="44.2156267" lon="11.5043074"><ele>212.8</ele><time>2026-04-12T11:26:10.973Z</time></trkpt><trkpt lat="44.2155353" lon="11.5042825"><ele>213.6</ele><time>2026-04-12T11:26:11.973Z</time></trkpt><trkpt lat="44.2154339" lon="11.5042669"><ele>214.40000000000003</ele><time>2026-04-12T11:26:12.973Z</time></trkpt><trkpt lat="44.2153336" lon="11.5042587"><ele>215.20000000000002</ele><time>2026-04-12T11:26:13.976Z</time></trkpt><trkpt lat="44.2152318" lon="11.504256"><ele>216.0</ele><time>2026-04-12T11:26:14.973Z</time></trkpt><trkpt lat="44.2151339" lon="11.5042593"><ele>216.0</ele><time>2026-04-12T11:26:15.973Z</time></trkpt><trkpt lat="44.2150405" lon="11.5042589"><ele>216.0</ele><time>2026-04-12T11:26:16.972Z</time></trkpt><trkpt lat="44.2149523" lon="11.5042581"><ele>216.0</ele><time>2026-04-12T11:26:17.973Z</time></trkpt><trkpt lat="44.2148654" lon="11.5042586"><ele>216.0</ele><time>2026-04-12T11:26:18.973Z</time></trkpt><trkpt lat="44.2147781" lon="11.5042599"><ele>216.0</ele><time>2026-04-12T11:26:19.974Z</time></trkpt><trkpt lat="44.2146912" lon="11.5042586"><ele>216.0</ele><time>2026-04-12T11:26:20.974Z</time></trkpt><trkpt lat="44.2145998" lon="11.5042621"><ele>216.0</ele><time>2026-04-12T11:26:21.972Z</time></trkpt><trkpt lat="44.2145056" lon="11.5042708"><ele>216.00000000000003</ele><time>2026-04-12T11:26:22.972Z</time></trkpt><trkpt lat="44.2144068" lon="11.5042882"><ele>216.00000000000003</ele><time>2026-04-12T11:26:23.972Z</time></trkpt><trkpt lat="44.2143082" lon="11.5043179"><ele>216.0</ele><time>2026-04-12T11:26:24.973Z</time></trkpt><trkpt lat="44.214214" lon="11.5043553"><ele>216.0</ele><time>2026-04-12T11:26:25.974Z</time></trkpt><trkpt lat="44.2141241" lon="11.5043905"><ele>216.0</ele><time>2026-04-12T11:26:26.973Z</time></trkpt><trkpt lat="44.2140375" lon="11.5044197"><ele>216.0</ele><time>2026-04-12T11:26:27.972Z</time></trkpt><trkpt lat="44.213956" lon="11.504448"><ele>216.0</ele><time>2026-04-12T11:26:28.972Z</time></trkpt><trkpt lat="44.2138806" lon="11.5044808"><ele>216.0</ele><time>2026-04-12T11:26:29.973Z</time></trkpt><trkpt lat="44.2138058" lon="11.5045148"><ele>216.0</ele><time>2026-04-12T11:26:30.974Z</time></trkpt><trkpt lat="44.2137323" lon="11.5045453"><ele>216.0</ele><time>2026-04-12T11:26:31.974Z</time></trkpt><trkpt lat="44.2136621" lon="11.5045713"><ele>215.4</ele><time>2026-04-12T11:26:32.972Z</time></trkpt><trkpt lat="44.2135978" lon="11.5045938"><ele>214.8</ele><time>2026-04-12T11:26:33.975Z</time></trkpt><trkpt lat="44.2134754" lon="11.5046395"><ele>214.20000000000002</ele><time>2026-04-12T11:26:35.973Z</time></trkpt><trkpt lat="44.2133979" lon="11.5046601"><ele>213.60000000000002</ele><time>2026-04-12T11:26:36.973Z</time></trkpt><trkpt lat="44.2133063" lon="11.5046654"><ele>213.0</ele><time>2026-04-12T11:26:37.973Z</time></trkpt><trkpt lat="44.2132048" lon="11.5046636"><ele>213.5</ele><time>2026-04-12T11:26:38.973Z</time></trkpt><trkpt lat="44.213092" lon="11.5046595"><ele>214.0</ele><time>2026-04-12T11:26:39.972Z</time></trkpt><trkpt lat="44.2129714" lon="11.5046597"><ele>214.5</ele><time>2026-04-12T11:26:40.972Z</time></trkpt><trkpt lat="44.2128438" lon="11.5046569"><ele>215.0</ele><time>2026-04-12T11:26:41.974Z</time></trkpt><trkpt lat="44.2127339" lon="11.504657"><ele>215.00000000000003</ele><time>2026-04-12T11:26:42.972Z</time></trkpt><trkpt lat="44.2126332" lon="11.5046596"><ele>215.0</ele><time>2026-04-12T11:26:43.973Z</time></trkpt><trkpt lat="44.2125448" lon="11.504671"><ele>215.0</ele><time>2026-04-12T11:26:44.973Z</time></trkpt><trkpt lat="44.21246" lon="11.5046965"><ele>215.0</ele><time>2026-04-12T11:26:45.972Z</time></trkpt><trkpt lat="44.2123761" lon="11.5047223"><ele>215.00000000000003</ele><time>2026-04-12T11:26:46.972Z</time></trkpt><trkpt lat="44.2122945" lon="11.5047578"><ele>215.0</ele><time>2026-04-12T11:26:47.974Z</time></trkpt><trkpt lat="44.2122121" lon="11.5047895"><ele>215.83333333333334</ele><time>2026-04-12T11:26:48.973Z</time></trkpt><trkpt lat="44.2121308" lon="11.5048104"><ele>216.66666666666669</ele><time>2026-04-12T11:26:49.972Z</time></trkpt><trkpt lat="44.2120481" lon="11.5048117"><ele>217.5</ele><time>2026-04-12T11:26:50.973Z</time></trkpt><trkpt lat="44.2119713" lon="11.5048053"><ele>218.33333333333331</ele><time>2026-04-12T11:26:51.972Z</time></trkpt><trkpt lat="44.2119047" lon="11.5048035"><ele>219.16666666666666</ele><time>2026-04-12T11:26:52.971Z</time></trkpt><trkpt lat="44.2118064" lon="11.5048422"><ele>220.0</ele><time>2026-04-12T11:26:54.972Z</time></trkpt><trkpt lat="44.2118014" lon="11.5049298"><ele>220.0</ele><time>2026-04-12T11:26:56.974Z</time></trkpt><trkpt lat="44.2119138" lon="11.5049646"><ele>220.0</ele><time>2026-04-12T11:26:58.972Z</time></trkpt><trkpt lat="44.2119861" lon="11.5049324"><ele>220.0</ele><time>2026-04-12T11:26:59.972Z</time></trkpt><trkpt lat="44.2120736" lon="11.5048817"><ele>220.0</ele><time>2026-04-12T11:27:00.971Z</time></trkpt><trkpt lat="44.2121686" lon="11.5048305"><ele>220.0</ele><time>2026-04-12T11:27:01.971Z</time></trkpt><trkpt lat="44.2122674" lon="11.5047885"><ele>219.0</ele><time>2026-04-12T11:27:02.973Z</time></trkpt><trkpt lat="44.2123729" lon="11.5047519"><ele>218.0</ele><time>2026-04-12T11:27:03.973Z</time></trkpt><trkpt lat="44.2124827" lon="11.5047266"><ele>217.0</ele><time>2026-04-12T11:27:04.972Z</time></trkpt><trkpt lat="44.2125912" lon="11.5047167"><ele>216.0</ele><time>2026-04-12T11:27:05.972Z</time></trkpt><trkpt lat="44.2126924" lon="11.504698"><ele>215.0</ele><time>2026-04-12T11:27:06.972Z</time></trkpt><trkpt lat="44.2127978" lon="11.5046859"><ele>215.0</ele><time>2026-04-12T11:27:07.972Z</time></trkpt><trkpt lat="44.2129081" lon="11.5046933"><ele>215.0</ele><time>2026-04-12T11:27:08.976Z</time></trkpt><trkpt lat="44.2130167" lon="11.5046987"><ele>215.0</ele><time>2026-04-12T11:27:09.973Z</time></trkpt><trkpt lat="44.2131192" lon="11.5047099"><ele>215.0</ele><time>2026-04-12T11:27:10.972Z</time></trkpt><trkpt lat="44.2132111" lon="11.50472"><ele>215.0</ele><time>2026-04-12T11:27:11.972Z</time></trkpt><trkpt lat="44.2132965" lon="11.5047268"><ele>214.66666666666669</ele><time>2026-04-12T11:27:12.972Z</time></trkpt><trkpt lat="44.2133739" lon="11.5047285"><ele>214.33333333333334</ele><time>2026-04-12T11:27:13.971Z</time></trkpt><trkpt lat="44.2134689" lon="11.5047288"><ele>214.0</ele><time>2026-04-12T11:27:15.972Z</time></trkpt><trkpt lat="44.2134826" lon="11.5048266"><ele>213.66666666666669</ele><time>2026-04-12T11:27:18.972Z</time></trkpt><trkpt lat="44.2133911" lon="11.5048688"><ele>213.33333333333334</ele><time>2026-04-12T11:27:20.974Z</time></trkpt><trkpt lat="44.2132887" lon="11.5048985"><ele>213.0</ele><time>2026-04-12T11:27:21.973Z</time></trkpt><trkpt lat="44.2131661" lon="11.5049421"><ele>213.5</ele><time>2026-04-12T11:27:22.972Z</time></trkpt><trkpt lat="44.2130452" lon="11.5050016"><ele>214.0</ele><time>2026-04-12T11:27:23.973Z</time></trkpt><trkpt lat="44.2129288" lon="11.5050554"><ele>214.5</ele><time>2026-04-12T11:27:24.973Z</time></trkpt><trkpt lat="44.212813" lon="11.5050919"><ele>215.0</ele><time>2026-04-12T11:27:25.973Z</time></trkpt><trkpt lat="44.2126991" lon="11.5051234"><ele>215.00000000000003</ele><time>2026-04-12T11:27:26.974Z</time></trkpt><trkpt lat="44.2126014" lon="11.5051497"><ele>215.0</ele><time>2026-04-12T11:27:27.972Z</time></trkpt><trkpt lat="44.2125171" lon="11.5051898"><ele>215.0</ele><time>2026-04-12T11:27:28.972Z</time></trkpt><trkpt lat="44.2124417" lon="11.505243"><ele>215.0</ele><time>2026-04-12T11:27:29.975Z</time></trkpt><trkpt lat="44.2123862" lon="11.5053175"><ele>215.00000000000003</ele><time>2026-04-12T11:27:30.973Z</time></trkpt><trkpt lat="44.2124075" lon="11.5054025"><ele>215.0</ele><time>2026-04-12T11:27:31.972Z</time></trkpt><trkpt lat="44.2124462" lon="11.5054825"><ele>212.25</ele><time>2026-04-12T11:27:32.973Z</time></trkpt><trkpt lat="44.2125409" lon="11.5055284"><ele>209.5</ele><time>2026-04-12T11:27:33.972Z</time></trkpt><trkpt lat="44.2126494" lon="11.5055552"><ele>206.75</ele><time>2026-04-12T11:27:34.973Z</time></trkpt><trkpt lat="44.2127742" lon="11.5055644"><ele>204.0</ele><time>2026-04-12T11:27:35.972Z</time></trkpt><trkpt lat="44.2128974" lon="11.5055709"><ele>204.0</ele><time>2026-04-12T11:27:36.972Z</time></trkpt><trkpt lat="44.2130127" lon="11.5055777"><ele>204.0</ele><time>2026-04-12T11:27:37.972Z</time></trkpt><trkpt lat="44.2131275" lon="11.5055832"><ele>204.0</ele><time>2026-04-12T11:27:38.973Z</time></trkpt><trkpt lat="44.2132433" lon="11.5055878"><ele>204.0</ele><time>2026-04-12T11:27:39.973Z</time></trkpt><trkpt lat="44.213357" lon="11.5055933"><ele>202.79999999999998</ele><time>2026-04-12T11:27:40.971Z</time></trkpt><trkpt lat="44.2134705" lon="11.5055995"><ele>201.6</ele><time>2026-04-12T11:27:41.972Z</time></trkpt><trkpt lat="44.2135862" lon="11.5056058"><ele>200.4</ele><time>2026-04-12T11:27:42.973Z</time></trkpt><trkpt lat="44.2136994" lon="11.5056071"><ele>199.2</ele><time>2026-04-12T11:27:43.973Z</time></trkpt><trkpt lat="44.2138021" lon="11.5056054"><ele>198.0</ele><time>2026-04-12T11:27:44.973Z</time></trkpt><trkpt lat="44.2138931" lon="11.5056109"><ele>198.0</ele><time>2026-04-12T11:27:45.971Z</time></trkpt><trkpt lat="44.2139718" lon="11.5056252"><ele>198.0</ele><time>2026-04-12T11:27:46.972Z</time></trkpt><trkpt lat="44.2140361" lon="11.5056513"><ele>198.0</ele><time>2026-04-12T11:27:47.972Z</time></trkpt><trkpt lat="44.2140863" lon="11.5057729"><ele>198.0</ele><time>2026-04-12T11:27:49.972Z</time></trkpt><trkpt lat="44.2139937" lon="11.5059183"><ele>198.0</ele><time>2026-04-12T11:27:51.973Z</time></trkpt><trkpt lat="44.2139071" lon="11.5059671"><ele>198.0</ele><time>2026-04-12T11:27:52.972Z</time></trkpt><trkpt lat="44.213799" lon="11.5060097"><ele>198.0</ele><time>2026-04-12T11:27:53.973Z</time></trkpt><trkpt lat="44.2136908" lon="11.5060498"><ele>198.0</ele><time>2026-04-12T11:27:54.973Z</time></trkpt><trkpt lat="44.2135918" lon="11.5060862"><ele>198.0</ele><time>2026-04-12T11:27:55.973Z</time></trkpt><trkpt lat="44.2134987" lon="11.5061183"><ele>198.0</ele><time>2026-04-12T11:27:56.974Z</time></trkpt><trkpt lat="44.2134128" lon="11.5061548"><ele>198.0</ele><time>2026-04-12T11:27:57.974Z</time></trkpt><trkpt lat="44.2133354" lon="11.5061938"><ele>198.0</ele><time>2026-04-12T11:27:58.973Z</time></trkpt><trkpt lat="44.2132686" lon="11.5062348"><ele>198.0</ele><time>2026-04-12T11:27:59.972Z</time></trkpt><trkpt lat="44.2132127" lon="11.5062827"><ele>198.0</ele><time>2026-04-12T11:28:00.972Z</time></trkpt><trkpt lat="44.2131486" lon="11.5064019"><ele>198.0</ele><time>2026-04-12T11:28:02.972Z</time></trkpt><trkpt lat="44.2131509" lon="11.5065572"><ele>198.0</ele><time>2026-04-12T11:28:04.972Z</time></trkpt><trkpt lat="44.2132241" lon="11.5066347"><ele>195.66666666666666</ele><time>2026-04-12T11:28:06.972Z</time></trkpt><trkpt lat="44.2133208" lon="11.5066468"><ele>193.33333333333334</ele><time>2026-04-12T11:28:08.973Z</time></trkpt><trkpt lat="44.2134039" lon="11.5066335"><ele>191.0</ele><time>2026-04-12T11:28:10.972Z</time></trkpt><trkpt lat="44.2134769" lon="11.5066043"><ele>188.66666666666669</ele><time>2026-04-12T11:28:12.973Z</time></trkpt><trkpt lat="44.2135458" lon="11.5065752"><ele>186.33333333333334</ele><time>2026-04-12T11:28:14.974Z</time></trkpt><trkpt lat="44.2136296" lon="11.506532"><ele>184.0</ele><time>2026-04-12T11:28:17.974Z</time></trkpt><trkpt lat="44.2136921" lon="11.5064985"><ele>184.0</ele><time>2026-04-12T11:28:20.975Z</time></trkpt><trkpt lat="44.2137704" lon="11.5064126"><ele>184.0</ele><time>2026-04-12T11:29:57.972Z</time></trkpt><trkpt lat="44.2138274" lon="11.506348"><ele>184.0</ele><time>2026-04-12T11:29:58.972Z</time></trkpt><trkpt lat="44.2139071" lon="11.5062777"><ele>184.0</ele><time>2026-04-12T11:29:59.974Z</time></trkpt><trkpt lat="44.2140122" lon="11.5062199"><ele>184.0</ele><time>2026-04-12T11:30:00.974Z</time></trkpt><trkpt lat="44.2141153" lon="11.5061825"><ele>185.0</ele><time>2026-04-12T11:30:01.974Z</time></trkpt><trkpt lat="44.2142098" lon="11.50614"><ele>186.0</ele><time>2026-04-12T11:30:02.973Z</time></trkpt><trkpt lat="44.2142871" lon="11.5060826"><ele>187.0</ele><time>2026-04-12T11:30:03.973Z</time></trkpt><trkpt lat="44.2143452" lon="11.5060175"><ele>188.0</ele><time>2026-04-12T11:30:04.972Z</time></trkpt><trkpt lat="44.2144312" lon="11.5059307"><ele>189.0</ele><time>2026-04-12T11:30:06.975Z</time></trkpt><trkpt lat="44.2144993" lon="11.5059527"><ele>190.0</ele><time>2026-04-12T11:30:08.973Z</time></trkpt><trkpt lat="44.21457" lon="11.5060499"><ele>190.0</ele><time>2026-04-12T11:30:10.973Z</time></trkpt><trkpt lat="44.2146508" lon="11.5061713"><ele>190.0</ele><time>2026-04-12T11:30:12.973Z</time></trkpt><trkpt lat="44.2147345" lon="11.5062876"><ele>190.0</ele><time>2026-04-12T11:30:14.974Z</time></trkpt><trkpt lat="44.2148233" lon="11.5063999"><ele>190.0</ele><time>2026-04-12T11:30:16.974Z</time></trkpt><trkpt lat="44.2149096" lon="11.5065033"><ele>186.2</ele><time>2026-04-12T11:30:18.972Z</time></trkpt><trkpt lat="44.2149946" lon="11.5066137"><ele>182.4</ele><time>2026-04-12T11:30:20.974Z</time></trkpt><trkpt lat="44.2150721" lon="11.5067246"><ele>178.60000000000002</ele><time>2026-04-12T11:30:22.973Z</time></trkpt><trkpt lat="44.2151398" lon="11.5067968"><ele>174.8</ele><time>2026-04-12T11:30:24.972Z</time></trkpt><trkpt lat="44.215212" lon="11.5068041"><ele>171.0</ele><time>2026-04-12T11:30:26.973Z</time></trkpt><trkpt lat="44.2153032" lon="11.5067468"><ele>171.0</ele><time>2026-04-12T11:30:28.973Z</time></trkpt><trkpt lat="44.215376" lon="11.5066921"><ele>171.0</ele><time>2026-04-12T11:30:29.975Z</time></trkpt><trkpt lat="44.2154672" lon="11.506621"><ele>171.0</ele><time>2026-04-12T11:30:30.973Z</time></trkpt><trkpt lat="44.2155742" lon="11.5065509"><ele>171.0</ele><time>2026-04-12T11:30:31.974Z</time></trkpt><trkpt lat="44.2156755" lon="11.506491"><ele>171.0</ele><time>2026-04-12T11:30:32.974Z</time></trkpt><trkpt lat="44.2157755" lon="11.506446"><ele>172.20000000000002</ele><time>2026-04-12T11:30:33.973Z</time></trkpt><trkpt lat="44.2158736" lon="11.5064283"><ele>173.4</ele><time>2026-04-12T11:30:34.973Z</time></trkpt><trkpt lat="44.2159714" lon="11.5064288"><ele>174.6</ele><time>2026-04-12T11:30:35.973Z</time></trkpt><trkpt lat="44.21607" lon="11.5064475"><ele>175.8</ele><time>2026-04-12T11:30:36.973Z</time></trkpt><trkpt lat="44.216167" lon="11.5064854"><ele>177.0</ele><time>2026-04-12T11:30:37.973Z</time></trkpt><trkpt lat="44.2162543" lon="11.5065353"><ele>177.0</ele><time>2026-04-12T11:30:38.973Z</time></trkpt><trkpt lat="44.2163362" lon="11.5065927"><ele>177.0</ele><time>2026-04-12T11:30:39.973Z</time></trkpt><trkpt lat="44.2164269" lon="11.506642"><ele>177.0</ele><time>2026-04-12T11:30:40.972Z</time></trkpt><trkpt lat="44.2165237" lon="11.5066724"><ele>177.0</ele><time>2026-04-12T11:30:41.974Z</time></trkpt><trkpt lat="44.2166176" lon="11.5066866"><ele>177.0</ele><time>2026-04-12T11:30:42.974Z</time></trkpt><trkpt lat="44.2167147" lon="11.5066965"><ele>176.66666666666666</ele><time>2026-04-12T11:30:43.972Z</time></trkpt><trkpt lat="44.2168072" lon="11.5067138"><ele>176.33333333333334</ele><time>2026-04-12T11:30:44.973Z</time></trkpt><trkpt lat="44.216894" lon="11.5067427"><ele>176.0</ele><time>2026-04-12T11:30:45.973Z</time></trkpt><trkpt lat="44.2169732" lon="11.5067832"><ele>175.66666666666669</ele><time>2026-04-12T11:30:46.974Z</time></trkpt><trkpt lat="44.2170433" lon="11.5068322"><ele>175.33333333333334</ele><time>2026-04-12T11:30:47.974Z</time></trkpt><trkpt lat="44.2171079" lon="11.5068919"><ele>175.0</ele><time>2026-04-12T11:30:48.973Z</time></trkpt><trkpt lat="44.217168" lon="11.5069644"><ele>175.0</ele><time>2026-04-12T11:30:49.973Z</time></trkpt><trkpt lat="44.2172274" lon="11.5070394"><ele>175.0</ele><time>2026-04-12T11:30:50.973Z</time></trkpt><trkpt lat="44.2172865" lon="11.5071248"><ele>175.0</ele><time>2026-04-12T11:30:51.974Z</time></trkpt><trkpt lat="44.2173454" lon="11.5072082"><ele>175.0</ele><time>2026-04-12T11:30:52.974Z</time></trkpt><trkpt lat="44.2173978" lon="11.5073001"><ele>175.0</ele><time>2026-04-12T11:30:53.972Z</time></trkpt><trkpt lat="44.2174499" lon="11.50739"><ele>175.0</ele><time>2026-04-12T11:30:54.974Z</time></trkpt><trkpt lat="44.217501" lon="11.5074845"><ele>175.83333333333334</ele><time>2026-04-12T11:30:55.973Z</time></trkpt><trkpt lat="44.2175513" lon="11.5075867"><ele>176.66666666666669</ele><time>2026-04-12T11:30:56.973Z</time></trkpt><trkpt lat="44.2176079" lon="11.5076815"><ele>177.5</ele><time>2026-04-12T11:30:57.974Z</time></trkpt><trkpt lat="44.217667" lon="11.5077698"><ele>178.33333333333334</ele><time>2026-04-12T11:30:58.973Z</time></trkpt><trkpt lat="44.2177313" lon="11.5078516"><ele>179.16666666666666</ele><time>2026-04-12T11:30:59.974Z</time></trkpt><trkpt lat="44.217803" lon="11.5079246"><ele>180.0</ele><time>2026-04-12T11:31:00.974Z</time></trkpt><trkpt lat="44.2178877" lon="11.5079808"><ele>181.75</ele><time>2026-04-12T11:31:01.973Z</time></trkpt><trkpt lat="44.2179873" lon="11.5080201"><ele>183.5</ele><time>2026-04-12T11:31:02.975Z</time></trkpt><trkpt lat="44.2181189" lon="11.508063"><ele>185.25</ele><time>2026-04-12T11:31:03.973Z</time></trkpt><trkpt lat="44.2182578" lon="11.5081222"><ele>187.0</ele><time>2026-04-12T11:31:04.972Z</time></trkpt><trkpt lat="44.2183977" lon="11.5081839"><ele>188.0</ele><time>2026-04-12T11:31:05.974Z</time></trkpt><trkpt lat="44.2185335" lon="11.5082292"><ele>189.0</ele><time>2026-04-12T11:31:06.972Z</time></trkpt><trkpt lat="44.2186601" lon="11.5082615"><ele>190.0</ele><time>2026-04-12T11:31:07.972Z</time></trkpt><trkpt lat="44.2187823" lon="11.5082777"><ele>191.0</ele><time>2026-04-12T11:31:08.973Z</time></trkpt><trkpt lat="44.2189014" lon="11.5082821"><ele>193.60000000000002</ele><time>2026-04-12T11:31:09.972Z</time></trkpt><trkpt lat="44.2190115" lon="11.508274"><ele>196.2</ele><time>2026-04-12T11:31:10.973Z</time></trkpt><trkpt lat="44.2191103" lon="11.5082712"><ele>198.8</ele><time>2026-04-12T11:31:11.973Z</time></trkpt><trkpt lat="44.2192043" lon="11.5082978"><ele>201.39999999999998</ele><time>2026-04-12T11:31:12.972Z</time></trkpt><trkpt lat="44.2192916" lon="11.5083302"><ele>204.0</ele><time>2026-04-12T11:31:13.973Z</time></trkpt><trkpt lat="44.2193764" lon="11.5083711"><ele>204.0</ele><time>2026-04-12T11:31:14.973Z</time></trkpt><trkpt lat="44.2194598" lon="11.5084167"><ele>204.0</ele><time>2026-04-12T11:31:15.973Z</time></trkpt><trkpt lat="44.2195512" lon="11.5084661"><ele>204.0</ele><time>2026-04-12T11:31:16.972Z</time></trkpt><trkpt lat="44.2196465" lon="11.5085232"><ele>204.0</ele><time>2026-04-12T11:31:17.973Z</time></trkpt><trkpt lat="44.2197451" lon="11.508587"><ele>204.0</ele><time>2026-04-12T11:31:18.971Z</time></trkpt><trkpt lat="44.2198529" lon="11.5086442"><ele>205.25</ele><time>2026-04-12T11:31:19.973Z</time></trkpt><trkpt lat="44.2199601" lon="11.5086819"><ele>206.5</ele><time>2026-04-12T11:31:20.974Z</time></trkpt><trkpt lat="44.2200742" lon="11.5087057"><ele>207.75</ele><time>2026-04-12T11:31:21.972Z</time></trkpt><trkpt lat="44.2201941" lon="11.5087232"><ele>209.0</ele><time>2026-04-12T11:31:22.972Z</time></trkpt><trkpt lat="44.2203133" lon="11.5087466"><ele>209.75</ele><time>2026-04-12T11:31:23.972Z</time></trkpt><trkpt lat="44.2204338" lon="11.5087834"><ele>210.5</ele><time>2026-04-12T11:31:24.973Z</time></trkpt><trkpt lat="44.2205551" lon="11.508834"><ele>211.25</ele><time>2026-04-12T11:31:25.972Z</time></trkpt><trkpt lat="44.2206716" lon="11.5088937"><ele>212.0</ele><time>2026-04-12T11:31:26.973Z</time></trkpt><trkpt lat="44.2207903" lon="11.5089537"><ele>213.0</ele><time>2026-04-12T11:31:27.972Z</time></trkpt><trkpt lat="44.2209089" lon="11.5090173"><ele>214.0</ele><time>2026-04-12T11:31:28.972Z</time></trkpt><trkpt lat="44.2210286" lon="11.5090848"><ele>215.0</ele><time>2026-04-12T11:31:29.973Z</time></trkpt><trkpt lat="44.2211489" lon="11.5091461"><ele>216.0</ele><time>2026-04-12T11:31:30.974Z</time></trkpt><trkpt lat="44.2212687" lon="11.5091978"><ele>216.0</ele><time>2026-04-12T11:31:31.974Z</time></trkpt><trkpt lat="44.2213949" lon="11.509241"><ele>216.0</ele><time>2026-04-12T11:31:32.973Z</time></trkpt><trkpt lat="44.2215269" lon="11.5092839"><ele>216.0</ele><time>2026-04-12T11:31:33.972Z</time></trkpt><trkpt lat="44.2216649" lon="11.5093283"><ele>216.0</ele><time>2026-04-12T11:31:34.974Z</time></trkpt><trkpt lat="44.2218088" lon="11.5093746"><ele>215.0</ele><time>2026-04-12T11:31:35.972Z</time></trkpt><trkpt lat="44.2219581" lon="11.5094181"><ele>214.0</ele><time>2026-04-12T11:31:36.973Z</time></trkpt><trkpt lat="44.2221121" lon="11.5094519"><ele>213.0</ele><time>2026-04-12T11:31:37.973Z</time></trkpt><trkpt lat="44.2222685" lon="11.5094642"><ele>212.0</ele><time>2026-04-12T11:31:38.974Z</time></trkpt><trkpt lat="44.2224246" lon="11.5094532"><ele>211.0</ele><time>2026-04-12T11:31:39.972Z</time></trkpt><trkpt lat="44.2225797" lon="11.5094246"><ele>210.0</ele><time>2026-04-12T11:31:40.973Z</time></trkpt><trkpt lat="44.2227325" lon="11.5093871"><ele>210.0</ele><time>2026-04-12T11:31:41.972Z</time></trkpt><trkpt lat="44.2228811" lon="11.5093517"><ele>210.0</ele><time>2026-04-12T11:31:42.972Z</time></trkpt><trkpt lat="44.2230236" lon="11.50932"><ele>210.0</ele><time>2026-04-12T11:31:43.974Z</time></trkpt><trkpt lat="44.223158" lon="11.509302"><ele>210.0</ele><time>2026-04-12T11:31:44.973Z</time></trkpt><trkpt lat="44.2232758" lon="11.5093017"><ele>210.0</ele><time>2026-04-12T11:31:45.972Z</time></trkpt><trkpt lat="44.223371" lon="11.5093093"><ele>210.0</ele><time>2026-04-12T11:31:46.972Z</time></trkpt><trkpt lat="44.2234474" lon="11.5093128"><ele>210.0</ele><time>2026-04-12T11:31:47.973Z</time></trkpt><trkpt lat="44.2235572" lon="11.5093596"><ele>210.0</ele><time>2026-04-12T11:31:49.972Z</time></trkpt><trkpt lat="44.2236169" lon="11.5095371"><ele>210.0</ele><time>2026-04-12T11:31:51.975Z</time></trkpt><trkpt lat="44.2236305" lon="11.5096667"><ele>211.66666666666666</ele><time>2026-04-12T11:31:52.972Z</time></trkpt><trkpt lat="44.2236459" lon="11.5098031"><ele>213.33333333333331</ele><time>2026-04-12T11:31:53.972Z</time></trkpt><trkpt lat="44.2236774" lon="11.5099278"><ele>215.0</ele><time>2026-04-12T11:31:54.973Z</time></trkpt><trkpt lat="44.22373" lon="11.5100263"><ele>216.66666666666666</ele><time>2026-04-12T11:31:55.973Z</time></trkpt><trkpt lat="44.2237965" lon="11.5101019"><ele>218.33333333333331</ele><time>2026-04-12T11:31:56.972Z</time></trkpt><trkpt lat="44.2238533" lon="11.5101841"><ele>220.0</ele><time>2026-04-12T11:31:57.972Z</time></trkpt><trkpt lat="44.2238998" lon="11.5102818"><ele>220.0</ele><time>2026-04-12T11:31:58.973Z</time></trkpt><trkpt lat="44.2239281" lon="11.5103912"><ele>220.0</ele><time>2026-04-12T11:31:59.973Z</time></trkpt><trkpt lat="44.2239321" lon="11.5104943"><ele>220.0</ele><time>2026-04-12T11:32:00.975Z</time></trkpt><trkpt lat="44.2238647" lon="11.5105889"><ele>220.0</ele><time>2026-04-12T11:32:02.973Z</time></trkpt><trkpt lat="44.2237653" lon="11.5105235"><ele>220.0</ele><time>2026-04-12T11:32:04.972Z</time></trkpt><trkpt lat="44.2236915" lon="11.510391"><ele>219.99999999999997</ele><time>2026-04-12T11:32:06.973Z</time></trkpt><trkpt lat="44.2236047" lon="11.5103762"><ele>220.0</ele><time>2026-04-12T11:32:08.972Z</time></trkpt><trkpt lat="44.2235497" lon="11.5105138"><ele>220.0</ele><time>2026-04-12T11:32:10.972Z</time></trkpt><trkpt lat="44.2235255" lon="11.5106127"><ele>220.0</ele><time>2026-04-12T11:32:11.972Z</time></trkpt><trkpt lat="44.2234933" lon="11.5107152"><ele>219.99999999999997</ele><time>2026-04-12T11:32:12.973Z</time></trkpt><trkpt lat="44.2234624" lon="11.5108251"><ele>220.0</ele><time>2026-04-12T11:32:13.975Z</time></trkpt><trkpt lat="44.2234316" lon="11.5109416"><ele>222.16666666666666</ele><time>2026-04-12T11:32:14.973Z</time></trkpt><trkpt lat="44.2233988" lon="11.5110649"><ele>224.33333333333331</ele><time>2026-04-12T11:32:15.973Z</time></trkpt><trkpt lat="44.2233626" lon="11.511184"><ele>226.5</ele><time>2026-04-12T11:32:16.973Z</time></trkpt><trkpt lat="44.2233307" lon="11.5113033"><ele>228.66666666666669</ele><time>2026-04-12T11:32:17.974Z</time></trkpt><trkpt lat="44.2232989" lon="11.5114141"><ele>230.83333333333334</ele><time>2026-04-12T11:32:18.973Z</time></trkpt><trkpt lat="44.2232619" lon="11.5115162"><ele>233.0</ele><time>2026-04-12T11:32:19.972Z</time></trkpt><trkpt lat="44.2232214" lon="11.5116"><ele>234.83333333333334</ele><time>2026-04-12T11:32:20.973Z</time></trkpt><trkpt lat="44.2231735" lon="11.5116677"><ele>236.66666666666669</ele><time>2026-04-12T11:32:21.972Z</time></trkpt><trkpt lat="44.2231113" lon="11.51171"><ele>238.5</ele><time>2026-04-12T11:32:22.972Z</time></trkpt><trkpt lat="44.2230399" lon="11.5117193"><ele>240.33333333333331</ele><time>2026-04-12T11:32:23.972Z</time></trkpt><trkpt lat="44.2229493" lon="11.5117024"><ele>242.16666666666666</ele><time>2026-04-12T11:32:24.975Z</time></trkpt><trkpt lat="44.2228463" lon="11.5116795"><ele>244.0</ele><time>2026-04-12T11:32:25.972Z</time></trkpt><trkpt lat="44.2227412" lon="11.5116597"><ele>247.5</ele><time>2026-04-12T11:32:26.977Z</time></trkpt><trkpt lat="44.2226279" lon="11.5116337"><ele>251.0</ele><time>2026-04-12T11:32:27.972Z</time></trkpt><trkpt lat="44.2225158" lon="11.511602"><ele>254.5</ele><time>2026-04-12T11:32:28.974Z</time></trkpt><trkpt lat="44.2224044" lon="11.5115569"><ele>258.0</ele><time>2026-04-12T11:32:29.974Z</time></trkpt><trkpt lat="44.222301" lon="11.5115046"><ele>258.1666666666667</ele><time>2026-04-12T11:32:30.973Z</time></trkpt><trkpt lat="44.2222039" lon="11.5114556"><ele>258.3333333333333</ele><time>2026-04-12T11:32:31.973Z</time></trkpt><trkpt lat="44.2221155" lon="11.5114229"><ele>258.5</ele><time>2026-04-12T11:32:32.973Z</time></trkpt><trkpt lat="44.2220279" lon="11.5114116"><ele>258.66666666666663</ele><time>2026-04-12T11:32:33.974Z</time></trkpt><trkpt lat="44.221951" lon="11.5114261"><ele>258.8333333333333</ele><time>2026-04-12T11:32:34.973Z</time></trkpt><trkpt lat="44.2218872" lon="11.5114641"><ele>259.0</ele><time>2026-04-12T11:32:35.973Z</time></trkpt><trkpt lat="44.2218391" lon="11.5115261"><ele>259.0</ele><time>2026-04-12T11:32:36.974Z</time></trkpt><trkpt lat="44.2218028" lon="11.5116136"><ele>259.0</ele><time>2026-04-12T11:32:37.973Z</time></trkpt><trkpt lat="44.2217704" lon="11.5117052"><ele>259.0</ele><time>2026-04-12T11:32:38.973Z</time></trkpt><trkpt lat="44.221731" lon="11.5117887"><ele>259.0</ele><time>2026-04-12T11:32:39.972Z</time></trkpt><trkpt lat="44.221683" lon="11.5118549"><ele>259.0</ele><time>2026-04-12T11:32:40.973Z</time></trkpt><trkpt lat="44.2216227" lon="11.511903"><ele>259.0</ele><time>2026-04-12T11:32:41.973Z</time></trkpt><trkpt lat="44.2215576" lon="11.5119361"><ele>259.0</ele><time>2026-04-12T11:32:42.972Z</time></trkpt><trkpt lat="44.221489" lon="11.5119509"><ele>259.42857142857144</ele><time>2026-04-12T11:32:43.973Z</time></trkpt><trkpt lat="44.2214212" lon="11.5119627"><ele>259.8571428571429</ele><time>2026-04-12T11:32:44.973Z</time></trkpt><trkpt lat="44.2213564" lon="11.5119894"><ele>260.2857142857143</ele><time>2026-04-12T11:32:45.972Z</time></trkpt><trkpt lat="44.2213139" lon="11.5120638"><ele>260.7142857142857</ele><time>2026-04-12T11:32:46.973Z</time></trkpt><trkpt lat="44.2212859" lon="11.5121568"><ele>261.14285714285717</ele><time>2026-04-12T11:32:47.972Z</time></trkpt><trkpt lat="44.2212811" lon="11.5122634"><ele>261.57142857142856</ele><time>2026-04-12T11:32:48.973Z</time></trkpt><trkpt lat="44.2213104" lon="11.5123834"><ele>262.0</ele><time>2026-04-12T11:32:49.973Z</time></trkpt><trkpt lat="44.2213595" lon="11.5125024"><ele>263.8</ele><time>2026-04-12T11:32:50.972Z</time></trkpt><trkpt lat="44.2214179" lon="11.5126147"><ele>265.6</ele><time>2026-04-12T11:32:51.972Z</time></trkpt><trkpt lat="44.2214791" lon="11.5127155"><ele>267.40000000000003</ele><time>2026-04-12T11:32:52.972Z</time></trkpt><trkpt lat="44.221538" lon="11.5127999"><ele>269.2</ele><time>2026-04-12T11:32:53.973Z</time></trkpt><trkpt lat="44.2215901" lon="11.5128666"><ele>271.0</ele><time>2026-04-12T11:32:54.973Z</time></trkpt><trkpt lat="44.2216813" lon="11.5129766"><ele>273.1428571428571</ele><time>2026-04-12T11:32:56.975Z</time></trkpt><trkpt lat="44.2217295" lon="11.5130366"><ele>275.2857142857143</ele><time>2026-04-12T11:32:57.973Z</time></trkpt><trkpt lat="44.2217774" lon="11.5130974"><ele>277.42857142857144</ele><time>2026-04-12T11:32:58.974Z</time></trkpt><trkpt lat="44.2218261" lon="11.513157"><ele>279.57142857142856</ele><time>2026-04-12T11:32:59.974Z</time></trkpt><trkpt lat="44.2218814" lon="11.5132144"><ele>281.7142857142857</ele><time>2026-04-12T11:33:00.973Z</time></trkpt><trkpt lat="44.2219395" lon="11.5132672"><ele>283.85714285714283</ele><time>2026-04-12T11:33:01.973Z</time></trkpt><trkpt lat="44.2220089" lon="11.5133108"><ele>286.0</ele><time>2026-04-12T11:33:02.976Z</time></trkpt><trkpt lat="44.222086" lon="11.5133421"><ele>286.0</ele><time>2026-04-12T11:33:03.972Z</time></trkpt><trkpt lat="44.2221612" lon="11.5133651"><ele>286.0</ele><time>2026-04-12T11:33:04.972Z</time></trkpt><trkpt lat="44.2222352" lon="11.5133792"><ele>286.0</ele><time>2026-04-12T11:33:05.972Z</time></trkpt><trkpt lat="44.2223131" lon="11.5133909"><ele>286.0</ele><time>2026-04-12T11:33:06.973Z</time></trkpt><trkpt lat="44.2224006" lon="11.5133957"><ele>286.0</ele><time>2026-04-12T11:33:07.973Z</time></trkpt><trkpt lat="44.2224843" lon="11.513401"><ele>286.0</ele><time>2026-04-12T11:33:08.974Z</time></trkpt><trkpt lat="44.2225719" lon="11.5134091"><ele>285.16666666666663</ele><time>2026-04-12T11:33:09.973Z</time></trkpt><trkpt lat="44.2226575" lon="11.51341"><ele>284.3333333333333</ele><time>2026-04-12T11:33:10.972Z</time></trkpt><trkpt lat="44.2227414" lon="11.5134125"><ele>283.5</ele><time>2026-04-12T11:33:11.973Z</time></trkpt><trkpt lat="44.2228229" lon="11.5134191"><ele>282.6666666666667</ele><time>2026-04-12T11:33:12.973Z</time></trkpt><trkpt lat="44.2229038" lon="11.5134304"><ele>281.83333333333337</ele><time>2026-04-12T11:33:13.975Z</time></trkpt><trkpt lat="44.2229815" lon="11.5134349"><ele>281.0</ele><time>2026-04-12T11:33:14.974Z</time></trkpt><trkpt lat="44.2230635" lon="11.5134384"><ele>281.83333333333337</ele><time>2026-04-12T11:33:15.973Z</time></trkpt><trkpt lat="44.2231539" lon="11.5134351"><ele>282.6666666666667</ele><time>2026-04-12T11:33:16.972Z</time></trkpt><trkpt lat="44.2232486" lon="11.513432"><ele>283.5</ele><time>2026-04-12T11:33:17.974Z</time></trkpt><trkpt lat="44.2233424" lon="11.5134364"><ele>284.3333333333333</ele><time>2026-04-12T11:33:18.973Z</time></trkpt><trkpt lat="44.2234182" lon="11.5134732"><ele>285.16666666666663</ele><time>2026-04-12T11:33:19.972Z</time></trkpt><trkpt lat="44.2234858" lon="11.5135413"><ele>286.0</ele><time>2026-04-12T11:33:20.973Z</time></trkpt><trkpt lat="44.2235356" lon="11.5136354"><ele>290.2</ele><time>2026-04-12T11:33:21.974Z</time></trkpt><trkpt lat="44.2235723" lon="11.513749"><ele>294.40000000000003</ele><time>2026-04-12T11:33:22.972Z</time></trkpt><trkpt lat="44.2236007" lon="11.5138833"><ele>298.6</ele><time>2026-04-12T11:33:23.973Z</time></trkpt><trkpt lat="44.2236503" lon="11.5140037"><ele>302.8</ele><time>2026-04-12T11:33:24.974Z</time></trkpt><trkpt lat="44.223694" lon="11.5141413"><ele>307.0</ele><time>2026-04-12T11:33:25.973Z</time></trkpt><trkpt lat="44.2237265" lon="11.5142921"><ele>307.0</ele><time>2026-04-12T11:33:26.974Z</time></trkpt><trkpt lat="44.2237488" lon="11.5144603"><ele>307.0</ele><time>2026-04-12T11:33:27.972Z</time></trkpt><trkpt lat="44.2237708" lon="11.5146318"><ele>307.0</ele><time>2026-04-12T11:33:28.972Z</time></trkpt><trkpt lat="44.22379" lon="11.5148091"><ele>307.0</ele><time>2026-04-12T11:33:29.974Z</time></trkpt><trkpt lat="44.2238005" lon="11.5149839"><ele>310.5</ele><time>2026-04-12T11:33:30.975Z</time></trkpt><trkpt lat="44.2238024" lon="11.5151536"><ele>314.0</ele><time>2026-04-12T11:33:31.974Z</time></trkpt><trkpt lat="44.2237962" lon="11.5153159"><ele>317.5</ele><time>2026-04-12T11:33:32.973Z</time></trkpt><trkpt lat="44.2237854" lon="11.5154755"><ele>321.0</ele><time>2026-04-12T11:33:33.972Z</time></trkpt><trkpt lat="44.2237706" lon="11.515634"><ele>322.25</ele><time>2026-04-12T11:33:34.973Z</time></trkpt><trkpt lat="44.2237584" lon="11.5157976"><ele>323.5</ele><time>2026-04-12T11:33:35.973Z</time></trkpt><trkpt lat="44.2237499" lon="11.5159651"><ele>324.75</ele><time>2026-04-12T11:33:36.974Z</time></trkpt><trkpt lat="44.2237536" lon="11.5161376"><ele>326.0</ele><time>2026-04-12T11:33:37.974Z</time></trkpt><trkpt lat="44.2237732" lon="11.5163148"><ele>326.6666666666667</ele><time>2026-04-12T11:33:38.974Z</time></trkpt><trkpt lat="44.2238013" lon="11.5164742"><ele>327.33333333333337</ele><time>2026-04-12T11:33:39.972Z</time></trkpt><trkpt lat="44.2238157" lon="11.5166025"><ele>328.0</ele><time>2026-04-12T11:33:40.972Z</time></trkpt><trkpt lat="44.2238064" lon="11.5167093"><ele>328.6666666666667</ele><time>2026-04-12T11:33:41.973Z</time></trkpt><trkpt lat="44.2237696" lon="11.5167949"><ele>329.3333333333333</ele><time>2026-04-12T11:33:42.973Z</time></trkpt><trkpt lat="44.2236944" lon="11.5168119"><ele>330.0</ele><time>2026-04-12T11:33:43.973Z</time></trkpt><trkpt lat="44.2236252" lon="11.5167953"><ele>330.0</ele><time>2026-04-12T11:33:44.974Z</time></trkpt><trkpt lat="44.2235653" lon="11.5166944"><ele>330.0</ele><time>2026-04-12T11:33:45.974Z</time></trkpt><trkpt lat="44.2235048" lon="11.5165756"><ele>330.0</ele><time>2026-04-12T11:33:46.973Z</time></trkpt><trkpt lat="44.2234396" lon="11.51644"><ele>330.0</ele><time>2026-04-12T11:33:47.973Z</time></trkpt><trkpt lat="44.2233693" lon="11.5163007"><ele>330.0</ele><time>2026-04-12T11:33:48.972Z</time></trkpt><trkpt lat="44.2232998" lon="11.5161643"><ele>329.0</ele><time>2026-04-12T11:33:49.973Z</time></trkpt><trkpt lat="44.2232427" lon="11.516023"><ele>328.0</ele><time>2026-04-12T11:33:50.973Z</time></trkpt><trkpt lat="44.2231896" lon="11.5158779"><ele>327.0</ele><time>2026-04-12T11:33:51.973Z</time></trkpt><trkpt lat="44.223131" lon="11.5157406"><ele>326.0</ele><time>2026-04-12T11:33:52.972Z</time></trkpt><trkpt lat="44.22307" lon="11.5156082"><ele>328.0</ele><time>2026-04-12T11:33:53.972Z</time></trkpt><trkpt lat="44.2230101" lon="11.5154835"><ele>330.0</ele><time>2026-04-12T11:33:54.972Z</time></trkpt><trkpt lat="44.2229423" lon="11.5153761"><ele>332.0</ele><time>2026-04-12T11:33:55.974Z</time></trkpt><trkpt lat="44.2228598" lon="11.5152863"><ele>334.0</ele><time>2026-04-12T11:33:56.974Z</time></trkpt><trkpt lat="44.2227674" lon="11.5152145"><ele>336.0</ele><time>2026-04-12T11:33:57.973Z</time></trkpt><trkpt lat="44.2226732" lon="11.515172"><ele>336.0</ele><time>2026-04-12T11:33:58.973Z</time></trkpt><trkpt lat="44.2225888" lon="11.5151608"><ele>336.0</ele><time>2026-04-12T11:33:59.973Z</time></trkpt><trkpt lat="44.2225037" lon="11.5151726"><ele>336.0</ele><time>2026-04-12T11:34:00.975Z</time></trkpt><trkpt lat="44.2224451" lon="11.5152401"><ele>336.0</ele><time>2026-04-12T11:34:01.974Z</time></trkpt><trkpt lat="44.2224019" lon="11.5153279"><ele>336.0</ele><time>2026-04-12T11:34:02.973Z</time></trkpt><trkpt lat="44.2224016" lon="11.515451"><ele>336.0</ele><time>2026-04-12T11:34:03.973Z</time></trkpt><trkpt lat="44.2224221" lon="11.5155893"><ele>338.5</ele><time>2026-04-12T11:34:04.972Z</time></trkpt><trkpt lat="44.2224478" lon="11.5157449"><ele>341.0</ele><time>2026-04-12T11:34:05.973Z</time></trkpt><trkpt lat="44.2224687" lon="11.5159146"><ele>343.5</ele><time>2026-04-12T11:34:06.973Z</time></trkpt><trkpt lat="44.2224892" lon="11.5160871"><ele>346.0</ele><time>2026-04-12T11:34:07.973Z</time></trkpt><trkpt lat="44.2225138" lon="11.5162416"><ele>347.5</ele><time>2026-04-12T11:34:08.973Z</time></trkpt><trkpt lat="44.2225321" lon="11.5163691"><ele>349.0</ele><time>2026-04-12T11:34:09.973Z</time></trkpt><trkpt lat="44.2225342" lon="11.5164753"><ele>350.5</ele><time>2026-04-12T11:34:10.974Z</time></trkpt><trkpt lat="44.2225172" lon="11.5165723"><ele>352.0</ele><time>2026-04-12T11:34:11.973Z</time></trkpt><trkpt lat="44.2224737" lon="11.5166378"><ele>353.5</ele><time>2026-04-12T11:34:12.973Z</time></trkpt><trkpt lat="44.2223449" lon="11.5166171"><ele>355.0</ele><time>2026-04-12T11:34:14.973Z</time></trkpt><trkpt lat="44.2222749" lon="11.5165379"><ele>354.6</ele><time>2026-04-12T11:34:15.973Z</time></trkpt><trkpt lat="44.222211" lon="11.5164274"><ele>354.2</ele><time>2026-04-12T11:34:16.974Z</time></trkpt><trkpt lat="44.2221465" lon="11.5163077"><ele>353.79999999999995</ele><time>2026-04-12T11:34:17.973Z</time></trkpt><trkpt lat="44.2220765" lon="11.5161935"><ele>353.4</ele><time>2026-04-12T11:34:18.974Z</time></trkpt><trkpt lat="44.2220004" lon="11.5161016"><ele>353.0</ele><time>2026-04-12T11:34:19.973Z</time></trkpt><trkpt lat="44.2219132" lon="11.5160485"><ele>353.0</ele><time>2026-04-12T11:34:20.974Z</time></trkpt><trkpt lat="44.2218192" lon="11.5160352"><ele>353.0</ele><time>2026-04-12T11:34:21.973Z</time></trkpt><trkpt lat="44.2217364" lon="11.5160606"><ele>353.0</ele><time>2026-04-12T11:34:22.973Z</time></trkpt><trkpt lat="44.2216701" lon="11.5161044"><ele>353.0</ele><time>2026-04-12T11:34:23.973Z</time></trkpt><trkpt lat="44.2216464" lon="11.5161867"><ele>353.0</ele><time>2026-04-12T11:34:24.973Z</time></trkpt><trkpt lat="44.221677" lon="11.5163573"><ele>353.0</ele><time>2026-04-12T11:34:26.973Z</time></trkpt><trkpt lat="44.2217265" lon="11.5164505"><ele>356.79999999999995</ele><time>2026-04-12T11:34:27.972Z</time></trkpt><trkpt lat="44.2217789" lon="11.5165577"><ele>360.6</ele><time>2026-04-12T11:34:28.972Z</time></trkpt><trkpt lat="44.2218062" lon="11.5166915"><ele>364.4</ele><time>2026-04-12T11:34:29.973Z</time></trkpt><trkpt lat="44.2218092" lon="11.5168531"><ele>368.20000000000005</ele><time>2026-04-12T11:34:30.973Z</time></trkpt><trkpt lat="44.2217969" lon="11.5170287"><ele>372.0</ele><time>2026-04-12T11:34:31.973Z</time></trkpt><trkpt lat="44.2217705" lon="11.5172048"><ele>374.25</ele><time>2026-04-12T11:34:32.973Z</time></trkpt><trkpt lat="44.2217325" lon="11.5173759"><ele>376.5</ele><time>2026-04-12T11:34:33.972Z</time></trkpt><trkpt lat="44.221683" lon="11.5175356"><ele>378.75</ele><time>2026-04-12T11:34:34.972Z</time></trkpt><trkpt lat="44.2216176" lon="11.517678"><ele>381.0</ele><time>2026-04-12T11:34:35.973Z</time></trkpt><trkpt lat="44.2215429" lon="11.5178077"><ele>386.25</ele><time>2026-04-12T11:34:36.974Z</time></trkpt><trkpt lat="44.2214532" lon="11.5179346"><ele>391.5</ele><time>2026-04-12T11:34:37.975Z</time></trkpt><trkpt lat="44.2213558" lon="11.5180548"><ele>396.75</ele><time>2026-04-12T11:34:38.975Z</time></trkpt><trkpt lat="44.2212605" lon="11.5181705"><ele>402.0</ele><time>2026-04-12T11:34:39.974Z</time></trkpt><trkpt lat="44.2211719" lon="11.5182694"><ele>402.0</ele><time>2026-04-12T11:34:40.975Z</time></trkpt><trkpt lat="44.2210944" lon="11.5183294"><ele>402.0</ele><time>2026-04-12T11:34:41.973Z</time></trkpt><trkpt lat="44.2210138" lon="11.5183623"><ele>402.0</ele><time>2026-04-12T11:34:42.973Z</time></trkpt><trkpt lat="44.2209467" lon="11.5183335"><ele>402.0</ele><time>2026-04-12T11:34:43.972Z</time></trkpt><trkpt lat="44.2208838" lon="11.5182762"><ele>402.0</ele><time>2026-04-12T11:34:44.973Z</time></trkpt><trkpt lat="44.2208334" lon="11.5181931"><ele>402.0</ele><time>2026-04-12T11:34:45.972Z</time></trkpt><trkpt lat="44.2207957" lon="11.5180716"><ele>402.0</ele><time>2026-04-12T11:34:46.973Z</time></trkpt><trkpt lat="44.2207661" lon="11.5179188"><ele>402.0</ele><time>2026-04-12T11:34:47.973Z</time></trkpt><trkpt lat="44.2207287" lon="11.5177701"><ele>402.0</ele><time>2026-04-12T11:34:48.973Z</time></trkpt><trkpt lat="44.2206825" lon="11.5176346"><ele>402.0</ele><time>2026-04-12T11:34:49.973Z</time></trkpt><trkpt lat="44.220626" lon="11.5175226"><ele>402.0</ele><time>2026-04-12T11:34:50.973Z</time></trkpt><trkpt lat="44.2205558" lon="11.5174397"><ele>404.0</ele><time>2026-04-12T11:34:51.972Z</time></trkpt><trkpt lat="44.2204644" lon="11.5173753"><ele>406.0</ele><time>2026-04-12T11:34:52.972Z</time></trkpt><trkpt lat="44.2203748" lon="11.5173074"><ele>408.0</ele><time>2026-04-12T11:34:53.973Z</time></trkpt><trkpt lat="44.2202963" lon="11.5172467"><ele>410.0</ele><time>2026-04-12T11:34:54.973Z</time></trkpt><trkpt lat="44.2202179" lon="11.5172113"><ele>412.0</ele><time>2026-04-12T11:34:55.973Z</time></trkpt><trkpt lat="44.2201384" lon="11.5172064"><ele>412.0</ele><time>2026-04-12T11:34:56.974Z</time></trkpt><trkpt lat="44.2200595" lon="11.5172375"><ele>412.0</ele><time>2026-04-12T11:34:57.972Z</time></trkpt><trkpt lat="44.2199865" lon="11.5173224"><ele>412.0</ele><time>2026-04-12T11:34:58.973Z</time></trkpt><trkpt lat="44.219943" lon="11.5174956"><ele>412.0</ele><time>2026-04-12T11:34:59.972Z</time></trkpt><trkpt lat="44.2198863" lon="11.517668"><ele>412.0</ele><time>2026-04-12T11:35:00.972Z</time></trkpt><trkpt lat="44.2198212" lon="11.5178598"><ele>413.20000000000005</ele><time>2026-04-12T11:35:01.972Z</time></trkpt><trkpt lat="44.2197464" lon="11.518037"><ele>414.4</ele><time>2026-04-12T11:35:02.974Z</time></trkpt><trkpt lat="44.2196894" lon="11.518171"><ele>415.6</ele><time>2026-04-12T11:35:03.972Z</time></trkpt><trkpt lat="44.2196643" lon="11.5182832"><ele>416.79999999999995</ele><time>2026-04-12T11:35:04.974Z</time></trkpt><trkpt lat="44.2196634" lon="11.5183941"><ele>418.0</ele><time>2026-04-12T11:35:05.974Z</time></trkpt><trkpt lat="44.2196902" lon="11.5185041"><ele>418.0</ele><time>2026-04-12T11:35:06.974Z</time></trkpt><trkpt lat="44.2197349" lon="11.5186198"><ele>418.0</ele><time>2026-04-12T11:35:07.974Z</time></trkpt><trkpt lat="44.2197693" lon="11.5187529"><ele>418.0</ele><time>2026-04-12T11:35:08.973Z</time></trkpt><trkpt lat="44.2197899" lon="11.518904"><ele>418.0</ele><time>2026-04-12T11:35:09.973Z</time></trkpt><trkpt lat="44.2197974" lon="11.5190604"><ele>418.0</ele><time>2026-04-12T11:35:10.973Z</time></trkpt><trkpt lat="44.2197865" lon="11.5192071"><ele>421.59999999999997</ele><time>2026-04-12T11:35:11.972Z</time></trkpt><trkpt lat="44.2197561" lon="11.5193373"><ele>425.2</ele><time>2026-04-12T11:35:12.973Z</time></trkpt><trkpt lat="44.2197052" lon="11.5194507"><ele>428.8</ele><time>2026-04-12T11:35:13.972Z</time></trkpt><trkpt lat="44.2196406" lon="11.5195402"><ele>432.4</ele><time>2026-04-12T11:35:14.974Z</time></trkpt><trkpt lat="44.219568" lon="11.5196051"><ele>436.0</ele><time>2026-04-12T11:35:15.972Z</time></trkpt><trkpt lat="44.2194795" lon="11.519657"><ele>438.20000000000005</ele><time>2026-04-12T11:35:16.973Z</time></trkpt><trkpt lat="44.219384" lon="11.5197081"><ele>440.40000000000003</ele><time>2026-04-12T11:35:17.972Z</time></trkpt><trkpt lat="44.2192906" lon="11.5197535"><ele>442.6</ele><time>2026-04-12T11:35:18.972Z</time></trkpt><trkpt lat="44.2192123" lon="11.5198175"><ele>444.8</ele><time>2026-04-12T11:35:19.974Z</time></trkpt><trkpt lat="44.2191427" lon="11.5198945"><ele>447.0</ele><time>2026-04-12T11:35:20.972Z</time></trkpt><trkpt lat="44.2190941" lon="11.5199858"><ele>447.0</ele><time>2026-04-12T11:35:21.972Z</time></trkpt><trkpt lat="44.219106" lon="11.5201235"><ele>447.00000000000006</ele><time>2026-04-12T11:35:22.972Z</time></trkpt><trkpt lat="44.2191282" lon="11.5202691"><ele>447.00000000000006</ele><time>2026-04-12T11:35:23.975Z</time></trkpt><trkpt lat="44.2191448" lon="11.520422"><ele>447.0</ele><time>2026-04-12T11:35:24.972Z</time></trkpt><trkpt lat="44.2191504" lon="11.5205817"><ele>447.0</ele><time>2026-04-12T11:35:25.973Z</time></trkpt><trkpt lat="44.219145" lon="11.5207434"><ele>447.75</ele><time>2026-04-12T11:35:26.973Z</time></trkpt><trkpt lat="44.2191192" lon="11.5208969"><ele>448.5</ele><time>2026-04-12T11:35:27.972Z</time></trkpt><trkpt lat="44.2190721" lon="11.5210399"><ele>449.25</ele><time>2026-04-12T11:35:28.973Z</time></trkpt><trkpt lat="44.2190075" lon="11.5211769"><ele>450.0</ele><time>2026-04-12T11:35:29.973Z</time></trkpt><trkpt lat="44.2189299" lon="11.5212922"><ele>451.0</ele><time>2026-04-12T11:35:30.974Z</time></trkpt><trkpt lat="44.2188431" lon="11.5214009"><ele>452.0</ele><time>2026-04-12T11:35:31.973Z</time></trkpt><trkpt lat="44.218749" lon="11.5214727"><ele>453.0</ele><time>2026-04-12T11:35:32.973Z</time></trkpt><trkpt lat="44.2186459" lon="11.5214999"><ele>454.0</ele><time>2026-04-12T11:35:33.973Z</time></trkpt><trkpt lat="44.2185404" lon="11.521492"><ele>455.0</ele><time>2026-04-12T11:35:34.972Z</time></trkpt><trkpt lat="44.2184298" lon="11.521485"><ele>455.0</ele><time>2026-04-12T11:35:35.973Z</time></trkpt><trkpt lat="44.218327" lon="11.5215029"><ele>455.0</ele><time>2026-04-12T11:35:36.973Z</time></trkpt><trkpt lat="44.2182387" lon="11.5215401"><ele>455.0</ele><time>2026-04-12T11:35:37.973Z</time></trkpt><trkpt lat="44.2181512" lon="11.5215794"><ele>455.0</ele><time>2026-04-12T11:35:38.973Z</time></trkpt><trkpt lat="44.2180666" lon="11.5216177"><ele>455.0</ele><time>2026-04-12T11:35:39.973Z</time></trkpt><trkpt lat="44.2179865" lon="11.5216587"><ele>455.8333333333333</ele><time>2026-04-12T11:35:40.974Z</time></trkpt><trkpt lat="44.2179033" lon="11.5217087"><ele>456.66666666666663</ele><time>2026-04-12T11:35:41.974Z</time></trkpt><trkpt lat="44.2178222" lon="11.5217602"><ele>457.5</ele><time>2026-04-12T11:35:42.973Z</time></trkpt><trkpt lat="44.217744" lon="11.5218101"><ele>458.33333333333337</ele><time>2026-04-12T11:35:43.972Z</time></trkpt><trkpt lat="44.2176666" lon="11.5218649"><ele>459.1666666666667</ele><time>2026-04-12T11:35:44.974Z</time></trkpt><trkpt lat="44.2175902" lon="11.5219232"><ele>460.0</ele><time>2026-04-12T11:35:45.973Z</time></trkpt><trkpt lat="44.2175138" lon="11.5219846"><ele>460.00000000000006</ele><time>2026-04-12T11:35:46.973Z</time></trkpt><trkpt lat="44.2174399" lon="11.5220463"><ele>460.0</ele><time>2026-04-12T11:35:47.972Z</time></trkpt><trkpt lat="44.2173649" lon="11.5220955"><ele>460.0</ele><time>2026-04-12T11:35:48.973Z</time></trkpt><trkpt lat="44.2172884" lon="11.5221402"><ele>460.0</ele><time>2026-04-12T11:35:49.973Z</time></trkpt><trkpt lat="44.2172173" lon="11.5221999"><ele>460.00000000000006</ele><time>2026-04-12T11:35:50.973Z</time></trkpt><trkpt lat="44.2171589" lon="11.5222631"><ele>460.0</ele><time>2026-04-12T11:35:51.974Z</time></trkpt><trkpt lat="44.217103" lon="11.5223379"><ele>463.6</ele><time>2026-04-12T11:35:52.972Z</time></trkpt><trkpt lat="44.2170485" lon="11.5224231"><ele>467.2</ele><time>2026-04-12T11:35:53.972Z</time></trkpt><trkpt lat="44.2169969" lon="11.5225236"><ele>470.79999999999995</ele><time>2026-04-12T11:35:54.973Z</time></trkpt><trkpt lat="44.2169507" lon="11.5226433"><ele>474.4</ele><time>2026-04-12T11:35:55.972Z</time></trkpt><trkpt lat="44.2169188" lon="11.5227887"><ele>478.0</ele><time>2026-04-12T11:35:56.972Z</time></trkpt><trkpt lat="44.2169023" lon="11.522929"><ele>478.0</ele><time>2026-04-12T11:35:57.974Z</time></trkpt><trkpt lat="44.2169014" lon="11.5230511"><ele>477.99999999999994</ele><time>2026-04-12T11:35:58.974Z</time></trkpt><trkpt lat="44.2168946" lon="11.5231662"><ele>477.99999999999994</ele><time>2026-04-12T11:35:59.973Z</time></trkpt><trkpt lat="44.2168732" lon="11.5232879"><ele>478.0</ele><time>2026-04-12T11:36:00.974Z</time></trkpt><trkpt lat="44.2168421" lon="11.5234135"><ele>478.0</ele><time>2026-04-12T11:36:01.973Z</time></trkpt><trkpt lat="44.2168037" lon="11.523551"><ele>478.0</ele><time>2026-04-12T11:36:02.974Z</time></trkpt><trkpt lat="44.2167701" lon="11.5236914"><ele>477.99999999999994</ele><time>2026-04-12T11:36:03.973Z</time></trkpt><trkpt lat="44.2167397" lon="11.5238264"><ele>477.99999999999994</ele><time>2026-04-12T11:36:04.973Z</time></trkpt><trkpt lat="44.216722" lon="11.5239512"><ele>478.0</ele><time>2026-04-12T11:36:05.975Z</time></trkpt><trkpt lat="44.216723" lon="11.5240737"><ele>478.0</ele><time>2026-04-12T11:36:06.973Z</time></trkpt><trkpt lat="44.2167399" lon="11.5241981"><ele>477.4</ele><time>2026-04-12T11:36:07.973Z</time></trkpt><trkpt lat="44.2167769" lon="11.5243319"><ele>476.79999999999995</ele><time>2026-04-12T11:36:08.974Z</time></trkpt><trkpt lat="44.2168129" lon="11.5244537"><ele>476.2</ele><time>2026-04-12T11:36:09.974Z</time></trkpt><trkpt lat="44.2168509" lon="11.5245748"><ele>475.6</ele><time>2026-04-12T11:36:10.974Z</time></trkpt><trkpt lat="44.2168718" lon="11.5246952"><ele>475.0</ele><time>2026-04-12T11:36:11.973Z</time></trkpt><trkpt lat="44.2168698" lon="11.524824"><ele>473.8</ele><time>2026-04-12T11:36:12.973Z</time></trkpt><trkpt lat="44.2168528" lon="11.5249592"><ele>472.6</ele><time>2026-04-12T11:36:13.972Z</time></trkpt><trkpt lat="44.2168273" lon="11.5250902"><ele>471.4</ele><time>2026-04-12T11:36:14.974Z</time></trkpt><trkpt lat="44.2167956" lon="11.5252087"><ele>470.2</ele><time>2026-04-12T11:36:15.972Z</time></trkpt><trkpt lat="44.2167539" lon="11.5253304"><ele>469.0</ele><time>2026-04-12T11:36:16.973Z</time></trkpt><trkpt lat="44.2167187" lon="11.5254619"><ele>467.2</ele><time>2026-04-12T11:36:17.972Z</time></trkpt><trkpt lat="44.216694" lon="11.5256032"><ele>465.4</ele><time>2026-04-12T11:36:18.973Z</time></trkpt><trkpt lat="44.2166689" lon="11.5257407"><ele>463.6</ele><time>2026-04-12T11:36:19.972Z</time></trkpt><trkpt lat="44.2166365" lon="11.5258705"><ele>461.8</ele><time>2026-04-12T11:36:20.974Z</time></trkpt><trkpt lat="44.2165906" lon="11.5259905"><ele>460.0</ele><time>2026-04-12T11:36:21.974Z</time></trkpt><trkpt lat="44.2165397" lon="11.5260951"><ele>460.00000000000006</ele><time>2026-04-12T11:36:22.972Z</time></trkpt><trkpt lat="44.2164952" lon="11.5261789"><ele>460.0</ele><time>2026-04-12T11:36:23.975Z</time></trkpt><trkpt lat="44.2164506" lon="11.5262427"><ele>460.0</ele><time>2026-04-12T11:36:24.975Z</time></trkpt><trkpt lat="44.2164005" lon="11.526383"><ele>460.0</ele><time>2026-04-12T11:36:26.972Z</time></trkpt><trkpt lat="44.2163937" lon="11.5265552"><ele>460.00000000000006</ele><time>2026-04-12T11:36:28.973Z</time></trkpt><trkpt lat="44.2164075" lon="11.5266455"><ele>460.0</ele><time>2026-04-12T11:36:29.973Z</time></trkpt><trkpt lat="44.2164176" lon="11.5267517"><ele>454.8</ele><time>2026-04-12T11:36:30.973Z</time></trkpt><trkpt lat="44.2164159" lon="11.5268699"><ele>449.6</ele><time>2026-04-12T11:36:31.972Z</time></trkpt><trkpt lat="44.2163994" lon="11.5269947"><ele>444.4</ele><time>2026-04-12T11:36:32.973Z</time></trkpt><trkpt lat="44.2163694" lon="11.5271244"><ele>439.2</ele><time>2026-04-12T11:36:33.972Z</time></trkpt><trkpt lat="44.2163359" lon="11.5272568"><ele>434.0</ele><time>2026-04-12T11:36:34.972Z</time></trkpt><trkpt lat="44.2163092" lon="11.527389"><ele>434.0</ele><time>2026-04-12T11:36:35.973Z</time></trkpt><trkpt lat="44.216293" lon="11.5275282"><ele>434.0</ele><time>2026-04-12T11:36:36.973Z</time></trkpt><trkpt lat="44.2162771" lon="11.5276632"><ele>434.0</ele><time>2026-04-12T11:36:37.973Z</time></trkpt><trkpt lat="44.2162669" lon="11.5277972"><ele>434.0</ele><time>2026-04-12T11:36:38.974Z</time></trkpt><trkpt lat="44.2162588" lon="11.5279264"><ele>434.0</ele><time>2026-04-12T11:36:39.974Z</time></trkpt><trkpt lat="44.2162513" lon="11.5280537"><ele>436.2</ele><time>2026-04-12T11:36:40.972Z</time></trkpt><trkpt lat="44.2162475" lon="11.5281754"><ele>438.4</ele><time>2026-04-12T11:36:41.974Z</time></trkpt><trkpt lat="44.2162423" lon="11.5282825"><ele>440.6</ele><time>2026-04-12T11:36:42.974Z</time></trkpt><trkpt lat="44.2162278" lon="11.5283715"><ele>442.8</ele><time>2026-04-12T11:36:43.974Z</time></trkpt><trkpt lat="44.2161667" lon="11.5285071"><ele>445.0</ele><time>2026-04-12T11:36:45.972Z</time></trkpt><trkpt lat="44.2160725" lon="11.5285809"><ele>445.0</ele><time>2026-04-12T11:36:47.972Z</time></trkpt><trkpt lat="44.2159754" lon="11.5286571"><ele>445.0</ele><time>2026-04-12T11:36:49.972Z</time></trkpt><trkpt lat="44.2159309" lon="11.5288035"><ele>445.0</ele><time>2026-04-12T11:36:51.973Z</time></trkpt><trkpt lat="44.2159308" lon="11.5289022"><ele>445.0</ele><time>2026-04-12T11:36:52.973Z</time></trkpt><trkpt lat="44.2159368" lon="11.5290065"><ele>445.0</ele><time>2026-04-12T11:36:53.974Z</time></trkpt><trkpt lat="44.2159359" lon="11.5291161"><ele>447.0</ele><time>2026-04-12T11:36:54.973Z</time></trkpt><trkpt lat="44.2159207" lon="11.5292233"><ele>449.0</ele><time>2026-04-12T11:36:55.974Z</time></trkpt><trkpt lat="44.2158906" lon="11.529323"><ele>451.0</ele><time>2026-04-12T11:36:56.973Z</time></trkpt><trkpt lat="44.2158617" lon="11.5294178"><ele>453.0</ele><time>2026-04-12T11:36:57.972Z</time></trkpt><trkpt lat="44.2158359" lon="11.5295046"><ele>455.0</ele><time>2026-04-12T11:36:58.972Z</time></trkpt><trkpt lat="44.215814" lon="11.5295934"><ele>457.0</ele><time>2026-04-12T11:36:59.974Z</time></trkpt><trkpt lat="44.2157904" lon="11.529679"><ele>459.0</ele><time>2026-04-12T11:37:00.973Z</time></trkpt><trkpt lat="44.2157613" lon="11.5297622"><ele>460.0</ele><time>2026-04-12T11:37:01.972Z</time></trkpt><trkpt lat="44.2157157" lon="11.5298366"><ele>461.0</ele><time>2026-04-12T11:37:02.975Z</time></trkpt><trkpt lat="44.2156598" lon="11.5299"><ele>462.0</ele><time>2026-04-12T11:37:03.972Z</time></trkpt><trkpt lat="44.215596" lon="11.5299492"><ele>463.0</ele><time>2026-04-12T11:37:04.972Z</time></trkpt><trkpt lat="44.2155278" lon="11.529988"><ele>464.0</ele><time>2026-04-12T11:37:05.972Z</time></trkpt><trkpt lat="44.2154656" lon="11.5300168"><ele>465.0</ele><time>2026-04-12T11:37:06.974Z</time></trkpt><trkpt lat="44.21538" lon="11.5301128"><ele>465.0</ele><time>2026-04-12T11:37:08.974Z</time></trkpt><trkpt lat="44.2153331" lon="11.5302701"><ele>465.0</ele><time>2026-04-12T11:37:10.973Z</time></trkpt><trkpt lat="44.2153209" lon="11.5303713"><ele>465.0</ele><time>2026-04-12T11:37:11.973Z</time></trkpt><trkpt lat="44.2153085" lon="11.5304865"><ele>465.0</ele><time>2026-04-12T11:37:12.972Z</time></trkpt><trkpt lat="44.2152894" lon="11.5306108"><ele>465.0</ele><time>2026-04-12T11:37:13.972Z</time></trkpt><trkpt lat="44.2152618" lon="11.5307408"><ele>467.3333333333333</ele><time>2026-04-12T11:37:14.972Z</time></trkpt><trkpt lat="44.2152306" lon="11.5308693"><ele>469.66666666666663</ele><time>2026-04-12T11:37:15.972Z</time></trkpt><trkpt lat="44.2151973" lon="11.5309942"><ele>472.0</ele><time>2026-04-12T11:37:16.973Z</time></trkpt><trkpt lat="44.215161" lon="11.5311097"><ele>474.3333333333333</ele><time>2026-04-12T11:37:17.974Z</time></trkpt><trkpt lat="44.2151242" lon="11.5312123"><ele>476.66666666666663</ele><time>2026-04-12T11:37:18.973Z</time></trkpt><trkpt lat="44.2150835" lon="11.5312954"><ele>479.0</ele><time>2026-04-12T11:37:19.972Z</time></trkpt><trkpt lat="44.2150354" lon="11.5313647"><ele>479.4</ele><time>2026-04-12T11:37:20.974Z</time></trkpt><trkpt lat="44.2149822" lon="11.531416"><ele>479.79999999999995</ele><time>2026-04-12T11:37:21.972Z</time></trkpt><trkpt lat="44.2148839" lon="11.5315262"><ele>480.20000000000005</ele><time>2026-04-12T11:37:23.972Z</time></trkpt><trkpt lat="44.2147985" lon="11.5316378"><ele>480.6</ele><time>2026-04-12T11:37:25.975Z</time></trkpt><trkpt lat="44.2147267" lon="11.5317893"><ele>481.0</ele><time>2026-04-12T11:37:27.973Z</time></trkpt><trkpt lat="44.2146942" lon="11.5318761"><ele>477.6666666666667</ele><time>2026-04-12T11:37:28.972Z</time></trkpt><trkpt lat="44.2146628" lon="11.531975"><ele>474.33333333333337</ele><time>2026-04-12T11:37:29.972Z</time></trkpt><trkpt lat="44.2146335" lon="11.5320817"><ele>471.0</ele><time>2026-04-12T11:37:30.973Z</time></trkpt><trkpt lat="44.2146156" lon="11.5321853"><ele>467.66666666666663</ele><time>2026-04-12T11:37:31.972Z</time></trkpt><trkpt lat="44.2146082" lon="11.5322977"><ele>464.3333333333333</ele><time>2026-04-12T11:37:32.974Z</time></trkpt><trkpt lat="44.214595" lon="11.5324189"><ele>461.0</ele><time>2026-04-12T11:37:33.972Z</time></trkpt><trkpt lat="44.2145774" lon="11.5325304"><ele>461.0</ele><time>2026-04-12T11:37:34.974Z</time></trkpt><trkpt lat="44.2145512" lon="11.5326221"><ele>461.00000000000006</ele><time>2026-04-12T11:37:35.973Z</time></trkpt><trkpt lat="44.2145074" lon="11.5327113"><ele>461.0</ele><time>2026-04-12T11:37:36.973Z</time></trkpt><trkpt lat="44.2144552" lon="11.5327739"><ele>461.0</ele><time>2026-04-12T11:37:37.973Z</time></trkpt><trkpt lat="44.2144038" lon="11.5328569"><ele>461.00000000000006</ele><time>2026-04-12T11:37:38.974Z</time></trkpt><trkpt lat="44.214364" lon="11.5329363"><ele>461.0</ele><time>2026-04-12T11:37:39.973Z</time></trkpt><trkpt lat="44.2143385" lon="11.5330243"><ele>461.0</ele><time>2026-04-12T11:37:40.973Z</time></trkpt><trkpt lat="44.2143203" lon="11.533126"><ele>463.3333333333333</ele><time>2026-04-12T11:37:41.974Z</time></trkpt><trkpt lat="44.214305" lon="11.5332273"><ele>465.66666666666663</ele><time>2026-04-12T11:37:42.972Z</time></trkpt><trkpt lat="44.2142868" lon="11.5333313"><ele>468.0</ele><time>2026-04-12T11:37:43.974Z</time></trkpt><trkpt lat="44.2142648" lon="11.533439"><ele>470.33333333333337</ele><time>2026-04-12T11:37:44.975Z</time></trkpt><trkpt lat="44.2142287" lon="11.5335535"><ele>472.6666666666667</ele><time>2026-04-12T11:37:45.972Z</time></trkpt><trkpt lat="44.2141801" lon="11.533662"><ele>475.0</ele><time>2026-04-12T11:37:46.973Z</time></trkpt><trkpt lat="44.2141184" lon="11.5337742"><ele>476.4</ele><time>2026-04-12T11:37:47.972Z</time></trkpt><trkpt lat="44.2140417" lon="11.5338898"><ele>477.8</ele><time>2026-04-12T11:37:48.974Z</time></trkpt><trkpt lat="44.2139611" lon="11.5340198"><ele>479.20000000000005</ele><time>2026-04-12T11:37:49.973Z</time></trkpt><trkpt lat="44.2138929" lon="11.5341485"><ele>480.6</ele><time>2026-04-12T11:37:50.973Z</time></trkpt><trkpt lat="44.2138455" lon="11.5342671"><ele>482.0</ele><time>2026-04-12T11:37:51.973Z</time></trkpt><trkpt lat="44.2138166" lon="11.5343786"><ele>481.99999999999994</ele><time>2026-04-12T11:37:52.973Z</time></trkpt><trkpt lat="44.2138086" lon="11.5344868"><ele>482.0</ele><time>2026-04-12T11:37:53.974Z</time></trkpt><trkpt lat="44.213813" lon="11.534601"><ele>482.0</ele><time>2026-04-12T11:37:54.972Z</time></trkpt><trkpt lat="44.2138303" lon="11.5347158"><ele>482.0</ele><time>2026-04-12T11:37:55.973Z</time></trkpt><trkpt lat="44.2138547" lon="11.5348251"><ele>481.99999999999994</ele><time>2026-04-12T11:37:56.974Z</time></trkpt><trkpt lat="44.2138849" lon="11.5349237"><ele>482.0</ele><time>2026-04-12T11:37:57.973Z</time></trkpt><trkpt lat="44.2139237" lon="11.5350215"><ele>483.49999999999994</ele><time>2026-04-12T11:37:58.973Z</time></trkpt><trkpt lat="44.2139623" lon="11.5351243"><ele>485.0</ele><time>2026-04-12T11:37:59.976Z</time></trkpt><trkpt lat="44.2139917" lon="11.5352303"><ele>486.5</ele><time>2026-04-12T11:38:00.976Z</time></trkpt><trkpt lat="44.2140101" lon="11.5353355"><ele>488.0</ele><time>2026-04-12T11:38:01.972Z</time></trkpt><trkpt lat="44.2140255" lon="11.535433"><ele>489.49999999999994</ele><time>2026-04-12T11:38:02.974Z</time></trkpt><trkpt lat="44.214033" lon="11.5355259"><ele>491.0</ele><time>2026-04-12T11:38:03.972Z</time></trkpt><trkpt lat="44.2140216" lon="11.5356936"><ele>491.99999999999994</ele><time>2026-04-12T11:38:05.972Z</time></trkpt><trkpt lat="44.213996" lon="11.535859"><ele>493.0</ele><time>2026-04-12T11:38:07.973Z</time></trkpt><trkpt lat="44.2139735" lon="11.5359462"><ele>494.0</ele><time>2026-04-12T11:38:08.973Z</time></trkpt><trkpt lat="44.2139571" lon="11.5360373"><ele>495.0</ele><time>2026-04-12T11:38:09.976Z</time></trkpt><trkpt lat="44.2139326" lon="11.5361326"><ele>495.99999999999994</ele><time>2026-04-12T11:38:10.974Z</time></trkpt><trkpt lat="44.213906" lon="11.5362334"><ele>497.0</ele><time>2026-04-12T11:38:11.974Z</time></trkpt><trkpt lat="44.2138734" lon="11.5363363"><ele>499.3333333333333</ele><time>2026-04-12T11:38:12.972Z</time></trkpt><trkpt lat="44.2138333" lon="11.5364447"><ele>501.66666666666663</ele><time>2026-04-12T11:38:13.973Z</time></trkpt><trkpt lat="44.2137934" lon="11.5365505"><ele>504.0</ele><time>2026-04-12T11:38:14.974Z</time></trkpt><trkpt lat="44.2137648" lon="11.5366449"><ele>506.33333333333337</ele><time>2026-04-12T11:38:15.974Z</time></trkpt><trkpt lat="44.2137482" lon="11.5367415"><ele>508.6666666666667</ele><time>2026-04-12T11:38:16.972Z</time></trkpt><trkpt lat="44.2137449" lon="11.536836"><ele>511.0</ele><time>2026-04-12T11:38:17.972Z</time></trkpt><trkpt lat="44.2137557" lon="11.536927"><ele>511.00000000000006</ele><time>2026-04-12T11:38:18.972Z</time></trkpt><trkpt lat="44.2137822" lon="11.5370146"><ele>511.0</ele><time>2026-04-12T11:38:19.972Z</time></trkpt><trkpt lat="44.2138299" lon="11.5370988"><ele>511.0</ele><time>2026-04-12T11:38:20.974Z</time></trkpt><trkpt lat="44.2138875" lon="11.5371765"><ele>511.0</ele><time>2026-04-12T11:38:21.972Z</time></trkpt><trkpt lat="44.213945" lon="11.5372537"><ele>511.00000000000006</ele><time>2026-04-12T11:38:22.973Z</time></trkpt><trkpt lat="44.2139963" lon="11.5373406"><ele>511.0</ele><time>2026-04-12T11:38:23.972Z</time></trkpt><trkpt lat="44.2140345" lon="11.5374433"><ele>511.50000000000006</ele><time>2026-04-12T11:38:24.974Z</time></trkpt><trkpt lat="44.2140671" lon="11.5375444"><ele>512.0</ele><time>2026-04-12T11:38:25.972Z</time></trkpt><trkpt lat="44.2140877" lon="11.537645"><ele>512.5</ele><time>2026-04-12T11:38:26.974Z</time></trkpt><trkpt lat="44.2141109" lon="11.5377491"><ele>513.0</ele><time>2026-04-12T11:38:27.975Z</time></trkpt><trkpt lat="44.2141341" lon="11.5378536"><ele>513.5</ele><time>2026-04-12T11:38:28.973Z</time></trkpt><trkpt lat="44.2141517" lon="11.5379526"><ele>514.0</ele><time>2026-04-12T11:38:29.974Z</time></trkpt><trkpt lat="44.214163" lon="11.5380454"><ele>516.0</ele><time>2026-04-12T11:38:30.973Z</time></trkpt><trkpt lat="44.2141685" lon="11.5382157"><ele>518.0</ele><time>2026-04-12T11:38:32.973Z</time></trkpt><trkpt lat="44.2141673" lon="11.5383058"><ele>520.0</ele><time>2026-04-12T11:38:33.973Z</time></trkpt><trkpt lat="44.21417" lon="11.5384038"><ele>522.0</ele><time>2026-04-12T11:38:34.974Z</time></trkpt><trkpt lat="44.2141731" lon="11.5385067"><ele>524.0</ele><time>2026-04-12T11:38:35.972Z</time></trkpt><trkpt lat="44.214173" lon="11.5386113"><ele>526.0</ele><time>2026-04-12T11:38:36.974Z</time></trkpt><trkpt lat="44.2141795" lon="11.5387223"><ele>526.4285714285714</ele><time>2026-04-12T11:38:37.973Z</time></trkpt><trkpt lat="44.2141881" lon="11.5388328"><ele>526.8571428571428</ele><time>2026-04-12T11:38:38.973Z</time></trkpt><trkpt lat="44.2141961" lon="11.5389428"><ele>527.2857142857142</ele><time>2026-04-12T11:38:39.975Z</time></trkpt><trkpt lat="44.214204" lon="11.5390483"><ele>527.7142857142857</ele><time>2026-04-12T11:38:40.972Z</time></trkpt><trkpt lat="44.2142098" lon="11.5391488"><ele>528.1428571428571</ele><time>2026-04-12T11:38:41.974Z</time></trkpt><trkpt lat="44.2142177" lon="11.5392481"><ele>528.5714285714286</ele><time>2026-04-12T11:38:42.973Z</time></trkpt><trkpt lat="44.2142188" lon="11.5393425"><ele>529.0</ele><time>2026-04-12T11:38:43.973Z</time></trkpt><trkpt lat="44.2142102" lon="11.5394312"><ele>529.0</ele><time>2026-04-12T11:38:44.972Z</time></trkpt><trkpt lat="44.214193" lon="11.5395187"><ele>529.0</ele><time>2026-04-12T11:38:45.972Z</time></trkpt><trkpt lat="44.2141722" lon="11.5396069"><ele>529.0</ele><time>2026-04-12T11:38:46.972Z</time></trkpt><trkpt lat="44.2141418" lon="11.5396927"><ele>529.0</ele><time>2026-04-12T11:38:47.973Z</time></trkpt><trkpt lat="44.2141089" lon="11.5397822"><ele>529.0</ele><time>2026-04-12T11:38:48.972Z</time></trkpt><trkpt lat="44.2140766" lon="11.5398761"><ele>529.0</ele><time>2026-04-12T11:38:49.973Z</time></trkpt><trkpt lat="44.214053" lon="11.5399704"><ele>529.0</ele><time>2026-04-12T11:38:50.973Z</time></trkpt><trkpt lat="44.2140494" lon="11.540074"><ele>529.5</ele><time>2026-04-12T11:38:51.974Z</time></trkpt><trkpt lat="44.2140504" lon="11.5401823"><ele>530.0</ele><time>2026-04-12T11:38:52.972Z</time></trkpt><trkpt lat="44.2140497" lon="11.5402916"><ele>530.5</ele><time>2026-04-12T11:38:53.972Z</time></trkpt><trkpt lat="44.2140383" lon="11.5403965"><ele>531.0</ele><time>2026-04-12T11:38:54.972Z</time></trkpt><trkpt lat="44.214015" lon="11.5404964"><ele>531.5</ele><time>2026-04-12T11:38:55.975Z</time></trkpt><trkpt lat="44.2139791" lon="11.5405935"><ele>532.0</ele><time>2026-04-12T11:38:56.975Z</time></trkpt><trkpt lat="44.2139309" lon="11.5406914"><ele>531.5714285714286</ele><time>2026-04-12T11:38:57.973Z</time></trkpt><trkpt lat="44.213869" lon="11.5407709"><ele>531.1428571428571</ele><time>2026-04-12T11:38:58.973Z</time></trkpt><trkpt lat="44.2138138" lon="11.5408361"><ele>530.7142857142858</ele><time>2026-04-12T11:38:59.975Z</time></trkpt><trkpt lat="44.2137646" lon="11.5409067"><ele>530.2857142857142</ele><time>2026-04-12T11:39:00.974Z</time></trkpt><trkpt lat="44.2137254" lon="11.5409862"><ele>529.8571428571429</ele><time>2026-04-12T11:39:01.974Z</time></trkpt><trkpt lat="44.213702" lon="11.5410863"><ele>529.4285714285714</ele><time>2026-04-12T11:39:02.974Z</time></trkpt><trkpt lat="44.2136928" lon="11.541179"><ele>529.0</ele><time>2026-04-12T11:39:03.975Z</time></trkpt><trkpt lat="44.2136924" lon="11.541277"><ele>529.0</ele><time>2026-04-12T11:39:04.975Z</time></trkpt><trkpt lat="44.2136974" lon="11.5413749"><ele>529.0</ele><time>2026-04-12T11:39:05.974Z</time></trkpt><trkpt lat="44.2136966" lon="11.5414672"><ele>529.0</ele><time>2026-04-12T11:39:06.975Z</time></trkpt><trkpt lat="44.2136753" lon="11.5415927"><ele>529.0</ele><time>2026-04-12T11:39:08.975Z</time></trkpt><trkpt lat="44.2136139" lon="11.5416984"><ele>529.0</ele><time>2026-04-12T11:39:10.974Z</time></trkpt><trkpt lat="44.2135663" lon="11.5417664"><ele>529.0</ele><time>2026-04-12T11:39:11.975Z</time></trkpt><trkpt lat="44.2134988" lon="11.5418303"><ele>529.0</ele><time>2026-04-12T11:39:12.974Z</time></trkpt><trkpt lat="44.2134327" lon="11.541888"><ele>529.0</ele><time>2026-04-12T11:39:13.975Z</time></trkpt><trkpt lat="44.213364" lon="11.5419367"><ele>529.0</ele><time>2026-04-12T11:39:14.975Z</time></trkpt><trkpt lat="44.2132958" lon="11.5419908"><ele>529.0</ele><time>2026-04-12T11:39:15.974Z</time></trkpt><trkpt lat="44.213236" lon="11.542056"><ele>529.0</ele><time>2026-04-12T11:39:16.973Z</time></trkpt><trkpt lat="44.2131904" lon="11.5421246"><ele>529.0</ele><time>2026-04-12T11:39:17.973Z</time></trkpt><trkpt lat="44.213147" lon="11.5421959"><ele>529.0</ele><time>2026-04-12T11:39:18.973Z</time></trkpt><trkpt lat="44.213102" lon="11.5422582"><ele>529.8</ele><time>2026-04-12T11:39:19.972Z</time></trkpt><trkpt lat="44.2130032" lon="11.5423387"><ele>530.5999999999999</ele><time>2026-04-12T11:39:21.974Z</time></trkpt><trkpt lat="44.2128953" lon="11.5423777"><ele>531.4</ele><time>2026-04-12T11:39:23.973Z</time></trkpt><trkpt lat="44.2128163" lon="11.542419"><ele>532.1999999999999</ele><time>2026-04-12T11:39:25.974Z</time></trkpt><trkpt lat="44.2127418" lon="11.5425077"><ele>533.0</ele><time>2026-04-12T11:39:27.973Z</time></trkpt><trkpt lat="44.2126588" lon="11.5426221"><ele>533.0</ele><time>2026-04-12T11:39:29.974Z</time></trkpt><trkpt lat="44.2125545" lon="11.5427204"><ele>533.0</ele><time>2026-04-12T11:39:31.972Z</time></trkpt><trkpt lat="44.2124946" lon="11.5427694"><ele>533.0</ele><time>2026-04-12T11:39:32.973Z</time></trkpt><trkpt lat="44.2124301" lon="11.5428194"><ele>533.0</ele><time>2026-04-12T11:39:33.973Z</time></trkpt><trkpt lat="44.2123596" lon="11.5428764"><ele>533.0</ele><time>2026-04-12T11:39:34.973Z</time></trkpt><trkpt lat="44.2122868" lon="11.5429386"><ele>533.0</ele><time>2026-04-12T11:39:35.973Z</time></trkpt><trkpt lat="44.212211" lon="11.5430061"><ele>534.1666666666666</ele><time>2026-04-12T11:39:36.974Z</time></trkpt><trkpt lat="44.2121373" lon="11.5430666"><ele>535.3333333333333</ele><time>2026-04-12T11:39:37.972Z</time></trkpt><trkpt lat="44.2120632" lon="11.5431308"><ele>536.5</ele><time>2026-04-12T11:39:38.974Z</time></trkpt><trkpt lat="44.2119859" lon="11.5431908"><ele>537.6666666666666</ele><time>2026-04-12T11:39:39.974Z</time></trkpt><trkpt lat="44.2119116" lon="11.5432495"><ele>538.8333333333334</ele><time>2026-04-12T11:39:40.972Z</time></trkpt><trkpt lat="44.2118342" lon="11.5433099"><ele>540.0</ele><time>2026-04-12T11:39:41.974Z</time></trkpt><trkpt lat="44.2117579" lon="11.5433761"><ele>540.0</ele><time>2026-04-12T11:39:42.974Z</time></trkpt><trkpt lat="44.2116781" lon="11.5434377"><ele>540.0</ele><time>2026-04-12T11:39:43.974Z</time></trkpt><trkpt lat="44.211598" lon="11.5434885"><ele>540.0</ele><time>2026-04-12T11:39:44.973Z</time></trkpt><trkpt lat="44.2115155" lon="11.5435262"><ele>540.0</ele><time>2026-04-12T11:39:45.972Z</time></trkpt><trkpt lat="44.2114296" lon="11.5435508"><ele>540.0</ele><time>2026-04-12T11:39:46.972Z</time></trkpt><trkpt lat="44.211343" lon="11.5435634"><ele>540.0</ele><time>2026-04-12T11:39:47.973Z</time></trkpt><trkpt lat="44.211263" lon="11.5435658"><ele>539.6666666666666</ele><time>2026-04-12T11:39:48.973Z</time></trkpt><trkpt lat="44.2111819" lon="11.5435766"><ele>539.3333333333334</ele><time>2026-04-12T11:39:49.972Z</time></trkpt><trkpt lat="44.2111025" lon="11.5436056"><ele>539.0</ele><time>2026-04-12T11:39:50.977Z</time></trkpt><trkpt lat="44.2110226" lon="11.5436562"><ele>538.6666666666667</ele><time>2026-04-12T11:39:51.974Z</time></trkpt><trkpt lat="44.2109474" lon="11.5437228"><ele>538.3333333333334</ele><time>2026-04-12T11:39:52.972Z</time></trkpt><trkpt lat="44.2108821" lon="11.5437938"><ele>538.0</ele><time>2026-04-12T11:39:53.974Z</time></trkpt><trkpt lat="44.2108232" lon="11.543866"><ele>540.3333333333334</ele><time>2026-04-12T11:39:54.973Z</time></trkpt><trkpt lat="44.2107706" lon="11.543931"><ele>542.6666666666667</ele><time>2026-04-12T11:39:55.974Z</time></trkpt><trkpt lat="44.2107189" lon="11.5439838"><ele>545.0</ele><time>2026-04-12T11:39:56.975Z</time></trkpt><trkpt lat="44.210606" lon="11.5440567"><ele>547.3333333333334</ele><time>2026-04-12T11:39:58.973Z</time></trkpt><trkpt lat="44.2105422" lon="11.5440651"><ele>549.6666666666666</ele><time>2026-04-12T11:39:59.975Z</time></trkpt><trkpt lat="44.210426" lon="11.5440966"><ele>552.0</ele><time>2026-04-12T11:40:01.973Z</time></trkpt><trkpt lat="44.210319" lon="11.5441863"><ele>553.7142857142858</ele><time>2026-04-12T11:40:03.974Z</time></trkpt><trkpt lat="44.2102709" lon="11.5442462"><ele>555.4285714285714</ele><time>2026-04-12T11:40:04.973Z</time></trkpt><trkpt lat="44.2102248" lon="11.5443103"><ele>557.1428571428571</ele><time>2026-04-12T11:40:05.975Z</time></trkpt><trkpt lat="44.2101602" lon="11.5444565"><ele>558.8571428571429</ele><time>2026-04-12T11:40:07.973Z</time></trkpt><trkpt lat="44.2101329" lon="11.5445391"><ele>560.5714285714286</ele><time>2026-04-12T11:40:08.973Z</time></trkpt><trkpt lat="44.2101005" lon="11.5446156"><ele>562.2857142857143</ele><time>2026-04-12T11:40:09.974Z</time></trkpt><trkpt lat="44.2100544" lon="11.5446765"><ele>564.0</ele><time>2026-04-12T11:40:10.973Z</time></trkpt><trkpt lat="44.21" lon="11.5447329"><ele>565.6666666666666</ele><time>2026-04-12T11:40:11.972Z</time></trkpt><trkpt lat="44.2099394" lon="11.5447817"><ele>567.3333333333334</ele><time>2026-04-12T11:40:12.972Z</time></trkpt><trkpt lat="44.2098821" lon="11.5448301"><ele>569.0</ele><time>2026-04-12T11:40:13.973Z</time></trkpt><trkpt lat="44.209831" lon="11.5448828"><ele>570.6666666666667</ele><time>2026-04-12T11:40:14.973Z</time></trkpt><trkpt lat="44.209745" lon="11.545016"><ele>572.3333333333334</ele><time>2026-04-12T11:40:16.972Z</time></trkpt><trkpt lat="44.2097157" lon="11.5451036"><ele>574.0</ele><time>2026-04-12T11:40:17.972Z</time></trkpt><trkpt lat="44.2096861" lon="11.5451967"><ele>574.4</ele><time>2026-04-12T11:40:18.974Z</time></trkpt><trkpt lat="44.2096586" lon="11.5452835"><ele>574.8</ele><time>2026-04-12T11:40:19.974Z</time></trkpt><trkpt lat="44.2096229" lon="11.5453628"><ele>575.2</ele><time>2026-04-12T11:40:20.975Z</time></trkpt><trkpt lat="44.2095337" lon="11.5454615"><ele>575.6</ele><time>2026-04-12T11:40:22.972Z</time></trkpt><trkpt lat="44.2094186" lon="11.5454764"><ele>576.0</ele><time>2026-04-12T11:40:24.972Z</time></trkpt><trkpt lat="44.2092929" lon="11.5454116"><ele>577.8333333333334</ele><time>2026-04-12T11:40:26.973Z</time></trkpt><trkpt lat="44.2092214" lon="11.5453708"><ele>579.6666666666666</ele><time>2026-04-12T11:40:27.973Z</time></trkpt><trkpt lat="44.2091473" lon="11.5453296"><ele>581.5</ele><time>2026-04-12T11:40:28.974Z</time></trkpt><trkpt lat="44.2090711" lon="11.5452924"><ele>583.3333333333333</ele><time>2026-04-12T11:40:29.975Z</time></trkpt><trkpt lat="44.2089879" lon="11.5452631"><ele>585.1666666666666</ele><time>2026-04-12T11:40:30.973Z</time></trkpt><trkpt lat="44.2089032" lon="11.5452429"><ele>587.0</ele><time>2026-04-12T11:40:31.972Z</time></trkpt><trkpt lat="44.2088159" lon="11.5452372"><ele>588.0</ele><time>2026-04-12T11:40:32.975Z</time></trkpt><trkpt lat="44.2087272" lon="11.5452441"><ele>589.0</ele><time>2026-04-12T11:40:33.973Z</time></trkpt><trkpt lat="44.2086396" lon="11.5452662"><ele>590.0</ele><time>2026-04-12T11:40:34.973Z</time></trkpt><trkpt lat="44.2085587" lon="11.5452982"><ele>591.0</ele><time>2026-04-12T11:40:35.972Z</time></trkpt><trkpt lat="44.2084768" lon="11.5453423"><ele>592.0</ele><time>2026-04-12T11:40:36.972Z</time></trkpt><trkpt lat="44.2083942" lon="11.5453932"><ele>593.0</ele><time>2026-04-12T11:40:37.973Z</time></trkpt><trkpt lat="44.2083151" lon="11.545447"><ele>593.0</ele><time>2026-04-12T11:40:38.972Z</time></trkpt><trkpt lat="44.2082398" lon="11.5455011"><ele>593.0</ele><time>2026-04-12T11:40:39.972Z</time></trkpt><trkpt lat="44.2081646" lon="11.5455571"><ele>593.0</ele><time>2026-04-12T11:40:40.972Z</time></trkpt><trkpt lat="44.2080994" lon="11.5456076"><ele>593.0</ele><time>2026-04-12T11:40:41.973Z</time></trkpt><trkpt lat="44.2080421" lon="11.5456678"><ele>593.0</ele><time>2026-04-12T11:40:42.972Z</time></trkpt><trkpt lat="44.2079973" lon="11.5457342"><ele>593.0</ele><time>2026-04-12T11:40:43.972Z</time></trkpt><trkpt lat="44.207929" lon="11.5458857"><ele>597.0</ele><time>2026-04-12T11:40:45.972Z</time></trkpt><trkpt lat="44.2078324" lon="11.5460076"><ele>601.0</ele><time>2026-04-12T11:40:47.973Z</time></trkpt><trkpt lat="44.2077723" lon="11.5460607"><ele>605.0</ele><time>2026-04-12T11:40:48.973Z</time></trkpt><trkpt lat="44.2077144" lon="11.5461172"><ele>609.0</ele><time>2026-04-12T11:40:49.974Z</time></trkpt><trkpt lat="44.2076589" lon="11.5461834"><ele>613.0</ele><time>2026-04-12T11:40:50.975Z</time></trkpt><trkpt lat="44.2076126" lon="11.5462585"><ele>617.0</ele><time>2026-04-12T11:40:51.973Z</time></trkpt><trkpt lat="44.2075718" lon="11.5463428"><ele>617.0</ele><time>2026-04-12T11:40:52.972Z</time></trkpt><trkpt lat="44.2075461" lon="11.5465108"><ele>617.0</ele><time>2026-04-12T11:40:54.973Z</time></trkpt><trkpt lat="44.2075465" lon="11.5466048"><ele>617.0</ele><time>2026-04-12T11:40:55.973Z</time></trkpt><trkpt lat="44.2075532" lon="11.5467063"><ele>617.0</ele><time>2026-04-12T11:40:56.974Z</time></trkpt><trkpt lat="44.2075765" lon="11.5468029"><ele>617.0</ele><time>2026-04-12T11:40:57.973Z</time></trkpt><trkpt lat="44.2076049" lon="11.5469046"><ele>617.0</ele><time>2026-04-12T11:40:58.973Z</time></trkpt><trkpt lat="44.2076391" lon="11.5470083"><ele>618.6666666666666</ele><time>2026-04-12T11:40:59.973Z</time></trkpt><trkpt lat="44.2076708" lon="11.5471165"><ele>620.3333333333333</ele><time>2026-04-12T11:41:00.974Z</time></trkpt><trkpt lat="44.2076941" lon="11.5472248"><ele>622.0</ele><time>2026-04-12T11:41:01.973Z</time></trkpt><trkpt lat="44.2077171" lon="11.5473246"><ele>623.6666666666666</ele><time>2026-04-12T11:41:02.973Z</time></trkpt><trkpt lat="44.2077476" lon="11.5474126"><ele>625.3333333333334</ele><time>2026-04-12T11:41:03.973Z</time></trkpt><trkpt lat="44.2077768" lon="11.5474925"><ele>627.0</ele><time>2026-04-12T11:41:04.974Z</time></trkpt><trkpt lat="44.2078493" lon="11.5476268"><ele>627.0</ele><time>2026-04-12T11:41:06.972Z</time></trkpt><trkpt lat="44.2078984" lon="11.5476858"><ele>627.0</ele><time>2026-04-12T11:41:07.973Z</time></trkpt><trkpt lat="44.2079491" lon="11.5477468"><ele>627.0</ele><time>2026-04-12T11:41:08.973Z</time></trkpt><trkpt lat="44.2080288" lon="11.5478824"><ele>627.0</ele><time>2026-04-12T11:41:10.973Z</time></trkpt><trkpt lat="44.2080749" lon="11.548052"><ele>627.0</ele><time>2026-04-12T11:41:12.973Z</time></trkpt><trkpt lat="44.2080803" lon="11.5481538"><ele>628.8333333333334</ele><time>2026-04-12T11:41:13.972Z</time></trkpt><trkpt lat="44.208089" lon="11.5482638"><ele>630.6666666666666</ele><time>2026-04-12T11:41:14.973Z</time></trkpt><trkpt lat="44.2080978" lon="11.5483825"><ele>632.5</ele><time>2026-04-12T11:41:15.973Z</time></trkpt><trkpt lat="44.2081096" lon="11.5485096"><ele>634.3333333333333</ele><time>2026-04-12T11:41:16.973Z</time></trkpt><trkpt lat="44.2081194" lon="11.5486402"><ele>636.1666666666666</ele><time>2026-04-12T11:41:17.974Z</time></trkpt><trkpt lat="44.2081196" lon="11.5487662"><ele>638.0</ele><time>2026-04-12T11:41:18.973Z</time></trkpt><trkpt lat="44.2081121" lon="11.5488813"><ele>639.0</ele><time>2026-04-12T11:41:19.973Z</time></trkpt><trkpt lat="44.2081072" lon="11.5489927"><ele>640.0</ele><time>2026-04-12T11:41:20.974Z</time></trkpt><trkpt lat="44.2080981" lon="11.5491015"><ele>641.0</ele><time>2026-04-12T11:41:21.972Z</time></trkpt><trkpt lat="44.2080935" lon="11.5492111"><ele>642.0</ele><time>2026-04-12T11:41:22.972Z</time></trkpt><trkpt lat="44.2080957" lon="11.5493287"><ele>643.0</ele><time>2026-04-12T11:41:23.973Z</time></trkpt><trkpt lat="44.2081113" lon="11.5494538"><ele>644.0</ele><time>2026-04-12T11:41:24.973Z</time></trkpt><trkpt lat="44.2081254" lon="11.5495954"><ele>646.2</ele><time>2026-04-12T11:41:25.973Z</time></trkpt><trkpt lat="44.2081486" lon="11.5497428"><ele>648.4000000000001</ele><time>2026-04-12T11:41:26.973Z</time></trkpt><trkpt lat="44.2081748" lon="11.5498777"><ele>650.6</ele><time>2026-04-12T11:41:27.974Z</time></trkpt><trkpt lat="44.2082011" lon="11.5499906"><ele>652.8</ele><time>2026-04-12T11:41:28.973Z</time></trkpt><trkpt lat="44.20824" lon="11.5500909"><ele>655.0</ele><time>2026-04-12T11:41:29.974Z</time></trkpt><trkpt lat="44.208288" lon="11.5501766"><ele>650.1666666666667</ele><time>2026-04-12T11:41:30.973Z</time></trkpt><trkpt lat="44.2083334" lon="11.5502583"><ele>645.3333333333334</ele><time>2026-04-12T11:41:31.973Z</time></trkpt><trkpt lat="44.2083797" lon="11.5503374"><ele>640.5</ele><time>2026-04-12T11:41:32.973Z</time></trkpt><trkpt lat="44.2084102" lon="11.5504892"><ele>635.6666666666666</ele><time>2026-04-12T11:41:34.974Z</time></trkpt><trkpt lat="44.2083654" lon="11.5505878"><ele>630.8333333333333</ele><time>2026-04-12T11:41:36.974Z</time></trkpt><trkpt lat="44.2083014" lon="11.5506267"><ele>626.0</ele><time>2026-04-12T11:41:39.973Z</time></trkpt><trkpt lat="44.2082454" lon="11.5507023"><ele>626.0</ele><time>2026-04-12T11:41:48.972Z</time></trkpt><trkpt lat="44.2081632" lon="11.5508295"><ele>626.0</ele><time>2026-04-12T11:41:50.973Z</time></trkpt><trkpt lat="44.2081155" lon="11.550923"><ele>626.0</ele><time>2026-04-12T11:41:51.975Z</time></trkpt><trkpt lat="44.2080707" lon="11.5510151"><ele>626.0</ele><time>2026-04-12T11:41:52.972Z</time></trkpt><trkpt lat="44.2080157" lon="11.5510944"><ele>626.0</ele><time>2026-04-12T11:41:53.973Z</time></trkpt><trkpt lat="44.2079573" lon="11.5511616"><ele>626.0</ele><time>2026-04-12T11:41:54.973Z</time></trkpt><trkpt lat="44.2078931" lon="11.5512355"><ele>626.1666666666666</ele><time>2026-04-12T11:41:55.973Z</time></trkpt><trkpt lat="44.2078193" lon="11.5513051"><ele>626.3333333333333</ele><time>2026-04-12T11:41:56.973Z</time></trkpt><trkpt lat="44.2077424" lon="11.5513663"><ele>626.5</ele><time>2026-04-12T11:41:57.976Z</time></trkpt><trkpt lat="44.2076699" lon="11.5514136"><ele>626.6666666666666</ele><time>2026-04-12T11:41:58.973Z</time></trkpt><trkpt lat="44.2076026" lon="11.5514504"><ele>626.8333333333334</ele><time>2026-04-12T11:41:59.973Z</time></trkpt><trkpt lat="44.207536" lon="11.551497"><ele>627.0</ele><time>2026-04-12T11:42:00.973Z</time></trkpt><trkpt lat="44.2074671" lon="11.5515591"><ele>627.0</ele><time>2026-04-12T11:42:01.973Z</time></trkpt><trkpt lat="44.2074076" lon="11.5516266"><ele>627.0</ele><time>2026-04-12T11:42:02.973Z</time></trkpt><trkpt lat="44.2073403" lon="11.5517096"><ele>627.0</ele><time>2026-04-12T11:42:03.972Z</time></trkpt><trkpt lat="44.2072765" lon="11.5518078"><ele>627.0</ele><time>2026-04-12T11:42:04.973Z</time></trkpt><trkpt lat="44.2072209" lon="11.551912"><ele>627.0</ele><time>2026-04-12T11:42:05.974Z</time></trkpt><trkpt lat="44.2071726" lon="11.552027"><ele>623.0</ele><time>2026-04-12T11:42:06.973Z</time></trkpt><trkpt lat="44.20713" lon="11.5521439"><ele>619.0</ele><time>2026-04-12T11:42:07.973Z</time></trkpt><trkpt lat="44.2070867" lon="11.5522633"><ele>615.0</ele><time>2026-04-12T11:42:08.972Z</time></trkpt><trkpt lat="44.2070442" lon="11.5523769"><ele>611.0</ele><time>2026-04-12T11:42:09.973Z</time></trkpt><trkpt lat="44.2070025" lon="11.5524879"><ele>607.0</ele><time>2026-04-12T11:42:10.973Z</time></trkpt><trkpt lat="44.2069674" lon="11.5525953"><ele>607.0</ele><time>2026-04-12T11:42:11.973Z</time></trkpt><trkpt lat="44.2069387" lon="11.5527027"><ele>607.0</ele><time>2026-04-12T11:42:12.973Z</time></trkpt><trkpt lat="44.2069133" lon="11.552803"><ele>607.0</ele><time>2026-04-12T11:42:13.972Z</time></trkpt><trkpt lat="44.2068917" lon="11.5528936"><ele>607.0</ele><time>2026-04-12T11:42:14.974Z</time></trkpt><trkpt lat="44.2068743" lon="11.5529791"><ele>607.0</ele><time>2026-04-12T11:42:15.972Z</time></trkpt><trkpt lat="44.2068618" lon="11.5531358"><ele>607.0</ele><time>2026-04-12T11:42:17.974Z</time></trkpt><trkpt lat="44.2069059" lon="11.553306"><ele>607.5</ele><time>2026-04-12T11:42:19.974Z</time></trkpt><trkpt lat="44.2069516" lon="11.5533987"><ele>608.0</ele><time>2026-04-12T11:42:20.973Z</time></trkpt><trkpt lat="44.2070003" lon="11.5535001"><ele>608.5</ele><time>2026-04-12T11:42:21.973Z</time></trkpt><trkpt lat="44.2070315" lon="11.5536098"><ele>609.0</ele><time>2026-04-12T11:42:22.974Z</time></trkpt><trkpt lat="44.2070476" lon="11.5537251"><ele>609.5</ele><time>2026-04-12T11:42:23.973Z</time></trkpt><trkpt lat="44.2070561" lon="11.553846"><ele>610.0</ele><time>2026-04-12T11:42:24.973Z</time></trkpt><trkpt lat="44.2070663" lon="11.5539657"><ele>608.5</ele><time>2026-04-12T11:42:25.973Z</time></trkpt><trkpt lat="44.2070856" lon="11.5540718"><ele>607.0</ele><time>2026-04-12T11:42:26.975Z</time></trkpt><trkpt lat="44.2071195" lon="11.5541688"><ele>605.5</ele><time>2026-04-12T11:42:27.973Z</time></trkpt><trkpt lat="44.2071637" lon="11.5542602"><ele>604.0</ele><time>2026-04-12T11:42:28.973Z</time></trkpt><trkpt lat="44.2072049" lon="11.5543503"><ele>602.5</ele><time>2026-04-12T11:42:29.972Z</time></trkpt><trkpt lat="44.2072258" lon="11.5544504"><ele>601.0</ele><time>2026-04-12T11:42:30.973Z</time></trkpt><trkpt lat="44.2072345" lon="11.5545586"><ele>597.8</ele><time>2026-04-12T11:42:31.974Z</time></trkpt><trkpt lat="44.2072357" lon="11.5546791"><ele>594.6</ele><time>2026-04-12T11:42:32.973Z</time></trkpt><trkpt lat="44.207235" lon="11.5548082"><ele>591.4</ele><time>2026-04-12T11:42:33.973Z</time></trkpt><trkpt lat="44.2072388" lon="11.5549385"><ele>588.2</ele><time>2026-04-12T11:42:34.973Z</time></trkpt><trkpt lat="44.2072518" lon="11.5550631"><ele>585.0</ele><time>2026-04-12T11:42:35.975Z</time></trkpt><trkpt lat="44.2072737" lon="11.5551866"><ele>585.0</ele><time>2026-04-12T11:42:36.972Z</time></trkpt><trkpt lat="44.2072995" lon="11.5553043"><ele>585.0</ele><time>2026-04-12T11:42:37.975Z</time></trkpt><trkpt lat="44.2073235" lon="11.5554123"><ele>585.0</ele><time>2026-04-12T11:42:38.973Z</time></trkpt><trkpt lat="44.2073399" lon="11.5555277"><ele>585.0</ele><time>2026-04-12T11:42:39.972Z</time></trkpt><trkpt lat="44.2073412" lon="11.5556504"><ele>585.0</ele><time>2026-04-12T11:42:40.974Z</time></trkpt><trkpt lat="44.2073127" lon="11.5557771"><ele>585.0</ele><time>2026-04-12T11:42:41.974Z</time></trkpt><trkpt lat="44.2072734" lon="11.5559"><ele>585.4</ele><time>2026-04-12T11:42:42.973Z</time></trkpt><trkpt lat="44.2072246" lon="11.5560176"><ele>585.8</ele><time>2026-04-12T11:42:43.974Z</time></trkpt><trkpt lat="44.2071791" lon="11.5561396"><ele>586.2</ele><time>2026-04-12T11:42:44.974Z</time></trkpt><trkpt lat="44.2071543" lon="11.5562726"><ele>586.6</ele><time>2026-04-12T11:42:45.973Z</time></trkpt><trkpt lat="44.2071432" lon="11.5564081"><ele>587.0</ele><time>2026-04-12T11:42:46.973Z</time></trkpt><trkpt lat="44.2071406" lon="11.556547"><ele>588.4</ele><time>2026-04-12T11:42:47.974Z</time></trkpt><trkpt lat="44.2071321" lon="11.5566852"><ele>589.8000000000001</ele><time>2026-04-12T11:42:48.972Z</time></trkpt><trkpt lat="44.2071098" lon="11.5568259"><ele>591.2</ele><time>2026-04-12T11:42:49.974Z</time></trkpt><trkpt lat="44.2070718" lon="11.5569694"><ele>592.6</ele><time>2026-04-12T11:42:50.977Z</time></trkpt><trkpt lat="44.207025" lon="11.5571181"><ele>594.0</ele><time>2026-04-12T11:42:51.973Z</time></trkpt><trkpt lat="44.2069855" lon="11.5572692"><ele>595.2</ele><time>2026-04-12T11:42:52.974Z</time></trkpt><trkpt lat="44.2069568" lon="11.5574223"><ele>596.4</ele><time>2026-04-12T11:42:53.972Z</time></trkpt><trkpt lat="44.2069297" lon="11.5575743"><ele>597.6</ele><time>2026-04-12T11:42:54.975Z</time></trkpt><trkpt lat="44.2068939" lon="11.5577147"><ele>598.8</ele><time>2026-04-12T11:42:55.973Z</time></trkpt><trkpt lat="44.2068639" lon="11.557853"><ele>600.0</ele><time>2026-04-12T11:42:56.975Z</time></trkpt><trkpt lat="44.2068411" lon="11.557997"><ele>602.6</ele><time>2026-04-12T11:42:57.973Z</time></trkpt><trkpt lat="44.2068329" lon="11.5581439"><ele>605.2</ele><time>2026-04-12T11:42:58.973Z</time></trkpt><trkpt lat="44.2068386" lon="11.5582885"><ele>607.8</ele><time>2026-04-12T11:42:59.972Z</time></trkpt><trkpt lat="44.2068595" lon="11.5584276"><ele>610.4</ele><time>2026-04-12T11:43:00.973Z</time></trkpt><trkpt lat="44.2068853" lon="11.5585635"><ele>613.0</ele><time>2026-04-12T11:43:01.973Z</time></trkpt><trkpt lat="44.2069129" lon="11.558696"><ele>614.6</ele><time>2026-04-12T11:43:02.973Z</time></trkpt><trkpt lat="44.2069382" lon="11.5588244"><ele>616.1999999999999</ele><time>2026-04-12T11:43:03.973Z</time></trkpt><trkpt lat="44.2069658" lon="11.5589512"><ele>617.8</ele><time>2026-04-12T11:43:04.973Z</time></trkpt><trkpt lat="44.2069995" lon="11.5590716"><ele>619.4</ele><time>2026-04-12T11:43:05.976Z</time></trkpt><trkpt lat="44.2070433" lon="11.5591906"><ele>621.0</ele><time>2026-04-12T11:43:06.973Z</time></trkpt><trkpt lat="44.2070947" lon="11.5592966"><ele>621.0</ele><time>2026-04-12T11:43:07.974Z</time></trkpt><trkpt lat="44.207165" lon="11.5593832"><ele>621.0</ele><time>2026-04-12T11:43:08.974Z</time></trkpt><trkpt lat="44.2072364" lon="11.5594778"><ele>621.0</ele><time>2026-04-12T11:43:09.973Z</time></trkpt><trkpt lat="44.207307" lon="11.5595815"><ele>621.0</ele><time>2026-04-12T11:43:10.972Z</time></trkpt><trkpt lat="44.2073799" lon="11.5596879"><ele>621.0</ele><time>2026-04-12T11:43:11.974Z</time></trkpt><trkpt lat="44.2074543" lon="11.5597961"><ele>620.0</ele><time>2026-04-12T11:43:12.975Z</time></trkpt><trkpt lat="44.2075297" lon="11.5599027"><ele>619.0</ele><time>2026-04-12T11:43:13.973Z</time></trkpt><trkpt lat="44.207604" lon="11.5600096"><ele>618.0</ele><time>2026-04-12T11:43:14.973Z</time></trkpt><trkpt lat="44.2076708" lon="11.5601162"><ele>617.0</ele><time>2026-04-12T11:43:15.971Z</time></trkpt><trkpt lat="44.2077364" lon="11.560222"><ele>616.0</ele><time>2026-04-12T11:43:16.974Z</time></trkpt><trkpt lat="44.207801" lon="11.5603232"><ele>617.2</ele><time>2026-04-12T11:43:17.972Z</time></trkpt><trkpt lat="44.2078811" lon="11.5604086"><ele>618.4000000000001</ele><time>2026-04-12T11:43:18.974Z</time></trkpt><trkpt lat="44.2079788" lon="11.5604737"><ele>619.6</ele><time>2026-04-12T11:43:19.973Z</time></trkpt><trkpt lat="44.2080786" lon="11.5605302"><ele>620.8000000000001</ele><time>2026-04-12T11:43:20.975Z</time></trkpt><trkpt lat="44.2081777" lon="11.5605927"><ele>622.0</ele><time>2026-04-12T11:43:21.973Z</time></trkpt><trkpt lat="44.20827" lon="11.5606682"><ele>622.0</ele><time>2026-04-12T11:43:22.973Z</time></trkpt><trkpt lat="44.2083576" lon="11.5607608"><ele>622.0</ele><time>2026-04-12T11:43:23.973Z</time></trkpt><trkpt lat="44.2084347" lon="11.5608745"><ele>622.0</ele><time>2026-04-12T11:43:24.972Z</time></trkpt><trkpt lat="44.2085068" lon="11.5609868"><ele>622.0</ele><time>2026-04-12T11:43:25.973Z</time></trkpt><trkpt lat="44.2085752" lon="11.5611011"><ele>622.0</ele><time>2026-04-12T11:43:26.973Z</time></trkpt><trkpt lat="44.2086354" lon="11.5612183"><ele>625.4</ele><time>2026-04-12T11:43:27.972Z</time></trkpt><trkpt lat="44.2086945" lon="11.5613323"><ele>628.8000000000001</ele><time>2026-04-12T11:43:28.974Z</time></trkpt><trkpt lat="44.2087648" lon="11.5614306"><ele>632.2</ele><time>2026-04-12T11:43:29.974Z</time></trkpt><trkpt lat="44.2088407" lon="11.5615112"><ele>635.6</ele><time>2026-04-12T11:43:30.973Z</time></trkpt><trkpt lat="44.2089211" lon="11.5615795"><ele>639.0</ele><time>2026-04-12T11:43:31.975Z</time></trkpt><trkpt lat="44.2090021" lon="11.5616656"><ele>639.0</ele><time>2026-04-12T11:43:32.974Z</time></trkpt><trkpt lat="44.2090785" lon="11.5617652"><ele>639.0</ele><time>2026-04-12T11:43:33.973Z</time></trkpt><trkpt lat="44.2091297" lon="11.5618725"><ele>639.0</ele><time>2026-04-12T11:43:34.972Z</time></trkpt><trkpt lat="44.209178" lon="11.5619802"><ele>639.0</ele><time>2026-04-12T11:43:35.972Z</time></trkpt><trkpt lat="44.2092271" lon="11.5620757"><ele>639.0</ele><time>2026-04-12T11:43:36.972Z</time></trkpt><trkpt lat="44.2092737" lon="11.5621676"><ele>636.3333333333334</ele><time>2026-04-12T11:43:37.973Z</time></trkpt><trkpt lat="44.2093125" lon="11.562266"><ele>633.6666666666666</ele><time>2026-04-12T11:43:38.973Z</time></trkpt><trkpt lat="44.2093343" lon="11.5623748"><ele>631.0</ele><time>2026-04-12T11:43:39.972Z</time></trkpt><trkpt lat="44.2093321" lon="11.5624965"><ele>628.3333333333333</ele><time>2026-04-12T11:43:40.973Z</time></trkpt><trkpt lat="44.2093112" lon="11.5626224"><ele>625.6666666666666</ele><time>2026-04-12T11:43:41.974Z</time></trkpt><trkpt lat="44.2092703" lon="11.5627257"><ele>623.0</ele><time>2026-04-12T11:43:42.973Z</time></trkpt><trkpt lat="44.2092392" lon="11.5628222"><ele>622.0</ele><time>2026-04-12T11:43:43.973Z</time></trkpt><trkpt lat="44.209233" lon="11.5629172"><ele>621.0</ele><time>2026-04-12T11:43:44.974Z</time></trkpt><trkpt lat="44.2092453" lon="11.5630165"><ele>620.0</ele><time>2026-04-12T11:43:45.972Z</time></trkpt><trkpt lat="44.2092846" lon="11.5631087"><ele>619.0</ele><time>2026-04-12T11:43:46.972Z</time></trkpt><trkpt lat="44.2093468" lon="11.5631863"><ele>618.0</ele><time>2026-04-12T11:43:47.979Z</time></trkpt><trkpt lat="44.2094322" lon="11.5632494"><ele>617.0</ele><time>2026-04-12T11:43:48.972Z</time></trkpt><trkpt lat="44.2095195" lon="11.5633136"><ele>617.0</ele><time>2026-04-12T11:43:49.972Z</time></trkpt><trkpt lat="44.2096067" lon="11.5633829"><ele>617.0</ele><time>2026-04-12T11:43:50.974Z</time></trkpt><trkpt lat="44.2096804" lon="11.5634624"><ele>617.0</ele><time>2026-04-12T11:43:51.972Z</time></trkpt><trkpt lat="44.2097432" lon="11.5635576"><ele>617.0</ele><time>2026-04-12T11:43:52.972Z</time></trkpt><trkpt lat="44.2097971" lon="11.5636602"><ele>617.0</ele><time>2026-04-12T11:43:53.973Z</time></trkpt><trkpt lat="44.2098572" lon="11.5637564"><ele>617.3333333333333</ele><time>2026-04-12T11:43:54.972Z</time></trkpt><trkpt lat="44.2099186" lon="11.5638395"><ele>617.6666666666666</ele><time>2026-04-12T11:43:55.973Z</time></trkpt><trkpt lat="44.2099891" lon="11.5639"><ele>618.0</ele><time>2026-04-12T11:43:56.974Z</time></trkpt><trkpt lat="44.2100767" lon="11.5639387"><ele>618.3333333333334</ele><time>2026-04-12T11:43:57.972Z</time></trkpt><trkpt lat="44.2101546" lon="11.5639745"><ele>618.6666666666667</ele><time>2026-04-12T11:43:58.974Z</time></trkpt><trkpt lat="44.2102328" lon="11.5640209"><ele>619.0</ele><time>2026-04-12T11:43:59.972Z</time></trkpt><trkpt lat="44.2102999" lon="11.5640961"><ele>619.0</ele><time>2026-04-12T11:44:00.973Z</time></trkpt><trkpt lat="44.2103358" lon="11.5642112"><ele>619.0</ele><time>2026-04-12T11:44:01.973Z</time></trkpt><trkpt lat="44.2103662" lon="11.5643403"><ele>619.0</ele><time>2026-04-12T11:44:02.972Z</time></trkpt><trkpt lat="44.2104149" lon="11.5644577"><ele>619.0</ele><time>2026-04-12T11:44:03.974Z</time></trkpt><trkpt lat="44.2104734" lon="11.5645757"><ele>619.0</ele><time>2026-04-12T11:44:04.974Z</time></trkpt><trkpt lat="44.2105376" lon="11.5646962"><ele>617.2</ele><time>2026-04-12T11:44:05.974Z</time></trkpt><trkpt lat="44.2106034" lon="11.5648222"><ele>615.4</ele><time>2026-04-12T11:44:06.974Z</time></trkpt><trkpt lat="44.2106682" lon="11.5649433"><ele>613.6</ele><time>2026-04-12T11:44:07.974Z</time></trkpt><trkpt lat="44.2107307" lon="11.565055"><ele>611.8</ele><time>2026-04-12T11:44:08.974Z</time></trkpt><trkpt lat="44.2107937" lon="11.5651656"><ele>610.0</ele><time>2026-04-12T11:44:09.974Z</time></trkpt><trkpt lat="44.2108556" lon="11.5652758"><ele>608.4</ele><time>2026-04-12T11:44:10.973Z</time></trkpt><trkpt lat="44.2109157" lon="11.5653792"><ele>606.8</ele><time>2026-04-12T11:44:11.973Z</time></trkpt><trkpt lat="44.210976" lon="11.5654901"><ele>605.2</ele><time>2026-04-12T11:44:12.972Z</time></trkpt><trkpt lat="44.2110344" lon="11.5655991"><ele>603.6</ele><time>2026-04-12T11:44:13.973Z</time></trkpt><trkpt lat="44.2110951" lon="11.5656967"><ele>602.0</ele><time>2026-04-12T11:44:14.972Z</time></trkpt><trkpt lat="44.2111677" lon="11.5657854"><ele>602.0</ele><time>2026-04-12T11:44:15.974Z</time></trkpt><trkpt lat="44.2112527" lon="11.5658717"><ele>602.0</ele><time>2026-04-12T11:44:16.972Z</time></trkpt><trkpt lat="44.21134" lon="11.5659639"><ele>602.0</ele><time>2026-04-12T11:44:17.972Z</time></trkpt><trkpt lat="44.2114177" lon="11.566068"><ele>602.0</ele><time>2026-04-12T11:44:18.973Z</time></trkpt><trkpt lat="44.2114794" lon="11.5661741"><ele>602.0</ele><time>2026-04-12T11:44:19.973Z</time></trkpt><trkpt lat="44.2115253" lon="11.5662853"><ele>604.2</ele><time>2026-04-12T11:44:20.972Z</time></trkpt><trkpt lat="44.2115513" lon="11.5664166"><ele>606.4000000000001</ele><time>2026-04-12T11:44:21.972Z</time></trkpt><trkpt lat="44.2115541" lon="11.5665607"><ele>608.5999999999999</ele><time>2026-04-12T11:44:22.972Z</time></trkpt><trkpt lat="44.211543" lon="11.5667045"><ele>610.8</ele><time>2026-04-12T11:44:23.973Z</time></trkpt><trkpt lat="44.2115233" lon="11.5668348"><ele>613.0</ele><time>2026-04-12T11:44:24.973Z</time></trkpt><trkpt lat="44.2115133" lon="11.5669532"><ele>613.0</ele><time>2026-04-12T11:44:25.974Z</time></trkpt><trkpt lat="44.2115227" lon="11.5670712"><ele>613.0</ele><time>2026-04-12T11:44:26.974Z</time></trkpt><trkpt lat="44.2115514" lon="11.5671926"><ele>613.0</ele><time>2026-04-12T11:44:27.972Z</time></trkpt><trkpt lat="44.2115925" lon="11.5673202"><ele>613.0</ele><time>2026-04-12T11:44:28.973Z</time></trkpt><trkpt lat="44.2116255" lon="11.5674467"><ele>613.0</ele><time>2026-04-12T11:44:29.974Z</time></trkpt><trkpt lat="44.211643" lon="11.5675718"><ele>613.0</ele><time>2026-04-12T11:44:30.972Z</time></trkpt><trkpt lat="44.2116376" lon="11.5676992"><ele>613.0</ele><time>2026-04-12T11:44:31.973Z</time></trkpt><trkpt lat="44.2116276" lon="11.5678196"><ele>613.0</ele><time>2026-04-12T11:44:32.973Z</time></trkpt><trkpt lat="44.2116255" lon="11.5679371"><ele>613.0</ele><time>2026-04-12T11:44:33.972Z</time></trkpt><trkpt lat="44.2116342" lon="11.5680508"><ele>613.0</ele><time>2026-04-12T11:44:34.974Z</time></trkpt><trkpt lat="44.2116559" lon="11.5681557"><ele>613.0</ele><time>2026-04-12T11:44:35.973Z</time></trkpt><trkpt lat="44.2116828" lon="11.5682581"><ele>613.0</ele><time>2026-04-12T11:44:36.973Z</time></trkpt><trkpt lat="44.21171" lon="11.5683535"><ele>613.0</ele><time>2026-04-12T11:44:37.973Z</time></trkpt><trkpt lat="44.2117351" lon="11.5684508"><ele>613.0</ele><time>2026-04-12T11:44:38.974Z</time></trkpt><trkpt lat="44.2117561" lon="11.5685496"><ele>613.0</ele><time>2026-04-12T11:44:39.973Z</time></trkpt><trkpt lat="44.211777" lon="11.5686383"><ele>613.0</ele><time>2026-04-12T11:44:40.973Z</time></trkpt><trkpt lat="44.2118089" lon="11.5687258"><ele>613.0</ele><time>2026-04-12T11:44:41.973Z</time></trkpt><trkpt lat="44.2118505" lon="11.5688095"><ele>613.0</ele><time>2026-04-12T11:44:42.973Z</time></trkpt><trkpt lat="44.2118751" lon="11.5689022"><ele>611.1999999999999</ele><time>2026-04-12T11:44:43.972Z</time></trkpt><trkpt lat="44.2118876" lon="11.5690057"><ele>609.4</ele><time>2026-04-12T11:44:44.973Z</time></trkpt><trkpt lat="44.2118899" lon="11.5691201"><ele>607.5999999999999</ele><time>2026-04-12T11:44:45.972Z</time></trkpt><trkpt lat="44.2118723" lon="11.5692558"><ele>605.8</ele><time>2026-04-12T11:44:46.973Z</time></trkpt><trkpt lat="44.2118385" lon="11.569395"><ele>604.0</ele><time>2026-04-12T11:44:47.973Z</time></trkpt><trkpt lat="44.211799" lon="11.5695182"><ele>603.6666666666667</ele><time>2026-04-12T11:44:48.974Z</time></trkpt><trkpt lat="44.2117596" lon="11.5696176"><ele>603.3333333333334</ele><time>2026-04-12T11:44:49.973Z</time></trkpt><trkpt lat="44.2117228" lon="11.5697128"><ele>603.0</ele><time>2026-04-12T11:44:50.975Z</time></trkpt><trkpt lat="44.2117003" lon="11.5698031"><ele>602.6666666666666</ele><time>2026-04-12T11:44:51.974Z</time></trkpt><trkpt lat="44.2116843" lon="11.5698895"><ele>602.3333333333333</ele><time>2026-04-12T11:44:52.973Z</time></trkpt><trkpt lat="44.211679" lon="11.5700564"><ele>602.0</ele><time>2026-04-12T11:44:54.972Z</time></trkpt><trkpt lat="44.2117585" lon="11.570211"><ele>602.0</ele><time>2026-04-12T11:44:56.974Z</time></trkpt><trkpt lat="44.2118284" lon="11.5702949"><ele>602.0</ele><time>2026-04-12T11:44:57.972Z</time></trkpt><trkpt lat="44.2119282" lon="11.5703969"><ele>602.0</ele><time>2026-04-12T11:44:58.973Z</time></trkpt><trkpt lat="44.2120257" lon="11.5705103"><ele>602.0</ele><time>2026-04-12T11:44:59.974Z</time></trkpt><trkpt lat="44.2121234" lon="11.5706294"><ele>602.4</ele><time>2026-04-12T11:45:00.974Z</time></trkpt><trkpt lat="44.2122082" lon="11.5707461"><ele>602.8000000000001</ele><time>2026-04-12T11:45:01.973Z</time></trkpt><trkpt lat="44.2122808" lon="11.5708496"><ele>603.2</ele><time>2026-04-12T11:45:02.974Z</time></trkpt><trkpt lat="44.2123424" lon="11.5709393"><ele>603.6</ele><time>2026-04-12T11:45:03.972Z</time></trkpt><trkpt lat="44.2123918" lon="11.5710239"><ele>604.0</ele><time>2026-04-12T11:45:04.973Z</time></trkpt><trkpt lat="44.2124253" lon="11.5711002"><ele>605.0</ele><time>2026-04-12T11:45:05.973Z</time></trkpt><trkpt lat="44.2124319" lon="11.5712329"><ele>606.0</ele><time>2026-04-12T11:45:07.974Z</time></trkpt><trkpt lat="44.2123718" lon="11.5713842"><ele>607.0</ele><time>2026-04-12T11:45:09.973Z</time></trkpt><trkpt lat="44.2123365" lon="11.5714796"><ele>608.0</ele><time>2026-04-12T11:45:10.974Z</time></trkpt><trkpt lat="44.2122995" lon="11.5715892"><ele>609.0</ele><time>2026-04-12T11:45:11.973Z</time></trkpt><trkpt lat="44.2122606" lon="11.5716959"><ele>607.5</ele><time>2026-04-12T11:45:12.973Z</time></trkpt><trkpt lat="44.2122288" lon="11.5718046"><ele>606.0</ele><time>2026-04-12T11:45:13.973Z</time></trkpt><trkpt lat="44.2122126" lon="11.5719164"><ele>604.5</ele><time>2026-04-12T11:45:14.975Z</time></trkpt><trkpt lat="44.2122061" lon="11.5720216"><ele>603.0</ele><time>2026-04-12T11:45:15.973Z</time></trkpt><trkpt lat="44.2121962" lon="11.5721188"><ele>601.5</ele><time>2026-04-12T11:45:16.975Z</time></trkpt><trkpt lat="44.2121847" lon="11.5722231"><ele>600.0</ele><time>2026-04-12T11:45:17.974Z</time></trkpt><trkpt lat="44.2121661" lon="11.5723251"><ele>600.0</ele><time>2026-04-12T11:45:18.972Z</time></trkpt><trkpt lat="44.2121452" lon="11.572425"><ele>600.0</ele><time>2026-04-12T11:45:19.973Z</time></trkpt><trkpt lat="44.2121193" lon="11.5725191"><ele>600.0</ele><time>2026-04-12T11:45:20.974Z</time></trkpt><trkpt lat="44.2120838" lon="11.5725991"><ele>600.0</ele><time>2026-04-12T11:45:21.972Z</time></trkpt><trkpt lat="44.2120443" lon="11.5726697"><ele>600.0</ele><time>2026-04-12T11:45:22.973Z</time></trkpt><trkpt lat="44.2119769" lon="11.5727764"><ele>600.0</ele><time>2026-04-12T11:45:24.973Z</time></trkpt><trkpt lat="44.2119906" lon="11.5729155"><ele>599.1666666666666</ele><time>2026-04-12T11:45:26.972Z</time></trkpt><trkpt lat="44.2120173" lon="11.5729976"><ele>598.3333333333334</ele><time>2026-04-12T11:45:27.973Z</time></trkpt><trkpt lat="44.2120488" lon="11.5730859"><ele>597.5</ele><time>2026-04-12T11:45:28.974Z</time></trkpt><trkpt lat="44.2120785" lon="11.5731819"><ele>596.6666666666667</ele><time>2026-04-12T11:45:29.973Z</time></trkpt><trkpt lat="44.2121138" lon="11.5732822"><ele>595.8333333333334</ele><time>2026-04-12T11:45:30.972Z</time></trkpt><trkpt lat="44.21216" lon="11.5733911"><ele>595.0</ele><time>2026-04-12T11:45:31.973Z</time></trkpt><trkpt lat="44.2122152" lon="11.5734973"><ele>595.0</ele><time>2026-04-12T11:45:32.973Z</time></trkpt><trkpt lat="44.2122757" lon="11.5735894"><ele>595.0</ele><time>2026-04-12T11:45:33.974Z</time></trkpt><trkpt lat="44.2123408" lon="11.5736786"><ele>595.0</ele><time>2026-04-12T11:45:34.974Z</time></trkpt><trkpt lat="44.2124152" lon="11.5737642"><ele>595.0</ele><time>2026-04-12T11:45:35.973Z</time></trkpt><trkpt lat="44.2124976" lon="11.573867"><ele>595.0</ele><time>2026-04-12T11:45:36.973Z</time></trkpt><trkpt lat="44.2125811" lon="11.573981"><ele>599.4</ele><time>2026-04-12T11:45:37.972Z</time></trkpt><trkpt lat="44.2126612" lon="11.57409"><ele>603.8</ele><time>2026-04-12T11:45:38.975Z</time></trkpt><trkpt lat="44.2127393" lon="11.5741789"><ele>608.2</ele><time>2026-04-12T11:45:39.972Z</time></trkpt><trkpt lat="44.2128182" lon="11.5742501"><ele>612.6</ele><time>2026-04-12T11:45:40.972Z</time></trkpt><trkpt lat="44.2128978" lon="11.5743163"><ele>617.0</ele><time>2026-04-12T11:45:41.972Z</time></trkpt><trkpt lat="44.2129796" lon="11.5743924"><ele>617.0</ele><time>2026-04-12T11:45:42.974Z</time></trkpt><trkpt lat="44.2130595" lon="11.5744845"><ele>617.0</ele><time>2026-04-12T11:45:43.973Z</time></trkpt><trkpt lat="44.2131363" lon="11.5745907"><ele>617.0</ele><time>2026-04-12T11:45:44.974Z</time></trkpt><trkpt lat="44.2132145" lon="11.5747037"><ele>617.0</ele><time>2026-04-12T11:45:45.974Z</time></trkpt><trkpt lat="44.2132978" lon="11.5748212"><ele>617.0</ele><time>2026-04-12T11:45:46.973Z</time></trkpt><trkpt lat="44.2133857" lon="11.5749543"><ele>621.5</ele><time>2026-04-12T11:45:47.972Z</time></trkpt><trkpt lat="44.2134845" lon="11.5751003"><ele>626.0</ele><time>2026-04-12T11:45:48.973Z</time></trkpt><trkpt lat="44.2135779" lon="11.5752355"><ele>630.5</ele><time>2026-04-12T11:45:49.973Z</time></trkpt><trkpt lat="44.213652" lon="11.5753418"><ele>635.0</ele><time>2026-04-12T11:45:50.974Z</time></trkpt><trkpt lat="44.2137166" lon="11.5754145"><ele>635.5714285714286</ele><time>2026-04-12T11:45:51.972Z</time></trkpt><trkpt lat="44.2137682" lon="11.5754831"><ele>636.1428571428571</ele><time>2026-04-12T11:45:52.971Z</time></trkpt><trkpt lat="44.2138042" lon="11.5755656"><ele>636.7142857142858</ele><time>2026-04-12T11:45:53.973Z</time></trkpt><trkpt lat="44.2138236" lon="11.5756627"><ele>637.2857142857142</ele><time>2026-04-12T11:45:54.973Z</time></trkpt><trkpt lat="44.2138335" lon="11.5757694"><ele>637.8571428571429</ele><time>2026-04-12T11:45:55.973Z</time></trkpt><trkpt lat="44.2138428" lon="11.5758765"><ele>638.4285714285714</ele><time>2026-04-12T11:45:56.973Z</time></trkpt><trkpt lat="44.2138575" lon="11.5759743"><ele>639.0</ele><time>2026-04-12T11:45:57.972Z</time></trkpt><trkpt lat="44.2138832" lon="11.5760649"><ele>639.0</ele><time>2026-04-12T11:45:58.973Z</time></trkpt><trkpt lat="44.2139155" lon="11.5761525"><ele>639.0</ele><time>2026-04-12T11:45:59.974Z</time></trkpt><trkpt lat="44.2139531" lon="11.5762402"><ele>639.0</ele><time>2026-04-12T11:46:00.973Z</time></trkpt><trkpt lat="44.2139953" lon="11.5763301"><ele>639.0</ele><time>2026-04-12T11:46:01.972Z</time></trkpt><trkpt lat="44.2140484" lon="11.5764175"><ele>639.0</ele><time>2026-04-12T11:46:02.975Z</time></trkpt><trkpt lat="44.2141116" lon="11.5765003"><ele>639.0</ele><time>2026-04-12T11:46:03.973Z</time></trkpt><trkpt lat="44.2141919" lon="11.5765699"><ele>637.6666666666666</ele><time>2026-04-12T11:46:04.972Z</time></trkpt><trkpt lat="44.2142768" lon="11.5766294"><ele>636.3333333333334</ele><time>2026-04-12T11:46:05.974Z</time></trkpt><trkpt lat="44.2143602" lon="11.5766903"><ele>635.0</ele><time>2026-04-12T11:46:06.974Z</time></trkpt><trkpt lat="44.2144398" lon="11.5767474"><ele>633.6666666666667</ele><time>2026-04-12T11:46:07.974Z</time></trkpt><trkpt lat="44.2145101" lon="11.5768046"><ele>632.3333333333334</ele><time>2026-04-12T11:46:08.973Z</time></trkpt><trkpt lat="44.2145763" lon="11.5768632"><ele>631.0</ele><time>2026-04-12T11:46:09.973Z</time></trkpt><trkpt lat="44.2146397" lon="11.5769306"><ele>631.0</ele><time>2026-04-12T11:46:10.973Z</time></trkpt><trkpt lat="44.2147012" lon="11.5770049"><ele>631.0</ele><time>2026-04-12T11:46:11.974Z</time></trkpt><trkpt lat="44.2147612" lon="11.5770869"><ele>631.0</ele><time>2026-04-12T11:46:12.974Z</time></trkpt><trkpt lat="44.2148239" lon="11.5771757"><ele>631.0</ele><time>2026-04-12T11:46:13.972Z</time></trkpt><trkpt lat="44.2148885" lon="11.5772679"><ele>631.0</ele><time>2026-04-12T11:46:14.974Z</time></trkpt><trkpt lat="44.2149626" lon="11.577355"><ele>631.0</ele><time>2026-04-12T11:46:15.972Z</time></trkpt><trkpt lat="44.2150518" lon="11.5774292"><ele>631.8</ele><time>2026-04-12T11:46:16.974Z</time></trkpt><trkpt lat="44.2151463" lon="11.5774865"><ele>632.6</ele><time>2026-04-12T11:46:17.972Z</time></trkpt><trkpt lat="44.2152396" lon="11.5775357"><ele>633.4</ele><time>2026-04-12T11:46:18.973Z</time></trkpt><trkpt lat="44.2153284" lon="11.5775883"><ele>634.2</ele><time>2026-04-12T11:46:19.973Z</time></trkpt><trkpt lat="44.2154016" lon="11.5776496"><ele>635.0</ele><time>2026-04-12T11:46:20.973Z</time></trkpt><trkpt lat="44.2154634" lon="11.5777135"><ele>635.0</ele><time>2026-04-12T11:46:21.974Z</time></trkpt><trkpt lat="44.2155244" lon="11.5777727"><ele>635.0</ele><time>2026-04-12T11:46:22.973Z</time></trkpt><trkpt lat="44.2155945" lon="11.577816"><ele>635.0</ele><time>2026-04-12T11:46:23.973Z</time></trkpt><trkpt lat="44.2156711" lon="11.5778451"><ele>635.0</ele><time>2026-04-12T11:46:24.973Z</time></trkpt><trkpt lat="44.215746" lon="11.5778618"><ele>635.0</ele><time>2026-04-12T11:46:25.972Z</time></trkpt><trkpt lat="44.2158149" lon="11.5778557"><ele>635.0</ele><time>2026-04-12T11:46:26.974Z</time></trkpt><trkpt lat="44.2158886" lon="11.5778231"><ele>635.0</ele><time>2026-04-12T11:46:27.973Z</time></trkpt><trkpt lat="44.2159581" lon="11.5777631"><ele>635.0</ele><time>2026-04-12T11:46:28.974Z</time></trkpt><trkpt lat="44.2160191" lon="11.5777134"><ele>635.0</ele><time>2026-04-12T11:46:29.973Z</time></trkpt><trkpt lat="44.2161274" lon="11.5776873"><ele>635.0</ele><time>2026-04-12T11:46:31.973Z</time></trkpt><trkpt lat="44.2162161" lon="11.5778176"><ele>635.0</ele><time>2026-04-12T11:46:33.974Z</time></trkpt><trkpt lat="44.2162546" lon="11.5779271"><ele>637.5</ele><time>2026-04-12T11:46:34.972Z</time></trkpt><trkpt lat="44.2162918" lon="11.5780478"><ele>640.0</ele><time>2026-04-12T11:46:35.973Z</time></trkpt><trkpt lat="44.2163388" lon="11.5781585"><ele>642.5</ele><time>2026-04-12T11:46:36.973Z</time></trkpt><trkpt lat="44.2163969" lon="11.5782518"><ele>645.0</ele><time>2026-04-12T11:46:37.973Z</time></trkpt><trkpt lat="44.2164602" lon="11.5783347"><ele>647.5</ele><time>2026-04-12T11:46:38.973Z</time></trkpt><trkpt lat="44.2165347" lon="11.5783989"><ele>650.0</ele><time>2026-04-12T11:46:39.972Z</time></trkpt><trkpt lat="44.2166253" lon="11.5784456"><ele>650.0</ele><time>2026-04-12T11:46:40.972Z</time></trkpt><trkpt lat="44.2167289" lon="11.578482"><ele>650.0</ele><time>2026-04-12T11:46:41.974Z</time></trkpt><trkpt lat="44.2168342" lon="11.5785074"><ele>650.0</ele><time>2026-04-12T11:46:42.973Z</time></trkpt><trkpt lat="44.2169342" lon="11.5785156"><ele>650.0</ele><time>2026-04-12T11:46:43.972Z</time></trkpt><trkpt lat="44.2170344" lon="11.5785148"><ele>650.0</ele><time>2026-04-12T11:46:44.975Z</time></trkpt><trkpt lat="44.21714" lon="11.578509"><ele>650.0</ele><time>2026-04-12T11:46:45.974Z</time></trkpt><trkpt lat="44.2172375" lon="11.5785123"><ele>650.0</ele><time>2026-04-12T11:46:46.973Z</time></trkpt><trkpt lat="44.2173249" lon="11.5784963"><ele>650.0</ele><time>2026-04-12T11:46:47.975Z</time></trkpt><trkpt lat="44.217409" lon="11.578461"><ele>650.0</ele><time>2026-04-12T11:46:48.972Z</time></trkpt><trkpt lat="44.2174832" lon="11.5784094"><ele>650.0</ele><time>2026-04-12T11:46:49.972Z</time></trkpt><trkpt lat="44.2175563" lon="11.5783403"><ele>650.0</ele><time>2026-04-12T11:46:50.974Z</time></trkpt><trkpt lat="44.2176263" lon="11.5782463"><ele>651.8</ele><time>2026-04-12T11:46:51.974Z</time></trkpt><trkpt lat="44.217688" lon="11.5781507"><ele>653.6</ele><time>2026-04-12T11:46:52.972Z</time></trkpt><trkpt lat="44.2177461" lon="11.578078"><ele>655.4000000000001</ele><time>2026-04-12T11:46:53.974Z</time></trkpt><trkpt lat="44.2178428" lon="11.5780126"><ele>657.2</ele><time>2026-04-12T11:46:55.973Z</time></trkpt><trkpt lat="44.2179375" lon="11.5780412"><ele>659.0</ele><time>2026-04-12T11:46:57.972Z</time></trkpt><trkpt lat="44.2180335" lon="11.5781573"><ele>659.0</ele><time>2026-04-12T11:46:59.974Z</time></trkpt><trkpt lat="44.2180832" lon="11.5782485"><ele>659.0</ele><time>2026-04-12T11:47:00.976Z</time></trkpt><trkpt lat="44.2181387" lon="11.578333"><ele>659.0</ele><time>2026-04-12T11:47:01.973Z</time></trkpt><trkpt lat="44.2181965" lon="11.5784046"><ele>659.0</ele><time>2026-04-12T11:47:02.974Z</time></trkpt><trkpt lat="44.218256" lon="11.5784731"><ele>659.0</ele><time>2026-04-12T11:47:03.974Z</time></trkpt><trkpt lat="44.2183177" lon="11.5785353"><ele>659.0</ele><time>2026-04-12T11:47:04.973Z</time></trkpt><trkpt lat="44.2183779" lon="11.5785897"><ele>659.3333333333333</ele><time>2026-04-12T11:47:05.974Z</time></trkpt><trkpt lat="44.2184369" lon="11.5786453"><ele>659.6666666666666</ele><time>2026-04-12T11:47:06.973Z</time></trkpt><trkpt lat="44.2184982" lon="11.5786983"><ele>660.0</ele><time>2026-04-12T11:47:07.973Z</time></trkpt><trkpt lat="44.2185547" lon="11.5787602"><ele>660.3333333333334</ele><time>2026-04-12T11:47:08.974Z</time></trkpt><trkpt lat="44.2186086" lon="11.5788288"><ele>660.6666666666667</ele><time>2026-04-12T11:47:09.973Z</time></trkpt><trkpt lat="44.2186641" lon="11.5789065"><ele>661.0</ele><time>2026-04-12T11:47:10.974Z</time></trkpt><trkpt lat="44.2187232" lon="11.5789973"><ele>659.8</ele><time>2026-04-12T11:47:11.973Z</time></trkpt><trkpt lat="44.2187911" lon="11.5790926"><ele>658.5999999999999</ele><time>2026-04-12T11:47:12.974Z</time></trkpt><trkpt lat="44.2188802" lon="11.5791927"><ele>657.4</ele><time>2026-04-12T11:47:13.972Z</time></trkpt><trkpt lat="44.2189662" lon="11.5792973"><ele>656.2</ele><time>2026-04-12T11:47:14.973Z</time></trkpt><trkpt lat="44.2190462" lon="11.5794029"><ele>655.0</ele><time>2026-04-12T11:47:15.974Z</time></trkpt><trkpt lat="44.2191183" lon="11.5794988"><ele>658.8333333333334</ele><time>2026-04-12T11:47:16.972Z</time></trkpt><trkpt lat="44.2191843" lon="11.5795945"><ele>662.6666666666667</ele><time>2026-04-12T11:47:17.974Z</time></trkpt><trkpt lat="44.219245" lon="11.5796975"><ele>666.5</ele><time>2026-04-12T11:47:18.975Z</time></trkpt><trkpt lat="44.2193002" lon="11.5797914"><ele>670.3333333333334</ele><time>2026-04-12T11:47:19.974Z</time></trkpt><trkpt lat="44.2193445" lon="11.5798858"><ele>674.1666666666666</ele><time>2026-04-12T11:47:20.973Z</time></trkpt><trkpt lat="44.2193907" lon="11.5799733"><ele>678.0</ele><time>2026-04-12T11:47:21.972Z</time></trkpt><trkpt lat="44.2194459" lon="11.5800612"><ele>678.0</ele><time>2026-04-12T11:47:22.973Z</time></trkpt><trkpt lat="44.2194976" lon="11.5801542"><ele>678.0</ele><time>2026-04-12T11:47:23.973Z</time></trkpt><trkpt lat="44.2195536" lon="11.5802397"><ele>678.0</ele><time>2026-04-12T11:47:24.974Z</time></trkpt><trkpt lat="44.2196085" lon="11.5803294"><ele>678.0</ele><time>2026-04-12T11:47:25.974Z</time></trkpt><trkpt lat="44.2196615" lon="11.5804172"><ele>678.0</ele><time>2026-04-12T11:47:26.973Z</time></trkpt><trkpt lat="44.2197006" lon="11.5805143"><ele>678.0</ele><time>2026-04-12T11:47:27.973Z</time></trkpt><trkpt lat="44.2197352" lon="11.5806119"><ele>676.3333333333334</ele><time>2026-04-12T11:47:28.973Z</time></trkpt><trkpt lat="44.2197713" lon="11.5806969"><ele>674.6666666666666</ele><time>2026-04-12T11:47:29.974Z</time></trkpt><trkpt lat="44.2198038" lon="11.5807816"><ele>673.0</ele><time>2026-04-12T11:47:30.973Z</time></trkpt><trkpt lat="44.2198392" lon="11.5808554"><ele>671.3333333333333</ele><time>2026-04-12T11:47:31.973Z</time></trkpt><trkpt lat="44.219881" lon="11.5809702"><ele>669.6666666666666</ele><time>2026-04-12T11:47:33.974Z</time></trkpt><trkpt lat="44.2199084" lon="11.5810522"><ele>668.0</ele><time>2026-04-12T11:47:35.974Z</time></trkpt><trkpt lat="44.219984" lon="11.5811379"><ele>664.4</ele><time>2026-04-12T11:48:20.973Z</time></trkpt><trkpt lat="44.2200938" lon="11.5812222"><ele>660.8</ele><time>2026-04-12T11:48:22.975Z</time></trkpt><trkpt lat="44.2201679" lon="11.5812777"><ele>657.2</ele><time>2026-04-12T11:48:23.977Z</time></trkpt><trkpt lat="44.2202462" lon="11.581329"><ele>653.6</ele><time>2026-04-12T11:48:24.974Z</time></trkpt><trkpt lat="44.2203257" lon="11.5813816"><ele>650.0</ele><time>2026-04-12T11:48:25.975Z</time></trkpt><trkpt lat="44.220397" lon="11.5814438"><ele>650.0</ele><time>2026-04-12T11:48:26.974Z</time></trkpt><trkpt lat="44.2204618" lon="11.5815303"><ele>650.0</ele><time>2026-04-12T11:48:27.974Z</time></trkpt><trkpt lat="44.2205235" lon="11.5816397"><ele>650.0</ele><time>2026-04-12T11:48:28.973Z</time></trkpt><trkpt lat="44.2205921" lon="11.5817425"><ele>650.0</ele><time>2026-04-12T11:48:29.976Z</time></trkpt><trkpt lat="44.2206709" lon="11.5818162"><ele>650.0</ele><time>2026-04-12T11:48:30.974Z</time></trkpt><trkpt lat="44.2207544" lon="11.5818678"><ele>650.4</ele><time>2026-04-12T11:48:31.973Z</time></trkpt><trkpt lat="44.220848" lon="11.5819018"><ele>650.8</ele><time>2026-04-12T11:48:32.975Z</time></trkpt><trkpt lat="44.2209419" lon="11.5819273"><ele>651.2</ele><time>2026-04-12T11:48:33.974Z</time></trkpt><trkpt lat="44.2210388" lon="11.5819671"><ele>651.6</ele><time>2026-04-12T11:48:34.975Z</time></trkpt><trkpt lat="44.2211356" lon="11.5820343"><ele>652.0</ele><time>2026-04-12T11:48:35.974Z</time></trkpt><trkpt lat="44.2212271" lon="11.5821241"><ele>652.0</ele><time>2026-04-12T11:48:36.973Z</time></trkpt><trkpt lat="44.2213158" lon="11.5822209"><ele>652.0</ele><time>2026-04-12T11:48:37.974Z</time></trkpt><trkpt lat="44.2213942" lon="11.5823058"><ele>652.0</ele><time>2026-04-12T11:48:38.975Z</time></trkpt><trkpt lat="44.2214557" lon="11.5823672"><ele>652.0</ele><time>2026-04-12T11:48:39.974Z</time></trkpt><trkpt lat="44.2215176" lon="11.5824181"><ele>652.0</ele><time>2026-04-12T11:48:40.976Z</time></trkpt><trkpt lat="44.2215836" lon="11.5824697"><ele>652.0</ele><time>2026-04-12T11:48:41.973Z</time></trkpt><trkpt lat="44.221662" lon="11.5825253"><ele>652.2</ele><time>2026-04-12T11:48:42.973Z</time></trkpt><trkpt lat="44.2217533" lon="11.5825836"><ele>652.4000000000001</ele><time>2026-04-12T11:48:43.973Z</time></trkpt><trkpt lat="44.2218465" lon="11.5826546"><ele>652.5999999999999</ele><time>2026-04-12T11:48:44.975Z</time></trkpt><trkpt lat="44.2219327" lon="11.5827404"><ele>652.8</ele><time>2026-04-12T11:48:45.974Z</time></trkpt><trkpt lat="44.2220122" lon="11.5828352"><ele>653.0</ele><time>2026-04-12T11:48:46.974Z</time></trkpt><trkpt lat="44.2220814" lon="11.5829297"><ele>653.0</ele><time>2026-04-12T11:48:47.977Z</time></trkpt><trkpt lat="44.2221395" lon="11.5830115"><ele>653.0</ele><time>2026-04-12T11:48:48.975Z</time></trkpt><trkpt lat="44.2221952" lon="11.5830836"><ele>653.0</ele><time>2026-04-12T11:48:49.976Z</time></trkpt><trkpt lat="44.2222547" lon="11.5831587"><ele>653.0</ele><time>2026-04-12T11:48:50.977Z</time></trkpt><trkpt lat="44.2223261" lon="11.5832402"><ele>653.0</ele><time>2026-04-12T11:48:51.975Z</time></trkpt><trkpt lat="44.2224086" lon="11.5833297"><ele>653.0</ele><time>2026-04-12T11:48:52.974Z</time></trkpt><trkpt lat="44.2224991" lon="11.5834287"><ele>651.5</ele><time>2026-04-12T11:48:53.973Z</time></trkpt><trkpt lat="44.2225968" lon="11.5835324"><ele>650.0</ele><time>2026-04-12T11:48:54.974Z</time></trkpt><trkpt lat="44.2226961" lon="11.5836356"><ele>648.5</ele><time>2026-04-12T11:48:55.975Z</time></trkpt><trkpt lat="44.2227978" lon="11.5837326"><ele>647.0</ele><time>2026-04-12T11:48:56.974Z</time></trkpt><trkpt lat="44.222901" lon="11.5838126"><ele>647.0</ele><time>2026-04-12T11:48:57.973Z</time></trkpt><trkpt lat="44.223009" lon="11.5838731"><ele>647.0</ele><time>2026-04-12T11:48:58.974Z</time></trkpt><trkpt lat="44.22312" lon="11.5839234"><ele>647.0</ele><time>2026-04-12T11:48:59.975Z</time></trkpt><trkpt lat="44.2232312" lon="11.5839683"><ele>647.0</ele><time>2026-04-12T11:49:00.974Z</time></trkpt><trkpt lat="44.2233423" lon="11.5840124"><ele>648.25</ele><time>2026-04-12T11:49:01.973Z</time></trkpt><trkpt lat="44.2234523" lon="11.5840557"><ele>649.5</ele><time>2026-04-12T11:49:02.974Z</time></trkpt><trkpt lat="44.2235619" lon="11.5840976"><ele>650.75</ele><time>2026-04-12T11:49:03.973Z</time></trkpt><trkpt lat="44.2236733" lon="11.5841274"><ele>652.0</ele><time>2026-04-12T11:49:04.974Z</time></trkpt><trkpt lat="44.2237897" lon="11.5841391"><ele>652.0</ele><time>2026-04-12T11:49:05.974Z</time></trkpt><trkpt lat="44.2239091" lon="11.5841486"><ele>652.0</ele><time>2026-04-12T11:49:06.974Z</time></trkpt><trkpt lat="44.2240322" lon="11.5841667"><ele>652.0</ele><time>2026-04-12T11:49:07.974Z</time></trkpt><trkpt lat="44.2241605" lon="11.5841921"><ele>652.0</ele><time>2026-04-12T11:49:08.975Z</time></trkpt><trkpt lat="44.2242897" lon="11.5842247"><ele>649.75</ele><time>2026-04-12T11:49:09.973Z</time></trkpt><trkpt lat="44.2244133" lon="11.5842666"><ele>647.5</ele><time>2026-04-12T11:49:10.973Z</time></trkpt><trkpt lat="44.2245274" lon="11.5843244"><ele>645.25</ele><time>2026-04-12T11:49:11.973Z</time></trkpt><trkpt lat="44.2246348" lon="11.5844105"><ele>643.0</ele><time>2026-04-12T11:49:12.974Z</time></trkpt><trkpt lat="44.2247431" lon="11.5845243"><ele>639.75</ele><time>2026-04-12T11:49:13.973Z</time></trkpt><trkpt lat="44.2248566" lon="11.5846415"><ele>636.5</ele><time>2026-04-12T11:49:14.973Z</time></trkpt><trkpt lat="44.2249817" lon="11.5847419"><ele>633.25</ele><time>2026-04-12T11:49:15.973Z</time></trkpt><trkpt lat="44.225105" lon="11.5848302"><ele>630.0</ele><time>2026-04-12T11:49:16.973Z</time></trkpt><trkpt lat="44.2252231" lon="11.5849149"><ele>630.0</ele><time>2026-04-12T11:49:17.976Z</time></trkpt><trkpt lat="44.2253378" lon="11.5850026"><ele>630.0</ele><time>2026-04-12T11:49:18.973Z</time></trkpt><trkpt lat="44.2254461" lon="11.5850927"><ele>630.0</ele><time>2026-04-12T11:49:19.974Z</time></trkpt><trkpt lat="44.2255551" lon="11.5851791"><ele>630.0</ele><time>2026-04-12T11:49:20.974Z</time></trkpt><trkpt lat="44.2256763" lon="11.5852516"><ele>627.5</ele><time>2026-04-12T11:49:21.974Z</time></trkpt><trkpt lat="44.2258094" lon="11.5853107"><ele>625.0</ele><time>2026-04-12T11:49:22.974Z</time></trkpt><trkpt lat="44.2259463" lon="11.5853608"><ele>622.5</ele><time>2026-04-12T11:49:23.974Z</time></trkpt><trkpt lat="44.2260713" lon="11.5854068"><ele>620.0</ele><time>2026-04-12T11:49:24.973Z</time></trkpt><trkpt lat="44.2261826" lon="11.5854575"><ele>616.0</ele><time>2026-04-12T11:49:25.974Z</time></trkpt><trkpt lat="44.226287" lon="11.5855237"><ele>612.0</ele><time>2026-04-12T11:49:26.973Z</time></trkpt><trkpt lat="44.2263807" lon="11.5856188"><ele>608.0</ele><time>2026-04-12T11:49:27.974Z</time></trkpt><trkpt lat="44.226471" lon="11.5857375"><ele>604.0</ele><time>2026-04-12T11:49:28.974Z</time></trkpt><trkpt lat="44.2265616" lon="11.5858652"><ele>603.8</ele><time>2026-04-12T11:49:29.975Z</time></trkpt><trkpt lat="44.2266472" lon="11.5859953"><ele>603.5999999999999</ele><time>2026-04-12T11:49:30.973Z</time></trkpt><trkpt lat="44.2267232" lon="11.5861202"><ele>603.4</ele><time>2026-04-12T11:49:31.977Z</time></trkpt><trkpt lat="44.2267916" lon="11.5862211"><ele>603.1999999999999</ele><time>2026-04-12T11:49:32.974Z</time></trkpt><trkpt lat="44.2268683" lon="11.5862969"><ele>603.0</ele><time>2026-04-12T11:49:33.973Z</time></trkpt><trkpt lat="44.2269611" lon="11.5863622"><ele>599.6</ele><time>2026-04-12T11:49:34.974Z</time></trkpt><trkpt lat="44.2270484" lon="11.5864326"><ele>596.1999999999999</ele><time>2026-04-12T11:49:35.973Z</time></trkpt><trkpt lat="44.2271269" lon="11.5865285"><ele>592.8</ele><time>2026-04-12T11:49:36.973Z</time></trkpt><trkpt lat="44.2271966" lon="11.5866597"><ele>589.4</ele><time>2026-04-12T11:49:37.973Z</time></trkpt><trkpt lat="44.2272596" lon="11.5868112"><ele>586.0</ele><time>2026-04-12T11:49:38.975Z</time></trkpt><trkpt lat="44.2273154" lon="11.5869606"><ele>586.6666666666667</ele><time>2026-04-12T11:49:39.973Z</time></trkpt><trkpt lat="44.2273681" lon="11.5870907"><ele>587.3333333333334</ele><time>2026-04-12T11:49:40.974Z</time></trkpt><trkpt lat="44.2274202" lon="11.5871972"><ele>588.0</ele><time>2026-04-12T11:49:41.974Z</time></trkpt><trkpt lat="44.2274771" lon="11.5872771"><ele>588.6666666666666</ele><time>2026-04-12T11:49:42.975Z</time></trkpt><trkpt lat="44.2275424" lon="11.5873398"><ele>589.3333333333333</ele><time>2026-04-12T11:49:43.974Z</time></trkpt><trkpt lat="44.2276191" lon="11.5874025"><ele>590.0</ele><time>2026-04-12T11:49:44.974Z</time></trkpt><trkpt lat="44.227709" lon="11.5874686"><ele>590.0</ele><time>2026-04-12T11:49:45.974Z</time></trkpt><trkpt lat="44.2278093" lon="11.5875409"><ele>590.0</ele><time>2026-04-12T11:49:46.974Z</time></trkpt><trkpt lat="44.2279104" lon="11.5876146"><ele>590.0</ele><time>2026-04-12T11:49:47.973Z</time></trkpt><trkpt lat="44.2280013" lon="11.5877026"><ele>590.0</ele><time>2026-04-12T11:49:48.976Z</time></trkpt><trkpt lat="44.2280829" lon="11.5877889"><ele>590.0</ele><time>2026-04-12T11:49:49.973Z</time></trkpt><trkpt lat="44.2281637" lon="11.5878682"><ele>588.75</ele><time>2026-04-12T11:49:50.975Z</time></trkpt><trkpt lat="44.2282548" lon="11.5879457"><ele>587.5</ele><time>2026-04-12T11:49:51.973Z</time></trkpt><trkpt lat="44.2283586" lon="11.5880201"><ele>586.25</ele><time>2026-04-12T11:49:52.975Z</time></trkpt><trkpt lat="44.2284621" lon="11.5880903"><ele>585.0</ele><time>2026-04-12T11:49:53.973Z</time></trkpt><trkpt lat="44.2285645" lon="11.5881523"><ele>585.0</ele><time>2026-04-12T11:49:54.974Z</time></trkpt><trkpt lat="44.2286806" lon="11.5881936"><ele>585.0</ele><time>2026-04-12T11:49:55.974Z</time></trkpt><trkpt lat="44.2287985" lon="11.5882073"><ele>585.0</ele><time>2026-04-12T11:49:56.976Z</time></trkpt><trkpt lat="44.2289149" lon="11.588206"><ele>585.0</ele><time>2026-04-12T11:49:57.975Z</time></trkpt><trkpt lat="44.2290228" lon="11.5882004"><ele>584.6666666666666</ele><time>2026-04-12T11:49:58.974Z</time></trkpt><trkpt lat="44.2291158" lon="11.5881805"><ele>584.3333333333334</ele><time>2026-04-12T11:49:59.973Z</time></trkpt><trkpt lat="44.2291929" lon="11.5881408"><ele>584.0</ele><time>2026-04-12T11:50:00.974Z</time></trkpt><trkpt lat="44.2292556" lon="11.5880681"><ele>583.6666666666667</ele><time>2026-04-12T11:50:01.975Z</time></trkpt><trkpt lat="44.2292998" lon="11.5879724"><ele>583.3333333333334</ele><time>2026-04-12T11:50:02.974Z</time></trkpt><trkpt lat="44.2293366" lon="11.5878613"><ele>583.0</ele><time>2026-04-12T11:50:03.974Z</time></trkpt><trkpt lat="44.2293773" lon="11.5877612"><ele>581.8</ele><time>2026-04-12T11:50:04.973Z</time></trkpt><trkpt lat="44.2294334" lon="11.5876782"><ele>580.5999999999999</ele><time>2026-04-12T11:50:05.974Z</time></trkpt><trkpt lat="44.2295148" lon="11.5876235"><ele>579.4000000000001</ele><time>2026-04-12T11:50:06.974Z</time></trkpt><trkpt lat="44.2296175" lon="11.587585"><ele>578.2</ele><time>2026-04-12T11:50:07.975Z</time></trkpt><trkpt lat="44.229722" lon="11.5875362"><ele>577.0</ele><time>2026-04-12T11:50:08.974Z</time></trkpt><trkpt lat="44.2298369" lon="11.5875156"><ele>581.0</ele><time>2026-04-12T11:50:09.974Z</time></trkpt><trkpt lat="44.2299559" lon="11.5875378"><ele>585.0</ele><time>2026-04-12T11:50:10.973Z</time></trkpt><trkpt lat="44.2300733" lon="11.5875773"><ele>589.0</ele><time>2026-04-12T11:50:11.973Z</time></trkpt><trkpt lat="44.2302044" lon="11.587606"><ele>593.0</ele><time>2026-04-12T11:50:12.974Z</time></trkpt><trkpt lat="44.2303509" lon="11.587601"><ele>593.0</ele><time>2026-04-12T11:50:13.973Z</time></trkpt><trkpt lat="44.230495" lon="11.5875767"><ele>593.0</ele><time>2026-04-12T11:50:14.975Z</time></trkpt><trkpt lat="44.2306162" lon="11.5875404"><ele>593.0</ele><time>2026-04-12T11:50:15.974Z</time></trkpt><trkpt lat="44.2307045" lon="11.587519"><ele>593.0</ele><time>2026-04-12T11:50:16.974Z</time></trkpt><trkpt lat="44.2307696" lon="11.5875185"><ele>593.0</ele><time>2026-04-12T11:50:17.973Z</time></trkpt><trkpt lat="44.2308353" lon="11.5876206"><ele>593.1999999999999</ele><time>2026-04-12T11:50:19.974Z</time></trkpt><trkpt lat="44.2308429" lon="11.5877137"><ele>593.4</ele><time>2026-04-12T11:50:20.974Z</time></trkpt><trkpt lat="44.2308257" lon="11.5878323"><ele>593.5999999999999</ele><time>2026-04-12T11:50:21.974Z</time></trkpt><trkpt lat="44.2307969" lon="11.5879704"><ele>593.8</ele><time>2026-04-12T11:50:22.973Z</time></trkpt><trkpt lat="44.2307637" lon="11.5881225"><ele>594.0</ele><time>2026-04-12T11:50:23.973Z</time></trkpt><trkpt lat="44.2307315" lon="11.5882876"><ele>594.0</ele><time>2026-04-12T11:50:24.972Z</time></trkpt><trkpt lat="44.2307099" lon="11.5884541"><ele>594.0</ele><time>2026-04-12T11:50:25.974Z</time></trkpt><trkpt lat="44.2307004" lon="11.5886164"><ele>594.0</ele><time>2026-04-12T11:50:26.975Z</time></trkpt><trkpt lat="44.2307194" lon="11.5887848"><ele>594.0</ele><time>2026-04-12T11:50:27.975Z</time></trkpt><trkpt lat="44.2307729" lon="11.5889534"><ele>594.0</ele><time>2026-04-12T11:50:28.974Z</time></trkpt><trkpt lat="44.2308424" lon="11.5891217"><ele>594.0</ele><time>2026-04-12T11:50:29.974Z</time></trkpt><trkpt lat="44.2308961" lon="11.5892875"><ele>594.0</ele><time>2026-04-12T11:50:30.974Z</time></trkpt><trkpt lat="44.2309424" lon="11.5894427"><ele>594.0</ele><time>2026-04-12T11:50:31.974Z</time></trkpt><trkpt lat="44.2310054" lon="11.5895829"><ele>590.75</ele><time>2026-04-12T11:50:32.974Z</time></trkpt><trkpt lat="44.231096" lon="11.5897122"><ele>587.5</ele><time>2026-04-12T11:50:33.974Z</time></trkpt><trkpt lat="44.2312057" lon="11.5898389"><ele>584.25</ele><time>2026-04-12T11:50:34.974Z</time></trkpt><trkpt lat="44.2313244" lon="11.5899751"><ele>581.0</ele><time>2026-04-12T11:50:35.973Z</time></trkpt><trkpt lat="44.2314418" lon="11.5901243"><ele>582.3333333333333</ele><time>2026-04-12T11:50:36.973Z</time></trkpt><trkpt lat="44.2315541" lon="11.5902811"><ele>583.6666666666666</ele><time>2026-04-12T11:50:37.973Z</time></trkpt><trkpt lat="44.2316599" lon="11.5904357"><ele>585.0</ele><time>2026-04-12T11:50:38.974Z</time></trkpt><trkpt lat="44.2317532" lon="11.59058"><ele>585.0</ele><time>2026-04-12T11:50:39.974Z</time></trkpt><trkpt lat="44.2318258" lon="11.5907198"><ele>585.0</ele><time>2026-04-12T11:50:40.975Z</time></trkpt><trkpt lat="44.2318723" lon="11.5908673"><ele>585.0</ele><time>2026-04-12T11:50:41.974Z</time></trkpt><trkpt lat="44.2319133" lon="11.5910242"><ele>585.0</ele><time>2026-04-12T11:50:42.974Z</time></trkpt><trkpt lat="44.231961" lon="11.5911717"><ele>582.8</ele><time>2026-04-12T11:50:43.974Z</time></trkpt><trkpt lat="44.2320068" lon="11.5913083"><ele>580.6</ele><time>2026-04-12T11:50:44.974Z</time></trkpt><trkpt lat="44.2320336" lon="11.5914465"><ele>578.4</ele><time>2026-04-12T11:50:45.975Z</time></trkpt><trkpt lat="44.2320486" lon="11.5915938"><ele>576.2</ele><time>2026-04-12T11:50:46.973Z</time></trkpt><trkpt lat="44.2320704" lon="11.5917444"><ele>574.0</ele><time>2026-04-12T11:50:47.973Z</time></trkpt><trkpt lat="44.232102" lon="11.5918745"><ele>574.0</ele><time>2026-04-12T11:50:48.973Z</time></trkpt><trkpt lat="44.2321438" lon="11.5919638"><ele>574.0</ele><time>2026-04-12T11:50:49.973Z</time></trkpt><trkpt lat="44.2321934" lon="11.5920182"><ele>574.0</ele><time>2026-04-12T11:50:50.974Z</time></trkpt><trkpt lat="44.2323163" lon="11.5920028"><ele>574.0</ele><time>2026-04-12T11:50:52.973Z</time></trkpt><trkpt lat="44.2323993" lon="11.5919558"><ele>574.0</ele><time>2026-04-12T11:50:53.975Z</time></trkpt><trkpt lat="44.2324898" lon="11.5919363"><ele>574.0</ele><time>2026-04-12T11:50:54.974Z</time></trkpt><trkpt lat="44.2325934" lon="11.5919464"><ele>575.5</ele><time>2026-04-12T11:50:55.974Z</time></trkpt><trkpt lat="44.2327197" lon="11.5919861"><ele>577.0</ele><time>2026-04-12T11:50:56.974Z</time></trkpt><trkpt lat="44.2328482" lon="11.5920258"><ele>578.5</ele><time>2026-04-12T11:50:57.974Z</time></trkpt><trkpt lat="44.2329768" lon="11.592079"><ele>580.0</ele><time>2026-04-12T11:50:58.974Z</time></trkpt><trkpt lat="44.2331045" lon="11.5921459"><ele>578.5</ele><time>2026-04-12T11:50:59.974Z</time></trkpt><trkpt lat="44.2332254" lon="11.5922401"><ele>577.0</ele><time>2026-04-12T11:51:00.976Z</time></trkpt><trkpt lat="44.2333438" lon="11.59235"><ele>575.5</ele><time>2026-04-12T11:51:01.974Z</time></trkpt><trkpt lat="44.2334629" lon="11.5924564"><ele>574.0</ele><time>2026-04-12T11:51:02.973Z</time></trkpt><trkpt lat="44.2335801" lon="11.5925575"><ele>574.0</ele><time>2026-04-12T11:51:03.973Z</time></trkpt><trkpt lat="44.2336945" lon="11.592652"><ele>574.0</ele><time>2026-04-12T11:51:04.973Z</time></trkpt><trkpt lat="44.233811" lon="11.5927184"><ele>574.0</ele><time>2026-04-12T11:51:05.973Z</time></trkpt><trkpt lat="44.2339312" lon="11.5927709"><ele>574.0</ele><time>2026-04-12T11:51:06.974Z</time></trkpt><trkpt lat="44.2340482" lon="11.5928204"><ele>570.8333333333334</ele><time>2026-04-12T11:51:07.974Z</time></trkpt><trkpt lat="44.2341534" lon="11.5928867"><ele>567.6666666666667</ele><time>2026-04-12T11:51:08.974Z</time></trkpt><trkpt lat="44.2342396" lon="11.5929435"><ele>564.5</ele><time>2026-04-12T11:51:09.975Z</time></trkpt><trkpt lat="44.2343159" lon="11.5929884"><ele>561.3333333333334</ele><time>2026-04-12T11:51:10.973Z</time></trkpt><trkpt lat="44.2343886" lon="11.593006"><ele>558.1666666666666</ele><time>2026-04-12T11:51:11.975Z</time></trkpt><trkpt lat="44.2344641" lon="11.5929948"><ele>555.0</ele><time>2026-04-12T11:51:12.973Z</time></trkpt><trkpt lat="44.2345482" lon="11.5929398"><ele>555.25</ele><time>2026-04-12T11:51:13.975Z</time></trkpt><trkpt lat="44.2346376" lon="11.5928366"><ele>555.5</ele><time>2026-04-12T11:51:14.974Z</time></trkpt><trkpt lat="44.2347403" lon="11.5926922"><ele>555.75</ele><time>2026-04-12T11:51:15.974Z</time></trkpt><trkpt lat="44.2348384" lon="11.5925466"><ele>556.0</ele><time>2026-04-12T11:51:16.973Z</time></trkpt><trkpt lat="44.2349229" lon="11.592405"><ele>556.0</ele><time>2026-04-12T11:51:17.973Z</time></trkpt><trkpt lat="44.2349817" lon="11.592271"><ele>556.0</ele><time>2026-04-12T11:51:18.975Z</time></trkpt><trkpt lat="44.2350279" lon="11.5921553"><ele>556.0</ele><time>2026-04-12T11:51:19.974Z</time></trkpt><trkpt lat="44.2350657" lon="11.5920709"><ele>556.0</ele><time>2026-04-12T11:51:20.974Z</time></trkpt><trkpt lat="44.2351441" lon="11.5920054"><ele>556.0</ele><time>2026-04-12T11:51:22.974Z</time></trkpt><trkpt lat="44.2352133" lon="11.5920536"><ele>556.0</ele><time>2026-04-12T11:51:24.974Z</time></trkpt><trkpt lat="44.2352322" lon="11.5922396"><ele>556.0</ele><time>2026-04-12T11:51:26.976Z</time></trkpt><trkpt lat="44.2352265" lon="11.5923552"><ele>556.0</ele><time>2026-04-12T11:51:27.975Z</time></trkpt><trkpt lat="44.2352277" lon="11.592471"><ele>556.0</ele><time>2026-04-12T11:51:28.974Z</time></trkpt><trkpt lat="44.2352345" lon="11.5925873"><ele>556.0</ele><time>2026-04-12T11:51:29.974Z</time></trkpt><trkpt lat="44.235233" lon="11.5926984"><ele>556.0</ele><time>2026-04-12T11:51:30.973Z</time></trkpt><trkpt lat="44.2352386" lon="11.5928067"><ele>556.0</ele><time>2026-04-12T11:51:31.974Z</time></trkpt><trkpt lat="44.2352348" lon="11.5929131"><ele>555.6666666666667</ele><time>2026-04-12T11:51:32.975Z</time></trkpt><trkpt lat="44.235229" lon="11.5930192"><ele>555.3333333333334</ele><time>2026-04-12T11:51:33.974Z</time></trkpt><trkpt lat="44.2352178" lon="11.5931269"><ele>555.0</ele><time>2026-04-12T11:51:34.973Z</time></trkpt><trkpt lat="44.2352059" lon="11.5932408"><ele>554.6666666666666</ele><time>2026-04-12T11:51:35.974Z</time></trkpt><trkpt lat="44.2351939" lon="11.5933511"><ele>554.3333333333333</ele><time>2026-04-12T11:51:36.975Z</time></trkpt><trkpt lat="44.2351881" lon="11.593484"><ele>554.0</ele><time>2026-04-12T11:51:37.974Z</time></trkpt><trkpt lat="44.2351959" lon="11.5936322"><ele>551.6</ele><time>2026-04-12T11:51:38.974Z</time></trkpt><trkpt lat="44.235198" lon="11.5937689"><ele>549.2</ele><time>2026-04-12T11:51:39.974Z</time></trkpt><trkpt lat="44.2351994" lon="11.5939115"><ele>546.8000000000001</ele><time>2026-04-12T11:51:40.974Z</time></trkpt><trkpt lat="44.2351883" lon="11.594051"><ele>544.4</ele><time>2026-04-12T11:51:41.974Z</time></trkpt><trkpt lat="44.2351775" lon="11.5941848"><ele>542.0</ele><time>2026-04-12T11:51:42.974Z</time></trkpt><trkpt lat="44.2351553" lon="11.5943035"><ele>542.0</ele><time>2026-04-12T11:51:43.974Z</time></trkpt><trkpt lat="44.2351391" lon="11.5944103"><ele>542.0</ele><time>2026-04-12T11:51:44.974Z</time></trkpt><trkpt lat="44.2351312" lon="11.5945004"><ele>542.0</ele><time>2026-04-12T11:51:45.973Z</time></trkpt><trkpt lat="44.2351046" lon="11.5946123"><ele>534.0</ele><time>2026-04-12T11:51:47.973Z</time></trkpt><trkpt lat="44.23504" lon="11.5947056"><ele>534.0</ele><time>2026-04-12T11:51:50.974Z</time></trkpt><trkpt lat="44.2350611" lon="11.5947898"><ele>534.0</ele><time>2026-04-12T11:51:54.974Z</time></trkpt></trkseg></trk></gpx>